<?xml version='1.0' encoding='UTF-8'?><gpx version="1.1" creator="JPX - https://github.com/jenetics/jpx" xmlns="http://www.topografix.com/GPX/1/1"><trk><trkseg><trkpt lat="39.29015440041808" lon="9.213352736453944"><ele>89.0</ele><time>2026-03-29T07:40:06.999Z</time></trkpt><trkpt lat="39.29023645584552" lon="9.213389285740746"><ele>89.0</ele><time>2026-03-29T07:40:09.999Z</time></trkpt><trkpt lat="39.290256018399546" lon="9.213479396086806"><ele>89.0</ele><time>2026-03-29T07:40:11.999Z</time></trkpt><trkpt lat="39.29028619312044" lon="9.213621998753416"><ele>89.0</ele><time>2026-03-29T07:40:13.999Z</time></trkpt><trkpt lat="39.2903098651558" lon="9.213698173764465"><ele>89.0</ele><time>2026-03-29T07:40:14.999Z</time></trkpt><trkpt lat="39.29034442915797" lon="9.213787205477294"><ele>89.0</ele><time>2026-03-29T07:40:15.999Z</time></trkpt><trkpt lat="39.29038477540196" lon="9.213883180504489"><ele>89.33333333333334</ele><time>2026-03-29T07:40:16.999Z</time></trkpt><trkpt lat="39.29043272157696" lon="9.213995227144974"><ele>89.66666666666667</ele><time>2026-03-29T07:40:17.999Z</time></trkpt><trkpt lat="39.29045440397721" lon="9.214082618498331"><ele>90.0</ele><time>2026-03-29T07:40:18.999Z</time></trkpt><trkpt lat="39.29043389640463" lon="9.214228638703826"><ele>90.33333333333333</ele><time>2026-03-29T07:40:20.999Z</time></trkpt><trkpt lat="39.29044384304026" lon="9.214327090860882"><ele>90.66666666666666</ele><time>2026-03-29T07:40:21.999Z</time></trkpt><trkpt lat="39.29047658626577" lon="9.21442070681868"><ele>91.0</ele><time>2026-03-29T07:40:22.999Z</time></trkpt><trkpt lat="39.29052448508389" lon="9.214507083598933"><ele>91.75</ele><time>2026-03-29T07:40:23.999Z</time></trkpt><trkpt lat="39.290654094819644" lon="9.21450388363682"><ele>92.5</ele><time>2026-03-29T07:40:24.999Z</time></trkpt><trkpt lat="39.29072424009847" lon="9.214620155942276"><ele>93.25</ele><time>2026-03-29T07:40:25.999Z</time></trkpt><trkpt lat="39.290804210831425" lon="9.21470790097791"><ele>94.0</ele><time>2026-03-29T07:40:26.999Z</time></trkpt><trkpt lat="39.29087279055415" lon="9.21482870803129"><ele>94.0</ele><time>2026-03-29T07:40:27.999Z</time></trkpt><trkpt lat="39.29094586621553" lon="9.214958891459181"><ele>94.0</ele><time>2026-03-29T07:40:28.999Z</time></trkpt><trkpt lat="39.2910148292048" lon="9.21506486447143"><ele>94.0</ele><time>2026-03-29T07:40:29.999Z</time></trkpt><trkpt lat="39.29109418213889" lon="9.215186208182534"><ele>94.0</ele><time>2026-03-29T07:40:30.999Z</time></trkpt><trkpt lat="39.29116347461504" lon="9.21528797425645"><ele>94.0</ele><time>2026-03-29T07:40:31.999Z</time></trkpt><trkpt lat="39.29123486488682" lon="9.215377565667941"><ele>94.0</ele><time>2026-03-29T07:40:32.999Z</time></trkpt><trkpt lat="39.29132978404135" lon="9.215454281410276"><ele>94.0</ele><time>2026-03-29T07:40:33.999Z</time></trkpt><trkpt lat="39.29143520328686" lon="9.215522927272943"><ele>94.0</ele><time>2026-03-29T07:40:34.999Z</time></trkpt><trkpt lat="39.291551496676064" lon="9.215586442185193"><ele>95.0</ele><time>2026-03-29T07:40:35.999Z</time></trkpt><trkpt lat="39.291676746967866" lon="9.215634600517655"><ele>96.0</ele><time>2026-03-29T07:40:36.999Z</time></trkpt><trkpt lat="39.29180100992816" lon="9.215670582122891"><ele>97.0</ele><time>2026-03-29T07:40:37.999Z</time></trkpt><trkpt lat="39.29192224936102" lon="9.215710518393136"><ele>98.0</ele><time>2026-03-29T07:40:38.999Z</time></trkpt><trkpt lat="39.29205000954575" lon="9.215737368068464"><ele>98.0</ele><time>2026-03-29T07:40:39.999Z</time></trkpt><trkpt lat="39.29218470925705" lon="9.215756704875236"><ele>98.0</ele><time>2026-03-29T07:40:40.999Z</time></trkpt><trkpt lat="39.29231762023745" lon="9.215773388102457"><ele>98.0</ele><time>2026-03-29T07:40:41.999Z</time></trkpt><trkpt lat="39.29245229513258" lon="9.215790567892"><ele>98.0</ele><time>2026-03-29T07:40:42.999Z</time></trkpt><trkpt lat="39.29258402450266" lon="9.21582067846709"><ele>98.0</ele><time>2026-03-29T07:40:43.998Z</time></trkpt><trkpt lat="39.29272023528894" lon="9.215850376863957"><ele>98.0</ele><time>2026-03-29T07:40:44.998Z</time></trkpt><trkpt lat="39.292854462477045" lon="9.215864350915366"><ele>98.0</ele><time>2026-03-29T07:40:45.998Z</time></trkpt><trkpt lat="39.292978575846405" lon="9.215871367553577"><ele>98.0</ele><time>2026-03-29T07:40:46.998Z</time></trkpt><trkpt lat="39.293088448863415" lon="9.215885097456196"><ele>97.75</ele><time>2026-03-29T07:40:47.998Z</time></trkpt><trkpt lat="39.29319535188016" lon="9.215904839205622"><ele>97.5</ele><time>2026-03-29T07:40:48.998Z</time></trkpt><trkpt lat="39.29330394754582" lon="9.21591227801417"><ele>97.25</ele><time>2026-03-29T07:40:49.998Z</time></trkpt><trkpt lat="39.293428303298384" lon="9.215922108151856"><ele>97.0</ele><time>2026-03-29T07:40:50.998Z</time></trkpt><trkpt lat="39.2935618185375" lon="9.21593489234308"><ele>97.0</ele><time>2026-03-29T07:40:51.998Z</time></trkpt><trkpt lat="39.29369313023601" lon="9.215945003453339"><ele>97.0</ele><time>2026-03-29T07:40:52.998Z</time></trkpt><trkpt lat="39.29382786021263" lon="9.215957816633873"><ele>97.0</ele><time>2026-03-29T07:40:53.998Z</time></trkpt><trkpt lat="39.29395681691283" lon="9.215968547016727"><ele>97.0</ele><time>2026-03-29T07:40:54.998Z</time></trkpt><trkpt lat="39.294094625165386" lon="9.21597740524803"><ele>97.5</ele><time>2026-03-29T07:40:55.998Z</time></trkpt><trkpt lat="39.29422973131403" lon="9.216008191003974"><ele>98.0</ele><time>2026-03-29T07:40:56.998Z</time></trkpt><trkpt lat="39.294367073489745" lon="9.2160175104362"><ele>98.5</ele><time>2026-03-29T07:40:57.998Z</time></trkpt><trkpt lat="39.29450786719763" lon="9.216031404718171"><ele>99.0</ele><time>2026-03-29T07:40:58.998Z</time></trkpt><trkpt lat="39.294649641656115" lon="9.216043931078028"><ele>99.75</ele><time>2026-03-29T07:40:59.998Z</time></trkpt><trkpt lat="39.294793751303196" lon="9.216062036498622"><ele>100.5</ele><time>2026-03-29T07:41:00.998Z</time></trkpt><trkpt lat="39.29494114753155" lon="9.216074433292935"><ele>101.25</ele><time>2026-03-29T07:41:01.998Z</time></trkpt><trkpt lat="39.29509149143762" lon="9.21608579610699"><ele>102.0</ele><time>2026-03-29T07:41:02.998Z</time></trkpt><trkpt lat="39.29524145754871" lon="9.216103645594389"><ele>102.0</ele><time>2026-03-29T07:41:03.998Z</time></trkpt><trkpt lat="39.295383791630364" lon="9.216122870724341"><ele>102.0</ele><time>2026-03-29T07:41:04.998Z</time></trkpt><trkpt lat="39.29553097232159" lon="9.216136286927714"><ele>102.0</ele><time>2026-03-29T07:41:05.998Z</time></trkpt><trkpt lat="39.29566754476146" lon="9.216147297390977"><ele>102.0</ele><time>2026-03-29T07:41:06.998Z</time></trkpt><trkpt lat="39.29581114309081" lon="9.216163744224954"><ele>102.75</ele><time>2026-03-29T07:41:07.998Z</time></trkpt><trkpt lat="39.29594897008709" lon="9.21617223605417"><ele>103.5</ele><time>2026-03-29T07:41:08.998Z</time></trkpt><trkpt lat="39.296072035485" lon="9.216183789315807"><ele>104.25</ele><time>2026-03-29T07:41:09.998Z</time></trkpt><trkpt lat="39.29620917219009" lon="9.216179295774804"><ele>105.0</ele><time>2026-03-29T07:41:10.998Z</time></trkpt><trkpt lat="39.29635095605006" lon="9.216186476618706"><ele>105.75</ele><time>2026-03-29T07:41:11.998Z</time></trkpt><trkpt lat="39.29649044275342" lon="9.216193033190708"><ele>106.5</ele><time>2026-03-29T07:41:12.998Z</time></trkpt><trkpt lat="39.29663566060078" lon="9.216192133067729"><ele>107.25</ele><time>2026-03-29T07:41:13.998Z</time></trkpt><trkpt lat="39.29677220706646" lon="9.216174939943706"><ele>108.0</ele><time>2026-03-29T07:41:14.998Z</time></trkpt><trkpt lat="39.29688827985269" lon="9.21615318216772"><ele>108.0</ele><time>2026-03-29T07:41:15.998Z</time></trkpt><trkpt lat="39.29700550650481" lon="9.216124895665196"><ele>108.0</ele><time>2026-03-29T07:41:16.998Z</time></trkpt><trkpt lat="39.29712697496508" lon="9.216104164583777"><ele>108.0</ele><time>2026-03-29T07:41:17.998Z</time></trkpt><trkpt lat="39.29725073384173" lon="9.2160754532618"><ele>108.0</ele><time>2026-03-29T07:41:18.998Z</time></trkpt><trkpt lat="39.29738061936082" lon="9.216035824828712"><ele>107.75</ele><time>2026-03-29T07:41:19.998Z</time></trkpt><trkpt lat="39.29750958968387" lon="9.215983375543754"><ele>107.5</ele><time>2026-03-29T07:41:20.998Z</time></trkpt><trkpt lat="39.29763346110642" lon="9.21592166842987"><ele>107.25</ele><time>2026-03-29T07:41:21.998Z</time></trkpt><trkpt lat="39.29776001282532" lon="9.215853927243755"><ele>107.0</ele><time>2026-03-29T07:41:22.998Z</time></trkpt><trkpt lat="39.29788982852916" lon="9.21576943393446"><ele>107.0</ele><time>2026-03-29T07:41:23.997Z</time></trkpt><trkpt lat="39.298016247485435" lon="9.21570411559823"><ele>107.0</ele><time>2026-03-29T07:41:24.997Z</time></trkpt><trkpt lat="39.298140600566995" lon="9.215635235367836"><ele>107.0</ele><time>2026-03-29T07:41:25.997Z</time></trkpt><trkpt lat="39.29826539158164" lon="9.215570347001625"><ele>107.0</ele><time>2026-03-29T07:41:26.997Z</time></trkpt><trkpt lat="39.298388997484764" lon="9.215515024264334"><ele>107.6</ele><time>2026-03-29T07:41:27.997Z</time></trkpt><trkpt lat="39.29848466075183" lon="9.215462996355296"><ele>108.19999999999999</ele><time>2026-03-29T07:41:28.997Z</time></trkpt><trkpt lat="39.29858012362654" lon="9.215403669211417"><ele>108.8</ele><time>2026-03-29T07:41:29.997Z</time></trkpt><trkpt lat="39.29869080357961" lon="9.21534158743218"><ele>109.4</ele><time>2026-03-29T07:41:30.997Z</time></trkpt><trkpt lat="39.29877395043762" lon="9.215306908017364"><ele>110.0</ele><time>2026-03-29T07:41:31.997Z</time></trkpt><trkpt lat="39.298882032978064" lon="9.215218614702119"><ele>110.75</ele><time>2026-03-29T07:41:33.997Z</time></trkpt><trkpt lat="39.29896758391542" lon="9.21512208346048"><ele>111.5</ele><time>2026-03-29T07:41:34.997Z</time></trkpt><trkpt lat="39.29905153306322" lon="9.215011886387138"><ele>112.25</ele><time>2026-03-29T07:41:35.997Z</time></trkpt><trkpt lat="39.2991311871148" lon="9.214901757232681"><ele>113.0</ele><time>2026-03-29T07:41:36.997Z</time></trkpt><trkpt lat="39.29920348711063" lon="9.21478193701604"><ele>113.75</ele><time>2026-03-29T07:41:37.997Z</time></trkpt><trkpt lat="39.29926796672259" lon="9.21464959142939"><ele>114.5</ele><time>2026-03-29T07:41:39Z</time></trkpt><trkpt lat="39.29932682280721" lon="9.21451841159541"><ele>115.25</ele><time>2026-03-29T07:41:40Z</time></trkpt><trkpt lat="39.29937852227254" lon="9.214379001296031"><ele>116.0</ele><time>2026-03-29T07:41:41Z</time></trkpt><trkpt lat="39.29942964744377" lon="9.214239649276205"><ele>116.0</ele><time>2026-03-29T07:41:42Z</time></trkpt><trkpt lat="39.299474167753644" lon="9.214114032377092"><ele>116.0</ele><time>2026-03-29T07:41:43Z</time></trkpt><trkpt lat="39.29952493692467" lon="9.213983480021074"><ele>116.0</ele><time>2026-03-29T07:41:44Z</time></trkpt><trkpt lat="39.29957075900152" lon="9.213839786108505"><ele>116.0</ele><time>2026-03-29T07:41:45Z</time></trkpt><trkpt lat="39.299607481732174" lon="9.213682838385536"><ele>116.25</ele><time>2026-03-29T07:41:46Z</time></trkpt><trkpt lat="39.299644588872546" lon="9.213513802681106"><ele>116.5</ele><time>2026-03-29T07:41:47Z</time></trkpt><trkpt lat="39.29968376430223" lon="9.213345384977446"><ele>116.75</ele><time>2026-03-29T07:41:48Z</time></trkpt><trkpt lat="39.299725310889194" lon="9.213177395437407"><ele>117.0</ele><time>2026-03-29T07:41:49Z</time></trkpt><trkpt lat="39.299757401035976" lon="9.213024988097802"><ele>117.19999999999999</ele><time>2026-03-29T07:41:50Z</time></trkpt><trkpt lat="39.29979656198648" lon="9.212895154067816"><ele>117.39999999999999</ele><time>2026-03-29T07:41:51Z</time></trkpt><trkpt lat="39.29983964501855" lon="9.212768634814834"><ele>117.60000000000001</ele><time>2026-03-29T07:41:52Z</time></trkpt><trkpt lat="39.299888740409834" lon="9.212641544298268"><ele>117.80000000000001</ele><time>2026-03-29T07:41:53Z</time></trkpt><trkpt lat="39.29993962215661" lon="9.212530544532088"><ele>118.0</ele><time>2026-03-29T07:41:54Z</time></trkpt><trkpt lat="39.299993716831736" lon="9.212420004367374"><ele>118.60000000000001</ele><time>2026-03-29T07:41:55Z</time></trkpt><trkpt lat="39.300058462460115" lon="9.212313200721274"><ele>119.20000000000002</ele><time>2026-03-29T07:41:56Z</time></trkpt><trkpt lat="39.30013691859929" lon="9.212216276032745"><ele>119.8</ele><time>2026-03-29T07:41:57Z</time></trkpt><trkpt lat="39.30022465844344" lon="9.212122718325665"><ele>120.4</ele><time>2026-03-29T07:41:58Z</time></trkpt><trkpt lat="39.300319717663456" lon="9.212036852018324"><ele>121.0</ele><time>2026-03-29T07:41:59Z</time></trkpt><trkpt lat="39.300415341507644" lon="9.2119539150646"><ele>121.0</ele><time>2026-03-29T07:42:00Z</time></trkpt><trkpt lat="39.30051434882036" lon="9.211873756061062"><ele>121.0</ele><time>2026-03-29T07:42:01Z</time></trkpt><trkpt lat="39.30061793306842" lon="9.211796570796109"><ele>121.0</ele><time>2026-03-29T07:42:02Z</time></trkpt><trkpt lat="39.30072131012019" lon="9.211720990374825"><ele>121.0</ele><time>2026-03-29T07:42:03Z</time></trkpt><trkpt lat="39.30082821689421" lon="9.211640951704279"><ele>121.25</ele><time>2026-03-29T07:42:04Z</time></trkpt><trkpt lat="39.300938153260304" lon="9.211562367802335"><ele>121.5</ele><time>2026-03-29T07:42:05Z</time></trkpt><trkpt lat="39.30105481973844" lon="9.211487225296523"><ele>121.75</ele><time>2026-03-29T07:42:06Z</time></trkpt><trkpt lat="39.30117317166336" lon="9.211415086903926"><ele>122.0</ele><time>2026-03-29T07:42:07Z</time></trkpt><trkpt lat="39.301296210892" lon="9.211335858546096"><ele>122.5</ele><time>2026-03-29T07:42:08Z</time></trkpt><trkpt lat="39.30142153597949" lon="9.211248451543373"><ele>123.0</ele><time>2026-03-29T07:42:09Z</time></trkpt><trkpt lat="39.30155051993787" lon="9.211164423252654"><ele>123.5</ele><time>2026-03-29T07:42:10Z</time></trkpt><trkpt lat="39.301680440635444" lon="9.211083332598761"><ele>124.0</ele><time>2026-03-29T07:42:11Z</time></trkpt><trkpt lat="39.3018100034764" lon="9.21100210596087"><ele>124.0</ele><time>2026-03-29T07:42:11.999Z</time></trkpt><trkpt lat="39.30193113850737" lon="9.2109281947863"><ele>124.0</ele><time>2026-03-29T07:42:12.999Z</time></trkpt><trkpt lat="39.30203850524296" lon="9.21086116554588"><ele>124.0</ele><time>2026-03-29T07:42:13.999Z</time></trkpt><trkpt lat="39.30213998477014" lon="9.210796477824609"><ele>124.0</ele><time>2026-03-29T07:42:14.999Z</time></trkpt><trkpt lat="39.302232697382806" lon="9.210740443202704"><ele>124.33333333333334</ele><time>2026-03-29T07:42:15.999Z</time></trkpt><trkpt lat="39.302321218368505" lon="9.21069046301344"><ele>124.66666666666667</ele><time>2026-03-29T07:42:16.999Z</time></trkpt><trkpt lat="39.30240545317816" lon="9.210656777346848"><ele>125.0</ele><time>2026-03-29T07:42:17.999Z</time></trkpt><trkpt lat="39.30247663617179" lon="9.210640427416298"><ele>125.33333333333334</ele><time>2026-03-29T07:42:18.999Z</time></trkpt><trkpt lat="39.3025776355374" lon="9.210608751042313"><ele>125.66666666666667</ele><time>2026-03-29T07:42:20.999Z</time></trkpt><trkpt lat="39.3026377714166" lon="9.210579702829099"><ele>126.0</ele><time>2026-03-29T07:42:21.999Z</time></trkpt><trkpt lat="39.30271089963627" lon="9.21052741019686"><ele>126.25</ele><time>2026-03-29T07:42:22.999Z</time></trkpt><trkpt lat="39.30278298702717" lon="9.210445699447494"><ele>126.5</ele><time>2026-03-29T07:42:23.999Z</time></trkpt><trkpt lat="39.302847089205585" lon="9.210322872777809"><ele>126.75</ele><time>2026-03-29T07:42:24.999Z</time></trkpt><trkpt lat="39.30293476711896" lon="9.210177931003685"><ele>127.0</ele><time>2026-03-29T07:42:25.999Z</time></trkpt><trkpt lat="39.303060863817244" lon="9.210021776759339"><ele>127.0</ele><time>2026-03-29T07:42:26.999Z</time></trkpt><trkpt lat="39.30316549268131" lon="9.209839965267767"><ele>127.0</ele><time>2026-03-29T07:42:27.999Z</time></trkpt><trkpt lat="39.30326200878606" lon="9.20970818158264"><ele>127.0</ele><time>2026-03-29T07:42:28.999Z</time></trkpt><trkpt lat="39.30333602901173" lon="9.209600082059028"><ele>127.0</ele><time>2026-03-29T07:42:29.999Z</time></trkpt><trkpt lat="39.30339709671342" lon="9.209514426273074"><ele>127.16666666666667</ele><time>2026-03-29T07:42:30.999Z</time></trkpt><trkpt lat="39.303441882273525" lon="9.20945117617071"><ele>127.33333333333334</ele><time>2026-03-29T07:42:31.999Z</time></trkpt><trkpt lat="39.303510718833614" lon="9.209350352526512"><ele>127.5</ele><time>2026-03-29T07:42:33.999Z</time></trkpt><trkpt lat="39.303579833689" lon="9.209234757915773"><ele>127.66666666666666</ele><time>2026-03-29T07:42:35.999Z</time></trkpt><trkpt lat="39.30362450020459" lon="9.20917502646729"><ele>127.83333333333333</ele><time>2026-03-29T07:42:38.999Z</time></trkpt><trkpt lat="39.30367192271739" lon="9.209103038428056"><ele>128.0</ele><time>2026-03-29T07:42:40.999Z</time></trkpt><trkpt lat="39.30377539833095" lon="9.208981294563532"><ele>128.75</ele><time>2026-03-29T07:42:42.999Z</time></trkpt><trkpt lat="39.303836709357" lon="9.208867934186275"><ele>129.5</ele><time>2026-03-29T07:42:43.999Z</time></trkpt><trkpt lat="39.303915891461905" lon="9.208733981361547"><ele>130.25</ele><time>2026-03-29T07:42:44.999Z</time></trkpt><trkpt lat="39.304004061183385" lon="9.20858449920258"><ele>131.0</ele><time>2026-03-29T07:42:45.999Z</time></trkpt><trkpt lat="39.304095706055094" lon="9.208430319104725"><ele>131.0</ele><time>2026-03-29T07:42:46.999Z</time></trkpt><trkpt lat="39.304181214594514" lon="9.208257319186657"><ele>131.0</ele><time>2026-03-29T07:42:47.999Z</time></trkpt><trkpt lat="39.304281193468086" lon="9.208091538471336"><ele>131.0</ele><time>2026-03-29T07:42:48.999Z</time></trkpt><trkpt lat="39.304373645098515" lon="9.207938177498036"><ele>131.25</ele><time>2026-03-29T07:42:49.999Z</time></trkpt><trkpt lat="39.30446787035119" lon="9.207785208279047"><ele>131.5</ele><time>2026-03-29T07:42:50.999Z</time></trkpt><trkpt lat="39.304550349383135" lon="9.207649078335862"><ele>131.75</ele><time>2026-03-29T07:42:51.999Z</time></trkpt><trkpt lat="39.3046324722168" lon="9.207524790589256"><ele>132.0</ele><time>2026-03-29T07:42:52.998Z</time></trkpt><trkpt lat="39.3047107495945" lon="9.207420713764531"><ele>132.4</ele><time>2026-03-29T07:42:53.998Z</time></trkpt><trkpt lat="39.304781093765776" lon="9.207338411527967"><ele>132.79999999999998</ele><time>2026-03-29T07:42:54.998Z</time></trkpt><trkpt lat="39.30483497388528" lon="9.207266805160879"><ele>133.2</ele><time>2026-03-29T07:42:55.998Z</time></trkpt><trkpt lat="39.304880415022154" lon="9.207163484826106"><ele>133.6</ele><time>2026-03-29T07:42:56.998Z</time></trkpt><trkpt lat="39.3049490999283" lon="9.207050280936675"><ele>134.0</ele><time>2026-03-29T07:42:57.998Z</time></trkpt><trkpt lat="39.30502534547837" lon="9.206934777105166"><ele>134.25</ele><time>2026-03-29T07:42:58.998Z</time></trkpt><trkpt lat="39.305048432848054" lon="9.206747099373688"><ele>134.5</ele><time>2026-03-29T07:42:59.998Z</time></trkpt><trkpt lat="39.305148354004224" lon="9.206636293854809"><ele>134.75</ele><time>2026-03-29T07:43:00.998Z</time></trkpt><trkpt lat="39.30527161401709" lon="9.206533050507565"><ele>135.0</ele><time>2026-03-29T07:43:01.998Z</time></trkpt><trkpt lat="39.305412376260485" lon="9.20640573764296"><ele>135.5</ele><time>2026-03-29T07:43:02.998Z</time></trkpt><trkpt lat="39.305537483242745" lon="9.206292130971278"><ele>136.0</ele><time>2026-03-29T07:43:03.998Z</time></trkpt><trkpt lat="39.30563657705177" lon="9.20619627579907"><ele>136.5</ele><time>2026-03-29T07:43:04.998Z</time></trkpt><trkpt lat="39.30570902201382" lon="9.206123820223938"><ele>137.0</ele><time>2026-03-29T07:43:05.998Z</time></trkpt><trkpt lat="39.305775011857975" lon="9.20605704911377"><ele>137.0</ele><time>2026-03-29T07:43:06.998Z</time></trkpt><trkpt lat="39.30585037136804" lon="9.206000440763415"><ele>137.0</ele><time>2026-03-29T07:43:07.998Z</time></trkpt><trkpt lat="39.30594541271772" lon="9.205945699275263"><ele>137.0</ele><time>2026-03-29T07:43:08.998Z</time></trkpt><trkpt lat="39.306057238064966" lon="9.205941417456653"><ele>137.0</ele><time>2026-03-29T07:43:09.998Z</time></trkpt><trkpt lat="39.30619072106578" lon="9.205911120292773"><ele>137.0</ele><time>2026-03-29T07:43:10.998Z</time></trkpt><trkpt lat="39.30634829112354" lon="9.20587476572985"><ele>137.66666666666666</ele><time>2026-03-29T07:43:11.998Z</time></trkpt><trkpt lat="39.30649814865631" lon="9.205815562408645"><ele>138.33333333333334</ele><time>2026-03-29T07:43:12.998Z</time></trkpt><trkpt lat="39.306652817957385" lon="9.20573254286804"><ele>139.0</ele><time>2026-03-29T07:43:13.998Z</time></trkpt><trkpt lat="39.30679023511311" lon="9.205639503637922"><ele>139.5</ele><time>2026-03-29T07:43:14.998Z</time></trkpt><trkpt lat="39.30691371283637" lon="9.205542895167046"><ele>140.0</ele><time>2026-03-29T07:43:15.998Z</time></trkpt><trkpt lat="39.307039539131175" lon="9.205460212406395"><ele>140.5</ele><time>2026-03-29T07:43:16.998Z</time></trkpt><trkpt lat="39.3071577714942" lon="9.20538334518369"><ele>141.0</ele><time>2026-03-29T07:43:17.998Z</time></trkpt><trkpt lat="39.307272903320644" lon="9.20531920288308"><ele>141.6</ele><time>2026-03-29T07:43:18.998Z</time></trkpt><trkpt lat="39.30738918708418" lon="9.205264381436715"><ele>142.2</ele><time>2026-03-29T07:43:19.998Z</time></trkpt><trkpt lat="39.30746446076492" lon="9.205157469621943"><ele>142.8</ele><time>2026-03-29T07:43:20.998Z</time></trkpt><trkpt lat="39.307531964241136" lon="9.205067385436866"><ele>143.4</ele><time>2026-03-29T07:43:21.998Z</time></trkpt><trkpt lat="39.30757733557083" lon="9.204995682863775"><ele>144.0</ele><time>2026-03-29T07:43:22.998Z</time></trkpt><trkpt lat="39.30764131786126" lon="9.204959043334803"><ele>144.0</ele><time>2026-03-29T07:43:24.998Z</time></trkpt><trkpt lat="39.30776538349112" lon="9.205104349770595"><ele>144.0</ele><time>2026-03-29T07:43:25.998Z</time></trkpt><trkpt lat="39.307859209325876" lon="9.205207032489195"><ele>144.0</ele><time>2026-03-29T07:43:26.998Z</time></trkpt><trkpt lat="39.307992921349296" lon="9.20531346253887"><ele>144.0</ele><time>2026-03-29T07:43:27.998Z</time></trkpt><trkpt lat="39.30812997054516" lon="9.205416406754335"><ele>144.4</ele><time>2026-03-29T07:43:28.998Z</time></trkpt><trkpt lat="39.30826083011788" lon="9.205466930976025"><ele>144.8</ele><time>2026-03-29T07:43:29.998Z</time></trkpt><trkpt lat="39.30837095360663" lon="9.205464158237008"><ele>145.2</ele><time>2026-03-29T07:43:30.998Z</time></trkpt><trkpt lat="39.308452325061744" lon="9.205450997217444"><ele>145.6</ele><time>2026-03-29T07:43:31.998Z</time></trkpt><trkpt lat="39.308553709107834" lon="9.205438167015346"><ele>146.0</ele><time>2026-03-29T07:43:33.997Z</time></trkpt><trkpt lat="39.30862165272931" lon="9.205439241420041"><ele>146.0</ele><time>2026-03-29T07:43:37.997Z</time></trkpt><trkpt lat="39.30865026681082" lon="9.205640656083828"><ele>146.0</ele><time>2026-03-29T07:43:43.997Z</time></trkpt><trkpt lat="39.308635862154766" lon="9.205763653846866"><ele>146.0</ele><time>2026-03-29T07:43:47Z</time></trkpt><trkpt lat="39.30862071410983" lon="9.205886636293563"><ele>146.0</ele><time>2026-03-29T07:43:49Z</time></trkpt><trkpt lat="39.30869553657749" lon="9.20600449728926"><ele>146.0</ele><time>2026-03-29T07:43:51Z</time></trkpt><trkpt lat="39.30879878890838" lon="9.206055268770273"><ele>146.0</ele><time>2026-03-29T07:43:52Z</time></trkpt><trkpt lat="39.30890389396042" lon="9.206109521983294"><ele>146.0</ele><time>2026-03-29T07:43:53Z</time></trkpt><trkpt lat="39.309003113312315" lon="9.206158578874554"><ele>146.0</ele><time>2026-03-29T07:43:54Z</time></trkpt><trkpt lat="39.309082584690366" lon="9.206217404787013"><ele>146.0</ele><time>2026-03-29T07:43:55Z</time></trkpt><trkpt lat="39.30916191246529" lon="9.206254798075914"><ele>146.0</ele><time>2026-03-29T07:43:56Z</time></trkpt><trkpt lat="39.3092520695936" lon="9.206294094765559"><ele>146.0</ele><time>2026-03-29T07:43:57Z</time></trkpt><trkpt lat="39.30934439225027" lon="9.206342743430087"><ele>146.0</ele><time>2026-03-29T07:43:58Z</time></trkpt><trkpt lat="39.30942967488898" lon="9.2063976663252"><ele>146.0</ele><time>2026-03-29T07:43:59Z</time></trkpt><trkpt lat="39.30949527808607" lon="9.206452160688883"><ele>146.0</ele><time>2026-03-29T07:44:00Z</time></trkpt><trkpt lat="39.309561305870695" lon="9.20648305080183"><ele>146.0</ele><time>2026-03-29T07:44:01Z</time></trkpt><trkpt lat="39.309648780274934" lon="9.206486573474686"><ele>146.83333333333331</ele><time>2026-03-29T07:44:02Z</time></trkpt><trkpt lat="39.309718986053824" lon="9.206512117162047"><ele>147.66666666666666</ele><time>2026-03-29T07:44:03Z</time></trkpt><trkpt lat="39.30976861690508" lon="9.206566956778342"><ele>148.5</ele><time>2026-03-29T07:44:04Z</time></trkpt><trkpt lat="39.309831953234536" lon="9.20667010613182"><ele>149.33333333333334</ele><time>2026-03-29T07:44:05Z</time></trkpt><trkpt lat="39.309896916630066" lon="9.206767922529421"><ele>150.16666666666669</ele><time>2026-03-29T07:44:06Z</time></trkpt><trkpt lat="39.30996031935688" lon="9.206859025448992"><ele>151.0</ele><time>2026-03-29T07:44:07Z</time></trkpt><trkpt lat="39.31004273893885" lon="9.206909473682297"><ele>151.0</ele><time>2026-03-29T07:44:08Z</time></trkpt><trkpt lat="39.31013996174447" lon="9.206944558518094"><ele>151.0</ele><time>2026-03-29T07:44:09Z</time></trkpt><trkpt lat="39.31024028026431" lon="9.206976840967991"><ele>151.0</ele><time>2026-03-29T07:44:10Z</time></trkpt><trkpt lat="39.31033425892904" lon="9.207013080582472"><ele>151.0</ele><time>2026-03-29T07:44:11Z</time></trkpt><trkpt lat="39.3104089394865" lon="9.207053718036327"><ele>151.0</ele><time>2026-03-29T07:44:12Z</time></trkpt><trkpt lat="39.310468005120164" lon="9.207096215062508"><ele>151.0</ele><time>2026-03-29T07:44:13Z</time></trkpt><trkpt lat="39.31057209007591" lon="9.207105880587715"><ele>151.0</ele><time>2026-03-29T07:44:15Z</time></trkpt><trkpt lat="39.310641390703104" lon="9.207066593179265"><ele>151.0</ele><time>2026-03-29T07:44:16Z</time></trkpt><trkpt lat="39.310707736753955" lon="9.207041947993746"><ele>151.0</ele><time>2026-03-29T07:44:16.999Z</time></trkpt><trkpt lat="39.31080691363143" lon="9.206992249749788"><ele>151.0</ele><time>2026-03-29T07:44:18.999Z</time></trkpt><trkpt lat="39.310889434224066" lon="9.206896362255673"><ele>151.33333333333334</ele><time>2026-03-29T07:44:20.999Z</time></trkpt><trkpt lat="39.31099906255121" lon="9.206862247332191"><ele>151.66666666666669</ele><time>2026-03-29T07:44:22.999Z</time></trkpt><trkpt lat="39.31106831841416" lon="9.206854040412809"><ele>152.0</ele><time>2026-03-29T07:44:23.999Z</time></trkpt><trkpt lat="39.31114339238584" lon="9.20684201230204"><ele>152.33333333333334</ele><time>2026-03-29T07:44:24.999Z</time></trkpt><trkpt lat="39.31120568673237" lon="9.20681029943935"><ele>152.66666666666666</ele><time>2026-03-29T07:44:26.999Z</time></trkpt><trkpt lat="39.31122693321113" lon="9.206702713036655"><ele>153.0</ele><time>2026-03-29T07:44:28.999Z</time></trkpt><trkpt lat="39.31126845710286" lon="9.206633497172797"><ele>153.0</ele><time>2026-03-29T07:44:29.999Z</time></trkpt><trkpt lat="39.31133227455984" lon="9.206571723306093"><ele>153.0</ele><time>2026-03-29T07:44:30.999Z</time></trkpt><trkpt lat="39.311406973156295" lon="9.206517205405094"><ele>153.0</ele><time>2026-03-29T07:44:31.999Z</time></trkpt><trkpt lat="39.311492455375635" lon="9.206451115318059"><ele>153.0</ele><time>2026-03-29T07:44:32.999Z</time></trkpt><trkpt lat="39.31157917893292" lon="9.206379747262593"><ele>153.0</ele><time>2026-03-29T07:44:33.999Z</time></trkpt><trkpt lat="39.311649544378234" lon="9.206320206642713"><ele>154.0</ele><time>2026-03-29T07:44:34.999Z</time></trkpt><trkpt lat="39.311719054976585" lon="9.20627022335906"><ele>155.0</ele><time>2026-03-29T07:44:35.999Z</time></trkpt><trkpt lat="39.311783471926525" lon="9.206230302052806"><ele>156.0</ele><time>2026-03-29T07:44:36.999Z</time></trkpt><trkpt lat="39.311891583607625" lon="9.20619752639256"><ele>157.0</ele><time>2026-03-29T07:44:38.999Z</time></trkpt><trkpt lat="39.312016174302336" lon="9.206176165579501"><ele>158.0</ele><time>2026-03-29T07:44:40.999Z</time></trkpt><trkpt lat="39.3120946057582" lon="9.206168106587059"><ele>158.0</ele><time>2026-03-29T07:44:41.999Z</time></trkpt><trkpt lat="39.312184586321386" lon="9.206165144673667"><ele>158.0</ele><time>2026-03-29T07:44:42.999Z</time></trkpt><trkpt lat="39.31226475725147" lon="9.206150475064971"><ele>158.0</ele><time>2026-03-29T07:44:43.999Z</time></trkpt><trkpt lat="39.31235388065611" lon="9.206123408806574"><ele>158.0</ele><time>2026-03-29T07:44:44.999Z</time></trkpt><trkpt lat="39.312445569137736" lon="9.206108581928396"><ele>158.0</ele><time>2026-03-29T07:44:45.999Z</time></trkpt><trkpt lat="39.3125522142137" lon="9.206108970696462"><ele>159.75</ele><time>2026-03-29T07:44:46.999Z</time></trkpt><trkpt lat="39.312670172809014" lon="9.206117043667998"><ele>161.5</ele><time>2026-03-29T07:44:47.999Z</time></trkpt><trkpt lat="39.312790398910295" lon="9.20612795897889"><ele>163.25</ele><time>2026-03-29T07:44:48.999Z</time></trkpt><trkpt lat="39.31290449888358" lon="9.206147734898412"><ele>165.0</ele><time>2026-03-29T07:44:49.999Z</time></trkpt><trkpt lat="39.31301910981799" lon="9.206168670683628"><ele>168.0</ele><time>2026-03-29T07:44:50.999Z</time></trkpt><trkpt lat="39.31313225373533" lon="9.206181014069536"><ele>171.0</ele><time>2026-03-29T07:44:51.999Z</time></trkpt><trkpt lat="39.313251097436165" lon="9.206183320250823"><ele>174.0</ele><time>2026-03-29T07:44:52.999Z</time></trkpt><trkpt lat="39.31336586217584" lon="9.206184215433973"><ele>177.0</ele><time>2026-03-29T07:44:53.999Z</time></trkpt><trkpt lat="39.313476202058055" lon="9.206182468354253"><ele>177.0</ele><time>2026-03-29T07:44:54.999Z</time></trkpt><trkpt lat="39.31358512769868" lon="9.206170395692938"><ele>177.0</ele><time>2026-03-29T07:44:55.999Z</time></trkpt><trkpt lat="39.31369558112343" lon="9.206163232517865"><ele>177.0</ele><time>2026-03-29T07:44:56.998Z</time></trkpt><trkpt lat="39.31381252270101" lon="9.206153646868275"><ele>177.0</ele><time>2026-03-29T07:44:57.998Z</time></trkpt><trkpt lat="39.313920234755216" lon="9.206145429564298"><ele>177.0</ele><time>2026-03-29T07:44:58.998Z</time></trkpt><trkpt lat="39.314028986653206" lon="9.206156432350566"><ele>179.8</ele><time>2026-03-29T07:44:59.998Z</time></trkpt><trkpt lat="39.314139758455354" lon="9.206187616445895"><ele>182.6</ele><time>2026-03-29T07:45:00.998Z</time></trkpt><trkpt lat="39.31424106318998" lon="9.206241005583296"><ele>185.4</ele><time>2026-03-29T07:45:01.998Z</time></trkpt><trkpt lat="39.31432662131453" lon="9.20629049142047"><ele>188.20000000000002</ele><time>2026-03-29T07:45:02.998Z</time></trkpt><trkpt lat="39.31442550847819" lon="9.20634766868114"><ele>191.0</ele><time>2026-03-29T07:45:04.998Z</time></trkpt><trkpt lat="39.31451069041933" lon="9.206297226838046"><ele>191.0</ele><time>2026-03-29T07:45:07.998Z</time></trkpt><trkpt lat="39.31459517168825" lon="9.206271980777226"><ele>191.0</ele><time>2026-03-29T07:45:10.998Z</time></trkpt><trkpt lat="39.31466238703131" lon="9.206304187008737"><ele>191.0</ele><time>2026-03-29T07:45:11.998Z</time></trkpt><trkpt lat="39.31474278172423" lon="9.206343963075337"><ele>191.0</ele><time>2026-03-29T07:45:12.998Z</time></trkpt><trkpt lat="39.31482115131952" lon="9.206366629849123"><ele>191.0</ele><time>2026-03-29T07:45:13.998Z</time></trkpt><trkpt lat="39.314896485201224" lon="9.206370778622395"><ele>191.0</ele><time>2026-03-29T07:45:14.998Z</time></trkpt><trkpt lat="39.31498047892221" lon="9.206366034708308"><ele>193.4</ele><time>2026-03-29T07:45:15.998Z</time></trkpt><trkpt lat="39.315075072137034" lon="9.206366828418457"><ele>195.8</ele><time>2026-03-29T07:45:16.998Z</time></trkpt><trkpt lat="39.315177668656" lon="9.20635785751598"><ele>198.20000000000002</ele><time>2026-03-29T07:45:17.998Z</time></trkpt><trkpt lat="39.31527951000415" lon="9.20638922236885"><ele>200.60000000000002</ele><time>2026-03-29T07:45:18.998Z</time></trkpt><trkpt lat="39.315367780126955" lon="9.206411283918635"><ele>203.0</ele><time>2026-03-29T07:45:19.998Z</time></trkpt><trkpt lat="39.31544726160372" lon="9.206438498661486"><ele>203.00000000000003</ele><time>2026-03-29T07:45:20.998Z</time></trkpt><trkpt lat="39.315516690010206" lon="9.20646585245785"><ele>203.0</ele><time>2026-03-29T07:45:21.998Z</time></trkpt><trkpt lat="39.31559460015218" lon="9.206496217665244"><ele>203.0</ele><time>2026-03-29T07:45:22.998Z</time></trkpt><trkpt lat="39.315671625968406" lon="9.2065319735739"><ele>203.0</ele><time>2026-03-29T07:45:23.998Z</time></trkpt><trkpt lat="39.31574977987005" lon="9.20658197237326"><ele>203.00000000000003</ele><time>2026-03-29T07:45:24.998Z</time></trkpt><trkpt lat="39.315836204868184" lon="9.20664105808057"><ele>203.0</ele><time>2026-03-29T07:45:25.998Z</time></trkpt><trkpt lat="39.31593392126154" lon="9.206704086955213"><ele>203.0</ele><time>2026-03-29T07:45:26.998Z</time></trkpt><trkpt lat="39.31603930505883" lon="9.206738264469134"><ele>203.0</ele><time>2026-03-29T07:45:27.998Z</time></trkpt><trkpt lat="39.31613432160793" lon="9.206781082323946"><ele>203.0</ele><time>2026-03-29T07:45:28.998Z</time></trkpt><trkpt lat="39.31624113988748" lon="9.20679857071208"><ele>203.0</ele><time>2026-03-29T07:45:29.998Z</time></trkpt><trkpt lat="39.31635639821931" lon="9.206816153435216"><ele>203.0</ele><time>2026-03-29T07:45:30.998Z</time></trkpt><trkpt lat="39.31647000076472" lon="9.206834632026371"><ele>203.0</ele><time>2026-03-29T07:45:31.998Z</time></trkpt><trkpt lat="39.31657129674835" lon="9.206852235677415"><ele>203.0</ele><time>2026-03-29T07:45:32.998Z</time></trkpt><trkpt lat="39.31667135985373" lon="9.206868001479867"><ele>203.0</ele><time>2026-03-29T07:45:33.998Z</time></trkpt><trkpt lat="39.31676938357336" lon="9.206918938238116"><ele>203.0</ele><time>2026-03-29T07:45:34.998Z</time></trkpt><trkpt lat="39.31687490414998" lon="9.206964613826235"><ele>203.0</ele><time>2026-03-29T07:45:35.998Z</time></trkpt><trkpt lat="39.3169730722182" lon="9.206998500683568"><ele>203.0</ele><time>2026-03-29T07:45:36.998Z</time></trkpt><trkpt lat="39.317077636367785" lon="9.207015925868077"><ele>203.0</ele><time>2026-03-29T07:45:37.997Z</time></trkpt><trkpt lat="39.317183489331555" lon="9.206992555287083"><ele>203.0</ele><time>2026-03-29T07:45:38.997Z</time></trkpt><trkpt lat="39.31730647392015" lon="9.20696258990458"><ele>203.0</ele><time>2026-03-29T07:45:39.997Z</time></trkpt><trkpt lat="39.31743419707673" lon="9.206938501539693"><ele>203.33333333333334</ele><time>2026-03-29T07:45:40.997Z</time></trkpt><trkpt lat="39.31754513111688" lon="9.206940856393834"><ele>203.66666666666669</ele><time>2026-03-29T07:45:41.997Z</time></trkpt><trkpt lat="39.31763963207821" lon="9.20693327679531"><ele>204.0</ele><time>2026-03-29T07:45:42.997Z</time></trkpt><trkpt lat="39.317712387890644" lon="9.206902807888985"><ele>204.33333333333331</ele><time>2026-03-29T07:45:43.997Z</time></trkpt><trkpt lat="39.31777686699911" lon="9.206856463364153"><ele>204.66666666666666</ele><time>2026-03-29T07:45:44.997Z</time></trkpt><trkpt lat="39.3178129092061" lon="9.206779268747173"><ele>205.0</ele><time>2026-03-29T07:45:45.997Z</time></trkpt><trkpt lat="39.317864955402186" lon="9.20671416769797"><ele>205.0</ele><time>2026-03-29T07:45:46.997Z</time></trkpt><trkpt lat="39.317936240017815" lon="9.206734754994715"><ele>205.0</ele><time>2026-03-29T07:45:47.997Z</time></trkpt><trkpt lat="39.317998112179716" lon="9.206793076333563"><ele>205.0</ele><time>2026-03-29T07:45:48.997Z</time></trkpt><trkpt lat="39.31809083262659" lon="9.206817842946208"><ele>205.0</ele><time>2026-03-29T07:45:49.997Z</time></trkpt><trkpt lat="39.31820037127306" lon="9.206819401715691"><ele>205.0</ele><time>2026-03-29T07:45:51Z</time></trkpt><trkpt lat="39.31830792384665" lon="9.20684345139304"><ele>206.6</ele><time>2026-03-29T07:45:52Z</time></trkpt><trkpt lat="39.318418538652224" lon="9.206815094250306"><ele>208.2</ele><time>2026-03-29T07:45:53Z</time></trkpt><trkpt lat="39.31851972866907" lon="9.206780577530314"><ele>209.8</ele><time>2026-03-29T07:45:54Z</time></trkpt><trkpt lat="39.318622294223566" lon="9.206746120162451"><ele>211.4</ele><time>2026-03-29T07:45:55Z</time></trkpt><trkpt lat="39.31871631464477" lon="9.20672154290276"><ele>213.0</ele><time>2026-03-29T07:45:56Z</time></trkpt><trkpt lat="39.31878417599263" lon="9.206791526919757"><ele>213.0</ele><time>2026-03-29T07:45:57Z</time></trkpt><trkpt lat="39.318854655226716" lon="9.206806294863117"><ele>213.0</ele><time>2026-03-29T07:45:58Z</time></trkpt><trkpt lat="39.31893969082834" lon="9.206815979859519"><ele>213.0</ele><time>2026-03-29T07:45:59Z</time></trkpt><trkpt lat="39.319022940295056" lon="9.20681874167453"><ele>213.0</ele><time>2026-03-29T07:46:00Z</time></trkpt><trkpt lat="39.319106834103316" lon="9.20676171895242"><ele>213.0</ele><time>2026-03-29T07:46:01Z</time></trkpt><trkpt lat="39.31917135063585" lon="9.206663584513574"><ele>213.0</ele><time>2026-03-29T07:46:02Z</time></trkpt><trkpt lat="39.31920418624909" lon="9.206543669795634"><ele>214.8</ele><time>2026-03-29T07:46:03Z</time></trkpt><trkpt lat="39.31923706691657" lon="9.206408368225485"><ele>216.60000000000002</ele><time>2026-03-29T07:46:04Z</time></trkpt><trkpt lat="39.3192813274124" lon="9.206266631465924"><ele>218.39999999999998</ele><time>2026-03-29T07:46:05Z</time></trkpt><trkpt lat="39.31933191528883" lon="9.206139812250875"><ele>220.2</ele><time>2026-03-29T07:46:06Z</time></trkpt><trkpt lat="39.31938390585983" lon="9.206014036319871"><ele>222.0</ele><time>2026-03-29T07:46:07Z</time></trkpt><trkpt lat="39.319430620561405" lon="9.20588756954154"><ele>222.0</ele><time>2026-03-29T07:46:08Z</time></trkpt><trkpt lat="39.3194768025317" lon="9.205791785994249"><ele>222.0</ele><time>2026-03-29T07:46:09Z</time></trkpt><trkpt lat="39.31955658732595" lon="9.205763208098977"><ele>222.0</ele><time>2026-03-29T07:46:10Z</time></trkpt><trkpt lat="39.319629701151584" lon="9.205719723115442"><ele>222.0</ele><time>2026-03-29T07:46:11Z</time></trkpt><trkpt lat="39.319704159362566" lon="9.205660706096126"><ele>222.0</ele><time>2026-03-29T07:46:12Z</time></trkpt><trkpt lat="39.31980699246291" lon="9.205601997309213"><ele>224.5</ele><time>2026-03-29T07:46:13Z</time></trkpt><trkpt lat="39.31991445868235" lon="9.205530475108578"><ele>227.0</ele><time>2026-03-29T07:46:14Z</time></trkpt><trkpt lat="39.32002788242045" lon="9.205439068177487"><ele>229.5</ele><time>2026-03-29T07:46:15Z</time></trkpt><trkpt lat="39.32013684412133" lon="9.205343846818046"><ele>232.0</ele><time>2026-03-29T07:46:16Z</time></trkpt><trkpt lat="39.320221275744274" lon="9.20526329492119"><ele>232.0</ele><time>2026-03-29T07:46:17Z</time></trkpt><trkpt lat="39.320270640985925" lon="9.205188165524255"><ele>232.0</ele><time>2026-03-29T07:46:18Z</time></trkpt><trkpt lat="39.320368985118584" lon="9.205086442739205"><ele>232.0</ele><time>2026-03-29T07:46:20Z</time></trkpt><trkpt lat="39.320422784308654" lon="9.2050267099426"><ele>232.0</ele><time>2026-03-29T07:46:21Z</time></trkpt><trkpt lat="39.32038350218778" lon="9.204811054299716"><ele>232.0</ele><time>2026-03-29T07:46:22Z</time></trkpt><trkpt lat="39.32042467891907" lon="9.204721439608818"><ele>234.49999999999997</ele><time>2026-03-29T07:46:23Z</time></trkpt><trkpt lat="39.32047966230858" lon="9.204649338546822"><ele>237.0</ele><time>2026-03-29T07:46:23.999Z</time></trkpt><trkpt lat="39.32054320693546" lon="9.20458816921245"><ele>239.5</ele><time>2026-03-29T07:46:24.999Z</time></trkpt><trkpt lat="39.320608227289156" lon="9.204523822326424"><ele>242.0</ele><time>2026-03-29T07:46:25.999Z</time></trkpt><trkpt lat="39.32067820482914" lon="9.20445282195978"><ele>244.49999999999997</ele><time>2026-03-29T07:46:26.999Z</time></trkpt><trkpt lat="39.320745657388436" lon="9.20438979564355"><ele>247.0</ele><time>2026-03-29T07:46:27.999Z</time></trkpt><trkpt lat="39.32079701844998" lon="9.204338653680571"><ele>247.0</ele><time>2026-03-29T07:46:28.999Z</time></trkpt><trkpt lat="39.32081258132201" lon="9.204200168375099"><ele>247.0</ele><time>2026-03-29T07:46:30.999Z</time></trkpt><trkpt lat="39.32080672235195" lon="9.204066248288187"><ele>247.0</ele><time>2026-03-29T07:46:32.999Z</time></trkpt><trkpt lat="39.320882598997905" lon="9.203916548090096"><ele>247.0</ele><time>2026-03-29T07:46:34.999Z</time></trkpt><trkpt lat="39.32092799294582" lon="9.20383986238071"><ele>247.0</ele><time>2026-03-29T07:46:35.999Z</time></trkpt><trkpt lat="39.32102942684624" lon="9.203757871480152"><ele>246.6</ele><time>2026-03-29T07:46:37.999Z</time></trkpt><trkpt lat="39.321119848608106" lon="9.20366907896043"><ele>246.2</ele><time>2026-03-29T07:46:39.999Z</time></trkpt><trkpt lat="39.32112360036105" lon="9.203580919233747"><ele>245.8</ele><time>2026-03-29T07:46:41.999Z</time></trkpt><trkpt lat="39.32110041338085" lon="9.203454542490519"><ele>245.4</ele><time>2026-03-29T07:46:43.999Z</time></trkpt><trkpt lat="39.32111476499008" lon="9.20331056182364"><ele>245.0</ele><time>2026-03-29T07:46:45.999Z</time></trkpt><trkpt lat="39.32113071155632" lon="9.203229983837497"><ele>243.4</ele><time>2026-03-29T07:46:46.999Z</time></trkpt><trkpt lat="39.32120778071991" lon="9.202992911442971"><ele>241.8</ele><time>2026-03-29T07:46:47.999Z</time></trkpt><trkpt lat="39.32125424909534" lon="9.202913512295861"><ele>240.2</ele><time>2026-03-29T07:46:48.999Z</time></trkpt><trkpt lat="39.32129990034473" lon="9.202815705973952"><ele>238.6</ele><time>2026-03-29T07:46:49.999Z</time></trkpt><trkpt lat="39.32136443944131" lon="9.202760613624601"><ele>237.0</ele><time>2026-03-29T07:46:52.999Z</time></trkpt><trkpt lat="39.32130288222264" lon="9.202687325844135"><ele>237.0</ele><time>2026-03-29T07:46:55.999Z</time></trkpt><trkpt lat="39.321242846806044" lon="9.20266146386532"><ele>237.0</ele><time>2026-03-29T07:46:57.999Z</time></trkpt><trkpt lat="39.32119499968991" lon="9.20259477173012"><ele>237.0</ele><time>2026-03-29T07:46:59.999Z</time></trkpt><trkpt lat="39.32108744121851" lon="9.202553373586365"><ele>237.0</ele><time>2026-03-29T07:47:02.999Z</time></trkpt><trkpt lat="39.321022769293606" lon="9.202518744226042"><ele>237.0</ele><time>2026-03-29T07:47:04.998Z</time></trkpt><trkpt lat="39.32094829766272" lon="9.202487592728692"><ele>237.0</ele><time>2026-03-29T07:47:06.998Z</time></trkpt><trkpt lat="39.320861933470965" lon="9.202478131197028"><ele>237.0</ele><time>2026-03-29T07:47:08.998Z</time></trkpt><trkpt lat="39.32080614370637" lon="9.202430482602129"><ele>237.0</ele><time>2026-03-29T07:47:10.998Z</time></trkpt><trkpt lat="39.320720691985024" lon="9.202380540754353"><ele>237.0</ele><time>2026-03-29T07:47:12.998Z</time></trkpt><trkpt lat="39.32062927401065" lon="9.202310813270032"><ele>237.0</ele><time>2026-03-29T07:47:14.998Z</time></trkpt><trkpt lat="39.32051754187707" lon="9.202227806908388"><ele>237.0</ele><time>2026-03-29T07:47:16.998Z</time></trkpt><trkpt lat="39.32044807395809" lon="9.202190046285779"><ele>236.16666666666666</ele><time>2026-03-29T07:47:17.998Z</time></trkpt><trkpt lat="39.32038142540387" lon="9.202147185535324"><ele>235.33333333333331</ele><time>2026-03-29T07:47:18.998Z</time></trkpt><trkpt lat="39.320323739605676" lon="9.20209383907865"><ele>234.5</ele><time>2026-03-29T07:47:19.998Z</time></trkpt><trkpt lat="39.32026198749486" lon="9.20202777868505"><ele>233.66666666666666</ele><time>2026-03-29T07:47:20.998Z</time></trkpt><trkpt lat="39.32018981879281" lon="9.201956186359883"><ele>232.83333333333331</ele><time>2026-03-29T07:47:21.998Z</time></trkpt><trkpt lat="39.32012708662383" lon="9.201902886144227"><ele>232.0</ele><time>2026-03-29T07:47:22.998Z</time></trkpt><trkpt lat="39.32006382302067" lon="9.201849554005882"><ele>231.99999999999997</ele><time>2026-03-29T07:47:23.998Z</time></trkpt><trkpt lat="39.319985288706654" lon="9.201796453252609"><ele>232.0</ele><time>2026-03-29T07:47:24.998Z</time></trkpt><trkpt lat="39.31990007024415" lon="9.201755253620954"><ele>232.0</ele><time>2026-03-29T07:47:25.998Z</time></trkpt><trkpt lat="39.31981318100114" lon="9.201718932804424"><ele>232.0</ele><time>2026-03-29T07:47:26.998Z</time></trkpt><trkpt lat="39.31973179967589" lon="9.201696591383081"><ele>231.99999999999997</ele><time>2026-03-29T07:47:27.998Z</time></trkpt><trkpt lat="39.3196546733356" lon="9.201672754267173"><ele>232.0</ele><time>2026-03-29T07:47:28.998Z</time></trkpt><trkpt lat="39.31959288302247" lon="9.201635771028489"><ele>231.16666666666666</ele><time>2026-03-29T07:47:29.998Z</time></trkpt><trkpt lat="39.31952782940642" lon="9.201664203090946"><ele>230.33333333333331</ele><time>2026-03-29T07:47:30.998Z</time></trkpt><trkpt lat="39.319448796433264" lon="9.20171950777892"><ele>229.5</ele><time>2026-03-29T07:47:31.998Z</time></trkpt><trkpt lat="39.31935922770501" lon="9.201784517694799"><ele>228.66666666666669</ele><time>2026-03-29T07:47:32.998Z</time></trkpt><trkpt lat="39.319274998340546" lon="9.20184316613258"><ele>227.83333333333334</ele><time>2026-03-29T07:47:33.998Z</time></trkpt><trkpt lat="39.31919104146109" lon="9.20187870858529"><ele>227.0</ele><time>2026-03-29T07:47:34.998Z</time></trkpt><trkpt lat="39.319100191635606" lon="9.201901397150621"><ele>227.00000000000003</ele><time>2026-03-29T07:47:35.998Z</time></trkpt><trkpt lat="39.319011365862686" lon="9.20191612715122"><ele>227.0</ele><time>2026-03-29T07:47:36.998Z</time></trkpt><trkpt lat="39.31893235253257" lon="9.201920922360717"><ele>227.0</ele><time>2026-03-29T07:47:37.998Z</time></trkpt><trkpt lat="39.31884793615256" lon="9.201922342031603"><ele>227.0</ele><time>2026-03-29T07:47:38.998Z</time></trkpt><trkpt lat="39.31877171766201" lon="9.201900632523072"><ele>227.00000000000003</ele><time>2026-03-29T07:47:39.998Z</time></trkpt><trkpt lat="39.31868952299697" lon="9.201891062293864"><ele>227.0</ele><time>2026-03-29T07:47:40.998Z</time></trkpt><trkpt lat="39.318612242278405" lon="9.201877238818005"><ele>226.33333333333334</ele><time>2026-03-29T07:47:41.998Z</time></trkpt><trkpt lat="39.31854927536822" lon="9.20183548814802"><ele>225.66666666666669</ele><time>2026-03-29T07:47:42.998Z</time></trkpt><trkpt lat="39.31849605886853" lon="9.201771445088799"><ele>225.0</ele><time>2026-03-29T07:47:43.997Z</time></trkpt><trkpt lat="39.318441998097505" lon="9.201697275872368"><ele>224.33333333333331</ele><time>2026-03-29T07:47:44.997Z</time></trkpt><trkpt lat="39.31838657301121" lon="9.201623041218605"><ele>223.66666666666666</ele><time>2026-03-29T07:47:45.997Z</time></trkpt><trkpt lat="39.31832130080158" lon="9.201537326053884"><ele>223.0</ele><time>2026-03-29T07:47:46.997Z</time></trkpt><trkpt lat="39.31826707005697" lon="9.201472427719434"><ele>222.99999999999997</ele><time>2026-03-29T07:47:47.997Z</time></trkpt><trkpt lat="39.31815139236855" lon="9.201448249060686"><ele>223.0</ele><time>2026-03-29T07:47:49.997Z</time></trkpt><trkpt lat="39.31808380940212" lon="9.201457116340219"><ele>223.0</ele><time>2026-03-29T07:47:50.997Z</time></trkpt><trkpt lat="39.31800920815914" lon="9.201455101292845"><ele>223.0</ele><time>2026-03-29T07:47:51.997Z</time></trkpt><trkpt lat="39.31792743699713" lon="9.201436743505115"><ele>222.99999999999997</ele><time>2026-03-29T07:47:52.997Z</time></trkpt><trkpt lat="39.317856856172384" lon="9.201413479053839"><ele>223.0</ele><time>2026-03-29T07:47:53.997Z</time></trkpt><trkpt lat="39.31778228368468" lon="9.20138018613349"><ele>222.49999999999997</ele><time>2026-03-29T07:47:54.997Z</time></trkpt><trkpt lat="39.31769119895797" lon="9.201355114899217"><ele>222.0</ele><time>2026-03-29T07:47:55.997Z</time></trkpt><trkpt lat="39.31760630462699" lon="9.201324888107312"><ele>221.5</ele><time>2026-03-29T07:47:57Z</time></trkpt><trkpt lat="39.31753618994348" lon="9.201298065356871"><ele>221.0</ele><time>2026-03-29T07:47:58Z</time></trkpt><trkpt lat="39.31747317244015" lon="9.201285937960126"><ele>220.49999999999997</ele><time>2026-03-29T07:47:59Z</time></trkpt><trkpt lat="39.31739627756661" lon="9.201302819776734"><ele>220.0</ele><time>2026-03-29T07:48:00Z</time></trkpt><trkpt lat="39.31731429604941" lon="9.201348369024675"><ele>219.2</ele><time>2026-03-29T07:48:01Z</time></trkpt><trkpt lat="39.317222729785044" lon="9.201399679923258"><ele>218.4</ele><time>2026-03-29T07:48:02Z</time></trkpt><trkpt lat="39.31713538177315" lon="9.201427316048228"><ele>217.60000000000002</ele><time>2026-03-29T07:48:03Z</time></trkpt><trkpt lat="39.31704537792366" lon="9.20142852790045"><ele>216.8</ele><time>2026-03-29T07:48:04Z</time></trkpt><trkpt lat="39.31694645283057" lon="9.201384820531644"><ele>216.0</ele><time>2026-03-29T07:48:05Z</time></trkpt><trkpt lat="39.3168408774307" lon="9.201346466863642"><ele>216.0</ele><time>2026-03-29T07:48:06Z</time></trkpt><trkpt lat="39.31674533573955" lon="9.201315139490642"><ele>216.00000000000003</ele><time>2026-03-29T07:48:07Z</time></trkpt><trkpt lat="39.31664240860754" lon="9.201285659323606"><ele>216.00000000000003</ele><time>2026-03-29T07:48:08Z</time></trkpt><trkpt lat="39.316548371749704" lon="9.201268499234429"><ele>216.0</ele><time>2026-03-29T07:48:09Z</time></trkpt><trkpt lat="39.31644973665979" lon="9.201276939820026"><ele>216.0</ele><time>2026-03-29T07:48:10Z</time></trkpt><trkpt lat="39.31635555052337" lon="9.20130394062595"><ele>214.16666666666666</ele><time>2026-03-29T07:48:11Z</time></trkpt><trkpt lat="39.316273504588054" lon="9.201310647972923"><ele>212.33333333333331</ele><time>2026-03-29T07:48:12Z</time></trkpt><trkpt lat="39.31619692768654" lon="9.201293604999485"><ele>210.5</ele><time>2026-03-29T07:48:13Z</time></trkpt><trkpt lat="39.31612913373028" lon="9.201264289223493"><ele>208.66666666666666</ele><time>2026-03-29T07:48:14Z</time></trkpt><trkpt lat="39.31605146494391" lon="9.20124067157701"><ele>206.83333333333331</ele><time>2026-03-29T07:48:15Z</time></trkpt><trkpt lat="39.31597144475195" lon="9.201228918290585"><ele>205.0</ele><time>2026-03-29T07:48:16Z</time></trkpt><trkpt lat="39.31589082959813" lon="9.20124882164557"><ele>205.0</ele><time>2026-03-29T07:48:17Z</time></trkpt><trkpt lat="39.31580855625264" lon="9.201282395488784"><ele>205.0</ele><time>2026-03-29T07:48:18Z</time></trkpt><trkpt lat="39.31571923671261" lon="9.20131230953804"><ele>205.0</ele><time>2026-03-29T07:48:19Z</time></trkpt><trkpt lat="39.315630886363344" lon="9.201334569061778"><ele>205.0</ele><time>2026-03-29T07:48:20Z</time></trkpt><trkpt lat="39.31555030163593" lon="9.201367920856354"><ele>205.0</ele><time>2026-03-29T07:48:21Z</time></trkpt><trkpt lat="39.31544716061167" lon="9.201388353581732"><ele>205.8</ele><time>2026-03-29T07:48:22Z</time></trkpt><trkpt lat="39.315347216939905" lon="9.201442860631424"><ele>206.6</ele><time>2026-03-29T07:48:23Z</time></trkpt><trkpt lat="39.31525018440596" lon="9.201513611250482"><ele>207.39999999999998</ele><time>2026-03-29T07:48:24Z</time></trkpt><trkpt lat="39.315165281728625" lon="9.201597253776805"><ele>208.2</ele><time>2026-03-29T07:48:25Z</time></trkpt><trkpt lat="39.315094340688844" lon="9.201690864567112"><ele>209.0</ele><time>2026-03-29T07:48:26Z</time></trkpt><trkpt lat="39.315035198785544" lon="9.201804213563104"><ele>206.0</ele><time>2026-03-29T07:48:27Z</time></trkpt><trkpt lat="39.31498118016916" lon="9.201924719835555"><ele>203.0</ele><time>2026-03-29T07:48:28Z</time></trkpt><trkpt lat="39.31493817907236" lon="9.202041098192488"><ele>200.0</ele><time>2026-03-29T07:48:29Z</time></trkpt><trkpt lat="39.314879261870196" lon="9.202140914129066"><ele>197.0</ele><time>2026-03-29T07:48:30Z</time></trkpt><trkpt lat="39.314830179444066" lon="9.202215713286908"><ele>194.0</ele><time>2026-03-29T07:48:31Z</time></trkpt><trkpt lat="39.31479473945179" lon="9.202293748081493"><ele>194.79999999999998</ele><time>2026-03-29T07:48:32Z</time></trkpt><trkpt lat="39.31470955014325" lon="9.202270870133662"><ele>195.6</ele><time>2026-03-29T07:48:33Z</time></trkpt><trkpt lat="39.314631568075235" lon="9.202317345189543"><ele>196.4</ele><time>2026-03-29T07:48:33.999Z</time></trkpt><trkpt lat="39.314544447799754" lon="9.20237412545341"><ele>197.2</ele><time>2026-03-29T07:48:34.999Z</time></trkpt><trkpt lat="39.31445455079015" lon="9.202428586958286"><ele>198.0</ele><time>2026-03-29T07:48:35.999Z</time></trkpt><trkpt lat="39.314373136240576" lon="9.202462643886953"><ele>195.5</ele><time>2026-03-29T07:48:36.999Z</time></trkpt><trkpt lat="39.31429533766621" lon="9.202442937744642"><ele>193.0</ele><time>2026-03-29T07:48:37.999Z</time></trkpt><trkpt lat="39.31421281529093" lon="9.202434901897284"><ele>190.5</ele><time>2026-03-29T07:48:38.999Z</time></trkpt><trkpt lat="39.31413028240435" lon="9.202429528706277"><ele>188.0</ele><time>2026-03-29T07:48:39.999Z</time></trkpt><trkpt lat="39.31406012989365" lon="9.202451338907604"><ele>185.5</ele><time>2026-03-29T07:48:40.999Z</time></trkpt><trkpt lat="39.31398129970169" lon="9.20253809290129"><ele>183.0</ele><time>2026-03-29T07:48:42.999Z</time></trkpt><trkpt lat="39.313949289241464" lon="9.202625868935542"><ele>184.0</ele><time>2026-03-29T07:48:43.999Z</time></trkpt><trkpt lat="39.313902857808536" lon="9.202730499936399"><ele>185.0</ele><time>2026-03-29T07:48:44.999Z</time></trkpt><trkpt lat="39.31384064319784" lon="9.202820406039375"><ele>186.0</ele><time>2026-03-29T07:48:45.999Z</time></trkpt><trkpt lat="39.313785511463195" lon="9.202894056501504"><ele>187.0</ele><time>2026-03-29T07:48:46.999Z</time></trkpt><trkpt lat="39.313730549406415" lon="9.202956787361533"><ele>188.0</ele><time>2026-03-29T07:48:47.999Z</time></trkpt><trkpt lat="39.31366667712688" lon="9.2030152972688"><ele>189.0</ele><time>2026-03-29T07:48:48.999Z</time></trkpt><trkpt lat="39.31359195114192" lon="9.203058094013628"><ele>189.0</ele><time>2026-03-29T07:48:49.999Z</time></trkpt><trkpt lat="39.31352565299137" lon="9.2030717161512"><ele>189.0</ele><time>2026-03-29T07:48:50.999Z</time></trkpt><trkpt lat="39.31344185851473" lon="9.203063884021743"><ele>189.0</ele><time>2026-03-29T07:48:51.999Z</time></trkpt><trkpt lat="39.31334194445473" lon="9.20308064137242"><ele>189.0</ele><time>2026-03-29T07:48:52.999Z</time></trkpt><trkpt lat="39.313254289628766" lon="9.203108377695397"><ele>189.0</ele><time>2026-03-29T07:48:53.999Z</time></trkpt><trkpt lat="39.313175826307834" lon="9.203150467217142"><ele>189.0</ele><time>2026-03-29T07:48:54.999Z</time></trkpt><trkpt lat="39.31311469997162" lon="9.203176832483175"><ele>185.39999999999998</ele><time>2026-03-29T07:48:55.999Z</time></trkpt><trkpt lat="39.313036930312954" lon="9.203205954280438"><ele>181.8</ele><time>2026-03-29T07:48:58.999Z</time></trkpt><trkpt lat="39.31296144962608" lon="9.203217380586445"><ele>178.2</ele><time>2026-03-29T07:49:04.999Z</time></trkpt><trkpt lat="39.312862477423906" lon="9.203211855079196"><ele>174.60000000000002</ele><time>2026-03-29T07:49:07.999Z</time></trkpt><trkpt lat="39.31276506242749" lon="9.203199424499088"><ele>171.0</ele><time>2026-03-29T07:49:09.999Z</time></trkpt><trkpt lat="39.312655346737216" lon="9.203196702814731"><ele>171.0</ele><time>2026-03-29T07:49:11.999Z</time></trkpt><trkpt lat="39.312541210958244" lon="9.203219452613363"><ele>171.0</ele><time>2026-03-29T07:49:13.998Z</time></trkpt><trkpt lat="39.31245198210129" lon="9.203274483047919"><ele>171.0</ele><time>2026-03-29T07:49:15.998Z</time></trkpt><trkpt lat="39.312363209485056" lon="9.20336157212102"><ele>171.0</ele><time>2026-03-29T07:49:17.998Z</time></trkpt><trkpt lat="39.31228657566119" lon="9.203456595082624"><ele>171.0</ele><time>2026-03-29T07:49:19.998Z</time></trkpt><trkpt lat="39.312224438886446" lon="9.203535529508832"><ele>170.66666666666666</ele><time>2026-03-29T07:49:21.998Z</time></trkpt><trkpt lat="39.31217959434866" lon="9.203597491083723"><ele>170.33333333333331</ele><time>2026-03-29T07:49:23.998Z</time></trkpt><trkpt lat="39.31212697708092" lon="9.203651494170861"><ele>170.0</ele><time>2026-03-29T07:49:25.998Z</time></trkpt><trkpt lat="39.31180927953991" lon="9.203312453953748"><ele>170.0</ele><time>2026-03-29T07:49:26.998Z</time></trkpt><trkpt lat="39.31169549906941" lon="9.203353479505894"><ele>170.0</ele><time>2026-03-29T07:49:28.998Z</time></trkpt><trkpt lat="39.311628211383436" lon="9.203347823859556"><ele>170.0</ele><time>2026-03-29T07:49:29.998Z</time></trkpt><trkpt lat="39.31155887878959" lon="9.203333904404822"><ele>170.0</ele><time>2026-03-29T07:49:30.998Z</time></trkpt><trkpt lat="39.31149515567839" lon="9.203331578051895"><ele>170.0</ele><time>2026-03-29T07:49:31.998Z</time></trkpt><trkpt lat="39.31140979346987" lon="9.203334916994834"><ele>170.0</ele><time>2026-03-29T07:49:33.998Z</time></trkpt><trkpt lat="39.311327233089244" lon="9.20340100556175"><ele>170.0</ele><time>2026-03-29T07:49:35.998Z</time></trkpt><trkpt lat="39.311220504648475" lon="9.203430167613835"><ele>170.0</ele><time>2026-03-29T07:49:37.998Z</time></trkpt><trkpt lat="39.31111292053857" lon="9.203463931846558"><ele>170.0</ele><time>2026-03-29T07:49:39.998Z</time></trkpt><trkpt lat="39.31103425307474" lon="9.203462487324087"><ele>170.0</ele><time>2026-03-29T07:49:41.998Z</time></trkpt><trkpt lat="39.31092413867099" lon="9.203386420312986"><ele>170.0</ele><time>2026-03-29T07:49:43.998Z</time></trkpt><trkpt lat="39.31086915611299" lon="9.203296808107341"><ele>170.0</ele><time>2026-03-29T07:49:46.998Z</time></trkpt><trkpt lat="39.31078729083627" lon="9.203265181758118"><ele>170.0</ele><time>2026-03-29T07:49:49.998Z</time></trkpt><trkpt lat="39.310724923520304" lon="9.203251125362872"><ele>170.0</ele><time>2026-03-29T07:49:51.998Z</time></trkpt><trkpt lat="39.310650877372865" lon="9.203205298613845"><ele>170.0</ele><time>2026-03-29T07:49:54.997Z</time></trkpt><trkpt lat="39.31071546177457" lon="9.203138813381297"><ele>170.0</ele><time>2026-03-29T07:49:58.997Z</time></trkpt><trkpt lat="39.3107814086764" lon="9.203147001166009"><ele>170.0</ele><time>2026-03-29T07:50:00.997Z</time></trkpt><trkpt lat="39.3109490753533" lon="9.203027723918499"><ele>171.0</ele><time>2026-03-29T07:50:01.997Z</time></trkpt><trkpt lat="39.31106367154963" lon="9.203011964976474"><ele>172.0</ele><time>2026-03-29T07:50:04Z</time></trkpt><trkpt lat="39.31112510201659" lon="9.202978955338676"><ele>173.0</ele><time>2026-03-29T07:50:05Z</time></trkpt><trkpt lat="39.31118662809549" lon="9.202935862356604"><ele>174.0</ele><time>2026-03-29T07:50:06Z</time></trkpt><trkpt lat="39.31126140839644" lon="9.202871890882005"><ele>175.0</ele><time>2026-03-29T07:50:07Z</time></trkpt><trkpt lat="39.3113457150374" lon="9.20283530253896"><ele>176.0</ele><time>2026-03-29T07:50:08Z</time></trkpt><trkpt lat="39.31143558916289" lon="9.202801467083724"><ele>178.0</ele><time>2026-03-29T07:50:09Z</time></trkpt><trkpt lat="39.31153597373519" lon="9.202761612575626"><ele>180.0</ele><time>2026-03-29T07:50:10Z</time></trkpt><trkpt lat="39.31161539226395" lon="9.202713720825919"><ele>182.0</ele><time>2026-03-29T07:50:11Z</time></trkpt><trkpt lat="39.31168653480161" lon="9.202666999715817"><ele>184.0</ele><time>2026-03-29T07:50:12Z</time></trkpt><trkpt lat="39.3117397685973" lon="9.202552086111702"><ele>186.0</ele><time>2026-03-29T07:50:14Z</time></trkpt><trkpt lat="39.311830875156986" lon="9.202482849611386"><ele>186.00000000000003</ele><time>2026-03-29T07:50:16Z</time></trkpt><trkpt lat="39.31191011532878" lon="9.202445988016336"><ele>186.0</ele><time>2026-03-29T07:50:18Z</time></trkpt><trkpt lat="39.31197168999567" lon="9.202426441081368"><ele>186.0</ele><time>2026-03-29T07:50:19Z</time></trkpt><trkpt lat="39.31204527244354" lon="9.202419289731573"><ele>186.0</ele><time>2026-03-29T07:50:20Z</time></trkpt><trkpt lat="39.31210795146551" lon="9.202438043379592"><ele>186.0</ele><time>2026-03-29T07:50:22Z</time></trkpt><trkpt lat="39.31216970051195" lon="9.202388468863356"><ele>186.00000000000003</ele><time>2026-03-29T07:50:26Z</time></trkpt><trkpt lat="39.312248273087356" lon="9.20233916112154"><ele>186.0</ele><time>2026-03-29T07:50:29Z</time></trkpt><trkpt lat="39.312310550651375" lon="9.202270870161449"><ele>188.60000000000002</ele><time>2026-03-29T07:50:32Z</time></trkpt><trkpt lat="39.31235261717396" lon="9.202205425234007"><ele>191.2</ele><time>2026-03-29T07:50:34Z</time></trkpt><trkpt lat="39.3123885911623" lon="9.20211020012922"><ele>193.8</ele><time>2026-03-29T07:50:35Z</time></trkpt><trkpt lat="39.312398578232006" lon="9.20201533253326"><ele>196.39999999999998</ele><time>2026-03-29T07:50:36Z</time></trkpt><trkpt lat="39.31245697612623" lon="9.201864542519493"><ele>199.0</ele><time>2026-03-29T07:50:38Z</time></trkpt><trkpt lat="39.31256357733118" lon="9.201756366130077"><ele>199.0</ele><time>2026-03-29T07:50:39.999Z</time></trkpt><trkpt lat="39.312643360901994" lon="9.201691491079602"><ele>199.0</ele><time>2026-03-29T07:50:40.999Z</time></trkpt><trkpt lat="39.31272684162296" lon="9.201630931943583"><ele>199.0</ele><time>2026-03-29T07:50:41.999Z</time></trkpt><trkpt lat="39.31281022665027" lon="9.201558460111768"><ele>199.0</ele><time>2026-03-29T07:50:42.999Z</time></trkpt><trkpt lat="39.31287789513152" lon="9.201494146788106"><ele>199.0</ele><time>2026-03-29T07:50:43.999Z</time></trkpt><trkpt lat="39.31294756728803" lon="9.201425560796547"><ele>198.79999999999998</ele><time>2026-03-29T07:50:44.999Z</time></trkpt><trkpt lat="39.313025710592065" lon="9.201368829210766"><ele>198.6</ele><time>2026-03-29T07:50:45.999Z</time></trkpt><trkpt lat="39.31310396973915" lon="9.201321704687075"><ele>198.4</ele><time>2026-03-29T07:50:46.999Z</time></trkpt><trkpt lat="39.31318714614602" lon="9.201266402396245"><ele>198.2</ele><time>2026-03-29T07:50:47.999Z</time></trkpt><trkpt lat="39.313269850750565" lon="9.201197775060002"><ele>198.0</ele><time>2026-03-29T07:50:48.999Z</time></trkpt><trkpt lat="39.31334456068847" lon="9.201120001865627"><ele>199.8</ele><time>2026-03-29T07:50:49.999Z</time></trkpt><trkpt lat="39.313414748016235" lon="9.201048323296275"><ele>201.60000000000002</ele><time>2026-03-29T07:50:50.999Z</time></trkpt><trkpt lat="39.313481944089844" lon="9.20096552354308"><ele>203.39999999999998</ele><time>2026-03-29T07:50:51.999Z</time></trkpt><trkpt lat="39.31354116637377" lon="9.200878933842903"><ele>205.2</ele><time>2026-03-29T07:50:52.999Z</time></trkpt><trkpt lat="39.313608454576766" lon="9.200804231266753"><ele>207.0</ele><time>2026-03-29T07:50:53.999Z</time></trkpt><trkpt lat="39.31368067228565" lon="9.200736689345872"><ele>206.0</ele><time>2026-03-29T07:50:54.999Z</time></trkpt><trkpt lat="39.3137583605778" lon="9.20066203862704"><ele>205.0</ele><time>2026-03-29T07:50:55.999Z</time></trkpt><trkpt lat="39.31381245031446" lon="9.200586195093312"><ele>204.0</ele><time>2026-03-29T07:50:56.999Z</time></trkpt><trkpt lat="39.31386857390993" lon="9.200491312829316"><ele>203.0</ele><time>2026-03-29T07:50:57.999Z</time></trkpt><trkpt lat="39.31392558298322" lon="9.200423104270609"><ele>202.0</ele><time>2026-03-29T07:50:58.999Z</time></trkpt><trkpt lat="39.313989387805016" lon="9.200373989952539"><ele>201.0</ele><time>2026-03-29T07:50:59.999Z</time></trkpt><trkpt lat="39.31405746054733" lon="9.20032838127647"><ele>203.28571428571428</ele><time>2026-03-29T07:51:00.999Z</time></trkpt><trkpt lat="39.31411983813967" lon="9.20026676046149"><ele>205.57142857142858</ele><time>2026-03-29T07:51:01.999Z</time></trkpt><trkpt lat="39.31417097269634" lon="9.200206416827902"><ele>207.85714285714286</ele><time>2026-03-29T07:51:02.999Z</time></trkpt><trkpt lat="39.31422410338166" lon="9.200146987521975"><ele>210.14285714285714</ele><time>2026-03-29T07:51:03.999Z</time></trkpt><trkpt lat="39.314266463108076" lon="9.200077075673677"><ele>212.42857142857144</ele><time>2026-03-29T07:51:04.999Z</time></trkpt><trkpt lat="39.31430959261602" lon="9.200000081360185"><ele>214.71428571428572</ele><time>2026-03-29T07:51:05.999Z</time></trkpt><trkpt lat="39.31436618818739" lon="9.199936861036539"><ele>217.0</ele><time>2026-03-29T07:51:06.999Z</time></trkpt><trkpt lat="39.314447821266214" lon="9.199880287881067"><ele>217.0</ele><time>2026-03-29T07:51:07.999Z</time></trkpt><trkpt lat="39.31453674274783" lon="9.199836500957232"><ele>217.0</ele><time>2026-03-29T07:51:08.999Z</time></trkpt><trkpt lat="39.31463185195311" lon="9.199792457601347"><ele>217.0</ele><time>2026-03-29T07:51:09.999Z</time></trkpt><trkpt lat="39.31472466753322" lon="9.199743959401928"><ele>217.0</ele><time>2026-03-29T07:51:10.999Z</time></trkpt><trkpt lat="39.31481455513831" lon="9.19969433561911"><ele>217.0</ele><time>2026-03-29T07:51:11.999Z</time></trkpt><trkpt lat="39.31491853186356" lon="9.199661102364697"><ele>218.83333333333331</ele><time>2026-03-29T07:51:12.999Z</time></trkpt><trkpt lat="39.314994668433066" lon="9.199635780474814"><ele>220.66666666666666</ele><time>2026-03-29T07:51:13.999Z</time></trkpt><trkpt lat="39.31505870110528" lon="9.199594816813091"><ele>222.5</ele><time>2026-03-29T07:51:14.999Z</time></trkpt><trkpt lat="39.31511526437951" lon="9.199513685553475"><ele>224.33333333333331</ele><time>2026-03-29T07:51:15.998Z</time></trkpt><trkpt lat="39.31517368503065" lon="9.199415667799773"><ele>226.16666666666666</ele><time>2026-03-29T07:51:16.998Z</time></trkpt><trkpt lat="39.31522855473517" lon="9.199321933539109"><ele>228.0</ele><time>2026-03-29T07:51:17.998Z</time></trkpt><trkpt lat="39.31528296811218" lon="9.199222346114016"><ele>228.0</ele><time>2026-03-29T07:51:18.998Z</time></trkpt><trkpt lat="39.315349016077725" lon="9.19915070803434"><ele>228.0</ele><time>2026-03-29T07:51:19.998Z</time></trkpt><trkpt lat="39.31542308088424" lon="9.19908975710188"><ele>228.0</ele><time>2026-03-29T07:51:20.998Z</time></trkpt><trkpt lat="39.3155045204342" lon="9.199025570729374"><ele>228.0</ele><time>2026-03-29T07:51:21.998Z</time></trkpt><trkpt lat="39.315583238881736" lon="9.19895827814317"><ele>228.0</ele><time>2026-03-29T07:51:22.998Z</time></trkpt><trkpt lat="39.315675694928366" lon="9.198901669339861"><ele>230.2</ele><time>2026-03-29T07:51:23.998Z</time></trkpt><trkpt lat="39.31576997410329" lon="9.198877178407745"><ele>232.4</ele><time>2026-03-29T07:51:24.998Z</time></trkpt><trkpt lat="39.315865326890034" lon="9.198865012916709"><ele>234.59999999999997</ele><time>2026-03-29T07:51:25.998Z</time></trkpt><trkpt lat="39.31595119803773" lon="9.198848546022733"><ele>236.79999999999998</ele><time>2026-03-29T07:51:26.998Z</time></trkpt><trkpt lat="39.31604437768997" lon="9.198810675361896"><ele>239.0</ele><time>2026-03-29T07:51:27.998Z</time></trkpt><trkpt lat="39.31615880706796" lon="9.198754600231014"><ele>239.0</ele><time>2026-03-29T07:51:28.998Z</time></trkpt><trkpt lat="39.3162560287989" lon="9.198720058722227"><ele>238.99999999999997</ele><time>2026-03-29T07:51:29.998Z</time></trkpt><trkpt lat="39.316356180632546" lon="9.198696210632635"><ele>238.99999999999997</ele><time>2026-03-29T07:51:30.998Z</time></trkpt><trkpt lat="39.31646404376846" lon="9.198691237214957"><ele>239.0</ele><time>2026-03-29T07:51:31.998Z</time></trkpt><trkpt lat="39.31658642823428" lon="9.198684100962558"><ele>239.0</ele><time>2026-03-29T07:51:32.998Z</time></trkpt><trkpt lat="39.31669851423893" lon="9.198662251072934"><ele>240.79999999999998</ele><time>2026-03-29T07:51:33.998Z</time></trkpt><trkpt lat="39.31680313502806" lon="9.19865861862655"><ele>242.59999999999997</ele><time>2026-03-29T07:51:34.998Z</time></trkpt><trkpt lat="39.316904509598544" lon="9.198655028837397"><ele>244.4</ele><time>2026-03-29T07:51:35.998Z</time></trkpt><trkpt lat="39.31699786151391" lon="9.19861347814643"><ele>246.2</ele><time>2026-03-29T07:51:36.998Z</time></trkpt><trkpt lat="39.317107269279525" lon="9.198604280553043"><ele>248.0</ele><time>2026-03-29T07:51:37.998Z</time></trkpt><trkpt lat="39.317219803482075" lon="9.198586117862334"><ele>250.5</ele><time>2026-03-29T07:51:38.998Z</time></trkpt><trkpt lat="39.31732276920417" lon="9.198553770824208"><ele>253.0</ele><time>2026-03-29T07:51:39.998Z</time></trkpt><trkpt lat="39.31743460404703" lon="9.19850064474557"><ele>255.5</ele><time>2026-03-29T07:51:40.998Z</time></trkpt><trkpt lat="39.317544023897305" lon="9.198443140292655"><ele>258.0</ele><time>2026-03-29T07:51:41.998Z</time></trkpt><trkpt lat="39.317653120018214" lon="9.198469226591888"><ele>258.0</ele><time>2026-03-29T07:51:42.998Z</time></trkpt><trkpt lat="39.3177313424319" lon="9.19843698708663"><ele>258.0</ele><time>2026-03-29T07:51:43.998Z</time></trkpt><trkpt lat="39.317803104014146" lon="9.198415216978184"><ele>258.0</ele><time>2026-03-29T07:51:44.998Z</time></trkpt><trkpt lat="39.317885895452044" lon="9.198397966855353"><ele>258.0</ele><time>2026-03-29T07:51:45.998Z</time></trkpt><trkpt lat="39.317974516617355" lon="9.198384277078352"><ele>258.0</ele><time>2026-03-29T07:51:46.998Z</time></trkpt><trkpt lat="39.31803697540344" lon="9.19842857976434"><ele>258.0</ele><time>2026-03-29T07:51:47.998Z</time></trkpt><trkpt lat="39.31815087593754" lon="9.198506483089123"><ele>259.3333333333333</ele><time>2026-03-29T07:51:49.998Z</time></trkpt><trkpt lat="39.318210544941245" lon="9.198538121347301"><ele>260.6666666666667</ele><time>2026-03-29T07:51:50.998Z</time></trkpt><trkpt lat="39.3182615666193" lon="9.1985966756825"><ele>262.0</ele><time>2026-03-29T07:51:51.998Z</time></trkpt><trkpt lat="39.31837914917248" lon="9.198644880524357"><ele>263.33333333333337</ele><time>2026-03-29T07:51:53.998Z</time></trkpt><trkpt lat="39.31844134086401" lon="9.198682622223973"><ele>264.6666666666667</ele><time>2026-03-29T07:51:54.997Z</time></trkpt><trkpt lat="39.31850431021175" lon="9.198664512079729"><ele>266.0</ele><time>2026-03-29T07:51:55.997Z</time></trkpt><trkpt lat="39.3185656401667" lon="9.198621711567805"><ele>266.0</ele><time>2026-03-29T07:51:56.997Z</time></trkpt><trkpt lat="39.31862556055494" lon="9.198571163360706"><ele>266.0</ele><time>2026-03-29T07:51:57.997Z</time></trkpt><trkpt lat="39.31868730187519" lon="9.198511331431478"><ele>266.0</ele><time>2026-03-29T07:51:58.997Z</time></trkpt><trkpt lat="39.31875136729213" lon="9.198471603877838"><ele>266.0</ele><time>2026-03-29T07:51:59.997Z</time></trkpt><trkpt lat="39.31881893098173" lon="9.198439954881687"><ele>266.0</ele><time>2026-03-29T07:52:00.997Z</time></trkpt><trkpt lat="39.31889394202431" lon="9.198387611016626"><ele>266.0</ele><time>2026-03-29T07:52:01.997Z</time></trkpt><trkpt lat="39.318970051379864" lon="9.198314719202202"><ele>265.2</ele><time>2026-03-29T07:52:02.997Z</time></trkpt><trkpt lat="39.31905794115677" lon="9.198300257841053"><ele>264.40000000000003</ele><time>2026-03-29T07:52:03.997Z</time></trkpt><trkpt lat="39.31915915718182" lon="9.198269150923936"><ele>263.6</ele><time>2026-03-29T07:52:04.997Z</time></trkpt><trkpt lat="39.319278210307786" lon="9.198205535189041"><ele>262.8</ele><time>2026-03-29T07:52:05.997Z</time></trkpt><trkpt lat="39.31938678071286" lon="9.198153440551856"><ele>262.0</ele><time>2026-03-29T07:52:06.997Z</time></trkpt><trkpt lat="39.31950054278054" lon="9.198078676014722"><ele>264.0</ele><time>2026-03-29T07:52:07.997Z</time></trkpt><trkpt lat="39.31962362261916" lon="9.1980290643984"><ele>266.0</ele><time>2026-03-29T07:52:09Z</time></trkpt><trkpt lat="39.31975007972519" lon="9.197962766995152"><ele>268.0</ele><time>2026-03-29T07:52:10Z</time></trkpt><trkpt lat="39.31986535576089" lon="9.1979161704613"><ele>270.0</ele><time>2026-03-29T07:52:11Z</time></trkpt><trkpt lat="39.31997203473797" lon="9.197908525409266"><ele>271.4</ele><time>2026-03-29T07:52:12Z</time></trkpt><trkpt lat="39.32007854390974" lon="9.197894524474949"><ele>272.8</ele><time>2026-03-29T07:52:13Z</time></trkpt><trkpt lat="39.320186137289845" lon="9.197860968235029"><ele>274.2</ele><time>2026-03-29T07:52:14Z</time></trkpt><trkpt lat="39.32029395485672" lon="9.197833534764795"><ele>275.6</ele><time>2026-03-29T07:52:15Z</time></trkpt><trkpt lat="39.32039217907472" lon="9.19778676771881"><ele>277.0</ele><time>2026-03-29T07:52:16Z</time></trkpt><trkpt lat="39.320499997765616" lon="9.197733206149222"><ele>276.8</ele><time>2026-03-29T07:52:17Z</time></trkpt><trkpt lat="39.32060514973142" lon="9.197660298043035"><ele>276.6</ele><time>2026-03-29T07:52:18Z</time></trkpt><trkpt lat="39.32069746892198" lon="9.197596141993339"><ele>276.40000000000003</ele><time>2026-03-29T07:52:19Z</time></trkpt><trkpt lat="39.32078344019339" lon="9.197526877890184"><ele>276.2</ele><time>2026-03-29T07:52:20Z</time></trkpt><trkpt lat="39.32086424360225" lon="9.197450967267926"><ele>276.0</ele><time>2026-03-29T07:52:21Z</time></trkpt><trkpt lat="39.3209297504445" lon="9.19736433267844"><ele>278.5</ele><time>2026-03-29T07:52:22Z</time></trkpt><trkpt lat="39.32101408640375" lon="9.197322742563022"><ele>281.0</ele><time>2026-03-29T07:52:23Z</time></trkpt><trkpt lat="39.32109258570674" lon="9.19729112297049"><ele>283.5</ele><time>2026-03-29T07:52:24Z</time></trkpt><trkpt lat="39.321171045980556" lon="9.197260472419346"><ele>286.0</ele><time>2026-03-29T07:52:25Z</time></trkpt><trkpt lat="39.32125069165954" lon="9.197231779525923"><ele>288.5</ele><time>2026-03-29T07:52:26Z</time></trkpt><trkpt lat="39.32132101312522" lon="9.19721208206506"><ele>291.0</ele><time>2026-03-29T07:52:27Z</time></trkpt><trkpt lat="39.321386399932955" lon="9.19722096782008"><ele>291.40000000000003</ele><time>2026-03-29T07:52:28Z</time></trkpt><trkpt lat="39.32145629219805" lon="9.19721864463644"><ele>291.8</ele><time>2026-03-29T07:52:29Z</time></trkpt><trkpt lat="39.32157091408806" lon="9.197164221823355"><ele>292.20000000000005</ele><time>2026-03-29T07:52:31Z</time></trkpt><trkpt lat="39.3216859417205" lon="9.197158151956314"><ele>292.6</ele><time>2026-03-29T07:52:33Z</time></trkpt><trkpt lat="39.321774510196974" lon="9.19723329262276"><ele>293.0</ele><time>2026-03-29T07:52:35Z</time></trkpt><trkpt lat="39.32186469506107" lon="9.197285374830132"><ele>293.0</ele><time>2026-03-29T07:52:36Z</time></trkpt><trkpt lat="39.32193446912366" lon="9.197335250461665"><ele>293.0</ele><time>2026-03-29T07:52:37Z</time></trkpt><trkpt lat="39.32202000995112" lon="9.197414863953284"><ele>293.0</ele><time>2026-03-29T07:52:39Z</time></trkpt><trkpt lat="39.32208568666301" lon="9.197487685250124"><ele>293.0</ele><time>2026-03-29T07:52:41Z</time></trkpt><trkpt lat="39.32216260632769" lon="9.197556624869199"><ele>293.0</ele><time>2026-03-29T07:52:42.999Z</time></trkpt><trkpt lat="39.32226790189632" lon="9.197555729247187"><ele>291.0</ele><time>2026-03-29T07:52:44.999Z</time></trkpt><trkpt lat="39.322367425081595" lon="9.197617513299555"><ele>289.0</ele><time>2026-03-29T07:52:46.999Z</time></trkpt><trkpt lat="39.32248406020593" lon="9.197623270470432"><ele>287.0</ele><time>2026-03-29T07:52:48.999Z</time></trkpt><trkpt lat="39.322459657454495" lon="9.197855924187067"><ele>285.0</ele><time>2026-03-29T07:52:49.999Z</time></trkpt><trkpt lat="39.32252283880001" lon="9.197946731690514"><ele>285.0</ele><time>2026-03-29T07:52:50.999Z</time></trkpt><trkpt lat="39.3225875098811" lon="9.198029127917206"><ele>285.0</ele><time>2026-03-29T07:52:51.999Z</time></trkpt><trkpt lat="39.32264626818663" lon="9.198118936384754"><ele>285.0</ele><time>2026-03-29T07:52:52.999Z</time></trkpt><trkpt lat="39.3226861262806" lon="9.19823203880156"><ele>285.0</ele><time>2026-03-29T07:52:53.999Z</time></trkpt><trkpt lat="39.32273359408402" lon="9.198382386325369"><ele>285.0</ele><time>2026-03-29T07:52:54.999Z</time></trkpt><trkpt lat="39.32278608850044" lon="9.198532888527849"><ele>284.5</ele><time>2026-03-29T07:52:55.999Z</time></trkpt><trkpt lat="39.32283282918359" lon="9.198659737018033"><ele>284.0</ele><time>2026-03-29T07:52:56.999Z</time></trkpt><trkpt lat="39.32287026426687" lon="9.198756469632794"><ele>283.5</ele><time>2026-03-29T07:52:57.999Z</time></trkpt><trkpt lat="39.32291321452305" lon="9.198844199724554"><ele>283.0</ele><time>2026-03-29T07:52:58.999Z</time></trkpt><trkpt lat="39.32295348300152" lon="9.198927995619156"><ele>282.5</ele><time>2026-03-29T07:52:59.999Z</time></trkpt><trkpt lat="39.32299568864731" lon="9.199017708743064"><ele>282.0</ele><time>2026-03-29T07:53:00.999Z</time></trkpt><trkpt lat="39.32304524260165" lon="9.199119649605624"><ele>283.2</ele><time>2026-03-29T07:53:01.999Z</time></trkpt><trkpt lat="39.323087255767106" lon="9.199228602950406"><ele>284.4</ele><time>2026-03-29T07:53:02.999Z</time></trkpt><trkpt lat="39.32312247036351" lon="9.199345086291338"><ele>285.6</ele><time>2026-03-29T07:53:03.999Z</time></trkpt><trkpt lat="39.32315444322947" lon="9.199455110549643"><ele>286.8</ele><time>2026-03-29T07:53:04.999Z</time></trkpt><trkpt lat="39.32318863180237" lon="9.199583395208126"><ele>288.0</ele><time>2026-03-29T07:53:05.999Z</time></trkpt><trkpt lat="39.32322488362628" lon="9.1996780214094"><ele>288.0</ele><time>2026-03-29T07:53:06.999Z</time></trkpt><trkpt lat="39.32326687298285" lon="9.199757460060207"><ele>288.0</ele><time>2026-03-29T07:53:07.999Z</time></trkpt><trkpt lat="39.32337639280629" lon="9.19976242166759"><ele>288.0</ele><time>2026-03-29T07:53:09.999Z</time></trkpt><trkpt lat="39.32332153538651" lon="9.199811361175694"><ele>288.0</ele><time>2026-03-29T07:53:13.999Z</time></trkpt><trkpt lat="39.32329980465883" lon="9.199910029548844"><ele>288.0</ele><time>2026-03-29T07:53:33.998Z</time></trkpt><trkpt lat="39.32329807353836" lon="9.19999226508413"><ele>288.0</ele><time>2026-03-29T07:53:35.998Z</time></trkpt><trkpt lat="39.32336357996208" lon="9.20000316385158"><ele>288.0</ele><time>2026-03-29T07:53:58.997Z</time></trkpt><trkpt lat="39.32334380999974" lon="9.199881720186362"><ele>288.0</ele><time>2026-03-29T07:55:45.998Z</time></trkpt><trkpt lat="39.32329246497725" lon="9.199791422970717"><ele>288.0</ele><time>2026-03-29T07:55:47.998Z</time></trkpt><trkpt lat="39.32321522268949" lon="9.199792480619662"><ele>288.0</ele><time>2026-03-29T07:55:50.998Z</time></trkpt><trkpt lat="39.32317601207421" lon="9.199926049445322"><ele>288.0</ele><time>2026-03-29T07:55:53.998Z</time></trkpt><trkpt lat="39.323173038424095" lon="9.200123279817864"><ele>289.5</ele><time>2026-03-29T07:55:55.998Z</time></trkpt><trkpt lat="39.32316547858741" lon="9.200245405466143"><ele>291.0</ele><time>2026-03-29T07:55:56.998Z</time></trkpt><trkpt lat="39.32314813920198" lon="9.200350434652737"><ele>292.5</ele><time>2026-03-29T07:55:57.998Z</time></trkpt><trkpt lat="39.323129346160435" lon="9.200443180483832"><ele>294.0</ele><time>2026-03-29T07:55:58.998Z</time></trkpt><trkpt lat="39.32313083002805" lon="9.200539765146448"><ele>295.5</ele><time>2026-03-29T07:55:59.998Z</time></trkpt><trkpt lat="39.32314687620288" lon="9.200643442074778"><ele>297.0</ele><time>2026-03-29T07:56:00.998Z</time></trkpt><trkpt lat="39.32315608142323" lon="9.200749058240401"><ele>299.0</ele><time>2026-03-29T07:56:01.998Z</time></trkpt><trkpt lat="39.32316839926469" lon="9.200844884481514"><ele>301.0</ele><time>2026-03-29T07:56:02.997Z</time></trkpt><trkpt lat="39.32319719832255" lon="9.200940479391667"><ele>303.0</ele><time>2026-03-29T07:56:03.997Z</time></trkpt><trkpt lat="39.32323753196352" lon="9.201021154505744"><ele>305.0</ele><time>2026-03-29T07:56:04.997Z</time></trkpt><trkpt lat="39.323285191130765" lon="9.201097249111692"><ele>307.0</ele><time>2026-03-29T07:56:05.997Z</time></trkpt><trkpt lat="39.323328741663786" lon="9.201161244354022"><ele>309.0</ele><time>2026-03-29T07:56:06.997Z</time></trkpt><trkpt lat="39.32338493857681" lon="9.201305695915654"><ele>309.0</ele><time>2026-03-29T07:56:08.997Z</time></trkpt><trkpt lat="39.32340951079716" lon="9.201392851842147"><ele>309.0</ele><time>2026-03-29T07:56:10.997Z</time></trkpt><trkpt lat="39.323460216955915" lon="9.201510778331427"><ele>309.0</ele><time>2026-03-29T07:56:12.997Z</time></trkpt><trkpt lat="39.32348926949396" lon="9.20161033853015"><ele>309.0</ele><time>2026-03-29T07:56:16.997Z</time></trkpt><trkpt lat="39.32355154056001" lon="9.201658256986656"><ele>309.0</ele><time>2026-03-29T07:56:18.997Z</time></trkpt><trkpt lat="39.32361369904132" lon="9.201754246749635"><ele>309.0</ele><time>2026-03-29T07:56:20Z</time></trkpt><trkpt lat="39.3237751159611" lon="9.201989830959231"><ele>310.6666666666667</ele><time>2026-03-29T07:56:21Z</time></trkpt><trkpt lat="39.32383274637457" lon="9.202053094782492"><ele>312.3333333333333</ele><time>2026-03-29T07:56:22Z</time></trkpt><trkpt lat="39.323877933324184" lon="9.202118619669323"><ele>314.0</ele><time>2026-03-29T07:56:23Z</time></trkpt><trkpt lat="39.32391591652574" lon="9.202240123452437"><ele>315.66666666666663</ele><time>2026-03-29T07:56:25Z</time></trkpt><trkpt lat="39.323941174393354" lon="9.202382824310714"><ele>317.3333333333333</ele><time>2026-03-29T07:56:27Z</time></trkpt><trkpt lat="39.32398616606762" lon="9.202448699933809"><ele>319.0</ele><time>2026-03-29T07:56:28Z</time></trkpt><trkpt lat="39.324029680856505" lon="9.202517580070026"><ele>322.5</ele><time>2026-03-29T07:56:29Z</time></trkpt><trkpt lat="39.32411177791557" lon="9.202663380777423"><ele>326.0</ele><time>2026-03-29T07:56:31Z</time></trkpt><trkpt lat="39.324155491231146" lon="9.20274835770067"><ele>329.5</ele><time>2026-03-29T07:56:32Z</time></trkpt><trkpt lat="39.324185233440396" lon="9.20283547744196"><ele>333.0</ele><time>2026-03-29T07:56:33Z</time></trkpt><trkpt lat="39.324231069945206" lon="9.202916623267189"><ele>336.5</ele><time>2026-03-29T07:56:34Z</time></trkpt><trkpt lat="39.32424726382624" lon="9.203001445561599"><ele>340.0</ele><time>2026-03-29T07:56:35Z</time></trkpt><trkpt lat="39.324289038259465" lon="9.203120009827382"><ele>339.3333333333333</ele><time>2026-03-29T07:56:37Z</time></trkpt><trkpt lat="39.324327571954235" lon="9.20319350984418"><ele>338.66666666666663</ele><time>2026-03-29T07:56:39Z</time></trkpt><trkpt lat="39.32436270100577" lon="9.203276257227436"><ele>338.0</ele><time>2026-03-29T07:56:44Z</time></trkpt><trkpt lat="39.32438852746168" lon="9.203381270517058"><ele>337.3333333333333</ele><time>2026-03-29T07:56:46Z</time></trkpt><trkpt lat="39.32440034163184" lon="9.203466054307922"><ele>336.6666666666667</ele><time>2026-03-29T07:56:49Z</time></trkpt><trkpt lat="39.32439571384412" lon="9.203627184140181"><ele>336.0</ele><time>2026-03-29T07:56:51Z</time></trkpt><trkpt lat="39.32439063255359" lon="9.203711517431918"><ele>336.0</ele><time>2026-03-29T07:56:52.999Z</time></trkpt><trkpt lat="39.32440070436617" lon="9.20384220311469"><ele>336.0</ele><time>2026-03-29T07:56:56.999Z</time></trkpt><trkpt lat="39.32440321600166" lon="9.20393735262354"><ele>336.0</ele><time>2026-03-29T07:56:58.999Z</time></trkpt><trkpt lat="39.32436952220737" lon="9.204023802639023"><ele>336.0</ele><time>2026-03-29T07:57:00.999Z</time></trkpt><trkpt lat="39.32436038535935" lon="9.204127700750467"><ele>336.0</ele><time>2026-03-29T07:57:02.999Z</time></trkpt><trkpt lat="39.32435878284821" lon="9.204267748460305"><ele>336.0</ele><time>2026-03-29T07:57:04.999Z</time></trkpt><trkpt lat="39.32437635138761" lon="9.204365560579365"><ele>333.6</ele><time>2026-03-29T07:57:06.999Z</time></trkpt><trkpt lat="39.32438034913592" lon="9.204450954475135"><ele>331.20000000000005</ele><time>2026-03-29T07:57:09.999Z</time></trkpt><trkpt lat="39.32442669920142" lon="9.204533199666843"><ele>328.79999999999995</ele><time>2026-03-29T07:57:11.999Z</time></trkpt><trkpt lat="39.32452279560377" lon="9.204719125944493"><ele>326.4</ele><time>2026-03-29T07:57:12.999Z</time></trkpt><trkpt lat="39.32458715373204" lon="9.2048433931643"><ele>324.0</ele><time>2026-03-29T07:57:14.999Z</time></trkpt><trkpt lat="39.324647541830785" lon="9.204957900958862"><ele>326.5</ele><time>2026-03-29T07:57:16.999Z</time></trkpt><trkpt lat="39.324749828151084" lon="9.205021413554572"><ele>329.0</ele><time>2026-03-29T07:57:21.999Z</time></trkpt><trkpt lat="39.32481606917368" lon="9.205167229718459"><ele>331.5</ele><time>2026-03-29T07:57:23.999Z</time></trkpt><trkpt lat="39.32477949228102" lon="9.205379137146693"><ele>334.0</ele><time>2026-03-29T07:57:25.999Z</time></trkpt><trkpt lat="39.324796072364464" lon="9.205498544984327"><ele>334.0</ele><time>2026-03-29T07:57:27.999Z</time></trkpt><trkpt lat="39.324846872495904" lon="9.205617943874897"><ele>334.0</ele><time>2026-03-29T07:57:29.998Z</time></trkpt><trkpt lat="39.32491088212787" lon="9.205653595830288"><ele>334.0</ele><time>2026-03-29T07:57:32.998Z</time></trkpt><trkpt lat="39.324967310540245" lon="9.20570297551765"><ele>334.0</ele><time>2026-03-29T07:57:34.998Z</time></trkpt><trkpt lat="39.3249847937785" lon="9.205815014138398"><ele>334.0</ele><time>2026-03-29T07:57:37.998Z</time></trkpt><trkpt lat="39.32502381028934" lon="9.206226147498047"><ele>334.16666666666663</ele><time>2026-03-29T07:57:39.998Z</time></trkpt><trkpt lat="39.32501949656294" lon="9.206336786703346"><ele>334.3333333333333</ele><time>2026-03-29T07:57:40.998Z</time></trkpt><trkpt lat="39.325016033726605" lon="9.206435211032936"><ele>334.5</ele><time>2026-03-29T07:57:41.998Z</time></trkpt><trkpt lat="39.32500733474357" lon="9.20653615905447"><ele>334.6666666666667</ele><time>2026-03-29T07:57:43.998Z</time></trkpt><trkpt lat="39.32497753100003" lon="9.206664622390868"><ele>334.83333333333337</ele><time>2026-03-29T07:57:45.998Z</time></trkpt><trkpt lat="39.32495791655159" lon="9.206782412748831"><ele>335.0</ele><time>2026-03-29T07:57:47.998Z</time></trkpt><trkpt lat="39.32500860124853" lon="9.20687929829918"><ele>336.0</ele><time>2026-03-29T07:57:50.998Z</time></trkpt><trkpt lat="39.325049044449706" lon="9.2069650335476"><ele>337.0</ele><time>2026-03-29T07:57:52.998Z</time></trkpt><trkpt lat="39.32507055459074" lon="9.207081478237772"><ele>338.0</ele><time>2026-03-29T07:58:12.997Z</time></trkpt><trkpt lat="39.32508922513444" lon="9.207164245282982"><ele>339.0</ele><time>2026-03-29T07:58:13.997Z</time></trkpt><trkpt lat="39.325115123300044" lon="9.207255510478511"><ele>340.0</ele><time>2026-03-29T07:58:14.997Z</time></trkpt><trkpt lat="39.3251402265833" lon="9.207354228258335"><ele>341.0</ele><time>2026-03-29T07:58:15.997Z</time></trkpt><trkpt lat="39.32515410329185" lon="9.2074596136448"><ele>341.33333333333337</ele><time>2026-03-29T07:58:16.997Z</time></trkpt><trkpt lat="39.325151562794986" lon="9.207550342825021"><ele>341.6666666666667</ele><time>2026-03-29T07:58:17.997Z</time></trkpt><trkpt lat="39.325144486067515" lon="9.207646512723064"><ele>342.0</ele><time>2026-03-29T07:58:18.997Z</time></trkpt><trkpt lat="39.32514243774122" lon="9.207737092895826"><ele>342.3333333333333</ele><time>2026-03-29T07:58:19.997Z</time></trkpt><trkpt lat="39.32516362506002" lon="9.207861410594365"><ele>342.66666666666663</ele><time>2026-03-29T07:58:21.997Z</time></trkpt><trkpt lat="39.32520009560074" lon="9.20794200089449"><ele>343.0</ele><time>2026-03-29T07:58:23.997Z</time></trkpt><trkpt lat="39.32513923721732" lon="9.208018033741732"><ele>343.0</ele><time>2026-03-29T07:58:28Z</time></trkpt><trkpt lat="39.325057821791724" lon="9.207944470996853"><ele>343.0</ele><time>2026-03-29T07:58:30Z</time></trkpt><trkpt lat="39.32499075674571" lon="9.207811947510704"><ele>343.0</ele><time>2026-03-29T07:58:32Z</time></trkpt><trkpt lat="39.32494242962975" lon="9.207732885953167"><ele>343.0</ele><time>2026-03-29T07:58:33Z</time></trkpt><trkpt lat="39.32490042705271" lon="9.207645298605991"><ele>343.0</ele><time>2026-03-29T07:58:34Z</time></trkpt><trkpt lat="39.32485973314137" lon="9.207538418758345"><ele>343.0</ele><time>2026-03-29T07:58:35Z</time></trkpt><trkpt lat="39.32481782970403" lon="9.207450123139363"><ele>343.0</ele><time>2026-03-29T07:58:36Z</time></trkpt><trkpt lat="39.32478566680019" lon="9.20737000626567"><ele>343.0</ele><time>2026-03-29T07:58:37Z</time></trkpt><trkpt lat="39.32473848757001" lon="9.207309803094315"><ele>343.0</ele><time>2026-03-29T07:58:38Z</time></trkpt><trkpt lat="39.32467273331718" lon="9.207288378091828"><ele>343.0</ele><time>2026-03-29T07:58:39Z</time></trkpt><trkpt lat="39.324604082240924" lon="9.207296609528653"><ele>343.0</ele><time>2026-03-29T07:58:40Z</time></trkpt><trkpt lat="39.324531599168445" lon="9.207323184816016"><ele>343.0</ele><time>2026-03-29T07:58:41Z</time></trkpt><trkpt lat="39.3244563816009" lon="9.207349615971127"><ele>339.66666666666663</ele><time>2026-03-29T07:58:42Z</time></trkpt><trkpt lat="39.324390015732384" lon="9.20737742946275"><ele>336.3333333333333</ele><time>2026-03-29T07:58:43Z</time></trkpt><trkpt lat="39.324319015920985" lon="9.207390543391538"><ele>333.0</ele><time>2026-03-29T07:58:44Z</time></trkpt><trkpt lat="39.32424085479508" lon="9.20739660635685"><ele>329.6666666666667</ele><time>2026-03-29T07:58:45Z</time></trkpt><trkpt lat="39.32416097146129" lon="9.207395197995638"><ele>326.33333333333337</ele><time>2026-03-29T07:58:46Z</time></trkpt><trkpt lat="39.324079731375434" lon="9.207386371325976"><ele>323.0</ele><time>2026-03-29T07:58:47Z</time></trkpt><trkpt lat="39.32400477717674" lon="9.207365716631605"><ele>323.0</ele><time>2026-03-29T07:58:48Z</time></trkpt><trkpt lat="39.32392813457428" lon="9.207327884485293"><ele>323.0</ele><time>2026-03-29T07:58:49Z</time></trkpt><trkpt lat="39.32385034985151" lon="9.207282432475306"><ele>323.0</ele><time>2026-03-29T07:58:50Z</time></trkpt><trkpt lat="39.32379011858103" lon="9.207239658673771"><ele>323.0</ele><time>2026-03-29T07:58:51Z</time></trkpt><trkpt lat="39.32373222613175" lon="9.207181941906958"><ele>323.0</ele><time>2026-03-29T07:58:52Z</time></trkpt><trkpt lat="39.32366682453168" lon="9.207116215100656"><ele>323.0</ele><time>2026-03-29T07:58:53Z</time></trkpt><trkpt lat="39.32360460447624" lon="9.20706841483207"><ele>318.83333333333337</ele><time>2026-03-29T07:58:54Z</time></trkpt><trkpt lat="39.32354084423395" lon="9.207021475201147"><ele>314.6666666666667</ele><time>2026-03-29T07:58:55Z</time></trkpt><trkpt lat="39.323468850956345" lon="9.207003824698308"><ele>310.5</ele><time>2026-03-29T07:58:56Z</time></trkpt><trkpt lat="39.3234029108311" lon="9.207000365787405"><ele>306.3333333333333</ele><time>2026-03-29T07:58:57Z</time></trkpt><trkpt lat="39.32328736363165" lon="9.207036685265562"><ele>302.16666666666663</ele><time>2026-03-29T07:58:58.999Z</time></trkpt><trkpt lat="39.323207079517175" lon="9.207055553312221"><ele>298.0</ele><time>2026-03-29T07:58:59.999Z</time></trkpt><trkpt lat="39.32314185602634" lon="9.207049496868285"><ele>298.0</ele><time>2026-03-29T07:59:00.999Z</time></trkpt><trkpt lat="39.32307540994591" lon="9.2070556845462"><ele>298.0</ele><time>2026-03-29T07:59:01.999Z</time></trkpt><trkpt lat="39.322960646749955" lon="9.207080470985993"><ele>298.0</ele><time>2026-03-29T07:59:03.999Z</time></trkpt><trkpt lat="39.322854456711305" lon="9.207106744808694"><ele>298.0</ele><time>2026-03-29T07:59:05.999Z</time></trkpt><trkpt lat="39.322768547223305" lon="9.207164410462553"><ele>298.0</ele><time>2026-03-29T07:59:07.999Z</time></trkpt><trkpt lat="39.32270109142342" lon="9.207194680146557"><ele>295.8333333333333</ele><time>2026-03-29T07:59:09.999Z</time></trkpt><trkpt lat="39.32263114373803" lon="9.207242128171144"><ele>293.66666666666663</ele><time>2026-03-29T07:59:11.999Z</time></trkpt><trkpt lat="39.32254219846989" lon="9.207281000190155"><ele>291.5</ele><time>2026-03-29T07:59:13.999Z</time></trkpt><trkpt lat="39.32246510444617" lon="9.207270460595739"><ele>289.3333333333333</ele><time>2026-03-29T07:59:15.999Z</time></trkpt><trkpt lat="39.32239591645484" lon="9.20723423964265"><ele>287.1666666666667</ele><time>2026-03-29T07:59:17.999Z</time></trkpt><trkpt lat="39.32231179200868" lon="9.207190257741077"><ele>285.0</ele><time>2026-03-29T07:59:19.999Z</time></trkpt><trkpt lat="39.322227405010494" lon="9.207114193483127"><ele>281.8333333333333</ele><time>2026-03-29T07:59:21.999Z</time></trkpt><trkpt lat="39.322139657297384" lon="9.207040251140576"><ele>278.6666666666667</ele><time>2026-03-29T07:59:23.999Z</time></trkpt><trkpt lat="39.32203343669745" lon="9.206965055119184"><ele>275.5</ele><time>2026-03-29T07:59:25.999Z</time></trkpt><trkpt lat="39.32197738903831" lon="9.206920993266468"><ele>272.33333333333337</ele><time>2026-03-29T07:59:26.999Z</time></trkpt><trkpt lat="39.32191833062172" lon="9.206880295951267"><ele>269.1666666666667</ele><time>2026-03-29T07:59:27.999Z</time></trkpt><trkpt lat="39.321860663738654" lon="9.206833700755752"><ele>266.0</ele><time>2026-03-29T07:59:28.999Z</time></trkpt><trkpt lat="39.321802953801544" lon="9.206784855970568"><ele>266.0</ele><time>2026-03-29T07:59:29.999Z</time></trkpt><trkpt lat="39.32174995954064" lon="9.206735912435763"><ele>266.0</ele><time>2026-03-29T07:59:30.999Z</time></trkpt><trkpt lat="39.32169170982756" lon="9.206686958580802"><ele>266.0</ele><time>2026-03-29T07:59:31.999Z</time></trkpt><trkpt lat="39.32163469791876" lon="9.20664838724336"><ele>266.0</ele><time>2026-03-29T07:59:32.999Z</time></trkpt><trkpt lat="39.321573909924226" lon="9.206622184230936"><ele>266.0</ele><time>2026-03-29T07:59:33.999Z</time></trkpt><trkpt lat="39.321504937788944" lon="9.20661751504703"><ele>266.0</ele><time>2026-03-29T07:59:34.999Z</time></trkpt><trkpt lat="39.3214302743017" lon="9.206635659349525"><ele>266.0</ele><time>2026-03-29T07:59:35.999Z</time></trkpt><trkpt lat="39.32136164327966" lon="9.206644171217194"><ele>262.6</ele><time>2026-03-29T07:59:36.998Z</time></trkpt><trkpt lat="39.32127677799024" lon="9.206651689417745"><ele>259.20000000000005</ele><time>2026-03-29T07:59:37.998Z</time></trkpt><trkpt lat="39.3212095879068" lon="9.206665877536635"><ele>255.79999999999998</ele><time>2026-03-29T07:59:38.998Z</time></trkpt><trkpt lat="39.32109197684068" lon="9.206694849408873"><ele>252.39999999999998</ele><time>2026-03-29T07:59:40.998Z</time></trkpt><trkpt lat="39.320977059150984" lon="9.206740696475073"><ele>249.0</ele><time>2026-03-29T07:59:42.998Z</time></trkpt><trkpt lat="39.32086142577387" lon="9.20676345900147"><ele>249.0</ele><time>2026-03-29T07:59:44.998Z</time></trkpt><trkpt lat="39.320756359445184" lon="9.206758530193584"><ele>249.0</ele><time>2026-03-29T07:59:46.998Z</time></trkpt><trkpt lat="39.3206739369698" lon="9.20674855664282"><ele>249.0</ele><time>2026-03-29T07:59:48.998Z</time></trkpt><trkpt lat="39.320608543709554" lon="9.206743583588766"><ele>249.0</ele><time>2026-03-29T07:59:50.998Z</time></trkpt><trkpt lat="39.320522615009466" lon="9.20674340617553"><ele>249.0</ele><time>2026-03-29T07:59:53.998Z</time></trkpt><trkpt lat="39.32045910068163" lon="9.206750056293593"><ele>249.0</ele><time>2026-03-29T07:59:55.998Z</time></trkpt><trkpt lat="39.320370214172684" lon="9.20675330422417"><ele>245.2</ele><time>2026-03-29T07:59:57.998Z</time></trkpt><trkpt lat="39.320283771467544" lon="9.206714099402378"><ele>241.39999999999998</ele><time>2026-03-29T07:59:59.998Z</time></trkpt><trkpt lat="39.320181997673124" lon="9.206681745428746"><ele>237.6</ele><time>2026-03-29T08:00:01.998Z</time></trkpt><trkpt lat="39.32010563377355" lon="9.206683193537609"><ele>233.8</ele><time>2026-03-29T08:00:04.998Z</time></trkpt><trkpt lat="39.31998464042949" lon="9.206732525953385"><ele>230.0</ele><time>2026-03-29T08:00:07.998Z</time></trkpt><trkpt lat="39.31990297921816" lon="9.206787627665575"><ele>230.00000000000003</ele><time>2026-03-29T08:00:09.998Z</time></trkpt><trkpt lat="39.3198433193947" lon="9.20681667449686"><ele>230.0</ele><time>2026-03-29T08:00:12.998Z</time></trkpt><trkpt lat="39.31977582744415" lon="9.206891214693504"><ele>230.0</ele><time>2026-03-29T08:00:15.997Z</time></trkpt><trkpt lat="39.3197391314608" lon="9.206990096891117"><ele>230.0</ele><time>2026-03-29T08:00:18.997Z</time></trkpt><trkpt lat="39.31971127829624" lon="9.207088867074678"><ele>230.00000000000003</ele><time>2026-03-29T08:00:21.997Z</time></trkpt><trkpt lat="39.31969179900315" lon="9.207223525630141"><ele>230.0</ele><time>2026-03-29T08:00:24.997Z</time></trkpt><trkpt lat="39.31968526733883" lon="9.207349858048525"><ele>227.66666666666669</ele><time>2026-03-29T08:00:26.997Z</time></trkpt><trkpt lat="39.31967923715405" lon="9.207454360989207"><ele>225.33333333333334</ele><time>2026-03-29T08:00:27.997Z</time></trkpt><trkpt lat="39.3196809078842" lon="9.20758074616576"><ele>223.0</ele><time>2026-03-29T08:00:28.997Z</time></trkpt><trkpt lat="39.31968510954893" lon="9.20769393148117"><ele>220.66666666666669</ele><time>2026-03-29T08:00:29.997Z</time></trkpt><trkpt lat="39.319692424276965" lon="9.207805496406854"><ele>218.33333333333334</ele><time>2026-03-29T08:00:30.997Z</time></trkpt><trkpt lat="39.31970050614581" lon="9.20791644797057"><ele>216.0</ele><time>2026-03-29T08:00:32Z</time></trkpt><trkpt lat="39.319700367099166" lon="9.20805899161188"><ele>216.0</ele><time>2026-03-29T08:00:33Z</time></trkpt><trkpt lat="39.31970013317723" lon="9.208146918847756"><ele>216.0</ele><time>2026-03-29T08:00:34Z</time></trkpt><trkpt lat="39.31971321072187" lon="9.208267254472382"><ele>216.0</ele><time>2026-03-29T08:00:36Z</time></trkpt><trkpt lat="39.319690651016664" lon="9.208357684835342"><ele>216.0</ele><time>2026-03-29T08:00:38Z</time></trkpt><trkpt lat="39.31963769690831" lon="9.208416106496404"><ele>216.0</ele><time>2026-03-29T08:00:40Z</time></trkpt><trkpt lat="39.31953782411845" lon="9.2084525334646"><ele>216.0</ele><time>2026-03-29T08:00:41Z</time></trkpt><trkpt lat="39.319430159636404" lon="9.208472384946484"><ele>216.0</ele><time>2026-03-29T08:00:42Z</time></trkpt><trkpt lat="39.31934104388021" lon="9.20851239985898"><ele>216.0</ele><time>2026-03-29T08:00:43Z</time></trkpt><trkpt lat="39.31926399260983" lon="9.208537053419924"><ele>216.0</ele><time>2026-03-29T08:00:44Z</time></trkpt><trkpt lat="39.31918076886338" lon="9.208552202731216"><ele>216.0</ele><time>2026-03-29T08:00:46Z</time></trkpt><trkpt lat="39.31910469168777" lon="9.208569510237496"><ele>216.0</ele><time>2026-03-29T08:00:48Z</time></trkpt><trkpt lat="39.31904523083938" lon="9.208503931580227"><ele>216.0</ele><time>2026-03-29T08:00:53Z</time></trkpt><trkpt lat="39.31905110512924" lon="9.208376920576484"><ele>216.0</ele><time>2026-03-29T08:00:56Z</time></trkpt><trkpt lat="39.31907370682414" lon="9.20817709400402"><ele>216.0</ele><time>2026-03-29T08:00:57Z</time></trkpt><trkpt lat="39.31908549473619" lon="9.208007986645894"><ele>216.0</ele><time>2026-03-29T08:00:58Z</time></trkpt><trkpt lat="39.319078534632425" lon="9.207860689496883"><ele>216.0</ele><time>2026-03-29T08:00:59Z</time></trkpt><trkpt lat="39.319081731420795" lon="9.20775357218482"><ele>216.0</ele><time>2026-03-29T08:01:00Z</time></trkpt><trkpt lat="39.31903278695669" lon="9.207612256288522"><ele>216.00000000000003</ele><time>2026-03-29T08:01:02Z</time></trkpt><trkpt lat="39.31893132435673" lon="9.207512138049971"><ele>216.00000000000003</ele><time>2026-03-29T08:01:03.999Z</time></trkpt><trkpt lat="39.31885772857784" lon="9.207500067907734"><ele>216.0</ele><time>2026-03-29T08:01:04.999Z</time></trkpt><trkpt lat="39.31877347085897" lon="9.20742059110044"><ele>216.0</ele><time>2026-03-29T08:01:06.999Z</time></trkpt><trkpt lat="39.318743962456566" lon="9.20729228595778"><ele>215.5</ele><time>2026-03-29T08:01:08.999Z</time></trkpt><trkpt lat="39.318701258217736" lon="9.207198796823763"><ele>215.0</ele><time>2026-03-29T08:01:10.999Z</time></trkpt><trkpt lat="39.31862842351157" lon="9.207167956457843"><ele>214.5</ele><time>2026-03-29T08:01:12.999Z</time></trkpt><trkpt lat="39.318544184150795" lon="9.207140215133869"><ele>214.0</ele><time>2026-03-29T08:01:14.999Z</time></trkpt><trkpt lat="39.31843417334253" lon="9.207099211142259"><ele>213.5</ele><time>2026-03-29T08:01:16.999Z</time></trkpt><trkpt lat="39.31837165429267" lon="9.207112173897242"><ele>213.0</ele><time>2026-03-29T08:01:17.999Z</time></trkpt><trkpt lat="39.3183100034749" lon="9.20713056591236"><ele>213.0</ele><time>2026-03-29T08:01:18.999Z</time></trkpt><trkpt lat="39.31819948327216" lon="9.20711542190594"><ele>213.0</ele><time>2026-03-29T08:01:20.999Z</time></trkpt><trkpt lat="39.31810972828594" lon="9.207094856968794"><ele>213.0</ele><time>2026-03-29T08:01:22.999Z</time></trkpt><trkpt lat="39.317982953098245" lon="9.207069239624744"><ele>213.0</ele><time>2026-03-29T08:01:24.999Z</time></trkpt><trkpt lat="39.31791359337882" lon="9.207050243626137"><ele>213.0</ele><time>2026-03-29T08:01:25.999Z</time></trkpt><trkpt lat="39.31785106917671" lon="9.207029403303716"><ele>211.4</ele><time>2026-03-29T08:01:26.999Z</time></trkpt><trkpt lat="39.31773418240178" lon="9.207016798440103"><ele>209.8</ele><time>2026-03-29T08:01:28.999Z</time></trkpt><trkpt lat="39.317665829103426" lon="9.20701906880164"><ele>208.2</ele><time>2026-03-29T08:01:29.999Z</time></trkpt><trkpt lat="39.317599511598495" lon="9.20702123048253"><ele>206.6</ele><time>2026-03-29T08:01:30.999Z</time></trkpt><trkpt lat="39.31747505053989" lon="9.207030177389106"><ele>205.0</ele><time>2026-03-29T08:01:32.999Z</time></trkpt><trkpt lat="39.31740087228825" lon="9.207051676578962"><ele>205.0</ele><time>2026-03-29T08:01:33.999Z</time></trkpt><trkpt lat="39.317329073247606" lon="9.207073378821898"><ele>205.0</ele><time>2026-03-29T08:01:34.999Z</time></trkpt><trkpt lat="39.31724476257078" lon="9.20710127076024"><ele>205.0</ele><time>2026-03-29T08:01:35.999Z</time></trkpt><trkpt lat="39.31713941312859" lon="9.207117440215889"><ele>205.0</ele><time>2026-03-29T08:01:36.999Z</time></trkpt><trkpt lat="39.31701912101496" lon="9.206970938485677"><ele>205.0</ele><time>2026-03-29T08:01:37.999Z</time></trkpt><trkpt lat="39.31693484063024" lon="9.20694700745989"><ele>204.33333333333331</ele><time>2026-03-29T08:01:38.999Z</time></trkpt><trkpt lat="39.316874977230604" lon="9.206919833110858"><ele>203.66666666666669</ele><time>2026-03-29T08:01:39.999Z</time></trkpt><trkpt lat="39.31680119959727" lon="9.20688569479178"><ele>203.0</ele><time>2026-03-29T08:01:41.998Z</time></trkpt><trkpt lat="39.316813222078814" lon="9.207313959058892"><ele>203.8</ele><time>2026-03-29T08:01:44.998Z</time></trkpt><trkpt lat="39.316877781775766" lon="9.207374161673947"><ele>204.60000000000002</ele><time>2026-03-29T08:01:45.998Z</time></trkpt><trkpt lat="39.31692593051596" lon="9.20743002720519"><ele>205.39999999999998</ele><time>2026-03-29T08:01:46.998Z</time></trkpt><trkpt lat="39.31698831685274" lon="9.207499960558643"><ele>206.2</ele><time>2026-03-29T08:01:54.998Z</time></trkpt><trkpt lat="39.31707295145886" lon="9.20763809395213"><ele>207.0</ele><time>2026-03-29T08:01:56.998Z</time></trkpt><trkpt lat="39.31714700784821" lon="9.207747874294443"><ele>207.0</ele><time>2026-03-29T08:01:57.998Z</time></trkpt><trkpt lat="39.31720030034249" lon="9.207850525049945"><ele>207.0</ele><time>2026-03-29T08:01:58.998Z</time></trkpt><trkpt lat="39.31724780748786" lon="9.207958386407118"><ele>207.0</ele><time>2026-03-29T08:01:59.998Z</time></trkpt><trkpt lat="39.31730165270385" lon="9.20807719860337"><ele>207.0</ele><time>2026-03-29T08:02:00.998Z</time></trkpt><trkpt lat="39.31735521765909" lon="9.20819417964909"><ele>207.0</ele><time>2026-03-29T08:02:01.998Z</time></trkpt><trkpt lat="39.317391834765566" lon="9.20829394349495"><ele>206.6</ele><time>2026-03-29T08:02:02.998Z</time></trkpt><trkpt lat="39.31738819073149" lon="9.208437468524739"><ele>206.2</ele><time>2026-03-29T08:02:04.998Z</time></trkpt><trkpt lat="39.31729882593865" lon="9.208537205117903"><ele>205.8</ele><time>2026-03-29T08:02:06.998Z</time></trkpt><trkpt lat="39.317214649491184" lon="9.208620104712526"><ele>205.4</ele><time>2026-03-29T08:02:08.998Z</time></trkpt><trkpt lat="39.31716582297897" lon="9.208672029036247"><ele>205.0</ele><time>2026-03-29T08:02:40Z</time></trkpt><trkpt lat="39.31708490194077" lon="9.20876944455342"><ele>205.0</ele><time>2026-03-29T08:02:42Z</time></trkpt><trkpt lat="39.31701920708051" lon="9.208853281191587"><ele>205.0</ele><time>2026-03-29T08:02:43Z</time></trkpt><trkpt lat="39.31693585840184" lon="9.20895027935711"><ele>205.0</ele><time>2026-03-29T08:02:44Z</time></trkpt><trkpt lat="39.31686386573535" lon="9.209029009496778"><ele>205.0</ele><time>2026-03-29T08:02:45Z</time></trkpt><trkpt lat="39.316789075929194" lon="9.209109155748289"><ele>205.0</ele><time>2026-03-29T08:02:46Z</time></trkpt><trkpt lat="39.31670452798327" lon="9.209201664532127"><ele>204.0</ele><time>2026-03-29T08:02:47Z</time></trkpt><trkpt lat="39.31660077912352" lon="9.209300937505565"><ele>203.0</ele><time>2026-03-29T08:02:48Z</time></trkpt><trkpt lat="39.31649692263308" lon="9.209395998353825"><ele>202.0</ele><time>2026-03-29T08:02:49Z</time></trkpt><trkpt lat="39.31640288004733" lon="9.209490098014388"><ele>201.0</ele><time>2026-03-29T08:02:50Z</time></trkpt><trkpt lat="39.31631238269657" lon="9.209578685007806"><ele>198.8</ele><time>2026-03-29T08:02:51Z</time></trkpt><trkpt lat="39.31622442079299" lon="9.20966028372088"><ele>196.60000000000002</ele><time>2026-03-29T08:02:52Z</time></trkpt><trkpt lat="39.31613911682044" lon="9.209730198152851"><ele>194.4</ele><time>2026-03-29T08:02:53Z</time></trkpt><trkpt lat="39.31605062205194" lon="9.20978120289035"><ele>192.2</ele><time>2026-03-29T08:02:54Z</time></trkpt><trkpt lat="39.31594964736347" lon="9.209829406269876"><ele>190.0</ele><time>2026-03-29T08:02:55Z</time></trkpt><trkpt lat="39.31581986738327" lon="9.20987826435572"><ele>189.75</ele><time>2026-03-29T08:02:56Z</time></trkpt><trkpt lat="39.31569712484747" lon="9.209928311868149"><ele>189.5</ele><time>2026-03-29T08:02:57Z</time></trkpt><trkpt lat="39.31558955627942" lon="9.210001230830057"><ele>189.25</ele><time>2026-03-29T08:02:58Z</time></trkpt><trkpt lat="39.31548965810098" lon="9.210090858503671"><ele>189.0</ele><time>2026-03-29T08:02:59Z</time></trkpt><trkpt lat="39.31540103034149" lon="9.210171177212631"><ele>187.6</ele><time>2026-03-29T08:03:00Z</time></trkpt><trkpt lat="39.315311756936616" lon="9.210230009220751"><ele>186.2</ele><time>2026-03-29T08:03:01Z</time></trkpt><trkpt lat="39.315215194362764" lon="9.210259557824475"><ele>184.79999999999998</ele><time>2026-03-29T08:03:02Z</time></trkpt><trkpt lat="39.31510593636745" lon="9.210282734100444"><ele>183.39999999999998</ele><time>2026-03-29T08:03:03Z</time></trkpt><trkpt lat="39.3149780225682" lon="9.210302287258315"><ele>182.0</ele><time>2026-03-29T08:03:04Z</time></trkpt><trkpt lat="39.31484108050631" lon="9.210311760109539"><ele>180.75</ele><time>2026-03-29T08:03:05Z</time></trkpt><trkpt lat="39.3146994120329" lon="9.210316048447034"><ele>179.5</ele><time>2026-03-29T08:03:06Z</time></trkpt><trkpt lat="39.31455851095045" lon="9.210324219593106"><ele>178.25</ele><time>2026-03-29T08:03:07Z</time></trkpt><trkpt lat="39.31441883954552" lon="9.210333798512668"><ele>177.0</ele><time>2026-03-29T08:03:08Z</time></trkpt><trkpt lat="39.314290844248696" lon="9.2103429387493"><ele>177.0</ele><time>2026-03-29T08:03:08.999Z</time></trkpt><trkpt lat="39.314164791912155" lon="9.21035388408197"><ele>177.0</ele><time>2026-03-29T08:03:09.999Z</time></trkpt><trkpt lat="39.314030920375544" lon="9.210367516510146"><ele>177.0</ele><time>2026-03-29T08:03:10.999Z</time></trkpt><trkpt lat="39.31391979688145" lon="9.210385469455199"><ele>177.0</ele><time>2026-03-29T08:03:11.999Z</time></trkpt><trkpt lat="39.313825408131436" lon="9.210398714228733"><ele>176.39999999999998</ele><time>2026-03-29T08:03:12.999Z</time></trkpt><trkpt lat="39.31374466211978" lon="9.210421156389506"><ele>175.79999999999998</ele><time>2026-03-29T08:03:13.999Z</time></trkpt><trkpt lat="39.31366252538745" lon="9.210550551934274"><ele>175.2</ele><time>2026-03-29T08:03:15.999Z</time></trkpt><trkpt lat="39.313643021278715" lon="9.210637668166633"><ele>174.6</ele><time>2026-03-29T08:03:16.999Z</time></trkpt><trkpt lat="39.313666739725576" lon="9.210796113549018"><ele>174.0</ele><time>2026-03-29T08:03:18.999Z</time></trkpt><trkpt lat="39.31370303124367" lon="9.210868711744274"><ele>174.0</ele><time>2026-03-29T08:03:19.999Z</time></trkpt><trkpt lat="39.31375898245963" lon="9.21093161674009"><ele>174.0</ele><time>2026-03-29T08:03:20.999Z</time></trkpt><trkpt lat="39.31383513950151" lon="9.210995006756216"><ele>174.0</ele><time>2026-03-29T08:03:21.999Z</time></trkpt><trkpt lat="39.313915685314626" lon="9.211068425366589"><ele>174.0</ele><time>2026-03-29T08:03:22.999Z</time></trkpt><trkpt lat="39.313999337182935" lon="9.211151998524112"><ele>174.0</ele><time>2026-03-29T08:03:23.999Z</time></trkpt><trkpt lat="39.31409348551716" lon="9.21122750968825"><ele>174.75</ele><time>2026-03-29T08:03:24.999Z</time></trkpt><trkpt lat="39.314183880716264" lon="9.211290803454377"><ele>175.5</ele><time>2026-03-29T08:03:25.999Z</time></trkpt><trkpt lat="39.314209132573794" lon="9.211546706331697"><ele>176.25</ele><time>2026-03-29T08:03:26.999Z</time></trkpt><trkpt lat="39.3143053311718" lon="9.211595297857956"><ele>177.0</ele><time>2026-03-29T08:03:27.999Z</time></trkpt><trkpt lat="39.31441631584174" lon="9.211651358075384"><ele>178.0</ele><time>2026-03-29T08:03:28.999Z</time></trkpt><trkpt lat="39.314535347499486" lon="9.211711715185986"><ele>179.0</ele><time>2026-03-29T08:03:29.999Z</time></trkpt><trkpt lat="39.3146593768719" lon="9.21177510941416"><ele>180.0</ele><time>2026-03-29T08:03:30.999Z</time></trkpt><trkpt lat="39.3148069080402" lon="9.211846532141962"><ele>181.0</ele><time>2026-03-29T08:03:31.999Z</time></trkpt><trkpt lat="39.314951758132224" lon="9.211905602037783"><ele>182.0</ele><time>2026-03-29T08:03:32.999Z</time></trkpt><trkpt lat="39.31510011659691" lon="9.211954538689424"><ele>183.0</ele><time>2026-03-29T08:03:33.999Z</time></trkpt><trkpt lat="39.31524403016469" lon="9.211993660033771"><ele>184.0</ele><time>2026-03-29T08:03:34.999Z</time></trkpt><trkpt lat="39.31536459731959" lon="9.212023488264233"><ele>185.0</ele><time>2026-03-29T08:03:35.999Z</time></trkpt><trkpt lat="39.31549384608301" lon="9.212052094175762"><ele>186.2</ele><time>2026-03-29T08:03:36.999Z</time></trkpt><trkpt lat="39.315616638840766" lon="9.21207292320269"><ele>187.4</ele><time>2026-03-29T08:03:37.999Z</time></trkpt><trkpt lat="39.315719167973874" lon="9.212085162396788"><ele>188.60000000000002</ele><time>2026-03-29T08:03:38.999Z</time></trkpt><trkpt lat="39.31580598584113" lon="9.212089191593769"><ele>189.8</ele><time>2026-03-29T08:03:39.999Z</time></trkpt><trkpt lat="39.315876439682526" lon="9.212084907428265"><ele>191.0</ele><time>2026-03-29T08:03:40.999Z</time></trkpt><trkpt lat="39.31596315757618" lon="9.212079721627676"><ele>191.0</ele><time>2026-03-29T08:03:42.999Z</time></trkpt><trkpt lat="39.31593273425436" lon="9.212193064701996"><ele>191.0</ele><time>2026-03-29T08:03:48.998Z</time></trkpt><trkpt lat="39.31592089853882" lon="9.212311404109533"><ele>191.0</ele><time>2026-03-29T08:03:49.998Z</time></trkpt><trkpt lat="39.3159184533611" lon="9.21243738200285"><ele>191.0</ele><time>2026-03-29T08:03:50.998Z</time></trkpt><trkpt lat="39.315925558376925" lon="9.212576008546932"><ele>191.0</ele><time>2026-03-29T08:03:51.998Z</time></trkpt><trkpt lat="39.315961121396136" lon="9.212679118025346"><ele>191.4</ele><time>2026-03-29T08:03:52.998Z</time></trkpt><trkpt lat="39.31601450374256" lon="9.212766481471238"><ele>191.8</ele><time>2026-03-29T08:03:53.998Z</time></trkpt><trkpt lat="39.316098004544436" lon="9.212829317355345"><ele>192.20000000000002</ele><time>2026-03-29T08:03:54.998Z</time></trkpt><trkpt lat="39.3162011819411" lon="9.212892530758474"><ele>192.60000000000002</ele><time>2026-03-29T08:03:55.998Z</time></trkpt><trkpt lat="39.31632307708087" lon="9.21291892910041"><ele>193.0</ele><time>2026-03-29T08:03:56.998Z</time></trkpt><trkpt lat="39.31644849192319" lon="9.212940253090006"><ele>194.25</ele><time>2026-03-29T08:03:57.998Z</time></trkpt><trkpt lat="39.31657942505033" lon="9.212978487461873"><ele>195.5</ele><time>2026-03-29T08:03:58.998Z</time></trkpt><trkpt lat="39.31671815896758" lon="9.213063102037902"><ele>196.75</ele><time>2026-03-29T08:03:59.998Z</time></trkpt><trkpt lat="39.316862501033306" lon="9.213151511809999"><ele>198.0</ele><time>2026-03-29T08:04:00.998Z</time></trkpt><trkpt lat="39.316990099975804" lon="9.213206554101152"><ele>198.0</ele><time>2026-03-29T08:04:01.998Z</time></trkpt><trkpt lat="39.317076984814456" lon="9.213265866301738"><ele>198.0</ele><time>2026-03-29T08:04:02.998Z</time></trkpt><trkpt lat="39.31717249244226" lon="9.213301449033198"><ele>198.0</ele><time>2026-03-29T08:04:03.998Z</time></trkpt><trkpt lat="39.31725516288511" lon="9.21332846997322"><ele>198.0</ele><time>2026-03-29T08:04:04.998Z</time></trkpt><trkpt lat="39.317340364984105" lon="9.213367789703911"><ele>198.0</ele><time>2026-03-29T08:04:05.998Z</time></trkpt><trkpt lat="39.31741997981148" lon="9.213391456516181"><ele>198.5</ele><time>2026-03-29T08:04:06.998Z</time></trkpt><trkpt lat="39.31751185582167" lon="9.213383085064772"><ele>199.0</ele><time>2026-03-29T08:04:07.998Z</time></trkpt><trkpt lat="39.317603753694094" lon="9.213351226060189"><ele>199.5</ele><time>2026-03-29T08:04:08.998Z</time></trkpt><trkpt lat="39.317689619719935" lon="9.213307564548666"><ele>200.0</ele><time>2026-03-29T08:04:09.998Z</time></trkpt><trkpt lat="39.31776379963029" lon="9.213326257236066"><ele>200.5</ele><time>2026-03-29T08:04:10.998Z</time></trkpt><trkpt lat="39.31783010954989" lon="9.213391967724023"><ele>201.0</ele><time>2026-03-29T08:04:12.998Z</time></trkpt><trkpt lat="39.31786376689648" lon="9.21347896096352"><ele>201.0</ele><time>2026-03-29T08:04:14.998Z</time></trkpt><trkpt lat="39.31790447827406" lon="9.213546378963873"><ele>201.0</ele><time>2026-03-29T08:04:15.998Z</time></trkpt><trkpt lat="39.31791929118612" lon="9.213648745350245"><ele>201.0</ele><time>2026-03-29T08:04:16.998Z</time></trkpt><trkpt lat="39.317951847302005" lon="9.213762645916098"><ele>201.0</ele><time>2026-03-29T08:04:17.998Z</time></trkpt><trkpt lat="39.317987380907915" lon="9.21389152295345"><ele>201.0</ele><time>2026-03-29T08:04:18.998Z</time></trkpt><trkpt lat="39.31801612091238" lon="9.214018258028112"><ele>201.0</ele><time>2026-03-29T08:04:19.998Z</time></trkpt><trkpt lat="39.31804464270553" lon="9.214150415251332"><ele>201.8</ele><time>2026-03-29T08:04:20.998Z</time></trkpt><trkpt lat="39.318077581811636" lon="9.214275738490489"><ele>202.60000000000002</ele><time>2026-03-29T08:04:21.998Z</time></trkpt><trkpt lat="39.318122609434226" lon="9.214401903477764"><ele>203.4</ele><time>2026-03-29T08:04:22.998Z</time></trkpt><trkpt lat="39.31817998705451" lon="9.214519868280489"><ele>204.2</ele><time>2026-03-29T08:04:23.998Z</time></trkpt><trkpt lat="39.3182503052674" lon="9.214605820878704"><ele>205.0</ele><time>2026-03-29T08:04:24.998Z</time></trkpt><trkpt lat="39.31829829989937" lon="9.214677032211645"><ele>204.99999999999997</ele><time>2026-03-29T08:04:25.997Z</time></trkpt><trkpt lat="39.31836215251367" lon="9.214721243180714"><ele>205.0</ele><time>2026-03-29T08:04:26.997Z</time></trkpt><trkpt lat="39.3184506679054" lon="9.214737234789816"><ele>205.0</ele><time>2026-03-29T08:04:27.997Z</time></trkpt><trkpt lat="39.31853709545144" lon="9.214754751039372"><ele>205.0</ele><time>2026-03-29T08:04:28.997Z</time></trkpt><trkpt lat="39.31862384817251" lon="9.214756346753061"><ele>204.99999999999997</ele><time>2026-03-29T08:04:29.997Z</time></trkpt><trkpt lat="39.31872705964661" lon="9.214733839467678"><ele>205.0</ele><time>2026-03-29T08:04:30.997Z</time></trkpt><trkpt lat="39.31882077970415" lon="9.214727354559749"><ele>204.99999999999997</ele><time>2026-03-29T08:04:31.997Z</time></trkpt><trkpt lat="39.31889884421001" lon="9.214749595819416"><ele>205.0</ele><time>2026-03-29T08:04:32.997Z</time></trkpt><trkpt lat="39.318931266509864" lon="9.214845559945083"><ele>205.0</ele><time>2026-03-29T08:04:33.997Z</time></trkpt><trkpt lat="39.318976945414335" lon="9.21491730612779"><ele>205.0</ele><time>2026-03-29T08:04:34.997Z</time></trkpt><trkpt lat="39.31904673056746" lon="9.214994902719143"><ele>204.99999999999997</ele><time>2026-03-29T08:04:35.997Z</time></trkpt><trkpt lat="39.31911979976718" lon="9.215064628771147"><ele>205.0</ele><time>2026-03-29T08:04:36.997Z</time></trkpt><trkpt lat="39.3191960400087" lon="9.215131772103176"><ele>208.0</ele><time>2026-03-29T08:04:37.997Z</time></trkpt><trkpt lat="39.319272552263044" lon="9.21518774825146"><ele>211.0</ele><time>2026-03-29T08:04:38.997Z</time></trkpt><trkpt lat="39.31936102324932" lon="9.215213483335742"><ele>214.0</ele><time>2026-03-29T08:04:39.997Z</time></trkpt><trkpt lat="39.3194436860696" lon="9.215256824040807"><ele>217.0</ele><time>2026-03-29T08:04:40.997Z</time></trkpt><trkpt lat="39.3195297260074" lon="9.215307314093742"><ele>220.0</ele><time>2026-03-29T08:04:41.997Z</time></trkpt><trkpt lat="39.31962266024521" lon="9.215348989081487"><ele>219.99999999999997</ele><time>2026-03-29T08:04:42.997Z</time></trkpt><trkpt lat="39.31971149599534" lon="9.215397709326009"><ele>220.0</ele><time>2026-03-29T08:04:44Z</time></trkpt><trkpt lat="39.31979539273088" lon="9.215431915106322"><ele>220.0</ele><time>2026-03-29T08:04:45Z</time></trkpt><trkpt lat="39.31989330923288" lon="9.215408128777538"><ele>220.0</ele><time>2026-03-29T08:04:46Z</time></trkpt><trkpt lat="39.319978451273776" lon="9.215431431629826"><ele>219.99999999999997</ele><time>2026-03-29T08:04:47Z</time></trkpt><trkpt lat="39.32005445461754" lon="9.215432344948468"><ele>220.0</ele><time>2026-03-29T08:04:48Z</time></trkpt><trkpt lat="39.320150345555675" lon="9.21544840407255"><ele>223.6</ele><time>2026-03-29T08:04:49Z</time></trkpt><trkpt lat="39.32020496018854" lon="9.215503397852968"><ele>227.2</ele><time>2026-03-29T08:04:50Z</time></trkpt><trkpt lat="39.32023760063816" lon="9.21557676945141"><ele>230.8</ele><time>2026-03-29T08:04:51Z</time></trkpt><trkpt lat="39.320296167911735" lon="9.215629720320555"><ele>234.4</ele><time>2026-03-29T08:04:52Z</time></trkpt><trkpt lat="39.320377303387076" lon="9.215399575399509"><ele>238.0</ele><time>2026-03-29T08:04:57Z</time></trkpt><trkpt lat="39.32031648774969" lon="9.215344366586516"><ele>238.0</ele><time>2026-03-29T08:04:58Z</time></trkpt><trkpt lat="39.32023660272547" lon="9.215293950724867"><ele>238.0</ele><time>2026-03-29T08:04:59Z</time></trkpt><trkpt lat="39.320154312896136" lon="9.2152383661548"><ele>238.0</ele><time>2026-03-29T08:05:00Z</time></trkpt><trkpt lat="39.32007147898512" lon="9.215192501030128"><ele>238.0</ele><time>2026-03-29T08:05:01Z</time></trkpt><trkpt lat="39.31998292831974" lon="9.215146655642231"><ele>238.0</ele><time>2026-03-29T08:05:02Z</time></trkpt><trkpt lat="39.31990525292002" lon="9.215075183081321"><ele>237.99999999999997</ele><time>2026-03-29T08:05:03Z</time></trkpt><trkpt lat="39.31985528218481" lon="9.21501315050468"><ele>238.0</ele><time>2026-03-29T08:05:04Z</time></trkpt><trkpt lat="39.31985572891792" lon="9.214853536928427"><ele>238.0</ele><time>2026-03-29T08:05:06Z</time></trkpt><trkpt lat="39.31991347860273" lon="9.214753719392403"><ele>238.0</ele><time>2026-03-29T08:05:07Z</time></trkpt><trkpt lat="39.31995665006414" lon="9.214662415440817"><ele>237.99999999999997</ele><time>2026-03-29T08:05:08Z</time></trkpt><trkpt lat="39.32000170130536" lon="9.214586256756096"><ele>238.0</ele><time>2026-03-29T08:05:09Z</time></trkpt><trkpt lat="39.320101059448476" lon="9.214577255370184"><ele>237.99999999999997</ele><time>2026-03-29T08:05:11Z</time></trkpt><trkpt lat="39.32015210073246" lon="9.21466353659181"><ele>238.0</ele><time>2026-03-29T08:05:13Z</time></trkpt><trkpt lat="39.32015471785768" lon="9.214798207988757"><ele>238.0</ele><time>2026-03-29T08:05:14.999Z</time></trkpt><trkpt lat="39.32018332425704" lon="9.214901735688079"><ele>238.0</ele><time>2026-03-29T08:05:15.999Z</time></trkpt><trkpt lat="39.320258564168356" lon="9.214956174379068"><ele>237.99999999999997</ele><time>2026-03-29T08:05:16.999Z</time></trkpt><trkpt lat="39.32032989095781" lon="9.214999599642438"><ele>238.0</ele><time>2026-03-29T08:05:17.999Z</time></trkpt><trkpt lat="39.32043574822425" lon="9.21503967597994"><ele>238.0</ele><time>2026-03-29T08:05:18.999Z</time></trkpt><trkpt lat="39.32054945210626" lon="9.215072589918124"><ele>238.0</ele><time>2026-03-29T08:05:19.999Z</time></trkpt><trkpt lat="39.3206737147952" lon="9.215091677882006"><ele>238.0</ele><time>2026-03-29T08:05:20.999Z</time></trkpt><trkpt lat="39.32078406437399" lon="9.215171439056936"><ele>238.0</ele><time>2026-03-29T08:05:21.999Z</time></trkpt><trkpt lat="39.3208801604605" lon="9.215256854062464"><ele>242.5</ele><time>2026-03-29T08:05:22.999Z</time></trkpt><trkpt lat="39.320991603106854" lon="9.215335986317468"><ele>247.0</ele><time>2026-03-29T08:05:23.999Z</time></trkpt><trkpt lat="39.32111522884855" lon="9.215393653914147"><ele>251.5</ele><time>2026-03-29T08:05:24.999Z</time></trkpt><trkpt lat="39.32122887828018" lon="9.215488703694591"><ele>256.0</ele><time>2026-03-29T08:05:25.999Z</time></trkpt><trkpt lat="39.32132438443866" lon="9.215577447692569"><ele>258.0</ele><time>2026-03-29T08:05:26.999Z</time></trkpt><trkpt lat="39.3214022108219" lon="9.215669910538436"><ele>260.0</ele><time>2026-03-29T08:05:27.999Z</time></trkpt><trkpt lat="39.32149176706231" lon="9.215752486718856"><ele>262.0</ele><time>2026-03-29T08:05:28.999Z</time></trkpt><trkpt lat="39.32157798109497" lon="9.21579639005726"><ele>264.0</ele><time>2026-03-29T08:05:29.999Z</time></trkpt><trkpt lat="39.321672157269326" lon="9.215817188668257"><ele>266.0</ele><time>2026-03-29T08:05:30.999Z</time></trkpt><trkpt lat="39.32176163421433" lon="9.215869978547797"><ele>266.0</ele><time>2026-03-29T08:05:31.999Z</time></trkpt><trkpt lat="39.321868249946704" lon="9.215879685279555"><ele>266.0</ele><time>2026-03-29T08:05:32.999Z</time></trkpt><trkpt lat="39.32196347369698" lon="9.215901565263133"><ele>266.0</ele><time>2026-03-29T08:05:33.999Z</time></trkpt><trkpt lat="39.32207735075399" lon="9.215937092463648"><ele>266.0</ele><time>2026-03-29T08:05:34.999Z</time></trkpt><trkpt lat="39.32220018971719" lon="9.215952827576944"><ele>266.0</ele><time>2026-03-29T08:05:35.999Z</time></trkpt><trkpt lat="39.32232751272143" lon="9.215963358294589"><ele>270.25</ele><time>2026-03-29T08:05:36.999Z</time></trkpt><trkpt lat="39.32246261103875" lon="9.21595724945167"><ele>274.5</ele><time>2026-03-29T08:05:37.999Z</time></trkpt><trkpt lat="39.32259359418051" lon="9.215963937021986"><ele>278.75</ele><time>2026-03-29T08:05:38.999Z</time></trkpt><trkpt lat="39.32272327415348" lon="9.215995555255855"><ele>283.0</ele><time>2026-03-29T08:05:39.999Z</time></trkpt><trkpt lat="39.322851291241065" lon="9.216045554753562"><ele>283.0</ele><time>2026-03-29T08:05:40.999Z</time></trkpt><trkpt lat="39.32295150822121" lon="9.216108011197443"><ele>283.0</ele><time>2026-03-29T08:05:41.999Z</time></trkpt><trkpt lat="39.32303632007024" lon="9.216178850271854"><ele>283.0</ele><time>2026-03-29T08:05:42.999Z</time></trkpt><trkpt lat="39.32311073352945" lon="9.216222365168713"><ele>283.0</ele><time>2026-03-29T08:05:43.999Z</time></trkpt><trkpt lat="39.32320130018858" lon="9.216227593004358"><ele>283.0</ele><time>2026-03-29T08:05:44.999Z</time></trkpt><trkpt lat="39.3232914661099" lon="9.216205205412674"><ele>285.6</ele><time>2026-03-29T08:05:45.999Z</time></trkpt><trkpt lat="39.32338813887873" lon="9.216192645822925"><ele>288.20000000000005</ele><time>2026-03-29T08:05:46.999Z</time></trkpt><trkpt lat="39.323475842032096" lon="9.216188054171656"><ele>290.8</ele><time>2026-03-29T08:05:47.999Z</time></trkpt><trkpt lat="39.3235988148405" lon="9.216256872950733"><ele>293.40000000000003</ele><time>2026-03-29T08:05:49.999Z</time></trkpt><trkpt lat="39.32365916698579" lon="9.216311732632365"><ele>296.0</ele><time>2026-03-29T08:05:50.999Z</time></trkpt><trkpt lat="39.32371436359182" lon="9.216387263292727"><ele>296.0</ele><time>2026-03-29T08:05:51.999Z</time></trkpt><trkpt lat="39.32375711136503" lon="9.21648166737732"><ele>296.0</ele><time>2026-03-29T08:05:52.998Z</time></trkpt><trkpt lat="39.323817180960276" lon="9.216578283570534"><ele>296.0</ele><time>2026-03-29T08:05:53.998Z</time></trkpt><trkpt lat="39.323852323452826" lon="9.216664226612115"><ele>296.0</ele><time>2026-03-29T08:05:54.998Z</time></trkpt><trkpt lat="39.323871845634585" lon="9.216741953989239"><ele>296.0</ele><time>2026-03-29T08:05:55.998Z</time></trkpt><trkpt lat="39.3238358765603" lon="9.216833955285374"><ele>296.0</ele><time>2026-03-29T08:05:57.998Z</time></trkpt><trkpt lat="39.32372908551291" lon="9.21683415589022"><ele>294.75</ele><time>2026-03-29T08:05:59.998Z</time></trkpt><trkpt lat="39.32366927268674" lon="9.216906767339212"><ele>293.5</ele><time>2026-03-29T08:06:02.998Z</time></trkpt><trkpt lat="39.32345498441107" lon="9.21707457831453"><ele>292.25</ele><time>2026-03-29T08:06:04.998Z</time></trkpt><trkpt lat="39.323392664625445" lon="9.217157829874195"><ele>291.0</ele><time>2026-03-29T08:06:05.998Z</time></trkpt><trkpt lat="39.32332806265433" lon="9.217232620131249"><ele>290.8</ele><time>2026-03-29T08:06:06.998Z</time></trkpt><trkpt lat="39.32327770485228" lon="9.217320272842088"><ele>290.6</ele><time>2026-03-29T08:06:08.998Z</time></trkpt><trkpt lat="39.32320584284763" lon="9.217405837261104"><ele>290.4</ele><time>2026-03-29T08:06:10.998Z</time></trkpt><trkpt lat="39.3231134575495" lon="9.217468444402364"><ele>290.2</ele><time>2026-03-29T08:06:12.998Z</time></trkpt><trkpt lat="39.323063418641404" lon="9.217598882462378"><ele>290.0</ele><time>2026-03-29T08:06:14.998Z</time></trkpt><trkpt lat="39.32299642552191" lon="9.217723560950514"><ele>290.0</ele><time>2026-03-29T08:06:16.998Z</time></trkpt><trkpt lat="39.32292444909757" lon="9.21778560658601"><ele>290.0</ele><time>2026-03-29T08:06:17.998Z</time></trkpt><trkpt lat="39.32285446109889" lon="9.217838648899777"><ele>290.0</ele><time>2026-03-29T08:06:18.998Z</time></trkpt><trkpt lat="39.322789763874674" lon="9.217905636494898"><ele>290.0</ele><time>2026-03-29T08:06:19.998Z</time></trkpt><trkpt lat="39.32273574418242" lon="9.2179716422571"><ele>290.0</ele><time>2026-03-29T08:06:20.998Z</time></trkpt><trkpt lat="39.32273113355981" lon="9.218112566508523"><ele>290.0</ele><time>2026-03-29T08:06:22.998Z</time></trkpt><trkpt lat="39.32271179495045" lon="9.218263489226954"><ele>290.0</ele><time>2026-03-29T08:06:24.998Z</time></trkpt><trkpt lat="39.32268566523211" lon="9.218347017552816"><ele>290.0</ele><time>2026-03-29T08:06:25.998Z</time></trkpt><trkpt lat="39.32265084601421" lon="9.218428422164608"><ele>290.0</ele><time>2026-03-29T08:06:26.998Z</time></trkpt><trkpt lat="39.322599779072206" lon="9.218544080081456"><ele>290.0</ele><time>2026-03-29T08:06:28.998Z</time></trkpt><trkpt lat="39.3224945256819" lon="9.21860551078704"><ele>290.0</ele><time>2026-03-29T08:06:30.998Z</time></trkpt><trkpt lat="39.32242044320417" lon="9.218709342798247"><ele>290.0</ele><time>2026-03-29T08:06:32.997Z</time></trkpt><trkpt lat="39.32234941903554" lon="9.218810209194444"><ele>290.0</ele><time>2026-03-29T08:06:34.997Z</time></trkpt><trkpt lat="39.322218914000615" lon="9.218839510635522"><ele>290.0</ele><time>2026-03-29T08:06:36.997Z</time></trkpt><trkpt lat="39.322135780292996" lon="9.218894515236904"><ele>290.0</ele><time>2026-03-29T08:06:37.997Z</time></trkpt><trkpt lat="39.32206652525246" lon="9.21896276735765"><ele>290.0</ele><time>2026-03-29T08:06:38.997Z</time></trkpt><trkpt lat="39.322005634820975" lon="9.219023188369945"><ele>288.57142857142856</ele><time>2026-03-29T08:06:39.997Z</time></trkpt><trkpt lat="39.321954198557" lon="9.219081905949068"><ele>287.14285714285717</ele><time>2026-03-29T08:06:40.997Z</time></trkpt><trkpt lat="39.32189668083777" lon="9.219130775792218"><ele>285.7142857142857</ele><time>2026-03-29T08:06:41.997Z</time></trkpt><trkpt lat="39.32184146455886" lon="9.2191729666131"><ele>284.2857142857143</ele><time>2026-03-29T08:06:42.997Z</time></trkpt><trkpt lat="39.32177350422064" lon="9.219222672641871"><ele>282.8571428571429</ele><time>2026-03-29T08:06:43.997Z</time></trkpt><trkpt lat="39.321711748489115" lon="9.219277266104621"><ele>281.42857142857144</ele><time>2026-03-29T08:06:44.997Z</time></trkpt><trkpt lat="39.32164643615897" lon="9.219364932829672"><ele>280.0</ele><time>2026-03-29T08:06:46.997Z</time></trkpt><trkpt lat="39.32155761401074" lon="9.219396256568313"><ele>280.0</ele><time>2026-03-29T08:06:50Z</time></trkpt><trkpt lat="39.32147927525137" lon="9.2194558729346"><ele>280.0</ele><time>2026-03-29T08:06:52Z</time></trkpt><trkpt lat="39.32139522769301" lon="9.219543641121783"><ele>280.0</ele><time>2026-03-29T08:06:54Z</time></trkpt><trkpt lat="39.3212986161253" lon="9.219592455656066"><ele>280.0</ele><time>2026-03-29T08:06:56Z</time></trkpt><trkpt lat="39.321189896320384" lon="9.219628571239575"><ele>280.0</ele><time>2026-03-29T08:06:58Z</time></trkpt><trkpt lat="39.32113396466457" lon="9.219672069275859"><ele>278.0</ele><time>2026-03-29T08:06:59Z</time></trkpt><trkpt lat="39.3210794433199" lon="9.219717770075807"><ele>276.0</ele><time>2026-03-29T08:07:00Z</time></trkpt><trkpt lat="39.32102539873547" lon="9.21976534335837"><ele>274.0</ele><time>2026-03-29T08:07:01Z</time></trkpt><trkpt lat="39.32093825547604" lon="9.219799372514597"><ele>272.0</ele><time>2026-03-29T08:07:03Z</time></trkpt><trkpt lat="39.320864347661626" lon="9.219749486931507"><ele>270.0</ele><time>2026-03-29T08:07:05Z</time></trkpt><trkpt lat="39.32079986921801" lon="9.21966427114455"><ele>268.0</ele><time>2026-03-29T08:07:07Z</time></trkpt><trkpt lat="39.32069065734399" lon="9.219643972296192"><ele>268.0</ele><time>2026-03-29T08:07:09Z</time></trkpt><trkpt lat="39.32060519754802" lon="9.219569226139633"><ele>268.0</ele><time>2026-03-29T08:07:11Z</time></trkpt><trkpt lat="39.32055844821277" lon="9.219509959339224"><ele>268.0</ele><time>2026-03-29T08:07:12Z</time></trkpt><trkpt lat="39.32046549857372" lon="9.219411882660511"><ele>268.0</ele><time>2026-03-29T08:07:14Z</time></trkpt><trkpt lat="39.32039538042945" lon="9.219322242670831"><ele>268.0</ele><time>2026-03-29T08:07:16Z</time></trkpt><trkpt lat="39.32031352114704" lon="9.219249696197693"><ele>265.8333333333333</ele><time>2026-03-29T08:07:18Z</time></trkpt><trkpt lat="39.32022670841812" lon="9.219258550968252"><ele>263.66666666666663</ele><time>2026-03-29T08:07:20Z</time></trkpt><trkpt lat="39.3201609240902" lon="9.219198284318633"><ele>261.5</ele><time>2026-03-29T08:07:21.999Z</time></trkpt><trkpt lat="39.32007167233995" lon="9.219154678039244"><ele>259.3333333333333</ele><time>2026-03-29T08:07:23.999Z</time></trkpt><trkpt lat="39.319990333620645" lon="9.219147360751974"><ele>257.1666666666667</ele><time>2026-03-29T08:07:25.999Z</time></trkpt><trkpt lat="39.31991137233259" lon="9.2191266073445"><ele>255.0</ele><time>2026-03-29T08:07:26.999Z</time></trkpt><trkpt lat="39.319809617110955" lon="9.219095489761086"><ele>251.4</ele><time>2026-03-29T08:07:28.999Z</time></trkpt><trkpt lat="39.319711418974975" lon="9.219059370771665"><ele>247.8</ele><time>2026-03-29T08:07:30.999Z</time></trkpt><trkpt lat="39.31961897780809" lon="9.219047690625205"><ele>244.2</ele><time>2026-03-29T08:07:32.999Z</time></trkpt><trkpt lat="39.319520164112156" lon="9.2189930729269"><ele>240.6</ele><time>2026-03-29T08:07:34.999Z</time></trkpt><trkpt lat="39.3194313690609" lon="9.218920353257557"><ele>237.0</ele><time>2026-03-29T08:07:36.999Z</time></trkpt><trkpt lat="39.319324181367534" lon="9.218872414861893"><ele>236.39999999999998</ele><time>2026-03-29T08:07:38.999Z</time></trkpt><trkpt lat="39.319226956085615" lon="9.218815569222414"><ele>235.79999999999998</ele><time>2026-03-29T08:07:40.999Z</time></trkpt><trkpt lat="39.31914241404434" lon="9.218743327736913"><ele>235.2</ele><time>2026-03-29T08:07:42.999Z</time></trkpt><trkpt lat="39.319043391916125" lon="9.218755700512924"><ele>234.6</ele><time>2026-03-29T08:07:44.999Z</time></trkpt><trkpt lat="39.31894114581404" lon="9.218743377748945"><ele>234.0</ele><time>2026-03-29T08:07:46.999Z</time></trkpt><trkpt lat="39.318859559703306" lon="9.218819685686615"><ele>231.16666666666666</ele><time>2026-03-29T08:07:49.999Z</time></trkpt><trkpt lat="39.318790016267684" lon="9.21875497369899"><ele>228.33333333333331</ele><time>2026-03-29T08:07:51.999Z</time></trkpt><trkpt lat="39.31870392029944" lon="9.218781189497587"><ele>225.5</ele><time>2026-03-29T08:07:54.999Z</time></trkpt><trkpt lat="39.31860256078307" lon="9.218801383899352"><ele>222.66666666666666</ele><time>2026-03-29T08:07:56.999Z</time></trkpt><trkpt lat="39.31852417072552" lon="9.218758768941312"><ele>219.83333333333331</ele><time>2026-03-29T08:07:58.999Z</time></trkpt><trkpt lat="39.318460176565566" lon="9.21873343006525"><ele>217.0</ele><time>2026-03-29T08:07:59.999Z</time></trkpt><trkpt lat="39.31834332567271" lon="9.21872847510903"><ele>216.99999999999997</ele><time>2026-03-29T08:08:01.998Z</time></trkpt><trkpt lat="39.318277011561015" lon="9.21873071436791"><ele>217.0</ele><time>2026-03-29T08:08:02.998Z</time></trkpt><trkpt lat="39.318211251352764" lon="9.218732309616025"><ele>217.0</ele><time>2026-03-29T08:08:03.998Z</time></trkpt><trkpt lat="39.31809053525235" lon="9.21870745064676"><ele>217.0</ele><time>2026-03-29T08:08:05.998Z</time></trkpt><trkpt lat="39.31802928879596" lon="9.218687267637948"><ele>216.99999999999997</ele><time>2026-03-29T08:08:06.998Z</time></trkpt><trkpt lat="39.31794848705697" lon="9.218624426005336"><ele>217.0</ele><time>2026-03-29T08:08:08.998Z</time></trkpt><trkpt lat="39.31787256120069" lon="9.218529788455465"><ele>213.8</ele><time>2026-03-29T08:08:10.998Z</time></trkpt><trkpt lat="39.31778976993789" lon="9.218438215297956"><ele>210.6</ele><time>2026-03-29T08:08:12.998Z</time></trkpt><trkpt lat="39.3177333278747" lon="9.21834665281319"><ele>207.4</ele><time>2026-03-29T08:08:14.998Z</time></trkpt><trkpt lat="39.31770023343995" lon="9.21823907951715"><ele>204.20000000000002</ele><time>2026-03-29T08:08:16.998Z</time></trkpt><trkpt lat="39.31764029635464" lon="9.218129973797799"><ele>201.0</ele><time>2026-03-29T08:08:18.998Z</time></trkpt><trkpt lat="39.31754126334038" lon="9.218051135383229"><ele>201.0</ele><time>2026-03-29T08:08:20.998Z</time></trkpt><trkpt lat="39.31747880201176" lon="9.21800564573939"><ele>201.0</ele><time>2026-03-29T08:08:22.998Z</time></trkpt><trkpt lat="39.31740965269629" lon="9.217946872760468"><ele>201.0</ele><time>2026-03-29T08:08:27.998Z</time></trkpt><trkpt lat="39.31737071588574" lon="9.218114150011079"><ele>201.0</ele><time>2026-03-29T08:08:28.998Z</time></trkpt><trkpt lat="39.317364454831605" lon="9.218200320134441"><ele>201.0</ele><time>2026-03-29T08:08:30.998Z</time></trkpt><trkpt lat="39.31733695269778" lon="9.218303575778707"><ele>201.0</ele><time>2026-03-29T08:08:32.998Z</time></trkpt><trkpt lat="39.31731712680353" lon="9.218392348681196"><ele>201.0</ele><time>2026-03-29T08:08:34.998Z</time></trkpt><trkpt lat="39.31729958114704" lon="9.21850994876932"><ele>201.0</ele><time>2026-03-29T08:08:37.998Z</time></trkpt><trkpt lat="39.317266708005775" lon="9.218626889894999"><ele>201.0</ele><time>2026-03-29T08:08:39.998Z</time></trkpt><trkpt lat="39.31722599477801" lon="9.218780408099146"><ele>201.0</ele><time>2026-03-29T08:08:40.997Z</time></trkpt><trkpt lat="39.317208802088665" lon="9.218906568271484"><ele>201.0</ele><time>2026-03-29T08:08:42.997Z</time></trkpt><trkpt lat="39.31713561533513" lon="9.218976429181728"><ele>198.8</ele><time>2026-03-29T08:08:43.997Z</time></trkpt><trkpt lat="39.317074112594646" lon="9.219095523380865"><ele>196.60000000000002</ele><time>2026-03-29T08:08:45.997Z</time></trkpt><trkpt lat="39.31698344180646" lon="9.21919614165406"><ele>194.4</ele><time>2026-03-29T08:08:47.997Z</time></trkpt><trkpt lat="39.31692178540421" lon="9.219257466677352"><ele>192.2</ele><time>2026-03-29T08:08:48.997Z</time></trkpt><trkpt lat="39.316868753208844" lon="9.219332692482798"><ele>190.0</ele><time>2026-03-29T08:08:49.997Z</time></trkpt><trkpt lat="39.31681603132406" lon="9.21939229695451"><ele>190.0</ele><time>2026-03-29T08:08:50.997Z</time></trkpt><trkpt lat="39.31678839859686" lon="9.21947534746412"><ele>190.0</ele><time>2026-03-29T08:08:51.997Z</time></trkpt><trkpt lat="39.31670907769113" lon="9.21956964097958"><ele>190.0</ele><time>2026-03-29T08:08:53.997Z</time></trkpt><trkpt lat="39.316647510636976" lon="9.219695173311793"><ele>190.0</ele><time>2026-03-29T08:08:56Z</time></trkpt><trkpt lat="39.31657673770987" lon="9.219767238552375"><ele>190.0</ele><time>2026-03-29T08:08:58Z</time></trkpt><trkpt lat="39.31652781633041" lon="9.21986789265314"><ele>189.0</ele><time>2026-03-29T08:09:00Z</time></trkpt><trkpt lat="39.31648154304047" lon="9.219993912013603"><ele>188.0</ele><time>2026-03-29T08:09:02Z</time></trkpt><trkpt lat="39.31645367266026" lon="9.220126198433972"><ele>187.0</ele><time>2026-03-29T08:09:04Z</time></trkpt><trkpt lat="39.31641079098318" lon="9.220255907059727"><ele>186.0</ele><time>2026-03-29T08:09:06Z</time></trkpt><trkpt lat="39.316381296606835" lon="9.22035307625268"><ele>185.0</ele><time>2026-03-29T08:09:08Z</time></trkpt><trkpt lat="39.31631556691483" lon="9.22040439101193"><ele>183.6</ele><time>2026-03-29T08:09:10Z</time></trkpt><trkpt lat="39.31618846620318" lon="9.220454965724096"><ele>182.2</ele><time>2026-03-29T08:09:12Z</time></trkpt><trkpt lat="39.31610765910392" lon="9.220513583915187"><ele>180.8</ele><time>2026-03-29T08:09:13Z</time></trkpt><trkpt lat="39.31602660797309" lon="9.22059193265011"><ele>179.4</ele><time>2026-03-29T08:09:14Z</time></trkpt><trkpt lat="39.31595173027547" lon="9.220673999830048"><ele>178.0</ele><time>2026-03-29T08:09:15Z</time></trkpt><trkpt lat="39.31590921624546" lon="9.220764715407254"><ele>177.5</ele><time>2026-03-29T08:09:16Z</time></trkpt><trkpt lat="39.315880920686006" lon="9.220870254065362"><ele>177.0</ele><time>2026-03-29T08:09:17Z</time></trkpt><trkpt lat="39.3158566562861" lon="9.22098881089692"><ele>176.5</ele><time>2026-03-29T08:09:18Z</time></trkpt><trkpt lat="39.31581118214664" lon="9.221085693254702"><ele>176.0</ele><time>2026-03-29T08:09:19Z</time></trkpt><trkpt lat="39.31573317639557" lon="9.221147789777588"><ele>175.5</ele><time>2026-03-29T08:09:20Z</time></trkpt><trkpt lat="39.315662898905224" lon="9.221211801467042"><ele>175.0</ele><time>2026-03-29T08:09:21Z</time></trkpt><trkpt lat="39.315590762517" lon="9.221272158421069"><ele>174.5</ele><time>2026-03-29T08:09:22Z</time></trkpt><trkpt lat="39.31552884152372" lon="9.221336096083897"><ele>174.0</ele><time>2026-03-29T08:09:23Z</time></trkpt><trkpt lat="39.31546955029817" lon="9.221390140896375"><ele>173.5</ele><time>2026-03-29T08:09:24Z</time></trkpt><trkpt lat="39.31539758626" lon="9.221435626735273"><ele>173.0</ele><time>2026-03-29T08:09:25Z</time></trkpt><trkpt lat="39.3153119834159" lon="9.22146410430227"><ele>172.5</ele><time>2026-03-29T08:09:25.999Z</time></trkpt><trkpt lat="39.315234514686125" lon="9.221482940743774"><ele>172.0</ele><time>2026-03-29T08:09:26.999Z</time></trkpt><trkpt lat="39.31516538913567" lon="9.22149602121812"><ele>171.5</ele><time>2026-03-29T08:09:27.999Z</time></trkpt><trkpt lat="39.3150791026264" lon="9.221509897455084"><ele>171.0</ele><time>2026-03-29T08:09:28.999Z</time></trkpt><trkpt lat="39.31498102337295" lon="9.221531454402829"><ele>170.5</ele><time>2026-03-29T08:09:29.999Z</time></trkpt><trkpt lat="39.3148864930777" lon="9.221549443482392"><ele>170.0</ele><time>2026-03-29T08:09:30.999Z</time></trkpt><trkpt lat="39.31479725347296" lon="9.221547455913388"><ele>169.5</ele><time>2026-03-29T08:09:31.999Z</time></trkpt><trkpt lat="39.31472410301323" lon="9.221521326634582"><ele>169.0</ele><time>2026-03-29T08:09:32.999Z</time></trkpt><trkpt lat="39.31462758783746" lon="9.221443479207572"><ele>168.83333333333334</ele><time>2026-03-29T08:09:34.999Z</time></trkpt><trkpt lat="39.314534991484216" lon="9.221375785631468"><ele>168.66666666666669</ele><time>2026-03-29T08:09:36.999Z</time></trkpt><trkpt lat="39.31448206656216" lon="9.221325531897143"><ele>168.5</ele><time>2026-03-29T08:09:37.999Z</time></trkpt><trkpt lat="39.31442153702037" lon="9.221276852992979"><ele>168.33333333333334</ele><time>2026-03-29T08:09:38.999Z</time></trkpt><trkpt lat="39.31435903543679" lon="9.22124459398272"><ele>168.16666666666666</ele><time>2026-03-29T08:09:39.999Z</time></trkpt><trkpt lat="39.31430177307766" lon="9.221179290589259"><ele>168.0</ele><time>2026-03-29T08:09:40.999Z</time></trkpt><trkpt lat="39.31423296393189" lon="9.221131007305804"><ele>168.0</ele><time>2026-03-29T08:09:41.999Z</time></trkpt><trkpt lat="39.31416590256486" lon="9.221058442410278"><ele>168.0</ele><time>2026-03-29T08:09:42.999Z</time></trkpt><trkpt lat="39.31408539463672" lon="9.220989672094394"><ele>168.0</ele><time>2026-03-29T08:09:43.999Z</time></trkpt><trkpt lat="39.31401515027046" lon="9.220901820222778"><ele>168.0</ele><time>2026-03-29T08:09:44.999Z</time></trkpt><trkpt lat="39.31393559616555" lon="9.220800291980648"><ele>168.0</ele><time>2026-03-29T08:09:45.999Z</time></trkpt><trkpt lat="39.31385055500911" lon="9.220710696338003"><ele>167.0</ele><time>2026-03-29T08:09:46.999Z</time></trkpt><trkpt lat="39.31375221199172" lon="9.220622034554"><ele>166.0</ele><time>2026-03-29T08:09:47.999Z</time></trkpt><trkpt lat="39.313635855557116" lon="9.22055489083723"><ele>165.0</ele><time>2026-03-29T08:09:48.999Z</time></trkpt><trkpt lat="39.313529658758775" lon="9.220480379581474"><ele>164.0</ele><time>2026-03-29T08:09:49.999Z</time></trkpt><trkpt lat="39.31342908514311" lon="9.220419721616178"><ele>164.0</ele><time>2026-03-29T08:09:50.999Z</time></trkpt><trkpt lat="39.31334782092648" lon="9.2203448371255"><ele>164.0</ele><time>2026-03-29T08:09:51.999Z</time></trkpt><trkpt lat="39.31326595638943" lon="9.220291955373169"><ele>164.0</ele><time>2026-03-29T08:09:52.999Z</time></trkpt><trkpt lat="39.313176114973786" lon="9.220229079002516"><ele>164.0</ele><time>2026-03-29T08:09:53.999Z</time></trkpt><trkpt lat="39.313093016257966" lon="9.220154945529398"><ele>164.0</ele><time>2026-03-29T08:09:54.999Z</time></trkpt><trkpt lat="39.313004183411266" lon="9.220073073271276"><ele>163.6</ele><time>2026-03-29T08:09:55.999Z</time></trkpt><trkpt lat="39.312926061455755" lon="9.220006483427094"><ele>163.2</ele><time>2026-03-29T08:09:56.999Z</time></trkpt><trkpt lat="39.312865270746" lon="9.219979706072845"><ele>162.79999999999998</ele><time>2026-03-29T08:09:57.999Z</time></trkpt><trkpt lat="39.3127967277148" lon="9.220138914131926"><ele>162.39999999999998</ele><time>2026-03-29T08:10:03.999Z</time></trkpt><trkpt lat="39.31281105249264" lon="9.220233817667262"><ele>162.0</ele><time>2026-03-29T08:10:04.998Z</time></trkpt><trkpt lat="39.31281407048068" lon="9.220361685199853"><ele>162.0</ele><time>2026-03-29T08:10:05.998Z</time></trkpt><trkpt lat="39.312798584690555" lon="9.220480935011752"><ele>162.0</ele><time>2026-03-29T08:10:06.998Z</time></trkpt><trkpt lat="39.31275498173064" lon="9.220577975148268"><ele>162.0</ele><time>2026-03-29T08:10:07.998Z</time></trkpt><trkpt lat="39.3127056347829" lon="9.22066468617305"><ele>162.0</ele><time>2026-03-29T08:10:08.998Z</time></trkpt><trkpt lat="39.31266483727309" lon="9.220755150848865"><ele>162.0</ele><time>2026-03-29T08:10:09.998Z</time></trkpt><trkpt lat="39.312633040727036" lon="9.220839539243471"><ele>162.0</ele><time>2026-03-29T08:10:10.998Z</time></trkpt><trkpt lat="39.31260911010514" lon="9.220920869546704"><ele>161.5</ele><time>2026-03-29T08:10:11.998Z</time></trkpt><trkpt lat="39.31257741272902" lon="9.220995358971086"><ele>161.0</ele><time>2026-03-29T08:10:12.998Z</time></trkpt><trkpt lat="39.3125599485008" lon="9.221084259117372"><ele>160.5</ele><time>2026-03-29T08:10:14.998Z</time></trkpt><trkpt lat="39.31260384535366" lon="9.22115653034424"><ele>160.0</ele><time>2026-03-29T08:10:16.998Z</time></trkpt><trkpt lat="39.31270760679346" lon="9.221283765114158"><ele>159.5</ele><time>2026-03-29T08:10:18.998Z</time></trkpt><trkpt lat="39.31276012970501" lon="9.221372280177706"><ele>159.0</ele><time>2026-03-29T08:10:19.998Z</time></trkpt><trkpt lat="39.31282373573336" lon="9.221474502002224"><ele>158.33333333333334</ele><time>2026-03-29T08:10:20.998Z</time></trkpt><trkpt lat="39.31288770813138" lon="9.221560120927945"><ele>157.66666666666666</ele><time>2026-03-29T08:10:21.998Z</time></trkpt><trkpt lat="39.31293204943663" lon="9.221641275539293"><ele>157.0</ele><time>2026-03-29T08:10:22.998Z</time></trkpt><trkpt lat="39.31298906390593" lon="9.221754312784794"><ele>156.33333333333331</ele><time>2026-03-29T08:10:24.998Z</time></trkpt><trkpt lat="39.313031418874004" lon="9.221823507754674"><ele>155.66666666666666</ele><time>2026-03-29T08:10:27.998Z</time></trkpt><trkpt lat="39.31298365433398" lon="9.221919546999201"><ele>155.0</ele><time>2026-03-29T08:10:30.998Z</time></trkpt><trkpt lat="39.31296005768379" lon="9.221997848882836"><ele>155.0</ele><time>2026-03-29T08:10:32.998Z</time></trkpt><trkpt lat="39.312856467370366" lon="9.222040071496751"><ele>155.0</ele><time>2026-03-29T08:10:34.998Z</time></trkpt><trkpt lat="39.31279325475744" lon="9.222070452440715"><ele>155.0</ele><time>2026-03-29T08:10:35.998Z</time></trkpt><trkpt lat="39.31275067822562" lon="9.222132813591582"><ele>155.0</ele><time>2026-03-29T08:10:36.998Z</time></trkpt><trkpt lat="39.312737782809265" lon="9.222214611489981"><ele>155.0</ele><time>2026-03-29T08:10:37.998Z</time></trkpt><trkpt lat="39.312740467711635" lon="9.222321938312204"><ele>155.0</ele><time>2026-03-29T08:10:38.998Z</time></trkpt><trkpt lat="39.3127352655746" lon="9.222451661634022"><ele>155.5</ele><time>2026-03-29T08:10:39.998Z</time></trkpt><trkpt lat="39.312733328066244" lon="9.222614570892642"><ele>156.0</ele><time>2026-03-29T08:10:40.998Z</time></trkpt><trkpt lat="39.3127389902258" lon="9.222799141308531"><ele>156.5</ele><time>2026-03-29T08:10:41.998Z</time></trkpt><trkpt lat="39.31275549040417" lon="9.222994090651936"><ele>157.0</ele><time>2026-03-29T08:10:42.998Z</time></trkpt><trkpt lat="39.31275351569063" lon="9.22321064889585"><ele>158.33333333333334</ele><time>2026-03-29T08:10:43.998Z</time></trkpt><trkpt lat="39.31275428255503" lon="9.223425393717248"><ele>159.66666666666666</ele><time>2026-03-29T08:10:44.997Z</time></trkpt><trkpt lat="39.312751599914314" lon="9.223642335686787"><ele>161.0</ele><time>2026-03-29T08:10:45.997Z</time></trkpt><trkpt lat="39.31276416218267" lon="9.22386258687691"><ele>162.75</ele><time>2026-03-29T08:10:46.997Z</time></trkpt><trkpt lat="39.312756224407956" lon="9.224057186994706"><ele>164.5</ele><time>2026-03-29T08:10:47.997Z</time></trkpt><trkpt lat="39.31274972165223" lon="9.224225702284352"><ele>166.25</ele><time>2026-03-29T08:10:48.997Z</time></trkpt><trkpt lat="39.31274653884283" lon="9.224385397674622"><ele>168.0</ele><time>2026-03-29T08:10:49.997Z</time></trkpt><trkpt lat="39.31272289249127" lon="9.224538653817017"><ele>168.0</ele><time>2026-03-29T08:10:50.997Z</time></trkpt><trkpt lat="39.312703919287735" lon="9.224694069280474"><ele>168.0</ele><time>2026-03-29T08:10:51.997Z</time></trkpt><trkpt lat="39.31269040618655" lon="9.224853731893216"><ele>168.0</ele><time>2026-03-29T08:10:52.997Z</time></trkpt><trkpt lat="39.31265094800463" lon="9.225010524410205"><ele>168.0</ele><time>2026-03-29T08:10:53.997Z</time></trkpt><trkpt lat="39.31262873800245" lon="9.225179909091931"><ele>168.5</ele><time>2026-03-29T08:10:54.997Z</time></trkpt><trkpt lat="39.312620747589015" lon="9.225356651396353"><ele>169.0</ele><time>2026-03-29T08:10:55.997Z</time></trkpt><trkpt lat="39.31263822129245" lon="9.225528783474664"><ele>169.5</ele><time>2026-03-29T08:10:56.997Z</time></trkpt><trkpt lat="39.31267033361281" lon="9.2257072623623"><ele>170.0</ele><time>2026-03-29T08:10:57.997Z</time></trkpt><trkpt lat="39.31270980450658" lon="9.225876911036067"><ele>171.5</ele><time>2026-03-29T08:10:58.997Z</time></trkpt><trkpt lat="39.312770989807014" lon="9.226040770858578"><ele>173.0</ele><time>2026-03-29T08:10:59.997Z</time></trkpt><trkpt lat="39.31284535036677" lon="9.226212973651789"><ele>174.5</ele><time>2026-03-29T08:11:00.997Z</time></trkpt><trkpt lat="39.31289411176565" lon="9.226393359127895"><ele>176.0</ele><time>2026-03-29T08:11:02Z</time></trkpt><trkpt lat="39.31294210145765" lon="9.226578007783823"><ele>177.5</ele><time>2026-03-29T08:11:03Z</time></trkpt><trkpt lat="39.31298756058466" lon="9.226772369617775"><ele>179.0</ele><time>2026-03-29T08:11:04Z</time></trkpt><trkpt lat="39.31302078927502" lon="9.226954183201398"><ele>180.5</ele><time>2026-03-29T08:11:05Z</time></trkpt><trkpt lat="39.31304604715356" lon="9.22713989701682"><ele>182.0</ele><time>2026-03-29T08:11:06Z</time></trkpt><trkpt lat="39.313077925497105" lon="9.227284374026512"><ele>184.0</ele><time>2026-03-29T08:11:07Z</time></trkpt><trkpt lat="39.31309309800705" lon="9.227409062486233"><ele>186.0</ele><time>2026-03-29T08:11:08Z</time></trkpt><trkpt lat="39.313121244854074" lon="9.227515611238339"><ele>188.0</ele><time>2026-03-29T08:11:09Z</time></trkpt><trkpt lat="39.313163803438925" lon="9.227615048920333"><ele>190.0</ele><time>2026-03-29T08:11:10Z</time></trkpt><trkpt lat="39.31322097323423" lon="9.227705253964881"><ele>192.0</ele><time>2026-03-29T08:11:11Z</time></trkpt><trkpt lat="39.313286556582234" lon="9.227805408347646"><ele>192.0</ele><time>2026-03-29T08:11:12Z</time></trkpt><trkpt lat="39.31334684777208" lon="9.227935393540726"><ele>192.0</ele><time>2026-03-29T08:11:13Z</time></trkpt><trkpt lat="39.31342664932144" lon="9.228065820253942"><ele>192.0</ele><time>2026-03-29T08:11:14Z</time></trkpt><trkpt lat="39.313507877029686" lon="9.228207597435183"><ele>192.0</ele><time>2026-03-29T08:11:15Z</time></trkpt><trkpt lat="39.31359002806827" lon="9.228353743001284"><ele>192.5</ele><time>2026-03-29T08:11:16Z</time></trkpt><trkpt lat="39.313675806247936" lon="9.22849345630306"><ele>193.0</ele><time>2026-03-29T08:11:17Z</time></trkpt><trkpt lat="39.31376447297801" lon="9.228622331622617"><ele>193.5</ele><time>2026-03-29T08:11:18Z</time></trkpt><trkpt lat="39.31384283211513" lon="9.228721938546451"><ele>194.0</ele><time>2026-03-29T08:11:19Z</time></trkpt><trkpt lat="39.31394364487773" lon="9.228846995141721"><ele>194.0</ele><time>2026-03-29T08:11:20Z</time></trkpt><trkpt lat="39.3140415536227" lon="9.228962378040658"><ele>194.0</ele><time>2026-03-29T08:11:21Z</time></trkpt><trkpt lat="39.31418417215834" lon="9.229011461009284"><ele>194.0</ele><time>2026-03-29T08:11:22Z</time></trkpt><trkpt lat="39.31433650556032" lon="9.22908353774614"><ele>194.0</ele><time>2026-03-29T08:11:23Z</time></trkpt><trkpt lat="39.31447689558706" lon="9.229191972415856"><ele>193.66666666666669</ele><time>2026-03-29T08:11:24Z</time></trkpt><trkpt lat="39.31461817959962" lon="9.229309611996959"><ele>193.33333333333331</ele><time>2026-03-29T08:11:25Z</time></trkpt><trkpt lat="39.314743273947045" lon="9.229456643362415"><ele>193.0</ele><time>2026-03-29T08:11:26Z</time></trkpt><trkpt lat="39.31485085153319" lon="9.229613284637113"><ele>195.5</ele><time>2026-03-29T08:11:27Z</time></trkpt><trkpt lat="39.314937829577566" lon="9.229760560156935"><ele>198.0</ele><time>2026-03-29T08:11:28Z</time></trkpt><trkpt lat="39.31501049531818" lon="9.229884390765992"><ele>200.5</ele><time>2026-03-29T08:11:29Z</time></trkpt><trkpt lat="39.31509020706271" lon="9.230013058036782"><ele>203.0</ele><time>2026-03-29T08:11:30Z</time></trkpt><trkpt lat="39.31518920379522" lon="9.230130987909709"><ele>203.25</ele><time>2026-03-29T08:11:31Z</time></trkpt><trkpt lat="39.31530605824667" lon="9.230224203951224"><ele>203.5</ele><time>2026-03-29T08:11:32Z</time></trkpt><trkpt lat="39.315420166046344" lon="9.230329376965097"><ele>203.75</ele><time>2026-03-29T08:11:33Z</time></trkpt><trkpt lat="39.31552950115477" lon="9.230439240463856"><ele>204.0</ele><time>2026-03-29T08:11:34Z</time></trkpt><trkpt lat="39.31562842133326" lon="9.230518172340423"><ele>204.75</ele><time>2026-03-29T08:11:34.999Z</time></trkpt><trkpt lat="39.31572718719146" lon="9.230598367917544"><ele>205.5</ele><time>2026-03-29T08:11:35.999Z</time></trkpt><trkpt lat="39.31582570661214" lon="9.23067045346707"><ele>206.25</ele><time>2026-03-29T08:11:36.999Z</time></trkpt><trkpt lat="39.315936380673435" lon="9.230740305414558"><ele>207.0</ele><time>2026-03-29T08:11:37.999Z</time></trkpt><trkpt lat="39.31604334057212" lon="9.230806786554776"><ele>207.0</ele><time>2026-03-29T08:11:38.999Z</time></trkpt><trkpt lat="39.31615819051809" lon="9.23087850315345"><ele>207.0</ele><time>2026-03-29T08:11:39.999Z</time></trkpt><trkpt lat="39.316273543272985" lon="9.230951458840412"><ele>207.0</ele><time>2026-03-29T08:11:40.999Z</time></trkpt><trkpt lat="39.31638773957785" lon="9.231024532069627"><ele>207.0</ele><time>2026-03-29T08:11:41.999Z</time></trkpt><trkpt lat="39.31650904339339" lon="9.231110562709729"><ele>207.25</ele><time>2026-03-29T08:11:42.999Z</time></trkpt><trkpt lat="39.316632136163086" lon="9.231209837164018"><ele>207.5</ele><time>2026-03-29T08:11:43.999Z</time></trkpt><trkpt lat="39.3167506479491" lon="9.231320974607263"><ele>207.75</ele><time>2026-03-29T08:11:44.999Z</time></trkpt><trkpt lat="39.3168526684909" lon="9.23145888850793"><ele>208.0</ele><time>2026-03-29T08:11:45.999Z</time></trkpt><trkpt lat="39.316941321089026" lon="9.231610588736418"><ele>208.0</ele><time>2026-03-29T08:11:46.999Z</time></trkpt><trkpt lat="39.317021201041534" lon="9.231764338542224"><ele>208.0</ele><time>2026-03-29T08:11:47.999Z</time></trkpt><trkpt lat="39.317093745575306" lon="9.231916711029031"><ele>208.0</ele><time>2026-03-29T08:11:48.999Z</time></trkpt><trkpt lat="39.317170787851516" lon="9.23204487174517"><ele>208.0</ele><time>2026-03-29T08:11:49.999Z</time></trkpt><trkpt lat="39.31720982719605" lon="9.232162247104158"><ele>208.2</ele><time>2026-03-29T08:11:50.999Z</time></trkpt><trkpt lat="39.31727212213146" lon="9.232236633255694"><ele>208.4</ele><time>2026-03-29T08:11:51.999Z</time></trkpt><trkpt lat="39.31731393546227" lon="9.232311323992622"><ele>208.6</ele><time>2026-03-29T08:11:53.999Z</time></trkpt><trkpt lat="39.317360585900516" lon="9.232374753581016"><ele>208.79999999999998</ele><time>2026-03-29T08:12:00.999Z</time></trkpt><trkpt lat="39.317399205389904" lon="9.232483683274431"><ele>209.0</ele><time>2026-03-29T08:12:03.999Z</time></trkpt><trkpt lat="39.317296691145785" lon="9.232708996281042"><ele>209.0</ele><time>2026-03-29T08:12:08.999Z</time></trkpt><trkpt lat="39.317266207488856" lon="9.23279441451173"><ele>209.0</ele><time>2026-03-29T08:12:14.998Z</time></trkpt><trkpt lat="39.31720322026052" lon="9.23286061430009"><ele>209.0</ele><time>2026-03-29T08:12:16.998Z</time></trkpt><trkpt lat="39.31711816335549" lon="9.232925479459745"><ele>209.0</ele><time>2026-03-29T08:12:18.998Z</time></trkpt><trkpt lat="39.31702659162258" lon="9.23298579510192"><ele>209.0</ele><time>2026-03-29T08:12:20.998Z</time></trkpt><trkpt lat="39.31690211657647" lon="9.233040405221669"><ele>208.33333333333334</ele><time>2026-03-29T08:12:22.998Z</time></trkpt><trkpt lat="39.31683636193579" lon="9.23305809534417"><ele>207.66666666666669</ele><time>2026-03-29T08:12:23.998Z</time></trkpt><trkpt lat="39.316754408663364" lon="9.233092719354007"><ele>207.0</ele><time>2026-03-29T08:12:24.998Z</time></trkpt><trkpt lat="39.316648866513354" lon="9.233114677390276"><ele>206.33333333333331</ele><time>2026-03-29T08:12:25.998Z</time></trkpt><trkpt lat="39.31657122369754" lon="9.233152183904796"><ele>205.66666666666666</ele><time>2026-03-29T08:12:26.998Z</time></trkpt><trkpt lat="39.31649552287653" lon="9.233209177166005"><ele>205.0</ele><time>2026-03-29T08:12:27.998Z</time></trkpt><trkpt lat="39.31641769824762" lon="9.233243962346748"><ele>203.83333333333331</ele><time>2026-03-29T08:12:28.998Z</time></trkpt><trkpt lat="39.31635297876026" lon="9.233274919232427"><ele>202.66666666666666</ele><time>2026-03-29T08:12:29.998Z</time></trkpt><trkpt lat="39.31628704247292" lon="9.23328949550326"><ele>201.5</ele><time>2026-03-29T08:12:30.998Z</time></trkpt><trkpt lat="39.31619341892918" lon="9.233277796083401"><ele>200.33333333333331</ele><time>2026-03-29T08:12:31.998Z</time></trkpt><trkpt lat="39.31609335518132" lon="9.233268989938844"><ele>199.16666666666666</ele><time>2026-03-29T08:12:32.998Z</time></trkpt><trkpt lat="39.31599369923975" lon="9.233286146068519"><ele>198.0</ele><time>2026-03-29T08:12:33.998Z</time></trkpt><trkpt lat="39.31591074983017" lon="9.233294187001542"><ele>198.0</ele><time>2026-03-29T08:12:34.998Z</time></trkpt><trkpt lat="39.31583974133903" lon="9.233301920321303"><ele>198.0</ele><time>2026-03-29T08:12:35.998Z</time></trkpt><trkpt lat="39.31576853164134" lon="9.233332084250499"><ele>198.0</ele><time>2026-03-29T08:12:36.998Z</time></trkpt><trkpt lat="39.31571606204122" lon="9.23338862492015"><ele>198.0</ele><time>2026-03-29T08:12:37.998Z</time></trkpt><trkpt lat="39.315717973784984" lon="9.233544522069439"><ele>198.0</ele><time>2026-03-29T08:12:40.998Z</time></trkpt><trkpt lat="39.31574702715596" lon="9.233629124334437"><ele>198.0</ele><time>2026-03-29T08:12:41.998Z</time></trkpt><trkpt lat="39.31577798916672" lon="9.23375086992816"><ele>198.0</ele><time>2026-03-29T08:12:42.998Z</time></trkpt><trkpt lat="39.31580765975243" lon="9.233902384112593"><ele>198.0</ele><time>2026-03-29T08:12:43.998Z</time></trkpt><trkpt lat="39.315857505594344" lon="9.234052571151818"><ele>198.0</ele><time>2026-03-29T08:12:44.998Z</time></trkpt><trkpt lat="39.315931844305496" lon="9.23416947932891"><ele>198.0</ele><time>2026-03-29T08:12:45.998Z</time></trkpt><trkpt lat="39.31603586507653" lon="9.23425555619871"><ele>197.0</ele><time>2026-03-29T08:12:46.998Z</time></trkpt><trkpt lat="39.31614094153703" lon="9.234339250313456"><ele>196.0</ele><time>2026-03-29T08:12:47.998Z</time></trkpt><trkpt lat="39.316233458929986" lon="9.234465032910757"><ele>195.0</ele><time>2026-03-29T08:12:48.998Z</time></trkpt><trkpt lat="39.31628940595971" lon="9.234640121174483"><ele>194.0</ele><time>2026-03-29T08:12:49.998Z</time></trkpt><trkpt lat="39.316352764664984" lon="9.234782455870572"><ele>194.0</ele><time>2026-03-29T08:12:50.998Z</time></trkpt><trkpt lat="39.31636876025443" lon="9.234908651031763"><ele>194.0</ele><time>2026-03-29T08:12:51.998Z</time></trkpt><trkpt lat="39.31636843707106" lon="9.235055590113225"><ele>194.0</ele><time>2026-03-29T08:12:52.998Z</time></trkpt><trkpt lat="39.31635887715938" lon="9.235227325902894"><ele>194.0</ele><time>2026-03-29T08:12:53.997Z</time></trkpt><trkpt lat="39.316380547539026" lon="9.23536934712583"><ele>194.0</ele><time>2026-03-29T08:12:54.997Z</time></trkpt><trkpt lat="39.316413914484066" lon="9.23547718175001"><ele>194.0</ele><time>2026-03-29T08:12:55.997Z</time></trkpt><trkpt lat="39.316480243984735" lon="9.235573421115726"><ele>194.0</ele><time>2026-03-29T08:12:56.997Z</time></trkpt><trkpt lat="39.31656391745551" lon="9.235682814703503"><ele>194.0</ele><time>2026-03-29T08:12:57.997Z</time></trkpt><trkpt lat="39.316624472597084" lon="9.235789104022178"><ele>194.0</ele><time>2026-03-29T08:12:58.997Z</time></trkpt><trkpt lat="39.31670289169827" lon="9.23586660288961"><ele>194.0</ele><time>2026-03-29T08:12:59.997Z</time></trkpt><trkpt lat="39.31673980199605" lon="9.235961253456125"><ele>194.0</ele><time>2026-03-29T08:13:00.997Z</time></trkpt><trkpt lat="39.3167869148979" lon="9.236039451460066"><ele>194.0</ele><time>2026-03-29T08:13:02.997Z</time></trkpt><trkpt lat="39.317130349236486" lon="9.23596900462289"><ele>194.00000000000003</ele><time>2026-03-29T08:13:14Z</time></trkpt><trkpt lat="39.317191871374085" lon="9.235913690042343"><ele>194.0</ele><time>2026-03-29T08:13:16Z</time></trkpt><trkpt lat="39.317252242349326" lon="9.235873874379422"><ele>194.0</ele><time>2026-03-29T08:13:18Z</time></trkpt><trkpt lat="39.31736308384694" lon="9.235887111816643"><ele>194.0</ele><time>2026-03-29T08:13:55.999Z</time></trkpt><trkpt lat="39.317420472892245" lon="9.23595244433147"><ele>194.00000000000003</ele><time>2026-03-29T08:13:57.999Z</time></trkpt><trkpt lat="39.31747209662425" lon="9.236085835618498"><ele>194.0</ele><time>2026-03-29T08:13:59.999Z</time></trkpt><trkpt lat="39.317537145387924" lon="9.23616937396679"><ele>194.50000000000003</ele><time>2026-03-29T08:14:00.999Z</time></trkpt><trkpt lat="39.31761299513489" lon="9.236251315226436"><ele>195.0</ele><time>2026-03-29T08:14:01.999Z</time></trkpt><trkpt lat="39.31768651622264" lon="9.236298498548921"><ele>195.5</ele><time>2026-03-29T08:14:02.999Z</time></trkpt><trkpt lat="39.31776612397914" lon="9.236353675217813"><ele>196.0</ele><time>2026-03-29T08:14:03.999Z</time></trkpt><trkpt lat="39.31783176269569" lon="9.236409542927966"><ele>196.50000000000003</ele><time>2026-03-29T08:14:04.999Z</time></trkpt><trkpt lat="39.31790472976701" lon="9.236485843372094"><ele>197.0</ele><time>2026-03-29T08:14:05.999Z</time></trkpt><trkpt lat="39.31799807641331" lon="9.236548013517172"><ele>200.25</ele><time>2026-03-29T08:14:06.999Z</time></trkpt><trkpt lat="39.318109825458684" lon="9.236579378175929"><ele>203.5</ele><time>2026-03-29T08:14:07.999Z</time></trkpt><trkpt lat="39.31822590209471" lon="9.23663983475523"><ele>206.75</ele><time>2026-03-29T08:14:08.999Z</time></trkpt><trkpt lat="39.318346464950366" lon="9.236687666876335"><ele>210.0</ele><time>2026-03-29T08:14:09.999Z</time></trkpt><trkpt lat="39.318478687857215" lon="9.236722510389486"><ele>210.0</ele><time>2026-03-29T08:14:10.999Z</time></trkpt><trkpt lat="39.31860607726537" lon="9.236738338432207"><ele>210.0</ele><time>2026-03-29T08:14:11.999Z</time></trkpt><trkpt lat="39.3187316931823" lon="9.236761558669572"><ele>210.0</ele><time>2026-03-29T08:14:12.999Z</time></trkpt><trkpt lat="39.31885969831152" lon="9.236782685190779"><ele>210.0</ele><time>2026-03-29T08:14:13.999Z</time></trkpt><trkpt lat="39.318971662254896" lon="9.236802573323017"><ele>211.0</ele><time>2026-03-29T08:14:14.999Z</time></trkpt><trkpt lat="39.319086878275556" lon="9.236821218200076"><ele>212.0</ele><time>2026-03-29T08:14:15.999Z</time></trkpt><trkpt lat="39.31920776113276" lon="9.236839934887234"><ele>213.0</ele><time>2026-03-29T08:14:16.999Z</time></trkpt><trkpt lat="39.319330701957526" lon="9.236882964178783"><ele>214.0</ele><time>2026-03-29T08:14:17.999Z</time></trkpt><trkpt lat="39.31944920117286" lon="9.236916450236297"><ele>214.0</ele><time>2026-03-29T08:14:18.999Z</time></trkpt><trkpt lat="39.31956953013847" lon="9.236929797206816"><ele>214.0</ele><time>2026-03-29T08:14:19.999Z</time></trkpt><trkpt lat="39.31968528266173" lon="9.23698448047686"><ele>214.0</ele><time>2026-03-29T08:14:20.999Z</time></trkpt><trkpt lat="39.3198041838721" lon="9.237020095245088"><ele>214.0</ele><time>2026-03-29T08:14:21.998Z</time></trkpt><trkpt lat="39.319927951558725" lon="9.237064073892842"><ele>215.79999999999998</ele><time>2026-03-29T08:14:22.998Z</time></trkpt><trkpt lat="39.32003939423029" lon="9.237112657080772"><ele>217.59999999999997</ele><time>2026-03-29T08:14:23.998Z</time></trkpt><trkpt lat="39.32013987377118" lon="9.237166794126464"><ele>219.4</ele><time>2026-03-29T08:14:24.998Z</time></trkpt><trkpt lat="39.32022323031655" lon="9.237228816537296"><ele>221.2</ele><time>2026-03-29T08:14:25.998Z</time></trkpt><trkpt lat="39.320304568723756" lon="9.237296155305517"><ele>223.0</ele><time>2026-03-29T08:14:26.998Z</time></trkpt><trkpt lat="39.32038180003696" lon="9.237371704801095"><ele>223.2</ele><time>2026-03-29T08:14:27.998Z</time></trkpt><trkpt lat="39.32047786430352" lon="9.23744034850948"><ele>223.4</ele><time>2026-03-29T08:14:28.998Z</time></trkpt><trkpt lat="39.320526987866685" lon="9.237564810358299"><ele>223.59999999999997</ele><time>2026-03-29T08:14:29.998Z</time></trkpt><trkpt lat="39.3205913139153" lon="9.237662392851345"><ele>223.79999999999998</ele><time>2026-03-29T08:14:30.998Z</time></trkpt><trkpt lat="39.32065356101212" lon="9.237688645185283"><ele>224.0</ele><time>2026-03-29T08:14:31.998Z</time></trkpt><trkpt lat="39.3207381759885" lon="9.237700012541312"><ele>224.79999999999998</ele><time>2026-03-29T08:14:33.998Z</time></trkpt><trkpt lat="39.32086696177664" lon="9.237699878347179"><ele>225.59999999999997</ele><time>2026-03-29T08:14:35.998Z</time></trkpt><trkpt lat="39.320953727282436" lon="9.237716847751287"><ele>226.4</ele><time>2026-03-29T08:14:36.998Z</time></trkpt><trkpt lat="39.32104522472567" lon="9.237747183609855"><ele>227.2</ele><time>2026-03-29T08:14:37.998Z</time></trkpt><trkpt lat="39.32112792711778" lon="9.23779794926091"><ele>228.0</ele><time>2026-03-29T08:14:38.998Z</time></trkpt><trkpt lat="39.32119966819028" lon="9.237862767787384"><ele>228.0</ele><time>2026-03-29T08:14:39.998Z</time></trkpt><trkpt lat="39.32127739469109" lon="9.237951710170412"><ele>228.0</ele><time>2026-03-29T08:14:40.998Z</time></trkpt><trkpt lat="39.32136844816428" lon="9.238042215134792"><ele>228.0</ele><time>2026-03-29T08:14:41.998Z</time></trkpt><trkpt lat="39.32146629139315" lon="9.23814057076372"><ele>228.0</ele><time>2026-03-29T08:14:42.998Z</time></trkpt><trkpt lat="39.321543314684575" lon="9.238228202333273"><ele>228.0</ele><time>2026-03-29T08:14:43.998Z</time></trkpt><trkpt lat="39.32160570980622" lon="9.238316406740005"><ele>228.66666666666666</ele><time>2026-03-29T08:14:44.998Z</time></trkpt><trkpt lat="39.32165627701322" lon="9.238405506459559"><ele>229.33333333333331</ele><time>2026-03-29T08:14:45.998Z</time></trkpt><trkpt lat="39.32169438317389" lon="9.238508341231338"><ele>230.0</ele><time>2026-03-29T08:14:46.998Z</time></trkpt><trkpt lat="39.32173572234619" lon="9.238617632496629"><ele>230.66666666666666</ele><time>2026-03-29T08:14:47.998Z</time></trkpt><trkpt lat="39.321797657883266" lon="9.238700524164285"><ele>231.33333333333331</ele><time>2026-03-29T08:14:48.998Z</time></trkpt><trkpt lat="39.32184843867791" lon="9.238792561340128"><ele>232.0</ele><time>2026-03-29T08:14:49.998Z</time></trkpt><trkpt lat="39.321888814570826" lon="9.23889471075931"><ele>232.8</ele><time>2026-03-29T08:14:50.998Z</time></trkpt><trkpt lat="39.32192637582844" lon="9.238972361529685"><ele>233.6</ele><time>2026-03-29T08:14:51.998Z</time></trkpt><trkpt lat="39.32196696350573" lon="9.239056268846921"><ele>234.40000000000003</ele><time>2026-03-29T08:14:53.998Z</time></trkpt><trkpt lat="39.3220118573815" lon="9.239122231826277"><ele>235.20000000000002</ele><time>2026-03-29T08:14:56.998Z</time></trkpt><trkpt lat="39.322002329150386" lon="9.239236095068721"><ele>236.0</ele><time>2026-03-29T08:14:58.998Z</time></trkpt><trkpt lat="39.32224351322195" lon="9.239182776343377"><ele>236.0</ele><time>2026-03-29T08:14:59.998Z</time></trkpt><trkpt lat="39.32231110238165" lon="9.239245341804088"><ele>236.0</ele><time>2026-03-29T08:15:00.998Z</time></trkpt><trkpt lat="39.32237358871374" lon="9.239301503122146"><ele>236.0</ele><time>2026-03-29T08:15:01.998Z</time></trkpt><trkpt lat="39.322427937528694" lon="9.239366728245702"><ele>236.0</ele><time>2026-03-29T08:15:02.997Z</time></trkpt><trkpt lat="39.32248216471541" lon="9.239424131852397"><ele>236.0</ele><time>2026-03-29T08:15:03.997Z</time></trkpt><trkpt lat="39.32253591736837" lon="9.239478328546522"><ele>236.0</ele><time>2026-03-29T08:15:04.997Z</time></trkpt><trkpt lat="39.32259289412034" lon="9.239534888555527"><ele>236.0</ele><time>2026-03-29T08:15:05.997Z</time></trkpt><trkpt lat="39.3226409264281" lon="9.23958827071797"><ele>236.0</ele><time>2026-03-29T08:15:06.997Z</time></trkpt><trkpt lat="39.32271067804761" lon="9.239681334856593"><ele>236.00000000000003</ele><time>2026-03-29T08:15:08.997Z</time></trkpt><trkpt lat="39.32282704479362" lon="9.23969154588303"><ele>236.00000000000003</ele><time>2026-03-29T08:15:10.997Z</time></trkpt><trkpt lat="39.3229221397989" lon="9.239726701784438"><ele>236.0</ele><time>2026-03-29T08:15:12.997Z</time></trkpt><trkpt lat="39.322960078052" lon="9.239827501284479"><ele>236.0</ele><time>2026-03-29T08:15:16Z</time></trkpt><trkpt lat="39.32297824056931" lon="9.239951722956231"><ele>234.66666666666669</ele><time>2026-03-29T08:15:18Z</time></trkpt><trkpt lat="39.32304491461663" lon="9.240069286324788"><ele>233.33333333333334</ele><time>2026-03-29T08:15:20Z</time></trkpt><trkpt lat="39.3231136659531" lon="9.24016133424726"><ele>232.0</ele><time>2026-03-29T08:15:22Z</time></trkpt><trkpt lat="39.32317518212454" lon="9.240102065065882"><ele>230.66666666666669</ele><time>2026-03-29T08:15:25Z</time></trkpt><trkpt lat="39.32322508380504" lon="9.240037316636133"><ele>229.33333333333334</ele><time>2026-03-29T08:15:26Z</time></trkpt><trkpt lat="39.323277748907145" lon="9.239954735647174"><ele>228.0</ele><time>2026-03-29T08:15:27Z</time></trkpt><trkpt lat="39.32333499687475" lon="9.239856781519133"><ele>228.0</ele><time>2026-03-29T08:15:28Z</time></trkpt><trkpt lat="39.3233866788913" lon="9.239801546336063"><ele>228.0</ele><time>2026-03-29T08:15:29Z</time></trkpt><trkpt lat="39.32348310246609" lon="9.239775643465515"><ele>228.0</ele><time>2026-03-29T08:15:31Z</time></trkpt><trkpt lat="39.32355364683786" lon="9.239689274008828"><ele>228.0</ele><time>2026-03-29T08:15:33Z</time></trkpt><trkpt lat="39.32361696265422" lon="9.239586489544397"><ele>228.0</ele><time>2026-03-29T08:15:35Z</time></trkpt><trkpt lat="39.32366528378962" lon="9.239450634388643"><ele>229.8</ele><time>2026-03-29T08:15:37Z</time></trkpt><trkpt lat="39.32375453322693" lon="9.23938407594676"><ele>231.60000000000002</ele><time>2026-03-29T08:15:39Z</time></trkpt><trkpt lat="39.32383924676638" lon="9.239322919665735"><ele>233.39999999999998</ele><time>2026-03-29T08:15:41Z</time></trkpt><trkpt lat="39.32390857284477" lon="9.23922740114268"><ele>235.2</ele><time>2026-03-29T08:15:44Z</time></trkpt><trkpt lat="39.32400526925787" lon="9.239172422919149"><ele>237.0</ele><time>2026-03-29T08:15:46Z</time></trkpt><trkpt lat="39.324065543748596" lon="9.239144146564161"><ele>237.66666666666666</ele><time>2026-03-29T08:15:47Z</time></trkpt><trkpt lat="39.32413108955289" lon="9.239104250601013"><ele>238.33333333333331</ele><time>2026-03-29T08:15:48Z</time></trkpt><trkpt lat="39.32419933560479" lon="9.239027017035566"><ele>239.0</ele><time>2026-03-29T08:15:49.999Z</time></trkpt><trkpt lat="39.324185138072714" lon="9.238929733544497"><ele>239.66666666666666</ele><time>2026-03-29T08:15:51.999Z</time></trkpt><trkpt lat="39.32419594561208" lon="9.238841521781588"><ele>240.33333333333331</ele><time>2026-03-29T08:15:54.999Z</time></trkpt><trkpt lat="39.32427229399457" lon="9.238858987029293"><ele>241.0</ele><time>2026-03-29T08:15:58.999Z</time></trkpt><trkpt lat="39.32437685921261" lon="9.238923360228773"><ele>240.99999999999997</ele><time>2026-03-29T08:16:01.999Z</time></trkpt><trkpt lat="39.324445725686964" lon="9.238984259300814"><ele>241.0</ele><time>2026-03-29T08:16:04.999Z</time></trkpt><trkpt lat="39.32452069781347" lon="9.239016318606158"><ele>241.0</ele><time>2026-03-29T08:16:06.999Z</time></trkpt><trkpt lat="39.32458333467527" lon="9.239041443295598"><ele>241.0</ele><time>2026-03-29T08:16:09.999Z</time></trkpt><trkpt lat="39.324642058931076" lon="9.239074644859443"><ele>240.99999999999997</ele><time>2026-03-29T08:16:12.999Z</time></trkpt><trkpt lat="39.324713934841654" lon="9.239115602640382"><ele>241.0</ele><time>2026-03-29T08:16:43.998Z</time></trkpt><trkpt lat="39.32479705384921" lon="9.239132479165233"><ele>244.49999999999997</ele><time>2026-03-29T08:16:46.998Z</time></trkpt><trkpt lat="39.32486590274288" lon="9.23916573527646"><ele>248.0</ele><time>2026-03-29T08:16:49.998Z</time></trkpt><trkpt lat="39.32489233089524" lon="9.239253813675356"><ele>251.5</ele><time>2026-03-29T08:16:52.998Z</time></trkpt><trkpt lat="39.32490511499706" lon="9.239358288509422"><ele>255.0</ele><time>2026-03-29T08:16:56.998Z</time></trkpt><trkpt lat="39.3249231150755" lon="9.239462351650783"><ele>258.5</ele><time>2026-03-29T08:16:59.998Z</time></trkpt><trkpt lat="39.32492896161407" lon="9.239578826826454"><ele>262.0</ele><time>2026-03-29T08:17:02.998Z</time></trkpt><trkpt lat="39.324899000611616" lon="9.23966916458756"><ele>262.0</ele><time>2026-03-29T08:17:04.997Z</time></trkpt><trkpt lat="39.3248494716471" lon="9.239735311366372"><ele>262.0</ele><time>2026-03-29T08:17:06.997Z</time></trkpt><trkpt lat="39.324884831056174" lon="9.239845219391805"><ele>262.0</ele><time>2026-03-29T08:17:08.997Z</time></trkpt><trkpt lat="39.32489177786467" lon="9.239936735696201"><ele>262.0</ele><time>2026-03-29T08:17:10.997Z</time></trkpt><trkpt lat="39.32485500367107" lon="9.240103241149669"><ele>262.0</ele><time>2026-03-29T08:17:13.997Z</time></trkpt><trkpt lat="39.3248351071734" lon="9.240191538186794"><ele>262.0</ele><time>2026-03-29T08:17:15.997Z</time></trkpt><trkpt lat="39.324794155510126" lon="9.240277942777347"><ele>261.3333333333333</ele><time>2026-03-29T08:17:18.997Z</time></trkpt><trkpt lat="39.32474986620998" lon="9.240352680092643"><ele>260.66666666666663</ele><time>2026-03-29T08:17:22Z</time></trkpt><trkpt lat="39.324663653193824" lon="9.240373208513933"><ele>260.0</ele><time>2026-03-29T08:17:24Z</time></trkpt><trkpt lat="39.324602351387014" lon="9.240404140032833"><ele>259.3333333333333</ele><time>2026-03-29T08:17:25Z</time></trkpt><trkpt lat="39.32454089132676" lon="9.240457643619926"><ele>258.6666666666667</ele><time>2026-03-29T08:17:26Z</time></trkpt><trkpt lat="39.324477987690315" lon="9.240502183859729"><ele>258.0</ele><time>2026-03-29T08:17:28Z</time></trkpt><trkpt lat="39.3243776025722" lon="9.240522539943836"><ele>255.16666666666666</ele><time>2026-03-29T08:17:30Z</time></trkpt><trkpt lat="39.324339712743395" lon="9.240638899568827"><ele>252.33333333333331</ele><time>2026-03-29T08:17:32Z</time></trkpt><trkpt lat="39.324321517941" lon="9.240723318142262"><ele>249.5</ele><time>2026-03-29T08:17:34Z</time></trkpt><trkpt lat="39.324266197708695" lon="9.24083335452995"><ele>246.66666666666666</ele><time>2026-03-29T08:17:36Z</time></trkpt><trkpt lat="39.32419804174817" lon="9.240824044698407"><ele>243.83333333333331</ele><time>2026-03-29T08:17:40Z</time></trkpt><trkpt lat="39.32413470540867" lon="9.240801926981215"><ele>241.0</ele><time>2026-03-29T08:17:43Z</time></trkpt><trkpt lat="39.32406735004387" lon="9.24080221758338"><ele>241.0</ele><time>2026-03-29T08:17:46Z</time></trkpt><trkpt lat="39.323902410610806" lon="9.24089979175984"><ele>241.0</ele><time>2026-03-29T08:17:48Z</time></trkpt><trkpt lat="39.323785882227156" lon="9.24097003848997"><ele>241.0</ele><time>2026-03-29T08:17:49Z</time></trkpt><trkpt lat="39.32366900684796" lon="9.241034373585865"><ele>241.0</ele><time>2026-03-29T08:17:50Z</time></trkpt><trkpt lat="39.32356432187126" lon="9.24110124729388"><ele>238.60000000000002</ele><time>2026-03-29T08:17:51Z</time></trkpt><trkpt lat="39.32348621251813" lon="9.241156972998372"><ele>236.20000000000002</ele><time>2026-03-29T08:17:52Z</time></trkpt><trkpt lat="39.3234108443837" lon="9.241202417505335"><ele>233.79999999999998</ele><time>2026-03-29T08:17:52.999Z</time></trkpt><trkpt lat="39.32331855437062" lon="9.241238840928897"><ele>231.39999999999998</ele><time>2026-03-29T08:17:53.999Z</time></trkpt><trkpt lat="39.32323104925349" lon="9.241287376672263"><ele>229.0</ele><time>2026-03-29T08:17:54.999Z</time></trkpt><trkpt lat="39.32315445854828" lon="9.24135456674098"><ele>228.99999999999997</ele><time>2026-03-29T08:17:55.999Z</time></trkpt><trkpt lat="39.323090660332205" lon="9.24142142949722"><ele>229.0</ele><time>2026-03-29T08:17:56.999Z</time></trkpt><trkpt lat="39.323019269623295" lon="9.241536947368008"><ele>229.0</ele><time>2026-03-29T08:17:58.999Z</time></trkpt><trkpt lat="39.323006270246616" lon="9.241669399058706"><ele>229.0</ele><time>2026-03-29T08:18:01.999Z</time></trkpt><trkpt lat="39.3230083450651" lon="9.24176418360024"><ele>228.99999999999997</ele><time>2026-03-29T08:18:04.999Z</time></trkpt><trkpt lat="39.32305234058843" lon="9.241833275252636"><ele>229.0</ele><time>2026-03-29T08:18:15.999Z</time></trkpt><trkpt lat="39.3231095347909" lon="9.241892951093952"><ele>229.16666666666666</ele><time>2026-03-29T08:18:17.999Z</time></trkpt><trkpt lat="39.323168055519034" lon="9.241944736163248"><ele>229.33333333333331</ele><time>2026-03-29T08:18:19.999Z</time></trkpt><trkpt lat="39.32318045014375" lon="9.242030598101449"><ele>229.5</ele><time>2026-03-29T08:18:22.999Z</time></trkpt><trkpt lat="39.32328606429203" lon="9.242063057353041"><ele>229.66666666666669</ele><time>2026-03-29T08:26:54.998Z</time></trkpt><trkpt lat="39.32333532090511" lon="9.242139663434724"><ele>229.83333333333334</ele><time>2026-03-29T08:26:56.998Z</time></trkpt><trkpt lat="39.32330331151003" lon="9.242286565409035"><ele>230.0</ele><time>2026-03-29T08:26:58.998Z</time></trkpt><trkpt lat="39.32328884974948" lon="9.242386054415054"><ele>230.33333333333334</ele><time>2026-03-29T08:27:00.998Z</time></trkpt><trkpt lat="39.3233164789837" lon="9.242489280834294"><ele>230.66666666666669</ele><time>2026-03-29T08:27:02.998Z</time></trkpt><trkpt lat="39.32331210264304" lon="9.242597717576194"><ele>231.0</ele><time>2026-03-29T08:27:04.998Z</time></trkpt><trkpt lat="39.32333539408882" lon="9.242711781787484"><ele>231.33333333333331</ele><time>2026-03-29T08:27:07.998Z</time></trkpt><trkpt lat="39.3233902744013" lon="9.242792630656513"><ele>231.66666666666666</ele><time>2026-03-29T08:27:10.998Z</time></trkpt><trkpt lat="39.32335962831538" lon="9.24291651382125"><ele>232.0</ele><time>2026-03-29T08:27:13.998Z</time></trkpt><trkpt lat="39.32330774922138" lon="9.242963559656602"><ele>231.99999999999997</ele><time>2026-03-29T08:27:14.998Z</time></trkpt><trkpt lat="39.32324681864671" lon="9.24300890380376"><ele>232.0</ele><time>2026-03-29T08:27:15.998Z</time></trkpt><trkpt lat="39.32318795511023" lon="9.243043958487107"><ele>232.0</ele><time>2026-03-29T08:27:16.998Z</time></trkpt><trkpt lat="39.32311332328036" lon="9.243122898162474"><ele>232.0</ele><time>2026-03-29T08:27:18.998Z</time></trkpt><trkpt lat="39.323074553519" lon="9.243187864007544"><ele>231.99999999999997</ele><time>2026-03-29T08:27:19.998Z</time></trkpt><trkpt lat="39.3229930530533" lon="9.243299450030698"><ele>232.0</ele><time>2026-03-29T08:27:21.998Z</time></trkpt><trkpt lat="39.32293660306393" lon="9.243344789125306"><ele>230.16666666666666</ele><time>2026-03-29T08:27:22.998Z</time></trkpt><trkpt lat="39.32286808178795" lon="9.24341070521422"><ele>228.33333333333331</ele><time>2026-03-29T08:27:23.998Z</time></trkpt><trkpt lat="39.32278287809227" lon="9.24344671298783"><ele>226.5</ele><time>2026-03-29T08:27:24.998Z</time></trkpt><trkpt lat="39.32270218436756" lon="9.243481214181196"><ele>224.66666666666669</ele><time>2026-03-29T08:27:25.998Z</time></trkpt><trkpt lat="39.3226265129327" lon="9.243518358183746"><ele>222.83333333333334</ele><time>2026-03-29T08:27:26.998Z</time></trkpt><trkpt lat="39.32256221848664" lon="9.243558410706822"><ele>221.0</ele><time>2026-03-29T08:27:27.998Z</time></trkpt><trkpt lat="39.3225087883179" lon="9.243603865091234"><ele>221.00000000000003</ele><time>2026-03-29T08:27:28.998Z</time></trkpt><trkpt lat="39.322453696390795" lon="9.24364371639059"><ele>221.0</ele><time>2026-03-29T08:27:29.998Z</time></trkpt><trkpt lat="39.3224429154679" lon="9.243526635177226"><ele>221.0</ele><time>2026-03-29T08:27:33.998Z</time></trkpt><trkpt lat="39.32247868089484" lon="9.243414113072399"><ele>221.0</ele><time>2026-03-29T08:27:35.997Z</time></trkpt><trkpt lat="39.32246482742455" lon="9.243258579939019"><ele>221.00000000000003</ele><time>2026-03-29T08:27:37.997Z</time></trkpt><trkpt lat="39.322442044182324" lon="9.243162593381102"><ele>221.0</ele><time>2026-03-29T08:27:38.997Z</time></trkpt><trkpt lat="39.322426353492254" lon="9.24307448845248"><ele>220.8</ele><time>2026-03-29T08:27:39.997Z</time></trkpt><trkpt lat="39.32236476251843" lon="9.243003528914155"><ele>220.60000000000002</ele><time>2026-03-29T08:27:41.997Z</time></trkpt><trkpt lat="39.322250778282346" lon="9.242953220672772"><ele>220.4</ele><time>2026-03-29T08:27:43.997Z</time></trkpt><trkpt lat="39.32217910278375" lon="9.242897210211963"><ele>220.2</ele><time>2026-03-29T08:27:44.997Z</time></trkpt><trkpt lat="39.32209682768287" lon="9.242837603152289"><ele>220.0</ele><time>2026-03-29T08:27:45.997Z</time></trkpt><trkpt lat="39.32201886917356" lon="9.242776274611092"><ele>218.83333333333331</ele><time>2026-03-29T08:27:46.997Z</time></trkpt><trkpt lat="39.321955157659" lon="9.24272580447514"><ele>217.66666666666666</ele><time>2026-03-29T08:27:47.997Z</time></trkpt><trkpt lat="39.32189705795088" lon="9.242661553091327"><ele>216.5</ele><time>2026-03-29T08:27:49Z</time></trkpt><trkpt lat="39.32184545105398" lon="9.24259662736222"><ele>215.33333333333331</ele><time>2026-03-29T08:27:50Z</time></trkpt><trkpt lat="39.32178129801688" lon="9.242506930720479"><ele>214.16666666666666</ele><time>2026-03-29T08:27:52Z</time></trkpt><trkpt lat="39.32171084173173" lon="9.242412943207901"><ele>213.0</ele><time>2026-03-29T08:27:54Z</time></trkpt><trkpt lat="39.32160630875485" lon="9.242383502669862"><ele>213.0</ele><time>2026-03-29T08:27:56Z</time></trkpt><trkpt lat="39.32154038961909" lon="9.242396957195217"><ele>213.0</ele><time>2026-03-29T08:27:57Z</time></trkpt><trkpt lat="39.32142100975207" lon="9.24241828356762"><ele>213.0</ele><time>2026-03-29T08:27:59Z</time></trkpt><trkpt lat="39.321314513365635" lon="9.242389391546595"><ele>213.0</ele><time>2026-03-29T08:28:01Z</time></trkpt><trkpt lat="39.32123619838656" lon="9.242364711306559"><ele>213.0</ele><time>2026-03-29T08:28:03Z</time></trkpt><trkpt lat="39.321176700328195" lon="9.242468571522236"><ele>211.83333333333334</ele><time>2026-03-29T08:29:24.998Z</time></trkpt><trkpt lat="39.32114004207241" lon="9.242539144634563"><ele>210.66666666666669</ele><time>2026-03-29T08:29:25.998Z</time></trkpt><trkpt lat="39.32108838740756" lon="9.24262698330823"><ele>209.5</ele><time>2026-03-29T08:29:26.998Z</time></trkpt><trkpt lat="39.32103112525441" lon="9.242734803593507"><ele>208.33333333333334</ele><time>2026-03-29T08:29:27.998Z</time></trkpt><trkpt lat="39.320960459728525" lon="9.24280606264546"><ele>207.16666666666669</ele><time>2026-03-29T08:29:28.998Z</time></trkpt><trkpt lat="39.32088001919893" lon="9.242853783531583"><ele>206.0</ele><time>2026-03-29T08:29:29.998Z</time></trkpt><trkpt lat="39.32079206237668" lon="9.242869822753045"><ele>206.0</ele><time>2026-03-29T08:29:30.998Z</time></trkpt><trkpt lat="39.320701938923435" lon="9.242863069890594"><ele>206.0</ele><time>2026-03-29T08:29:31.998Z</time></trkpt><trkpt lat="39.320617388236386" lon="9.242822964557142"><ele>206.0</ele><time>2026-03-29T08:29:32.998Z</time></trkpt><trkpt lat="39.32051377156937" lon="9.242757403362805"><ele>206.0</ele><time>2026-03-29T08:29:33.998Z</time></trkpt><trkpt lat="39.32039464826891" lon="9.242680415646559"><ele>206.0</ele><time>2026-03-29T08:29:34.998Z</time></trkpt><trkpt lat="39.32026994139889" lon="9.24259830980406"><ele>205.4</ele><time>2026-03-29T08:29:35.998Z</time></trkpt><trkpt lat="39.32015149955651" lon="9.242532416308382"><ele>204.8</ele><time>2026-03-29T08:29:36.998Z</time></trkpt><trkpt lat="39.32004598788333" lon="9.242484167620193"><ele>204.20000000000002</ele><time>2026-03-29T08:29:37.998Z</time></trkpt><trkpt lat="39.31994503578934" lon="9.242423596502856"><ele>203.60000000000002</ele><time>2026-03-29T08:29:38.998Z</time></trkpt><trkpt lat="39.31986257856322" lon="9.24235678582722"><ele>203.0</ele><time>2026-03-29T08:29:39.997Z</time></trkpt><trkpt lat="39.3197832223643" lon="9.24227995881927"><ele>202.83333333333334</ele><time>2026-03-29T08:29:40.997Z</time></trkpt><trkpt lat="39.31969677814144" lon="9.24221301293579"><ele>202.66666666666669</ele><time>2026-03-29T08:29:41.997Z</time></trkpt><trkpt lat="39.31961487467095" lon="9.24217397280219"><ele>202.5</ele><time>2026-03-29T08:29:42.997Z</time></trkpt><trkpt lat="39.319541035884264" lon="9.242167431347998"><ele>202.33333333333331</ele><time>2026-03-29T08:29:43.997Z</time></trkpt><trkpt lat="39.319469165104245" lon="9.242190321214304"><ele>202.16666666666666</ele><time>2026-03-29T08:29:44.997Z</time></trkpt><trkpt lat="39.319389521927846" lon="9.242192337683273"><ele>202.0</ele><time>2026-03-29T08:29:45.997Z</time></trkpt><trkpt lat="39.31930225135222" lon="9.242190462936879"><ele>202.0</ele><time>2026-03-29T08:29:46.997Z</time></trkpt><trkpt lat="39.319150234666914" lon="9.242134488240449"><ele>202.0</ele><time>2026-03-29T08:29:48.997Z</time></trkpt><trkpt lat="39.31906041202097" lon="9.242023629977096"><ele>202.0</ele><time>2026-03-29T08:29:49.997Z</time></trkpt><trkpt lat="39.31895158736345" lon="9.241962409973494"><ele>202.0</ele><time>2026-03-29T08:29:50.997Z</time></trkpt><trkpt lat="39.318832808630326" lon="9.241887669200558"><ele>200.0</ele><time>2026-03-29T08:29:51.997Z</time></trkpt><trkpt lat="39.318692148856876" lon="9.241799107611982"><ele>198.0</ele><time>2026-03-29T08:29:52.997Z</time></trkpt><trkpt lat="39.318521225779136" lon="9.241691848762775"><ele>196.0</ele><time>2026-03-29T08:29:53.997Z</time></trkpt><trkpt lat="39.31835705564365" lon="9.241592430498274"><ele>196.0</ele><time>2026-03-29T08:29:55Z</time></trkpt><trkpt lat="39.31822438285654" lon="9.241511478109013"><ele>196.0</ele><time>2026-03-29T08:29:56Z</time></trkpt><trkpt lat="39.31811344475585" lon="9.241432750880506"><ele>196.0</ele><time>2026-03-29T08:29:57Z</time></trkpt><trkpt lat="39.31799734683742" lon="9.241339213066288"><ele>196.0</ele><time>2026-03-29T08:29:58Z</time></trkpt><trkpt lat="39.31787111333545" lon="9.241220676611974"><ele>197.0</ele><time>2026-03-29T08:29:59Z</time></trkpt><trkpt lat="39.317747530306285" lon="9.241101650478637"><ele>198.0</ele><time>2026-03-29T08:30:00Z</time></trkpt><trkpt lat="39.31764525888729" lon="9.240990584712431"><ele>199.0</ele><time>2026-03-29T08:30:01Z</time></trkpt><trkpt lat="39.31757062337909" lon="9.240892439582609"><ele>200.0</ele><time>2026-03-29T08:30:02Z</time></trkpt><trkpt lat="39.31752830983121" lon="9.240785431632789"><ele>200.00000000000003</ele><time>2026-03-29T08:30:03Z</time></trkpt><trkpt lat="39.31750355406856" lon="9.240676676490484"><ele>200.0</ele><time>2026-03-29T08:30:04Z</time></trkpt><trkpt lat="39.31747294497831" lon="9.240563690898433"><ele>200.0</ele><time>2026-03-29T08:30:05Z</time></trkpt><trkpt lat="39.317431812903514" lon="9.240458439034107"><ele>200.0</ele><time>2026-03-29T08:30:06Z</time></trkpt><trkpt lat="39.31740869952788" lon="9.240351282087573"><ele>200.00000000000003</ele><time>2026-03-29T08:30:07Z</time></trkpt><trkpt lat="39.317398227667915" lon="9.240256987369918"><ele>200.0</ele><time>2026-03-29T08:30:08Z</time></trkpt><trkpt lat="39.317392021908155" lon="9.240165211647032"><ele>199.4</ele><time>2026-03-29T08:30:09Z</time></trkpt><trkpt lat="39.31738664672396" lon="9.240018774092952"><ele>198.8</ele><time>2026-03-29T08:30:11Z</time></trkpt><trkpt lat="39.31736282821735" lon="9.239929399359458"><ele>198.2</ele><time>2026-03-29T08:30:12Z</time></trkpt><trkpt lat="39.317334763053886" lon="9.239815524398253"><ele>197.6</ele><time>2026-03-29T08:30:13Z</time></trkpt><trkpt lat="39.31730504536231" lon="9.239691790299105"><ele>197.0</ele><time>2026-03-29T08:30:14Z</time></trkpt><trkpt lat="39.317270919359686" lon="9.239559282189443"><ele>197.0</ele><time>2026-03-29T08:30:15Z</time></trkpt><trkpt lat="39.31725230684931" lon="9.239418637940085"><ele>197.0</ele><time>2026-03-29T08:30:16Z</time></trkpt><trkpt lat="39.31721974354956" lon="9.239284490436138"><ele>197.0</ele><time>2026-03-29T08:30:17Z</time></trkpt><trkpt lat="39.31717683944274" lon="9.239157072719959"><ele>197.0</ele><time>2026-03-29T08:30:18Z</time></trkpt><trkpt lat="39.31711457436351" lon="9.239059500356626"><ele>197.0</ele><time>2026-03-29T08:30:19Z</time></trkpt><trkpt lat="39.317066041226624" lon="9.238942646779183"><ele>195.25</ele><time>2026-03-29T08:30:20Z</time></trkpt><trkpt lat="39.317013151430885" lon="9.238822781317857"><ele>193.5</ele><time>2026-03-29T08:30:21Z</time></trkpt><trkpt lat="39.316951599986446" lon="9.23869774647537"><ele>191.75</ele><time>2026-03-29T08:30:22Z</time></trkpt><trkpt lat="39.31689386860791" lon="9.238574789248197"><ele>190.0</ele><time>2026-03-29T08:30:23Z</time></trkpt><trkpt lat="39.31683212092568" lon="9.238443357787588"><ele>190.0</ele><time>2026-03-29T08:30:24Z</time></trkpt><trkpt lat="39.31677749554739" lon="9.238312281639198"><ele>190.0</ele><time>2026-03-29T08:30:25Z</time></trkpt><trkpt lat="39.31674209662287" lon="9.238190189115691"><ele>190.0</ele><time>2026-03-29T08:30:26Z</time></trkpt><trkpt lat="39.3167177979969" lon="9.238073569135919"><ele>190.0</ele><time>2026-03-29T08:30:27Z</time></trkpt><trkpt lat="39.31669961895918" lon="9.23793230140086"><ele>190.0</ele><time>2026-03-29T08:30:27.999Z</time></trkpt><trkpt lat="39.316692866569156" lon="9.23778336425086"><ele>190.4</ele><time>2026-03-29T08:30:28.999Z</time></trkpt><trkpt lat="39.31669489072142" lon="9.23764650499907"><ele>190.8</ele><time>2026-03-29T08:30:29.999Z</time></trkpt><trkpt lat="39.31671713461809" lon="9.237532079023635"><ele>191.2</ele><time>2026-03-29T08:30:30.999Z</time></trkpt><trkpt lat="39.31675701902736" lon="9.237433867886402"><ele>191.6</ele><time>2026-03-29T08:30:31.999Z</time></trkpt><trkpt lat="39.31680821069221" lon="9.237340597038317"><ele>192.0</ele><time>2026-03-29T08:30:32.999Z</time></trkpt><trkpt lat="39.31685830559629" lon="9.237218612801133"><ele>192.2</ele><time>2026-03-29T08:30:33.999Z</time></trkpt><trkpt lat="39.316884283296915" lon="9.237093088191246"><ele>192.39999999999998</ele><time>2026-03-29T08:30:34.999Z</time></trkpt><trkpt lat="39.316863780909905" lon="9.236958064233763"><ele>192.60000000000002</ele><time>2026-03-29T08:30:35.999Z</time></trkpt><trkpt lat="39.31684610674493" lon="9.236822022515318"><ele>192.8</ele><time>2026-03-29T08:30:36.999Z</time></trkpt><trkpt lat="39.31684828820154" lon="9.236696385835566"><ele>193.0</ele><time>2026-03-29T08:30:37.999Z</time></trkpt><trkpt lat="39.31683798814859" lon="9.236592210933344"><ele>192.99999999999997</ele><time>2026-03-29T08:30:38.999Z</time></trkpt><trkpt lat="39.31682858622565" lon="9.23649475511484"><ele>193.0</ele><time>2026-03-29T08:30:39.999Z</time></trkpt><trkpt lat="39.3168199765534" lon="9.236412126419268"><ele>193.0</ele><time>2026-03-29T08:30:40.999Z</time></trkpt><trkpt lat="39.316811162227275" lon="9.23633025026688"><ele>193.0</ele><time>2026-03-29T08:30:42.999Z</time></trkpt><trkpt lat="39.31682140588405" lon="9.236446786492932"><ele>192.99999999999997</ele><time>2026-03-29T08:30:45.999Z</time></trkpt><trkpt lat="39.31671225073471" lon="9.236534709464449"><ele>193.0</ele><time>2026-03-29T08:30:46.999Z</time></trkpt><trkpt lat="39.316675408396115" lon="9.236601992305532"><ele>192.99999999999997</ele><time>2026-03-29T08:30:47.999Z</time></trkpt><trkpt lat="39.31663073441149" lon="9.236661374226541"><ele>193.0</ele><time>2026-03-29T08:30:48.999Z</time></trkpt><trkpt lat="39.31660517989513" lon="9.23675661897551"><ele>193.0</ele><time>2026-03-29T08:30:49.999Z</time></trkpt><trkpt lat="39.31656663542071" lon="9.23686713627799"><ele>193.0</ele><time>2026-03-29T08:30:50.999Z</time></trkpt><trkpt lat="39.31653324469836" lon="9.236955100702115"><ele>192.99999999999997</ele><time>2026-03-29T08:30:51.999Z</time></trkpt><trkpt lat="39.31643704733255" lon="9.237035829218968"><ele>193.0</ele><time>2026-03-29T08:30:53.999Z</time></trkpt><trkpt lat="39.31635228561525" lon="9.237082957313218"><ele>192.83333333333331</ele><time>2026-03-29T08:30:54.999Z</time></trkpt><trkpt lat="39.31627333036862" lon="9.23714009738743"><ele>192.66666666666666</ele><time>2026-03-29T08:30:55.999Z</time></trkpt><trkpt lat="39.316184834530425" lon="9.237190936073072"><ele>192.5</ele><time>2026-03-29T08:30:56.999Z</time></trkpt><trkpt lat="39.3161036789459" lon="9.237227763980535"><ele>192.33333333333331</ele><time>2026-03-29T08:30:57.999Z</time></trkpt><trkpt lat="39.31602909213867" lon="9.237245523670959"><ele>192.16666666666666</ele><time>2026-03-29T08:30:58.999Z</time></trkpt><trkpt lat="39.31596288326745" lon="9.237255130985563"><ele>192.0</ele><time>2026-03-29T08:30:59.999Z</time></trkpt><trkpt lat="39.315915815170904" lon="9.237329300983564"><ele>191.8</ele><time>2026-03-29T08:31:01.999Z</time></trkpt><trkpt lat="39.31589575786173" lon="9.237434446422638"><ele>191.6</ele><time>2026-03-29T08:31:03.999Z</time></trkpt><trkpt lat="39.31583926648554" lon="9.237600104455774"><ele>191.4</ele><time>2026-03-29T08:31:05.999Z</time></trkpt><trkpt lat="39.31577926778036" lon="9.237700586145362"><ele>191.20000000000002</ele><time>2026-03-29T08:31:07.998Z</time></trkpt><trkpt lat="39.31572784485963" lon="9.237762499708307"><ele>191.0</ele><time>2026-03-29T08:31:08.998Z</time></trkpt><trkpt lat="39.315673604961226" lon="9.237843193689057"><ele>191.0</ele><time>2026-03-29T08:31:09.998Z</time></trkpt><trkpt lat="39.31562646420397" lon="9.237928985853282"><ele>191.0</ele><time>2026-03-29T08:31:10.998Z</time></trkpt><trkpt lat="39.3155809874312" lon="9.238001373729482"><ele>191.0</ele><time>2026-03-29T08:31:11.998Z</time></trkpt><trkpt lat="39.31552620595952" lon="9.238083167547078"><ele>191.0</ele><time>2026-03-29T08:31:12.998Z</time></trkpt><trkpt lat="39.31547886342937" lon="9.238155718853786"><ele>191.0</ele><time>2026-03-29T08:31:13.998Z</time></trkpt><trkpt lat="39.31544201492259" lon="9.23828885902552"><ele>191.0</ele><time>2026-03-29T08:31:15.998Z</time></trkpt><trkpt lat="39.31545141721293" lon="9.238438952692599"><ele>190.0</ele><time>2026-03-29T08:31:17.998Z</time></trkpt><trkpt lat="39.31549505315153" lon="9.238586614491828"><ele>189.0</ele><time>2026-03-29T08:31:19.998Z</time></trkpt><trkpt lat="39.31550408439314" lon="9.23867168024405"><ele>188.0</ele><time>2026-03-29T08:31:20.998Z</time></trkpt><trkpt lat="39.31545945133932" lon="9.238741486577288"><ele>187.0</ele><time>2026-03-29T08:31:22.998Z</time></trkpt><trkpt lat="39.31535904575961" lon="9.23883623673959"><ele>186.0</ele><time>2026-03-29T08:31:24.998Z</time></trkpt><trkpt lat="39.31529012000952" lon="9.238926745428605"><ele>185.83333333333334</ele><time>2026-03-29T08:31:25.998Z</time></trkpt><trkpt lat="39.31520907652298" lon="9.239002855547646"><ele>185.66666666666666</ele><time>2026-03-29T08:31:26.998Z</time></trkpt><trkpt lat="39.31513663500018" lon="9.23905681871853"><ele>185.5</ele><time>2026-03-29T08:31:27.998Z</time></trkpt><trkpt lat="39.31506225085744" lon="9.239097040334945"><ele>185.33333333333331</ele><time>2026-03-29T08:31:28.998Z</time></trkpt><trkpt lat="39.31500410117766" lon="9.2391479093964"><ele>185.16666666666666</ele><time>2026-03-29T08:31:29.998Z</time></trkpt><trkpt lat="39.31496639603203" lon="9.23922072555825"><ele>185.0</ele><time>2026-03-29T08:31:30.998Z</time></trkpt><trkpt lat="39.31493814196555" lon="9.239307884153785"><ele>185.0</ele><time>2026-03-29T08:31:31.998Z</time></trkpt><trkpt lat="39.31490474054205" lon="9.239380113135734"><ele>185.0</ele><time>2026-03-29T08:31:32.998Z</time></trkpt><trkpt lat="39.314814862383436" lon="9.239455907170747"><ele>185.0</ele><time>2026-03-29T08:31:34.998Z</time></trkpt><trkpt lat="39.31471479132524" lon="9.239487363732804"><ele>185.0</ele><time>2026-03-29T08:31:36.998Z</time></trkpt><trkpt lat="39.31469017661966" lon="9.239583010380969"><ele>185.0</ele><time>2026-03-29T08:31:38.998Z</time></trkpt><trkpt lat="39.314648706115165" lon="9.239649878910658"><ele>185.0</ele><time>2026-03-29T08:31:40.998Z</time></trkpt><trkpt lat="39.31454289988938" lon="9.239734935607304"><ele>184.6</ele><time>2026-03-29T08:31:42.998Z</time></trkpt><trkpt lat="39.31449699097296" lon="9.23984051308519"><ele>184.2</ele><time>2026-03-29T08:31:44.998Z</time></trkpt><trkpt lat="39.31445792832639" lon="9.239931741348142"><ele>183.8</ele><time>2026-03-29T08:31:46.997Z</time></trkpt><trkpt lat="39.31438799538822" lon="9.239925050411115"><ele>183.4</ele><time>2026-03-29T08:31:48.997Z</time></trkpt><trkpt lat="39.314297315681046" lon="9.240020777821048"><ele>183.0</ele><time>2026-03-29T08:31:52.997Z</time></trkpt><trkpt lat="39.31419984617257" lon="9.240058725209412"><ele>183.0</ele><time>2026-03-29T08:31:54.997Z</time></trkpt><trkpt lat="39.31414630736497" lon="9.240149398605734"><ele>183.0</ele><time>2026-03-29T08:31:56.997Z</time></trkpt><trkpt lat="39.314048739252584" lon="9.240229229958054"><ele>183.0</ele><time>2026-03-29T08:31:58.997Z</time></trkpt><trkpt lat="39.31397818308633" lon="9.24031329798859"><ele>183.0</ele><time>2026-03-29T08:32:01Z</time></trkpt><trkpt lat="39.31391569973892" lon="9.240372796369066"><ele>183.0</ele><time>2026-03-29T08:32:03Z</time></trkpt><trkpt lat="39.31380598820002" lon="9.240443131789164"><ele>182.5</ele><time>2026-03-29T08:32:05Z</time></trkpt><trkpt lat="39.31371137556407" lon="9.240489797640963"><ele>182.0</ele><time>2026-03-29T08:32:07Z</time></trkpt><trkpt lat="39.31359367155336" lon="9.240467747252623"><ele>181.5</ele><time>2026-03-29T08:32:09Z</time></trkpt><trkpt lat="39.313521901419705" lon="9.240477076585988"><ele>181.0</ele><time>2026-03-29T08:32:10Z</time></trkpt><trkpt lat="39.31345943154795" lon="9.240528179999664"><ele>180.5</ele><time>2026-03-29T08:32:11Z</time></trkpt><trkpt lat="39.313401905303785" lon="9.240597390765837"><ele>180.0</ele><time>2026-03-29T08:32:12Z</time></trkpt><trkpt lat="39.31336006073844" lon="9.240660395518553"><ele>179.8</ele><time>2026-03-29T08:32:13Z</time></trkpt><trkpt lat="39.31332757171378" lon="9.240819203827302"><ele>179.6</ele><time>2026-03-29T08:32:15Z</time></trkpt><trkpt lat="39.313309338962576" lon="9.240919074027863"><ele>179.39999999999998</ele><time>2026-03-29T08:32:16Z</time></trkpt><trkpt lat="39.313295177565465" lon="9.241007616149226"><ele>179.2</ele><time>2026-03-29T08:32:17Z</time></trkpt><trkpt lat="39.313239618274196" lon="9.241140751142513"><ele>179.0</ele><time>2026-03-29T08:32:19Z</time></trkpt><trkpt lat="39.313181354060795" lon="9.241269497417571"><ele>179.0</ele><time>2026-03-29T08:32:21Z</time></trkpt><trkpt lat="39.31310247710904" lon="9.24139827571542"><ele>179.0</ele><time>2026-03-29T08:32:23Z</time></trkpt><trkpt lat="39.31304294002333" lon="9.241474116830283"><ele>179.0</ele><time>2026-03-29T08:32:24Z</time></trkpt><trkpt lat="39.31298598737821" lon="9.241557356352436"><ele>179.0</ele><time>2026-03-29T08:32:25Z</time></trkpt><trkpt lat="39.31294646399471" lon="9.241652907426234"><ele>179.0</ele><time>2026-03-29T08:32:26Z</time></trkpt><trkpt lat="39.312907818842454" lon="9.241749625876567"><ele>178.79999999999998</ele><time>2026-03-29T08:32:27Z</time></trkpt><trkpt lat="39.31286449857117" lon="9.24183028881829"><ele>178.6</ele><time>2026-03-29T08:32:28Z</time></trkpt><trkpt lat="39.312816024963745" lon="9.241901278068111"><ele>178.4</ele><time>2026-03-29T08:32:29Z</time></trkpt><trkpt lat="39.31273148902012" lon="9.242001197631888"><ele>178.2</ele><time>2026-03-29T08:32:31Z</time></trkpt><trkpt lat="39.31263312018806" lon="9.242060342430037"><ele>178.0</ele><time>2026-03-29T08:32:33Z</time></trkpt><trkpt lat="39.31256011573753" lon="9.242102377780567"><ele>178.0</ele><time>2026-03-29T08:32:34Z</time></trkpt><trkpt lat="39.312491730007956" lon="9.242141569361323"><ele>178.0</ele><time>2026-03-29T08:32:35Z</time></trkpt><trkpt lat="39.312431783335676" lon="9.242256612285729"><ele>178.0</ele><time>2026-03-29T08:32:36.999Z</time></trkpt><trkpt lat="39.31238812824343" lon="9.242351067251656"><ele>178.0</ele><time>2026-03-29T08:32:37.999Z</time></trkpt><trkpt lat="39.3123441197081" lon="9.24243871121456"><ele>178.0</ele><time>2026-03-29T08:32:38.999Z</time></trkpt><trkpt lat="39.31228901943296" lon="9.24250412707176"><ele>178.0</ele><time>2026-03-29T08:32:39.999Z</time></trkpt><trkpt lat="39.312211526113394" lon="9.242591714837122"><ele>177.60000000000002</ele><time>2026-03-29T08:32:41.999Z</time></trkpt><trkpt lat="39.31221199660247" lon="9.242681785945408"><ele>177.20000000000002</ele><time>2026-03-29T08:32:44.999Z</time></trkpt><trkpt lat="39.312322687955856" lon="9.242771987284108"><ele>176.8</ele><time>2026-03-29T08:32:46.999Z</time></trkpt><trkpt lat="39.31239332489416" lon="9.24281861234642"><ele>176.4</ele><time>2026-03-29T08:32:47.999Z</time></trkpt><trkpt lat="39.31247123869016" lon="9.242880246269682"><ele>176.0</ele><time>2026-03-29T08:32:48.999Z</time></trkpt><trkpt lat="39.31255452816911" lon="9.242938396503275"><ele>176.0</ele><time>2026-03-29T08:32:49.999Z</time></trkpt><trkpt lat="39.312623505640175" lon="9.242994713619233"><ele>176.0</ele><time>2026-03-29T08:32:50.999Z</time></trkpt><trkpt lat="39.31268500102285" lon="9.243051885163831"><ele>176.0</ele><time>2026-03-29T08:32:51.999Z</time></trkpt><trkpt lat="39.312756850660946" lon="9.243118447410641"><ele>176.0</ele><time>2026-03-29T08:32:52.999Z</time></trkpt><trkpt lat="39.31282879552753" lon="9.243188532114058"><ele>176.0</ele><time>2026-03-29T08:32:53.999Z</time></trkpt><trkpt lat="39.31290140887893" lon="9.243265285137733"><ele>176.0</ele><time>2026-03-29T08:32:54.999Z</time></trkpt><trkpt lat="39.31296701174676" lon="9.243355912941128"><ele>175.75</ele><time>2026-03-29T08:32:55.999Z</time></trkpt><trkpt lat="39.31303110498365" lon="9.243459005510736"><ele>175.5</ele><time>2026-03-29T08:32:56.999Z</time></trkpt><trkpt lat="39.31310327206991" lon="9.243568676156158"><ele>175.25</ele><time>2026-03-29T08:32:57.999Z</time></trkpt><trkpt lat="39.31317751397869" lon="9.243685345992684"><ele>175.0</ele><time>2026-03-29T08:32:58.999Z</time></trkpt><trkpt lat="39.31324443100771" lon="9.243815047248955"><ele>175.5</ele><time>2026-03-29T08:32:59.999Z</time></trkpt><trkpt lat="39.313305899111356" lon="9.243958384894361"><ele>176.0</ele><time>2026-03-29T08:33:00.999Z</time></trkpt><trkpt lat="39.31336054535068" lon="9.244106302443159"><ele>176.5</ele><time>2026-03-29T08:33:01.999Z</time></trkpt><trkpt lat="39.31340917195391" lon="9.24425819729213"><ele>177.0</ele><time>2026-03-29T08:33:02.999Z</time></trkpt><trkpt lat="39.31345717292729" lon="9.24441847781187"><ele>176.0</ele><time>2026-03-29T08:33:03.999Z</time></trkpt><trkpt lat="39.31349865251905" lon="9.244553817030003"><ele>175.0</ele><time>2026-03-29T08:33:04.999Z</time></trkpt><trkpt lat="39.31354161921603" lon="9.244675872617444"><ele>174.0</ele><time>2026-03-29T08:33:05.999Z</time></trkpt><trkpt lat="39.31357864148094" lon="9.244821755422373"><ele>173.0</ele><time>2026-03-29T08:33:06.999Z</time></trkpt><trkpt lat="39.313632654111224" lon="9.244956591567673"><ele>172.60000000000002</ele><time>2026-03-29T08:33:07.999Z</time></trkpt><trkpt lat="39.3136889678958" lon="9.245088617456378"><ele>172.20000000000002</ele><time>2026-03-29T08:33:08.999Z</time></trkpt><trkpt lat="39.313750292286095" lon="9.245201393574769"><ele>171.8</ele><time>2026-03-29T08:33:09.999Z</time></trkpt><trkpt lat="39.31378336380631" lon="9.245304009829699"><ele>171.4</ele><time>2026-03-29T08:33:10.999Z</time></trkpt><trkpt lat="39.31383493858726" lon="9.245411852689472"><ele>171.0</ele><time>2026-03-29T08:33:11.999Z</time></trkpt><trkpt lat="39.31390308621813" lon="9.245531079243367"><ele>170.75</ele><time>2026-03-29T08:33:12.999Z</time></trkpt><trkpt lat="39.313952630977354" lon="9.245665932326276"><ele>170.5</ele><time>2026-03-29T08:33:13.999Z</time></trkpt><trkpt lat="39.31395518210338" lon="9.245818113081105"><ele>170.25</ele><time>2026-03-29T08:33:14.999Z</time></trkpt><trkpt lat="39.313975295943195" lon="9.245978086286568"><ele>170.0</ele><time>2026-03-29T08:33:15.998Z</time></trkpt><trkpt lat="39.31400940423086" lon="9.24613510582676"><ele>170.0</ele><time>2026-03-29T08:33:16.998Z</time></trkpt><trkpt lat="39.314029156030095" lon="9.24627199200399"><ele>170.0</ele><time>2026-03-29T08:33:17.998Z</time></trkpt><trkpt lat="39.31405825084256" lon="9.246399042951369"><ele>170.0</ele><time>2026-03-29T08:33:18.998Z</time></trkpt><trkpt lat="39.31409785969341" lon="9.246509839106526"><ele>170.0</ele><time>2026-03-29T08:33:19.998Z</time></trkpt><trkpt lat="39.31415470781877" lon="9.246599687592887"><ele>170.0</ele><time>2026-03-29T08:33:20.998Z</time></trkpt><trkpt lat="39.31422368088332" lon="9.246679112345767"><ele>169.83333333333331</ele><time>2026-03-29T08:33:21.998Z</time></trkpt><trkpt lat="39.314279657254545" lon="9.246736226591311"><ele>169.66666666666666</ele><time>2026-03-29T08:33:22.998Z</time></trkpt><trkpt lat="39.314355616663256" lon="9.246799460419977"><ele>169.5</ele><time>2026-03-29T08:33:24.998Z</time></trkpt><trkpt lat="39.31448058808271" lon="9.246761201742654"><ele>169.33333333333334</ele><time>2026-03-29T08:33:26.998Z</time></trkpt><trkpt lat="39.314551314778164" lon="9.24672293362037"><ele>169.16666666666669</ele><time>2026-03-29T08:33:27.998Z</time></trkpt><trkpt lat="39.314615110489044" lon="9.246684837905773"><ele>169.0</ele><time>2026-03-29T08:33:28.998Z</time></trkpt><trkpt lat="39.31467060204644" lon="9.246642213327368"><ele>169.6</ele><time>2026-03-29T08:33:29.998Z</time></trkpt><trkpt lat="39.314743104089665" lon="9.246534376469372"><ele>170.2</ele><time>2026-03-29T08:33:31.998Z</time></trkpt><trkpt lat="39.31479362348989" lon="9.246472924420749"><ele>170.79999999999998</ele><time>2026-03-29T08:33:34.998Z</time></trkpt><trkpt lat="39.31485636020927" lon="9.246387835849696"><ele>171.39999999999998</ele><time>2026-03-29T08:33:36.998Z</time></trkpt><trkpt lat="39.314960921904046" lon="9.246354770868866"><ele>172.0</ele><time>2026-03-29T08:33:38.998Z</time></trkpt><trkpt lat="39.31508441861735" lon="9.246356543061115"><ele>172.14285714285717</ele><time>2026-03-29T08:33:40.998Z</time></trkpt><trkpt lat="39.315150852679416" lon="9.246337305354768"><ele>172.28571428571428</ele><time>2026-03-29T08:33:41.998Z</time></trkpt><trkpt lat="39.3152138134387" lon="9.246317224238062"><ele>172.42857142857144</ele><time>2026-03-29T08:33:42.998Z</time></trkpt><trkpt lat="39.31525604799552" lon="9.246236019302797"><ele>172.57142857142858</ele><time>2026-03-29T08:33:43.998Z</time></trkpt><trkpt lat="39.315297083269314" lon="9.246164906209794"><ele>172.71428571428572</ele><time>2026-03-29T08:33:44.998Z</time></trkpt><trkpt lat="39.31533808442645" lon="9.246092129483449"><ele>172.85714285714286</ele><time>2026-03-29T08:33:45.998Z</time></trkpt><trkpt lat="39.31536839958124" lon="9.245995861166577"><ele>173.0</ele><time>2026-03-29T08:33:46.998Z</time></trkpt><trkpt lat="39.315415259812305" lon="9.24590685223006"><ele>173.0</ele><time>2026-03-29T08:33:47.998Z</time></trkpt><trkpt lat="39.31546802682922" lon="9.245820439982637"><ele>173.0</ele><time>2026-03-29T08:33:48.998Z</time></trkpt><trkpt lat="39.31550865461438" lon="9.245730007863026"><ele>173.0</ele><time>2026-03-29T08:33:49.998Z</time></trkpt><trkpt lat="39.31554006258812" lon="9.245630443615761"><ele>173.0</ele><time>2026-03-29T08:33:50.998Z</time></trkpt><trkpt lat="39.315576272247824" lon="9.245534969917479"><ele>173.0</ele><time>2026-03-29T08:33:51.998Z</time></trkpt><trkpt lat="39.31560958699448" lon="9.245443434260475"><ele>173.0</ele><time>2026-03-29T08:33:52.998Z</time></trkpt><trkpt lat="39.31564746234832" lon="9.245376255052593"><ele>173.8</ele><time>2026-03-29T08:33:53.998Z</time></trkpt><trkpt lat="39.315717473667526" lon="9.245241510193356"><ele>174.60000000000002</ele><time>2026-03-29T08:33:55.997Z</time></trkpt><trkpt lat="39.315742115115185" lon="9.245161690489844"><ele>175.39999999999998</ele><time>2026-03-29T08:33:56.997Z</time></trkpt><trkpt lat="39.31577048231672" lon="9.24507714227828"><ele>176.2</ele><time>2026-03-29T08:33:57.997Z</time></trkpt><trkpt lat="39.31582344585003" lon="9.244939957891356"><ele>177.0</ele><time>2026-03-29T08:33:59.997Z</time></trkpt><trkpt lat="39.31586056579579" lon="9.24480741860738"><ele>177.2</ele><time>2026-03-29T08:34:01.997Z</time></trkpt><trkpt lat="39.31589501639002" lon="9.244679381629052"><ele>177.39999999999998</ele><time>2026-03-29T08:34:03.997Z</time></trkpt><trkpt lat="39.31591868285395" lon="9.24457337132775"><ele>177.60000000000002</ele><time>2026-03-29T08:34:05.997Z</time></trkpt><trkpt lat="39.315940925031306" lon="9.244439855797228"><ele>177.8</ele><time>2026-03-29T08:34:09Z</time></trkpt><trkpt lat="39.315966342505156" lon="9.244325816145972"><ele>178.0</ele><time>2026-03-29T08:34:11Z</time></trkpt><trkpt lat="39.31649363940188" lon="9.244333959212243"><ele>179.66666666666669</ele><time>2026-03-29T08:34:13Z</time></trkpt><trkpt lat="39.31656009252534" lon="9.244303417734606"><ele>181.33333333333334</ele><time>2026-03-29T08:34:14Z</time></trkpt><trkpt lat="39.316634670007694" lon="9.24427433056999"><ele>183.0</ele><time>2026-03-29T08:34:15Z</time></trkpt><trkpt lat="39.316710059952925" lon="9.24424113359966"><ele>184.66666666666666</ele><time>2026-03-29T08:34:16Z</time></trkpt><trkpt lat="39.316787593445255" lon="9.244199390915707"><ele>186.33333333333331</ele><time>2026-03-29T08:34:17Z</time></trkpt><trkpt lat="39.316869219225396" lon="9.244148843350446"><ele>188.0</ele><time>2026-03-29T08:34:18Z</time></trkpt><trkpt lat="39.316944599708215" lon="9.24408004080753"><ele>188.0</ele><time>2026-03-29T08:34:19Z</time></trkpt><trkpt lat="39.31702588492477" lon="9.24400907456863"><ele>188.0</ele><time>2026-03-29T08:34:20Z</time></trkpt><trkpt lat="39.317093980653816" lon="9.243963131200159"><ele>188.0</ele><time>2026-03-29T08:34:21Z</time></trkpt><trkpt lat="39.31715974443084" lon="9.243946973887022"><ele>188.0</ele><time>2026-03-29T08:34:22Z</time></trkpt><trkpt lat="39.317231686467906" lon="9.24395790946379"><ele>188.0</ele><time>2026-03-29T08:34:23Z</time></trkpt><trkpt lat="39.317307140684676" lon="9.243982281112691"><ele>188.0</ele><time>2026-03-29T08:34:24Z</time></trkpt><trkpt lat="39.31738174032754" lon="9.243984760957138"><ele>188.83333333333331</ele><time>2026-03-29T08:34:25Z</time></trkpt><trkpt lat="39.31745163869606" lon="9.243975730223069"><ele>189.66666666666666</ele><time>2026-03-29T08:34:26Z</time></trkpt><trkpt lat="39.31752222731642" lon="9.24395024833742"><ele>190.5</ele><time>2026-03-29T08:34:27Z</time></trkpt><trkpt lat="39.317600710828714" lon="9.243912171990429"><ele>191.33333333333331</ele><time>2026-03-29T08:34:28Z</time></trkpt><trkpt lat="39.31767499426804" lon="9.243876877316756"><ele>192.16666666666666</ele><time>2026-03-29T08:34:29Z</time></trkpt><trkpt lat="39.31778087065647" lon="9.243855362031738"><ele>193.0</ele><time>2026-03-29T08:34:31Z</time></trkpt><trkpt lat="39.317833009915255" lon="9.243918743633468"><ele>194.49999999999997</ele><time>2026-03-29T08:34:33Z</time></trkpt><trkpt lat="39.317848200798885" lon="9.244031186111803"><ele>196.0</ele><time>2026-03-29T08:34:35Z</time></trkpt><trkpt lat="39.31785669659056" lon="9.244113107165566"><ele>197.5</ele><time>2026-03-29T08:34:36Z</time></trkpt><trkpt lat="39.31786131476023" lon="9.244205492253823"><ele>199.0</ele><time>2026-03-29T08:34:37Z</time></trkpt><trkpt lat="39.31788113211935" lon="9.244314399279602"><ele>200.49999999999997</ele><time>2026-03-29T08:34:38Z</time></trkpt><trkpt lat="39.31790478815391" lon="9.24442385321263"><ele>202.0</ele><time>2026-03-29T08:34:39Z</time></trkpt><trkpt lat="39.31791998387491" lon="9.24453802006662"><ele>202.0</ele><time>2026-03-29T08:34:39.999Z</time></trkpt><trkpt lat="39.31793367292795" lon="9.244653322266343"><ele>202.0</ele><time>2026-03-29T08:34:40.999Z</time></trkpt><trkpt lat="39.317946485974815" lon="9.244776849346259"><ele>202.0</ele><time>2026-03-29T08:34:41.999Z</time></trkpt><trkpt lat="39.31796245536956" lon="9.244883869859931"><ele>202.0</ele><time>2026-03-29T08:34:42.999Z</time></trkpt><trkpt lat="39.31798439876752" lon="9.244981586815305"><ele>202.0</ele><time>2026-03-29T08:34:43.999Z</time></trkpt><trkpt lat="39.3180435633994" lon="9.245103726085405"><ele>204.66666666666666</ele><time>2026-03-29T08:34:45.999Z</time></trkpt><trkpt lat="39.31815608113358" lon="9.245124282949698"><ele>207.33333333333331</ele><time>2026-03-29T08:34:47.999Z</time></trkpt><trkpt lat="39.31822294438328" lon="9.24512306529965"><ele>210.0</ele><time>2026-03-29T08:34:48.999Z</time></trkpt><trkpt lat="39.31830663828657" lon="9.245130068872387"><ele>212.66666666666669</ele><time>2026-03-29T08:34:49.999Z</time></trkpt><trkpt lat="39.31838485094315" lon="9.245142514933788"><ele>215.33333333333334</ele><time>2026-03-29T08:34:50.999Z</time></trkpt><trkpt lat="39.31845282365326" lon="9.245174051313695"><ele>218.0</ele><time>2026-03-29T08:34:51.999Z</time></trkpt><trkpt lat="39.31850785704174" lon="9.245224667614297"><ele>218.00000000000003</ele><time>2026-03-29T08:34:52.999Z</time></trkpt><trkpt lat="39.318558877030995" lon="9.245296792460264"><ele>218.0</ele><time>2026-03-29T08:34:53.999Z</time></trkpt><trkpt lat="39.31861417129105" lon="9.245353255333743"><ele>218.0</ele><time>2026-03-29T08:34:54.999Z</time></trkpt><trkpt lat="39.31867682980137" lon="9.245397594723398"><ele>218.0</ele><time>2026-03-29T08:34:55.999Z</time></trkpt><trkpt lat="39.318743062349114" lon="9.245445066322574"><ele>218.00000000000003</ele><time>2026-03-29T08:34:56.999Z</time></trkpt><trkpt lat="39.318810937885395" lon="9.245494293793797"><ele>218.0</ele><time>2026-03-29T08:34:57.999Z</time></trkpt><trkpt lat="39.31892427353964" lon="9.245527295270946"><ele>216.14285714285714</ele><time>2026-03-29T08:34:59.999Z</time></trkpt><trkpt lat="39.31898551587668" lon="9.245505390977126"><ele>214.28571428571428</ele><time>2026-03-29T08:35:00.999Z</time></trkpt><trkpt lat="39.31905240295959" lon="9.24546519148348"><ele>212.42857142857144</ele><time>2026-03-29T08:35:01.999Z</time></trkpt><trkpt lat="39.319111549996144" lon="9.245406246617426"><ele>210.57142857142856</ele><time>2026-03-29T08:35:02.999Z</time></trkpt><trkpt lat="39.31916829442656" lon="9.245336649679695"><ele>208.7142857142857</ele><time>2026-03-29T08:35:03.999Z</time></trkpt><trkpt lat="39.31922527623114" lon="9.245265745068917"><ele>206.85714285714286</ele><time>2026-03-29T08:35:04.999Z</time></trkpt><trkpt lat="39.319275043109315" lon="9.245196996920507"><ele>205.0</ele><time>2026-03-29T08:35:05.999Z</time></trkpt><trkpt lat="39.31932045109928" lon="9.245127991703935"><ele>205.0</ele><time>2026-03-29T08:35:06.999Z</time></trkpt><trkpt lat="39.31936193711109" lon="9.245049213396364"><ele>205.0</ele><time>2026-03-29T08:35:07.999Z</time></trkpt><trkpt lat="39.31940358667363" lon="9.244977127018005"><ele>205.0</ele><time>2026-03-29T08:35:08.999Z</time></trkpt><trkpt lat="39.31944676358489" lon="9.24490797103377"><ele>205.0</ele><time>2026-03-29T08:35:09.999Z</time></trkpt><trkpt lat="39.31948708680615" lon="9.244841192364781"><ele>205.0</ele><time>2026-03-29T08:35:10.999Z</time></trkpt><trkpt lat="39.319523404073145" lon="9.244764251309695"><ele>205.0</ele><time>2026-03-29T08:35:11.999Z</time></trkpt><trkpt lat="39.31955974877217" lon="9.244660968897865"><ele>205.0</ele><time>2026-03-29T08:35:12.999Z</time></trkpt><trkpt lat="39.31960789440015" lon="9.244573394057896"><ele>204.2857142857143</ele><time>2026-03-29T08:35:13.999Z</time></trkpt><trkpt lat="39.319661008268504" lon="9.244486898341547"><ele>203.57142857142856</ele><time>2026-03-29T08:35:14.999Z</time></trkpt><trkpt lat="39.319716802659066" lon="9.244413981705826"><ele>202.85714285714286</ele><time>2026-03-29T08:35:15.999Z</time></trkpt><trkpt lat="39.31976748915174" lon="9.244346098490956"><ele>202.14285714285717</ele><time>2026-03-29T08:35:16.999Z</time></trkpt><trkpt lat="39.31981124836496" lon="9.244285813017752"><ele>201.42857142857144</ele><time>2026-03-29T08:35:17.999Z</time></trkpt><trkpt lat="39.319852070229125" lon="9.24422199419359"><ele>200.71428571428572</ele><time>2026-03-29T08:35:18.998Z</time></trkpt><trkpt lat="39.31988153509121" lon="9.244147277562375"><ele>200.0</ele><time>2026-03-29T08:35:19.998Z</time></trkpt><trkpt lat="39.31990753573135" lon="9.244063312695884"><ele>200.00000000000003</ele><time>2026-03-29T08:35:20.998Z</time></trkpt><trkpt lat="39.31993896796498" lon="9.24397503327656"><ele>200.0</ele><time>2026-03-29T08:35:21.998Z</time></trkpt><trkpt lat="39.31998076474284" lon="9.24386920394646"><ele>200.0</ele><time>2026-03-29T08:35:22.998Z</time></trkpt><trkpt lat="39.32002340834069" lon="9.243760374454917"><ele>200.0</ele><time>2026-03-29T08:35:23.998Z</time></trkpt><trkpt lat="39.320055727962526" lon="9.243673089862785"><ele>200.00000000000003</ele><time>2026-03-29T08:35:24.998Z</time></trkpt><trkpt lat="39.320130261885495" lon="9.243676349576484"><ele>200.0</ele><time>2026-03-29T08:35:27.998Z</time></trkpt><trkpt lat="39.320242252905445" lon="9.243731934449329"><ele>200.2</ele><time>2026-03-29T08:35:29.998Z</time></trkpt><trkpt lat="39.32032249678697" lon="9.243744937353902"><ele>200.4</ele><time>2026-03-29T08:35:30.998Z</time></trkpt><trkpt lat="39.32040582993689" lon="9.243791773624462"><ele>200.60000000000002</ele><time>2026-03-29T08:35:31.998Z</time></trkpt><trkpt lat="39.320482818544406" lon="9.243885455809025"><ele>200.8</ele><time>2026-03-29T08:35:32.998Z</time></trkpt><trkpt lat="39.32058847992213" lon="9.24395862268663"><ele>201.0</ele><time>2026-03-29T08:35:33.998Z</time></trkpt><trkpt lat="39.32070294954969" lon="9.244011008737422"><ele>202.20000000000002</ele><time>2026-03-29T08:35:34.998Z</time></trkpt><trkpt lat="39.32081213183943" lon="9.24408318266104"><ele>203.4</ele><time>2026-03-29T08:35:35.998Z</time></trkpt><trkpt lat="39.32089735878927" lon="9.244148159954337"><ele>204.6</ele><time>2026-03-29T08:35:36.998Z</time></trkpt><trkpt lat="39.32098607997143" lon="9.244200902508735"><ele>205.8</ele><time>2026-03-29T08:35:37.998Z</time></trkpt><trkpt lat="39.321076253445945" lon="9.244261694778395"><ele>207.0</ele><time>2026-03-29T08:35:38.998Z</time></trkpt><trkpt lat="39.321169512729114" lon="9.244312062814647"><ele>207.0</ele><time>2026-03-29T08:35:39.998Z</time></trkpt><trkpt lat="39.32123335099872" lon="9.24440172368866"><ele>207.0</ele><time>2026-03-29T08:35:40.998Z</time></trkpt><trkpt lat="39.3212859154752" lon="9.24450695205973"><ele>207.0</ele><time>2026-03-29T08:35:41.998Z</time></trkpt><trkpt lat="39.32134201870042" lon="9.244597528621268"><ele>207.0</ele><time>2026-03-29T08:35:42.998Z</time></trkpt><trkpt lat="39.32148202010286" lon="9.24457427600525"><ele>207.0</ele><time>2026-03-29T08:35:43.998Z</time></trkpt><trkpt lat="39.3215600445561" lon="9.244640241143614"><ele>208.83333333333334</ele><time>2026-03-29T08:35:44.998Z</time></trkpt><trkpt lat="39.321624977481314" lon="9.24470895027709"><ele>210.66666666666669</ele><time>2026-03-29T08:35:45.998Z</time></trkpt><trkpt lat="39.32168976571246" lon="9.24476963763505"><ele>212.5</ele><time>2026-03-29T08:35:46.998Z</time></trkpt><trkpt lat="39.321759564145886" lon="9.244828892670197"><ele>214.33333333333334</ele><time>2026-03-29T08:35:47.998Z</time></trkpt><trkpt lat="39.32183429909734" lon="9.244876654339297"><ele>216.16666666666669</ele><time>2026-03-29T08:35:48.998Z</time></trkpt><trkpt lat="39.32191187292454" lon="9.244941119671223"><ele>218.0</ele><time>2026-03-29T08:35:49.998Z</time></trkpt><trkpt lat="39.32198833305046" lon="9.244974205976272"><ele>218.85714285714286</ele><time>2026-03-29T08:35:50.998Z</time></trkpt><trkpt lat="39.32206318331928" lon="9.24501137032516"><ele>219.71428571428572</ele><time>2026-03-29T08:35:51.998Z</time></trkpt><trkpt lat="39.322128451859406" lon="9.245061424714953"><ele>220.57142857142856</ele><time>2026-03-29T08:35:52.998Z</time></trkpt><trkpt lat="39.32216892196356" lon="9.245133203069157"><ele>221.42857142857144</ele><time>2026-03-29T08:35:53.998Z</time></trkpt><trkpt lat="39.32220233428398" lon="9.245209631086581"><ele>222.28571428571428</ele><time>2026-03-29T08:35:54.998Z</time></trkpt><trkpt lat="39.3222465633264" lon="9.245291079736523"><ele>223.14285714285714</ele><time>2026-03-29T08:35:55.998Z</time></trkpt><trkpt lat="39.32230357794269" lon="9.24535773471609"><ele>224.0</ele><time>2026-03-29T08:35:56.998Z</time></trkpt><trkpt lat="39.322373527567414" lon="9.245437138261822"><ele>226.6</ele><time>2026-03-29T08:35:57.997Z</time></trkpt><trkpt lat="39.32243103266583" lon="9.245527031603189"><ele>229.2</ele><time>2026-03-29T08:35:58.997Z</time></trkpt><trkpt lat="39.322486167151354" lon="9.245608139081357"><ele>231.79999999999998</ele><time>2026-03-29T08:35:59.997Z</time></trkpt><trkpt lat="39.32255507332738" lon="9.24567958385813"><ele>234.39999999999998</ele><time>2026-03-29T08:36:00.997Z</time></trkpt><trkpt lat="39.322627936559066" lon="9.245746265875765"><ele>237.0</ele><time>2026-03-29T08:36:01.997Z</time></trkpt><trkpt lat="39.32270706262322" lon="9.245839441393208"><ele>237.0</ele><time>2026-03-29T08:36:02.997Z</time></trkpt><trkpt lat="39.3227694016866" lon="9.245946966712223"><ele>237.0</ele><time>2026-03-29T08:36:03.997Z</time></trkpt><trkpt lat="39.32281351423735" lon="9.24605809996695"><ele>237.0</ele><time>2026-03-29T08:36:04.997Z</time></trkpt><trkpt lat="39.32283790789749" lon="9.246184659417104"><ele>237.0</ele><time>2026-03-29T08:36:05.997Z</time></trkpt><trkpt lat="39.32286076929572" lon="9.246309788360465"><ele>237.0</ele><time>2026-03-29T08:36:06.997Z</time></trkpt><trkpt lat="39.322882720597505" lon="9.246413645710913"><ele>237.33333333333334</ele><time>2026-03-29T08:36:07.997Z</time></trkpt><trkpt lat="39.32291268821838" lon="9.246489974046899"><ele>237.66666666666669</ele><time>2026-03-29T08:36:08.997Z</time></trkpt><trkpt lat="39.32295422360304" lon="9.246578032157744"><ele>238.0</ele><time>2026-03-29T08:36:09.997Z</time></trkpt><trkpt lat="39.32300747739276" lon="9.246661174380645"><ele>238.33333333333334</ele><time>2026-03-29T08:36:10.997Z</time></trkpt><trkpt lat="39.32305756044856" lon="9.246754607772964"><ele>238.66666666666669</ele><time>2026-03-29T08:36:11.997Z</time></trkpt><trkpt lat="39.32310399600416" lon="9.246846073896716"><ele>239.0</ele><time>2026-03-29T08:36:13Z</time></trkpt><trkpt lat="39.323161366726126" lon="9.246932315126527"><ele>242.33333333333334</ele><time>2026-03-29T08:36:14Z</time></trkpt><trkpt lat="39.32321633173865" lon="9.247017746945245"><ele>245.66666666666669</ele><time>2026-03-29T08:36:15Z</time></trkpt><trkpt lat="39.3232470549883" lon="9.247112729818065"><ele>249.0</ele><time>2026-03-29T08:36:16Z</time></trkpt><trkpt lat="39.32325932420064" lon="9.247202013221335"><ele>252.33333333333331</ele><time>2026-03-29T08:36:17Z</time></trkpt><trkpt lat="39.32326287854258" lon="9.2472940395555"><ele>255.66666666666666</ele><time>2026-03-29T08:36:18Z</time></trkpt><trkpt lat="39.32325937066793" lon="9.247375936909943"><ele>259.0</ele><time>2026-03-29T08:36:19Z</time></trkpt><trkpt lat="39.32326135766164" lon="9.247485634198277"><ele>259.0</ele><time>2026-03-29T08:36:21Z</time></trkpt><trkpt lat="39.32330449143828" lon="9.247553491960996"><ele>259.0</ele><time>2026-03-29T08:36:23Z</time></trkpt><trkpt lat="39.323369662469865" lon="9.247631937665195"><ele>259.0</ele><time>2026-03-29T08:36:26Z</time></trkpt><trkpt lat="39.32342631617481" lon="9.247710037190743"><ele>259.0</ele><time>2026-03-29T08:36:27Z</time></trkpt><trkpt lat="39.323474777662874" lon="9.247848169700477"><ele>259.0</ele><time>2026-03-29T08:36:29Z</time></trkpt><trkpt lat="39.32350044981284" lon="9.247932511178995"><ele>259.0</ele><time>2026-03-29T08:36:30Z</time></trkpt><trkpt lat="39.32352219297645" lon="9.24800940997221"><ele>259.0</ele><time>2026-03-29T08:36:31Z</time></trkpt><trkpt lat="39.32356971099304" lon="9.24807715699503"><ele>259.0</ele><time>2026-03-29T08:36:32Z</time></trkpt><trkpt lat="39.323678477517035" lon="9.248144237625302"><ele>259.0</ele><time>2026-03-29T08:36:34Z</time></trkpt><trkpt lat="39.32376788660285" lon="9.24827002897547"><ele>259.0</ele><time>2026-03-29T08:36:36Z</time></trkpt><trkpt lat="39.32379249505183" lon="9.248358809977745"><ele>259.0</ele><time>2026-03-29T08:36:37Z</time></trkpt><trkpt lat="39.32384485538163" lon="9.248424760929835"><ele>262.2</ele><time>2026-03-29T08:36:39Z</time></trkpt><trkpt lat="39.32398517865737" lon="9.248428713434231"><ele>265.4</ele><time>2026-03-29T08:36:41Z</time></trkpt><trkpt lat="39.324081777927134" lon="9.248467711672989"><ele>268.6</ele><time>2026-03-29T08:36:43Z</time></trkpt><trkpt lat="39.3241374323273" lon="9.248559673622397"><ele>271.8</ele><time>2026-03-29T08:36:45Z</time></trkpt><trkpt lat="39.32418450222183" lon="9.248677476050524"><ele>275.0</ele><time>2026-03-29T08:36:48.999Z</time></trkpt><trkpt lat="39.32421483115188" lon="9.248799127322751"><ele>275.0</ele><time>2026-03-29T08:36:49.999Z</time></trkpt><trkpt lat="39.32419496248821" lon="9.24890941042306"><ele>275.0</ele><time>2026-03-29T08:36:51.999Z</time></trkpt><trkpt lat="39.32414252150162" lon="9.248957287042396"><ele>275.0</ele><time>2026-03-29T08:36:52.999Z</time></trkpt><trkpt lat="39.32412222040628" lon="9.249117286357313"><ele>275.0</ele><time>2026-03-29T08:36:54.999Z</time></trkpt><trkpt lat="39.324020665228275" lon="9.249178873250298"><ele>275.0</ele><time>2026-03-29T08:36:55.999Z</time></trkpt><trkpt lat="39.32387949009433" lon="9.24924933408051"><ele>271.2</ele><time>2026-03-29T08:36:56.999Z</time></trkpt><trkpt lat="39.32380686731351" lon="9.249323348824744"><ele>267.4</ele><time>2026-03-29T08:36:57.999Z</time></trkpt><trkpt lat="39.32374096704918" lon="9.249405475078637"><ele>263.6</ele><time>2026-03-29T08:36:58.999Z</time></trkpt><trkpt lat="39.32369412170117" lon="9.249496063007046"><ele>259.8</ele><time>2026-03-29T08:36:59.999Z</time></trkpt><trkpt lat="39.3236198456586" lon="9.249654215802794"><ele>256.0</ele><time>2026-03-29T08:37:01.999Z</time></trkpt><trkpt lat="39.32356399596193" lon="9.249700176286101"><ele>255.99999999999997</ele><time>2026-03-29T08:37:02.999Z</time></trkpt><trkpt lat="39.32350214812197" lon="9.249716039507526"><ele>256.0</ele><time>2026-03-29T08:37:03.999Z</time></trkpt><trkpt lat="39.32343407274209" lon="9.249708719385772"><ele>256.0</ele><time>2026-03-29T08:37:04.999Z</time></trkpt><trkpt lat="39.32334773337003" lon="9.249719704177826"><ele>256.0</ele><time>2026-03-29T08:37:05.999Z</time></trkpt><trkpt lat="39.323278750732946" lon="9.249790593248086"><ele>255.99999999999997</ele><time>2026-03-29T08:37:06.999Z</time></trkpt><trkpt lat="39.32321666750491" lon="9.249849438048143"><ele>256.0</ele><time>2026-03-29T08:37:07.999Z</time></trkpt><trkpt lat="39.32313777518717" lon="9.249878741105277"><ele>252.99999999999997</ele><time>2026-03-29T08:37:08.999Z</time></trkpt><trkpt lat="39.32305435952819" lon="9.249891529271808"><ele>250.0</ele><time>2026-03-29T08:37:09.999Z</time></trkpt><trkpt lat="39.32297743636894" lon="9.249889518973205"><ele>247.0</ele><time>2026-03-29T08:37:10.999Z</time></trkpt><trkpt lat="39.32291582148813" lon="9.249928494781138"><ele>244.0</ele><time>2026-03-29T08:37:11.999Z</time></trkpt><trkpt lat="39.32283934836352" lon="9.250055240955398"><ele>240.99999999999997</ele><time>2026-03-29T08:37:13.999Z</time></trkpt><trkpt lat="39.32280322613836" lon="9.250150809770203"><ele>238.0</ele><time>2026-03-29T08:37:14.999Z</time></trkpt><trkpt lat="39.32276254040173" lon="9.250221051754325"><ele>237.99999999999997</ele><time>2026-03-29T08:37:15.999Z</time></trkpt><trkpt lat="39.32269291857078" lon="9.250280477570962"><ele>238.0</ele><time>2026-03-29T08:37:16.999Z</time></trkpt><trkpt lat="39.3226117841042" lon="9.25032751630473"><ele>238.0</ele><time>2026-03-29T08:37:17.999Z</time></trkpt><trkpt lat="39.3225398110118" lon="9.250394722691912"><ele>238.0</ele><time>2026-03-29T08:37:18.999Z</time></trkpt><trkpt lat="39.32243316198566" lon="9.25040752357457"><ele>237.99999999999997</ele><time>2026-03-29T08:37:20.999Z</time></trkpt><trkpt lat="39.322398365401135" lon="9.250498093179347"><ele>238.0</ele><time>2026-03-29T08:37:22.999Z</time></trkpt><trkpt lat="39.32238693561772" lon="9.25059860019359"><ele>238.0</ele><time>2026-03-29T08:37:25.998Z</time></trkpt><trkpt lat="39.32244695790696" lon="9.250638767151678"><ele>238.0</ele><time>2026-03-29T08:37:27.998Z</time></trkpt><trkpt lat="39.322360155338146" lon="9.250560846405481"><ele>238.0</ele><time>2026-03-29T08:37:48.998Z</time></trkpt><trkpt lat="39.32227891255497" lon="9.250596492142904"><ele>238.0</ele><time>2026-03-29T08:37:50.998Z</time></trkpt><trkpt lat="39.322237180820146" lon="9.250758584165272"><ele>238.0</ele><time>2026-03-29T08:37:52.998Z</time></trkpt><trkpt lat="39.32222343984953" lon="9.25085422645062"><ele>238.99999999999997</ele><time>2026-03-29T08:37:53.998Z</time></trkpt><trkpt lat="39.32220566854581" lon="9.25095130647452"><ele>240.0</ele><time>2026-03-29T08:37:54.998Z</time></trkpt><trkpt lat="39.322180479996234" lon="9.251094243800667"><ele>241.0</ele><time>2026-03-29T08:37:56.998Z</time></trkpt><trkpt lat="39.322170085811635" lon="9.251211153978351"><ele>242.0</ele><time>2026-03-29T08:37:57.998Z</time></trkpt><trkpt lat="39.32214857711011" lon="9.251312095923659"><ele>242.99999999999997</ele><time>2026-03-29T08:37:58.998Z</time></trkpt><trkpt lat="39.32215121478354" lon="9.251408254586394"><ele>244.0</ele><time>2026-03-29T08:37:59.998Z</time></trkpt><trkpt lat="39.32214531502954" lon="9.251503869992638"><ele>241.66666666666666</ele><time>2026-03-29T08:38:00.998Z</time></trkpt><trkpt lat="39.3221186924547" lon="9.25158549201135"><ele>239.33333333333331</ele><time>2026-03-29T08:38:01.998Z</time></trkpt><trkpt lat="39.3220757705247" lon="9.251672700608793"><ele>237.0</ele><time>2026-03-29T08:38:02.998Z</time></trkpt><trkpt lat="39.32203236697485" lon="9.251765041089891"><ele>234.66666666666669</ele><time>2026-03-29T08:38:03.997Z</time></trkpt><trkpt lat="39.321985220881544" lon="9.25188680053172"><ele>232.33333333333334</ele><time>2026-03-29T08:38:04.997Z</time></trkpt><trkpt lat="39.32192419555305" lon="9.252004575137628"><ele>230.0</ele><time>2026-03-29T08:38:05.997Z</time></trkpt><trkpt lat="39.32186792850231" lon="9.252103235241988"><ele>230.00000000000003</ele><time>2026-03-29T08:38:06.997Z</time></trkpt><trkpt lat="39.32182232644023" lon="9.25219988406644"><ele>230.0</ele><time>2026-03-29T08:38:07.997Z</time></trkpt><trkpt lat="39.32177837905671" lon="9.252293757414959"><ele>230.0</ele><time>2026-03-29T08:38:08.997Z</time></trkpt><trkpt lat="39.32171544316998" lon="9.252385735194185"><ele>230.0</ele><time>2026-03-29T08:38:09.997Z</time></trkpt><trkpt lat="39.32165032232131" lon="9.252470134345414"><ele>230.00000000000003</ele><time>2026-03-29T08:38:10.997Z</time></trkpt><trkpt lat="39.321599088158635" lon="9.252562464890728"><ele>230.0</ele><time>2026-03-29T08:38:11.997Z</time></trkpt><trkpt lat="39.32156415816409" lon="9.252653166170903"><ele>229.85714285714283</ele><time>2026-03-29T08:38:12.997Z</time></trkpt><trkpt lat="39.32154622205736" lon="9.252739181929893"><ele>229.71428571428572</ele><time>2026-03-29T08:38:13.997Z</time></trkpt><trkpt lat="39.3215257029344" lon="9.252836332558873"><ele>229.57142857142856</ele><time>2026-03-29T08:38:14.997Z</time></trkpt><trkpt lat="39.3215079812379" lon="9.252927539589479"><ele>229.42857142857142</ele><time>2026-03-29T08:38:15.997Z</time></trkpt><trkpt lat="39.3215003312512" lon="9.253017566993416"><ele>229.28571428571428</ele><time>2026-03-29T08:38:16.997Z</time></trkpt><trkpt lat="39.32150833642956" lon="9.253107624822375"><ele>229.14285714285714</ele><time>2026-03-29T08:38:17.997Z</time></trkpt><trkpt lat="39.32153856115548" lon="9.253204154942107"><ele>229.0</ele><time>2026-03-29T08:38:19Z</time></trkpt><trkpt lat="39.32156066783142" lon="9.25332201619145"><ele>228.79999999999998</ele><time>2026-03-29T08:38:20Z</time></trkpt><trkpt lat="39.321559961157945" lon="9.253444266584395"><ele>228.59999999999997</ele><time>2026-03-29T08:38:21Z</time></trkpt><trkpt lat="39.32152713938111" lon="9.253562453677143"><ele>228.4</ele><time>2026-03-29T08:38:22Z</time></trkpt><trkpt lat="39.321498349416046" lon="9.253684672146397"><ele>228.2</ele><time>2026-03-29T08:38:23Z</time></trkpt><trkpt lat="39.321448883777904" lon="9.253779885785017"><ele>228.0</ele><time>2026-03-29T08:38:24Z</time></trkpt><trkpt lat="39.32140730736339" lon="9.25395013224056"><ele>223.60000000000002</ele><time>2026-03-29T08:38:25Z</time></trkpt><trkpt lat="39.32137308763756" lon="9.25408138120928"><ele>219.20000000000002</ele><time>2026-03-29T08:38:26Z</time></trkpt><trkpt lat="39.32134378609202" lon="9.254213541650829"><ele>214.8</ele><time>2026-03-29T08:38:27Z</time></trkpt><trkpt lat="39.32131192828917" lon="9.254329978072834"><ele>210.4</ele><time>2026-03-29T08:38:28Z</time></trkpt><trkpt lat="39.32127384409737" lon="9.254439818669496"><ele>206.0</ele><time>2026-03-29T08:38:29Z</time></trkpt><trkpt lat="39.321242733671156" lon="9.25455349919165"><ele>206.0</ele><time>2026-03-29T08:38:30Z</time></trkpt><trkpt lat="39.32121648115019" lon="9.254654014791145"><ele>206.0</ele><time>2026-03-29T08:38:31Z</time></trkpt><trkpt lat="39.321196893948056" lon="9.254761791079426"><ele>206.0</ele><time>2026-03-29T08:38:32Z</time></trkpt><trkpt lat="39.32119023559842" lon="9.254892745435857"><ele>206.0</ele><time>2026-03-29T08:38:33Z</time></trkpt><trkpt lat="39.321186292703224" lon="9.25502466454424"><ele>206.0</ele><time>2026-03-29T08:38:34Z</time></trkpt><trkpt lat="39.3211878117948" lon="9.255144102789936"><ele>205.7142857142857</ele><time>2026-03-29T08:38:35Z</time></trkpt><trkpt lat="39.321190191787124" lon="9.255253851957269"><ele>205.42857142857142</ele><time>2026-03-29T08:38:36Z</time></trkpt><trkpt lat="39.321194187472905" lon="9.255353270850598"><ele>205.14285714285714</ele><time>2026-03-29T08:38:37Z</time></trkpt><trkpt lat="39.3212056296987" lon="9.255447264848979"><ele>204.85714285714283</ele><time>2026-03-29T08:38:38Z</time></trkpt><trkpt lat="39.32122349169607" lon="9.255532604366266"><ele>204.57142857142858</ele><time>2026-03-29T08:38:39Z</time></trkpt><trkpt lat="39.3212555817672" lon="9.255607797324009"><ele>204.28571428571428</ele><time>2026-03-29T08:38:40Z</time></trkpt><trkpt lat="39.32129767668344" lon="9.255670235847328"><ele>204.0</ele><time>2026-03-29T08:38:41Z</time></trkpt><trkpt lat="39.32136153197261" lon="9.255721315879722"><ele>204.83333333333334</ele><time>2026-03-29T08:38:42Z</time></trkpt><trkpt lat="39.32144821289429" lon="9.255772969467635"><ele>205.66666666666669</ele><time>2026-03-29T08:38:43Z</time></trkpt><trkpt lat="39.321540957753264" lon="9.255824421823103"><ele>206.5</ele><time>2026-03-29T08:38:44Z</time></trkpt><trkpt lat="39.321623213399846" lon="9.255856933496084"><ele>207.33333333333334</ele><time>2026-03-29T08:38:45Z</time></trkpt><trkpt lat="39.321704363676" lon="9.25588158847027"><ele>208.16666666666669</ele><time>2026-03-29T08:38:46Z</time></trkpt><trkpt lat="39.32178187569984" lon="9.255888816099818"><ele>209.0</ele><time>2026-03-29T08:38:47Z</time></trkpt><trkpt lat="39.32185279627295" lon="9.255877541612527"><ele>209.00000000000003</ele><time>2026-03-29T08:38:48Z</time></trkpt><trkpt lat="39.3219191754346" lon="9.255872735207014"><ele>209.0</ele><time>2026-03-29T08:38:49Z</time></trkpt><trkpt lat="39.32200392001333" lon="9.255890221318696"><ele>209.0</ele><time>2026-03-29T08:39:04.999Z</time></trkpt><trkpt lat="39.32204433347786" lon="9.255991563384868"><ele>209.0</ele><time>2026-03-29T08:39:06.999Z</time></trkpt><trkpt lat="39.32202884880788" lon="9.25608328868191"><ele>209.00000000000003</ele><time>2026-03-29T08:39:07.999Z</time></trkpt><trkpt lat="39.32194925923334" lon="9.256133535520833"><ele>209.0</ele><time>2026-03-29T08:39:08.999Z</time></trkpt><trkpt lat="39.32193048813671" lon="9.25622613376033"><ele>209.0</ele><time>2026-03-29T08:39:09.999Z</time></trkpt><trkpt lat="39.32190265683436" lon="9.256332327056054"><ele>209.0</ele><time>2026-03-29T08:39:10.999Z</time></trkpt><trkpt lat="39.32188456947283" lon="9.256448040083216"><ele>209.0</ele><time>2026-03-29T08:39:11.999Z</time></trkpt><trkpt lat="39.32186629978772" lon="9.256540943347455"><ele>209.0</ele><time>2026-03-29T08:39:12.999Z</time></trkpt><trkpt lat="39.3218999404936" lon="9.25675383546307"><ele>209.0</ele><time>2026-03-29T08:39:13.999Z</time></trkpt><trkpt lat="39.321860958589966" lon="9.256864785108755"><ele>205.0</ele><time>2026-03-29T08:39:15.999Z</time></trkpt><trkpt lat="39.32152548559601" lon="9.256670080239408"><ele>201.0</ele><time>2026-03-29T08:39:16.999Z</time></trkpt><trkpt lat="39.32139264877575" lon="9.256617684737847"><ele>200.5</ele><time>2026-03-29T08:39:18.999Z</time></trkpt><trkpt lat="39.32128828661488" lon="9.256578921525069"><ele>200.0</ele><time>2026-03-29T08:39:19.999Z</time></trkpt><trkpt lat="39.32117326120484" lon="9.256498093206508"><ele>199.5</ele><time>2026-03-29T08:39:20.999Z</time></trkpt><trkpt lat="39.32104931093941" lon="9.256408020059967"><ele>199.0</ele><time>2026-03-29T08:39:21.999Z</time></trkpt><trkpt lat="39.32094072439736" lon="9.256324052683455"><ele>199.0</ele><time>2026-03-29T08:39:22.999Z</time></trkpt><trkpt lat="39.320823983335075" lon="9.256250521056712"><ele>199.0</ele><time>2026-03-29T08:39:23.999Z</time></trkpt><trkpt lat="39.320718287332106" lon="9.256192535110362"><ele>199.0</ele><time>2026-03-29T08:39:24.999Z</time></trkpt><trkpt lat="39.32061899577777" lon="9.25613574518914"><ele>199.0</ele><time>2026-03-29T08:39:25.999Z</time></trkpt><trkpt lat="39.32051702241983" lon="9.256079108340847"><ele>197.0</ele><time>2026-03-29T08:39:26.999Z</time></trkpt><trkpt lat="39.32040931289784" lon="9.256000936134814"><ele>195.0</ele><time>2026-03-29T08:39:27.999Z</time></trkpt><trkpt lat="39.32029652380939" lon="9.255917876965306"><ele>193.0</ele><time>2026-03-29T08:39:28.999Z</time></trkpt><trkpt lat="39.320192718187734" lon="9.25583237485609"><ele>191.0</ele><time>2026-03-29T08:39:29.999Z</time></trkpt><trkpt lat="39.32009543781951" lon="9.255741987551458"><ele>191.0</ele><time>2026-03-29T08:39:30.998Z</time></trkpt><trkpt lat="39.319981017270706" lon="9.25564324077876"><ele>191.0</ele><time>2026-03-29T08:39:31.998Z</time></trkpt><trkpt lat="39.319877131000986" lon="9.255516885467761"><ele>191.0</ele><time>2026-03-29T08:39:32.998Z</time></trkpt><trkpt lat="39.319787164004744" lon="9.25538110587471"><ele>191.0</ele><time>2026-03-29T08:39:33.998Z</time></trkpt><trkpt lat="39.31969895175972" lon="9.255266563386028"><ele>190.25</ele><time>2026-03-29T08:39:34.998Z</time></trkpt><trkpt lat="39.3196146710435" lon="9.255154451933821"><ele>189.5</ele><time>2026-03-29T08:39:35.998Z</time></trkpt><trkpt lat="39.31952953729722" lon="9.255036282183848"><ele>188.75</ele><time>2026-03-29T08:39:36.998Z</time></trkpt><trkpt lat="39.31943576459907" lon="9.254936359950028"><ele>188.0</ele><time>2026-03-29T08:39:37.998Z</time></trkpt><trkpt lat="39.319376607098604" lon="9.254806003423905"><ele>187.2</ele><time>2026-03-29T08:39:38.998Z</time></trkpt><trkpt lat="39.31930605302451" lon="9.254690274869434"><ele>186.4</ele><time>2026-03-29T08:39:39.998Z</time></trkpt><trkpt lat="39.319233815681486" lon="9.254574726077099"><ele>185.6</ele><time>2026-03-29T08:39:40.998Z</time></trkpt><trkpt lat="39.31915761011307" lon="9.254479184031458"><ele>184.79999999999998</ele><time>2026-03-29T08:39:41.998Z</time></trkpt><trkpt lat="39.319093841702795" lon="9.254361895069222"><ele>184.0</ele><time>2026-03-29T08:39:42.998Z</time></trkpt><trkpt lat="39.319022403229376" lon="9.25423380331492"><ele>184.0</ele><time>2026-03-29T08:39:43.998Z</time></trkpt><trkpt lat="39.3189261219797" lon="9.25410983073734"><ele>184.0</ele><time>2026-03-29T08:39:44.998Z</time></trkpt><trkpt lat="39.31880694112916" lon="9.253977680683882"><ele>184.0</ele><time>2026-03-29T08:39:45.998Z</time></trkpt><trkpt lat="39.31871032358799" lon="9.253838209275024"><ele>184.0</ele><time>2026-03-29T08:39:46.998Z</time></trkpt><trkpt lat="39.31860505013119" lon="9.253738739074127"><ele>183.66666666666669</ele><time>2026-03-29T08:39:47.998Z</time></trkpt><trkpt lat="39.31852867205064" lon="9.253653762523053"><ele>183.33333333333334</ele><time>2026-03-29T08:39:48.998Z</time></trkpt><trkpt lat="39.318456136865244" lon="9.253593760218594"><ele>183.0</ele><time>2026-03-29T08:39:49.998Z</time></trkpt><trkpt lat="39.318395786956515" lon="9.253548204357056"><ele>182.66666666666666</ele><time>2026-03-29T08:39:50.998Z</time></trkpt><trkpt lat="39.31830519438505" lon="9.253635252509003"><ele>182.33333333333331</ele><time>2026-03-29T08:39:54.998Z</time></trkpt><trkpt lat="39.31830873933146" lon="9.253723034865498"><ele>182.0</ele><time>2026-03-29T08:39:55.998Z</time></trkpt><trkpt lat="39.31832214085875" lon="9.253826238562365"><ele>182.0</ele><time>2026-03-29T08:39:56.998Z</time></trkpt><trkpt lat="39.3183482183842" lon="9.253969988944021"><ele>182.0</ele><time>2026-03-29T08:39:57.998Z</time></trkpt><trkpt lat="39.31838391935538" lon="9.254118748072184"><ele>182.0</ele><time>2026-03-29T08:39:58.998Z</time></trkpt><trkpt lat="39.31840677501449" lon="9.254249788908174"><ele>182.0</ele><time>2026-03-29T08:39:59.998Z</time></trkpt><trkpt lat="39.31839584611358" lon="9.254354871405047"><ele>182.0</ele><time>2026-03-29T08:40:00.998Z</time></trkpt><trkpt lat="39.31837101391912" lon="9.254467380648594"><ele>182.0</ele><time>2026-03-29T08:40:01.998Z</time></trkpt><trkpt lat="39.318345420770896" lon="9.254597882964031"><ele>182.0</ele><time>2026-03-29T08:40:02.998Z</time></trkpt><trkpt lat="39.31832832475278" lon="9.254756857311552"><ele>182.0</ele><time>2026-03-29T08:40:03.998Z</time></trkpt><trkpt lat="39.31831477778988" lon="9.254907439687244"><ele>182.0</ele><time>2026-03-29T08:40:04.998Z</time></trkpt><trkpt lat="39.31830043298807" lon="9.255048055328983"><ele>183.2</ele><time>2026-03-29T08:40:05.998Z</time></trkpt><trkpt lat="39.31829112871933" lon="9.255180425026632"><ele>184.39999999999998</ele><time>2026-03-29T08:40:06.998Z</time></trkpt><trkpt lat="39.318294201688715" lon="9.25531681395788"><ele>185.60000000000002</ele><time>2026-03-29T08:40:07.998Z</time></trkpt><trkpt lat="39.31833389749263" lon="9.25544592143063"><ele>186.8</ele><time>2026-03-29T08:40:08.998Z</time></trkpt><trkpt lat="39.31839244272175" lon="9.255538052069818"><ele>188.0</ele><time>2026-03-29T08:40:09.998Z</time></trkpt><trkpt lat="39.31847421800002" lon="9.255616015941207"><ele>189.5</ele><time>2026-03-29T08:40:10.997Z</time></trkpt><trkpt lat="39.31857436336112" lon="9.25570365120062"><ele>191.0</ele><time>2026-03-29T08:40:11.997Z</time></trkpt><trkpt lat="39.318677466070746" lon="9.25579877077149"><ele>192.5</ele><time>2026-03-29T08:40:12.997Z</time></trkpt><trkpt lat="39.31876848376319" lon="9.255889986516836"><ele>194.0</ele><time>2026-03-29T08:40:13.997Z</time></trkpt><trkpt lat="39.31885287533296" lon="9.25598440707452"><ele>195.0</ele><time>2026-03-29T08:40:14.997Z</time></trkpt><trkpt lat="39.31893826406273" lon="9.256085299408229"><ele>196.0</ele><time>2026-03-29T08:40:15.997Z</time></trkpt><trkpt lat="39.319033974015994" lon="9.256171288240647"><ele>197.0</ele><time>2026-03-29T08:40:16.997Z</time></trkpt><trkpt lat="39.319134665975916" lon="9.256250264736138"><ele>198.0</ele><time>2026-03-29T08:40:17.997Z</time></trkpt><trkpt lat="39.319236540014955" lon="9.256333031694188"><ele>198.0</ele><time>2026-03-29T08:40:18.997Z</time></trkpt><trkpt lat="39.31932313441692" lon="9.256418722242328"><ele>198.0</ele><time>2026-03-29T08:40:19.997Z</time></trkpt><trkpt lat="39.319409838405385" lon="9.256505521996575"><ele>198.0</ele><time>2026-03-29T08:40:20.997Z</time></trkpt><trkpt lat="39.31949081414512" lon="9.256575598272295"><ele>198.0</ele><time>2026-03-29T08:40:21.997Z</time></trkpt><trkpt lat="39.319572535787984" lon="9.256617475862994"><ele>198.0</ele><time>2026-03-29T08:40:22.997Z</time></trkpt><trkpt lat="39.31965060028116" lon="9.256679862893135"><ele>199.5</ele><time>2026-03-29T08:40:23.997Z</time></trkpt><trkpt lat="39.31971228014639" lon="9.256780970926238"><ele>201.0</ele><time>2026-03-29T08:40:25Z</time></trkpt><trkpt lat="39.319779789247626" lon="9.25690666885776"><ele>202.5</ele><time>2026-03-29T08:40:26Z</time></trkpt><trkpt lat="39.31986406043774" lon="9.257029781757781"><ele>204.0</ele><time>2026-03-29T08:40:27Z</time></trkpt><trkpt lat="39.31993987889589" lon="9.257150867842808"><ele>204.0</ele><time>2026-03-29T08:40:28Z</time></trkpt><trkpt lat="39.320008965791864" lon="9.257262282088698"><ele>204.0</ele><time>2026-03-29T08:40:29Z</time></trkpt><trkpt lat="39.320071122158566" lon="9.25734493207726"><ele>204.0</ele><time>2026-03-29T08:40:30Z</time></trkpt><trkpt lat="39.32014440060368" lon="9.257430914394936"><ele>204.0</ele><time>2026-03-29T08:40:31Z</time></trkpt><trkpt lat="39.32023381244134" lon="9.257521786004736"><ele>204.0</ele><time>2026-03-29T08:40:32Z</time></trkpt><trkpt lat="39.32030979912148" lon="9.257603193351269"><ele>204.0</ele><time>2026-03-29T08:40:33Z</time></trkpt><trkpt lat="39.32036765161232" lon="9.2576974739078"><ele>204.0</ele><time>2026-03-29T08:40:34Z</time></trkpt><trkpt lat="39.320412579507945" lon="9.257795325021716"><ele>204.0</ele><time>2026-03-29T08:40:35Z</time></trkpt><trkpt lat="39.32045913509544" lon="9.257865991377207"><ele>204.0</ele><time>2026-03-29T08:40:36Z</time></trkpt><trkpt lat="39.32053206884711" lon="9.257929126112456"><ele>204.0</ele><time>2026-03-29T08:40:37Z</time></trkpt><trkpt lat="39.32062831549236" lon="9.257991358910667"><ele>204.0</ele><time>2026-03-29T08:40:38Z</time></trkpt><trkpt lat="39.32074212868713" lon="9.258071989681016"><ele>206.79999999999998</ele><time>2026-03-29T08:40:39Z</time></trkpt><trkpt lat="39.32084473483672" lon="9.258168174864432"><ele>209.6</ele><time>2026-03-29T08:40:40Z</time></trkpt><trkpt lat="39.32093374792613" lon="9.25826832283121"><ele>212.4</ele><time>2026-03-29T08:40:41Z</time></trkpt><trkpt lat="39.32101993800841" lon="9.258361263288926"><ele>215.2</ele><time>2026-03-29T08:40:42Z</time></trkpt><trkpt lat="39.321103353279334" lon="9.258409957738335"><ele>218.0</ele><time>2026-03-29T08:40:43Z</time></trkpt><trkpt lat="39.32117883085116" lon="9.25850721754444"><ele>218.0</ele><time>2026-03-29T08:40:44Z</time></trkpt><trkpt lat="39.32125277413625" lon="9.258608681173545"><ele>218.0</ele><time>2026-03-29T08:40:45Z</time></trkpt><trkpt lat="39.321333118890514" lon="9.258696433172661"><ele>218.0</ele><time>2026-03-29T08:40:46Z</time></trkpt><trkpt lat="39.3214173749909" lon="9.258767871626326"><ele>218.0</ele><time>2026-03-29T08:40:47Z</time></trkpt><trkpt lat="39.3214966021872" lon="9.258871423562933"><ele>218.0</ele><time>2026-03-29T08:40:48Z</time></trkpt><trkpt lat="39.32157689152425" lon="9.258954335035213"><ele>220.50000000000003</ele><time>2026-03-29T08:40:49Z</time></trkpt><trkpt lat="39.32167154209213" lon="9.259025334769701"><ele>223.0</ele><time>2026-03-29T08:40:50Z</time></trkpt><trkpt lat="39.321749322895265" lon="9.25910435685455"><ele>225.5</ele><time>2026-03-29T08:40:51Z</time></trkpt><trkpt lat="39.321805983258415" lon="9.259193709007679"><ele>228.0</ele><time>2026-03-29T08:40:52Z</time></trkpt><trkpt lat="39.32184935846152" lon="9.25926070530388"><ele>230.50000000000003</ele><time>2026-03-29T08:40:53Z</time></trkpt><trkpt lat="39.32190389061786" lon="9.25931943380097"><ele>233.0</ele><time>2026-03-29T08:40:54Z</time></trkpt><trkpt lat="39.321992452970186" lon="9.259397209057294"><ele>233.0</ele><time>2026-03-29T08:40:56Z</time></trkpt><trkpt lat="39.32206417389263" lon="9.259404813429564"><ele>233.0</ele><time>2026-03-29T08:40:58.999Z</time></trkpt><trkpt lat="39.322236691349055" lon="9.259514158718563"><ele>233.0</ele><time>2026-03-29T08:52:25.998Z</time></trkpt><trkpt lat="39.32232999489276" lon="9.259564335867857"><ele>233.0</ele><time>2026-03-29T08:52:26.998Z</time></trkpt><trkpt lat="39.32243291572295" lon="9.259633300701438"><ele>233.00000000000003</ele><time>2026-03-29T08:52:27.998Z</time></trkpt><trkpt lat="39.322528079846734" lon="9.259691006291046"><ele>233.0</ele><time>2026-03-29T08:52:28.998Z</time></trkpt><trkpt lat="39.32261893675283" lon="9.259756923299687"><ele>233.0</ele><time>2026-03-29T08:52:29.998Z</time></trkpt><trkpt lat="39.32269010282923" lon="9.259821845365046"><ele>233.0</ele><time>2026-03-29T08:52:30.998Z</time></trkpt><trkpt lat="39.32274285190238" lon="9.259890891548867"><ele>233.00000000000003</ele><time>2026-03-29T08:52:31.998Z</time></trkpt><trkpt lat="39.32278337014982" lon="9.259970719525764"><ele>233.0</ele><time>2026-03-29T08:52:32.998Z</time></trkpt><trkpt lat="39.322802798468615" lon="9.2600515301737"><ele>234.8</ele><time>2026-03-29T08:52:33.998Z</time></trkpt><trkpt lat="39.32287219021063" lon="9.260163094516571"><ele>236.60000000000002</ele><time>2026-03-29T08:52:35.998Z</time></trkpt><trkpt lat="39.32295293144069" lon="9.260249431729637"><ele>238.39999999999998</ele><time>2026-03-29T08:52:37.998Z</time></trkpt><trkpt lat="39.323000698398666" lon="9.26030379675302"><ele>240.2</ele><time>2026-03-29T08:52:38.998Z</time></trkpt><trkpt lat="39.323049505499704" lon="9.26036155810016"><ele>242.0</ele><time>2026-03-29T08:52:39.998Z</time></trkpt><trkpt lat="39.32317366828735" lon="9.260418584602139"><ele>244.66666666666669</ele><time>2026-03-29T08:52:41.998Z</time></trkpt><trkpt lat="39.32324808843517" lon="9.260416280750157"><ele>247.33333333333334</ele><time>2026-03-29T08:52:42.998Z</time></trkpt><trkpt lat="39.32332405169965" lon="9.26040270874615"><ele>250.0</ele><time>2026-03-29T08:52:43.998Z</time></trkpt><trkpt lat="39.32340176765956" lon="9.260396476348514"><ele>252.66666666666669</ele><time>2026-03-29T08:52:44.998Z</time></trkpt><trkpt lat="39.32348884416813" lon="9.260394648699382"><ele>255.33333333333334</ele><time>2026-03-29T08:52:45.998Z</time></trkpt><trkpt lat="39.32357856830942" lon="9.260386930528398"><ele>258.0</ele><time>2026-03-29T08:52:46.998Z</time></trkpt><trkpt lat="39.323661996487445" lon="9.260395710360378"><ele>258.0</ele><time>2026-03-29T08:52:47.998Z</time></trkpt><trkpt lat="39.32375002109624" lon="9.260430282786617"><ele>258.0</ele><time>2026-03-29T08:52:48.998Z</time></trkpt><trkpt lat="39.32382448455936" lon="9.260472333968316"><ele>258.0</ele><time>2026-03-29T08:52:49.998Z</time></trkpt><trkpt lat="39.32389741016608" lon="9.260515154074355"><ele>258.0</ele><time>2026-03-29T08:52:50.998Z</time></trkpt><trkpt lat="39.323972174979694" lon="9.260540007586021"><ele>258.0</ele><time>2026-03-29T08:52:51.998Z</time></trkpt><trkpt lat="39.32404573990856" lon="9.260580502143299"><ele>258.0</ele><time>2026-03-29T08:52:52.998Z</time></trkpt><trkpt lat="39.324111820856395" lon="9.260621649295775"><ele>258.4</ele><time>2026-03-29T08:52:53.998Z</time></trkpt><trkpt lat="39.32418776481839" lon="9.260682218295806"><ele>258.8</ele><time>2026-03-29T08:52:54.997Z</time></trkpt><trkpt lat="39.32427482769554" lon="9.260744214123843"><ele>259.2</ele><time>2026-03-29T08:52:55.997Z</time></trkpt><trkpt lat="39.32437026770746" lon="9.26079564326401"><ele>259.6</ele><time>2026-03-29T08:52:56.997Z</time></trkpt><trkpt lat="39.32444902339962" lon="9.260824643784783"><ele>260.0</ele><time>2026-03-29T08:52:57.997Z</time></trkpt><trkpt lat="39.324537654222596" lon="9.26086083557583"><ele>260.0</ele><time>2026-03-29T08:52:58.997Z</time></trkpt><trkpt lat="39.324647992927865" lon="9.260916658661545"><ele>260.0</ele><time>2026-03-29T08:52:59.997Z</time></trkpt><trkpt lat="39.32476554894357" lon="9.260973095933497"><ele>260.0</ele><time>2026-03-29T08:53:01Z</time></trkpt><trkpt lat="39.324888544531966" lon="9.26103459518798"><ele>260.0</ele><time>2026-03-29T08:53:02Z</time></trkpt><trkpt lat="39.32499986138173" lon="9.261097311641638"><ele>260.4</ele><time>2026-03-29T08:53:03Z</time></trkpt><trkpt lat="39.32510304574683" lon="9.26115862535678"><ele>260.8</ele><time>2026-03-29T08:53:04Z</time></trkpt><trkpt lat="39.325184106029376" lon="9.26122424935449"><ele>261.2</ele><time>2026-03-29T08:53:05Z</time></trkpt><trkpt lat="39.32526079006737" lon="9.261279145692741"><ele>261.6</ele><time>2026-03-29T08:53:06Z</time></trkpt><trkpt lat="39.32534719323123" lon="9.261301539592388"><ele>262.0</ele><time>2026-03-29T08:53:07Z</time></trkpt><trkpt lat="39.325430554666575" lon="9.261301571128218"><ele>262.0</ele><time>2026-03-29T08:53:08Z</time></trkpt><trkpt lat="39.32550520681318" lon="9.261319986278973"><ele>262.0</ele><time>2026-03-29T08:53:09Z</time></trkpt><trkpt lat="39.325564711865816" lon="9.261359897150841"><ele>262.0</ele><time>2026-03-29T08:53:10Z</time></trkpt><trkpt lat="39.32564537791733" lon="9.261435217803779"><ele>262.0</ele><time>2026-03-29T08:53:12Z</time></trkpt><trkpt lat="39.325756025758096" lon="9.26144595371412"><ele>262.0</ele><time>2026-03-29T08:53:14Z</time></trkpt><trkpt lat="39.32586021705114" lon="9.26149567249795"><ele>265.3333333333333</ele><time>2026-03-29T08:53:16Z</time></trkpt><trkpt lat="39.32591725454426" lon="9.261540461361498"><ele>268.66666666666663</ele><time>2026-03-29T08:53:17Z</time></trkpt><trkpt lat="39.325982229783605" lon="9.261601336901716"><ele>272.0</ele><time>2026-03-29T08:53:18Z</time></trkpt><trkpt lat="39.32605843289177" lon="9.26165440716978"><ele>275.3333333333333</ele><time>2026-03-29T08:53:19Z</time></trkpt><trkpt lat="39.32613008087017" lon="9.26168609013993"><ele>278.6666666666667</ele><time>2026-03-29T08:53:20Z</time></trkpt><trkpt lat="39.32625450074677" lon="9.261691807784448"><ele>282.0</ele><time>2026-03-29T08:53:22Z</time></trkpt><trkpt lat="39.32632898104909" lon="9.261704517273017"><ele>283.3333333333333</ele><time>2026-03-29T08:53:23Z</time></trkpt><trkpt lat="39.326401338239165" lon="9.26172900591802"><ele>284.6666666666667</ele><time>2026-03-29T08:53:24Z</time></trkpt><trkpt lat="39.326466133620144" lon="9.261747647815646"><ele>286.0</ele><time>2026-03-29T08:53:25Z</time></trkpt><trkpt lat="39.3265435001012" lon="9.261755669720946"><ele>287.33333333333337</ele><time>2026-03-29T08:53:26Z</time></trkpt><trkpt lat="39.326633508277155" lon="9.26175265407034"><ele>288.6666666666667</ele><time>2026-03-29T08:53:27Z</time></trkpt><trkpt lat="39.326721378055055" lon="9.261757033093298"><ele>290.0</ele><time>2026-03-29T08:53:28Z</time></trkpt><trkpt lat="39.32680839483163" lon="9.261746471554073"><ele>290.0</ele><time>2026-03-29T08:53:29Z</time></trkpt><trkpt lat="39.326886254955205" lon="9.261740045336273"><ele>290.0</ele><time>2026-03-29T08:53:30Z</time></trkpt><trkpt lat="39.32701681013655" lon="9.261771015931746"><ele>290.0</ele><time>2026-03-29T08:53:32Z</time></trkpt><trkpt lat="39.32708459440754" lon="9.261804304654351"><ele>290.0</ele><time>2026-03-29T08:53:33Z</time></trkpt><trkpt lat="39.32716843890517" lon="9.26184555408345"><ele>290.0</ele><time>2026-03-29T08:53:34Z</time></trkpt><trkpt lat="39.32725615457353" lon="9.26189572407691"><ele>289.0</ele><time>2026-03-29T08:53:35Z</time></trkpt><trkpt lat="39.327347506106314" lon="9.26195056338919"><ele>288.0</ele><time>2026-03-29T08:53:35.999Z</time></trkpt><trkpt lat="39.32744621273624" lon="9.262002616680322"><ele>287.0</ele><time>2026-03-29T08:53:36.999Z</time></trkpt><trkpt lat="39.3275390160466" lon="9.262060377264872"><ele>286.0</ele><time>2026-03-29T08:53:37.999Z</time></trkpt><trkpt lat="39.32761839912985" lon="9.262122061916282"><ele>285.0</ele><time>2026-03-29T08:53:38.999Z</time></trkpt><trkpt lat="39.32770342165033" lon="9.262161764603956"><ele>285.0</ele><time>2026-03-29T08:53:39.999Z</time></trkpt><trkpt lat="39.32778265197728" lon="9.262203467522847"><ele>285.0</ele><time>2026-03-29T08:53:40.999Z</time></trkpt><trkpt lat="39.32784945508739" lon="9.262251123077991"><ele>285.0</ele><time>2026-03-29T08:53:41.999Z</time></trkpt><trkpt lat="39.32797316634953" lon="9.262308621248888"><ele>285.0</ele><time>2026-03-29T08:53:43.999Z</time></trkpt><trkpt lat="39.328037643986654" lon="9.262269133990452"><ele>285.0</ele><time>2026-03-29T08:53:44.999Z</time></trkpt><trkpt lat="39.32810291160911" lon="9.262190088111911"><ele>284.8333333333333</ele><time>2026-03-29T08:53:45.999Z</time></trkpt><trkpt lat="39.3281738104656" lon="9.262125925660312"><ele>284.6666666666667</ele><time>2026-03-29T08:53:46.999Z</time></trkpt><trkpt lat="39.32824107145953" lon="9.262079671122947"><ele>284.5</ele><time>2026-03-29T08:53:47.999Z</time></trkpt><trkpt lat="39.328304003873576" lon="9.262056854658544"><ele>284.33333333333337</ele><time>2026-03-29T08:53:48.999Z</time></trkpt><trkpt lat="39.32840991648134" lon="9.26205794710804"><ele>284.1666666666667</ele><time>2026-03-29T08:53:50.999Z</time></trkpt><trkpt lat="39.328501195945066" lon="9.26198055253828"><ele>284.0</ele><time>2026-03-29T08:53:52.999Z</time></trkpt><trkpt lat="39.32854589019219" lon="9.261916925794578"><ele>284.0</ele><time>2026-03-29T08:53:53.999Z</time></trkpt><trkpt lat="39.32860728121538" lon="9.26187135871772"><ele>284.0</ele><time>2026-03-29T08:53:54.999Z</time></trkpt><trkpt lat="39.328691144626305" lon="9.261832981574285"><ele>284.0</ele><time>2026-03-29T08:53:55.999Z</time></trkpt><trkpt lat="39.328778477826944" lon="9.26178578836501"><ele>284.0</ele><time>2026-03-29T08:53:56.999Z</time></trkpt><trkpt lat="39.3288780624506" lon="9.261743931372433"><ele>284.0</ele><time>2026-03-29T08:53:58.999Z</time></trkpt><trkpt lat="39.32898495640197" lon="9.261764731937339"><ele>287.2</ele><time>2026-03-29T08:54:00.999Z</time></trkpt><trkpt lat="39.32907968420824" lon="9.261728964804334"><ele>290.4</ele><time>2026-03-29T08:54:02.999Z</time></trkpt><trkpt lat="39.32923815650752" lon="9.261707003666356"><ele>293.6</ele><time>2026-03-29T08:54:03.999Z</time></trkpt><trkpt lat="39.32932134394654" lon="9.261720923414137"><ele>296.8</ele><time>2026-03-29T08:54:04.999Z</time></trkpt><trkpt lat="39.32939762891522" lon="9.261772366698697"><ele>300.0</ele><time>2026-03-29T08:54:05.999Z</time></trkpt><trkpt lat="39.32945487893302" lon="9.261833419792247"><ele>300.0</ele><time>2026-03-29T08:54:06.999Z</time></trkpt><trkpt lat="39.32950833897864" lon="9.26191691895343"><ele>300.0</ele><time>2026-03-29T08:54:07.999Z</time></trkpt><trkpt lat="39.329547394771275" lon="9.26199686414827"><ele>300.0</ele><time>2026-03-29T08:54:08.999Z</time></trkpt><trkpt lat="39.32953867099496" lon="9.262113653832913"><ele>300.0</ele><time>2026-03-29T08:54:09.999Z</time></trkpt><trkpt lat="39.32955687127246" lon="9.262205694848236"><ele>300.0</ele><time>2026-03-29T08:54:10.999Z</time></trkpt><trkpt lat="39.32952337049501" lon="9.262289127810249"><ele>300.0</ele><time>2026-03-29T08:54:11.999Z</time></trkpt><trkpt lat="39.3294225751695" lon="9.262289467905697"><ele>298.8</ele><time>2026-03-29T08:54:13.999Z</time></trkpt><trkpt lat="39.32930709341483" lon="9.262362603644654"><ele>297.6</ele><time>2026-03-29T08:54:15.998Z</time></trkpt><trkpt lat="39.32927219868773" lon="9.262439939872213"><ele>296.4</ele><time>2026-03-29T08:54:17.998Z</time></trkpt><trkpt lat="39.329249019048326" lon="9.262598382378362"><ele>295.2</ele><time>2026-03-29T08:54:19.998Z</time></trkpt><trkpt lat="39.32922916145918" lon="9.262706497105203"><ele>294.0</ele><time>2026-03-29T08:54:20.998Z</time></trkpt><trkpt lat="39.3292672152884" lon="9.262854573735853"><ele>294.0</ele><time>2026-03-29T08:54:22.998Z</time></trkpt><trkpt lat="39.329312353123576" lon="9.262921260093584"><ele>294.0</ele><time>2026-03-29T08:54:23.998Z</time></trkpt><trkpt lat="39.32937955829238" lon="9.26300276502405"><ele>294.0</ele><time>2026-03-29T08:54:24.998Z</time></trkpt><trkpt lat="39.32948143412499" lon="9.263085365840366"><ele>294.0</ele><time>2026-03-29T08:54:25.998Z</time></trkpt><trkpt lat="39.329564458095284" lon="9.263158332307642"><ele>294.0</ele><time>2026-03-29T08:54:26.998Z</time></trkpt><trkpt lat="39.329663186827496" lon="9.263214874487993"><ele>295.0</ele><time>2026-03-29T08:54:27.998Z</time></trkpt><trkpt lat="39.32975912594945" lon="9.263275323034247"><ele>296.0</ele><time>2026-03-29T08:54:28.998Z</time></trkpt><trkpt lat="39.32983651361875" lon="9.263342261037625"><ele>297.0</ele><time>2026-03-29T08:54:29.998Z</time></trkpt><trkpt lat="39.329901365475926" lon="9.263428849058789"><ele>298.0</ele><time>2026-03-29T08:54:30.998Z</time></trkpt><trkpt lat="39.32997831257243" lon="9.263502995357392"><ele>299.0</ele><time>2026-03-29T08:54:31.998Z</time></trkpt><trkpt lat="39.330048699159185" lon="9.263563846686463"><ele>299.0</ele><time>2026-03-29T08:54:32.998Z</time></trkpt><trkpt lat="39.33011517868731" lon="9.263620608313646"><ele>299.0</ele><time>2026-03-29T08:54:33.998Z</time></trkpt><trkpt lat="39.330184537084506" lon="9.263676712718505"><ele>299.0</ele><time>2026-03-29T08:54:34.998Z</time></trkpt><trkpt lat="39.330251180100255" lon="9.263717314248076"><ele>299.0</ele><time>2026-03-29T08:54:35.998Z</time></trkpt><trkpt lat="39.33030925440945" lon="9.26376679583315"><ele>299.0</ele><time>2026-03-29T08:54:36.998Z</time></trkpt><trkpt lat="39.33036698897503" lon="9.263806794582441"><ele>299.0</ele><time>2026-03-29T08:54:37.998Z</time></trkpt><trkpt lat="39.330444620324776" lon="9.263822966076098"><ele>299.0</ele><time>2026-03-29T08:54:38.998Z</time></trkpt><trkpt lat="39.33053226330809" lon="9.26383220642587"><ele>298.42857142857144</ele><time>2026-03-29T08:54:39.998Z</time></trkpt><trkpt lat="39.33061488954785" lon="9.26382238730909"><ele>297.8571428571429</ele><time>2026-03-29T08:54:40.998Z</time></trkpt><trkpt lat="39.33068735407247" lon="9.263798848302514"><ele>297.28571428571433</ele><time>2026-03-29T08:54:41.998Z</time></trkpt><trkpt lat="39.33074619580086" lon="9.263756632342183"><ele>296.7142857142857</ele><time>2026-03-29T08:54:42.998Z</time></trkpt><trkpt lat="39.33082217817696" lon="9.263720946904002"><ele>296.14285714285717</ele><time>2026-03-29T08:54:44.998Z</time></trkpt><trkpt lat="39.330869459165484" lon="9.263794878254162"><ele>295.5714285714286</ele><time>2026-03-29T08:54:46.998Z</time></trkpt><trkpt lat="39.33085447733666" lon="9.26387707374123"><ele>295.0</ele><time>2026-03-29T08:54:49.998Z</time></trkpt><trkpt lat="39.33080929839655" lon="9.264048861396901"><ele>295.0</ele><time>2026-03-29T08:54:51.998Z</time></trkpt><trkpt lat="39.33079360960396" lon="9.264129776107076"><ele>295.0</ele><time>2026-03-29T08:54:52.998Z</time></trkpt><trkpt lat="39.33080751573908" lon="9.264218698940134"><ele>295.0</ele><time>2026-03-29T08:54:53.998Z</time></trkpt><trkpt lat="39.33082791732187" lon="9.264299792813981"><ele>295.0</ele><time>2026-03-29T08:54:54.998Z</time></trkpt><trkpt lat="39.33097565126098" lon="9.2643407116814"><ele>295.0</ele><time>2026-03-29T08:54:58.997Z</time></trkpt><trkpt lat="39.330993321892535" lon="9.264448946740897"><ele>295.0</ele><time>2026-03-29T08:55:01.997Z</time></trkpt><trkpt lat="39.33097907799085" lon="9.264549073941282"><ele>295.0</ele><time>2026-03-29T08:55:04.997Z</time></trkpt><trkpt lat="39.3309429169999" lon="9.264625676032468"><ele>295.0</ele><time>2026-03-29T08:55:07Z</time></trkpt><trkpt lat="39.33093795389546" lon="9.264735161723076"><ele>295.0</ele><time>2026-03-29T08:55:10Z</time></trkpt><trkpt lat="39.33095720643509" lon="9.264840286505711"><ele>295.0</ele><time>2026-03-29T08:55:14Z</time></trkpt><trkpt lat="39.330996571702784" lon="9.26492428959471"><ele>295.0</ele><time>2026-03-29T08:55:19Z</time></trkpt><trkpt lat="39.3310350956968" lon="9.264990293827042"><ele>295.0</ele><time>2026-03-29T08:55:21Z</time></trkpt><trkpt lat="39.331066218723045" lon="9.26508422423603"><ele>295.8571428571429</ele><time>2026-03-29T08:56:34.998Z</time></trkpt><trkpt lat="39.331085502013515" lon="9.265195199762017"><ele>296.7142857142857</ele><time>2026-03-29T08:56:41.998Z</time></trkpt><trkpt lat="39.33106332877967" lon="9.26528551050251"><ele>297.57142857142856</ele><time>2026-03-29T08:56:43.998Z</time></trkpt><trkpt lat="39.33105494449837" lon="9.265369276465352"><ele>298.42857142857144</ele><time>2026-03-29T08:56:47.998Z</time></trkpt><trkpt lat="39.33102429831724" lon="9.265458857478084"><ele>299.2857142857143</ele><time>2026-03-29T08:56:56.998Z</time></trkpt><trkpt lat="39.33100080331572" lon="9.265542093747246"><ele>300.14285714285717</ele><time>2026-03-29T09:00:03.999Z</time></trkpt><trkpt lat="39.33100818225525" lon="9.265630212569532"><ele>301.0</ele><time>2026-03-29T09:00:11.999Z</time></trkpt><trkpt lat="39.331072674359625" lon="9.265663096400809"><ele>303.85714285714283</ele><time>2026-03-29T09:00:15.999Z</time></trkpt><trkpt lat="39.33113237916965" lon="9.265690669783005"><ele>306.7142857142857</ele><time>2026-03-29T09:00:18.999Z</time></trkpt><trkpt lat="39.33120403715067" lon="9.265734687255465"><ele>309.57142857142856</ele><time>2026-03-29T09:00:21.999Z</time></trkpt><trkpt lat="39.331259237254" lon="9.265784007824415"><ele>312.42857142857144</ele><time>2026-03-29T09:00:41.998Z</time></trkpt><trkpt lat="39.33132301080127" lon="9.265813120097025"><ele>315.2857142857143</ele><time>2026-03-29T09:00:47.998Z</time></trkpt><trkpt lat="39.33138957102026" lon="9.265824769435609"><ele>318.1428571428571</ele><time>2026-03-29T09:00:49.998Z</time></trkpt><trkpt lat="39.331459655812196" lon="9.265820803100059"><ele>321.0</ele><time>2026-03-29T09:00:52.998Z</time></trkpt><trkpt lat="39.331525518100534" lon="9.26586501626562"><ele>322.20000000000005</ele><time>2026-03-29T09:00:57.998Z</time></trkpt><trkpt lat="39.33161194560182" lon="9.265866023940157"><ele>323.40000000000003</ele><time>2026-03-29T09:01:05.998Z</time></trkpt><trkpt lat="39.331712743668795" lon="9.265988577500774"><ele>324.6</ele><time>2026-03-29T09:02:21.999Z</time></trkpt><trkpt lat="39.331783195354966" lon="9.266021005379054"><ele>325.8</ele><time>2026-03-29T09:02:25.999Z</time></trkpt><trkpt lat="39.33184767154457" lon="9.266093676621237"><ele>327.0</ele><time>2026-03-29T09:03:50Z</time></trkpt><trkpt lat="39.33187068020485" lon="9.266184102548936"><ele>327.0</ele><time>2026-03-29T09:03:52Z</time></trkpt><trkpt lat="39.33183635653525" lon="9.266260848169388"><ele>327.0</ele><time>2026-03-29T09:03:54Z</time></trkpt><trkpt lat="39.331761060103936" lon="9.266351624506589"><ele>327.0</ele><time>2026-03-29T09:03:56Z</time></trkpt><trkpt lat="39.331788552240084" lon="9.266428468699699"><ele>327.0</ele><time>2026-03-29T09:03:58Z</time></trkpt><trkpt lat="39.33184664469109" lon="9.26646219763027"><ele>327.0</ele><time>2026-03-29T09:08:11Z</time></trkpt><trkpt lat="39.33194388544872" lon="9.266503215920695"><ele>327.0</ele><time>2026-03-29T09:08:13Z</time></trkpt><trkpt lat="39.33203640644984" lon="9.266500610401145"><ele>328.8</ele><time>2026-03-29T09:08:14.999Z</time></trkpt><trkpt lat="39.33212552674601" lon="9.266508937768926"><ele>330.6</ele><time>2026-03-29T09:08:16.999Z</time></trkpt><trkpt lat="39.33224195345955" lon="9.266571421399211"><ele>332.40000000000003</ele><time>2026-03-29T09:08:19.999Z</time></trkpt><trkpt lat="39.33229642392994" lon="9.266620515502535"><ele>334.20000000000005</ele><time>2026-03-29T09:08:20.999Z</time></trkpt><trkpt lat="39.33235384049527" lon="9.266669616611589"><ele>336.0</ele><time>2026-03-29T09:08:21.999Z</time></trkpt><trkpt lat="39.332418234481516" lon="9.26681050034954"><ele>336.8333333333333</ele><time>2026-03-29T09:08:23.999Z</time></trkpt><trkpt lat="39.33244576874501" lon="9.266888460609838"><ele>337.6666666666667</ele><time>2026-03-29T09:08:24.999Z</time></trkpt><trkpt lat="39.33250090190566" lon="9.267003235184868"><ele>338.5</ele><time>2026-03-29T09:08:26.999Z</time></trkpt><trkpt lat="39.33257568083708" lon="9.267047804678244"><ele>339.33333333333337</ele><time>2026-03-29T09:08:28.999Z</time></trkpt><trkpt lat="39.332658545835976" lon="9.267047035177194"><ele>340.1666666666667</ele><time>2026-03-29T09:08:31.999Z</time></trkpt><trkpt lat="39.33276610851646" lon="9.267046863334592"><ele>341.0</ele><time>2026-03-29T09:08:34.999Z</time></trkpt><trkpt lat="39.33290540603688" lon="9.267068590949098"><ele>341.0</ele><time>2026-03-29T09:08:35.999Z</time></trkpt><trkpt lat="39.33292948925815" lon="9.267181151596215"><ele>341.0</ele><time>2026-03-29T09:08:37.999Z</time></trkpt><trkpt lat="39.33300381094535" lon="9.26720539761934"><ele>341.0</ele><time>2026-03-29T09:08:39.999Z</time></trkpt><trkpt lat="39.33307329803081" lon="9.26724381985129"><ele>341.0</ele><time>2026-03-29T09:08:41.999Z</time></trkpt><trkpt lat="39.333137704098014" lon="9.267240039109012"><ele>341.0</ele><time>2026-03-29T09:08:43.999Z</time></trkpt><trkpt lat="39.333217309620224" lon="9.267300239923122"><ele>341.0</ele><time>2026-03-29T09:08:45.999Z</time></trkpt><trkpt lat="39.33328661054095" lon="9.267319294363462"><ele>339.5</ele><time>2026-03-29T09:08:47.999Z</time></trkpt><trkpt lat="39.333351155071526" lon="9.267367755737741"><ele>338.0</ele><time>2026-03-29T09:08:50.999Z</time></trkpt><trkpt lat="39.33342635645307" lon="9.267430664920045"><ele>336.5</ele><time>2026-03-29T09:08:52.999Z</time></trkpt><trkpt lat="39.33351745444345" lon="9.267514939137232"><ele>335.0</ele><time>2026-03-29T09:08:54.998Z</time></trkpt><trkpt lat="39.33359046787727" lon="9.267552590126753"><ele>333.5</ele><time>2026-03-29T09:08:55.998Z</time></trkpt><trkpt lat="39.33365655026049" lon="9.267590132708534"><ele>332.0</ele><time>2026-03-29T09:08:56.998Z</time></trkpt><trkpt lat="39.33369095710198" lon="9.267659985688965"><ele>332.0</ele><time>2026-03-29T09:08:59.998Z</time></trkpt><trkpt lat="39.33374821860744" lon="9.267732363593986"><ele>332.0</ele><time>2026-03-29T09:09:00.998Z</time></trkpt><trkpt lat="39.333840165063485" lon="9.267839852173834"><ele>332.0</ele><time>2026-03-29T09:09:01.998Z</time></trkpt><trkpt lat="39.333895415182326" lon="9.267905116656847"><ele>332.0</ele><time>2026-03-29T09:09:02.998Z</time></trkpt><trkpt lat="39.333938129994806" lon="9.26798325223458"><ele>332.0</ele><time>2026-03-29T09:09:03.998Z</time></trkpt><trkpt lat="39.33395751817258" lon="9.268080898280461"><ele>332.0</ele><time>2026-03-29T09:09:04.998Z</time></trkpt><trkpt lat="39.33395482372397" lon="9.268200448004695"><ele>330.20000000000005</ele><time>2026-03-29T09:09:05.998Z</time></trkpt><trkpt lat="39.33387200114313" lon="9.268349059262938"><ele>328.4</ele><time>2026-03-29T09:09:06.998Z</time></trkpt><trkpt lat="39.33389813411313" lon="9.268472394850718"><ele>326.6</ele><time>2026-03-29T09:09:07.998Z</time></trkpt><trkpt lat="39.33392235055317" lon="9.268587990081183"><ele>324.79999999999995</ele><time>2026-03-29T09:09:08.998Z</time></trkpt><trkpt lat="39.33392752400277" lon="9.268686838786323"><ele>323.0</ele><time>2026-03-29T09:09:09.998Z</time></trkpt><trkpt lat="39.33391904462962" lon="9.268781266850862"><ele>323.0</ele><time>2026-03-29T09:09:10.998Z</time></trkpt><trkpt lat="39.3338858775682" lon="9.268876040623885"><ele>323.0</ele><time>2026-03-29T09:09:12.998Z</time></trkpt><trkpt lat="39.33395607642194" lon="9.268954336504612"><ele>323.0</ele><time>2026-03-29T09:09:15.998Z</time></trkpt><trkpt lat="39.333969216292154" lon="9.268853445439273"><ele>323.0</ele><time>2026-03-29T09:09:49Z</time></trkpt><trkpt lat="39.33387288628125" lon="9.268773080032865"><ele>323.0</ele><time>2026-03-29T09:09:51Z</time></trkpt><trkpt lat="39.333800903353705" lon="9.26872319193479"><ele>323.0</ele><time>2026-03-29T09:09:52Z</time></trkpt><trkpt lat="39.33372260659499" lon="9.268714264335037"><ele>323.0</ele><time>2026-03-29T09:09:54Z</time></trkpt><trkpt lat="39.33365941792675" lon="9.268808896752844"><ele>323.0</ele><time>2026-03-29T09:09:57Z</time></trkpt><trkpt lat="39.3335629670884" lon="9.268836547505538"><ele>323.0</ele><time>2026-03-29T09:09:59Z</time></trkpt><trkpt lat="39.333507463966825" lon="9.268889743207657"><ele>323.0</ele><time>2026-03-29T09:10:01Z</time></trkpt><trkpt lat="39.333509753748224" lon="9.268982655963777"><ele>323.0</ele><time>2026-03-29T09:10:04Z</time></trkpt><trkpt lat="39.33355457816759" lon="9.26905433197068"><ele>323.0</ele><time>2026-03-29T09:10:06Z</time></trkpt><trkpt lat="39.3335921823804" lon="9.26913372836902"><ele>323.59999999999997</ele><time>2026-03-29T09:10:08Z</time></trkpt><trkpt lat="39.33359827623834" lon="9.269240634414938"><ele>324.2</ele><time>2026-03-29T09:10:10Z</time></trkpt><trkpt lat="39.333610267021456" lon="9.269341224538637"><ele>324.8</ele><time>2026-03-29T09:10:12Z</time></trkpt><trkpt lat="39.333589953850804" lon="9.26947097750036"><ele>325.4</ele><time>2026-03-29T09:10:14Z</time></trkpt><trkpt lat="39.33358639924595" lon="9.269574972841433"><ele>326.0</ele><time>2026-03-29T09:10:16Z</time></trkpt><trkpt lat="39.33353091778605" lon="9.269713254567243"><ele>324.5</ele><time>2026-03-29T09:10:18Z</time></trkpt><trkpt lat="39.3334942532663" lon="9.26978912265317"><ele>323.0</ele><time>2026-03-29T09:10:19Z</time></trkpt><trkpt lat="39.33342027628246" lon="9.269845932092228"><ele>321.5</ele><time>2026-03-29T09:10:20Z</time></trkpt><trkpt lat="39.33337095206908" lon="9.269930298684496"><ele>320.0</ele><time>2026-03-29T09:10:20.999Z</time></trkpt><trkpt lat="39.33333038978447" lon="9.270043197335612"><ele>318.5</ele><time>2026-03-29T09:10:21.999Z</time></trkpt><trkpt lat="39.33332121525964" lon="9.270148194997807"><ele>317.0</ele><time>2026-03-29T09:10:22.999Z</time></trkpt><trkpt lat="39.333312243658355" lon="9.270312136569949"><ele>317.0</ele><time>2026-03-29T09:10:24.999Z</time></trkpt><trkpt lat="39.333304931449455" lon="9.270404126127715"><ele>317.0</ele><time>2026-03-29T09:10:25.999Z</time></trkpt><trkpt lat="39.33328984543187" lon="9.270513943365977"><ele>317.0</ele><time>2026-03-29T09:10:26.999Z</time></trkpt><trkpt lat="39.333281064121444" lon="9.270617071934113"><ele>317.0</ele><time>2026-03-29T09:10:27.999Z</time></trkpt><trkpt lat="39.333285599601254" lon="9.270704112727584"><ele>317.0</ele><time>2026-03-29T09:10:28.999Z</time></trkpt><trkpt lat="39.333288402602015" lon="9.270793887712804"><ele>317.0</ele><time>2026-03-29T09:10:29.999Z</time></trkpt><trkpt lat="39.33327282046315" lon="9.270933385994159"><ele>317.6</ele><time>2026-03-29T09:10:31.999Z</time></trkpt><trkpt lat="39.33319127777712" lon="9.271009716557181"><ele>318.2</ele><time>2026-03-29T09:10:33.999Z</time></trkpt><trkpt lat="39.33311456620288" lon="9.27093439041712"><ele>318.8</ele><time>2026-03-29T09:10:35.999Z</time></trkpt><trkpt lat="39.33304596159803" lon="9.27081383795559"><ele>319.4</ele><time>2026-03-29T09:10:37.999Z</time></trkpt><trkpt lat="39.33298862137664" lon="9.270696034727855"><ele>320.0</ele><time>2026-03-29T09:10:39.999Z</time></trkpt><trkpt lat="39.33294796753569" lon="9.27062927179728"><ele>317.2</ele><time>2026-03-29T09:10:40.999Z</time></trkpt><trkpt lat="39.33287436834198" lon="9.270535029795266"><ele>314.4</ele><time>2026-03-29T09:10:43.999Z</time></trkpt><trkpt lat="39.332787128085485" lon="9.27041845819222"><ele>311.6</ele><time>2026-03-29T09:10:45.999Z</time></trkpt><trkpt lat="39.33274445404621" lon="9.27034819629188"><ele>308.8</ele><time>2026-03-29T09:10:46.999Z</time></trkpt><trkpt lat="39.33270178867798" lon="9.270275721444948"><ele>306.0</ele><time>2026-03-29T09:10:47.999Z</time></trkpt><trkpt lat="39.332631829614606" lon="9.270205980781855"><ele>306.0</ele><time>2026-03-29T09:10:49.999Z</time></trkpt><trkpt lat="39.33255994539847" lon="9.27016143122248"><ele>306.0</ele><time>2026-03-29T09:10:52.999Z</time></trkpt><trkpt lat="39.33250721119682" lon="9.270083361953397"><ele>306.0</ele><time>2026-03-29T09:10:54.999Z</time></trkpt><trkpt lat="39.3324464646784" lon="9.269987117541977"><ele>306.0</ele><time>2026-03-29T09:10:56.999Z</time></trkpt><trkpt lat="39.33236854370524" lon="9.269888605848164"><ele>306.0</ele><time>2026-03-29T09:10:58.998Z</time></trkpt><trkpt lat="39.332309651068144" lon="9.269838427182586"><ele>306.0</ele><time>2026-03-29T09:10:59.998Z</time></trkpt><trkpt lat="39.332241100425556" lon="9.26978543570153"><ele>303.57142857142856</ele><time>2026-03-29T09:11:00.998Z</time></trkpt><trkpt lat="39.33217645284957" lon="9.269733187281666"><ele>301.14285714285717</ele><time>2026-03-29T09:11:01.998Z</time></trkpt><trkpt lat="39.332119203619435" lon="9.269680411052263"><ele>298.7142857142857</ele><time>2026-03-29T09:11:02.998Z</time></trkpt><trkpt lat="39.33205692878144" lon="9.26963802376203"><ele>296.2857142857143</ele><time>2026-03-29T09:11:03.998Z</time></trkpt><trkpt lat="39.3319928077892" lon="9.26959483863596"><ele>293.85714285714283</ele><time>2026-03-29T09:11:04.998Z</time></trkpt><trkpt lat="39.3319281267296" lon="9.269540930492093"><ele>291.42857142857144</ele><time>2026-03-29T09:11:05.998Z</time></trkpt><trkpt lat="39.33186820310667" lon="9.26947864230503"><ele>289.0</ele><time>2026-03-29T09:11:06.998Z</time></trkpt><trkpt lat="39.33182097650019" lon="9.269422012477195"><ele>289.0</ele><time>2026-03-29T09:11:07.998Z</time></trkpt><trkpt lat="39.331707869573535" lon="9.26936904448866"><ele>289.0</ele><time>2026-03-29T09:11:09.998Z</time></trkpt><trkpt lat="39.33163636181441" lon="9.26936175591786"><ele>289.0</ele><time>2026-03-29T09:11:10.998Z</time></trkpt><trkpt lat="39.33156452950162" lon="9.269349358271619"><ele>289.0</ele><time>2026-03-29T09:11:11.998Z</time></trkpt><trkpt lat="39.33149122391757" lon="9.26933503193653"><ele>289.0</ele><time>2026-03-29T09:11:12.998Z</time></trkpt><trkpt lat="39.33142353776014" lon="9.269315762659309"><ele>289.0</ele><time>2026-03-29T09:11:13.998Z</time></trkpt><trkpt lat="39.33136297501369" lon="9.269277799829105"><ele>287.5</ele><time>2026-03-29T09:11:14.998Z</time></trkpt><trkpt lat="39.331312059613445" lon="9.269227750999859"><ele>286.0</ele><time>2026-03-29T09:11:15.998Z</time></trkpt><trkpt lat="39.331269897702434" lon="9.269166793512706"><ele>284.5</ele><time>2026-03-29T09:11:16.998Z</time></trkpt><trkpt lat="39.331222496369634" lon="9.269111022599393"><ele>283.0</ele><time>2026-03-29T09:11:17.998Z</time></trkpt><trkpt lat="39.33110714516233" lon="9.269077109308279"><ele>281.5</ele><time>2026-03-29T09:11:19.998Z</time></trkpt><trkpt lat="39.3309806635721" lon="9.269052596632095"><ele>280.0</ele><time>2026-03-29T09:11:21.998Z</time></trkpt><trkpt lat="39.33090430467086" lon="9.269042617769479"><ele>280.0</ele><time>2026-03-29T09:11:22.998Z</time></trkpt><trkpt lat="39.33081238823604" lon="9.269044268642089"><ele>280.0</ele><time>2026-03-29T09:11:23.998Z</time></trkpt><trkpt lat="39.330728879783905" lon="9.269016346067218"><ele>280.0</ele><time>2026-03-29T09:11:24.998Z</time></trkpt><trkpt lat="39.330655309130094" lon="9.268983151689111"><ele>280.0</ele><time>2026-03-29T09:11:25.998Z</time></trkpt><trkpt lat="39.33058183020361" lon="9.268951475758211"><ele>280.0</ele><time>2026-03-29T09:11:26.998Z</time></trkpt><trkpt lat="39.33051839987656" lon="9.26891471448408"><ele>280.0</ele><time>2026-03-29T09:11:27.998Z</time></trkpt><trkpt lat="39.330453040830974" lon="9.268866033656568"><ele>278.5</ele><time>2026-03-29T09:11:28.998Z</time></trkpt><trkpt lat="39.33037990848066" lon="9.268805730194504"><ele>277.0</ele><time>2026-03-29T09:11:29.998Z</time></trkpt><trkpt lat="39.330295939272474" lon="9.268770015757484"><ele>275.5</ele><time>2026-03-29T09:11:30.998Z</time></trkpt><trkpt lat="39.33022023531313" lon="9.268754373571374"><ele>274.0</ele><time>2026-03-29T09:11:31.998Z</time></trkpt><trkpt lat="39.33015517601022" lon="9.268760440878552"><ele>272.5</ele><time>2026-03-29T09:11:32.998Z</time></trkpt><trkpt lat="39.33009171747489" lon="9.268758336683902"><ele>271.0</ele><time>2026-03-29T09:11:33.998Z</time></trkpt><trkpt lat="39.329986816113625" lon="9.268662345756319"><ele>271.0</ele><time>2026-03-29T09:11:35.998Z</time></trkpt><trkpt lat="39.32991282464828" lon="9.268605632769011"><ele>271.0</ele><time>2026-03-29T09:11:36.998Z</time></trkpt><trkpt lat="39.329830385765334" lon="9.268571256959373"><ele>271.0</ele><time>2026-03-29T09:11:37.998Z</time></trkpt><trkpt lat="39.32975114501588" lon="9.268572207710946"><ele>271.0</ele><time>2026-03-29T09:11:38.997Z</time></trkpt><trkpt lat="39.329675068386805" lon="9.268589091706533"><ele>271.0</ele><time>2026-03-29T09:11:39.997Z</time></trkpt><trkpt lat="39.329586378681014" lon="9.26860256804292"><ele>271.0</ele><time>2026-03-29T09:11:40.997Z</time></trkpt><trkpt lat="39.32949516037562" lon="9.268610276165026"><ele>270.16666666666663</ele><time>2026-03-29T09:11:41.997Z</time></trkpt><trkpt lat="39.32940899839249" lon="9.268605950522971"><ele>269.3333333333333</ele><time>2026-03-29T09:11:42.997Z</time></trkpt><trkpt lat="39.32933120082864" lon="9.268607359883905"><ele>268.5</ele><time>2026-03-29T09:11:43.997Z</time></trkpt><trkpt lat="39.329260420542596" lon="9.268632041080219"><ele>267.6666666666667</ele><time>2026-03-29T09:11:44.997Z</time></trkpt><trkpt lat="39.32918972173257" lon="9.268677681966624"><ele>266.83333333333337</ele><time>2026-03-29T09:11:45.997Z</time></trkpt><trkpt lat="39.32911614927972" lon="9.268715768146148"><ele>266.0</ele><time>2026-03-29T09:11:46.997Z</time></trkpt><trkpt lat="39.329050485579394" lon="9.268716397682534"><ele>266.0</ele><time>2026-03-29T09:11:47.997Z</time></trkpt><trkpt lat="39.32899643301902" lon="9.268673088154232"><ele>266.0</ele><time>2026-03-29T09:11:48.997Z</time></trkpt><trkpt lat="39.32895505628276" lon="9.268611321860273"><ele>266.0</ele><time>2026-03-29T09:11:50.997Z</time></trkpt><trkpt lat="39.328918840692964" lon="9.268517448854839"><ele>266.0</ele><time>2026-03-29T09:11:55Z</time></trkpt><trkpt lat="39.328882350582774" lon="9.26844840480669"><ele>266.0</ele><time>2026-03-29T09:12:01Z</time></trkpt><trkpt lat="39.32874127470573" lon="9.268513643568829"><ele>266.0</ele><time>2026-03-29T09:12:04Z</time></trkpt><trkpt lat="39.32864566208333" lon="9.268471833620325"><ele>264.2</ele><time>2026-03-29T09:12:05Z</time></trkpt><trkpt lat="39.328564919287345" lon="9.268474385452633"><ele>262.40000000000003</ele><time>2026-03-29T09:12:06Z</time></trkpt><trkpt lat="39.32848251548967" lon="9.268463631410768"><ele>260.6</ele><time>2026-03-29T09:12:07Z</time></trkpt><trkpt lat="39.328386772302466" lon="9.268438824084996"><ele>258.8</ele><time>2026-03-29T09:12:08Z</time></trkpt><trkpt lat="39.32829950842853" lon="9.268409902965027"><ele>257.0</ele><time>2026-03-29T09:12:09Z</time></trkpt><trkpt lat="39.328207206059226" lon="9.268358709680538"><ele>257.0</ele><time>2026-03-29T09:12:10Z</time></trkpt><trkpt lat="39.3281168128452" lon="9.268332627816486"><ele>257.0</ele><time>2026-03-29T09:12:11Z</time></trkpt><trkpt lat="39.328015240065305" lon="9.26831258745789"><ele>257.0</ele><time>2026-03-29T09:12:12Z</time></trkpt><trkpt lat="39.3278828516288" lon="9.268282328785128"><ele>257.0</ele><time>2026-03-29T09:12:13Z</time></trkpt><trkpt lat="39.327764395200674" lon="9.2682589356521"><ele>256.2</ele><time>2026-03-29T09:12:14Z</time></trkpt><trkpt lat="39.32768404492076" lon="9.268237706598912"><ele>255.39999999999998</ele><time>2026-03-29T09:12:15Z</time></trkpt><trkpt lat="39.32761406449466" lon="9.26814528665622"><ele>254.60000000000002</ele><time>2026-03-29T09:12:16Z</time></trkpt><trkpt lat="39.3275652973704" lon="9.26801945022596"><ele>253.8</ele><time>2026-03-29T09:12:17Z</time></trkpt><trkpt lat="39.32746946492636" lon="9.267952797132804"><ele>253.0</ele><time>2026-03-29T09:12:18Z</time></trkpt><trkpt lat="39.327416193363234" lon="9.267783215761073"><ele>253.0</ele><time>2026-03-29T09:12:19Z</time></trkpt><trkpt lat="39.327303766040714" lon="9.267671197184361"><ele>253.0</ele><time>2026-03-29T09:12:20Z</time></trkpt><trkpt lat="39.327184693342964" lon="9.267578703184043"><ele>253.0</ele><time>2026-03-29T09:12:21Z</time></trkpt><trkpt lat="39.32708506904042" lon="9.26750165301332"><ele>253.0</ele><time>2026-03-29T09:12:22Z</time></trkpt><trkpt lat="39.32697278407837" lon="9.267415683527528"><ele>250.5</ele><time>2026-03-29T09:12:23Z</time></trkpt><trkpt lat="39.326891884855215" lon="9.267312267161017"><ele>248.0</ele><time>2026-03-29T09:12:24Z</time></trkpt><trkpt lat="39.32680834039747" lon="9.2672026325196"><ele>245.5</ele><time>2026-03-29T09:12:25Z</time></trkpt><trkpt lat="39.32672242545252" lon="9.267092764123616"><ele>243.0</ele><time>2026-03-29T09:12:25.999Z</time></trkpt><trkpt lat="39.326616647007924" lon="9.26702762017341"><ele>243.0</ele><time>2026-03-29T09:12:26.999Z</time></trkpt><trkpt lat="39.326537225127495" lon="9.267002349559853"><ele>243.0</ele><time>2026-03-29T09:12:27.999Z</time></trkpt><trkpt lat="39.32647122377997" lon="9.26698356594693"><ele>243.0</ele><time>2026-03-29T09:12:28.999Z</time></trkpt><trkpt lat="39.32640109697608" lon="9.267008472364138"><ele>243.0</ele><time>2026-03-29T09:12:29.999Z</time></trkpt><trkpt lat="39.32632469383667" lon="9.267073253898324"><ele>243.0</ele><time>2026-03-29T09:12:30.999Z</time></trkpt><trkpt lat="39.32625277526546" lon="9.267158303517716"><ele>243.0</ele><time>2026-03-29T09:12:31.999Z</time></trkpt><trkpt lat="39.32616983019301" lon="9.26724493345527"><ele>240.4</ele><time>2026-03-29T09:12:32.999Z</time></trkpt><trkpt lat="39.3260927698694" lon="9.267327924458515"><ele>237.8</ele><time>2026-03-29T09:12:33.999Z</time></trkpt><trkpt lat="39.32602893591627" lon="9.267396909818755"><ele>235.2</ele><time>2026-03-29T09:12:34.999Z</time></trkpt><trkpt lat="39.32593343571936" lon="9.267495651704657"><ele>232.6</ele><time>2026-03-29T09:12:36.999Z</time></trkpt><trkpt lat="39.32586122851646" lon="9.267449785392898"><ele>230.0</ele><time>2026-03-29T09:12:37.999Z</time></trkpt><trkpt lat="39.32584273505298" lon="9.26764121228688"><ele>230.0</ele><time>2026-03-29T09:12:39.999Z</time></trkpt><trkpt lat="39.32581078533529" lon="9.267782988626914"><ele>230.0</ele><time>2026-03-29T09:12:41.999Z</time></trkpt><trkpt lat="39.32578690374693" lon="9.267874277053933"><ele>230.0</ele><time>2026-03-29T09:12:42.999Z</time></trkpt><trkpt lat="39.32552691841802" lon="9.267504401290978"><ele>230.66666666666669</ele><time>2026-03-29T09:12:43.999Z</time></trkpt><trkpt lat="39.32547380178287" lon="9.267549192056153"><ele>231.33333333333331</ele><time>2026-03-29T09:12:44.999Z</time></trkpt><trkpt lat="39.32539481709297" lon="9.26761579609857"><ele>232.0</ele><time>2026-03-29T09:12:46.999Z</time></trkpt><trkpt lat="39.32566445135172" lon="9.268198091013888"><ele>231.99999999999997</ele><time>2026-03-29T09:12:49.999Z</time></trkpt><trkpt lat="39.32572461402759" lon="9.268282389654145"><ele>232.0</ele><time>2026-03-29T09:12:51.999Z</time></trkpt><trkpt lat="39.32579541643627" lon="9.268410305271203"><ele>232.0</ele><time>2026-03-29T09:12:53.999Z</time></trkpt><trkpt lat="39.325847440389076" lon="9.268476191857271"><ele>232.0</ele><time>2026-03-29T09:12:54.999Z</time></trkpt><trkpt lat="39.325906763723964" lon="9.268534773204072"><ele>231.99999999999997</ele><time>2026-03-29T09:12:55.999Z</time></trkpt><trkpt lat="39.32596145240776" lon="9.268597593210504"><ele>232.0</ele><time>2026-03-29T09:12:56.999Z</time></trkpt><trkpt lat="39.32601634946658" lon="9.26867399823345"><ele>231.99999999999997</ele><time>2026-03-29T09:12:57.999Z</time></trkpt><trkpt lat="39.32606989026214" lon="9.26874078613245"><ele>232.0</ele><time>2026-03-29T09:12:58.999Z</time></trkpt><trkpt lat="39.326114240203616" lon="9.26879922371658"><ele>232.0</ele><time>2026-03-29T09:12:59.999Z</time></trkpt><trkpt lat="39.32613968663295" lon="9.26887486390494"><ele>232.0</ele><time>2026-03-29T09:13:01.999Z</time></trkpt><trkpt lat="39.326167694840635" lon="9.268955345885571"><ele>231.99999999999997</ele><time>2026-03-29T09:13:03.999Z</time></trkpt><trkpt lat="39.32622920365034" lon="9.269033805810546"><ele>232.0</ele><time>2026-03-29T09:13:07.998Z</time></trkpt><trkpt lat="39.326314595773084" lon="9.269218552318554"><ele>237.2</ele><time>2026-03-29T09:13:08.998Z</time></trkpt><trkpt lat="39.32639981264909" lon="9.269276664765515"><ele>242.39999999999998</ele><time>2026-03-29T09:13:10.998Z</time></trkpt><trkpt lat="39.32651189125239" lon="9.269239187815481"><ele>247.60000000000002</ele><time>2026-03-29T09:13:12.998Z</time></trkpt><trkpt lat="39.32663300418107" lon="9.269269523680554"><ele>252.8</ele><time>2026-03-29T09:13:14.998Z</time></trkpt><trkpt lat="39.32667800707965" lon="9.269328761259176"><ele>258.0</ele><time>2026-03-29T09:13:15.998Z</time></trkpt><trkpt lat="39.32677420399914" lon="9.269340554089352"><ele>258.0</ele><time>2026-03-29T09:13:17.998Z</time></trkpt><trkpt lat="39.32683459861505" lon="9.269291615765285"><ele>258.0</ele><time>2026-03-29T09:13:18.998Z</time></trkpt><trkpt lat="39.3269130822745" lon="9.269244552823025"><ele>258.0</ele><time>2026-03-29T09:13:19.998Z</time></trkpt><trkpt lat="39.32698006353913" lon="9.26922966611205"><ele>258.0</ele><time>2026-03-29T09:13:20.998Z</time></trkpt><trkpt lat="39.327056768946534" lon="9.269344336725762"><ele>258.0</ele><time>2026-03-29T09:13:22.998Z</time></trkpt><trkpt lat="39.32698108912608" lon="9.269522230531923"><ele>258.0</ele><time>2026-03-29T09:13:23.998Z</time></trkpt><trkpt lat="39.327004367766364" lon="9.269628120931719"><ele>258.0</ele><time>2026-03-29T09:13:24.998Z</time></trkpt><trkpt lat="39.32698262280606" lon="9.269723003382476"><ele>258.0</ele><time>2026-03-29T09:13:25.998Z</time></trkpt><trkpt lat="39.326967025192744" lon="9.26983395747236"><ele>258.0</ele><time>2026-03-29T09:13:26.998Z</time></trkpt><trkpt lat="39.326993702574455" lon="9.269935779823973"><ele>258.0</ele><time>2026-03-29T09:13:27.998Z</time></trkpt><trkpt lat="39.32700930196515" lon="9.270048748198139"><ele>258.0</ele><time>2026-03-29T09:13:28.998Z</time></trkpt><trkpt lat="39.32701971215592" lon="9.270154737565234"><ele>260.0</ele><time>2026-03-29T09:13:29.998Z</time></trkpt><trkpt lat="39.32703122360648" lon="9.270260739322495"><ele>262.0</ele><time>2026-03-29T09:13:30.998Z</time></trkpt><trkpt lat="39.327027919595594" lon="9.270360073278754"><ele>264.0</ele><time>2026-03-29T09:13:31.998Z</time></trkpt><trkpt lat="39.32702312341475" lon="9.270475247764882"><ele>266.0</ele><time>2026-03-29T09:13:32.998Z</time></trkpt><trkpt lat="39.32703372093951" lon="9.270577996264425"><ele>268.0</ele><time>2026-03-29T09:13:33.998Z</time></trkpt><trkpt lat="39.32705095026407" lon="9.270695110545567"><ele>270.0</ele><time>2026-03-29T09:13:34.998Z</time></trkpt><trkpt lat="39.32705950485254" lon="9.270806482530501"><ele>269.8</ele><time>2026-03-29T09:13:35.998Z</time></trkpt><trkpt lat="39.32709576200039" lon="9.270935826559043"><ele>269.6</ele><time>2026-03-29T09:13:37.998Z</time></trkpt><trkpt lat="39.32713846871868" lon="9.27105918873702"><ele>269.4</ele><time>2026-03-29T09:13:39.998Z</time></trkpt><trkpt lat="39.327182763137756" lon="9.271192907349217"><ele>269.2</ele><time>2026-03-29T09:13:41.998Z</time></trkpt><trkpt lat="39.32725327173569" lon="9.27127731444085"><ele>269.0</ele><time>2026-03-29T09:13:43.998Z</time></trkpt><trkpt lat="39.32737423805353" lon="9.27127878319575"><ele>269.0</ele><time>2026-03-29T09:13:45.998Z</time></trkpt><trkpt lat="39.32744746334358" lon="9.271250394480127"><ele>269.0</ele><time>2026-03-29T09:13:46.998Z</time></trkpt><trkpt lat="39.32752163579184" lon="9.271222114884996"><ele>269.0</ele><time>2026-03-29T09:13:47.997Z</time></trkpt><trkpt lat="39.327637581238946" lon="9.271234495961988"><ele>269.0</ele><time>2026-03-29T09:13:49.997Z</time></trkpt><trkpt lat="39.327759054924314" lon="9.271279724535084"><ele>269.0</ele><time>2026-03-29T09:13:51.997Z</time></trkpt><trkpt lat="39.327841126587636" lon="9.271302613741684"><ele>269.0</ele><time>2026-03-29T09:13:52.997Z</time></trkpt><trkpt lat="39.3279290161683" lon="9.271315578628187"><ele>269.0</ele><time>2026-03-29T09:13:53.997Z</time></trkpt><trkpt lat="39.32802478718811" lon="9.271329728870736"><ele>269.0</ele><time>2026-03-29T09:13:54.997Z</time></trkpt><trkpt lat="39.32812147747984" lon="9.271331335385222"><ele>269.0</ele><time>2026-03-29T09:13:55.997Z</time></trkpt><trkpt lat="39.328208316882225" lon="9.2713331714039"><ele>269.0</ele><time>2026-03-29T09:13:56.997Z</time></trkpt><trkpt lat="39.32829455899984" lon="9.271348543247164"><ele>269.5</ele><time>2026-03-29T09:13:57.997Z</time></trkpt><trkpt lat="39.32837152768576" lon="9.271357421257953"><ele>270.0</ele><time>2026-03-29T09:13:58.997Z</time></trkpt><trkpt lat="39.328443713185116" lon="9.271359750696702"><ele>270.5</ele><time>2026-03-29T09:14:00Z</time></trkpt><trkpt lat="39.32851091244385" lon="9.271377591515911"><ele>271.0</ele><time>2026-03-29T09:14:01Z</time></trkpt><trkpt lat="39.32863591138584" lon="9.271383691162027"><ele>271.5</ele><time>2026-03-29T09:14:03Z</time></trkpt><trkpt lat="39.32873228636128" lon="9.271357957646"><ele>272.0</ele><time>2026-03-29T09:14:05Z</time></trkpt><trkpt lat="39.32880438863053" lon="9.271301186502587"><ele>272.0</ele><time>2026-03-29T09:14:07Z</time></trkpt><trkpt lat="39.32886876801063" lon="9.27131727565007"><ele>272.0</ele><time>2026-03-29T09:14:09Z</time></trkpt><trkpt lat="39.328874286621364" lon="9.271411635238405"><ele>272.0</ele><time>2026-03-29T09:14:11Z</time></trkpt><trkpt lat="39.328908570943675" lon="9.27148981582649"><ele>272.0</ele><time>2026-03-29T09:14:14Z</time></trkpt><trkpt lat="39.329020573348" lon="9.271721900243978"><ele>272.0</ele><time>2026-03-29T09:14:15Z</time></trkpt><trkpt lat="39.32904963741481" lon="9.271868485543633"><ele>273.4285714285714</ele><time>2026-03-29T09:14:17Z</time></trkpt><trkpt lat="39.329050811693236" lon="9.271956982665438"><ele>274.85714285714283</ele><time>2026-03-29T09:14:18Z</time></trkpt><trkpt lat="39.329024559940066" lon="9.272061183067825"><ele>276.2857142857143</ele><time>2026-03-29T09:14:19Z</time></trkpt><trkpt lat="39.32902780302571" lon="9.272162813528805"><ele>277.71428571428567</ele><time>2026-03-29T09:14:20Z</time></trkpt><trkpt lat="39.329041419453" lon="9.272259545089243"><ele>279.1428571428571</ele><time>2026-03-29T09:14:21Z</time></trkpt><trkpt lat="39.32907213180883" lon="9.272338982396576"><ele>280.57142857142856</ele><time>2026-03-29T09:14:22Z</time></trkpt><trkpt lat="39.3290850387309" lon="9.272427680589782"><ele>282.0</ele><time>2026-03-29T09:14:23Z</time></trkpt><trkpt lat="39.32907418341904" lon="9.272577017666928"><ele>284.8</ele><time>2026-03-29T09:14:25Z</time></trkpt><trkpt lat="39.32900508754697" lon="9.27267784194309"><ele>287.6</ele><time>2026-03-29T09:14:27Z</time></trkpt><trkpt lat="39.328937132022794" lon="9.272759756245568"><ele>290.40000000000003</ele><time>2026-03-29T09:14:29Z</time></trkpt><trkpt lat="39.32894182613029" lon="9.272884440262393"><ele>293.2</ele><time>2026-03-29T09:14:31.999Z</time></trkpt><trkpt lat="39.328988507087494" lon="9.27301978280826"><ele>296.0</ele><time>2026-03-29T09:14:33.999Z</time></trkpt><trkpt lat="39.32907119140799" lon="9.273090514453864"><ele>297.14285714285717</ele><time>2026-03-29T09:14:34.999Z</time></trkpt><trkpt lat="39.32910386973147" lon="9.273192570176061"><ele>298.2857142857143</ele><time>2026-03-29T09:14:35.999Z</time></trkpt><trkpt lat="39.329129847427055" lon="9.273286057636053"><ele>299.42857142857144</ele><time>2026-03-29T09:14:36.999Z</time></trkpt><trkpt lat="39.32915717208752" lon="9.273365516434238"><ele>300.57142857142856</ele><time>2026-03-29T09:14:37.999Z</time></trkpt><trkpt lat="39.32919199082165" lon="9.273433746314122"><ele>301.7142857142857</ele><time>2026-03-29T09:14:38.999Z</time></trkpt><trkpt lat="39.329217812655195" lon="9.273513170791128"><ele>302.85714285714283</ele><time>2026-03-29T09:14:39.999Z</time></trkpt><trkpt lat="39.32927694994338" lon="9.273581866867696"><ele>304.0</ele><time>2026-03-29T09:14:43.999Z</time></trkpt><trkpt lat="39.32935788103242" lon="9.273628166371061"><ele>304.0</ele><time>2026-03-29T09:14:45.999Z</time></trkpt><trkpt lat="39.329423301715984" lon="9.273712424838811"><ele>304.0</ele><time>2026-03-29T09:14:47.999Z</time></trkpt><trkpt lat="39.32949164924557" lon="9.27379892005164"><ele>304.0</ele><time>2026-03-29T09:14:50.999Z</time></trkpt><trkpt lat="39.32954099888176" lon="9.273887214187829"><ele>304.0</ele><time>2026-03-29T09:14:53.999Z</time></trkpt><trkpt lat="39.32984136957014" lon="9.274165655310158"><ele>304.66666666666663</ele><time>2026-03-29T09:14:55.999Z</time></trkpt><trkpt lat="39.32988349642978" lon="9.274284687564258"><ele>305.3333333333333</ele><time>2026-03-29T09:14:57.999Z</time></trkpt><trkpt lat="39.32990609131798" lon="9.274384795374415"><ele>306.0</ele><time>2026-03-29T09:14:59.999Z</time></trkpt><trkpt lat="39.3299080955982" lon="9.274480574310548"><ele>306.6666666666667</ele><time>2026-03-29T09:15:02.999Z</time></trkpt><trkpt lat="39.329849124024044" lon="9.274550479110214"><ele>307.33333333333337</ele><time>2026-03-29T09:15:04.999Z</time></trkpt><trkpt lat="39.32978975691259" lon="9.274591598428293"><ele>308.0</ele><time>2026-03-29T09:15:05.999Z</time></trkpt><trkpt lat="39.32972369251725" lon="9.274619526237739"><ele>306.0</ele><time>2026-03-29T09:15:06.999Z</time></trkpt><trkpt lat="39.32960944235815" lon="9.274631543061245"><ele>304.0</ele><time>2026-03-29T09:15:08.999Z</time></trkpt><trkpt lat="39.32954271012827" lon="9.274620496014593"><ele>302.0</ele><time>2026-03-29T09:15:09.999Z</time></trkpt><trkpt lat="39.329458982791124" lon="9.27460880270249"><ele>300.0</ele><time>2026-03-29T09:15:10.998Z</time></trkpt><trkpt lat="39.329387145513856" lon="9.274599073814414"><ele>298.0</ele><time>2026-03-29T09:15:11.998Z</time></trkpt><trkpt lat="39.32931324513275" lon="9.274589826563597"><ele>296.0</ele><time>2026-03-29T09:15:12.998Z</time></trkpt><trkpt lat="39.32923910133955" lon="9.274578293761012"><ele>296.0</ele><time>2026-03-29T09:15:13.998Z</time></trkpt><trkpt lat="39.32914445287369" lon="9.27454845228338"><ele>296.0</ele><time>2026-03-29T09:15:14.998Z</time></trkpt><trkpt lat="39.329080035551506" lon="9.274561698327492"><ele>296.0</ele><time>2026-03-29T09:15:15.998Z</time></trkpt><trkpt lat="39.32900642840733" lon="9.274599762914331"><ele>296.0</ele><time>2026-03-29T09:15:16.998Z</time></trkpt><trkpt lat="39.328922312163165" lon="9.274597013334944"><ele>296.0</ele><time>2026-03-29T09:15:17.998Z</time></trkpt><trkpt lat="39.32882906659422" lon="9.274594699413079"><ele>296.0</ele><time>2026-03-29T09:15:19.998Z</time></trkpt><trkpt lat="39.328764685169084" lon="9.274649175345612"><ele>294.6</ele><time>2026-03-29T09:15:21.998Z</time></trkpt><trkpt lat="39.32871771850198" lon="9.274759634980967"><ele>293.20000000000005</ele><time>2026-03-29T09:15:23.998Z</time></trkpt><trkpt lat="39.328667324233976" lon="9.274865855498431"><ele>291.79999999999995</ele><time>2026-03-29T09:15:25.998Z</time></trkpt><trkpt lat="39.32859911388906" lon="9.274886667831522"><ele>290.4</ele><time>2026-03-29T09:15:27.998Z</time></trkpt><trkpt lat="39.328533319703695" lon="9.274884016797435"><ele>289.0</ele><time>2026-03-29T09:15:29.998Z</time></trkpt><trkpt lat="39.32837076125586" lon="9.27488023968863"><ele>288.0</ele><time>2026-03-29T09:15:31.998Z</time></trkpt><trkpt lat="39.328259480780964" lon="9.274848024637345"><ele>287.0</ele><time>2026-03-29T09:15:33.998Z</time></trkpt><trkpt lat="39.32814346224659" lon="9.274861243621231"><ele>286.0</ele><time>2026-03-29T09:15:35.998Z</time></trkpt><trkpt lat="39.328031316638246" lon="9.274905010759458"><ele>285.0</ele><time>2026-03-29T09:15:37.998Z</time></trkpt><trkpt lat="39.327924898440635" lon="9.27493151714931"><ele>284.3333333333333</ele><time>2026-03-29T09:15:39.998Z</time></trkpt><trkpt lat="39.327815203572655" lon="9.27496326386302"><ele>283.6666666666667</ele><time>2026-03-29T09:15:41.998Z</time></trkpt><trkpt lat="39.327750812797746" lon="9.274992919844756"><ele>283.0</ele><time>2026-03-29T09:15:42.998Z</time></trkpt><trkpt lat="39.32766743265582" lon="9.275061605207933"><ele>282.33333333333337</ele><time>2026-03-29T09:15:44.998Z</time></trkpt><trkpt lat="39.32760443216046" lon="9.275087566883133"><ele>281.6666666666667</ele><time>2026-03-29T09:15:45.998Z</time></trkpt><trkpt lat="39.327538965775" lon="9.27511782961292"><ele>281.0</ele><time>2026-03-29T09:15:46.998Z</time></trkpt><trkpt lat="39.32741470188857" lon="9.275136499564749"><ele>281.0</ele><time>2026-03-29T09:15:48.998Z</time></trkpt><trkpt lat="39.32735400546701" lon="9.27506021522849"><ele>281.0</ele><time>2026-03-29T09:15:50.997Z</time></trkpt><trkpt lat="39.32730696690864" lon="9.274981167250333"><ele>281.0</ele><time>2026-03-29T09:15:52.997Z</time></trkpt><trkpt lat="39.32722327381314" lon="9.274979348817713"><ele>281.0</ele><time>2026-03-29T09:15:56.997Z</time></trkpt><trkpt lat="39.32712107386524" lon="9.275012126224228"><ele>281.0</ele><time>2026-03-29T09:15:59.997Z</time></trkpt><trkpt lat="39.327007230358284" lon="9.275057540945326"><ele>280.40000000000003</ele><time>2026-03-29T09:16:01.997Z</time></trkpt><trkpt lat="39.32693306231181" lon="9.275111266569422"><ele>279.8</ele><time>2026-03-29T09:16:03.997Z</time></trkpt><trkpt lat="39.326855043638105" lon="9.275155808912947"><ele>279.20000000000005</ele><time>2026-03-29T09:16:06Z</time></trkpt><trkpt lat="39.3267767153441" lon="9.275184022424005"><ele>278.6</ele><time>2026-03-29T09:16:07Z</time></trkpt><trkpt lat="39.326678129727114" lon="9.275211166390944"><ele>278.0</ele><time>2026-03-29T09:16:09Z</time></trkpt><trkpt lat="39.326563535288656" lon="9.27523439490294"><ele>278.0</ele><time>2026-03-29T09:16:11Z</time></trkpt><trkpt lat="39.32645683388165" lon="9.275251841793546"><ele>278.0</ele><time>2026-03-29T09:16:13Z</time></trkpt><trkpt lat="39.32639110955324" lon="9.275270805640073"><ele>278.0</ele><time>2026-03-29T09:16:15Z</time></trkpt><trkpt lat="39.32630671227644" lon="9.275315886119778"><ele>278.0</ele><time>2026-03-29T09:16:17Z</time></trkpt><trkpt lat="39.326227079564795" lon="9.275370273479211"><ele>278.0</ele><time>2026-03-29T09:16:20Z</time></trkpt><trkpt lat="39.32617266108131" lon="9.275418743224835"><ele>278.0</ele><time>2026-03-29T09:16:22Z</time></trkpt><trkpt lat="39.32609374797357" lon="9.275474526079247"><ele>277.33333333333337</ele><time>2026-03-29T09:16:25Z</time></trkpt><trkpt lat="39.326053437252206" lon="9.275567841321836"><ele>276.6666666666667</ele><time>2026-03-29T09:16:28Z</time></trkpt><trkpt lat="39.32598129546507" lon="9.275613704389578"><ele>276.0</ele><time>2026-03-29T09:16:30Z</time></trkpt><trkpt lat="39.325885695497746" lon="9.27563225238947"><ele>275.3333333333333</ele><time>2026-03-29T09:16:32Z</time></trkpt><trkpt lat="39.32577214912177" lon="9.27564273788856"><ele>274.66666666666663</ele><time>2026-03-29T09:16:34Z</time></trkpt><trkpt lat="39.32570612741656" lon="9.275665857533335"><ele>274.0</ele><time>2026-03-29T09:16:35Z</time></trkpt><trkpt lat="39.32564002122514" lon="9.275686650295503"><ele>272.8333333333333</ele><time>2026-03-29T09:16:36Z</time></trkpt><trkpt lat="39.325525162439625" lon="9.275725065803574"><ele>271.66666666666663</ele><time>2026-03-29T09:16:38Z</time></trkpt><trkpt lat="39.32545620764899" lon="9.275752469750632"><ele>270.5</ele><time>2026-03-29T09:16:38.999Z</time></trkpt><trkpt lat="39.325395452142246" lon="9.275775254776962"><ele>269.3333333333333</ele><time>2026-03-29T09:16:39.999Z</time></trkpt><trkpt lat="39.325332310998526" lon="9.27578550127267"><ele>268.1666666666667</ele><time>2026-03-29T09:16:40.999Z</time></trkpt><trkpt lat="39.32520741065896" lon="9.27583210064977"><ele>267.0</ele><time>2026-03-29T09:16:42.999Z</time></trkpt><trkpt lat="39.32514116082916" lon="9.275841031519606"><ele>267.0</ele><time>2026-03-29T09:16:43.999Z</time></trkpt><trkpt lat="39.325029442642375" lon="9.275792931777525"><ele>267.0</ele><time>2026-03-29T09:16:45.999Z</time></trkpt><trkpt lat="39.32498223534836" lon="9.275737109951493"><ele>267.0</ele><time>2026-03-29T09:16:46.999Z</time></trkpt><trkpt lat="39.32494524480891" lon="9.27566790382255"><ele>267.0</ele><time>2026-03-29T09:16:47.999Z</time></trkpt><trkpt lat="39.32492272341597" lon="9.27557696808884"><ele>267.0</ele><time>2026-03-29T09:16:48.999Z</time></trkpt><trkpt lat="39.32490036301378" lon="9.27549452434757"><ele>267.0</ele><time>2026-03-29T09:16:49.999Z</time></trkpt><trkpt lat="39.32488986325219" lon="9.275412592577844"><ele>266.1666666666667</ele><time>2026-03-29T09:16:50.999Z</time></trkpt><trkpt lat="39.32488127509338" lon="9.275329573932003"><ele>265.3333333333333</ele><time>2026-03-29T09:16:51.999Z</time></trkpt><trkpt lat="39.32489543477467" lon="9.275236624879655"><ele>264.5</ele><time>2026-03-29T09:16:53.999Z</time></trkpt><trkpt lat="39.32489093411854" lon="9.275153359095444"><ele>263.66666666666663</ele><time>2026-03-29T09:16:55.999Z</time></trkpt><trkpt lat="39.324849088374194" lon="9.275072423695617"><ele>262.8333333333333</ele><time>2026-03-29T09:16:57.999Z</time></trkpt><trkpt lat="39.324778746844956" lon="9.27500037785263"><ele>262.0</ele><time>2026-03-29T09:16:59.999Z</time></trkpt><trkpt lat="39.32468306207636" lon="9.274918424185245"><ele>262.0</ele><time>2026-03-29T09:17:01.999Z</time></trkpt><trkpt lat="39.32462071396004" lon="9.274861756161666"><ele>262.0</ele><time>2026-03-29T09:17:03.999Z</time></trkpt><trkpt lat="39.32457261310019" lon="9.274793399296742"><ele>262.0</ele><time>2026-03-29T09:17:05.999Z</time></trkpt><trkpt lat="39.32449003177226" lon="9.274711181300749"><ele>262.0</ele><time>2026-03-29T09:17:06.999Z</time></trkpt><trkpt lat="39.324431097029844" lon="9.274579928482435"><ele>262.0</ele><time>2026-03-29T09:17:08.999Z</time></trkpt><trkpt lat="39.32439917260207" lon="9.274440154117782"><ele>259.6</ele><time>2026-03-29T09:17:10.999Z</time></trkpt><trkpt lat="39.32441938220217" lon="9.274337061684783"><ele>257.2</ele><time>2026-03-29T09:17:12.999Z</time></trkpt><trkpt lat="39.3244639211824" lon="9.27422343728099"><ele>254.8</ele><time>2026-03-29T09:17:14.999Z</time></trkpt><trkpt lat="39.32447347922297" lon="9.274100116691866"><ele>252.4</ele><time>2026-03-29T09:17:16.999Z</time></trkpt><trkpt lat="39.32445837621158" lon="9.27399326453314"><ele>250.0</ele><time>2026-03-29T09:17:18.998Z</time></trkpt><trkpt lat="39.3244094788398" lon="9.273881563993536"><ele>248.8</ele><time>2026-03-29T09:17:20.998Z</time></trkpt><trkpt lat="39.32437501103312" lon="9.273793663089881"><ele>247.6</ele><time>2026-03-29T09:17:23.998Z</time></trkpt><trkpt lat="39.32433151748481" lon="9.273718949612377"><ele>246.39999999999998</ele><time>2026-03-29T09:17:24.998Z</time></trkpt><trkpt lat="39.32427737990832" lon="9.273598135986267"><ele>245.2</ele><time>2026-03-29T09:17:26.998Z</time></trkpt><trkpt lat="39.32420286398054" lon="9.273483841502854"><ele>244.0</ele><time>2026-03-29T09:17:28.998Z</time></trkpt><trkpt lat="39.3241298004934" lon="9.273383438102556"><ele>244.0</ele><time>2026-03-29T09:17:30.998Z</time></trkpt><trkpt lat="39.32405297849909" lon="9.273283190462728"><ele>243.99999999999997</ele><time>2026-03-29T09:17:32.998Z</time></trkpt><trkpt lat="39.32400387347435" lon="9.273182256860231"><ele>243.99999999999997</ele><time>2026-03-29T09:17:34.998Z</time></trkpt><trkpt lat="39.3239682064295" lon="9.27306084178083"><ele>244.0</ele><time>2026-03-29T09:17:36.998Z</time></trkpt><trkpt lat="39.32392689008553" lon="9.272973028428682"><ele>244.0</ele><time>2026-03-29T09:17:38.998Z</time></trkpt><trkpt lat="39.32385944343314" lon="9.272940082884434"><ele>242.6</ele><time>2026-03-29T09:17:40.998Z</time></trkpt><trkpt lat="39.323764084284875" lon="9.272922242314953"><ele>241.2</ele><time>2026-03-29T09:17:42.998Z</time></trkpt><trkpt lat="39.32369017608468" lon="9.272826484128888"><ele>239.79999999999998</ele><time>2026-03-29T09:17:44.998Z</time></trkpt><trkpt lat="39.32368885001667" lon="9.272731119308212"><ele>238.39999999999998</ele><time>2026-03-29T09:17:45.998Z</time></trkpt><trkpt lat="39.32367416604874" lon="9.272601934382154"><ele>237.0</ele><time>2026-03-29T09:17:47.998Z</time></trkpt><trkpt lat="39.323739236544874" lon="9.27242497137165"><ele>236.2</ele><time>2026-03-29T09:17:49.998Z</time></trkpt><trkpt lat="39.323664951695115" lon="9.272264001358115"><ele>235.39999999999998</ele><time>2026-03-29T09:17:51.998Z</time></trkpt><trkpt lat="39.32362489572809" lon="9.272178890204932"><ele>234.60000000000002</ele><time>2026-03-29T09:17:52.998Z</time></trkpt><trkpt lat="39.32358927482335" lon="9.272109126510058"><ele>233.8</ele><time>2026-03-29T09:17:53.998Z</time></trkpt><trkpt lat="39.32351098026364" lon="9.272000156391904"><ele>233.0</ele><time>2026-03-29T09:17:55.998Z</time></trkpt><trkpt lat="39.32342148081162" lon="9.271931719899733"><ele>233.00000000000003</ele><time>2026-03-29T09:17:57.997Z</time></trkpt><trkpt lat="39.323332391116146" lon="9.271833851303233"><ele>233.0</ele><time>2026-03-29T09:17:59.997Z</time></trkpt><trkpt lat="39.32326789637573" lon="9.271775179843363"><ele>233.0</ele><time>2026-03-29T09:18:00.997Z</time></trkpt><trkpt lat="39.32320485129847" lon="9.271713753868216"><ele>233.0</ele><time>2026-03-29T09:18:01.997Z</time></trkpt><trkpt lat="39.3231555397571" lon="9.271661359110173"><ele>233.00000000000003</ele><time>2026-03-29T09:18:02.997Z</time></trkpt><trkpt lat="39.3230916288101" lon="9.271556255416256"><ele>233.0</ele><time>2026-03-29T09:18:04.997Z</time></trkpt><trkpt lat="39.32304148495702" lon="9.271484640401859"><ele>232.2</ele><time>2026-03-29T09:18:06.997Z</time></trkpt><trkpt lat="39.322985842360744" lon="9.271534013372266"><ele>231.4</ele><time>2026-03-29T09:18:12Z</time></trkpt><trkpt lat="39.323009242291015" lon="9.271625132082844"><ele>230.59999999999997</ele><time>2026-03-29T09:18:14Z</time></trkpt><trkpt lat="39.323018875845776" lon="9.271786428818741"><ele>229.79999999999998</ele><time>2026-03-29T09:18:15Z</time></trkpt><trkpt lat="39.32302374044909" lon="9.271910596361536"><ele>229.0</ele><time>2026-03-29T09:18:16Z</time></trkpt><trkpt lat="39.32302514805111" lon="9.272052691920315"><ele>229.0</ele><time>2026-03-29T09:18:17Z</time></trkpt><trkpt lat="39.32301328143619" lon="9.272205966107554"><ele>228.99999999999997</ele><time>2026-03-29T09:18:18Z</time></trkpt><trkpt lat="39.32299324265925" lon="9.272347065533122"><ele>228.99999999999997</ele><time>2026-03-29T09:18:19Z</time></trkpt><trkpt lat="39.322992211160575" lon="9.272470117445309"><ele>229.0</ele><time>2026-03-29T09:18:20Z</time></trkpt><trkpt lat="39.323033527702364" lon="9.27257995099231"><ele>229.0</ele><time>2026-03-29T09:18:21Z</time></trkpt><trkpt lat="39.32308916169838" lon="9.272694392671443"><ele>230.6</ele><time>2026-03-29T09:18:22Z</time></trkpt><trkpt lat="39.32313554716582" lon="9.272801409007236"><ele>232.2</ele><time>2026-03-29T09:18:23Z</time></trkpt><trkpt lat="39.32318662631427" lon="9.272913815860377"><ele>233.79999999999998</ele><time>2026-03-29T09:18:24Z</time></trkpt><trkpt lat="39.32323695495768" lon="9.273009466272843"><ele>235.39999999999998</ele><time>2026-03-29T09:18:25Z</time></trkpt><trkpt lat="39.323293325703666" lon="9.273116521534071"><ele>237.0</ele><time>2026-03-29T09:18:26Z</time></trkpt><trkpt lat="39.32335290080499" lon="9.27319968883999"><ele>237.2</ele><time>2026-03-29T09:18:27Z</time></trkpt><trkpt lat="39.323427499529295" lon="9.273274896948617"><ele>237.39999999999998</ele><time>2026-03-29T09:18:28Z</time></trkpt><trkpt lat="39.32350423240188" lon="9.273350656371296"><ele>237.60000000000002</ele><time>2026-03-29T09:18:29Z</time></trkpt><trkpt lat="39.323553487640176" lon="9.27344032324344"><ele>237.8</ele><time>2026-03-29T09:18:30Z</time></trkpt><trkpt lat="39.32358735159264" lon="9.273550321035605"><ele>238.0</ele><time>2026-03-29T09:18:31Z</time></trkpt><trkpt lat="39.323600867082696" lon="9.273662451481467"><ele>238.0</ele><time>2026-03-29T09:18:32Z</time></trkpt><trkpt lat="39.323591135582376" lon="9.273771953121384"><ele>238.0</ele><time>2026-03-29T09:18:33Z</time></trkpt><trkpt lat="39.32357571703447" lon="9.273883752075989"><ele>238.0</ele><time>2026-03-29T09:18:34Z</time></trkpt><trkpt lat="39.323539298169706" lon="9.274007769845289"><ele>238.0</ele><time>2026-03-29T09:18:35Z</time></trkpt><trkpt lat="39.32349194606998" lon="9.274121495018205"><ele>238.0</ele><time>2026-03-29T09:18:36Z</time></trkpt><trkpt lat="39.32344792387547" lon="9.274244007319286"><ele>239.0</ele><time>2026-03-29T09:18:37Z</time></trkpt><trkpt lat="39.323416435404624" lon="9.27438279189948"><ele>240.0</ele><time>2026-03-29T09:18:38Z</time></trkpt><trkpt lat="39.32339915567163" lon="9.27451751155894"><ele>241.0</ele><time>2026-03-29T09:18:39Z</time></trkpt><trkpt lat="39.323380184367984" lon="9.274634112008036"><ele>242.0</ele><time>2026-03-29T09:18:40Z</time></trkpt><trkpt lat="39.323342640826034" lon="9.274711600014784"><ele>243.0</ele><time>2026-03-29T09:18:41Z</time></trkpt><trkpt lat="39.32328103481732" lon="9.274778144366564"><ele>244.0</ele><time>2026-03-29T09:18:42Z</time></trkpt><trkpt lat="39.32319120163282" lon="9.274853281454636"><ele>245.0</ele><time>2026-03-29T09:18:43Z</time></trkpt><trkpt lat="39.32309641559818" lon="9.274946617261577"><ele>246.0</ele><time>2026-03-29T09:18:44Z</time></trkpt><trkpt lat="39.32299019827313" lon="9.275048594700095"><ele>247.0</ele><time>2026-03-29T09:18:44.999Z</time></trkpt><trkpt lat="39.322887247027865" lon="9.275122320143426"><ele>247.0</ele><time>2026-03-29T09:18:45.999Z</time></trkpt><trkpt lat="39.32276938759776" lon="9.275177753961513"><ele>247.0</ele><time>2026-03-29T09:18:46.999Z</time></trkpt><trkpt lat="39.322655078162185" lon="9.275206243626412"><ele>247.0</ele><time>2026-03-29T09:18:47.999Z</time></trkpt><trkpt lat="39.322557643882234" lon="9.275219493980115"><ele>247.0</ele><time>2026-03-29T09:18:48.999Z</time></trkpt><trkpt lat="39.32244900431914" lon="9.275209033136273"><ele>247.0</ele><time>2026-03-29T09:18:49.999Z</time></trkpt><trkpt lat="39.32232086180643" lon="9.275173266777342"><ele>245.8</ele><time>2026-03-29T09:18:50.999Z</time></trkpt><trkpt lat="39.322198496914936" lon="9.27515843344871"><ele>244.6</ele><time>2026-03-29T09:18:51.999Z</time></trkpt><trkpt lat="39.32209994195115" lon="9.27516994114407"><ele>243.40000000000003</ele><time>2026-03-29T09:18:52.999Z</time></trkpt><trkpt lat="39.32202812648899" lon="9.275218259349751"><ele>242.20000000000002</ele><time>2026-03-29T09:18:53.999Z</time></trkpt><trkpt lat="39.321979632452056" lon="9.275321043588514"><ele>241.0</ele><time>2026-03-29T09:18:55.999Z</time></trkpt><trkpt lat="39.32195947560802" lon="9.275467864098472"><ele>240.99999999999997</ele><time>2026-03-29T09:18:57.999Z</time></trkpt><trkpt lat="39.32193968737739" lon="9.2755549191215"><ele>241.0</ele><time>2026-03-29T09:18:58.999Z</time></trkpt><trkpt lat="39.3219189184726" lon="9.275662699465977"><ele>241.0</ele><time>2026-03-29T09:18:59.999Z</time></trkpt><trkpt lat="39.3219076298189" lon="9.27575614635558"><ele>241.0</ele><time>2026-03-29T09:19:00.999Z</time></trkpt><trkpt lat="39.32196729750777" lon="9.27587529426046"><ele>240.99999999999997</ele><time>2026-03-29T09:19:02.999Z</time></trkpt><trkpt lat="39.322051554541005" lon="9.275916642627678"><ele>241.0</ele><time>2026-03-29T09:19:03.999Z</time></trkpt><trkpt lat="39.32214515354509" lon="9.275936928072658"><ele>246.20000000000002</ele><time>2026-03-29T09:19:04.999Z</time></trkpt><trkpt lat="39.32224531367653" lon="9.275997561348747"><ele>251.40000000000003</ele><time>2026-03-29T09:19:05.999Z</time></trkpt><trkpt lat="39.32233696605858" lon="9.276104202594219"><ele>256.6</ele><time>2026-03-29T09:19:06.999Z</time></trkpt><trkpt lat="39.32240515488446" lon="9.27618881839985"><ele>261.8</ele><time>2026-03-29T09:19:07.999Z</time></trkpt><trkpt lat="39.32244168083334" lon="9.27626254841726"><ele>267.0</ele><time>2026-03-29T09:19:08.999Z</time></trkpt><trkpt lat="39.32244090983667" lon="9.276348408959674"><ele>268.25</ele><time>2026-03-29T09:19:09.999Z</time></trkpt><trkpt lat="39.322412447548054" lon="9.276446129342014"><ele>269.5</ele><time>2026-03-29T09:19:10.999Z</time></trkpt><trkpt lat="39.32235721220665" lon="9.276573925148593"><ele>270.75</ele><time>2026-03-29T09:19:11.999Z</time></trkpt><trkpt lat="39.322290873047294" lon="9.276725517310943"><ele>272.0</ele><time>2026-03-29T09:19:12.999Z</time></trkpt><trkpt lat="39.32222149058037" lon="9.276904600503787"><ele>271.25</ele><time>2026-03-29T09:19:13.999Z</time></trkpt><trkpt lat="39.32217374440448" lon="9.277103610270924"><ele>270.5</ele><time>2026-03-29T09:19:14.999Z</time></trkpt><trkpt lat="39.322121563051745" lon="9.27728518527768"><ele>269.75</ele><time>2026-03-29T09:19:15.999Z</time></trkpt><trkpt lat="39.322088337420844" lon="9.277410667830326"><ele>269.0</ele><time>2026-03-29T09:19:16.999Z</time></trkpt><trkpt lat="39.32208923290518" lon="9.277510596606444"><ele>269.0</ele><time>2026-03-29T09:19:17.999Z</time></trkpt><trkpt lat="39.32209476873726" lon="9.277623275883006"><ele>269.0</ele><time>2026-03-29T09:19:18.999Z</time></trkpt><trkpt lat="39.3220865907579" lon="9.277722782337438"><ele>269.0</ele><time>2026-03-29T09:19:19.999Z</time></trkpt><trkpt lat="39.32211363050738" lon="9.277814350965011"><ele>269.0</ele><time>2026-03-29T09:19:21.999Z</time></trkpt><trkpt lat="39.32218548695181" lon="9.277832857375774"><ele>269.0</ele><time>2026-03-29T09:19:22.999Z</time></trkpt><trkpt lat="39.32227109125332" lon="9.277843382562024"><ele>269.0</ele><time>2026-03-29T09:19:23.998Z</time></trkpt><trkpt lat="39.3223669532742" lon="9.277846835406853"><ele>270.5</ele><time>2026-03-29T09:19:24.998Z</time></trkpt><trkpt lat="39.32246424845898" lon="9.277824144191067"><ele>272.0</ele><time>2026-03-29T09:19:25.998Z</time></trkpt><trkpt lat="39.32255705354871" lon="9.2777858932982"><ele>273.5</ele><time>2026-03-29T09:19:26.998Z</time></trkpt><trkpt lat="39.3226700407316" lon="9.277721688709143"><ele>275.0</ele><time>2026-03-29T09:19:27.998Z</time></trkpt><trkpt lat="39.322793629112866" lon="9.277659423849792"><ele>275.0</ele><time>2026-03-29T09:19:28.998Z</time></trkpt><trkpt lat="39.3229201280545" lon="9.277628118497194"><ele>275.0</ele><time>2026-03-29T09:19:29.998Z</time></trkpt><trkpt lat="39.32302786257597" lon="9.277607165164776"><ele>275.0</ele><time>2026-03-29T09:19:30.998Z</time></trkpt><trkpt lat="39.323103139610176" lon="9.277572606690068"><ele>275.0</ele><time>2026-03-29T09:19:31.998Z</time></trkpt><trkpt lat="39.323160858140945" lon="9.27750343368226"><ele>275.0</ele><time>2026-03-29T09:19:32.998Z</time></trkpt><trkpt lat="39.32321979312565" lon="9.277411873058213"><ele>276.2</ele><time>2026-03-29T09:19:33.998Z</time></trkpt><trkpt lat="39.32328249813331" lon="9.277305424559849"><ele>277.4</ele><time>2026-03-29T09:19:34.998Z</time></trkpt><trkpt lat="39.323338772693894" lon="9.277200641196297"><ele>278.6</ele><time>2026-03-29T09:19:35.998Z</time></trkpt><trkpt lat="39.323401101941606" lon="9.277107597304838"><ele>279.8</ele><time>2026-03-29T09:19:36.998Z</time></trkpt><trkpt lat="39.323476674877355" lon="9.277043613669314"><ele>281.0</ele><time>2026-03-29T09:19:37.998Z</time></trkpt><trkpt lat="39.32355970969203" lon="9.277004852802568"><ele>282.5</ele><time>2026-03-29T09:19:38.998Z</time></trkpt><trkpt lat="39.32364929062614" lon="9.276986794343076"><ele>284.0</ele><time>2026-03-29T09:19:39.998Z</time></trkpt><trkpt lat="39.323767065674076" lon="9.276987563960704"><ele>285.5</ele><time>2026-03-29T09:19:40.998Z</time></trkpt><trkpt lat="39.32388586266044" lon="9.276992809478696"><ele>287.0</ele><time>2026-03-29T09:19:41.998Z</time></trkpt><trkpt lat="39.32401094532961" lon="9.277007316752053"><ele>287.0</ele><time>2026-03-29T09:19:42.998Z</time></trkpt><trkpt lat="39.32412233356367" lon="9.277023772128535"><ele>287.0</ele><time>2026-03-29T09:19:43.998Z</time></trkpt><trkpt lat="39.3242160593033" lon="9.277019731906368"><ele>287.0</ele><time>2026-03-29T09:19:44.998Z</time></trkpt><trkpt lat="39.32429780199103" lon="9.276983190409014"><ele>287.0</ele><time>2026-03-29T09:19:45.998Z</time></trkpt><trkpt lat="39.324385412168084" lon="9.276927940073298"><ele>287.0</ele><time>2026-03-29T09:19:46.998Z</time></trkpt><trkpt lat="39.324466725900756" lon="9.276919329196943"><ele>287.0</ele><time>2026-03-29T09:19:47.998Z</time></trkpt><trkpt lat="39.32453873990483" lon="9.27695308024883"><ele>287.0</ele><time>2026-03-29T09:19:48.998Z</time></trkpt><trkpt lat="39.32461463271288" lon="9.277012737051164"><ele>287.0</ele><time>2026-03-29T09:19:49.998Z</time></trkpt><trkpt lat="39.32468776695109" lon="9.277096235292085"><ele>287.0</ele><time>2026-03-29T09:19:50.998Z</time></trkpt><trkpt lat="39.32476573096238" lon="9.277171580976791"><ele>287.0</ele><time>2026-03-29T09:19:51.998Z</time></trkpt><trkpt lat="39.324848114122645" lon="9.277238965406076"><ele>288.2</ele><time>2026-03-29T09:19:52.998Z</time></trkpt><trkpt lat="39.32493945313259" lon="9.277291681149528"><ele>289.4</ele><time>2026-03-29T09:19:53.998Z</time></trkpt><trkpt lat="39.32501690678609" lon="9.277354306095013"><ele>290.6</ele><time>2026-03-29T09:19:54.998Z</time></trkpt><trkpt lat="39.32507783459911" lon="9.277440370721388"><ele>291.8</ele><time>2026-03-29T09:19:55.998Z</time></trkpt><trkpt lat="39.325144795825686" lon="9.27752141791106"><ele>293.0</ele><time>2026-03-29T09:19:56.998Z</time></trkpt><trkpt lat="39.32521832595045" lon="9.277556300387634"><ele>292.99999999999994</ele><time>2026-03-29T09:19:57.998Z</time></trkpt><trkpt lat="39.32528100965201" lon="9.27756917225809"><ele>293.0</ele><time>2026-03-29T09:19:58.998Z</time></trkpt><trkpt lat="39.32534785468179" lon="9.277578571383797"><ele>293.0</ele><time>2026-03-29T09:19:59.998Z</time></trkpt><trkpt lat="39.32541792272233" lon="9.27757364646812"><ele>293.0</ele><time>2026-03-29T09:20:00.998Z</time></trkpt><trkpt lat="39.32547550249298" lon="9.27754074786268"><ele>293.0</ele><time>2026-03-29T09:20:01.998Z</time></trkpt><trkpt lat="39.32551879926881" lon="9.277479632780707"><ele>292.99999999999994</ele><time>2026-03-29T09:20:02.997Z</time></trkpt><trkpt lat="39.32556040816322" lon="9.277397296450102"><ele>293.0</ele><time>2026-03-29T09:20:03.997Z</time></trkpt><trkpt lat="39.32560879564319" lon="9.277311520933912"><ele>293.0</ele><time>2026-03-29T09:20:04.997Z</time></trkpt><trkpt lat="39.32566292807946" lon="9.27723056093861"><ele>293.0</ele><time>2026-03-29T09:20:05.997Z</time></trkpt><trkpt lat="39.32570782495321" lon="9.277152896156814"><ele>293.0</ele><time>2026-03-29T09:20:06.997Z</time></trkpt><trkpt lat="39.3257537533393" lon="9.27707918854726"><ele>293.0</ele><time>2026-03-29T09:20:07.997Z</time></trkpt><trkpt lat="39.325831232137375" lon="9.277037503120315"><ele>293.0</ele><time>2026-03-29T09:20:09.997Z</time></trkpt><trkpt lat="39.32589923268196" lon="9.277078032532554"><ele>293.0</ele><time>2026-03-29T09:20:11.997Z</time></trkpt><trkpt lat="39.32593982286312" lon="9.277192678687435"><ele>296.6</ele><time>2026-03-29T09:20:13.997Z</time></trkpt><trkpt lat="39.32587643222949" lon="9.277293517782816"><ele>300.20000000000005</ele><time>2026-03-29T09:20:15.997Z</time></trkpt><trkpt lat="39.325760855862015" lon="9.2774036237384"><ele>303.8</ele><time>2026-03-29T09:20:18Z</time></trkpt><trkpt lat="39.325728354708644" lon="9.277504408201791"><ele>307.40000000000003</ele><time>2026-03-29T09:20:19Z</time></trkpt><trkpt lat="39.3257035640877" lon="9.277609271910654"><ele>311.0</ele><time>2026-03-29T09:20:20Z</time></trkpt><trkpt lat="39.325649977795656" lon="9.277727006053896"><ele>311.0</ele><time>2026-03-29T09:20:21Z</time></trkpt><trkpt lat="39.32558306063923" lon="9.277828337022815"><ele>311.0</ele><time>2026-03-29T09:20:22Z</time></trkpt><trkpt lat="39.32552403486662" lon="9.277908381621822"><ele>311.0</ele><time>2026-03-29T09:20:23Z</time></trkpt><trkpt lat="39.325457894769016" lon="9.277952318314231"><ele>311.0</ele><time>2026-03-29T09:20:24Z</time></trkpt><trkpt lat="39.32539564289538" lon="9.278030551988415"><ele>311.0</ele><time>2026-03-29T09:20:25Z</time></trkpt><trkpt lat="39.32532355726303" lon="9.278103849507445"><ele>311.0</ele><time>2026-03-29T09:20:26Z</time></trkpt><trkpt lat="39.32526083053339" lon="9.278190955517536"><ele>310.6</ele><time>2026-03-29T09:20:27Z</time></trkpt><trkpt lat="39.32518599644277" lon="9.278288697432107"><ele>310.20000000000005</ele><time>2026-03-29T09:20:28Z</time></trkpt><trkpt lat="39.32512461974731" lon="9.278368798423303"><ele>309.79999999999995</ele><time>2026-03-29T09:20:29Z</time></trkpt><trkpt lat="39.32506959378102" lon="9.278466472380938"><ele>309.4</ele><time>2026-03-29T09:20:30Z</time></trkpt><trkpt lat="39.32502221133289" lon="9.278573724994216"><ele>309.0</ele><time>2026-03-29T09:20:31Z</time></trkpt><trkpt lat="39.32497693552618" lon="9.278690688844973"><ele>309.0</ele><time>2026-03-29T09:20:32Z</time></trkpt><trkpt lat="39.32493562639504" lon="9.27878997093242"><ele>309.0</ele><time>2026-03-29T09:20:33Z</time></trkpt><trkpt lat="39.324906553451555" lon="9.278890721719064"><ele>309.0</ele><time>2026-03-29T09:20:34Z</time></trkpt><trkpt lat="39.32485270050005" lon="9.27896404128878"><ele>309.0</ele><time>2026-03-29T09:20:35Z</time></trkpt><trkpt lat="39.32479832471205" lon="9.279034684561852"><ele>309.0</ele><time>2026-03-29T09:20:36Z</time></trkpt><trkpt lat="39.32472471380976" lon="9.279099759226522"><ele>309.0</ele><time>2026-03-29T09:20:37Z</time></trkpt><trkpt lat="39.32464150941178" lon="9.279178445712766"><ele>308.0</ele><time>2026-03-29T09:20:38Z</time></trkpt><trkpt lat="39.32456925532226" lon="9.279280079523849"><ele>307.0</ele><time>2026-03-29T09:20:39Z</time></trkpt><trkpt lat="39.32450735211684" lon="9.279394590092785"><ele>306.0</ele><time>2026-03-29T09:20:40Z</time></trkpt><trkpt lat="39.324461622836196" lon="9.279514411064154"><ele>305.0</ele><time>2026-03-29T09:20:41Z</time></trkpt><trkpt lat="39.324456720882566" lon="9.27964684801548"><ele>304.0</ele><time>2026-03-29T09:20:43Z</time></trkpt><trkpt lat="39.32454615864766" lon="9.279637796734505"><ele>304.0</ele><time>2026-03-29T09:20:46Z</time></trkpt><trkpt lat="39.324588007046415" lon="9.27955481338927"><ele>304.0</ele><time>2026-03-29T09:20:48Z</time></trkpt><trkpt lat="39.3246521540169" lon="9.279533665970488"><ele>304.0</ele><time>2026-03-29T09:20:50.999Z</time></trkpt><trkpt lat="39.324992780630446" lon="9.279369076493248"><ele>308.16666666666663</ele><time>2026-03-29T09:20:52.999Z</time></trkpt><trkpt lat="39.325077784630594" lon="9.279316601887443"><ele>312.3333333333333</ele><time>2026-03-29T09:20:53.999Z</time></trkpt><trkpt lat="39.32514217627945" lon="9.279278842655094"><ele>316.5</ele><time>2026-03-29T09:20:54.999Z</time></trkpt><trkpt lat="39.325203077262856" lon="9.27921597042889"><ele>320.6666666666667</ele><time>2026-03-29T09:20:55.999Z</time></trkpt><trkpt lat="39.32526511467577" lon="9.27917256171973"><ele>324.83333333333337</ele><time>2026-03-29T09:20:56.999Z</time></trkpt><trkpt lat="39.32533243767369" lon="9.279117926265059"><ele>329.0</ele><time>2026-03-29T09:20:57.999Z</time></trkpt><trkpt lat="39.32540895236486" lon="9.279059411211652"><ele>329.0</ele><time>2026-03-29T09:20:58.999Z</time></trkpt><trkpt lat="39.325492295992284" lon="9.279015874601404"><ele>329.0</ele><time>2026-03-29T09:20:59.999Z</time></trkpt><trkpt lat="39.325563159855754" lon="9.27895890069043"><ele>329.0</ele><time>2026-03-29T09:21:00.999Z</time></trkpt><trkpt lat="39.325638201747985" lon="9.278936622759696"><ele>329.0</ele><time>2026-03-29T09:21:01.999Z</time></trkpt><trkpt lat="39.325690901079746" lon="9.278886499138238"><ele>329.0</ele><time>2026-03-29T09:21:02.999Z</time></trkpt><trkpt lat="39.3257580962966" lon="9.278844493724357"><ele>329.0</ele><time>2026-03-29T09:21:03.999Z</time></trkpt><trkpt lat="39.32582247356086" lon="9.278773294297721"><ele>329.1666666666667</ele><time>2026-03-29T09:21:04.999Z</time></trkpt><trkpt lat="39.325892474035705" lon="9.278728302323644"><ele>329.33333333333337</ele><time>2026-03-29T09:21:05.999Z</time></trkpt><trkpt lat="39.32596138252996" lon="9.278665670211035"><ele>329.5</ele><time>2026-03-29T09:21:06.999Z</time></trkpt><trkpt lat="39.3260320274676" lon="9.27860372084049"><ele>329.6666666666667</ele><time>2026-03-29T09:21:07.999Z</time></trkpt><trkpt lat="39.32609542896991" lon="9.278523559563396"><ele>329.8333333333333</ele><time>2026-03-29T09:21:08.999Z</time></trkpt><trkpt lat="39.32616914151736" lon="9.278468529271528"><ele>330.0</ele><time>2026-03-29T09:21:09.999Z</time></trkpt><trkpt lat="39.3262360594495" lon="9.278411122242538"><ele>330.0</ele><time>2026-03-29T09:21:10.999Z</time></trkpt><trkpt lat="39.32626753576745" lon="9.278336392254086"><ele>330.0</ele><time>2026-03-29T09:21:11.999Z</time></trkpt><trkpt lat="39.32633583488815" lon="9.278263777029204"><ele>330.0</ele><time>2026-03-29T09:21:12.999Z</time></trkpt><trkpt lat="39.32640529814908" lon="9.278197130978256"><ele>330.0</ele><time>2026-03-29T09:21:13.999Z</time></trkpt><trkpt lat="39.32646936082537" lon="9.278139942865602"><ele>330.0</ele><time>2026-03-29T09:21:14.999Z</time></trkpt><trkpt lat="39.32654835485216" lon="9.278142171880562"><ele>330.0</ele><time>2026-03-29T09:21:16.999Z</time></trkpt><trkpt lat="39.32668154079789" lon="9.278172428785142"><ele>330.1666666666667</ele><time>2026-03-29T09:21:18.999Z</time></trkpt><trkpt lat="39.326800510914815" lon="9.278150349421399"><ele>330.3333333333333</ele><time>2026-03-29T09:21:20.999Z</time></trkpt><trkpt lat="39.32687663673298" lon="9.278146760399935"><ele>330.5</ele><time>2026-03-29T09:21:21.999Z</time></trkpt><trkpt lat="39.3269491948804" lon="9.278141507172633"><ele>330.66666666666663</ele><time>2026-03-29T09:21:22.999Z</time></trkpt><trkpt lat="39.32702566269214" lon="9.278118948610189"><ele>330.8333333333333</ele><time>2026-03-29T09:21:23.999Z</time></trkpt><trkpt lat="39.327109547615606" lon="9.27809740318613"><ele>331.0</ele><time>2026-03-29T09:21:24.999Z</time></trkpt><trkpt lat="39.32718592683704" lon="9.278066641701631"><ele>333.7142857142857</ele><time>2026-03-29T09:21:25.999Z</time></trkpt><trkpt lat="39.32726540458492" lon="9.278027775117156"><ele>336.42857142857144</ele><time>2026-03-29T09:21:26.999Z</time></trkpt><trkpt lat="39.32733472381105" lon="9.277988884070565"><ele>339.1428571428571</ele><time>2026-03-29T09:21:27.999Z</time></trkpt><trkpt lat="39.32740158644764" lon="9.277955582969046"><ele>341.8571428571429</ele><time>2026-03-29T09:21:28.998Z</time></trkpt><trkpt lat="39.32747329375499" lon="9.277934911413801"><ele>344.57142857142856</ele><time>2026-03-29T09:21:29.998Z</time></trkpt><trkpt lat="39.32753697881131" lon="9.277910781932558"><ele>347.2857142857143</ele><time>2026-03-29T09:21:30.998Z</time></trkpt><trkpt lat="39.32760550925374" lon="9.277883999307246"><ele>350.0</ele><time>2026-03-29T09:21:31.998Z</time></trkpt><trkpt lat="39.327674342870615" lon="9.277856549558543"><ele>350.0</ele><time>2026-03-29T09:21:32.998Z</time></trkpt><trkpt lat="39.32774549164114" lon="9.27782546319619"><ele>350.0</ele><time>2026-03-29T09:21:33.998Z</time></trkpt><trkpt lat="39.32781269487245" lon="9.27779414267096"><ele>350.0</ele><time>2026-03-29T09:21:34.998Z</time></trkpt><trkpt lat="39.3278835161701" lon="9.277772127649806"><ele>350.0</ele><time>2026-03-29T09:21:35.998Z</time></trkpt><trkpt lat="39.3279507976087" lon="9.277749543913625"><ele>350.0</ele><time>2026-03-29T09:21:36.998Z</time></trkpt><trkpt lat="39.32801983860358" lon="9.277713646090422"><ele>350.0</ele><time>2026-03-29T09:21:37.998Z</time></trkpt><trkpt lat="39.32809371154689" lon="9.277673646389593"><ele>350.0</ele><time>2026-03-29T09:21:38.998Z</time></trkpt><trkpt lat="39.32817709674095" lon="9.277639984713684"><ele>354.8</ele><time>2026-03-29T09:21:39.998Z</time></trkpt><trkpt lat="39.328258160671844" lon="9.277618477401518"><ele>359.6</ele><time>2026-03-29T09:21:40.998Z</time></trkpt><trkpt lat="39.328332196415055" lon="9.277616239282505"><ele>364.4</ele><time>2026-03-29T09:21:41.998Z</time></trkpt><trkpt lat="39.328400081203405" lon="9.277602018230807"><ele>369.2</ele><time>2026-03-29T09:21:42.998Z</time></trkpt><trkpt lat="39.328504960659835" lon="9.277565125332377"><ele>374.0</ele><time>2026-03-29T09:21:44.998Z</time></trkpt><trkpt lat="39.32862052233939" lon="9.277526847940058"><ele>374.0</ele><time>2026-03-29T09:21:46.998Z</time></trkpt><trkpt lat="39.32872097315165" lon="9.277506650446503"><ele>374.0</ele><time>2026-03-29T09:21:48.998Z</time></trkpt><trkpt lat="39.32882567709537" lon="9.277474010659292"><ele>374.0</ele><time>2026-03-29T09:21:50.998Z</time></trkpt><trkpt lat="39.32888349980682" lon="9.277437047572898"><ele>374.0</ele><time>2026-03-29T09:21:51.998Z</time></trkpt><trkpt lat="39.328993617651726" lon="9.27741063547598"><ele>374.0</ele><time>2026-03-29T09:21:53.998Z</time></trkpt><trkpt lat="39.32905966174589" lon="9.277418468081661"><ele>378.0</ele><time>2026-03-29T09:21:54.998Z</time></trkpt><trkpt lat="39.329130846085086" lon="9.27742272650145"><ele>382.0</ele><time>2026-03-29T09:21:55.998Z</time></trkpt><trkpt lat="39.32920008290259" lon="9.27741286764742"><ele>386.0</ele><time>2026-03-29T09:21:56.998Z</time></trkpt><trkpt lat="39.329263344377466" lon="9.277400218223283"><ele>390.0</ele><time>2026-03-29T09:21:57.998Z</time></trkpt><trkpt lat="39.32937664330829" lon="9.277356558222143"><ele>394.0</ele><time>2026-03-29T09:21:59.998Z</time></trkpt><trkpt lat="39.329512145316734" lon="9.277341907647639"><ele>394.0</ele><time>2026-03-29T09:22:01.998Z</time></trkpt><trkpt lat="39.32957641186175" lon="9.277331752746344"><ele>394.0</ele><time>2026-03-29T09:22:02.998Z</time></trkpt><trkpt lat="39.32969297544683" lon="9.27729191829"><ele>394.0</ele><time>2026-03-29T09:22:04.998Z</time></trkpt><trkpt lat="39.32981232578377" lon="9.277257865950173"><ele>394.0</ele><time>2026-03-29T09:22:06.998Z</time></trkpt><trkpt lat="39.32990274670914" lon="9.277203683064311"><ele>394.0</ele><time>2026-03-29T09:22:08.997Z</time></trkpt><trkpt lat="39.3299868826092" lon="9.277143024247438"><ele>388.0</ele><time>2026-03-29T09:22:10.997Z</time></trkpt><trkpt lat="39.330079622707" lon="9.277069988052931"><ele>382.0</ele><time>2026-03-29T09:22:12.997Z</time></trkpt><trkpt lat="39.33030861715637" lon="9.276982700217381"><ele>376.0</ele><time>2026-03-29T09:22:15.997Z</time></trkpt><trkpt lat="39.330454477890214" lon="9.27692327479119"><ele>376.0</ele><time>2026-03-29T09:22:16.997Z</time></trkpt><trkpt lat="39.33052550499002" lon="9.276891925018813"><ele>376.0</ele><time>2026-03-29T09:22:17.997Z</time></trkpt><trkpt lat="39.33059052845485" lon="9.276864054477214"><ele>376.0</ele><time>2026-03-29T09:22:18.997Z</time></trkpt><trkpt lat="39.3306827822569" lon="9.276829035938057"><ele>376.0</ele><time>2026-03-29T09:22:20.997Z</time></trkpt><trkpt lat="39.33076205363401" lon="9.27680021815908"><ele>376.0</ele><time>2026-03-29T09:22:21.997Z</time></trkpt><trkpt lat="39.33090115498089" lon="9.276758464865052"><ele>377.16666666666663</ele><time>2026-03-29T09:22:24Z</time></trkpt><trkpt lat="39.330976610830874" lon="9.276730746087296"><ele>378.3333333333333</ele><time>2026-03-29T09:22:25Z</time></trkpt><trkpt lat="39.331041580516796" lon="9.276711321167468"><ele>379.5</ele><time>2026-03-29T09:22:26Z</time></trkpt><trkpt lat="39.33115412448539" lon="9.276746186070374"><ele>380.6666666666667</ele><time>2026-03-29T09:22:28Z</time></trkpt><trkpt lat="39.33123692883629" lon="9.276770886661375"><ele>381.83333333333337</ele><time>2026-03-29T09:22:29Z</time></trkpt><trkpt lat="39.33133255632655" lon="9.27682127568299"><ele>383.0</ele><time>2026-03-29T09:22:31Z</time></trkpt><trkpt lat="39.33137747212739" lon="9.276889803680385"><ele>383.0</ele><time>2026-03-29T09:22:32Z</time></trkpt><trkpt lat="39.33143590047778" lon="9.276982706311667"><ele>383.0</ele><time>2026-03-29T09:22:33Z</time></trkpt><trkpt lat="39.33150520452504" lon="9.27709913484056"><ele>383.0</ele><time>2026-03-29T09:22:34Z</time></trkpt><trkpt lat="39.3315555998427" lon="9.277167870301705"><ele>383.0</ele><time>2026-03-29T09:22:35Z</time></trkpt><trkpt lat="39.331624454158046" lon="9.277235533794904"><ele>383.0</ele><time>2026-03-29T09:22:36Z</time></trkpt><trkpt lat="39.33168283573868" lon="9.277294213656347"><ele>383.0</ele><time>2026-03-29T09:22:37Z</time></trkpt><trkpt lat="39.33174407405272" lon="9.277319061854868"><ele>390.4</ele><time>2026-03-29T09:22:38Z</time></trkpt><trkpt lat="39.33183277298473" lon="9.277338489900949"><ele>397.79999999999995</ele><time>2026-03-29T09:22:39Z</time></trkpt><trkpt lat="39.33192564139004" lon="9.27737552454041"><ele>405.2</ele><time>2026-03-29T09:22:40Z</time></trkpt><trkpt lat="39.33202235261993" lon="9.277401226003132"><ele>412.6</ele><time>2026-03-29T09:22:41Z</time></trkpt><trkpt lat="39.33211574444339" lon="9.277405836141751"><ele>420.0</ele><time>2026-03-29T09:22:42Z</time></trkpt><trkpt lat="39.332195090158386" lon="9.27739264910061"><ele>421.0</ele><time>2026-03-29T09:22:43Z</time></trkpt><trkpt lat="39.332266224286165" lon="9.277355812553171"><ele>422.0</ele><time>2026-03-29T09:22:44Z</time></trkpt><trkpt lat="39.33234473359733" lon="9.277295386793098"><ele>423.0</ele><time>2026-03-29T09:22:45Z</time></trkpt><trkpt lat="39.332437310827906" lon="9.277225968967475"><ele>424.0</ele><time>2026-03-29T09:22:46Z</time></trkpt><trkpt lat="39.33252813089323" lon="9.277158875775827"><ele>425.0</ele><time>2026-03-29T09:22:47Z</time></trkpt><trkpt lat="39.33261569819896" lon="9.277114140633767"><ele>420.0</ele><time>2026-03-29T09:22:48Z</time></trkpt><trkpt lat="39.33270664640124" lon="9.277072498834436"><ele>415.0</ele><time>2026-03-29T09:22:49Z</time></trkpt><trkpt lat="39.33281272414579" lon="9.277031693628388"><ele>410.0</ele><time>2026-03-29T09:22:50Z</time></trkpt><trkpt lat="39.33292108980144" lon="9.277003177387337"><ele>405.0</ele><time>2026-03-29T09:22:51Z</time></trkpt><trkpt lat="39.333016913215566" lon="9.277006794728988"><ele>400.0</ele><time>2026-03-29T09:22:52Z</time></trkpt><trkpt lat="39.33310936876035" lon="9.277030534975252"><ele>400.0</ele><time>2026-03-29T09:22:53Z</time></trkpt><trkpt lat="39.33320366309577" lon="9.277077488165508"><ele>400.0</ele><time>2026-03-29T09:22:54Z</time></trkpt><trkpt lat="39.33329575818711" lon="9.27715740588894"><ele>400.0</ele><time>2026-03-29T09:22:54.999Z</time></trkpt><trkpt lat="39.33338516937162" lon="9.2772558708931"><ele>400.0</ele><time>2026-03-29T09:22:55.999Z</time></trkpt><trkpt lat="39.33346059933985" lon="9.277366533373646"><ele>400.0</ele><time>2026-03-29T09:22:56.999Z</time></trkpt><trkpt lat="39.333520762330785" lon="9.277492182722364"><ele>405.0</ele><time>2026-03-29T09:22:57.999Z</time></trkpt><trkpt lat="39.33357776245014" lon="9.277611803789927"><ele>410.0</ele><time>2026-03-29T09:22:58.999Z</time></trkpt><trkpt lat="39.333642053486" lon="9.2777074796155"><ele>415.0</ele><time>2026-03-29T09:22:59.999Z</time></trkpt><trkpt lat="39.33370460542616" lon="9.277788981428479"><ele>420.0</ele><time>2026-03-29T09:23:00.999Z</time></trkpt><trkpt lat="39.333767351954094" lon="9.277880717750651"><ele>425.0</ele><time>2026-03-29T09:23:01.999Z</time></trkpt><trkpt lat="39.33383079336531" lon="9.277981343360736"><ele>425.4</ele><time>2026-03-29T09:23:02.999Z</time></trkpt><trkpt lat="39.3338947536354" lon="9.278072817373959"><ele>425.8</ele><time>2026-03-29T09:23:03.999Z</time></trkpt><trkpt lat="39.33396177324247" lon="9.278173201709267"><ele>426.20000000000005</ele><time>2026-03-29T09:23:04.999Z</time></trkpt><trkpt lat="39.334014129119694" lon="9.278256692967725"><ele>426.6</ele><time>2026-03-29T09:23:05.999Z</time></trkpt><trkpt lat="39.33407183392477" lon="9.278348366621842"><ele>427.0</ele><time>2026-03-29T09:23:06.999Z</time></trkpt><trkpt lat="39.334128108922435" lon="9.278440155223517"><ele>427.0</ele><time>2026-03-29T09:23:07.999Z</time></trkpt><trkpt lat="39.33417462278917" lon="9.278553112249803"><ele>427.00000000000006</ele><time>2026-03-29T09:23:08.999Z</time></trkpt><trkpt lat="39.334225309732986" lon="9.278670925464322"><ele>427.00000000000006</ele><time>2026-03-29T09:23:09.999Z</time></trkpt><trkpt lat="39.33427378866163" lon="9.278774739847048"><ele>427.0</ele><time>2026-03-29T09:23:10.999Z</time></trkpt><trkpt lat="39.33432716536113" lon="9.2788819254101"><ele>427.0</ele><time>2026-03-29T09:23:11.999Z</time></trkpt><trkpt lat="39.334372940852425" lon="9.278959715302125"><ele>429.1666666666667</ele><time>2026-03-29T09:23:12.999Z</time></trkpt><trkpt lat="39.334484705461" lon="9.279034247756698"><ele>431.33333333333337</ele><time>2026-03-29T09:23:14.999Z</time></trkpt><trkpt lat="39.33456067648591" lon="9.279053719040048"><ele>433.5</ele><time>2026-03-29T09:23:15.999Z</time></trkpt><trkpt lat="39.334637805772594" lon="9.27908874297897"><ele>435.66666666666663</ele><time>2026-03-29T09:23:16.999Z</time></trkpt><trkpt lat="39.334710732945695" lon="9.279123629686024"><ele>437.8333333333333</ele><time>2026-03-29T09:23:17.999Z</time></trkpt><trkpt lat="39.33478400235707" lon="9.279170792117933"><ele>440.0</ele><time>2026-03-29T09:23:18.999Z</time></trkpt><trkpt lat="39.33485889834608" lon="9.279234733069806"><ele>440.0</ele><time>2026-03-29T09:23:19.999Z</time></trkpt><trkpt lat="39.33493393844393" lon="9.279290261468654"><ele>440.0</ele><time>2026-03-29T09:23:20.999Z</time></trkpt><trkpt lat="39.33503188925382" lon="9.279356069633836"><ele>440.0</ele><time>2026-03-29T09:23:21.999Z</time></trkpt><trkpt lat="39.33514398473467" lon="9.279434590217202"><ele>440.0</ele><time>2026-03-29T09:23:22.999Z</time></trkpt><trkpt lat="39.33524029916346" lon="9.279505100642742"><ele>440.0</ele><time>2026-03-29T09:23:23.999Z</time></trkpt><trkpt lat="39.33532454350344" lon="9.27955647579367"><ele>439.99999999999994</ele><time>2026-03-29T09:23:24.999Z</time></trkpt><trkpt lat="39.33538884925481" lon="9.279569861441143"><ele>440.0</ele><time>2026-03-29T09:23:25.999Z</time></trkpt><trkpt lat="39.335526291281894" lon="9.27959252353068"><ele>440.0</ele><time>2026-03-29T09:23:27.999Z</time></trkpt><trkpt lat="39.33560689331845" lon="9.279603617810231"><ele>440.0</ele><time>2026-03-29T09:23:28.999Z</time></trkpt><trkpt lat="39.33568134935548" lon="9.279612625780898"><ele>439.99999999999994</ele><time>2026-03-29T09:23:29.999Z</time></trkpt><trkpt lat="39.33575881622486" lon="9.279630448571297"><ele>440.0</ele><time>2026-03-29T09:23:30.999Z</time></trkpt><trkpt lat="39.335879229367784" lon="9.279683704765395"><ele>441.4</ele><time>2026-03-29T09:23:32.999Z</time></trkpt><trkpt lat="39.33592498548823" lon="9.279626500624017"><ele>442.8</ele><time>2026-03-29T09:23:35.998Z</time></trkpt><trkpt lat="39.33583932208371" lon="9.279554837222832"><ele>444.20000000000005</ele><time>2026-03-29T09:23:37.998Z</time></trkpt><trkpt lat="39.33572723460524" lon="9.279459129034501"><ele>445.6</ele><time>2026-03-29T09:23:39.998Z</time></trkpt><trkpt lat="39.33564633997224" lon="9.279342805143816"><ele>447.0</ele><time>2026-03-29T09:23:41.998Z</time></trkpt><trkpt lat="39.33563696990172" lon="9.279249902953792"><ele>447.0</ele><time>2026-03-29T09:23:44.998Z</time></trkpt><trkpt lat="39.335702584728736" lon="9.279234120196643"><ele>447.0</ele><time>2026-03-29T09:23:46.998Z</time></trkpt><trkpt lat="39.33578166507101" lon="9.279205473774038"><ele>447.0</ele><time>2026-03-29T09:23:49.998Z</time></trkpt><trkpt lat="39.33597703212576" lon="9.279095450983762"><ele>447.0</ele><time>2026-03-29T09:23:52.998Z</time></trkpt><trkpt lat="39.33607058826935" lon="9.279054998752208"><ele>447.0</ele><time>2026-03-29T09:23:53.998Z</time></trkpt><trkpt lat="39.3361520981034" lon="9.279029000630228"><ele>447.0</ele><time>2026-03-29T09:23:54.998Z</time></trkpt><trkpt lat="39.33622885644286" lon="9.279005864170566"><ele>447.0</ele><time>2026-03-29T09:23:55.998Z</time></trkpt><trkpt lat="39.3363043855395" lon="9.278987193200807"><ele>447.0</ele><time>2026-03-29T09:23:56.998Z</time></trkpt><trkpt lat="39.33637628728898" lon="9.27897992695883"><ele>447.0</ele><time>2026-03-29T09:23:57.998Z</time></trkpt><trkpt lat="39.33646367307135" lon="9.279032591991342"><ele>447.0</ele><time>2026-03-29T09:23:58.998Z</time></trkpt><trkpt lat="39.336535724047714" lon="9.279042469783448"><ele>448.1666666666667</ele><time>2026-03-29T09:23:59.998Z</time></trkpt><trkpt lat="39.336611434843626" lon="9.279051529469829"><ele>449.33333333333337</ele><time>2026-03-29T09:24:00.998Z</time></trkpt><trkpt lat="39.336697002682705" lon="9.27906567757413"><ele>450.5</ele><time>2026-03-29T09:24:01.998Z</time></trkpt><trkpt lat="39.33676762290229" lon="9.279103654040545"><ele>451.6666666666667</ele><time>2026-03-29T09:24:02.998Z</time></trkpt><trkpt lat="39.33684261319897" lon="9.27915297126011"><ele>452.83333333333337</ele><time>2026-03-29T09:24:03.998Z</time></trkpt><trkpt lat="39.336924169837" lon="9.279171967126402"><ele>454.0</ele><time>2026-03-29T09:24:04.998Z</time></trkpt><trkpt lat="39.3370053326798" lon="9.279207677508445"><ele>454.00000000000006</ele><time>2026-03-29T09:24:05.998Z</time></trkpt><trkpt lat="39.33709237341428" lon="9.279249578917888"><ele>454.0</ele><time>2026-03-29T09:24:06.998Z</time></trkpt><trkpt lat="39.33717773352172" lon="9.279283306642105"><ele>454.0</ele><time>2026-03-29T09:24:07.998Z</time></trkpt><trkpt lat="39.337247186974324" lon="9.27931590518663"><ele>454.0</ele><time>2026-03-29T09:24:08.998Z</time></trkpt><trkpt lat="39.33730632681292" lon="9.279368118806405"><ele>454.00000000000006</ele><time>2026-03-29T09:24:09.998Z</time></trkpt><trkpt lat="39.337365046224846" lon="9.279415324664564"><ele>454.0</ele><time>2026-03-29T09:24:11.998Z</time></trkpt><trkpt lat="39.337445754631815" lon="9.279425917101086"><ele>453.6666666666667</ele><time>2026-03-29T09:24:14.997Z</time></trkpt><trkpt lat="39.33750382453049" lon="9.279458442758957"><ele>453.33333333333337</ele><time>2026-03-29T09:24:15.997Z</time></trkpt><trkpt lat="39.33757704732161" lon="9.279499367194598"><ele>453.0</ele><time>2026-03-29T09:24:16.997Z</time></trkpt><trkpt lat="39.33766466855082" lon="9.279537582297216"><ele>452.66666666666663</ele><time>2026-03-29T09:24:17.997Z</time></trkpt><trkpt lat="39.337761349428085" lon="9.279573035627548"><ele>452.3333333333333</ele><time>2026-03-29T09:24:18.997Z</time></trkpt><trkpt lat="39.3378373376167" lon="9.27961020909241"><ele>452.0</ele><time>2026-03-29T09:24:19.997Z</time></trkpt><trkpt lat="39.337909940140605" lon="9.279635822024652"><ele>452.0</ele><time>2026-03-29T09:24:20.997Z</time></trkpt><trkpt lat="39.33797831693388" lon="9.279667965345652"><ele>452.00000000000006</ele><time>2026-03-29T09:24:21.997Z</time></trkpt><trkpt lat="39.338044390893025" lon="9.279716180983764"><ele>452.00000000000006</ele><time>2026-03-29T09:24:22.997Z</time></trkpt><trkpt lat="39.33816606685514" lon="9.279769633546655"><ele>452.0</ele><time>2026-03-29T09:24:24.997Z</time></trkpt><trkpt lat="39.338245365611336" lon="9.279720288515746"><ele>452.0</ele><time>2026-03-29T09:24:26.997Z</time></trkpt><trkpt lat="39.33833390892704" lon="9.279828221880752"><ele>454.99999999999994</ele><time>2026-03-29T09:24:30Z</time></trkpt><trkpt lat="39.33838408091316" lon="9.279915360465468"><ele>458.0</ele><time>2026-03-29T09:24:31Z</time></trkpt><trkpt lat="39.33845139931547" lon="9.279982568587494"><ele>461.0</ele><time>2026-03-29T09:24:32Z</time></trkpt><trkpt lat="39.33853169684293" lon="9.280022558934544"><ele>464.0</ele><time>2026-03-29T09:24:33Z</time></trkpt><trkpt lat="39.338622652838595" lon="9.280041141209287"><ele>466.99999999999994</ele><time>2026-03-29T09:24:34Z</time></trkpt><trkpt lat="39.338706607524294" lon="9.280086903296944"><ele>470.0</ele><time>2026-03-29T09:24:35Z</time></trkpt><trkpt lat="39.33879960072239" lon="9.280100685769224"><ele>471.6</ele><time>2026-03-29T09:24:36Z</time></trkpt><trkpt lat="39.33890005826353" lon="9.280111702876018"><ele>473.2</ele><time>2026-03-29T09:24:37Z</time></trkpt><trkpt lat="39.33900176578107" lon="9.280121377185496"><ele>474.79999999999995</ele><time>2026-03-29T09:24:38Z</time></trkpt><trkpt lat="39.339092294907196" lon="9.28013177269492"><ele>476.4</ele><time>2026-03-29T09:24:39Z</time></trkpt><trkpt lat="39.339176109160384" lon="9.280150840202511"><ele>478.0</ele><time>2026-03-29T09:24:40Z</time></trkpt><trkpt lat="39.339256793315194" lon="9.280177306208031"><ele>478.00000000000006</ele><time>2026-03-29T09:24:41Z</time></trkpt><trkpt lat="39.33933079082164" lon="9.280212778126419"><ele>478.0</ele><time>2026-03-29T09:24:42Z</time></trkpt><trkpt lat="39.33939707352007" lon="9.280247294937869"><ele>478.0</ele><time>2026-03-29T09:24:43Z</time></trkpt><trkpt lat="39.339461665076556" lon="9.280286069673494"><ele>478.0</ele><time>2026-03-29T09:24:45Z</time></trkpt><trkpt lat="39.33953196313372" lon="9.280164027998978"><ele>478.00000000000006</ele><time>2026-03-29T09:24:46Z</time></trkpt><trkpt lat="39.33951521432633" lon="9.280292721795899"><ele>478.0</ele><time>2026-03-29T09:24:47Z</time></trkpt><trkpt lat="39.33970001618948" lon="9.279957976983448"><ele>480.2</ele><time>2026-03-29T09:24:49Z</time></trkpt><trkpt lat="39.33977051791049" lon="9.279871080899701"><ele>482.4</ele><time>2026-03-29T09:24:50Z</time></trkpt><trkpt lat="39.33984764830968" lon="9.27977919925578"><ele>484.59999999999997</ele><time>2026-03-29T09:24:51Z</time></trkpt><trkpt lat="39.33993027111467" lon="9.279685056917835"><ele>486.79999999999995</ele><time>2026-03-29T09:24:52Z</time></trkpt><trkpt lat="39.33999228086792" lon="9.279618110970523"><ele>489.0</ele><time>2026-03-29T09:24:53Z</time></trkpt><trkpt lat="39.34008405329129" lon="9.279698194693555"><ele>489.0</ele><time>2026-03-29T09:24:56Z</time></trkpt><trkpt lat="39.34010338599748" lon="9.279783944920656"><ele>489.0</ele><time>2026-03-29T09:24:57Z</time></trkpt><trkpt lat="39.34013199989329" lon="9.279888701663728"><ele>489.0</ele><time>2026-03-29T09:24:58Z</time></trkpt><trkpt lat="39.340175672804506" lon="9.280004786437749"><ele>489.0</ele><time>2026-03-29T09:24:59Z</time></trkpt><trkpt lat="39.34024063437539" lon="9.280109390779273"><ele>489.0</ele><time>2026-03-29T09:25:00Z</time></trkpt><trkpt lat="39.34032168426871" lon="9.280212562887082"><ele>489.0</ele><time>2026-03-29T09:25:01Z</time></trkpt><trkpt lat="39.34041717577984" lon="9.28031129934604"><ele>489.0</ele><time>2026-03-29T09:25:02Z</time></trkpt><trkpt lat="39.34050188992323" lon="9.280398865005107"><ele>489.0</ele><time>2026-03-29T09:25:03Z</time></trkpt><trkpt lat="39.34054505377408" lon="9.280490571259033"><ele>489.0</ele><time>2026-03-29T09:25:04Z</time></trkpt><trkpt lat="39.34056300931143" lon="9.280598791942856"><ele>489.0</ele><time>2026-03-29T09:25:04.999Z</time></trkpt><trkpt lat="39.34057155891594" lon="9.280727763334907"><ele>493.0</ele><time>2026-03-29T09:25:05.999Z</time></trkpt><trkpt lat="39.340598494223435" lon="9.280850322589687"><ele>497.0</ele><time>2026-03-29T09:25:06.999Z</time></trkpt><trkpt lat="39.34065001274632" lon="9.280937557495445"><ele>501.0</ele><time>2026-03-29T09:25:07.999Z</time></trkpt><trkpt lat="39.34072321029629" lon="9.281060627241823"><ele>505.0</ele><time>2026-03-29T09:25:08.999Z</time></trkpt><trkpt lat="39.340790405129034" lon="9.281173791315613"><ele>509.0</ele><time>2026-03-29T09:25:09.999Z</time></trkpt><trkpt lat="39.34082927913561" lon="9.281261825140346"><ele>509.0</ele><time>2026-03-29T09:25:10.999Z</time></trkpt><trkpt lat="39.34086085021507" lon="9.281371358383506"><ele>509.0</ele><time>2026-03-29T09:25:11.999Z</time></trkpt><trkpt lat="39.34090015200431" lon="9.281490854866828"><ele>509.0</ele><time>2026-03-29T09:25:12.999Z</time></trkpt><trkpt lat="39.3409564324601" lon="9.281604197607045"><ele>509.0</ele><time>2026-03-29T09:25:13.999Z</time></trkpt><trkpt lat="39.341030513961165" lon="9.281722849681273"><ele>509.0</ele><time>2026-03-29T09:25:14.999Z</time></trkpt><trkpt lat="39.34109638539502" lon="9.281835871915423"><ele>508.3333333333333</ele><time>2026-03-29T09:25:15.999Z</time></trkpt><trkpt lat="39.34115666732389" lon="9.281933839975412"><ele>507.66666666666663</ele><time>2026-03-29T09:25:16.999Z</time></trkpt><trkpt lat="39.34122281637454" lon="9.281992152177654"><ele>507.0</ele><time>2026-03-29T09:25:17.999Z</time></trkpt><trkpt lat="39.34129450052158" lon="9.282049884611945"><ele>506.33333333333337</ele><time>2026-03-29T09:25:18.999Z</time></trkpt><trkpt lat="39.341374756952696" lon="9.28209510662253"><ele>505.6666666666667</ele><time>2026-03-29T09:25:19.999Z</time></trkpt><trkpt lat="39.341436626405844" lon="9.282135300199865"><ele>505.0</ele><time>2026-03-29T09:25:20.999Z</time></trkpt><trkpt lat="39.34148001367131" lon="9.282218756851107"><ele>509.2</ele><time>2026-03-29T09:25:21.999Z</time></trkpt><trkpt lat="39.34153986092156" lon="9.282320986279842"><ele>513.4</ele><time>2026-03-29T09:25:22.999Z</time></trkpt><trkpt lat="39.34160422730869" lon="9.282430274873247"><ele>517.6</ele><time>2026-03-29T09:25:23.999Z</time></trkpt><trkpt lat="39.34165756805242" lon="9.2825535092679"><ele>521.8</ele><time>2026-03-29T09:25:24.999Z</time></trkpt><trkpt lat="39.341707713385205" lon="9.282695163646132"><ele>526.0</ele><time>2026-03-29T09:25:25.999Z</time></trkpt><trkpt lat="39.34173729348797" lon="9.282803617654166"><ele>526.0</ele><time>2026-03-29T09:25:26.999Z</time></trkpt><trkpt lat="39.34177193698679" lon="9.282884467094213"><ele>526.0</ele><time>2026-03-29T09:25:27.999Z</time></trkpt><trkpt lat="39.34183713727238" lon="9.28293440938686"><ele>526.0</ele><time>2026-03-29T09:25:28.999Z</time></trkpt><trkpt lat="39.34192451925329" lon="9.282992769402808"><ele>526.0</ele><time>2026-03-29T09:25:29.999Z</time></trkpt><trkpt lat="39.34202760016114" lon="9.28303869842184"><ele>526.0</ele><time>2026-03-29T09:25:30.999Z</time></trkpt><trkpt lat="39.34212467992996" lon="9.283092549109357"><ele>527.2</ele><time>2026-03-29T09:25:31.999Z</time></trkpt><trkpt lat="39.34222272926133" lon="9.283155599602983"><ele>528.4000000000001</ele><time>2026-03-29T09:25:32.999Z</time></trkpt><trkpt lat="39.34230475034825" lon="9.283182888113126"><ele>529.6</ele><time>2026-03-29T09:25:33.999Z</time></trkpt><trkpt lat="39.34238395921771" lon="9.283184708831204"><ele>530.8000000000001</ele><time>2026-03-29T09:25:34.999Z</time></trkpt><trkpt lat="39.34246952814325" lon="9.283154221990292"><ele>532.0</ele><time>2026-03-29T09:25:35.999Z</time></trkpt><trkpt lat="39.34255687729906" lon="9.283143999699917"><ele>532.0</ele><time>2026-03-29T09:25:36.999Z</time></trkpt><trkpt lat="39.342651126209375" lon="9.283147521405779"><ele>532.0</ele><time>2026-03-29T09:25:37.999Z</time></trkpt><trkpt lat="39.34273575653074" lon="9.283190293189685"><ele>532.0</ele><time>2026-03-29T09:25:38.999Z</time></trkpt><trkpt lat="39.342800029175365" lon="9.283244349755824"><ele>532.0</ele><time>2026-03-29T09:25:39.999Z</time></trkpt><trkpt lat="39.34286106212403" lon="9.28328863712539"><ele>532.0</ele><time>2026-03-29T09:25:40.999Z</time></trkpt><trkpt lat="39.34299324910865" lon="9.283342845596422"><ele>534.8333333333334</ele><time>2026-03-29T09:25:42.999Z</time></trkpt><trkpt lat="39.34306694079196" lon="9.283350244256823"><ele>537.6666666666667</ele><time>2026-03-29T09:25:43.999Z</time></trkpt><trkpt lat="39.343140898965416" lon="9.2833324142682"><ele>540.5</ele><time>2026-03-29T09:25:44.998Z</time></trkpt><trkpt lat="39.3432169112027" lon="9.28330160283659"><ele>543.3333333333334</ele><time>2026-03-29T09:25:45.998Z</time></trkpt><trkpt lat="39.34330291139251" lon="9.283258539797577"><ele>546.1666666666666</ele><time>2026-03-29T09:25:46.998Z</time></trkpt><trkpt lat="39.34338345534408" lon="9.28322384435706"><ele>549.0</ele><time>2026-03-29T09:25:47.998Z</time></trkpt><trkpt lat="39.34350159155274" lon="9.28324243409029"><ele>549.0</ele><time>2026-03-29T09:25:49.998Z</time></trkpt><trkpt lat="39.343568232761946" lon="9.283276964924456"><ele>549.0</ele><time>2026-03-29T09:25:50.998Z</time></trkpt><trkpt lat="39.343632747467296" lon="9.283330967242406"><ele>549.0</ele><time>2026-03-29T09:25:51.998Z</time></trkpt><trkpt lat="39.3436989809807" lon="9.28339306231299"><ele>549.0</ele><time>2026-03-29T09:25:52.998Z</time></trkpt><trkpt lat="39.343763575852414" lon="9.283461576498299"><ele>549.0</ele><time>2026-03-29T09:25:53.998Z</time></trkpt><trkpt lat="39.34382582146903" lon="9.283546941232924"><ele>549.0</ele><time>2026-03-29T09:25:54.998Z</time></trkpt><trkpt lat="39.34389249944934" lon="9.283629330017105"><ele>550.0</ele><time>2026-03-29T09:25:55.998Z</time></trkpt><trkpt lat="39.343954875302686" lon="9.283721203629405"><ele>551.0</ele><time>2026-03-29T09:25:56.998Z</time></trkpt><trkpt lat="39.34401707307401" lon="9.283834991524632"><ele>552.0</ele><time>2026-03-29T09:25:57.998Z</time></trkpt><trkpt lat="39.34408665034329" lon="9.283944141222221"><ele>553.0</ele><time>2026-03-29T09:25:58.998Z</time></trkpt><trkpt lat="39.344163637931686" lon="9.284021714547166"><ele>554.0</ele><time>2026-03-29T09:25:59.998Z</time></trkpt><trkpt lat="39.3442379591254" lon="9.284065408806653"><ele>554.0</ele><time>2026-03-29T09:26:00.998Z</time></trkpt><trkpt lat="39.34430890674232" lon="9.284091519795872"><ele>554.0</ele><time>2026-03-29T09:26:01.998Z</time></trkpt><trkpt lat="39.34440846469445" lon="9.284121282899058"><ele>554.0</ele><time>2026-03-29T09:26:02.998Z</time></trkpt><trkpt lat="39.3445153648509" lon="9.284147877483788"><ele>554.0</ele><time>2026-03-29T09:26:03.998Z</time></trkpt><trkpt lat="39.344609052418065" lon="9.2841897176078"><ele>554.0</ele><time>2026-03-29T09:26:04.998Z</time></trkpt><trkpt lat="39.344714168878504" lon="9.284225239159266"><ele>558.2</ele><time>2026-03-29T09:26:05.998Z</time></trkpt><trkpt lat="39.344824691841524" lon="9.284259829892614"><ele>562.4</ele><time>2026-03-29T09:26:06.998Z</time></trkpt><trkpt lat="39.34492637452116" lon="9.284283862893371"><ele>566.6</ele><time>2026-03-29T09:26:07.998Z</time></trkpt><trkpt lat="39.34502830209936" lon="9.28430922056969"><ele>570.8</ele><time>2026-03-29T09:26:08.998Z</time></trkpt><trkpt lat="39.345132414454866" lon="9.284325223143256"><ele>575.0</ele><time>2026-03-29T09:26:09.998Z</time></trkpt><trkpt lat="39.345227678756714" lon="9.284321904468236"><ele>575.0</ele><time>2026-03-29T09:26:10.998Z</time></trkpt><trkpt lat="39.345309239893346" lon="9.284310840613857"><ele>575.0</ele><time>2026-03-29T09:26:11.998Z</time></trkpt><trkpt lat="39.345372247607244" lon="9.284291141967413"><ele>575.0</ele><time>2026-03-29T09:26:12.998Z</time></trkpt><trkpt lat="39.345473425768844" lon="9.28426160259987"><ele>575.0</ele><time>2026-03-29T09:26:14.998Z</time></trkpt><trkpt lat="39.34553653252793" lon="9.28422039667922"><ele>575.0</ele><time>2026-03-29T09:26:15.998Z</time></trkpt><trkpt lat="39.34560623775982" lon="9.284183195524436"><ele>575.0</ele><time>2026-03-29T09:26:16.998Z</time></trkpt><trkpt lat="39.34568952233368" lon="9.284137650095962"><ele>577.0</ele><time>2026-03-29T09:26:17.998Z</time></trkpt><trkpt lat="39.34577969751293" lon="9.284085825485972"><ele>579.0</ele><time>2026-03-29T09:26:18.998Z</time></trkpt><trkpt lat="39.34586130418565" lon="9.284025506005904"><ele>581.0</ele><time>2026-03-29T09:26:19.998Z</time></trkpt><trkpt lat="39.34594922817816" lon="9.28395821582362"><ele>583.0</ele><time>2026-03-29T09:26:20.998Z</time></trkpt><trkpt lat="39.34605718463404" lon="9.283883193309826"><ele>585.0</ele><time>2026-03-29T09:26:21.998Z</time></trkpt><trkpt lat="39.34618738900954" lon="9.283808385212906"><ele>590.75</ele><time>2026-03-29T09:26:22.998Z</time></trkpt><trkpt lat="39.34631659871492" lon="9.283741472446202"><ele>596.5</ele><time>2026-03-29T09:26:23.997Z</time></trkpt><trkpt lat="39.346448362027516" lon="9.283663622527083"><ele>602.25</ele><time>2026-03-29T09:26:24.997Z</time></trkpt><trkpt lat="39.34658495186552" lon="9.283587618293934"><ele>608.0</ele><time>2026-03-29T09:26:25.997Z</time></trkpt><trkpt lat="39.346692564339584" lon="9.283512266651373"><ele>608.0</ele><time>2026-03-29T09:26:26.997Z</time></trkpt><trkpt lat="39.34679096435159" lon="9.283450047819228"><ele>608.0</ele><time>2026-03-29T09:26:27.997Z</time></trkpt><trkpt lat="39.34686530092243" lon="9.2833584539554"><ele>608.0</ele><time>2026-03-29T09:26:28.997Z</time></trkpt><trkpt lat="39.34693205938912" lon="9.283255813060713"><ele>608.0</ele><time>2026-03-29T09:26:29.997Z</time></trkpt><trkpt lat="39.346990953366" lon="9.283146434503692"><ele>608.0</ele><time>2026-03-29T09:26:30.997Z</time></trkpt><trkpt lat="39.34704492597805" lon="9.283026817858914"><ele>611.4</ele><time>2026-03-29T09:26:31.997Z</time></trkpt><trkpt lat="39.347107960553835" lon="9.282908461400575"><ele>614.8</ele><time>2026-03-29T09:26:32.997Z</time></trkpt><trkpt lat="39.347149486977806" lon="9.28280955415115"><ele>618.2</ele><time>2026-03-29T09:26:33.997Z</time></trkpt><trkpt lat="39.347239442326675" lon="9.282741967778277"><ele>621.6</ele><time>2026-03-29T09:26:36Z</time></trkpt><trkpt lat="39.34730757493739" lon="9.282730543621513"><ele>625.0</ele><time>2026-03-29T09:26:37Z</time></trkpt><trkpt lat="39.34739011964426" lon="9.282729378252048"><ele>625.0</ele><time>2026-03-29T09:26:38Z</time></trkpt><trkpt lat="39.347471277885575" lon="9.282743571399136"><ele>625.0</ele><time>2026-03-29T09:26:39Z</time></trkpt><trkpt lat="39.34755104989879" lon="9.282740410397782"><ele>625.0</ele><time>2026-03-29T09:26:40Z</time></trkpt><trkpt lat="39.347622233935155" lon="9.282710967744519"><ele>625.0</ele><time>2026-03-29T09:26:41Z</time></trkpt><trkpt lat="39.34769480914168" lon="9.282654999564953"><ele>625.0</ele><time>2026-03-29T09:26:42Z</time></trkpt><trkpt lat="39.3477568396391" lon="9.282585547097092"><ele>625.0</ele><time>2026-03-29T09:26:43Z</time></trkpt><trkpt lat="39.34781934815085" lon="9.282512198978898"><ele>625.0</ele><time>2026-03-29T09:26:44Z</time></trkpt><trkpt lat="39.347898760897166" lon="9.282447205947141"><ele>625.0</ele><time>2026-03-29T09:26:45Z</time></trkpt><trkpt lat="39.34796484869896" lon="9.282377286605044"><ele>625.0</ele><time>2026-03-29T09:26:46Z</time></trkpt><trkpt lat="39.34804233733917" lon="9.282310301581377"><ele>625.0</ele><time>2026-03-29T09:26:47Z</time></trkpt><trkpt lat="39.34812083812888" lon="9.282254381303801"><ele>625.0</ele><time>2026-03-29T09:26:48Z</time></trkpt><trkpt lat="39.34817591173094" lon="9.282201846581192"><ele>625.0</ele><time>2026-03-29T09:26:49Z</time></trkpt><trkpt lat="39.34814668227666" lon="9.282118292755623"><ele>625.0</ele><time>2026-03-29T09:26:52Z</time></trkpt><trkpt lat="39.34808666953993" lon="9.28214428844974"><ele>625.0</ele><time>2026-03-29T09:26:54Z</time></trkpt><trkpt lat="39.347978946193486" lon="9.28223804130441"><ele>625.0</ele><time>2026-03-29T09:26:56Z</time></trkpt><trkpt lat="39.34791116030292" lon="9.282266095520196"><ele>625.0</ele><time>2026-03-29T09:26:57Z</time></trkpt><trkpt lat="39.34783324497173" lon="9.282281237204867"><ele>625.0</ele><time>2026-03-29T09:26:58Z</time></trkpt><trkpt lat="39.347751243121685" lon="9.282279517636297"><ele>625.0</ele><time>2026-03-29T09:26:59Z</time></trkpt><trkpt lat="39.347668162220714" lon="9.28227641086881"><ele>625.0</ele><time>2026-03-29T09:27:00Z</time></trkpt><trkpt lat="39.347595671020485" lon="9.28226812904152"><ele>625.0</ele><time>2026-03-29T09:27:01Z</time></trkpt><trkpt lat="39.34750199949478" lon="9.282193602985723"><ele>625.0</ele><time>2026-03-29T09:27:03Z</time></trkpt><trkpt lat="39.34744789606353" lon="9.282127140699446"><ele>625.0</ele><time>2026-03-29T09:27:04Z</time></trkpt><trkpt lat="39.34738318989955" lon="9.282031061479643"><ele>625.0</ele><time>2026-03-29T09:27:05Z</time></trkpt><trkpt lat="39.3473191768098" lon="9.281958116653213"><ele>625.0</ele><time>2026-03-29T09:27:06Z</time></trkpt><trkpt lat="39.34725876722735" lon="9.281916246608155"><ele>633.5</ele><time>2026-03-29T09:27:07Z</time></trkpt><trkpt lat="39.34719409026019" lon="9.281914893955584"><ele>642.0</ele><time>2026-03-29T09:27:07.999Z</time></trkpt><trkpt lat="39.34712278491431" lon="9.281956376746908"><ele>650.5</ele><time>2026-03-29T09:27:08.999Z</time></trkpt><trkpt lat="39.3470570255973" lon="9.282011872846635"><ele>659.0</ele><time>2026-03-29T09:27:09.999Z</time></trkpt><trkpt lat="39.346999873065066" lon="9.282069292273997"><ele>667.5</ele><time>2026-03-29T09:27:10.999Z</time></trkpt><trkpt lat="39.34689939930071" lon="9.282129857303717"><ele>676.0</ele><time>2026-03-29T09:27:11.999Z</time></trkpt><trkpt lat="39.34680837225222" lon="9.28218841226788"><ele>676.0</ele><time>2026-03-29T09:27:12.999Z</time></trkpt><trkpt lat="39.34669881598466" lon="9.282225274553253"><ele>676.0</ele><time>2026-03-29T09:27:13.999Z</time></trkpt><trkpt lat="39.34658011248906" lon="9.28227377148951"><ele>676.0</ele><time>2026-03-29T09:27:14.999Z</time></trkpt><trkpt lat="39.34647479309934" lon="9.28232206688245"><ele>676.0</ele><time>2026-03-29T09:27:15.999Z</time></trkpt><trkpt lat="39.34635201001635" lon="9.282349397753205"><ele>671.5</ele><time>2026-03-29T09:27:16.999Z</time></trkpt><trkpt lat="39.34621291275598" lon="9.28237020586725"><ele>667.0</ele><time>2026-03-29T09:27:17.999Z</time></trkpt><trkpt lat="39.346072467478685" lon="9.282381167221097"><ele>662.5</ele><time>2026-03-29T09:27:18.999Z</time></trkpt><trkpt lat="39.34593606934155" lon="9.28241358683769"><ele>658.0</ele><time>2026-03-29T09:27:19.999Z</time></trkpt><trkpt lat="39.345794538103405" lon="9.282443166955634"><ele>658.0</ele><time>2026-03-29T09:27:20.999Z</time></trkpt><trkpt lat="39.34568944743349" lon="9.282506687518678"><ele>658.0</ele><time>2026-03-29T09:27:21.999Z</time></trkpt><trkpt lat="39.34559634656789" lon="9.282496993306928"><ele>658.0</ele><time>2026-03-29T09:27:22.999Z</time></trkpt><trkpt lat="39.34553166759641" lon="9.28248314333741"><ele>658.0</ele><time>2026-03-29T09:27:23.999Z</time></trkpt><trkpt lat="39.34542432491919" lon="9.282411241253481"><ele>658.0</ele><time>2026-03-29T09:27:25.999Z</time></trkpt><trkpt lat="39.345343938847556" lon="9.28235513790173"><ele>656.0</ele><time>2026-03-29T09:27:26.999Z</time></trkpt><trkpt lat="39.34526284999452" lon="9.282295522200508"><ele>654.0</ele><time>2026-03-29T09:27:27.999Z</time></trkpt><trkpt lat="39.345181348058574" lon="9.282220787848066"><ele>652.0</ele><time>2026-03-29T09:27:28.999Z</time></trkpt><trkpt lat="39.3451113246527" lon="9.282138779633039"><ele>650.0</ele><time>2026-03-29T09:27:29.999Z</time></trkpt><trkpt lat="39.345044669508525" lon="9.282057690415373"><ele>648.0</ele><time>2026-03-29T09:27:30.999Z</time></trkpt><trkpt lat="39.34497630449842" lon="9.281961362797885"><ele>647.5999999999999</ele><time>2026-03-29T09:27:31.999Z</time></trkpt><trkpt lat="39.344910844385815" lon="9.281856362871686"><ele>647.1999999999999</ele><time>2026-03-29T09:27:32.999Z</time></trkpt><trkpt lat="39.3448456666334" lon="9.281753865734105"><ele>646.8</ele><time>2026-03-29T09:27:33.999Z</time></trkpt><trkpt lat="39.344772702992586" lon="9.28165651759861"><ele>646.4</ele><time>2026-03-29T09:27:34.999Z</time></trkpt><trkpt lat="39.34470775810105" lon="9.281546071708874"><ele>646.0</ele><time>2026-03-29T09:27:35.999Z</time></trkpt><trkpt lat="39.3446431148494" lon="9.281437780008027"><ele>652.4</ele><time>2026-03-29T09:27:36.999Z</time></trkpt><trkpt lat="39.34457394526906" lon="9.281321997481264"><ele>658.8</ele><time>2026-03-29T09:27:37.999Z</time></trkpt><trkpt lat="39.34449875267542" lon="9.281222248314211"><ele>665.1999999999999</ele><time>2026-03-29T09:27:38.999Z</time></trkpt><trkpt lat="39.34442011747404" lon="9.281117696329998"><ele>671.5999999999999</ele><time>2026-03-29T09:27:39.999Z</time></trkpt><trkpt lat="39.34435288181038" lon="9.281022361054086"><ele>678.0</ele><time>2026-03-29T09:27:40.999Z</time></trkpt><trkpt lat="39.34428380213732" lon="9.280948408997642"><ele>678.0</ele><time>2026-03-29T09:27:41.999Z</time></trkpt><trkpt lat="39.344203506749224" lon="9.280890326266398"><ele>678.0</ele><time>2026-03-29T09:27:42.999Z</time></trkpt><trkpt lat="39.34412563744144" lon="9.280807065491137"><ele>678.0</ele><time>2026-03-29T09:27:43.999Z</time></trkpt><trkpt lat="39.34404884805301" lon="9.28076175474817"><ele>678.0</ele><time>2026-03-29T09:27:44.999Z</time></trkpt><trkpt lat="39.34398466946027" lon="9.280735511706295"><ele>678.0</ele><time>2026-03-29T09:27:45.999Z</time></trkpt><trkpt lat="39.34393137542862" lon="9.280679081171892"><ele>678.0</ele><time>2026-03-29T09:27:47.999Z</time></trkpt><trkpt lat="39.34391343842093" lon="9.280588956084681"><ele>678.0</ele><time>2026-03-29T09:28:11.998Z</time></trkpt><trkpt lat="39.34395436703135" lon="9.280694277565429"><ele>678.0</ele><time>2026-03-29T09:29:29.999Z</time></trkpt><trkpt lat="39.34390231369551" lon="9.280631011692169"><ele>678.0</ele><time>2026-03-29T09:30:23.998Z</time></trkpt><trkpt lat="39.3438925388242" lon="9.280532246031136"><ele>678.0</ele><time>2026-03-29T09:30:38.997Z</time></trkpt><trkpt lat="39.34387224087772" lon="9.280387547362913"><ele>678.0</ele><time>2026-03-29T09:32:19.998Z</time></trkpt><trkpt lat="39.34386846699243" lon="9.280295193547442"><ele>678.0</ele><time>2026-03-29T09:32:20.998Z</time></trkpt><trkpt lat="39.34388188799914" lon="9.2801815112812"><ele>680.5</ele><time>2026-03-29T09:32:21.998Z</time></trkpt><trkpt lat="39.34390015405327" lon="9.280052542827702"><ele>683.0</ele><time>2026-03-29T09:32:22.998Z</time></trkpt><trkpt lat="39.34393080026219" lon="9.27989984559353"><ele>685.5</ele><time>2026-03-29T09:32:23.998Z</time></trkpt><trkpt lat="39.34395856380266" lon="9.279733486703927"><ele>688.0</ele><time>2026-03-29T09:32:24.998Z</time></trkpt><trkpt lat="39.34398786571185" lon="9.27955441167751"><ele>688.0</ele><time>2026-03-29T09:32:25.998Z</time></trkpt><trkpt lat="39.344013571292834" lon="9.279410854422595"><ele>688.0</ele><time>2026-03-29T09:32:26.998Z</time></trkpt><trkpt lat="39.344036092930025" lon="9.279278784944015"><ele>688.0</ele><time>2026-03-29T09:32:27.998Z</time></trkpt><trkpt lat="39.344064649012786" lon="9.279164400815686"><ele>688.0</ele><time>2026-03-29T09:32:28.998Z</time></trkpt><trkpt lat="39.34409435834748" lon="9.279067594107406"><ele>688.0</ele><time>2026-03-29T09:32:29.998Z</time></trkpt><trkpt lat="39.34412896657007" lon="9.278988527381824"><ele>683.5</ele><time>2026-03-29T09:32:30.998Z</time></trkpt><trkpt lat="39.344178264746915" lon="9.278924164925412"><ele>679.0</ele><time>2026-03-29T09:32:31.998Z</time></trkpt><trkpt lat="39.34423670280486" lon="9.278877893815695"><ele>674.5</ele><time>2026-03-29T09:32:32.998Z</time></trkpt><trkpt lat="39.34431251165369" lon="9.27885077111594"><ele>670.0</ele><time>2026-03-29T09:32:33.998Z</time></trkpt><trkpt lat="39.344388805669894" lon="9.278820943584691"><ele>665.5</ele><time>2026-03-29T09:32:34.998Z</time></trkpt><trkpt lat="39.34447678055598" lon="9.278783772196842"><ele>661.0</ele><time>2026-03-29T09:32:35.998Z</time></trkpt><trkpt lat="39.344583232526425" lon="9.27874249913394"><ele>661.0</ele><time>2026-03-29T09:32:36.997Z</time></trkpt><trkpt lat="39.3447114394754" lon="9.278691929054776"><ele>661.0</ele><time>2026-03-29T09:32:37.997Z</time></trkpt><trkpt lat="39.34483068729935" lon="9.278646747831075"><ele>661.0</ele><time>2026-03-29T09:32:38.997Z</time></trkpt><trkpt lat="39.34494109960595" lon="9.278594166878921"><ele>661.0</ele><time>2026-03-29T09:32:39.997Z</time></trkpt><trkpt lat="39.34505741486644" lon="9.278528613278095"><ele>666.8</ele><time>2026-03-29T09:32:40.997Z</time></trkpt><trkpt lat="39.34517131562198" lon="9.278467166061153"><ele>672.5999999999999</ele><time>2026-03-29T09:32:41.997Z</time></trkpt><trkpt lat="39.34526588993911" lon="9.278411852357392"><ele>678.4</ele><time>2026-03-29T09:32:42.997Z</time></trkpt><trkpt lat="39.34536037812721" lon="9.278359373663074"><ele>684.2</ele><time>2026-03-29T09:32:43.997Z</time></trkpt><trkpt lat="39.345446448033854" lon="9.278292345500816"><ele>690.0</ele><time>2026-03-29T09:32:44.997Z</time></trkpt><trkpt lat="39.345528426669766" lon="9.278222796391482"><ele>693.0</ele><time>2026-03-29T09:32:45.997Z</time></trkpt><trkpt lat="39.34561358769527" lon="9.278155984745716"><ele>696.0</ele><time>2026-03-29T09:32:46.997Z</time></trkpt><trkpt lat="39.34566445990787" lon="9.278091741936965"><ele>699.0</ele><time>2026-03-29T09:32:47.997Z</time></trkpt><trkpt lat="39.34573816901655" lon="9.278077550850407"><ele>702.0</ele><time>2026-03-29T09:32:50.997Z</time></trkpt><trkpt lat="39.34573705521429" lon="9.278181361328404"><ele>705.0</ele><time>2026-03-29T09:32:53Z</time></trkpt><trkpt lat="39.3456501705568" lon="9.27827718444255"><ele>708.0</ele><time>2026-03-29T09:33:21Z</time></trkpt><trkpt lat="39.345603012748526" lon="9.278346318622118"><ele>703.5</ele><time>2026-03-29T09:33:22Z</time></trkpt><trkpt lat="39.345529006838206" lon="9.27843186549648"><ele>699.0</ele><time>2026-03-29T09:33:23Z</time></trkpt><trkpt lat="39.34543438826577" lon="9.278528398453812"><ele>694.5</ele><time>2026-03-29T09:33:24Z</time></trkpt><trkpt lat="39.34534330611478" lon="9.278633240867524"><ele>690.0</ele><time>2026-03-29T09:33:25Z</time></trkpt><trkpt lat="39.3452490551412" lon="9.27873590798546"><ele>690.0</ele><time>2026-03-29T09:33:25.999Z</time></trkpt><trkpt lat="39.34513998806968" lon="9.278836074776207"><ele>690.0</ele><time>2026-03-29T09:33:26.999Z</time></trkpt><trkpt lat="39.345032317381445" lon="9.2789248761121"><ele>690.0</ele><time>2026-03-29T09:33:27.999Z</time></trkpt><trkpt lat="39.344933716476596" lon="9.27901773609029"><ele>690.0</ele><time>2026-03-29T09:33:28.999Z</time></trkpt><trkpt lat="39.34484175648702" lon="9.279101569584046"><ele>689.6</ele><time>2026-03-29T09:33:29.999Z</time></trkpt><trkpt lat="39.3447598582085" lon="9.279173933378182"><ele>689.2</ele><time>2026-03-29T09:33:30.999Z</time></trkpt><trkpt lat="39.34468521992287" lon="9.279256460474302"><ele>688.8</ele><time>2026-03-29T09:33:31.999Z</time></trkpt><trkpt lat="39.3446277268136" lon="9.279346896363025"><ele>688.4</ele><time>2026-03-29T09:33:32.999Z</time></trkpt><trkpt lat="39.344591271762354" lon="9.279449563053346"><ele>688.0</ele><time>2026-03-29T09:33:33.999Z</time></trkpt><trkpt lat="39.3445582193816" lon="9.279576557395195"><ele>688.0</ele><time>2026-03-29T09:33:34.999Z</time></trkpt><trkpt lat="39.34453754694224" lon="9.279704214655801"><ele>688.0</ele><time>2026-03-29T09:33:35.999Z</time></trkpt><trkpt lat="39.34453070054028" lon="9.279802669772996"><ele>688.0</ele><time>2026-03-29T09:33:36.999Z</time></trkpt><trkpt lat="39.344552735556405" lon="9.279893975133467"><ele>688.0</ele><time>2026-03-29T09:33:38.999Z</time></trkpt><trkpt lat="39.344634678808774" lon="9.279848289316318"><ele>688.0</ele><time>2026-03-29T09:33:41.999Z</time></trkpt><trkpt lat="39.34464441279973" lon="9.279731561459375"><ele>688.0</ele><time>2026-03-29T09:33:43.999Z</time></trkpt><trkpt lat="39.344667917303475" lon="9.27956033085475"><ele>694.4</ele><time>2026-03-29T09:33:45.999Z</time></trkpt><trkpt lat="39.34471541745653" lon="9.279482853769382"><ele>700.8</ele><time>2026-03-29T09:33:46.999Z</time></trkpt><trkpt lat="39.344781974219714" lon="9.27939839486891"><ele>707.2</ele><time>2026-03-29T09:33:47.999Z</time></trkpt><trkpt lat="39.34486491959685" lon="9.279310222790015"><ele>713.6</ele><time>2026-03-29T09:33:48.999Z</time></trkpt><trkpt lat="39.34495495292619" lon="9.279226046737804"><ele>720.0</ele><time>2026-03-29T09:33:49.999Z</time></trkpt><trkpt lat="39.345049110186025" lon="9.279160478659476"><ele>720.0</ele><time>2026-03-29T09:33:50.999Z</time></trkpt><trkpt lat="39.345166733391025" lon="9.27908476823394"><ele>720.0</ele><time>2026-03-29T09:33:51.999Z</time></trkpt><trkpt lat="39.34528226305709" lon="9.278996448599786"><ele>720.0</ele><time>2026-03-29T09:33:52.999Z</time></trkpt><trkpt lat="39.34539588054178" lon="9.278906315533943"><ele>720.0</ele><time>2026-03-29T09:33:53.999Z</time></trkpt><trkpt lat="39.34550134392494" lon="9.27881764736639"><ele>722.25</ele><time>2026-03-29T09:33:54.999Z</time></trkpt><trkpt lat="39.345594978134635" lon="9.278733815171506"><ele>724.5</ele><time>2026-03-29T09:33:55.999Z</time></trkpt><trkpt lat="39.34569226707463" lon="9.27865437043592"><ele>726.75</ele><time>2026-03-29T09:33:56.999Z</time></trkpt><trkpt lat="39.3457840257453" lon="9.278562110412924"><ele>729.0</ele><time>2026-03-29T09:33:57.999Z</time></trkpt><trkpt lat="39.34587894738153" lon="9.278456185968492"><ele>729.0</ele><time>2026-03-29T09:33:58.999Z</time></trkpt><trkpt lat="39.3459625365062" lon="9.278358169404381"><ele>729.0</ele><time>2026-03-29T09:33:59.999Z</time></trkpt><trkpt lat="39.346034495398705" lon="9.278260640229107"><ele>729.0</ele><time>2026-03-29T09:34:00.999Z</time></trkpt><trkpt lat="39.34608755787644" lon="9.278151171174262"><ele>729.0</ele><time>2026-03-29T09:34:01.999Z</time></trkpt><trkpt lat="39.346143431912814" lon="9.27805275117584"><ele>729.0</ele><time>2026-03-29T09:34:02.999Z</time></trkpt><trkpt lat="39.34618839668848" lon="9.277984067300427"><ele>726.0</ele><time>2026-03-29T09:34:03.999Z</time></trkpt><trkpt lat="39.34627140458288" lon="9.277926305237544"><ele>723.0</ele><time>2026-03-29T09:34:05.998Z</time></trkpt><trkpt lat="39.34632978815394" lon="9.277894432808907"><ele>720.0</ele><time>2026-03-29T09:34:06.998Z</time></trkpt><trkpt lat="39.346382872529496" lon="9.277847953664041"><ele>717.0</ele><time>2026-03-29T09:34:07.998Z</time></trkpt><trkpt lat="39.34643616323168" lon="9.277781738556456"><ele>714.0</ele><time>2026-03-29T09:34:08.998Z</time></trkpt><trkpt lat="39.346486872898275" lon="9.27771332575694"><ele>711.0</ele><time>2026-03-29T09:34:09.998Z</time></trkpt><trkpt lat="39.34654124613783" lon="9.277637180252785"><ele>708.0</ele><time>2026-03-29T09:34:10.998Z</time></trkpt><trkpt lat="39.346606338422525" lon="9.277577498271217"><ele>714.6666666666666</ele><time>2026-03-29T09:34:11.998Z</time></trkpt><trkpt lat="39.346682584584926" lon="9.277512399519143"><ele>721.3333333333334</ele><time>2026-03-29T09:34:12.998Z</time></trkpt><trkpt lat="39.346751792514446" lon="9.277441433789779"><ele>728.0</ele><time>2026-03-29T09:34:13.998Z</time></trkpt><trkpt lat="39.346817895520466" lon="9.277372913340056"><ele>734.6666666666667</ele><time>2026-03-29T09:34:14.998Z</time></trkpt><trkpt lat="39.346884344132256" lon="9.27731121983953"><ele>741.3333333333334</ele><time>2026-03-29T09:34:15.998Z</time></trkpt><trkpt lat="39.346951785120616" lon="9.277251038721879"><ele>748.0</ele><time>2026-03-29T09:34:16.998Z</time></trkpt><trkpt lat="39.347012298038436" lon="9.277186543395155"><ele>748.0</ele><time>2026-03-29T09:34:17.998Z</time></trkpt><trkpt lat="39.34706941100434" lon="9.277119680111003"><ele>748.0</ele><time>2026-03-29T09:34:18.998Z</time></trkpt><trkpt lat="39.34710684918803" lon="9.277053901106632"><ele>748.0</ele><time>2026-03-29T09:34:19.998Z</time></trkpt><trkpt lat="39.34714119343173" lon="9.276985330102052"><ele>748.0</ele><time>2026-03-29T09:34:20.998Z</time></trkpt><trkpt lat="39.34719645571275" lon="9.276925651658477"><ele>748.0</ele><time>2026-03-29T09:34:21.998Z</time></trkpt><trkpt lat="39.347259771741975" lon="9.276815664567577"><ele>748.0</ele><time>2026-03-29T09:34:23.998Z</time></trkpt><trkpt lat="39.34723437788498" lon="9.276672150389972"><ele>748.0</ele><time>2026-03-29T09:34:25.998Z</time></trkpt><trkpt lat="39.347164641820285" lon="9.276521541986193"><ele>748.0</ele><time>2026-03-29T09:34:27.998Z</time></trkpt><trkpt lat="39.34712625606095" lon="9.276441781348389"><ele>748.0</ele><time>2026-03-29T09:34:28.998Z</time></trkpt><trkpt lat="39.347071992981824" lon="9.276387931953693"><ele>748.0</ele><time>2026-03-29T09:34:29.998Z</time></trkpt><trkpt lat="39.34700537873805" lon="9.276338782023714"><ele>748.0</ele><time>2026-03-29T09:34:30.998Z</time></trkpt><trkpt lat="39.346927099033714" lon="9.276298768797941"><ele>748.0</ele><time>2026-03-29T09:34:31.998Z</time></trkpt><trkpt lat="39.346847754045555" lon="9.276257853439544"><ele>753.5</ele><time>2026-03-29T09:34:32.998Z</time></trkpt><trkpt lat="39.34675588375161" lon="9.276215545388967"><ele>759.0</ele><time>2026-03-29T09:34:33.998Z</time></trkpt><trkpt lat="39.34665819735081" lon="9.276180329471726"><ele>764.5</ele><time>2026-03-29T09:34:34.998Z</time></trkpt><trkpt lat="39.346574953402694" lon="9.27615185571651"><ele>770.0</ele><time>2026-03-29T09:34:35.998Z</time></trkpt><trkpt lat="39.346517012745615" lon="9.276097935202028"><ele>775.4999999999999</ele><time>2026-03-29T09:34:36.998Z</time></trkpt><trkpt lat="39.34647224341121" lon="9.276036798205043"><ele>781.0</ele><time>2026-03-29T09:34:37.998Z</time></trkpt><trkpt lat="39.34642972136129" lon="9.275946447349646"><ele>783.1666666666666</ele><time>2026-03-29T09:34:38.998Z</time></trkpt><trkpt lat="39.346376793281664" lon="9.275855029848328"><ele>785.3333333333333</ele><time>2026-03-29T09:34:39.998Z</time></trkpt><trkpt lat="39.34631226018271" lon="9.275791406431821"><ele>787.5</ele><time>2026-03-29T09:34:40.998Z</time></trkpt><trkpt lat="39.34623782754755" lon="9.275737819822604"><ele>789.6666666666667</ele><time>2026-03-29T09:34:41.998Z</time></trkpt><trkpt lat="39.34617379586812" lon="9.275667942309054"><ele>791.8333333333334</ele><time>2026-03-29T09:34:42.997Z</time></trkpt><trkpt lat="39.346122791230584" lon="9.275592910347196"><ele>794.0</ele><time>2026-03-29T09:34:43.997Z</time></trkpt><trkpt lat="39.346068438892615" lon="9.275490206880834"><ele>794.0000000000001</ele><time>2026-03-29T09:34:44.997Z</time></trkpt><trkpt lat="39.346021695794114" lon="9.275410575651243"><ele>794.0</ele><time>2026-03-29T09:34:45.997Z</time></trkpt><trkpt lat="39.34595818764491" lon="9.275390701837843"><ele>794.0</ele><time>2026-03-29T09:34:46.997Z</time></trkpt><trkpt lat="39.34589359080806" lon="9.275375917202547"><ele>794.0</ele><time>2026-03-29T09:34:47.997Z</time></trkpt><trkpt lat="39.34581425914672" lon="9.275376552424426"><ele>794.0000000000001</ele><time>2026-03-29T09:34:48.997Z</time></trkpt><trkpt lat="39.34572681217414" lon="9.275395986801605"><ele>794.0</ele><time>2026-03-29T09:34:49.997Z</time></trkpt><trkpt lat="39.34564531549573" lon="9.27538659235817"><ele>794.0000000000001</ele><time>2026-03-29T09:34:50.997Z</time></trkpt><trkpt lat="39.345586257056205" lon="9.275356673208332"><ele>794.0</ele><time>2026-03-29T09:34:51.997Z</time></trkpt><trkpt lat="39.34554329578703" lon="9.27529331889291"><ele>794.0</ele><time>2026-03-29T09:34:52.997Z</time></trkpt><trkpt lat="39.34550095819339" lon="9.275213234698409"><ele>794.0</ele><time>2026-03-29T09:34:53.997Z</time></trkpt><trkpt lat="39.345460731919424" lon="9.275117720373384"><ele>794.0000000000001</ele><time>2026-03-29T09:34:54.997Z</time></trkpt><trkpt lat="39.345417318586804" lon="9.275013120227579"><ele>794.0</ele><time>2026-03-29T09:34:55.997Z</time></trkpt><trkpt lat="39.34538570773234" lon="9.274909939039933"><ele>794.8000000000001</ele><time>2026-03-29T09:34:56.997Z</time></trkpt><trkpt lat="39.345366606924756" lon="9.274800332750225"><ele>795.6</ele><time>2026-03-29T09:34:57.997Z</time></trkpt><trkpt lat="39.345359349370746" lon="9.274704436130696"><ele>796.4</ele><time>2026-03-29T09:34:59Z</time></trkpt><trkpt lat="39.34538977891803" lon="9.274583406520893"><ele>797.2</ele><time>2026-03-29T09:35:01Z</time></trkpt><trkpt lat="39.345495099171515" lon="9.274511044542145"><ele>798.0</ele><time>2026-03-29T09:35:03Z</time></trkpt><trkpt lat="39.34557199430377" lon="9.274455166324392"><ele>798.0</ele><time>2026-03-29T09:35:04Z</time></trkpt><trkpt lat="39.345644314808204" lon="9.274379706762119"><ele>798.0</ele><time>2026-03-29T09:35:05Z</time></trkpt><trkpt lat="39.345715509757994" lon="9.274286693897176"><ele>798.0</ele><time>2026-03-29T09:35:06Z</time></trkpt><trkpt lat="39.34578010331889" lon="9.27417632838655"><ele>798.0</ele><time>2026-03-29T09:35:07Z</time></trkpt><trkpt lat="39.345811918508446" lon="9.274077781025692"><ele>798.0</ele><time>2026-03-29T09:35:08Z</time></trkpt><trkpt lat="39.3458367751935" lon="9.27397408044815"><ele>798.0</ele><time>2026-03-29T09:35:09Z</time></trkpt><trkpt lat="39.34584763364888" lon="9.27386448590246"><ele>798.0</ele><time>2026-03-29T09:35:10Z</time></trkpt><trkpt lat="39.34585626288117" lon="9.273741757450296"><ele>798.0</ele><time>2026-03-29T09:35:11Z</time></trkpt><trkpt lat="39.345870859151695" lon="9.273590794710941"><ele>798.0</ele><time>2026-03-29T09:35:12Z</time></trkpt><trkpt lat="39.345893705962034" lon="9.273449588116527"><ele>798.0</ele><time>2026-03-29T09:35:13Z</time></trkpt><trkpt lat="39.34591903983078" lon="9.273333490600102"><ele>798.0</ele><time>2026-03-29T09:35:14Z</time></trkpt><trkpt lat="39.34594619689626" lon="9.273243312210345"><ele>798.0</ele><time>2026-03-29T09:35:15Z</time></trkpt><trkpt lat="39.34599280658861" lon="9.273186823109539"><ele>798.0</ele><time>2026-03-29T09:35:26Z</time></trkpt><trkpt lat="39.346009388755085" lon="9.273293063446161"><ele>798.0</ele><time>2026-03-29T09:36:00.999Z</time></trkpt><trkpt lat="39.346000256938495" lon="9.27338166585414"><ele>798.0</ele><time>2026-03-29T09:36:05.999Z</time></trkpt><trkpt lat="39.345993613523675" lon="9.273463772555191"><ele>798.0</ele><time>2026-03-29T09:36:11.998Z</time></trkpt><trkpt lat="39.345994440120954" lon="9.273551750788497"><ele>798.0</ele><time>2026-03-29T09:36:19.998Z</time></trkpt><trkpt lat="39.345998749989455" lon="9.273641246254774"><ele>798.0</ele><time>2026-03-29T09:36:24.998Z</time></trkpt><trkpt lat="39.34596123315098" lon="9.273570515828204"><ele>798.0</ele><time>2026-03-29T09:38:01.999Z</time></trkpt><trkpt lat="39.345953920761765" lon="9.27348850987079"><ele>798.0</ele><time>2026-03-29T09:38:09.999Z</time></trkpt><trkpt lat="39.345962310116526" lon="9.27340354577104"><ele>798.0</ele><time>2026-03-29T09:38:15.999Z</time></trkpt><trkpt lat="39.34596787341027" lon="9.27332110881492"><ele>798.0</ele><time>2026-03-29T09:38:24.998Z</time></trkpt><trkpt lat="39.345966636138414" lon="9.273236919059846"><ele>798.0</ele><time>2026-03-29T09:38:31.998Z</time></trkpt><trkpt lat="39.345969917848095" lon="9.27315438508591"><ele>798.0</ele><time>2026-03-29T09:38:38.998Z</time></trkpt><trkpt lat="39.34599795818014" lon="9.273021263142024"><ele>798.0</ele><time>2026-03-29T09:39:18Z</time></trkpt><trkpt lat="39.3459843330273" lon="9.273109647968894"><ele>798.0</ele><time>2026-03-29T09:49:32.997Z</time></trkpt><trkpt lat="39.345986649426195" lon="9.273192457596457"><ele>798.0</ele><time>2026-03-29T09:49:37.997Z</time></trkpt><trkpt lat="39.34599430676821" lon="9.27328395750431"><ele>798.0</ele><time>2026-03-29T09:49:45Z</time></trkpt><trkpt lat="39.345988582133785" lon="9.273372908130584"><ele>798.0</ele><time>2026-03-29T09:49:52Z</time></trkpt><trkpt lat="39.345984533541255" lon="9.273454655537432"><ele>798.0</ele><time>2026-03-29T09:49:58Z</time></trkpt><trkpt lat="39.34597660117048" lon="9.273548895335212"><ele>798.0</ele><time>2026-03-29T09:50:09Z</time></trkpt><trkpt lat="39.34598180606007" lon="9.273632622883145"><ele>798.0</ele><time>2026-03-29T09:50:14.999Z</time></trkpt><trkpt lat="39.34598818093508" lon="9.273718055252193"><ele>798.0</ele><time>2026-03-29T09:51:07.998Z</time></trkpt></trkseg><trkseg><trkpt lat="39.34598021510739" lon="9.273756079343322"><ele>798.0</ele><time>2026-03-29T10:01:31.999Z</time></trkpt><trkpt lat="39.34600608067532" lon="9.273903255268696"><ele>798.0</ele><time>2026-03-29T10:01:33.999Z</time></trkpt><trkpt lat="39.34601251744723" lon="9.273987014112642"><ele>798.0</ele><time>2026-03-29T10:01:34.999Z</time></trkpt><trkpt lat="39.346013937489644" lon="9.27407367597849"><ele>798.0</ele><time>2026-03-29T10:01:35.999Z</time></trkpt><trkpt lat="39.34600381233833" lon="9.274154330221968"><ele>798.0</ele><time>2026-03-29T10:01:36.999Z</time></trkpt><trkpt lat="39.34598784705046" lon="9.274242397065795"><ele>798.0</ele><time>2026-03-29T10:01:37.999Z</time></trkpt><trkpt lat="39.34596800210369" lon="9.274336187352262"><ele>798.0</ele><time>2026-03-29T10:01:38.999Z</time></trkpt><trkpt lat="39.34594938659499" lon="9.274439680508214"><ele>798.0</ele><time>2026-03-29T10:01:39.999Z</time></trkpt><trkpt lat="39.345930371058515" lon="9.274534260293182"><ele>798.0</ele><time>2026-03-29T10:01:40.999Z</time></trkpt><trkpt lat="39.34591602013703" lon="9.274633218529607"><ele>798.0</ele><time>2026-03-29T10:01:41.999Z</time></trkpt><trkpt lat="39.34591624492963" lon="9.274724874340734"><ele>798.0</ele><time>2026-03-29T10:01:42.999Z</time></trkpt><trkpt lat="39.345974909538796" lon="9.274852039589739"><ele>798.0</ele><time>2026-03-29T10:01:44.999Z</time></trkpt><trkpt lat="39.34608817707511" lon="9.27491644119175"><ele>797.2</ele><time>2026-03-29T10:01:46.999Z</time></trkpt><trkpt lat="39.34616487453717" lon="9.274950575118506"><ele>796.4</ele><time>2026-03-29T10:01:47.999Z</time></trkpt><trkpt lat="39.34624362811107" lon="9.274993316197781"><ele>795.6</ele><time>2026-03-29T10:01:48.999Z</time></trkpt><trkpt lat="39.34632020722324" lon="9.275058425709185"><ele>794.8000000000001</ele><time>2026-03-29T10:01:49.999Z</time></trkpt><trkpt lat="39.34639137694206" lon="9.275143604033547"><ele>794.0</ele><time>2026-03-29T10:01:50.999Z</time></trkpt><trkpt lat="39.34646239388237" lon="9.275224593945106"><ele>798.8333333333334</ele><time>2026-03-29T10:01:51.999Z</time></trkpt><trkpt lat="39.346533350114655" lon="9.27529190054896"><ele>803.6666666666667</ele><time>2026-03-29T10:01:52.999Z</time></trkpt><trkpt lat="39.34660905375582" lon="9.275341263190223"><ele>808.5</ele><time>2026-03-29T10:01:53.999Z</time></trkpt><trkpt lat="39.34669372287149" lon="9.275386038513027"><ele>813.3333333333333</ele><time>2026-03-29T10:01:54.999Z</time></trkpt><trkpt lat="39.34678210508888" lon="9.275442792762231"><ele>818.1666666666666</ele><time>2026-03-29T10:01:55.999Z</time></trkpt><trkpt lat="39.34685084710223" lon="9.275492290503477"><ele>823.0</ele><time>2026-03-29T10:01:56.999Z</time></trkpt><trkpt lat="39.34691889320976" lon="9.275516388452523"><ele>822.9999999999999</ele><time>2026-03-29T10:01:57.999Z</time></trkpt><trkpt lat="39.34699594150772" lon="9.275512150994127"><ele>823.0</ele><time>2026-03-29T10:01:58.999Z</time></trkpt><trkpt lat="39.34708074796703" lon="9.275499432484972"><ele>823.0</ele><time>2026-03-29T10:01:59.999Z</time></trkpt><trkpt lat="39.34716328087655" lon="9.275499762694709"><ele>823.0</ele><time>2026-03-29T10:02:00.999Z</time></trkpt><trkpt lat="39.3472478740263" lon="9.275493206654847"><ele>822.9999999999999</ele><time>2026-03-29T10:02:01.999Z</time></trkpt><trkpt lat="39.34732672638335" lon="9.275476775954244"><ele>823.0</ele><time>2026-03-29T10:02:02.999Z</time></trkpt><trkpt lat="39.347402285175775" lon="9.275467942974236"><ele>820.5999999999999</ele><time>2026-03-29T10:02:03.999Z</time></trkpt><trkpt lat="39.34751278507073" lon="9.27550498740821"><ele>818.1999999999999</ele><time>2026-03-29T10:02:05.999Z</time></trkpt><trkpt lat="39.34759162512172" lon="9.275596174609179"><ele>815.8</ele><time>2026-03-29T10:02:07.998Z</time></trkpt><trkpt lat="39.34767007666883" lon="9.27566694189312"><ele>813.4</ele><time>2026-03-29T10:02:09.998Z</time></trkpt><trkpt lat="39.34775184307981" lon="9.275692931159854"><ele>811.0</ele><time>2026-03-29T10:02:11.998Z</time></trkpt><trkpt lat="39.34785698657219" lon="9.275730307013296"><ele>810.9999999999999</ele><time>2026-03-29T10:02:13.998Z</time></trkpt><trkpt lat="39.34792547191128" lon="9.27575448261832"><ele>811.0</ele><time>2026-03-29T10:02:14.998Z</time></trkpt><trkpt lat="39.348002410670794" lon="9.275756970574045"><ele>811.0</ele><time>2026-03-29T10:02:15.998Z</time></trkpt><trkpt lat="39.34809772338398" lon="9.275733379975426"><ele>811.0</ele><time>2026-03-29T10:02:16.998Z</time></trkpt><trkpt lat="39.348191819302976" lon="9.275701879164915"><ele>810.9999999999999</ele><time>2026-03-29T10:02:17.998Z</time></trkpt><trkpt lat="39.34828404980066" lon="9.275669961018021"><ele>811.0</ele><time>2026-03-29T10:02:18.998Z</time></trkpt><trkpt lat="39.34837829783035" lon="9.27562144300535"><ele>819.5999999999999</ele><time>2026-03-29T10:02:19.998Z</time></trkpt><trkpt lat="39.348471400149265" lon="9.275555867461737"><ele>828.2</ele><time>2026-03-29T10:02:20.998Z</time></trkpt><trkpt lat="39.34856084228713" lon="9.275483942364778"><ele>836.8000000000001</ele><time>2026-03-29T10:02:21.998Z</time></trkpt><trkpt lat="39.348629479571514" lon="9.275425071756725"><ele>845.4000000000001</ele><time>2026-03-29T10:02:22.998Z</time></trkpt><trkpt lat="39.34869952198003" lon="9.275365969039791"><ele>854.0</ele><time>2026-03-29T10:02:24.998Z</time></trkpt><trkpt lat="39.34877847285687" lon="9.275368820923024"><ele>854.0000000000001</ele><time>2026-03-29T10:02:27.998Z</time></trkpt><trkpt lat="39.34884840926226" lon="9.27534550151972"><ele>854.0</ele><time>2026-03-29T10:02:30.998Z</time></trkpt><trkpt lat="39.34892221278987" lon="9.275358366581944"><ele>854.0</ele><time>2026-03-29T10:02:32.998Z</time></trkpt><trkpt lat="39.349014008984916" lon="9.275368409443761"><ele>854.0</ele><time>2026-03-29T10:02:34.998Z</time></trkpt><trkpt lat="39.34912516077902" lon="9.275374919445465"><ele>854.0000000000001</ele><time>2026-03-29T10:02:35.998Z</time></trkpt><trkpt lat="39.34920984136928" lon="9.275379608062122"><ele>854.0</ele><time>2026-03-29T10:02:36.998Z</time></trkpt><trkpt lat="39.34929251436509" lon="9.275394576140478"><ele>854.0000000000001</ele><time>2026-03-29T10:02:37.998Z</time></trkpt><trkpt lat="39.34938194435588" lon="9.275398839209123"><ele>854.0</ele><time>2026-03-29T10:02:38.998Z</time></trkpt><trkpt lat="39.34946153884809" lon="9.275426410082915"><ele>854.0</ele><time>2026-03-29T10:02:39.998Z</time></trkpt><trkpt lat="39.34952866165684" lon="9.27545303049517"><ele>854.0</ele><time>2026-03-29T10:02:40.998Z</time></trkpt><trkpt lat="39.34960517115106" lon="9.27551936649648"><ele>854.0000000000001</ele><time>2026-03-29T10:02:42.998Z</time></trkpt><trkpt lat="39.34962366561882" lon="9.275648397883788"><ele>854.0</ele><time>2026-03-29T10:02:44.998Z</time></trkpt><trkpt lat="39.34960845189713" lon="9.275811489849728"><ele>852.3333333333334</ele><time>2026-03-29T10:02:46.998Z</time></trkpt><trkpt lat="39.34959599118899" lon="9.27590006413005"><ele>850.6666666666667</ele><time>2026-03-29T10:02:47.998Z</time></trkpt><trkpt lat="39.34958141035942" lon="9.275990010114993"><ele>849.0</ele><time>2026-03-29T10:02:48.997Z</time></trkpt><trkpt lat="39.349560809054985" lon="9.276090326639883"><ele>847.3333333333333</ele><time>2026-03-29T10:02:49.997Z</time></trkpt><trkpt lat="39.34954910680538" lon="9.276199371406022"><ele>845.6666666666666</ele><time>2026-03-29T10:02:50.997Z</time></trkpt><trkpt lat="39.34956296143819" lon="9.276309870624544"><ele>844.0</ele><time>2026-03-29T10:02:52Z</time></trkpt><trkpt lat="39.349607020290726" lon="9.276416439587404"><ele>843.0</ele><time>2026-03-29T10:02:53Z</time></trkpt><trkpt lat="39.349649612481265" lon="9.276528148303436"><ele>842.0</ele><time>2026-03-29T10:02:54Z</time></trkpt><trkpt lat="39.349683970314" lon="9.27665247034402"><ele>841.0</ele><time>2026-03-29T10:02:55Z</time></trkpt><trkpt lat="39.349714229085116" lon="9.27676622184694"><ele>840.0</ele><time>2026-03-29T10:02:56Z</time></trkpt><trkpt lat="39.34975148564539" lon="9.276872285271233"><ele>839.0</ele><time>2026-03-29T10:02:57Z</time></trkpt><trkpt lat="39.34980690410574" lon="9.27696775437924"><ele>842.8333333333334</ele><time>2026-03-29T10:02:58Z</time></trkpt><trkpt lat="39.349876897151745" lon="9.277058040250934"><ele>846.6666666666667</ele><time>2026-03-29T10:02:59Z</time></trkpt><trkpt lat="39.34994054130529" lon="9.27714148643582"><ele>850.5</ele><time>2026-03-29T10:03:00Z</time></trkpt><trkpt lat="39.3499800210217" lon="9.27721790430499"><ele>854.3333333333333</ele><time>2026-03-29T10:03:01Z</time></trkpt><trkpt lat="39.349991692478405" lon="9.277321565438799"><ele>858.1666666666666</ele><time>2026-03-29T10:03:02Z</time></trkpt><trkpt lat="39.34997255707941" lon="9.277437293771692"><ele>862.0</ele><time>2026-03-29T10:03:03Z</time></trkpt><trkpt lat="39.34994926670834" lon="9.277558118412195"><ele>861.9999999999999</ele><time>2026-03-29T10:03:04Z</time></trkpt><trkpt lat="39.34992394184581" lon="9.277691972480705"><ele>862.0</ele><time>2026-03-29T10:03:05Z</time></trkpt><trkpt lat="39.34989848040658" lon="9.277812834347126"><ele>862.0</ele><time>2026-03-29T10:03:06Z</time></trkpt><trkpt lat="39.34987020462955" lon="9.27791354004248"><ele>862.0</ele><time>2026-03-29T10:03:07Z</time></trkpt><trkpt lat="39.349853757678815" lon="9.278000079927587"><ele>861.9999999999999</ele><time>2026-03-29T10:03:08Z</time></trkpt><trkpt lat="39.34989486217041" lon="9.278080112497182"><ele>862.0</ele><time>2026-03-29T10:03:10Z</time></trkpt><trkpt lat="39.34996416012456" lon="9.278079110522093"><ele>862.0</ele><time>2026-03-29T10:03:12Z</time></trkpt><trkpt lat="39.35006139016002" lon="9.277973878225612"><ele>862.0</ele><time>2026-03-29T10:03:14Z</time></trkpt><trkpt lat="39.35013558152824" lon="9.277921426012735"><ele>862.0</ele><time>2026-03-29T10:03:15Z</time></trkpt><trkpt lat="39.35023213977613" lon="9.277879668181999"><ele>862.0</ele><time>2026-03-29T10:03:16Z</time></trkpt><trkpt lat="39.35033141924347" lon="9.277848103021226"><ele>862.0</ele><time>2026-03-29T10:03:17Z</time></trkpt><trkpt lat="39.350444100884076" lon="9.27780858691575"><ele>861.75</ele><time>2026-03-29T10:03:18Z</time></trkpt><trkpt lat="39.35056515562197" lon="9.277762886324059"><ele>861.5</ele><time>2026-03-29T10:03:19Z</time></trkpt><trkpt lat="39.35069167991837" lon="9.277709588920345"><ele>861.25</ele><time>2026-03-29T10:03:20Z</time></trkpt><trkpt lat="39.35081041200779" lon="9.27765716003073"><ele>861.0</ele><time>2026-03-29T10:03:21Z</time></trkpt><trkpt lat="39.35091118986908" lon="9.277599074783518"><ele>861.0</ele><time>2026-03-29T10:03:22Z</time></trkpt><trkpt lat="39.35100515742375" lon="9.277523409283862"><ele>860.9999999999999</ele><time>2026-03-29T10:03:23Z</time></trkpt><trkpt lat="39.351081096132056" lon="9.277430197775764"><ele>860.9999999999999</ele><time>2026-03-29T10:03:24Z</time></trkpt><trkpt lat="39.35113963633216" lon="9.277326167193102"><ele>861.0</ele><time>2026-03-29T10:03:25Z</time></trkpt><trkpt lat="39.35118267397081" lon="9.277212696846732"><ele>861.0</ele><time>2026-03-29T10:03:26Z</time></trkpt><trkpt lat="39.35121431908935" lon="9.277105528926045"><ele>862.1999999999999</ele><time>2026-03-29T10:03:27Z</time></trkpt><trkpt lat="39.35123784199888" lon="9.277018213098941"><ele>863.3999999999999</ele><time>2026-03-29T10:03:28Z</time></trkpt><trkpt lat="39.3513053724356" lon="9.276900823945402"><ele>864.6</ele><time>2026-03-29T10:03:30Z</time></trkpt><trkpt lat="39.351437880442276" lon="9.276898454415576"><ele>865.8</ele><time>2026-03-29T10:03:31.999Z</time></trkpt><trkpt lat="39.351528880899586" lon="9.276926359709112"><ele>867.0</ele><time>2026-03-29T10:03:32.999Z</time></trkpt><trkpt lat="39.351634250008" lon="9.276937513079584"><ele>864.0</ele><time>2026-03-29T10:03:33.999Z</time></trkpt><trkpt lat="39.351746512125644" lon="9.276931530228635"><ele>861.0</ele><time>2026-03-29T10:03:34.999Z</time></trkpt><trkpt lat="39.351857331048514" lon="9.276911111759588"><ele>858.0</ele><time>2026-03-29T10:03:35.999Z</time></trkpt><trkpt lat="39.35196979150858" lon="9.276891319401543"><ele>855.0</ele><time>2026-03-29T10:03:36.999Z</time></trkpt><trkpt lat="39.35208318516404" lon="9.276871479110461"><ele>855.0</ele><time>2026-03-29T10:03:37.999Z</time></trkpt><trkpt lat="39.352188282456765" lon="9.276845031033544"><ele>855.0</ele><time>2026-03-29T10:03:38.999Z</time></trkpt><trkpt lat="39.352284516985705" lon="9.276802246387541"><ele>855.0</ele><time>2026-03-29T10:03:39.999Z</time></trkpt><trkpt lat="39.35237044861314" lon="9.27675717215557"><ele>855.0</ele><time>2026-03-29T10:03:40.999Z</time></trkpt><trkpt lat="39.352433786637654" lon="9.276698417666253"><ele>855.0</ele><time>2026-03-29T10:03:41.999Z</time></trkpt><trkpt lat="39.35248400589489" lon="9.2766384581131"><ele>855.0</ele><time>2026-03-29T10:03:42.999Z</time></trkpt><trkpt lat="39.35253190842176" lon="9.276565187509217"><ele>854.5</ele><time>2026-03-29T10:03:43.999Z</time></trkpt><trkpt lat="39.352567349258216" lon="9.276465018251491"><ele>854.0</ele><time>2026-03-29T10:03:44.999Z</time></trkpt><trkpt lat="39.35258959247378" lon="9.276377493557733"><ele>853.5</ele><time>2026-03-29T10:03:45.999Z</time></trkpt><trkpt lat="39.3526793822886" lon="9.27634101914669"><ele>853.0</ele><time>2026-03-29T10:03:47.999Z</time></trkpt><trkpt lat="39.35277422723245" lon="9.276429746278545"><ele>852.5</ele><time>2026-03-29T10:03:49.999Z</time></trkpt><trkpt lat="39.35282909336319" lon="9.276502589258056"><ele>852.0</ele><time>2026-03-29T10:03:50.999Z</time></trkpt><trkpt lat="39.3528880349883" lon="9.276589233714624"><ele>850.1666666666666</ele><time>2026-03-29T10:03:51.999Z</time></trkpt><trkpt lat="39.352941821863794" lon="9.276661334514445"><ele>848.3333333333333</ele><time>2026-03-29T10:03:52.999Z</time></trkpt><trkpt lat="39.35297418579438" lon="9.276735386622"><ele>846.5</ele><time>2026-03-29T10:03:53.999Z</time></trkpt><trkpt lat="39.352982040618414" lon="9.276816360280078"><ele>844.6666666666666</ele><time>2026-03-29T10:03:54.999Z</time></trkpt><trkpt lat="39.35295624064331" lon="9.276909697670094"><ele>842.8333333333333</ele><time>2026-03-29T10:03:55.999Z</time></trkpt><trkpt lat="39.352915304707125" lon="9.277007633093387"><ele>841.0</ele><time>2026-03-29T10:03:56.999Z</time></trkpt><trkpt lat="39.35286526879909" lon="9.27711164732966"><ele>840.9999999999999</ele><time>2026-03-29T10:03:57.999Z</time></trkpt><trkpt lat="39.35282485141852" lon="9.27721088017886"><ele>841.0</ele><time>2026-03-29T10:03:58.999Z</time></trkpt><trkpt lat="39.35278183180653" lon="9.277316160019424"><ele>841.0</ele><time>2026-03-29T10:03:59.999Z</time></trkpt><trkpt lat="39.35273821596432" lon="9.277428123225011"><ele>841.0</ele><time>2026-03-29T10:04:00.999Z</time></trkpt><trkpt lat="39.35269722665149" lon="9.277529208033195"><ele>840.9999999999999</ele><time>2026-03-29T10:04:01.999Z</time></trkpt><trkpt lat="39.352671733373576" lon="9.277622546022197"><ele>841.0</ele><time>2026-03-29T10:04:02.999Z</time></trkpt><trkpt lat="39.352683146388244" lon="9.277709643731502"><ele>839.1999999999999</ele><time>2026-03-29T10:04:03.999Z</time></trkpt><trkpt lat="39.3527069857581" lon="9.27779244594985"><ele>837.4</ele><time>2026-03-29T10:04:04.999Z</time></trkpt><trkpt lat="39.35273388359397" lon="9.277901831285902"><ele>835.6</ele><time>2026-03-29T10:04:05.999Z</time></trkpt><trkpt lat="39.35275713182911" lon="9.278026250633422"><ele>833.8</ele><time>2026-03-29T10:04:06.999Z</time></trkpt><trkpt lat="39.35277702793372" lon="9.278152747161258"><ele>832.0</ele><time>2026-03-29T10:04:07.999Z</time></trkpt><trkpt lat="39.35280388981129" lon="9.278291082782399"><ele>830.25</ele><time>2026-03-29T10:04:08.999Z</time></trkpt><trkpt lat="39.35283831482389" lon="9.278429680408136"><ele>828.5</ele><time>2026-03-29T10:04:09.998Z</time></trkpt><trkpt lat="39.35287018932204" lon="9.278592163337247"><ele>826.75</ele><time>2026-03-29T10:04:10.998Z</time></trkpt><trkpt lat="39.35288894047219" lon="9.278777975807017"><ele>825.0</ele><time>2026-03-29T10:04:11.998Z</time></trkpt><trkpt lat="39.352906243595065" lon="9.278952491096737"><ele>824.25</ele><time>2026-03-29T10:04:12.998Z</time></trkpt><trkpt lat="39.35292963379078" lon="9.279136842074049"><ele>823.5</ele><time>2026-03-29T10:04:13.998Z</time></trkpt><trkpt lat="39.35295217257595" lon="9.279299562438421"><ele>822.75</ele><time>2026-03-29T10:04:14.998Z</time></trkpt><trkpt lat="39.35295111603179" lon="9.279437068299323"><ele>822.0</ele><time>2026-03-29T10:04:15.998Z</time></trkpt><trkpt lat="39.35294935532349" lon="9.27956172369514"><ele>822.0</ele><time>2026-03-29T10:04:16.998Z</time></trkpt><trkpt lat="39.35296045752003" lon="9.279681818358345"><ele>822.0</ele><time>2026-03-29T10:04:17.998Z</time></trkpt><trkpt lat="39.35298461186555" lon="9.27979864435461"><ele>822.0</ele><time>2026-03-29T10:04:18.998Z</time></trkpt><trkpt lat="39.35301961022163" lon="9.279913565516308"><ele>822.0</ele><time>2026-03-29T10:04:19.998Z</time></trkpt><trkpt lat="39.353059400715395" lon="9.280024666832244"><ele>822.0</ele><time>2026-03-29T10:04:20.998Z</time></trkpt><trkpt lat="39.35308143136232" lon="9.280133182515547"><ele>826.6666666666666</ele><time>2026-03-29T10:04:21.998Z</time></trkpt><trkpt lat="39.35307804848503" lon="9.280235318048092"><ele>831.3333333333333</ele><time>2026-03-29T10:04:22.998Z</time></trkpt><trkpt lat="39.35305264681678" lon="9.28034790321202"><ele>836.0</ele><time>2026-03-29T10:04:23.998Z</time></trkpt><trkpt lat="39.35303985327272" lon="9.280443063846503"><ele>840.6666666666666</ele><time>2026-03-29T10:04:24.998Z</time></trkpt><trkpt lat="39.35307040471444" lon="9.28052227427101"><ele>845.3333333333333</ele><time>2026-03-29T10:04:25.998Z</time></trkpt><trkpt lat="39.35313332799583" lon="9.28058052889217"><ele>850.0</ele><time>2026-03-29T10:04:26.998Z</time></trkpt><trkpt lat="39.35321525767643" lon="9.280626143728417"><ele>850.0</ele><time>2026-03-29T10:04:27.998Z</time></trkpt><trkpt lat="39.353306621738504" lon="9.280652578478984"><ele>850.0</ele><time>2026-03-29T10:04:28.998Z</time></trkpt><trkpt lat="39.35338782212099" lon="9.280669847382875"><ele>850.0</ele><time>2026-03-29T10:04:29.998Z</time></trkpt><trkpt lat="39.353480300545364" lon="9.280681733156538"><ele>850.0</ele><time>2026-03-29T10:04:30.998Z</time></trkpt><trkpt lat="39.35357440882914" lon="9.280669771095347"><ele>850.0</ele><time>2026-03-29T10:04:31.998Z</time></trkpt><trkpt lat="39.353670607557696" lon="9.280633267804669"><ele>850.3333333333333</ele><time>2026-03-29T10:04:32.998Z</time></trkpt><trkpt lat="39.35377551339652" lon="9.280572590898986"><ele>850.6666666666666</ele><time>2026-03-29T10:04:33.998Z</time></trkpt><trkpt lat="39.35386685944153" lon="9.280505659601658"><ele>851.0</ele><time>2026-03-29T10:04:34.998Z</time></trkpt><trkpt lat="39.3539371679617" lon="9.280442282835923"><ele>851.3333333333333</ele><time>2026-03-29T10:04:35.998Z</time></trkpt><trkpt lat="39.35397779610999" lon="9.28037596857633"><ele>851.6666666666666</ele><time>2026-03-29T10:04:36.998Z</time></trkpt><trkpt lat="39.35399805551921" lon="9.280293337084862"><ele>852.0</ele><time>2026-03-29T10:04:37.998Z</time></trkpt><trkpt lat="39.354010901969964" lon="9.280182659298008"><ele>854.0</ele><time>2026-03-29T10:04:38.998Z</time></trkpt><trkpt lat="39.354028050186805" lon="9.28006033174498"><ele>856.0</ele><time>2026-03-29T10:04:39.998Z</time></trkpt><trkpt lat="39.354053890213" lon="9.279942067212787"><ele>858.0</ele><time>2026-03-29T10:04:40.998Z</time></trkpt><trkpt lat="39.35409436287752" lon="9.279840710471765"><ele>860.0</ele><time>2026-03-29T10:04:41.998Z</time></trkpt><trkpt lat="39.35414608521702" lon="9.279738778665733"><ele>862.0</ele><time>2026-03-29T10:04:42.998Z</time></trkpt><trkpt lat="39.354201277294464" lon="9.279636222579759"><ele>863.8</ele><time>2026-03-29T10:04:43.998Z</time></trkpt><trkpt lat="39.35425173592601" lon="9.279535601933315"><ele>865.6</ele><time>2026-03-29T10:04:44.998Z</time></trkpt><trkpt lat="39.35429932747084" lon="9.279426951179168"><ele>867.3999999999999</ele><time>2026-03-29T10:04:45.998Z</time></trkpt><trkpt lat="39.35434773650707" lon="9.279317851053154"><ele>869.1999999999999</ele><time>2026-03-29T10:04:46.998Z</time></trkpt><trkpt lat="39.354391568694034" lon="9.279211988727875"><ele>871.0</ele><time>2026-03-29T10:04:47.998Z</time></trkpt><trkpt lat="39.35442977134814" lon="9.279111979420167"><ele>870.9999999999999</ele><time>2026-03-29T10:04:48.997Z</time></trkpt><trkpt lat="39.35446381792512" lon="9.279023211350843"><ele>871.0</ele><time>2026-03-29T10:04:49.997Z</time></trkpt><trkpt lat="39.35452308259226" lon="9.278968753753755"><ele>871.0</ele><time>2026-03-29T10:04:51.997Z</time></trkpt><trkpt lat="39.354628983510295" lon="9.279048635221317"><ele>871.0</ele><time>2026-03-29T10:04:53.997Z</time></trkpt><trkpt lat="39.354689900156664" lon="9.279113801005689"><ele>870.9999999999999</ele><time>2026-03-29T10:04:54.997Z</time></trkpt><trkpt lat="39.35474825060622" lon="9.279165107258992"><ele>871.0</ele><time>2026-03-29T10:04:55.997Z</time></trkpt><trkpt lat="39.35480428696918" lon="9.279207329134916"><ele>871.4999999999999</ele><time>2026-03-29T10:04:56.997Z</time></trkpt><trkpt lat="39.35492338648769" lon="9.279176506619994"><ele>872.0</ele><time>2026-03-29T10:04:59Z</time></trkpt><trkpt lat="39.35497171824105" lon="9.279105896955915"><ele>872.5</ele><time>2026-03-29T10:05:00Z</time></trkpt><trkpt lat="39.35499534623799" lon="9.279006351702362"><ele>873.0</ele><time>2026-03-29T10:05:01Z</time></trkpt><trkpt lat="39.355014867996005" lon="9.278904553420267"><ele>873.4999999999999</ele><time>2026-03-29T10:05:02Z</time></trkpt><trkpt lat="39.355043203364495" lon="9.278831091656778"><ele>874.0</ele><time>2026-03-29T10:05:03Z</time></trkpt><trkpt lat="39.355116949368195" lon="9.278820047564807"><ele>874.0</ele><time>2026-03-29T10:05:06Z</time></trkpt><trkpt lat="39.35513342670462" lon="9.278907925470362"><ele>874.0000000000001</ele><time>2026-03-29T10:05:08Z</time></trkpt><trkpt lat="39.35515064823714" lon="9.27903325478007"><ele>874.0000000000001</ele><time>2026-03-29T10:05:10Z</time></trkpt><trkpt lat="39.355183413287754" lon="9.279124073116094"><ele>874.0</ele><time>2026-03-29T10:05:11Z</time></trkpt><trkpt lat="39.35523209512201" lon="9.279349584442535"><ele>874.0</ele><time>2026-03-29T10:05:13Z</time></trkpt><trkpt lat="39.35527042596625" lon="9.279493290366291"><ele>874.0</ele><time>2026-03-29T10:05:14Z</time></trkpt><trkpt lat="39.35531220942535" lon="9.279622986380547"><ele>874.0000000000001</ele><time>2026-03-29T10:05:15Z</time></trkpt><trkpt lat="39.355366435069165" lon="9.27973598469769"><ele>874.0000000000001</ele><time>2026-03-29T10:05:16Z</time></trkpt><trkpt lat="39.35542424879163" lon="9.279837947265706"><ele>874.0</ele><time>2026-03-29T10:05:17Z</time></trkpt><trkpt lat="39.35546906179897" lon="9.279926806666209"><ele>874.0</ele><time>2026-03-29T10:05:18Z</time></trkpt><trkpt lat="39.355499696555626" lon="9.280019820005883"><ele>873.6</ele><time>2026-03-29T10:05:19Z</time></trkpt><trkpt lat="39.3555143490106" lon="9.280110934394692"><ele>873.2</ele><time>2026-03-29T10:05:20Z</time></trkpt><trkpt lat="39.35554680625517" lon="9.28021402006553"><ele>872.8000000000001</ele><time>2026-03-29T10:05:21Z</time></trkpt><trkpt lat="39.35560427258267" lon="9.280330376441038"><ele>872.4000000000001</ele><time>2026-03-29T10:05:22Z</time></trkpt><trkpt lat="39.355661453106435" lon="9.280439564690056"><ele>872.0</ele><time>2026-03-29T10:05:23Z</time></trkpt><trkpt lat="39.35571244389114" lon="9.2805536666929"><ele>874.8</ele><time>2026-03-29T10:05:24Z</time></trkpt><trkpt lat="39.35574535121544" lon="9.280664039115285"><ele>877.6</ele><time>2026-03-29T10:05:25Z</time></trkpt><trkpt lat="39.35580879555105" lon="9.280751513340395"><ele>880.3999999999999</ele><time>2026-03-29T10:05:27Z</time></trkpt><trkpt lat="39.35592309505169" lon="9.280739227335426"><ele>883.1999999999999</ele><time>2026-03-29T10:05:29Z</time></trkpt><trkpt lat="39.35604978398559" lon="9.280738212626435"><ele>886.0</ele><time>2026-03-29T10:05:31Z</time></trkpt><trkpt lat="39.35611892176746" lon="9.280758866276903"><ele>885.9999999999999</ele><time>2026-03-29T10:05:31.999Z</time></trkpt><trkpt lat="39.356198390858516" lon="9.280784757673146"><ele>886.0</ele><time>2026-03-29T10:05:32.999Z</time></trkpt><trkpt lat="39.35626925394789" lon="9.280812234004221"><ele>886.0</ele><time>2026-03-29T10:05:33.999Z</time></trkpt><trkpt lat="39.3563266089779" lon="9.280846132477382"><ele>886.0</ele><time>2026-03-29T10:05:34.999Z</time></trkpt><trkpt lat="39.356385134202824" lon="9.280944698929837"><ele>885.9999999999999</ele><time>2026-03-29T10:05:36.999Z</time></trkpt><trkpt lat="39.356425514446734" lon="9.281073212416823"><ele>886.0</ele><time>2026-03-29T10:05:38.999Z</time></trkpt><trkpt lat="39.35648142604683" lon="9.281206040901463"><ele>886.9999999999999</ele><time>2026-03-29T10:05:40.999Z</time></trkpt><trkpt lat="39.35650800262956" lon="9.281288782449241"><ele>888.0</ele><time>2026-03-29T10:05:41.999Z</time></trkpt><trkpt lat="39.35652998187398" lon="9.281365494700976"><ele>889.0</ele><time>2026-03-29T10:05:42.999Z</time></trkpt><trkpt lat="39.356595551792154" lon="9.281491494044403"><ele>890.0</ele><time>2026-03-29T10:05:44.999Z</time></trkpt><trkpt lat="39.356696995883055" lon="9.28156104363911"><ele>890.9999999999999</ele><time>2026-03-29T10:05:46.999Z</time></trkpt><trkpt lat="39.356766081874234" lon="9.281572575890104"><ele>892.0</ele><time>2026-03-29T10:05:47.999Z</time></trkpt><trkpt lat="39.356875035616284" lon="9.281607330187317"><ele>891.9999999999999</ele><time>2026-03-29T10:05:49.999Z</time></trkpt><trkpt lat="39.35691096575594" lon="9.281697519978245"><ele>892.0</ele><time>2026-03-29T10:05:51.999Z</time></trkpt><trkpt lat="39.35691220805318" lon="9.281820668975168"><ele>892.0</ele><time>2026-03-29T10:05:53.999Z</time></trkpt><trkpt lat="39.35690980970388" lon="9.28193739699155"><ele>892.0</ele><time>2026-03-29T10:05:55.999Z</time></trkpt><trkpt lat="39.356964928479606" lon="9.282014157166943"><ele>891.9999999999999</ele><time>2026-03-29T10:05:57.999Z</time></trkpt><trkpt lat="39.35702657436803" lon="9.282034922677786"><ele>892.0</ele><time>2026-03-29T10:05:59.999Z</time></trkpt><trkpt lat="39.357182777317696" lon="9.282115626325417"><ele>890.9999999999999</ele><time>2026-03-29T10:06:01.999Z</time></trkpt><trkpt lat="39.35724850536752" lon="9.282131235167077"><ele>890.0</ele><time>2026-03-29T10:06:02.999Z</time></trkpt><trkpt lat="39.35732725660865" lon="9.282120212340466"><ele>889.0</ele><time>2026-03-29T10:06:04.999Z</time></trkpt><trkpt lat="39.35736690050779" lon="9.282213271042504"><ele>888.0</ele><time>2026-03-29T10:06:06.999Z</time></trkpt><trkpt lat="39.35739730681204" lon="9.282354907443459"><ele>886.9999999999999</ele><time>2026-03-29T10:06:08.998Z</time></trkpt><trkpt lat="39.357443241061006" lon="9.282475467392695"><ele>886.0</ele><time>2026-03-29T10:06:09.998Z</time></trkpt><trkpt lat="39.35748839222341" lon="9.282601967252988"><ele>886.0</ele><time>2026-03-29T10:06:10.998Z</time></trkpt><trkpt lat="39.35754904872372" lon="9.282704882436486"><ele>885.9999999999999</ele><time>2026-03-29T10:06:11.998Z</time></trkpt><trkpt lat="39.3576327771782" lon="9.282775583514544"><ele>885.9999999999999</ele><time>2026-03-29T10:06:12.998Z</time></trkpt><trkpt lat="39.35771646956363" lon="9.282835552051013"><ele>886.0</ele><time>2026-03-29T10:06:13.998Z</time></trkpt><trkpt lat="39.35777058589228" lon="9.282898403537313"><ele>886.0</ele><time>2026-03-29T10:06:14.998Z</time></trkpt><trkpt lat="39.3578236672136" lon="9.28299084517281"><ele>884.5</ele><time>2026-03-29T10:06:15.998Z</time></trkpt><trkpt lat="39.35786879668549" lon="9.283111751381156"><ele>883.0</ele><time>2026-03-29T10:06:16.998Z</time></trkpt><trkpt lat="39.3579373657549" lon="9.283264525139028"><ele>881.5</ele><time>2026-03-29T10:06:17.998Z</time></trkpt><trkpt lat="39.35802258300988" lon="9.283423755649654"><ele>880.0</ele><time>2026-03-29T10:06:18.998Z</time></trkpt><trkpt lat="39.358101599606144" lon="9.283550580792811"><ele>881.9999999999999</ele><time>2026-03-29T10:06:19.998Z</time></trkpt><trkpt lat="39.358172868475094" lon="9.28364744790117"><ele>884.0</ele><time>2026-03-29T10:06:20.998Z</time></trkpt><trkpt lat="39.358230300513235" lon="9.283730835522457"><ele>886.0</ele><time>2026-03-29T10:06:21.998Z</time></trkpt><trkpt lat="39.35829551820593" lon="9.283789157142095"><ele>888.0</ele><time>2026-03-29T10:06:22.998Z</time></trkpt><trkpt lat="39.35834565770213" lon="9.283843814070876"><ele>889.9999999999999</ele><time>2026-03-29T10:06:23.998Z</time></trkpt><trkpt lat="39.358350289110525" lon="9.28397940201254"><ele>892.0</ele><time>2026-03-29T10:06:25.998Z</time></trkpt><trkpt lat="39.35833429856088" lon="9.284075235036632"><ele>892.1666666666666</ele><time>2026-03-29T10:06:26.998Z</time></trkpt><trkpt lat="39.35833046477506" lon="9.284176679084833"><ele>892.3333333333333</ele><time>2026-03-29T10:06:27.998Z</time></trkpt><trkpt lat="39.35835829442499" lon="9.284273275100752"><ele>892.5</ele><time>2026-03-29T10:06:28.998Z</time></trkpt><trkpt lat="39.35840308540261" lon="9.28437596478529"><ele>892.6666666666667</ele><time>2026-03-29T10:06:29.998Z</time></trkpt><trkpt lat="39.358442930757235" lon="9.284483885095563"><ele>892.8333333333334</ele><time>2026-03-29T10:06:30.998Z</time></trkpt><trkpt lat="39.35846995121187" lon="9.284597254926368"><ele>893.0</ele><time>2026-03-29T10:06:31.998Z</time></trkpt><trkpt lat="39.35850102940182" lon="9.284722752359913"><ele>892.8</ele><time>2026-03-29T10:06:32.998Z</time></trkpt><trkpt lat="39.35853175741438" lon="9.284856402459782"><ele>892.5999999999999</ele><time>2026-03-29T10:06:33.998Z</time></trkpt><trkpt lat="39.35856478754373" lon="9.284988439744605"><ele>892.4000000000001</ele><time>2026-03-29T10:06:34.998Z</time></trkpt><trkpt lat="39.358596945200624" lon="9.285117530715146"><ele>892.2</ele><time>2026-03-29T10:06:35.998Z</time></trkpt><trkpt lat="39.358622327176896" lon="9.285247035203557"><ele>892.0</ele><time>2026-03-29T10:06:36.998Z</time></trkpt><trkpt lat="39.35861747642385" lon="9.285340024203283"><ele>892.0</ele><time>2026-03-29T10:06:37.998Z</time></trkpt><trkpt lat="39.35857705169014" lon="9.285413598011626"><ele>892.0</ele><time>2026-03-29T10:06:38.998Z</time></trkpt><trkpt lat="39.35851808159799" lon="9.285487021405524"><ele>892.0</ele><time>2026-03-29T10:06:39.998Z</time></trkpt><trkpt lat="39.358458140681385" lon="9.285577316015079"><ele>892.0</ele><time>2026-03-29T10:06:40.998Z</time></trkpt><trkpt lat="39.3584129316629" lon="9.285696041254127"><ele>892.0</ele><time>2026-03-29T10:06:41.998Z</time></trkpt><trkpt lat="39.358375638574316" lon="9.28582745247309"><ele>894.4000000000001</ele><time>2026-03-29T10:06:42.998Z</time></trkpt><trkpt lat="39.35833265102052" lon="9.285950039296413"><ele>896.8000000000001</ele><time>2026-03-29T10:06:43.998Z</time></trkpt><trkpt lat="39.35829169494785" lon="9.286081902939229"><ele>899.2</ele><time>2026-03-29T10:06:44.998Z</time></trkpt><trkpt lat="39.35824673479271" lon="9.286201519580326"><ele>901.6</ele><time>2026-03-29T10:06:45.998Z</time></trkpt><trkpt lat="39.35819001562083" lon="9.286310678386561"><ele>904.0</ele><time>2026-03-29T10:06:46.998Z</time></trkpt><trkpt lat="39.35812252773627" lon="9.286411123039297"><ele>905.1666666666666</ele><time>2026-03-29T10:06:47.997Z</time></trkpt><trkpt lat="39.35806449728949" lon="9.286512802548149"><ele>906.3333333333333</ele><time>2026-03-29T10:06:48.997Z</time></trkpt><trkpt lat="39.3580053422622" lon="9.286598316031604"><ele>907.5</ele><time>2026-03-29T10:06:49.997Z</time></trkpt><trkpt lat="39.35794023345148" lon="9.286651486796059"><ele>908.6666666666667</ele><time>2026-03-29T10:06:50.997Z</time></trkpt><trkpt lat="39.35786618968144" lon="9.286700532236605"><ele>909.8333333333334</ele><time>2026-03-29T10:06:51.997Z</time></trkpt><trkpt lat="39.35780636281016" lon="9.286766488477564"><ele>911.0</ele><time>2026-03-29T10:06:52.997Z</time></trkpt><trkpt lat="39.35775928008989" lon="9.286849276631047"><ele>911.0000000000001</ele><time>2026-03-29T10:06:53.997Z</time></trkpt><trkpt lat="39.3577285508744" lon="9.286940439003358"><ele>911.0</ele><time>2026-03-29T10:06:54.997Z</time></trkpt><trkpt lat="39.35771085307082" lon="9.287035041247515"><ele>911.0</ele><time>2026-03-29T10:06:55.997Z</time></trkpt><trkpt lat="39.35771191209327" lon="9.287130873415295"><ele>911.0</ele><time>2026-03-29T10:06:56.997Z</time></trkpt><trkpt lat="39.3577128897877" lon="9.287231005971318"><ele>911.0000000000001</ele><time>2026-03-29T10:06:57.997Z</time></trkpt><trkpt lat="39.35772230841853" lon="9.287338067172815"><ele>911.0</ele><time>2026-03-29T10:06:58.997Z</time></trkpt><trkpt lat="39.357735656565325" lon="9.287433626396801"><ele>912.4</ele><time>2026-03-29T10:06:59.997Z</time></trkpt><trkpt lat="39.35775494076096" lon="9.287515464463457"><ele>913.8</ele><time>2026-03-29T10:07:00.997Z</time></trkpt><trkpt lat="39.35781537304863" lon="9.287587340075575"><ele>915.1999999999999</ele><time>2026-03-29T10:07:02.997Z</time></trkpt><trkpt lat="39.357867750048825" lon="9.287646067569701"><ele>916.5999999999999</ele><time>2026-03-29T10:07:08Z</time></trkpt><trkpt lat="39.35792965265525" lon="9.287705157457307"><ele>918.0</ele><time>2026-03-29T10:08:31.998Z</time></trkpt><trkpt lat="39.35810418591685" lon="9.287751270995562"><ele>920.1666666666666</ele><time>2026-03-29T10:08:35.998Z</time></trkpt><trkpt lat="39.358161339560986" lon="9.287808339812694"><ele>922.3333333333333</ele><time>2026-03-29T10:08:36.998Z</time></trkpt><trkpt lat="39.3582128054481" lon="9.287906362623588"><ele>924.5</ele><time>2026-03-29T10:08:37.998Z</time></trkpt><trkpt lat="39.358244920020105" lon="9.288010127246704"><ele>926.6666666666666</ele><time>2026-03-29T10:08:38.998Z</time></trkpt><trkpt lat="39.35827536559373" lon="9.288085732609398"><ele>928.8333333333333</ele><time>2026-03-29T10:08:39.998Z</time></trkpt><trkpt lat="39.35833491146442" lon="9.28819198911059"><ele>931.0</ele><time>2026-03-29T10:08:41.998Z</time></trkpt><trkpt lat="39.358382195346756" lon="9.28825718163015"><ele>930.9999999999999</ele><time>2026-03-29T10:08:42.998Z</time></trkpt><trkpt lat="39.35841794523748" lon="9.28835169682697"><ele>931.0</ele><time>2026-03-29T10:08:43.998Z</time></trkpt><trkpt lat="39.358450367241346" lon="9.288460775152162"><ele>931.0</ele><time>2026-03-29T10:08:44.998Z</time></trkpt><trkpt lat="39.35847212738478" lon="9.288564315349017"><ele>931.0</ele><time>2026-03-29T10:08:45.998Z</time></trkpt><trkpt lat="39.35849129062823" lon="9.288665744042746"><ele>930.9999999999999</ele><time>2026-03-29T10:08:46.998Z</time></trkpt><trkpt lat="39.35850854714236" lon="9.288758171056877"><ele>931.0</ele><time>2026-03-29T10:08:47.998Z</time></trkpt><trkpt lat="39.358513800877176" lon="9.288864908600805"><ele>929.1999999999999</ele><time>2026-03-29T10:08:48.998Z</time></trkpt><trkpt lat="39.35851532888003" lon="9.28897590630289"><ele>927.3999999999999</ele><time>2026-03-29T10:08:49.998Z</time></trkpt><trkpt lat="39.358526586919425" lon="9.28909377674109"><ele>925.6</ele><time>2026-03-29T10:08:50.998Z</time></trkpt><trkpt lat="39.358546657197344" lon="9.289233985706401"><ele>923.8</ele><time>2026-03-29T10:08:51.998Z</time></trkpt><trkpt lat="39.35857043277588" lon="9.289382464031474"><ele>922.0</ele><time>2026-03-29T10:08:52.998Z</time></trkpt><trkpt lat="39.358598716487705" lon="9.289529313483275"><ele>922.0</ele><time>2026-03-29T10:08:53.997Z</time></trkpt><trkpt lat="39.35864742277227" lon="9.289669940661469"><ele>922.0</ele><time>2026-03-29T10:08:54.997Z</time></trkpt><trkpt lat="39.358700928519966" lon="9.289800354924802"><ele>922.0</ele><time>2026-03-29T10:08:55.997Z</time></trkpt><trkpt lat="39.358766869439776" lon="9.28993663233005"><ele>922.0</ele><time>2026-03-29T10:08:56.997Z</time></trkpt><trkpt lat="39.35884122035943" lon="9.290056511198973"><ele>922.8333333333333</ele><time>2026-03-29T10:08:57.997Z</time></trkpt><trkpt lat="39.35890033154776" lon="9.290148574212482"><ele>923.6666666666666</ele><time>2026-03-29T10:08:58.997Z</time></trkpt><trkpt lat="39.358948943917" lon="9.29023726864009"><ele>924.5</ele><time>2026-03-29T10:08:59.997Z</time></trkpt><trkpt lat="39.35897330614624" lon="9.29032265328388"><ele>925.3333333333333</ele><time>2026-03-29T10:09:00.997Z</time></trkpt><trkpt lat="39.3589875051196" lon="9.290402226392297"><ele>926.1666666666666</ele><time>2026-03-29T10:09:01.997Z</time></trkpt><trkpt lat="39.35899448248397" lon="9.290491316014677"><ele>927.0</ele><time>2026-03-29T10:09:02.997Z</time></trkpt><trkpt lat="39.35895037252884" lon="9.290654138843434"><ele>928.3333333333334</ele><time>2026-03-29T10:09:04.997Z</time></trkpt><trkpt lat="39.35890648787257" lon="9.290736342164521"><ele>929.6666666666667</ele><time>2026-03-29T10:09:05.997Z</time></trkpt><trkpt lat="39.35887977941271" lon="9.290830553590522"><ele>931.0</ele><time>2026-03-29T10:09:06.997Z</time></trkpt><trkpt lat="39.358870056795766" lon="9.29094885497644"><ele>932.3333333333334</ele><time>2026-03-29T10:09:07.997Z</time></trkpt><trkpt lat="39.35887529942839" lon="9.291066511240809"><ele>933.6666666666667</ele><time>2026-03-29T10:09:08.997Z</time></trkpt><trkpt lat="39.35887768993144" lon="9.291172690841758"><ele>935.0</ele><time>2026-03-29T10:09:10Z</time></trkpt><trkpt lat="39.35887796845255" lon="9.291270932902933"><ele>935.0</ele><time>2026-03-29T10:09:11Z</time></trkpt><trkpt lat="39.358880861235484" lon="9.291361658213695"><ele>935.0</ele><time>2026-03-29T10:09:12Z</time></trkpt><trkpt lat="39.358893895189155" lon="9.291470496061894"><ele>935.0</ele><time>2026-03-29T10:09:13Z</time></trkpt><trkpt lat="39.35890310150681" lon="9.291598880173828"><ele>935.0</ele><time>2026-03-29T10:09:14Z</time></trkpt><trkpt lat="39.358919172730204" lon="9.291732607150458"><ele>935.0</ele><time>2026-03-29T10:09:15Z</time></trkpt><trkpt lat="39.35892292012589" lon="9.291856547355476"><ele>934.1666666666667</ele><time>2026-03-29T10:09:16Z</time></trkpt><trkpt lat="39.35892929189685" lon="9.291951772520052"><ele>933.3333333333334</ele><time>2026-03-29T10:09:17Z</time></trkpt><trkpt lat="39.3589625339059" lon="9.29202346838258"><ele>932.5</ele><time>2026-03-29T10:09:18Z</time></trkpt><trkpt lat="39.359016451772455" lon="9.292102591203948"><ele>931.6666666666667</ele><time>2026-03-29T10:09:19Z</time></trkpt><trkpt lat="39.35909182792742" lon="9.292171249970567"><ele>930.8333333333334</ele><time>2026-03-29T10:09:20Z</time></trkpt><trkpt lat="39.35915896737894" lon="9.29223971638759"><ele>930.0</ele><time>2026-03-29T10:09:21Z</time></trkpt><trkpt lat="39.35921131377478" lon="9.292380323687825"><ele>929.8</ele><time>2026-03-29T10:09:23Z</time></trkpt><trkpt lat="39.35918413491415" lon="9.292533298111776"><ele>929.6</ele><time>2026-03-29T10:09:25Z</time></trkpt><trkpt lat="39.359148472862536" lon="9.292634903234637"><ele>929.4000000000001</ele><time>2026-03-29T10:09:26Z</time></trkpt><trkpt lat="39.35910879725331" lon="9.292747268228643"><ele>929.2</ele><time>2026-03-29T10:09:27Z</time></trkpt><trkpt lat="39.35907129171114" lon="9.292864338570718"><ele>929.0</ele><time>2026-03-29T10:09:28Z</time></trkpt><trkpt lat="39.35903814684672" lon="9.29297563818523"><ele>929.0000000000001</ele><time>2026-03-29T10:09:29Z</time></trkpt><trkpt lat="39.35900221205153" lon="9.293045884641622"><ele>929.0</ele><time>2026-03-29T10:09:30Z</time></trkpt><trkpt lat="39.35893895178463" lon="9.293088962457087"><ele>929.0</ele><time>2026-03-29T10:09:31Z</time></trkpt><trkpt lat="39.35886249322988" lon="9.293080861369539"><ele>929.0</ele><time>2026-03-29T10:09:32Z</time></trkpt><trkpt lat="39.358779531213244" lon="9.293055863825792"><ele>929.0000000000001</ele><time>2026-03-29T10:09:33Z</time></trkpt><trkpt lat="39.358709188275625" lon="9.293024948936292"><ele>929.0</ele><time>2026-03-29T10:09:34Z</time></trkpt><trkpt lat="39.35861710278644" lon="9.293078461503663"><ele>928.8333333333334</ele><time>2026-03-29T10:09:36Z</time></trkpt><trkpt lat="39.35857666449595" lon="9.293142478457245"><ele>928.6666666666667</ele><time>2026-03-29T10:09:37Z</time></trkpt><trkpt lat="39.35852720143985" lon="9.293212461534933"><ele>928.5</ele><time>2026-03-29T10:09:38Z</time></trkpt><trkpt lat="39.358462051005006" lon="9.293290586495015"><ele>928.3333333333333</ele><time>2026-03-29T10:09:39Z</time></trkpt><trkpt lat="39.35839392215114" lon="9.29337644533893"><ele>928.1666666666666</ele><time>2026-03-29T10:09:40Z</time></trkpt><trkpt lat="39.35831983722116" lon="9.293470177968958"><ele>928.0</ele><time>2026-03-29T10:09:41Z</time></trkpt><trkpt lat="39.358261202000115" lon="9.293584165833126"><ele>928.0</ele><time>2026-03-29T10:09:42Z</time></trkpt><trkpt lat="39.35821267594769" lon="9.293696376562544"><ele>928.0</ele><time>2026-03-29T10:09:42.999Z</time></trkpt><trkpt lat="39.35817111130987" lon="9.293808760103063"><ele>928.0</ele><time>2026-03-29T10:09:43.999Z</time></trkpt><trkpt lat="39.35813707221616" lon="9.293924567131866"><ele>928.0</ele><time>2026-03-29T10:09:44.999Z</time></trkpt><trkpt lat="39.35810566994491" lon="9.29403261169864"><ele>928.0</ele><time>2026-03-29T10:09:45.999Z</time></trkpt><trkpt lat="39.35807074401235" lon="9.294140674182012"><ele>929.9999999999999</ele><time>2026-03-29T10:09:46.999Z</time></trkpt><trkpt lat="39.35803925606277" lon="9.294243543563395"><ele>932.0</ele><time>2026-03-29T10:09:47.999Z</time></trkpt><trkpt lat="39.358007014074126" lon="9.294352431154406"><ele>934.0</ele><time>2026-03-29T10:09:48.999Z</time></trkpt><trkpt lat="39.35798544434297" lon="9.294456477215002"><ele>936.0</ele><time>2026-03-29T10:09:49.999Z</time></trkpt><trkpt lat="39.3579838744762" lon="9.294560530789422"><ele>937.9999999999999</ele><time>2026-03-29T10:09:50.999Z</time></trkpt><trkpt lat="39.35798943094289" lon="9.29467368869414"><ele>940.0</ele><time>2026-03-29T10:09:51.999Z</time></trkpt><trkpt lat="39.3580143231881" lon="9.294780051924434"><ele>937.4999999999999</ele><time>2026-03-29T10:09:52.999Z</time></trkpt><trkpt lat="39.358052995420984" lon="9.294880711253631"><ele>935.0</ele><time>2026-03-29T10:09:53.999Z</time></trkpt><trkpt lat="39.35810233642499" lon="9.294978586233892"><ele>932.5</ele><time>2026-03-29T10:09:54.999Z</time></trkpt><trkpt lat="39.358162857758224" lon="9.295066893623556"><ele>930.0</ele><time>2026-03-29T10:09:55.999Z</time></trkpt><trkpt lat="39.35821773990518" lon="9.295154559609482"><ele>927.4999999999999</ele><time>2026-03-29T10:09:56.999Z</time></trkpt><trkpt lat="39.35827197051512" lon="9.295249291762854"><ele>925.0</ele><time>2026-03-29T10:09:57.999Z</time></trkpt><trkpt lat="39.35829489460614" lon="9.295360818409545"><ele>925.0</ele><time>2026-03-29T10:09:58.999Z</time></trkpt><trkpt lat="39.358290784216116" lon="9.295479096762646"><ele>925.0</ele><time>2026-03-29T10:09:59.999Z</time></trkpt><trkpt lat="39.35828829471602" lon="9.29561293920083"><ele>925.0</ele><time>2026-03-29T10:10:00.999Z</time></trkpt><trkpt lat="39.358288623769006" lon="9.295739670058934"><ele>925.0</ele><time>2026-03-29T10:10:01.999Z</time></trkpt><trkpt lat="39.35829740138967" lon="9.295865819451564"><ele>925.0</ele><time>2026-03-29T10:10:02.999Z</time></trkpt><trkpt lat="39.358308313481984" lon="9.29597548692632"><ele>922.3333333333333</ele><time>2026-03-29T10:10:03.999Z</time></trkpt><trkpt lat="39.358336205525944" lon="9.29607186164665"><ele>919.6666666666666</ele><time>2026-03-29T10:10:04.999Z</time></trkpt><trkpt lat="39.35838135721628" lon="9.296162442118627"><ele>917.0</ele><time>2026-03-29T10:10:05.999Z</time></trkpt><trkpt lat="39.35843542382712" lon="9.29624692408324"><ele>914.3333333333333</ele><time>2026-03-29T10:10:06.999Z</time></trkpt><trkpt lat="39.35848862982859" lon="9.296333348405307"><ele>911.6666666666666</ele><time>2026-03-29T10:10:07.999Z</time></trkpt><trkpt lat="39.358536187948715" lon="9.296432013395025"><ele>909.0</ele><time>2026-03-29T10:10:08.999Z</time></trkpt><trkpt lat="39.358570161896665" lon="9.296543343004807"><ele>906.4000000000001</ele><time>2026-03-29T10:10:09.999Z</time></trkpt><trkpt lat="39.35859138324148" lon="9.29666255463881"><ele>903.8000000000001</ele><time>2026-03-29T10:10:10.999Z</time></trkpt><trkpt lat="39.35859101163302" lon="9.296779098687374"><ele>901.1999999999999</ele><time>2026-03-29T10:10:11.999Z</time></trkpt><trkpt lat="39.358570553607116" lon="9.296890217275038"><ele>898.5999999999999</ele><time>2026-03-29T10:10:12.999Z</time></trkpt><trkpt lat="39.35853956598361" lon="9.297007808341007"><ele>896.0</ele><time>2026-03-29T10:10:13.999Z</time></trkpt><trkpt lat="39.358501378434475" lon="9.29713221261974"><ele>893.25</ele><time>2026-03-29T10:10:14.999Z</time></trkpt><trkpt lat="39.35845558528002" lon="9.297273272768932"><ele>890.5</ele><time>2026-03-29T10:10:15.999Z</time></trkpt><trkpt lat="39.358404755619866" lon="9.297424561500769"><ele>887.75</ele><time>2026-03-29T10:10:16.999Z</time></trkpt><trkpt lat="39.35836065929504" lon="9.297593822290091"><ele>885.0</ele><time>2026-03-29T10:10:17.999Z</time></trkpt><trkpt lat="39.358328490348164" lon="9.297770667243796"><ele>885.0</ele><time>2026-03-29T10:10:18.999Z</time></trkpt><trkpt lat="39.35829278787212" lon="9.297948058384648"><ele>885.0</ele><time>2026-03-29T10:10:19.998Z</time></trkpt><trkpt lat="39.35825872225527" lon="9.298110783768967"><ele>885.0</ele><time>2026-03-29T10:10:20.998Z</time></trkpt><trkpt lat="39.35822635687717" lon="9.298270875690628"><ele>885.0</ele><time>2026-03-29T10:10:21.998Z</time></trkpt><trkpt lat="39.3581936503549" lon="9.29841694943219"><ele>886.75</ele><time>2026-03-29T10:10:22.998Z</time></trkpt><trkpt lat="39.35816454061272" lon="9.298548796099515"><ele>888.5</ele><time>2026-03-29T10:10:23.998Z</time></trkpt><trkpt lat="39.35814604304585" lon="9.298689856759978"><ele>890.25</ele><time>2026-03-29T10:10:24.998Z</time></trkpt><trkpt lat="39.35813501197549" lon="9.298845556049486"><ele>892.0</ele><time>2026-03-29T10:10:25.998Z</time></trkpt><trkpt lat="39.35813508541264" lon="9.299014297658664"><ele>892.8</ele><time>2026-03-29T10:10:26.998Z</time></trkpt><trkpt lat="39.358118809500574" lon="9.299162914034113"><ele>893.6</ele><time>2026-03-29T10:10:27.998Z</time></trkpt><trkpt lat="39.35808994271146" lon="9.299306996579023"><ele>894.3999999999999</ele><time>2026-03-29T10:10:28.998Z</time></trkpt><trkpt lat="39.35806294062219" lon="9.29944158536607"><ele>895.1999999999999</ele><time>2026-03-29T10:10:29.998Z</time></trkpt><trkpt lat="39.35803863477458" lon="9.299559543992684"><ele>896.0</ele><time>2026-03-29T10:10:30.998Z</time></trkpt><trkpt lat="39.358014900165266" lon="9.299671741021106"><ele>896.0000000000001</ele><time>2026-03-29T10:10:31.998Z</time></trkpt><trkpt lat="39.35800241514559" lon="9.299777953605897"><ele>896.0</ele><time>2026-03-29T10:10:32.998Z</time></trkpt><trkpt lat="39.35799754474427" lon="9.299865786317737"><ele>896.0</ele><time>2026-03-29T10:10:33.998Z</time></trkpt><trkpt lat="39.358010637406075" lon="9.299987823421747"><ele>896.0</ele><time>2026-03-29T10:10:35.998Z</time></trkpt><trkpt lat="39.35809101476748" lon="9.300091304997602"><ele>896.0000000000001</ele><time>2026-03-29T10:10:38.998Z</time></trkpt><trkpt lat="39.3581342631997" lon="9.30015447730096"><ele>896.0</ele><time>2026-03-29T10:10:39.998Z</time></trkpt><trkpt lat="39.35818536913329" lon="9.300227664141941"><ele>896.0</ele><time>2026-03-29T10:10:40.998Z</time></trkpt><trkpt lat="39.35825186259221" lon="9.300326228006835"><ele>895.9999999999999</ele><time>2026-03-29T10:10:41.998Z</time></trkpt><trkpt lat="39.35830597311053" lon="9.300417380873988"><ele>895.9999999999999</ele><time>2026-03-29T10:10:42.998Z</time></trkpt><trkpt lat="39.3583370090283" lon="9.300521428817996"><ele>896.0</ele><time>2026-03-29T10:10:44.998Z</time></trkpt><trkpt lat="39.35829885969656" lon="9.30062112802546"><ele>896.0</ele><time>2026-03-29T10:10:46.998Z</time></trkpt><trkpt lat="39.35824752463419" lon="9.300748344885006"><ele>895.1999999999999</ele><time>2026-03-29T10:10:48.998Z</time></trkpt><trkpt lat="39.35820490446402" lon="9.300903094250037"><ele>894.3999999999999</ele><time>2026-03-29T10:10:50.998Z</time></trkpt><trkpt lat="39.35817596870527" lon="9.300996866457899"><ele>893.6</ele><time>2026-03-29T10:10:51.998Z</time></trkpt><trkpt lat="39.35813614528149" lon="9.301108431289634"><ele>892.8</ele><time>2026-03-29T10:10:52.998Z</time></trkpt><trkpt lat="39.35809569106044" lon="9.301233375203335"><ele>892.0</ele><time>2026-03-29T10:10:53.998Z</time></trkpt><trkpt lat="39.358054606770935" lon="9.30137220300235"><ele>890.75</ele><time>2026-03-29T10:10:54.998Z</time></trkpt><trkpt lat="39.3580034096792" lon="9.301518197064981"><ele>889.5</ele><time>2026-03-29T10:10:55.998Z</time></trkpt><trkpt lat="39.35795195518274" lon="9.301657460501799"><ele>888.25</ele><time>2026-03-29T10:10:56.998Z</time></trkpt><trkpt lat="39.357895956991264" lon="9.301808175891223"><ele>887.0</ele><time>2026-03-29T10:10:57.997Z</time></trkpt><trkpt lat="39.35784531988614" lon="9.30195600754806"><ele>887.0</ele><time>2026-03-29T10:10:58.997Z</time></trkpt><trkpt lat="39.35781186148145" lon="9.302099618571555"><ele>887.0</ele><time>2026-03-29T10:10:59.997Z</time></trkpt><trkpt lat="39.35778637366486" lon="9.302249962625496"><ele>887.0</ele><time>2026-03-29T10:11:00.997Z</time></trkpt><trkpt lat="39.35777938660136" lon="9.30240619919018"><ele>887.0</ele><time>2026-03-29T10:11:01.997Z</time></trkpt><trkpt lat="39.357786679155765" lon="9.302572535827087"><ele>885.5</ele><time>2026-03-29T10:11:02.997Z</time></trkpt><trkpt lat="39.357782968621756" lon="9.302734557293512"><ele>884.0</ele><time>2026-03-29T10:11:03.997Z</time></trkpt><trkpt lat="39.357784274301814" lon="9.302893433037836"><ele>882.5</ele><time>2026-03-29T10:11:04.997Z</time></trkpt><trkpt lat="39.357786973068045" lon="9.303041242650735"><ele>881.0</ele><time>2026-03-29T10:11:05.997Z</time></trkpt><trkpt lat="39.3577812451509" lon="9.303196642261256"><ele>880.25</ele><time>2026-03-29T10:11:06.997Z</time></trkpt><trkpt lat="39.357768156681075" lon="9.303345739180132"><ele>879.5</ele><time>2026-03-29T10:11:07.997Z</time></trkpt><trkpt lat="39.35774789256369" lon="9.303493682802616"><ele>878.75</ele><time>2026-03-29T10:11:08.997Z</time></trkpt><trkpt lat="39.357721221038744" lon="9.3036374581375"><ele>878.0</ele><time>2026-03-29T10:11:09.997Z</time></trkpt><trkpt lat="39.35769987143489" lon="9.303779682366333"><ele>875.75</ele><time>2026-03-29T10:11:10.997Z</time></trkpt><trkpt lat="39.3576821990001" lon="9.303937830136258"><ele>873.5</ele><time>2026-03-29T10:11:11.997Z</time></trkpt><trkpt lat="39.35767713168536" lon="9.304104413556637"><ele>871.25</ele><time>2026-03-29T10:11:12.997Z</time></trkpt><trkpt lat="39.35768192110499" lon="9.304270023967039"><ele>869.0</ele><time>2026-03-29T10:11:13.997Z</time></trkpt><trkpt lat="39.35768117957717" lon="9.304453421469411"><ele>869.0</ele><time>2026-03-29T10:11:14.997Z</time></trkpt><trkpt lat="39.35768723161116" lon="9.304625148533816"><ele>869.0</ele><time>2026-03-29T10:11:16Z</time></trkpt><trkpt lat="39.35767863959158" lon="9.304792074646105"><ele>869.0</ele><time>2026-03-29T10:11:17Z</time></trkpt><trkpt lat="39.357671935882344" lon="9.304951468806555"><ele>869.0</ele><time>2026-03-29T10:11:18Z</time></trkpt><trkpt lat="39.35767785441627" lon="9.305104172355083"><ele>865.0</ele><time>2026-03-29T10:11:19Z</time></trkpt><trkpt lat="39.35767716248823" lon="9.305248353038657"><ele>861.0</ele><time>2026-03-29T10:11:20Z</time></trkpt><trkpt lat="39.357675881891865" lon="9.305391518438345"><ele>857.0</ele><time>2026-03-29T10:11:21Z</time></trkpt><trkpt lat="39.35767261762961" lon="9.30554306836077"><ele>853.0</ele><time>2026-03-29T10:11:22Z</time></trkpt><trkpt lat="39.357657939034496" lon="9.305697618766798"><ele>849.75</ele><time>2026-03-29T10:11:23Z</time></trkpt><trkpt lat="39.35763420125895" lon="9.305851539307776"><ele>846.5</ele><time>2026-03-29T10:11:24Z</time></trkpt><trkpt lat="39.3576101368365" lon="9.306009858277694"><ele>843.25</ele><time>2026-03-29T10:11:25Z</time></trkpt><trkpt lat="39.3575740920084" lon="9.306169669526273"><ele>840.0</ele><time>2026-03-29T10:11:26Z</time></trkpt><trkpt lat="39.357543756923036" lon="9.306314699541115"><ele>837.6</ele><time>2026-03-29T10:11:27Z</time></trkpt><trkpt lat="39.35752726221349" lon="9.306450812081325"><ele>835.2</ele><time>2026-03-29T10:11:28Z</time></trkpt><trkpt lat="39.35754234315683" lon="9.306583090861032"><ele>832.8</ele><time>2026-03-29T10:11:29Z</time></trkpt><trkpt lat="39.357560063216525" lon="9.306729487396497"><ele>830.4</ele><time>2026-03-29T10:11:30Z</time></trkpt><trkpt lat="39.357582437086364" lon="9.306886440778369"><ele>828.0</ele><time>2026-03-29T10:11:31Z</time></trkpt><trkpt lat="39.35760451753713" lon="9.307046551623637"><ele>828.0</ele><time>2026-03-29T10:11:32Z</time></trkpt><trkpt lat="39.3576389694088" lon="9.307201633685784"><ele>828.0</ele><time>2026-03-29T10:11:33Z</time></trkpt><trkpt lat="39.35768196879192" lon="9.30735733535766"><ele>828.0</ele><time>2026-03-29T10:11:34Z</time></trkpt><trkpt lat="39.35772880252241" lon="9.307511113298137"><ele>828.0</ele><time>2026-03-29T10:11:35Z</time></trkpt><trkpt lat="39.357764715506164" lon="9.307650867827551"><ele>826.5</ele><time>2026-03-29T10:11:36Z</time></trkpt><trkpt lat="39.35777776114835" lon="9.307803404256752"><ele>825.0</ele><time>2026-03-29T10:11:37Z</time></trkpt><trkpt lat="39.35778365701023" lon="9.307972861411553"><ele>823.5</ele><time>2026-03-29T10:11:38Z</time></trkpt><trkpt lat="39.357806881860064" lon="9.308132757895384"><ele>822.0</ele><time>2026-03-29T10:11:39Z</time></trkpt><trkpt lat="39.35783506540308" lon="9.308290260083147"><ele>821.8</ele><time>2026-03-29T10:11:40Z</time></trkpt><trkpt lat="39.35787211399335" lon="9.308436228058532"><ele>821.6</ele><time>2026-03-29T10:11:41Z</time></trkpt><trkpt lat="39.35790312320083" lon="9.308576573007425"><ele>821.4</ele><time>2026-03-29T10:11:42Z</time></trkpt><trkpt lat="39.35794813288906" lon="9.308690071595526"><ele>821.1999999999999</ele><time>2026-03-29T10:11:43Z</time></trkpt><trkpt lat="39.358002585661836" lon="9.308806806739826"><ele>821.0</ele><time>2026-03-29T10:11:44Z</time></trkpt><trkpt lat="39.35805930851371" lon="9.30891113909406"><ele>822.5999999999999</ele><time>2026-03-29T10:11:45Z</time></trkpt><trkpt lat="39.35812715243827" lon="9.309030094544232"><ele>824.2</ele><time>2026-03-29T10:11:46Z</time></trkpt><trkpt lat="39.35820453187265" lon="9.309144363425288"><ele>825.8</ele><time>2026-03-29T10:11:47Z</time></trkpt><trkpt lat="39.35827184122902" lon="9.309253537670866"><ele>827.4000000000001</ele><time>2026-03-29T10:11:48Z</time></trkpt><trkpt lat="39.358329379359695" lon="9.309371359829294"><ele>829.0</ele><time>2026-03-29T10:11:48.999Z</time></trkpt><trkpt lat="39.35838309586268" lon="9.309455354041782"><ele>829.0</ele><time>2026-03-29T10:11:49.999Z</time></trkpt><trkpt lat="39.35844489556869" lon="9.309531782233648"><ele>829.0</ele><time>2026-03-29T10:11:50.999Z</time></trkpt><trkpt lat="39.358515780369224" lon="9.30960221519469"><ele>829.0</ele><time>2026-03-29T10:11:51.999Z</time></trkpt><trkpt lat="39.35857575306239" lon="9.30967678325387"><ele>829.0</ele><time>2026-03-29T10:11:52.999Z</time></trkpt><trkpt lat="39.35861416938894" lon="9.309795836802458"><ele>829.0</ele><time>2026-03-29T10:11:53.999Z</time></trkpt><trkpt lat="39.35864457887766" lon="9.309921240430928"><ele>827.5</ele><time>2026-03-29T10:11:54.999Z</time></trkpt><trkpt lat="39.35869296106876" lon="9.310051918853137"><ele>826.0</ele><time>2026-03-29T10:11:55.999Z</time></trkpt><trkpt lat="39.35876879895275" lon="9.310178354651587"><ele>824.5</ele><time>2026-03-29T10:11:56.999Z</time></trkpt><trkpt lat="39.35881779832895" lon="9.31030730770711"><ele>823.0</ele><time>2026-03-29T10:11:57.999Z</time></trkpt><trkpt lat="39.35886302707715" lon="9.310433842295948"><ele>822.2</ele><time>2026-03-29T10:11:58.999Z</time></trkpt><trkpt lat="39.358900275410214" lon="9.310569323257118"><ele>821.4</ele><time>2026-03-29T10:11:59.999Z</time></trkpt><trkpt lat="39.35894123246884" lon="9.31069169485877"><ele>820.6</ele><time>2026-03-29T10:12:00.999Z</time></trkpt><trkpt lat="39.35897628675181" lon="9.310817482822747"><ele>819.8000000000001</ele><time>2026-03-29T10:12:01.999Z</time></trkpt><trkpt lat="39.35898675343008" lon="9.310953228912233"><ele>819.0</ele><time>2026-03-29T10:12:02.999Z</time></trkpt><trkpt lat="39.35898639799471" lon="9.311101131113357"><ele>818.0</ele><time>2026-03-29T10:12:03.999Z</time></trkpt><trkpt lat="39.35898633055006" lon="9.311242023767656"><ele>817.0</ele><time>2026-03-29T10:12:04.999Z</time></trkpt><trkpt lat="39.3590070204095" lon="9.311375003962443"><ele>816.0</ele><time>2026-03-29T10:12:05.999Z</time></trkpt><trkpt lat="39.35904258169776" lon="9.311519328067668"><ele>815.0</ele><time>2026-03-29T10:12:06.999Z</time></trkpt><trkpt lat="39.35906957491111" lon="9.311678312629084"><ele>813.6</ele><time>2026-03-29T10:12:07.999Z</time></trkpt><trkpt lat="39.359091776668045" lon="9.311823981463387"><ele>812.2</ele><time>2026-03-29T10:12:08.999Z</time></trkpt><trkpt lat="39.359112857149846" lon="9.311961006998263"><ele>810.8</ele><time>2026-03-29T10:12:09.999Z</time></trkpt><trkpt lat="39.3591458214934" lon="9.31208665776655"><ele>809.4</ele><time>2026-03-29T10:12:10.999Z</time></trkpt><trkpt lat="39.359192507964735" lon="9.312183815066563"><ele>808.0</ele><time>2026-03-29T10:12:11.999Z</time></trkpt><trkpt lat="39.35923516707846" lon="9.312279305108358"><ele>806.6666666666666</ele><time>2026-03-29T10:12:12.999Z</time></trkpt><trkpt lat="39.35927722321208" lon="9.312367576635571"><ele>805.3333333333333</ele><time>2026-03-29T10:12:13.999Z</time></trkpt><trkpt lat="39.359318850525355" lon="9.31245190463246"><ele>804.0</ele><time>2026-03-29T10:12:14.999Z</time></trkpt><trkpt lat="39.35937704381632" lon="9.312542869526661"><ele>802.6666666666667</ele><time>2026-03-29T10:12:15.999Z</time></trkpt><trkpt lat="39.359442436856156" lon="9.312634408351684"><ele>801.3333333333334</ele><time>2026-03-29T10:12:16.999Z</time></trkpt><trkpt lat="39.35948426793629" lon="9.312728295579277"><ele>800.0</ele><time>2026-03-29T10:12:17.999Z</time></trkpt><trkpt lat="39.359537195107656" lon="9.312857752757356"><ele>800.0000000000001</ele><time>2026-03-29T10:12:18.999Z</time></trkpt><trkpt lat="39.359562681540595" lon="9.312975564078513"><ele>800.0</ele><time>2026-03-29T10:12:19.999Z</time></trkpt><trkpt lat="39.3595961207354" lon="9.313084567292847"><ele>800.0</ele><time>2026-03-29T10:12:20.999Z</time></trkpt><trkpt lat="39.359628564689984" lon="9.313189339445367"><ele>800.0</ele><time>2026-03-29T10:12:21.999Z</time></trkpt><trkpt lat="39.35965390783098" lon="9.313288417404388"><ele>800.0000000000001</ele><time>2026-03-29T10:12:22.999Z</time></trkpt><trkpt lat="39.359656379599414" lon="9.313393384095958"><ele>800.0</ele><time>2026-03-29T10:12:23.999Z</time></trkpt><trkpt lat="39.35964605886522" lon="9.313500706660589"><ele>795.5</ele><time>2026-03-29T10:12:24.999Z</time></trkpt><trkpt lat="39.35963678918572" lon="9.313627426707608"><ele>791.0</ele><time>2026-03-29T10:12:25.999Z</time></trkpt><trkpt lat="39.35962463475868" lon="9.313777484200784"><ele>786.5</ele><time>2026-03-29T10:12:26.998Z</time></trkpt><trkpt lat="39.35960898025166" lon="9.313942954342313"><ele>782.0</ele><time>2026-03-29T10:12:27.998Z</time></trkpt><trkpt lat="39.359592164858206" lon="9.314118963004207"><ele>782.0</ele><time>2026-03-29T10:12:28.998Z</time></trkpt><trkpt lat="39.35954873944826" lon="9.314284622051305"><ele>782.0</ele><time>2026-03-29T10:12:29.998Z</time></trkpt><trkpt lat="39.35949416115899" lon="9.314449479088983"><ele>782.0</ele><time>2026-03-29T10:12:30.998Z</time></trkpt><trkpt lat="39.35945256243069" lon="9.314614463493033"><ele>782.0</ele><time>2026-03-29T10:12:31.998Z</time></trkpt><trkpt lat="39.359425004200496" lon="9.314785314335047"><ele>782.0</ele><time>2026-03-29T10:12:32.998Z</time></trkpt><trkpt lat="39.359417963084844" lon="9.314947854261256"><ele>782.0</ele><time>2026-03-29T10:12:33.998Z</time></trkpt><trkpt lat="39.359427902139956" lon="9.315096895819805"><ele>782.0</ele><time>2026-03-29T10:12:34.998Z</time></trkpt><trkpt lat="39.35944328916455" lon="9.315194445669016"><ele>782.0</ele><time>2026-03-29T10:12:35.998Z</time></trkpt><trkpt lat="39.35951948251272" lon="9.315273933261228"><ele>782.0</ele><time>2026-03-29T10:12:37.998Z</time></trkpt><trkpt lat="39.35958832682713" lon="9.31528252151944"><ele>782.0</ele><time>2026-03-29T10:12:38.998Z</time></trkpt><trkpt lat="39.35966916092043" lon="9.315289602253356"><ele>782.0</ele><time>2026-03-29T10:12:39.998Z</time></trkpt><trkpt lat="39.35972816531029" lon="9.315330754335822"><ele>782.0</ele><time>2026-03-29T10:12:40.998Z</time></trkpt><trkpt lat="39.35974797510805" lon="9.315490153544355"><ele>782.0</ele><time>2026-03-29T10:12:42.998Z</time></trkpt><trkpt lat="39.35970236046002" lon="9.315608123234862"><ele>782.0</ele><time>2026-03-29T10:12:43.998Z</time></trkpt><trkpt lat="39.35964513271565" lon="9.315738359721092"><ele>784.5</ele><time>2026-03-29T10:12:44.998Z</time></trkpt><trkpt lat="39.35957903852991" lon="9.31588715640398"><ele>787.0</ele><time>2026-03-29T10:12:45.998Z</time></trkpt><trkpt lat="39.3595090294357" lon="9.31606514557233"><ele>789.5</ele><time>2026-03-29T10:12:46.998Z</time></trkpt><trkpt lat="39.35945705332863" lon="9.31625599301305"><ele>792.0</ele><time>2026-03-29T10:12:47.998Z</time></trkpt><trkpt lat="39.359428643032196" lon="9.316442362211856"><ele>792.75</ele><time>2026-03-29T10:12:48.998Z</time></trkpt><trkpt lat="39.35940001245244" lon="9.316614101600805"><ele>793.5</ele><time>2026-03-29T10:12:49.998Z</time></trkpt><trkpt lat="39.35938378126049" lon="9.316786917805064"><ele>794.25</ele><time>2026-03-29T10:12:50.998Z</time></trkpt><trkpt lat="39.359377021837204" lon="9.316957862677203"><ele>795.0</ele><time>2026-03-29T10:12:51.998Z</time></trkpt><trkpt lat="39.35939258140359" lon="9.31713517015939"><ele>792.0</ele><time>2026-03-29T10:12:52.998Z</time></trkpt><trkpt lat="39.35939759303838" lon="9.317339949745824"><ele>789.0</ele><time>2026-03-29T10:12:53.998Z</time></trkpt><trkpt lat="39.359405584114754" lon="9.317521416719021"><ele>786.0</ele><time>2026-03-29T10:12:54.998Z</time></trkpt><trkpt lat="39.359407442074115" lon="9.317689620685995"><ele>783.0</ele><time>2026-03-29T10:12:55.998Z</time></trkpt><trkpt lat="39.35939810130446" lon="9.317852397657363"><ele>783.0</ele><time>2026-03-29T10:12:56.998Z</time></trkpt><trkpt lat="39.35939369667618" lon="9.318009548714006"><ele>783.0</ele><time>2026-03-29T10:12:57.998Z</time></trkpt><trkpt lat="39.359397149243215" lon="9.318163881195073"><ele>783.0</ele><time>2026-03-29T10:12:58.998Z</time></trkpt><trkpt lat="39.359413655411686" lon="9.31831595580262"><ele>783.0</ele><time>2026-03-29T10:12:59.998Z</time></trkpt><trkpt lat="39.35944474486551" lon="9.318462332467908"><ele>780.75</ele><time>2026-03-29T10:13:00.998Z</time></trkpt><trkpt lat="39.359481422332756" lon="9.318625279870398"><ele>778.5</ele><time>2026-03-29T10:13:01.998Z</time></trkpt><trkpt lat="39.359519645282504" lon="9.318774574557457"><ele>776.25</ele><time>2026-03-29T10:13:02.998Z</time></trkpt><trkpt lat="39.359564978143716" lon="9.318902453481844"><ele>774.0</ele><time>2026-03-29T10:13:03.998Z</time></trkpt><trkpt lat="39.35963099949302" lon="9.319028747490371"><ele>769.5</ele><time>2026-03-29T10:13:04.997Z</time></trkpt><trkpt lat="39.3597146103903" lon="9.319149500937629"><ele>765.0</ele><time>2026-03-29T10:13:05.997Z</time></trkpt><trkpt lat="39.35980364714476" lon="9.31928339003166"><ele>760.5</ele><time>2026-03-29T10:13:06.997Z</time></trkpt><trkpt lat="39.35989469316691" lon="9.3194294480434"><ele>756.0</ele><time>2026-03-29T10:13:07.997Z</time></trkpt><trkpt lat="39.35998452332637" lon="9.319571328523361"><ele>756.0</ele><time>2026-03-29T10:13:08.997Z</time></trkpt><trkpt lat="39.36006199111249" lon="9.319699407274097"><ele>756.0</ele><time>2026-03-29T10:13:09.997Z</time></trkpt><trkpt lat="39.36012834612175" lon="9.319815531059382"><ele>756.0</ele><time>2026-03-29T10:13:10.997Z</time></trkpt><trkpt lat="39.36019092588504" lon="9.319941149475843"><ele>756.0</ele><time>2026-03-29T10:13:11.997Z</time></trkpt><trkpt lat="39.360239590004575" lon="9.32008150082842"><ele>758.25</ele><time>2026-03-29T10:13:12.997Z</time></trkpt><trkpt lat="39.36028677323108" lon="9.32022971172237"><ele>760.5</ele><time>2026-03-29T10:13:13.997Z</time></trkpt><trkpt lat="39.360316242369706" lon="9.320378635179132"><ele>762.75</ele><time>2026-03-29T10:13:14.997Z</time></trkpt><trkpt lat="39.36033472659921" lon="9.320536603135057"><ele>765.0</ele><time>2026-03-29T10:13:15.997Z</time></trkpt><trkpt lat="39.360346519119076" lon="9.320694929718309"><ele>765.6</ele><time>2026-03-29T10:13:16.997Z</time></trkpt><trkpt lat="39.3603411117203" lon="9.320832233391716"><ele>766.2</ele><time>2026-03-29T10:13:17.997Z</time></trkpt><trkpt lat="39.3603234031028" lon="9.320957137043552"><ele>766.8</ele><time>2026-03-29T10:13:18.997Z</time></trkpt><trkpt lat="39.36030094137453" lon="9.321098914286694"><ele>767.4</ele><time>2026-03-29T10:13:19.997Z</time></trkpt><trkpt lat="39.36027113330018" lon="9.321241649840493"><ele>768.0</ele><time>2026-03-29T10:13:20.997Z</time></trkpt><trkpt lat="39.360235310238124" lon="9.321398338237437"><ele>766.5999999999999</ele><time>2026-03-29T10:13:22Z</time></trkpt><trkpt lat="39.36020161144056" lon="9.32154464386104"><ele>765.1999999999999</ele><time>2026-03-29T10:13:23Z</time></trkpt><trkpt lat="39.36017334855498" lon="9.321689369369782"><ele>763.8</ele><time>2026-03-29T10:13:24Z</time></trkpt><trkpt lat="39.36015137932228" lon="9.321831297339275"><ele>762.4</ele><time>2026-03-29T10:13:25Z</time></trkpt><trkpt lat="39.36016163651977" lon="9.321952567577403"><ele>761.0</ele><time>2026-03-29T10:13:26Z</time></trkpt><trkpt lat="39.36019740904324" lon="9.322068705322407"><ele>761.0</ele><time>2026-03-29T10:13:27Z</time></trkpt><trkpt lat="39.36024448974956" lon="9.322163720631888"><ele>761.0</ele><time>2026-03-29T10:13:28Z</time></trkpt><trkpt lat="39.36028867718174" lon="9.322242310960648"><ele>761.0</ele><time>2026-03-29T10:13:29Z</time></trkpt><trkpt lat="39.36032253098222" lon="9.322311697495067"><ele>761.0</ele><time>2026-03-29T10:13:30Z</time></trkpt><trkpt lat="39.36035049152638" lon="9.322441043176262"><ele>761.0</ele><time>2026-03-29T10:13:32Z</time></trkpt><trkpt lat="39.36035826541228" lon="9.322589094130661"><ele>761.0</ele><time>2026-03-29T10:13:34Z</time></trkpt><trkpt lat="39.36035328319795" lon="9.322714788752762"><ele>760.5</ele><time>2026-03-29T10:13:35Z</time></trkpt><trkpt lat="39.360332982348226" lon="9.32285438764926"><ele>760.0</ele><time>2026-03-29T10:13:36Z</time></trkpt><trkpt lat="39.360294343223345" lon="9.32300247583281"><ele>759.5</ele><time>2026-03-29T10:13:37Z</time></trkpt><trkpt lat="39.360237060206856" lon="9.32315855364984"><ele>759.0</ele><time>2026-03-29T10:13:38Z</time></trkpt><trkpt lat="39.36015487457591" lon="9.32331420259233"><ele>758.3333333333334</ele><time>2026-03-29T10:13:39Z</time></trkpt><trkpt lat="39.36005099904526" lon="9.323459845028454"><ele>757.6666666666667</ele><time>2026-03-29T10:13:40Z</time></trkpt><trkpt lat="39.35991631821538" lon="9.323627286319402"><ele>757.0</ele><time>2026-03-29T10:13:41Z</time></trkpt><trkpt lat="39.359784629012864" lon="9.32377594869661"><ele>758.75</ele><time>2026-03-29T10:13:42Z</time></trkpt><trkpt lat="39.35967054937074" lon="9.323868328141044"><ele>760.5</ele><time>2026-03-29T10:13:43Z</time></trkpt><trkpt lat="39.35960215727454" lon="9.323964102958364"><ele>762.25</ele><time>2026-03-29T10:13:44Z</time></trkpt><trkpt lat="39.35955555605067" lon="9.324077239413509"><ele>764.0</ele><time>2026-03-29T10:13:45Z</time></trkpt><trkpt lat="39.35952370516002" lon="9.324224491404067"><ele>764.0</ele><time>2026-03-29T10:13:46Z</time></trkpt><trkpt lat="39.35949955272437" lon="9.324373255159752"><ele>764.0</ele><time>2026-03-29T10:13:47Z</time></trkpt><trkpt lat="39.359460187642064" lon="9.324516221613365"><ele>764.0</ele><time>2026-03-29T10:13:48Z</time></trkpt><trkpt lat="39.35940144329324" lon="9.324644863719943"><ele>764.0</ele><time>2026-03-29T10:13:49Z</time></trkpt><trkpt lat="39.359337136312654" lon="9.32475934238385"><ele>762.6666666666666</ele><time>2026-03-29T10:13:50Z</time></trkpt><trkpt lat="39.35928585830827" lon="9.324861443997566"><ele>761.3333333333333</ele><time>2026-03-29T10:13:51Z</time></trkpt><trkpt lat="39.359242505713766" lon="9.324948475517123"><ele>760.0</ele><time>2026-03-29T10:13:52Z</time></trkpt><trkpt lat="39.35920261100795" lon="9.325032292812807"><ele>758.6666666666666</ele><time>2026-03-29T10:13:52.999Z</time></trkpt><trkpt lat="39.3591798861514" lon="9.325132981115312"><ele>757.3333333333334</ele><time>2026-03-29T10:13:53.999Z</time></trkpt><trkpt lat="39.359181692184194" lon="9.325241014432526"><ele>756.0</ele><time>2026-03-29T10:13:54.999Z</time></trkpt><trkpt lat="39.35918051429809" lon="9.325347672813296"><ele>756.0</ele><time>2026-03-29T10:13:55.999Z</time></trkpt><trkpt lat="39.3591892680404" lon="9.325463608459945"><ele>756.0</ele><time>2026-03-29T10:13:56.999Z</time></trkpt><trkpt lat="39.35919872302796" lon="9.325595317839406"><ele>756.0</ele><time>2026-03-29T10:13:57.999Z</time></trkpt><trkpt lat="39.3591990183457" lon="9.325706641132001"><ele>756.0</ele><time>2026-03-29T10:13:58.999Z</time></trkpt><trkpt lat="39.35918912267601" lon="9.325842233216349"><ele>756.0</ele><time>2026-03-29T10:13:59.999Z</time></trkpt><trkpt lat="39.3591680189398" lon="9.325982167181465"><ele>756.0</ele><time>2026-03-29T10:14:00.999Z</time></trkpt><trkpt lat="39.359144286759815" lon="9.326139387648505"><ele>756.0</ele><time>2026-03-29T10:14:01.999Z</time></trkpt><trkpt lat="39.35911057615078" lon="9.32631130027943"><ele>756.0</ele><time>2026-03-29T10:14:02.999Z</time></trkpt><trkpt lat="39.359072766854354" lon="9.326479863870864"><ele>756.0</ele><time>2026-03-29T10:14:03.999Z</time></trkpt><trkpt lat="39.359032582316004" lon="9.326628028701755"><ele>754.8</ele><time>2026-03-29T10:14:04.999Z</time></trkpt><trkpt lat="39.358993581992436" lon="9.326758142312784"><ele>753.5999999999999</ele><time>2026-03-29T10:14:05.999Z</time></trkpt><trkpt lat="39.35894286985047" lon="9.326864046157743"><ele>752.4</ele><time>2026-03-29T10:14:06.999Z</time></trkpt><trkpt lat="39.35887933120043" lon="9.326948221434899"><ele>751.2</ele><time>2026-03-29T10:14:07.999Z</time></trkpt><trkpt lat="39.35880767053792" lon="9.327034939868883"><ele>750.0</ele><time>2026-03-29T10:14:08.999Z</time></trkpt><trkpt lat="39.358756246353735" lon="9.32713069506841"><ele>747.0</ele><time>2026-03-29T10:14:09.999Z</time></trkpt><trkpt lat="39.3587221659632" lon="9.327256051074569"><ele>744.0</ele><time>2026-03-29T10:14:10.999Z</time></trkpt><trkpt lat="39.358703015922046" lon="9.327404583363792"><ele>741.0</ele><time>2026-03-29T10:14:11.999Z</time></trkpt><trkpt lat="39.35869938009262" lon="9.327556748256807"><ele>738.0</ele><time>2026-03-29T10:14:12.999Z</time></trkpt><trkpt lat="39.35869967086628" lon="9.327680316062438"><ele>735.0</ele><time>2026-03-29T10:14:13.999Z</time></trkpt><trkpt lat="39.358716665650064" lon="9.327775263362444"><ele>735.0</ele><time>2026-03-29T10:14:14.999Z</time></trkpt><trkpt lat="39.35875609255879" lon="9.327859385394328"><ele>735.0</ele><time>2026-03-29T10:14:15.999Z</time></trkpt><trkpt lat="39.35879699276268" lon="9.327924235809672"><ele>735.0</ele><time>2026-03-29T10:14:16.999Z</time></trkpt><trkpt lat="39.358774818490524" lon="9.328009504143477"><ele>735.0</ele><time>2026-03-29T10:14:18.999Z</time></trkpt><trkpt lat="39.358673065659104" lon="9.327981586647141"><ele>735.0</ele><time>2026-03-29T10:14:20.999Z</time></trkpt><trkpt lat="39.35861540922125" lon="9.327904650139576"><ele>735.0</ele><time>2026-03-29T10:14:21.999Z</time></trkpt><trkpt lat="39.35855091439769" lon="9.327807743777349"><ele>735.0</ele><time>2026-03-29T10:14:22.999Z</time></trkpt><trkpt lat="39.358480331593256" lon="9.32770232749375"><ele>735.0</ele><time>2026-03-29T10:14:23.999Z</time></trkpt><trkpt lat="39.35842904228215" lon="9.327600193309618"><ele>735.0</ele><time>2026-03-29T10:14:24.999Z</time></trkpt><trkpt lat="39.35838731228678" lon="9.327511562344696"><ele>735.0</ele><time>2026-03-29T10:14:25.999Z</time></trkpt><trkpt lat="39.35829661765246" lon="9.327457144903732"><ele>735.0</ele><time>2026-03-29T10:14:27.999Z</time></trkpt><trkpt lat="39.35823726054895" lon="9.327608199117506"><ele>735.0</ele><time>2026-03-29T10:14:29.998Z</time></trkpt><trkpt lat="39.358241297301376" lon="9.327721307405977"><ele>735.0</ele><time>2026-03-29T10:14:30.998Z</time></trkpt><trkpt lat="39.35824986431679" lon="9.327867080948755"><ele>735.0</ele><time>2026-03-29T10:14:31.998Z</time></trkpt><trkpt lat="39.35824589109492" lon="9.32799986073889"><ele>735.0</ele><time>2026-03-29T10:14:32.998Z</time></trkpt><trkpt lat="39.35822764023905" lon="9.32813371876795"><ele>735.0</ele><time>2026-03-29T10:14:33.998Z</time></trkpt><trkpt lat="39.358199268839165" lon="9.328259983385657"><ele>734.5</ele><time>2026-03-29T10:14:34.998Z</time></trkpt><trkpt lat="39.358158918941974" lon="9.328390055271106"><ele>734.0</ele><time>2026-03-29T10:14:35.998Z</time></trkpt><trkpt lat="39.35810007626507" lon="9.32852380117738"><ele>733.5</ele><time>2026-03-29T10:14:36.998Z</time></trkpt><trkpt lat="39.35803038577077" lon="9.328665603203259"><ele>733.0</ele><time>2026-03-29T10:14:37.998Z</time></trkpt><trkpt lat="39.35796159122322" lon="9.328809715349166"><ele>728.25</ele><time>2026-03-29T10:14:38.998Z</time></trkpt><trkpt lat="39.357883019384865" lon="9.328937874379285"><ele>723.5</ele><time>2026-03-29T10:14:39.998Z</time></trkpt><trkpt lat="39.35780128524418" lon="9.32903784205112"><ele>718.75</ele><time>2026-03-29T10:14:40.998Z</time></trkpt><trkpt lat="39.35770695432925" lon="9.329114487969736"><ele>714.0</ele><time>2026-03-29T10:14:41.998Z</time></trkpt><trkpt lat="39.35761401624178" lon="9.329177984339093"><ele>714.0</ele><time>2026-03-29T10:14:42.998Z</time></trkpt><trkpt lat="39.35752492704604" lon="9.329231566581914"><ele>714.0</ele><time>2026-03-29T10:14:43.998Z</time></trkpt><trkpt lat="39.357454473226916" lon="9.32930731248036"><ele>714.0</ele><time>2026-03-29T10:14:44.998Z</time></trkpt><trkpt lat="39.357411438844395" lon="9.329419161023846"><ele>714.0</ele><time>2026-03-29T10:14:45.998Z</time></trkpt><trkpt lat="39.35737425737791" lon="9.329550544005313"><ele>714.0</ele><time>2026-03-29T10:14:46.998Z</time></trkpt><trkpt lat="39.35730270243071" lon="9.329671470111464"><ele>712.6</ele><time>2026-03-29T10:14:47.998Z</time></trkpt><trkpt lat="39.35722097147155" lon="9.329780243479638"><ele>711.2</ele><time>2026-03-29T10:14:48.998Z</time></trkpt><trkpt lat="39.357142351172286" lon="9.329881347910991"><ele>709.8000000000001</ele><time>2026-03-29T10:14:49.998Z</time></trkpt><trkpt lat="39.357065251097126" lon="9.32998186726188"><ele>708.4000000000001</ele><time>2026-03-29T10:14:50.998Z</time></trkpt><trkpt lat="39.3569964084382" lon="9.330060163188087"><ele>707.0</ele><time>2026-03-29T10:14:51.998Z</time></trkpt><trkpt lat="39.3569132489368" lon="9.33014464881717"><ele>707.0</ele><time>2026-03-29T10:14:53.998Z</time></trkpt><trkpt lat="39.35678595499284" lon="9.330124470303325"><ele>707.0</ele><time>2026-03-29T10:14:55.998Z</time></trkpt><trkpt lat="39.356704429940855" lon="9.330087306302323"><ele>707.0</ele><time>2026-03-29T10:14:56.998Z</time></trkpt><trkpt lat="39.35662229883746" lon="9.330073051780147"><ele>707.0</ele><time>2026-03-29T10:14:57.998Z</time></trkpt><trkpt lat="39.35654609722413" lon="9.330103920161378"><ele>707.0</ele><time>2026-03-29T10:14:58.998Z</time></trkpt><trkpt lat="39.35647875516348" lon="9.330196505388818"><ele>707.0</ele><time>2026-03-29T10:14:59.998Z</time></trkpt><trkpt lat="39.356430977858416" lon="9.330300122226534"><ele>707.0</ele><time>2026-03-29T10:15:00.998Z</time></trkpt><trkpt lat="39.35637809692365" lon="9.330423930373795"><ele>707.0</ele><time>2026-03-29T10:15:01.998Z</time></trkpt><trkpt lat="39.35632451391109" lon="9.330534262785472"><ele>707.0</ele><time>2026-03-29T10:15:02.998Z</time></trkpt><trkpt lat="39.356255569323054" lon="9.330627245044857"><ele>707.0</ele><time>2026-03-29T10:15:03.998Z</time></trkpt><trkpt lat="39.35617957926671" lon="9.330706047467467"><ele>703.4000000000001</ele><time>2026-03-29T10:15:04.998Z</time></trkpt><trkpt lat="39.356096954498845" lon="9.330776352171693"><ele>699.8000000000001</ele><time>2026-03-29T10:15:05.998Z</time></trkpt><trkpt lat="39.35600495884675" lon="9.330847413509378"><ele>696.2</ele><time>2026-03-29T10:15:06.998Z</time></trkpt><trkpt lat="39.35592154024539" lon="9.330924785728774"><ele>692.6</ele><time>2026-03-29T10:15:07.997Z</time></trkpt><trkpt lat="39.355844408093894" lon="9.331032668221054"><ele>689.0</ele><time>2026-03-29T10:15:08.997Z</time></trkpt><trkpt lat="39.355775629796945" lon="9.33117055347559"><ele>689.0</ele><time>2026-03-29T10:15:09.997Z</time></trkpt><trkpt lat="39.35571893225012" lon="9.331310580813328"><ele>689.0</ele><time>2026-03-29T10:15:10.997Z</time></trkpt><trkpt lat="39.35566545735987" lon="9.331453172439064"><ele>689.0</ele><time>2026-03-29T10:15:11.997Z</time></trkpt><trkpt lat="39.35562464620697" lon="9.331598154578923"><ele>689.0</ele><time>2026-03-29T10:15:12.997Z</time></trkpt><trkpt lat="39.355587075739805" lon="9.33174491815942"><ele>685.2</ele><time>2026-03-29T10:15:13.997Z</time></trkpt><trkpt lat="39.35556030752611" lon="9.33188816625561"><ele>681.4000000000001</ele><time>2026-03-29T10:15:14.997Z</time></trkpt><trkpt lat="39.35554461430201" lon="9.332022881733844"><ele>677.6</ele><time>2026-03-29T10:15:15.997Z</time></trkpt><trkpt lat="39.355525503040205" lon="9.332143127943004"><ele>673.8</ele><time>2026-03-29T10:15:16.997Z</time></trkpt><trkpt lat="39.35551435245631" lon="9.33224710397104"><ele>670.0</ele><time>2026-03-29T10:15:17.997Z</time></trkpt><trkpt lat="39.3555059318463" lon="9.332330927463682"><ele>669.4</ele><time>2026-03-29T10:15:18.997Z</time></trkpt><trkpt lat="39.35545098555581" lon="9.332419401747595"><ele>668.8</ele><time>2026-03-29T10:15:20.997Z</time></trkpt><trkpt lat="39.35535302943778" lon="9.332336138195382"><ele>668.2</ele><time>2026-03-29T10:15:22.997Z</time></trkpt><trkpt lat="39.3552994331877" lon="9.332256241493058"><ele>667.6</ele><time>2026-03-29T10:15:23.997Z</time></trkpt><trkpt lat="39.35524273107022" lon="9.332147152779665"><ele>667.0</ele><time>2026-03-29T10:15:24.997Z</time></trkpt><trkpt lat="39.35518742877081" lon="9.332015001873659"><ele>667.0</ele><time>2026-03-29T10:15:25.997Z</time></trkpt><trkpt lat="39.35513922813808" lon="9.331860480216822"><ele>667.0</ele><time>2026-03-29T10:15:26.997Z</time></trkpt><trkpt lat="39.35509451382998" lon="9.331715056245708"><ele>667.0</ele><time>2026-03-29T10:15:28Z</time></trkpt><trkpt lat="39.35505606838792" lon="9.331585941554609"><ele>667.0</ele><time>2026-03-29T10:15:29Z</time></trkpt><trkpt lat="39.35501882371915" lon="9.331488236761542"><ele>667.0</ele><time>2026-03-29T10:15:30Z</time></trkpt><trkpt lat="39.354944354543484" lon="9.331448820602843"><ele>667.0</ele><time>2026-03-29T10:15:32Z</time></trkpt><trkpt lat="39.35486116799164" lon="9.331554393969196"><ele>667.0</ele><time>2026-03-29T10:15:34Z</time></trkpt><trkpt lat="39.35484755412158" lon="9.3316557671324"><ele>667.0</ele><time>2026-03-29T10:15:35Z</time></trkpt><trkpt lat="39.3548492649613" lon="9.331791220253681"><ele>667.0</ele><time>2026-03-29T10:15:36Z</time></trkpt><trkpt lat="39.35483996179606" lon="9.331927704811505"><ele>667.0</ele><time>2026-03-29T10:15:37Z</time></trkpt><trkpt lat="39.35480787809089" lon="9.332084217193888"><ele>663.5</ele><time>2026-03-29T10:15:38Z</time></trkpt><trkpt lat="39.354770809954196" lon="9.332238534427072"><ele>660.0</ele><time>2026-03-29T10:15:39Z</time></trkpt><trkpt lat="39.35472666937067" lon="9.332387930679587"><ele>656.5</ele><time>2026-03-29T10:15:40Z</time></trkpt><trkpt lat="39.35469166405631" lon="9.332528694136277"><ele>653.0</ele><time>2026-03-29T10:15:41Z</time></trkpt><trkpt lat="39.35464566193516" lon="9.332669810616862"><ele>653.0</ele><time>2026-03-29T10:15:42Z</time></trkpt><trkpt lat="39.35459083536887" lon="9.332793857158336"><ele>653.0</ele><time>2026-03-29T10:15:43Z</time></trkpt><trkpt lat="39.35451616768375" lon="9.332904250310552"><ele>653.0</ele><time>2026-03-29T10:15:44Z</time></trkpt><trkpt lat="39.35443780479566" lon="9.332989183365402"><ele>653.0</ele><time>2026-03-29T10:15:45Z</time></trkpt><trkpt lat="39.35437515112064" lon="9.333037110967242"><ele>653.0</ele><time>2026-03-29T10:15:46Z</time></trkpt><trkpt lat="39.35430341791359" lon="9.333059401344146"><ele>653.0</ele><time>2026-03-29T10:15:47Z</time></trkpt><trkpt lat="39.35421738268447" lon="9.33305972422246"><ele>653.0</ele><time>2026-03-29T10:15:48Z</time></trkpt><trkpt lat="39.354117082957515" lon="9.33303933603111"><ele>653.0</ele><time>2026-03-29T10:15:49Z</time></trkpt><trkpt lat="39.35401176753407" lon="9.33299213157785"><ele>653.0</ele><time>2026-03-29T10:15:50Z</time></trkpt><trkpt lat="39.353924958557904" lon="9.33293837272355"><ele>653.0</ele><time>2026-03-29T10:15:51Z</time></trkpt><trkpt lat="39.35384632760635" lon="9.332876666264914"><ele>655.0</ele><time>2026-03-29T10:15:52Z</time></trkpt><trkpt lat="39.353782222960255" lon="9.332840844080394"><ele>657.0</ele><time>2026-03-29T10:15:53Z</time></trkpt><trkpt lat="39.35369738261215" lon="9.3328686849532"><ele>659.0</ele><time>2026-03-29T10:15:55Z</time></trkpt><trkpt lat="39.35365546339287" lon="9.333031623175534"><ele>661.0</ele><time>2026-03-29T10:15:57Z</time></trkpt><trkpt lat="39.35367222859912" lon="9.33313683822578"><ele>663.0</ele><time>2026-03-29T10:15:58Z</time></trkpt><trkpt lat="39.35369038323757" lon="9.333254837229761"><ele>658.4</ele><time>2026-03-29T10:15:59Z</time></trkpt><trkpt lat="39.35369805296963" lon="9.333378772475452"><ele>653.8</ele><time>2026-03-29T10:15:59.999Z</time></trkpt><trkpt lat="39.353681171107375" lon="9.333504885749688"><ele>649.2</ele><time>2026-03-29T10:16:00.999Z</time></trkpt><trkpt lat="39.35363862135924" lon="9.333617310484938"><ele>644.6</ele><time>2026-03-29T10:16:01.999Z</time></trkpt><trkpt lat="39.353573171250574" lon="9.33373134768602"><ele>640.0</ele><time>2026-03-29T10:16:02.999Z</time></trkpt><trkpt lat="39.35349397182623" lon="9.33384771062076"><ele>635.75</ele><time>2026-03-29T10:16:03.999Z</time></trkpt><trkpt lat="39.353401558026384" lon="9.333981994056527"><ele>631.5</ele><time>2026-03-29T10:16:04.999Z</time></trkpt><trkpt lat="39.353310740503055" lon="9.334132640420309"><ele>627.25</ele><time>2026-03-29T10:16:05.999Z</time></trkpt><trkpt lat="39.35322216515382" lon="9.33427593273573"><ele>623.0</ele><time>2026-03-29T10:16:06.999Z</time></trkpt><trkpt lat="39.353140369665994" lon="9.334403311082202"><ele>623.0</ele><time>2026-03-29T10:16:07.999Z</time></trkpt><trkpt lat="39.35305861784161" lon="9.334524729480153"><ele>623.0</ele><time>2026-03-29T10:16:08.999Z</time></trkpt><trkpt lat="39.352973635617396" lon="9.334636104510869"><ele>623.0</ele><time>2026-03-29T10:16:09.999Z</time></trkpt><trkpt lat="39.35289852930958" lon="9.334738275028059"><ele>623.0</ele><time>2026-03-29T10:16:10.999Z</time></trkpt><trkpt lat="39.35283790200337" lon="9.334858851741688"><ele>624.0</ele><time>2026-03-29T10:16:11.999Z</time></trkpt><trkpt lat="39.352781990422734" lon="9.334993917084093"><ele>625.0</ele><time>2026-03-29T10:16:12.999Z</time></trkpt><trkpt lat="39.352735215933635" lon="9.335139880621101"><ele>626.0</ele><time>2026-03-29T10:16:13.999Z</time></trkpt><trkpt lat="39.35267926864877" lon="9.335277885377637"><ele>627.0</ele><time>2026-03-29T10:16:14.999Z</time></trkpt><trkpt lat="39.35261479394904" lon="9.335401080979462"><ele>627.0</ele><time>2026-03-29T10:16:15.999Z</time></trkpt><trkpt lat="39.35255014354346" lon="9.335522430778923"><ele>627.0</ele><time>2026-03-29T10:16:16.999Z</time></trkpt><trkpt lat="39.35248210154719" lon="9.335644994603044"><ele>627.0</ele><time>2026-03-29T10:16:17.999Z</time></trkpt><trkpt lat="39.352415547719914" lon="9.33577102417559"><ele>627.0</ele><time>2026-03-29T10:16:18.999Z</time></trkpt><trkpt lat="39.35234686844815" lon="9.335902608326807"><ele>626.2</ele><time>2026-03-29T10:16:19.999Z</time></trkpt><trkpt lat="39.352294272653594" lon="9.336017856793948"><ele>625.4000000000001</ele><time>2026-03-29T10:16:20.999Z</time></trkpt><trkpt lat="39.35223839649639" lon="9.336123864126053"><ele>624.5999999999999</ele><time>2026-03-29T10:16:21.999Z</time></trkpt><trkpt lat="39.352185780687435" lon="9.336218731384507"><ele>623.8</ele><time>2026-03-29T10:16:22.999Z</time></trkpt><trkpt lat="39.35212402353302" lon="9.336313843923651"><ele>623.0</ele><time>2026-03-29T10:16:23.999Z</time></trkpt><trkpt lat="39.352068838985836" lon="9.336373124949846"><ele>619.5</ele><time>2026-03-29T10:16:24.999Z</time></trkpt><trkpt lat="39.352004758510105" lon="9.336399386350287"><ele>616.0</ele><time>2026-03-29T10:16:25.999Z</time></trkpt><trkpt lat="39.35191647553784" lon="9.336411009116997"><ele>612.5</ele><time>2026-03-29T10:16:26.999Z</time></trkpt><trkpt lat="39.35182318264811" lon="9.33640500908829"><ele>609.0</ele><time>2026-03-29T10:16:27.999Z</time></trkpt><trkpt lat="39.35172503837503" lon="9.336407286152829"><ele>605.5</ele><time>2026-03-29T10:16:28.999Z</time></trkpt><trkpt lat="39.35163941433385" lon="9.336430902989083"><ele>602.0</ele><time>2026-03-29T10:16:29.999Z</time></trkpt><trkpt lat="39.3515673711207" lon="9.336503786611733"><ele>602.0</ele><time>2026-03-29T10:16:30.999Z</time></trkpt><trkpt lat="39.35149011850271" lon="9.336598975924527"><ele>602.0</ele><time>2026-03-29T10:16:31.999Z</time></trkpt><trkpt lat="39.35141869211763" lon="9.336715046701851"><ele>602.0</ele><time>2026-03-29T10:16:32.999Z</time></trkpt><trkpt lat="39.351374826881695" lon="9.33683279634562"><ele>602.0</ele><time>2026-03-29T10:16:33.999Z</time></trkpt><trkpt lat="39.351342238586014" lon="9.33697034843579"><ele>602.0</ele><time>2026-03-29T10:16:34.999Z</time></trkpt><trkpt lat="39.35132006421285" lon="9.33711585351077"><ele>601.8000000000001</ele><time>2026-03-29T10:16:35.999Z</time></trkpt><trkpt lat="39.35130318550398" lon="9.337270169265286"><ele>601.6</ele><time>2026-03-29T10:16:36.999Z</time></trkpt><trkpt lat="39.35129562315047" lon="9.337420824828797"><ele>601.4000000000001</ele><time>2026-03-29T10:16:37.998Z</time></trkpt><trkpt lat="39.35128551907166" lon="9.337555855808578"><ele>601.2</ele><time>2026-03-29T10:16:38.998Z</time></trkpt><trkpt lat="39.3512815221386" lon="9.337677630617703"><ele>601.0</ele><time>2026-03-29T10:16:39.998Z</time></trkpt><trkpt lat="39.35127409848102" lon="9.337777807112987"><ele>601.0</ele><time>2026-03-29T10:16:40.998Z</time></trkpt><trkpt lat="39.351252756466614" lon="9.337878845093345"><ele>601.0</ele><time>2026-03-29T10:16:41.998Z</time></trkpt><trkpt lat="39.351209847130754" lon="9.337994818233845"><ele>601.0</ele><time>2026-03-29T10:16:42.998Z</time></trkpt><trkpt lat="39.351145173792276" lon="9.338108065636327"><ele>601.0</ele><time>2026-03-29T10:16:43.998Z</time></trkpt><trkpt lat="39.351066268097675" lon="9.338220311410826"><ele>601.0</ele><time>2026-03-29T10:16:44.998Z</time></trkpt><trkpt lat="39.35098303177672" lon="9.338318062040557"><ele>599.6</ele><time>2026-03-29T10:16:45.998Z</time></trkpt><trkpt lat="39.35090696047336" lon="9.338409388475483"><ele>598.2</ele><time>2026-03-29T10:16:46.998Z</time></trkpt><trkpt lat="39.350843846497476" lon="9.33851640127269"><ele>596.8</ele><time>2026-03-29T10:16:47.998Z</time></trkpt><trkpt lat="39.35078918106006" lon="9.338643548374778"><ele>595.4</ele><time>2026-03-29T10:16:48.998Z</time></trkpt><trkpt lat="39.35075356564205" lon="9.33877581583461"><ele>594.0</ele><time>2026-03-29T10:16:49.998Z</time></trkpt><trkpt lat="39.35071927375273" lon="9.338904333784887"><ele>592.4</ele><time>2026-03-29T10:16:50.998Z</time></trkpt><trkpt lat="39.35068157287399" lon="9.339029214026661"><ele>590.8</ele><time>2026-03-29T10:16:51.998Z</time></trkpt><trkpt lat="39.35064079758414" lon="9.339156360134425"><ele>589.2</ele><time>2026-03-29T10:16:52.998Z</time></trkpt><trkpt lat="39.350597458558" lon="9.339267782221988"><ele>587.6</ele><time>2026-03-29T10:16:53.998Z</time></trkpt><trkpt lat="39.35053504445151" lon="9.339386114768272"><ele>586.0</ele><time>2026-03-29T10:16:54.998Z</time></trkpt><trkpt lat="39.35046915544177" lon="9.339509409901062"><ele>585.0</ele><time>2026-03-29T10:16:55.998Z</time></trkpt><trkpt lat="39.350410220951034" lon="9.339629716467432"><ele>584.0</ele><time>2026-03-29T10:16:56.998Z</time></trkpt><trkpt lat="39.35035066304622" lon="9.339762733549613"><ele>583.0</ele><time>2026-03-29T10:16:57.998Z</time></trkpt><trkpt lat="39.35028279407899" lon="9.339902978393486"><ele>582.0</ele><time>2026-03-29T10:16:58.998Z</time></trkpt><trkpt lat="39.35020656932231" lon="9.340032910350443"><ele>581.8000000000001</ele><time>2026-03-29T10:16:59.998Z</time></trkpt><trkpt lat="39.35013873267203" lon="9.340150015076386"><ele>581.6</ele><time>2026-03-29T10:17:00.998Z</time></trkpt><trkpt lat="39.3500735552425" lon="9.34025989383902"><ele>581.4000000000001</ele><time>2026-03-29T10:17:01.998Z</time></trkpt><trkpt lat="39.350017792479264" lon="9.340349623753195"><ele>581.2</ele><time>2026-03-29T10:17:02.998Z</time></trkpt><trkpt lat="39.34997070315443" lon="9.340434461713478"><ele>581.0</ele><time>2026-03-29T10:17:03.998Z</time></trkpt><trkpt lat="39.34991625351056" lon="9.340491582643715"><ele>581.0</ele><time>2026-03-29T10:17:04.998Z</time></trkpt><trkpt lat="39.3498493485698" lon="9.340521359582297"><ele>581.0</ele><time>2026-03-29T10:17:05.998Z</time></trkpt><trkpt lat="39.34977453111756" lon="9.340504537923934"><ele>581.0</ele><time>2026-03-29T10:17:06.998Z</time></trkpt><trkpt lat="39.34968282498915" lon="9.340475976160288"><ele>581.0</ele><time>2026-03-29T10:17:08.998Z</time></trkpt><trkpt lat="39.349663849497084" lon="9.34057701486808"><ele>581.0</ele><time>2026-03-29T10:17:10.998Z</time></trkpt><trkpt lat="39.349707979493054" lon="9.34064100728743"><ele>581.0</ele><time>2026-03-29T10:17:11.998Z</time></trkpt><trkpt lat="39.349775309785684" lon="9.340714961022698"><ele>578.6</ele><time>2026-03-29T10:17:12.998Z</time></trkpt><trkpt lat="39.349835771803285" lon="9.340776363975895"><ele>576.2</ele><time>2026-03-29T10:17:13.998Z</time></trkpt><trkpt lat="39.34987476144964" lon="9.340859830279372"><ele>573.8</ele><time>2026-03-29T10:17:14.998Z</time></trkpt><trkpt lat="39.34990037655254" lon="9.340979035677861"><ele>571.4</ele><time>2026-03-29T10:17:15.997Z</time></trkpt><trkpt lat="39.349912776034074" lon="9.341117588758268"><ele>569.0</ele><time>2026-03-29T10:17:16.997Z</time></trkpt><trkpt lat="39.34992059782639" lon="9.341259542832157"><ele>568.0</ele><time>2026-03-29T10:17:17.997Z</time></trkpt><trkpt lat="39.34992213964492" lon="9.341393880772305"><ele>567.0</ele><time>2026-03-29T10:17:18.997Z</time></trkpt><trkpt lat="39.34992886324181" lon="9.341515478413786"><ele>566.0</ele><time>2026-03-29T10:17:19.997Z</time></trkpt><trkpt lat="39.34993559132323" lon="9.34161776660771"><ele>565.0</ele><time>2026-03-29T10:17:20.997Z</time></trkpt><trkpt lat="39.34994245086507" lon="9.341706972686538"><ele>564.0</ele><time>2026-03-29T10:17:21.997Z</time></trkpt><trkpt lat="39.34993106064434" lon="9.341819909966455"><ele>563.0</ele><time>2026-03-29T10:17:23.997Z</time></trkpt><trkpt lat="39.34984635070927" lon="9.341823354381559"><ele>563.0</ele><time>2026-03-29T10:17:25.997Z</time></trkpt><trkpt lat="39.34971279509918" lon="9.341798560871712"><ele>563.0</ele><time>2026-03-29T10:17:27.997Z</time></trkpt><trkpt lat="39.34961980722565" lon="9.341817144296344"><ele>563.0</ele><time>2026-03-29T10:17:28.997Z</time></trkpt><trkpt lat="39.349528516489556" lon="9.341834495651096"><ele>563.0</ele><time>2026-03-29T10:17:29.997Z</time></trkpt><trkpt lat="39.349433836368846" lon="9.341855399117652"><ele>563.0</ele><time>2026-03-29T10:17:30.997Z</time></trkpt><trkpt lat="39.349351613573575" lon="9.341886942183907"><ele>562.0</ele><time>2026-03-29T10:17:31.997Z</time></trkpt><trkpt lat="39.34927235390413" lon="9.341928854303479"><ele>561.0</ele><time>2026-03-29T10:17:32.997Z</time></trkpt><trkpt lat="39.349209224194034" lon="9.342004018934164"><ele>560.0</ele><time>2026-03-29T10:17:34Z</time></trkpt><trkpt lat="39.34914623000806" lon="9.342079896034548"><ele>559.0</ele><time>2026-03-29T10:17:35Z</time></trkpt><trkpt lat="39.349077866595145" lon="9.342121574143682"><ele>558.0</ele><time>2026-03-29T10:17:36Z</time></trkpt><trkpt lat="39.34897693652667" lon="9.342137272474966"><ele>557.0</ele><time>2026-03-29T10:17:37Z</time></trkpt><trkpt lat="39.34887217604327" lon="9.34215118693268"><ele>554.5</ele><time>2026-03-29T10:17:38Z</time></trkpt><trkpt lat="39.34879014962802" lon="9.34215162177663"><ele>552.0</ele><time>2026-03-29T10:17:39Z</time></trkpt><trkpt lat="39.3487021909312" lon="9.3421300194501"><ele>549.5</ele><time>2026-03-29T10:17:41Z</time></trkpt><trkpt lat="39.3486942695575" lon="9.342032105597186"><ele>547.0</ele><time>2026-03-29T10:17:43Z</time></trkpt><trkpt lat="39.348736830990106" lon="9.34196988307171"><ele>544.5</ele><time>2026-03-29T10:17:44Z</time></trkpt><trkpt lat="39.34881306857093" lon="9.341937975732371"><ele>542.0</ele><time>2026-03-29T10:17:45Z</time></trkpt><trkpt lat="39.3488726374606" lon="9.341909972045897"><ele>542.0</ele><time>2026-03-29T10:17:46Z</time></trkpt><trkpt lat="39.34889803817344" lon="9.341804952157199"><ele>542.0</ele><time>2026-03-29T10:17:48Z</time></trkpt><trkpt lat="39.348844583318055" lon="9.341696493497816"><ele>542.0</ele><time>2026-03-29T10:17:50Z</time></trkpt><trkpt lat="39.348781797810446" lon="9.341667916664923"><ele>542.0</ele><time>2026-03-29T10:17:51Z</time></trkpt><trkpt lat="39.34870078663131" lon="9.341657074296599"><ele>542.0</ele><time>2026-03-29T10:17:52Z</time></trkpt><trkpt lat="39.348610610453036" lon="9.341637572576703"><ele>542.0</ele><time>2026-03-29T10:17:53Z</time></trkpt><trkpt lat="39.34850918985291" lon="9.341583710930722"><ele>542.0</ele><time>2026-03-29T10:17:54Z</time></trkpt><trkpt lat="39.348405298069075" lon="9.341526111659793"><ele>542.0</ele><time>2026-03-29T10:17:55Z</time></trkpt><trkpt lat="39.348320485554886" lon="9.341463711749059"><ele>542.0</ele><time>2026-03-29T10:17:56Z</time></trkpt><trkpt lat="39.348251721701935" lon="9.34142050667919"><ele>542.0</ele><time>2026-03-29T10:17:57Z</time></trkpt><trkpt lat="39.34819785113064" lon="9.341359690040656"><ele>542.0</ele><time>2026-03-29T10:17:58Z</time></trkpt><trkpt lat="39.348153513298115" lon="9.341267036689974"><ele>542.0</ele><time>2026-03-29T10:17:59Z</time></trkpt><trkpt lat="39.34812863494412" lon="9.34116017082568"><ele>543.4</ele><time>2026-03-29T10:18:00Z</time></trkpt><trkpt lat="39.34808784654435" lon="9.341051219276714"><ele>544.8000000000001</ele><time>2026-03-29T10:18:01Z</time></trkpt><trkpt lat="39.34801970498608" lon="9.34093953543745"><ele>546.2</ele><time>2026-03-29T10:18:02Z</time></trkpt><trkpt lat="39.347944270461866" lon="9.340844384318661"><ele>547.6</ele><time>2026-03-29T10:18:03Z</time></trkpt><trkpt lat="39.34786735834785" lon="9.340769750200089"><ele>549.0</ele><time>2026-03-29T10:18:04Z</time></trkpt><trkpt lat="39.3477807222206" lon="9.340730376894843"><ele>544.4</ele><time>2026-03-29T10:18:05Z</time></trkpt><trkpt lat="39.347683569746586" lon="9.340730692838711"><ele>539.8</ele><time>2026-03-29T10:18:06Z</time></trkpt><trkpt lat="39.347588577471676" lon="9.340724099412277"><ele>535.2</ele><time>2026-03-29T10:18:06.999Z</time></trkpt><trkpt lat="39.34749302869889" lon="9.3406883287619"><ele>530.6</ele><time>2026-03-29T10:18:07.999Z</time></trkpt><trkpt lat="39.34739764439862" lon="9.340637009318456"><ele>526.0</ele><time>2026-03-29T10:18:08.999Z</time></trkpt><trkpt lat="39.347309127170675" lon="9.340562451667411"><ele>526.1666666666667</ele><time>2026-03-29T10:18:09.999Z</time></trkpt><trkpt lat="39.347237001712095" lon="9.340474932182909"><ele>526.3333333333334</ele><time>2026-03-29T10:18:10.999Z</time></trkpt><trkpt lat="39.347196982866755" lon="9.340376688739944"><ele>526.5</ele><time>2026-03-29T10:18:11.999Z</time></trkpt><trkpt lat="39.34717596378352" lon="9.340272619716249"><ele>526.6666666666666</ele><time>2026-03-29T10:18:12.999Z</time></trkpt><trkpt lat="39.34715902596898" lon="9.34018491773738"><ele>526.8333333333333</ele><time>2026-03-29T10:18:13.999Z</time></trkpt><trkpt lat="39.347169126835254" lon="9.340081386777253"><ele>527.0</ele><time>2026-03-29T10:18:14.999Z</time></trkpt><trkpt lat="39.34720968000971" lon="9.339979367132678"><ele>527.0</ele><time>2026-03-29T10:18:15.999Z</time></trkpt><trkpt lat="39.347273171897235" lon="9.339871693495393"><ele>527.0</ele><time>2026-03-29T10:18:16.999Z</time></trkpt><trkpt lat="39.34734805856017" lon="9.339755987809074"><ele>527.0</ele><time>2026-03-29T10:18:17.999Z</time></trkpt><trkpt lat="39.3474202811913" lon="9.339652033223821"><ele>527.0</ele><time>2026-03-29T10:18:18.999Z</time></trkpt><trkpt lat="39.34748842555874" lon="9.339553908979148"><ele>527.0</ele><time>2026-03-29T10:18:19.999Z</time></trkpt><trkpt lat="39.34755874744932" lon="9.339474292217426"><ele>526.0</ele><time>2026-03-29T10:18:20.999Z</time></trkpt><trkpt lat="39.347626771206635" lon="9.33941822342431"><ele>525.0</ele><time>2026-03-29T10:18:21.999Z</time></trkpt><trkpt lat="39.34768103688126" lon="9.33932122697954"><ele>524.0</ele><time>2026-03-29T10:18:23.999Z</time></trkpt><trkpt lat="39.34758792045213" lon="9.33920769374433"><ele>523.0</ele><time>2026-03-29T10:18:25.999Z</time></trkpt><trkpt lat="39.347502292855616" lon="9.339184746413146"><ele>522.0</ele><time>2026-03-29T10:18:26.999Z</time></trkpt><trkpt lat="39.3474101865733" lon="9.339196741168385"><ele>522.0</ele><time>2026-03-29T10:18:27.999Z</time></trkpt><trkpt lat="39.34730267480563" lon="9.339223254083596"><ele>522.0</ele><time>2026-03-29T10:18:28.999Z</time></trkpt><trkpt lat="39.34719200550786" lon="9.339212119691407"><ele>522.0</ele><time>2026-03-29T10:18:29.999Z</time></trkpt><trkpt lat="39.347083914519274" lon="9.339201792598795"><ele>522.0</ele><time>2026-03-29T10:18:30.999Z</time></trkpt><trkpt lat="39.34697533499644" lon="9.339223932139912"><ele>522.0</ele><time>2026-03-29T10:18:31.999Z</time></trkpt><trkpt lat="39.34687621360458" lon="9.33924113871898"><ele>519.2</ele><time>2026-03-29T10:18:32.999Z</time></trkpt><trkpt lat="39.34680206657964" lon="9.33922495943406"><ele>516.4000000000001</ele><time>2026-03-29T10:18:33.999Z</time></trkpt><trkpt lat="39.34673175400915" lon="9.339193827952768"><ele>513.5999999999999</ele><time>2026-03-29T10:18:34.999Z</time></trkpt><trkpt lat="39.34664820914876" lon="9.339130811705875"><ele>510.79999999999995</ele><time>2026-03-29T10:18:35.999Z</time></trkpt><trkpt lat="39.346556117289" lon="9.339049236005984"><ele>508.0</ele><time>2026-03-29T10:18:36.999Z</time></trkpt><trkpt lat="39.34647593571526" lon="9.338982732158346"><ele>508.00000000000006</ele><time>2026-03-29T10:18:37.999Z</time></trkpt><trkpt lat="39.34639400484917" lon="9.33895166470939"><ele>508.0</ele><time>2026-03-29T10:18:38.999Z</time></trkpt><trkpt lat="39.346315330210025" lon="9.338942539960298"><ele>508.0</ele><time>2026-03-29T10:18:39.999Z</time></trkpt><trkpt lat="39.346249751716684" lon="9.338919377602595"><ele>508.0</ele><time>2026-03-29T10:18:40.999Z</time></trkpt><trkpt lat="39.34620398496335" lon="9.338854940139687"><ele>508.00000000000006</ele><time>2026-03-29T10:18:41.999Z</time></trkpt><trkpt lat="39.34617194747733" lon="9.338767231077991"><ele>508.0</ele><time>2026-03-29T10:18:42.999Z</time></trkpt><trkpt lat="39.346133420903044" lon="9.338665904009043"><ele>510.1666666666667</ele><time>2026-03-29T10:18:43.999Z</time></trkpt><trkpt lat="39.34608979851343" lon="9.338582636009408"><ele>512.3333333333334</ele><time>2026-03-29T10:18:44.999Z</time></trkpt><trkpt lat="39.346010608828585" lon="9.338539453740621"><ele>514.5</ele><time>2026-03-29T10:18:46.998Z</time></trkpt><trkpt lat="39.34593017387857" lon="9.338606544993524"><ele>516.6666666666666</ele><time>2026-03-29T10:18:48.998Z</time></trkpt><trkpt lat="39.345876978707636" lon="9.33866989283554"><ele>518.8333333333333</ele><time>2026-03-29T10:18:49.998Z</time></trkpt><trkpt lat="39.34580619208048" lon="9.338738347054743"><ele>521.0</ele><time>2026-03-29T10:18:50.998Z</time></trkpt><trkpt lat="39.345722836505416" lon="9.338787927087097"><ele>521.0</ele><time>2026-03-29T10:18:51.998Z</time></trkpt><trkpt lat="39.34564427782458" lon="9.33883170099384"><ele>521.0</ele><time>2026-03-29T10:18:52.998Z</time></trkpt><trkpt lat="39.34558805077494" lon="9.338872882678242"><ele>521.0</ele><time>2026-03-29T10:18:53.998Z</time></trkpt><trkpt lat="39.34555016973698" lon="9.338940717034271"><ele>521.0</ele><time>2026-03-29T10:18:54.998Z</time></trkpt><trkpt lat="39.34551095985335" lon="9.33901524956394"><ele>521.0</ele><time>2026-03-29T10:18:55.998Z</time></trkpt><trkpt lat="39.34543612408917" lon="9.339079931420391"><ele>521.0</ele><time>2026-03-29T10:18:56.998Z</time></trkpt><trkpt lat="39.345353192402" lon="9.339135452146785"><ele>519.0</ele><time>2026-03-29T10:18:57.998Z</time></trkpt><trkpt lat="39.34527193764135" lon="9.339195948214014"><ele>517.0</ele><time>2026-03-29T10:18:58.998Z</time></trkpt><trkpt lat="39.34520763064519" lon="9.339278370638402"><ele>515.0</ele><time>2026-03-29T10:18:59.998Z</time></trkpt><trkpt lat="39.34514479272674" lon="9.33937114548299"><ele>513.0</ele><time>2026-03-29T10:19:00.998Z</time></trkpt><trkpt lat="39.34506930485808" lon="9.339446519881934"><ele>511.0</ele><time>2026-03-29T10:19:01.998Z</time></trkpt><trkpt lat="39.3449797116124" lon="9.339498227649543"><ele>511.0</ele><time>2026-03-29T10:19:02.998Z</time></trkpt><trkpt lat="39.34487407985295" lon="9.339532397628105"><ele>511.0</ele><time>2026-03-29T10:19:03.998Z</time></trkpt><trkpt lat="39.34477199184723" lon="9.339556345253945"><ele>511.0</ele><time>2026-03-29T10:19:04.998Z</time></trkpt><trkpt lat="39.34467525970241" lon="9.339567613102266"><ele>511.0</ele><time>2026-03-29T10:19:05.998Z</time></trkpt><trkpt lat="39.344591380011366" lon="9.339563309935931"><ele>511.0</ele><time>2026-03-29T10:19:06.998Z</time></trkpt><trkpt lat="39.34451204183294" lon="9.33956009653347"><ele>511.20000000000005</ele><time>2026-03-29T10:19:07.998Z</time></trkpt><trkpt lat="39.34443169868526" lon="9.339575753764416"><ele>511.40000000000003</ele><time>2026-03-29T10:19:08.998Z</time></trkpt><trkpt lat="39.34434982659443" lon="9.339625987280701"><ele>511.6</ele><time>2026-03-29T10:19:09.998Z</time></trkpt><trkpt lat="39.34425230918882" lon="9.339665315706482"><ele>511.8</ele><time>2026-03-29T10:19:10.998Z</time></trkpt><trkpt lat="39.34415163091771" lon="9.339690035871433"><ele>512.0</ele><time>2026-03-29T10:19:11.998Z</time></trkpt><trkpt lat="39.34404871451793" lon="9.339708427743123"><ele>508.49999999999994</ele><time>2026-03-29T10:19:12.998Z</time></trkpt><trkpt lat="39.34395810579204" lon="9.339743141658344"><ele>505.0</ele><time>2026-03-29T10:19:13.998Z</time></trkpt><trkpt lat="39.3438774114386" lon="9.339778095628215"><ele>501.5</ele><time>2026-03-29T10:19:14.998Z</time></trkpt><trkpt lat="39.34379981071327" lon="9.339826092552254"><ele>498.0</ele><time>2026-03-29T10:19:15.998Z</time></trkpt><trkpt lat="39.34372787076788" lon="9.339871830720433"><ele>494.49999999999994</ele><time>2026-03-29T10:19:16.998Z</time></trkpt><trkpt lat="39.34364828689511" lon="9.339905337625382"><ele>491.0</ele><time>2026-03-29T10:19:17.998Z</time></trkpt><trkpt lat="39.343575543950145" lon="9.33990003620657"><ele>490.99999999999994</ele><time>2026-03-29T10:19:18.998Z</time></trkpt><trkpt lat="39.34347392077356" lon="9.33990656972452"><ele>491.0</ele><time>2026-03-29T10:19:20.998Z</time></trkpt><trkpt lat="39.34340568200722" lon="9.33988310697674"><ele>491.0</ele><time>2026-03-29T10:19:21.998Z</time></trkpt><trkpt lat="39.34332248303714" lon="9.339826974609668"><ele>491.0</ele><time>2026-03-29T10:19:22.998Z</time></trkpt><trkpt lat="39.34324940473881" lon="9.339766023140204"><ele>490.99999999999994</ele><time>2026-03-29T10:19:23.997Z</time></trkpt><trkpt lat="39.34317194662943" lon="9.339721884554198"><ele>491.0</ele><time>2026-03-29T10:19:24.997Z</time></trkpt><trkpt lat="39.343090759954364" lon="9.339701094335929"><ele>491.16666666666663</ele><time>2026-03-29T10:19:25.997Z</time></trkpt><trkpt lat="39.34301445429232" lon="9.33968410366248"><ele>491.3333333333333</ele><time>2026-03-29T10:19:26.997Z</time></trkpt><trkpt lat="39.34292303520978" lon="9.33964378496143"><ele>491.5</ele><time>2026-03-29T10:19:27.997Z</time></trkpt><trkpt lat="39.34283992278204" lon="9.339599084231759"><ele>491.66666666666663</ele><time>2026-03-29T10:19:28.997Z</time></trkpt><trkpt lat="39.34276893446824" lon="9.33955606477172"><ele>491.8333333333333</ele><time>2026-03-29T10:19:29.997Z</time></trkpt><trkpt lat="39.34270239064328" lon="9.339515741313962"><ele>492.0</ele><time>2026-03-29T10:19:30.997Z</time></trkpt><trkpt lat="39.34263761258933" lon="9.33950780253485"><ele>492.0</ele><time>2026-03-29T10:19:31.997Z</time></trkpt><trkpt lat="39.34256192316195" lon="9.339526810320764"><ele>492.0</ele><time>2026-03-29T10:19:32.997Z</time></trkpt><trkpt lat="39.342472395427244" lon="9.339565264952807"><ele>492.0</ele><time>2026-03-29T10:19:33.997Z</time></trkpt><trkpt lat="39.34237517393249" lon="9.33961646520886"><ele>492.0</ele><time>2026-03-29T10:19:34.997Z</time></trkpt><trkpt lat="39.34229993909366" lon="9.339663889600502"><ele>492.0</ele><time>2026-03-29T10:19:35.997Z</time></trkpt><trkpt lat="39.342227197218705" lon="9.339710045522041"><ele>492.0</ele><time>2026-03-29T10:19:36.997Z</time></trkpt><trkpt lat="39.34215556102621" lon="9.33975680333742"><ele>489.6</ele><time>2026-03-29T10:19:37.997Z</time></trkpt><trkpt lat="39.342092824820426" lon="9.339836590636496"><ele>487.20000000000005</ele><time>2026-03-29T10:19:38.997Z</time></trkpt><trkpt lat="39.342041464011395" lon="9.339943844508516"><ele>484.8</ele><time>2026-03-29T10:19:40Z</time></trkpt><trkpt lat="39.34197452327891" lon="9.340052443030414"><ele>482.4</ele><time>2026-03-29T10:19:41Z</time></trkpt><trkpt lat="39.34190517861457" lon="9.340132582642633"><ele>480.0</ele><time>2026-03-29T10:19:42Z</time></trkpt><trkpt lat="39.34182542204116" lon="9.34020261692929"><ele>480.0</ele><time>2026-03-29T10:19:43Z</time></trkpt><trkpt lat="39.34174675235441" lon="9.340272274154444"><ele>480.0</ele><time>2026-03-29T10:19:44Z</time></trkpt><trkpt lat="39.34167546248991" lon="9.34031128506692"><ele>480.0</ele><time>2026-03-29T10:19:45Z</time></trkpt><trkpt lat="39.34159523181851" lon="9.340347261447278"><ele>480.0</ele><time>2026-03-29T10:19:46Z</time></trkpt><trkpt lat="39.341525622513515" lon="9.340378527955743"><ele>480.0</ele><time>2026-03-29T10:19:47Z</time></trkpt><trkpt lat="39.34143287046346" lon="9.340463240718817"><ele>480.0</ele><time>2026-03-29T10:19:49Z</time></trkpt><trkpt lat="39.34132545763826" lon="9.340578348964193"><ele>476.6666666666667</ele><time>2026-03-29T10:19:51Z</time></trkpt><trkpt lat="39.341278332224796" lon="9.340646356039718"><ele>473.33333333333337</ele><time>2026-03-29T10:19:52Z</time></trkpt><trkpt lat="39.341186385574574" lon="9.340760705610656"><ele>470.0</ele><time>2026-03-29T10:19:54Z</time></trkpt><trkpt lat="39.341132703680906" lon="9.340829684622717"><ele>466.6666666666667</ele><time>2026-03-29T10:19:55Z</time></trkpt><trkpt lat="39.341090292843695" lon="9.340920115386364"><ele>463.33333333333337</ele><time>2026-03-29T10:19:56Z</time></trkpt><trkpt lat="39.34108148335046" lon="9.341017882861248"><ele>460.0</ele><time>2026-03-29T10:19:57Z</time></trkpt><trkpt lat="39.34108872462136" lon="9.341122889988068"><ele>460.00000000000006</ele><time>2026-03-29T10:19:58Z</time></trkpt><trkpt lat="39.341114920048106" lon="9.341225731317921"><ele>460.0</ele><time>2026-03-29T10:19:59Z</time></trkpt><trkpt lat="39.341153814556314" lon="9.341316885633566"><ele>460.0</ele><time>2026-03-29T10:20:00Z</time></trkpt><trkpt lat="39.341165696485255" lon="9.341428798168007"><ele>460.0</ele><time>2026-03-29T10:20:02Z</time></trkpt><trkpt lat="39.34110809375619" lon="9.341507600287345"><ele>460.00000000000006</ele><time>2026-03-29T10:20:04Z</time></trkpt><trkpt lat="39.341008948847936" lon="9.341565282256873"><ele>460.0</ele><time>2026-03-29T10:20:06Z</time></trkpt><trkpt lat="39.340889809379654" lon="9.341615639812007"><ele>457.2</ele><time>2026-03-29T10:20:08Z</time></trkpt><trkpt lat="39.34076856528107" lon="9.341655330935142"><ele>454.4</ele><time>2026-03-29T10:20:10Z</time></trkpt><trkpt lat="39.34067389671701" lon="9.34166833948678"><ele>451.6</ele><time>2026-03-29T10:20:11.999Z</time></trkpt><trkpt lat="39.34060024209777" lon="9.34165600471272"><ele>448.8</ele><time>2026-03-29T10:20:13.999Z</time></trkpt><trkpt lat="39.340526160132825" lon="9.341591793637376"><ele>446.0</ele><time>2026-03-29T10:20:15.999Z</time></trkpt><trkpt lat="39.3404539063577" lon="9.34149478263163"><ele>444.99999999999994</ele><time>2026-03-29T10:20:17.999Z</time></trkpt><trkpt lat="39.34042959891282" lon="9.341418157757422"><ele>444.0</ele><time>2026-03-29T10:20:18.999Z</time></trkpt><trkpt lat="39.340370762152084" lon="9.341277388743219"><ele>443.0</ele><time>2026-03-29T10:20:20.999Z</time></trkpt><trkpt lat="39.340334684578224" lon="9.341205280299913"><ele>442.0</ele><time>2026-03-29T10:20:21.999Z</time></trkpt><trkpt lat="39.340289227609084" lon="9.34114104607844"><ele>440.99999999999994</ele><time>2026-03-29T10:20:22.999Z</time></trkpt><trkpt lat="39.340188941061065" lon="9.34106873884908"><ele>440.0</ele><time>2026-03-29T10:20:24.999Z</time></trkpt><trkpt lat="39.3401030776296" lon="9.341084699380591"><ele>440.0</ele><time>2026-03-29T10:20:26.999Z</time></trkpt><trkpt lat="39.33998212187215" lon="9.341075947643741"><ele>440.0</ele><time>2026-03-29T10:20:28.999Z</time></trkpt><trkpt lat="39.33992079680352" lon="9.34105571823703"><ele>440.0</ele><time>2026-03-29T10:20:29.999Z</time></trkpt><trkpt lat="39.339802223181074" lon="9.341003085529685"><ele>440.0</ele><time>2026-03-29T10:20:31.999Z</time></trkpt><trkpt lat="39.33973621053279" lon="9.340984859011053"><ele>440.0</ele><time>2026-03-29T10:20:32.999Z</time></trkpt><trkpt lat="39.33966419148756" lon="9.340961152419052"><ele>442.25</ele><time>2026-03-29T10:20:34.999Z</time></trkpt><trkpt lat="39.3396442438557" lon="9.340878796785773"><ele>444.5</ele><time>2026-03-29T10:20:36.999Z</time></trkpt><trkpt lat="39.33955761632571" lon="9.340663928150406"><ele>446.75</ele><time>2026-03-29T10:20:39.999Z</time></trkpt><trkpt lat="39.33949635708821" lon="9.34054221076424"><ele>449.0</ele><time>2026-03-29T10:20:41.999Z</time></trkpt><trkpt lat="39.33940033403363" lon="9.340560188507476"><ele>444.3333333333333</ele><time>2026-03-29T10:20:44.999Z</time></trkpt><trkpt lat="39.33929185657903" lon="9.340643909646122"><ele>439.66666666666663</ele><time>2026-03-29T10:20:46.999Z</time></trkpt><trkpt lat="39.33921266941452" lon="9.34068972277878"><ele>435.0</ele><time>2026-03-29T10:20:47.999Z</time></trkpt><trkpt lat="39.33913245112523" lon="9.34073009774477"><ele>430.33333333333337</ele><time>2026-03-29T10:20:48.998Z</time></trkpt><trkpt lat="39.33906300424361" lon="9.340758784561213"><ele>425.6666666666667</ele><time>2026-03-29T10:20:49.998Z</time></trkpt><trkpt lat="39.33899689751175" lon="9.340768758704202"><ele>421.0</ele><time>2026-03-29T10:20:50.998Z</time></trkpt><trkpt lat="39.338924065390195" lon="9.340760873657114"><ele>418.00000000000006</ele><time>2026-03-29T10:20:51.998Z</time></trkpt><trkpt lat="39.33883684972848" lon="9.340711010533724"><ele>415.0</ele><time>2026-03-29T10:20:52.998Z</time></trkpt><trkpt lat="39.33875513958524" lon="9.340709027557953"><ele>412.0</ele><time>2026-03-29T10:20:53.998Z</time></trkpt><trkpt lat="39.33868239247132" lon="9.34071225081786"><ele>409.0</ele><time>2026-03-29T10:20:54.998Z</time></trkpt><trkpt lat="39.33862338137158" lon="9.340682734780508"><ele>406.00000000000006</ele><time>2026-03-29T10:20:55.998Z</time></trkpt><trkpt lat="39.33855916934016" lon="9.340644890440986"><ele>403.0</ele><time>2026-03-29T10:20:56.998Z</time></trkpt><trkpt lat="39.338490267107794" lon="9.340618048818829"><ele>403.00000000000006</ele><time>2026-03-29T10:20:57.998Z</time></trkpt><trkpt lat="39.338420370193376" lon="9.340579871009027"><ele>403.0</ele><time>2026-03-29T10:20:58.998Z</time></trkpt><trkpt lat="39.338355266342376" lon="9.340536932392745"><ele>403.0</ele><time>2026-03-29T10:20:59.998Z</time></trkpt><trkpt lat="39.33828665930769" lon="9.340498117096493"><ele>403.0</ele><time>2026-03-29T10:21:00.998Z</time></trkpt><trkpt lat="39.3382024769308" lon="9.3404342966527"><ele>403.00000000000006</ele><time>2026-03-29T10:21:02.998Z</time></trkpt><trkpt lat="39.33814374802079" lon="9.340362595911692"><ele>403.0</ele><time>2026-03-29T10:21:04.998Z</time></trkpt><trkpt lat="39.3381452010435" lon="9.340445964094998"><ele>403.00000000000006</ele><time>2026-03-29T10:21:09.998Z</time></trkpt><trkpt lat="39.33818655669848" lon="9.340513045159089"><ele>403.0</ele><time>2026-03-29T10:21:11.998Z</time></trkpt><trkpt lat="39.338233201861144" lon="9.340580177180225"><ele>403.0</ele><time>2026-03-29T10:21:14.998Z</time></trkpt><trkpt lat="39.338285930142206" lon="9.340635149292359"><ele>403.0</ele><time>2026-03-29T10:21:18.998Z</time></trkpt><trkpt lat="39.338347182811454" lon="9.34074216446425"><ele>403.00000000000006</ele><time>2026-03-29T10:21:20.998Z</time></trkpt><trkpt lat="39.33835297292482" lon="9.340846105247625"><ele>403.0</ele><time>2026-03-29T10:21:22.998Z</time></trkpt><trkpt lat="39.338291647729925" lon="9.340903205597828"><ele>403.00000000000006</ele><time>2026-03-29T10:21:24.998Z</time></trkpt><trkpt lat="39.33829472143929" lon="9.340989378497273"><ele>403.0</ele><time>2026-03-29T10:21:30.997Z</time></trkpt><trkpt lat="39.33831257915698" lon="9.341070883208909"><ele>403.0</ele><time>2026-03-29T10:22:15.999Z</time></trkpt><trkpt lat="39.33824643682433" lon="9.341032140323735"><ele>403.0</ele><time>2026-03-29T10:22:17.999Z</time></trkpt><trkpt lat="39.33813027436183" lon="9.341028151881874"><ele>403.00000000000006</ele><time>2026-03-29T10:22:19.999Z</time></trkpt><trkpt lat="39.33803583244877" lon="9.340964568434101"><ele>403.0</ele><time>2026-03-29T10:22:21.999Z</time></trkpt><trkpt lat="39.337966000061506" lon="9.340913335577724"><ele>401.50000000000006</ele><time>2026-03-29T10:22:22.999Z</time></trkpt><trkpt lat="39.33789857670264" lon="9.340834978324033"><ele>400.0</ele><time>2026-03-29T10:22:23.999Z</time></trkpt><trkpt lat="39.33784660366521" lon="9.340740568461655"><ele>398.5</ele><time>2026-03-29T10:22:24.999Z</time></trkpt><trkpt lat="39.33779854723896" lon="9.340685618707614"><ele>397.0</ele><time>2026-03-29T10:22:25.999Z</time></trkpt><trkpt lat="39.33770622647725" lon="9.340658274016565"><ele>395.50000000000006</ele><time>2026-03-29T10:22:27.999Z</time></trkpt><trkpt lat="39.33764973921359" lon="9.340580175526151"><ele>394.0</ele><time>2026-03-29T10:22:30.999Z</time></trkpt><trkpt lat="39.33758311764461" lon="9.340582446075159"><ele>394.00000000000006</ele><time>2026-03-29T10:22:33.999Z</time></trkpt><trkpt lat="39.33755559279983" lon="9.340664368444383"><ele>394.0</ele><time>2026-03-29T10:22:35.999Z</time></trkpt><trkpt lat="39.33745736864853" lon="9.34070639952821"><ele>394.0</ele><time>2026-03-29T10:22:39.999Z</time></trkpt><trkpt lat="39.337378416524125" lon="9.340683887226584"><ele>394.0</ele><time>2026-03-29T10:22:40.999Z</time></trkpt><trkpt lat="39.33729661745263" lon="9.340643386437039"><ele>394.00000000000006</ele><time>2026-03-29T10:22:41.999Z</time></trkpt><trkpt lat="39.33722157680379" lon="9.340583506998792"><ele>394.0</ele><time>2026-03-29T10:22:42.999Z</time></trkpt><trkpt lat="39.337157909510964" lon="9.340527691544137"><ele>392.83333333333337</ele><time>2026-03-29T10:22:43.999Z</time></trkpt><trkpt lat="39.337102533458" lon="9.34048048963053"><ele>391.6666666666667</ele><time>2026-03-29T10:22:44.999Z</time></trkpt><trkpt lat="39.33700405875698" lon="9.34049276226871"><ele>390.5</ele><time>2026-03-29T10:22:46.999Z</time></trkpt><trkpt lat="39.33692681724742" lon="9.34043705224314"><ele>389.33333333333337</ele><time>2026-03-29T10:22:48.999Z</time></trkpt><trkpt lat="39.336835339322924" lon="9.34033245732523"><ele>388.1666666666667</ele><time>2026-03-29T10:22:50.999Z</time></trkpt><trkpt lat="39.336780646722154" lon="9.340270773615394"><ele>387.0</ele><time>2026-03-29T10:22:51.999Z</time></trkpt><trkpt lat="39.33673170432056" lon="9.340211209488748"><ele>387.0</ele><time>2026-03-29T10:22:52.998Z</time></trkpt><trkpt lat="39.33668481211873" lon="9.340143127229252"><ele>387.0</ele><time>2026-03-29T10:22:53.998Z</time></trkpt><trkpt lat="39.33664730529465" lon="9.340071745216816"><ele>387.0</ele><time>2026-03-29T10:22:54.998Z</time></trkpt><trkpt lat="39.33659884847871" lon="9.339994022147266"><ele>387.0</ele><time>2026-03-29T10:22:57.998Z</time></trkpt><trkpt lat="39.336562472996754" lon="9.339898489684932"><ele>387.0</ele><time>2026-03-29T10:23:00.998Z</time></trkpt><trkpt lat="39.33652631269726" lon="9.339829472418224"><ele>387.0</ele><time>2026-03-29T10:23:01.998Z</time></trkpt><trkpt lat="39.336481345664595" lon="9.339750985945066"><ele>387.0</ele><time>2026-03-29T10:23:02.998Z</time></trkpt><trkpt lat="39.33642075356981" lon="9.339714916510843"><ele>386.5</ele><time>2026-03-29T10:23:03.998Z</time></trkpt><trkpt lat="39.33634541906879" lon="9.339687129105453"><ele>386.0</ele><time>2026-03-29T10:23:04.998Z</time></trkpt><trkpt lat="39.33626652133684" lon="9.33964445646168"><ele>385.5</ele><time>2026-03-29T10:23:05.998Z</time></trkpt><trkpt lat="39.336179480758595" lon="9.339599679087497"><ele>385.0</ele><time>2026-03-29T10:23:06.998Z</time></trkpt><trkpt lat="39.33609558447552" lon="9.339533665939936"><ele>384.5</ele><time>2026-03-29T10:23:07.998Z</time></trkpt><trkpt lat="39.336025574107225" lon="9.339468168262107"><ele>384.0</ele><time>2026-03-29T10:23:08.998Z</time></trkpt><trkpt lat="39.335966620676956" lon="9.339396249331767"><ele>384.0</ele><time>2026-03-29T10:23:09.998Z</time></trkpt><trkpt lat="39.335898380298275" lon="9.339342537737384"><ele>384.0</ele><time>2026-03-29T10:23:10.998Z</time></trkpt><trkpt lat="39.33580985469093" lon="9.339293883303133"><ele>384.0</ele><time>2026-03-29T10:23:11.998Z</time></trkpt><trkpt lat="39.33571509654884" lon="9.339241703654745"><ele>384.0</ele><time>2026-03-29T10:23:12.998Z</time></trkpt><trkpt lat="39.335620254223194" lon="9.3391630142885"><ele>384.0</ele><time>2026-03-29T10:23:13.998Z</time></trkpt><trkpt lat="39.33551651281252" lon="9.339074345941963"><ele>384.2</ele><time>2026-03-29T10:23:14.998Z</time></trkpt><trkpt lat="39.33540861779048" lon="9.338980492605456"><ele>384.4</ele><time>2026-03-29T10:23:15.998Z</time></trkpt><trkpt lat="39.33531663869926" lon="9.338894108932154"><ele>384.6</ele><time>2026-03-29T10:23:16.998Z</time></trkpt><trkpt lat="39.33524053218331" lon="9.338838539636395"><ele>384.8</ele><time>2026-03-29T10:23:17.998Z</time></trkpt><trkpt lat="39.33516735836101" lon="9.338796695628517"><ele>385.0</ele><time>2026-03-29T10:23:18.998Z</time></trkpt><trkpt lat="39.33507682885317" lon="9.338761188909514"><ele>383.6666666666667</ele><time>2026-03-29T10:23:19.998Z</time></trkpt><trkpt lat="39.334993719334264" lon="9.338731736577168"><ele>382.33333333333337</ele><time>2026-03-29T10:23:20.998Z</time></trkpt><trkpt lat="39.334917280851286" lon="9.33869794209297"><ele>381.0</ele><time>2026-03-29T10:23:21.998Z</time></trkpt><trkpt lat="39.33483975278187" lon="9.33865853958491"><ele>379.6666666666667</ele><time>2026-03-29T10:23:22.998Z</time></trkpt><trkpt lat="39.3347718287922" lon="9.338619194106403"><ele>378.33333333333337</ele><time>2026-03-29T10:23:23.998Z</time></trkpt><trkpt lat="39.334716668764386" lon="9.338574398390662"><ele>377.0</ele><time>2026-03-29T10:23:24.998Z</time></trkpt><trkpt lat="39.334621227363016" lon="9.338490332180475"><ele>376.1428571428571</ele><time>2026-03-29T10:23:26.998Z</time></trkpt><trkpt lat="39.33455408855679" lon="9.338455447330416"><ele>375.2857142857143</ele><time>2026-03-29T10:23:30.997Z</time></trkpt><trkpt lat="39.334503231124174" lon="9.33840506958896"><ele>374.42857142857144</ele><time>2026-03-29T10:23:33.997Z</time></trkpt><trkpt lat="39.33443999798465" lon="9.338348276987034"><ele>373.57142857142856</ele><time>2026-03-29T10:23:36.997Z</time></trkpt><trkpt lat="39.334364505018584" lon="9.338314390294151"><ele>372.7142857142857</ele><time>2026-03-29T10:23:38.997Z</time></trkpt><trkpt lat="39.3342947249307" lon="9.338318010241542"><ele>371.85714285714283</ele><time>2026-03-29T10:23:42.997Z</time></trkpt><trkpt lat="39.33423018532525" lon="9.338268886890798"><ele>371.0</ele><time>2026-03-29T10:23:46.997Z</time></trkpt><trkpt lat="39.334140364327354" lon="9.3381857259883"><ele>371.0</ele><time>2026-03-29T10:23:47.997Z</time></trkpt><trkpt lat="39.33408287702689" lon="9.33813373649561"><ele>371.0</ele><time>2026-03-29T10:23:48.997Z</time></trkpt><trkpt lat="39.33395328286111" lon="9.338064224329358"><ele>371.0</ele><time>2026-03-29T10:23:49.997Z</time></trkpt><trkpt lat="39.33383637694046" lon="9.338008901986196"><ele>371.0</ele><time>2026-03-29T10:23:50.997Z</time></trkpt><trkpt lat="39.333784924550095" lon="9.33795772815904"><ele>371.0</ele><time>2026-03-29T10:23:52Z</time></trkpt><trkpt lat="39.33373509891581" lon="9.337888992104421"><ele>372.6</ele><time>2026-03-29T10:23:53Z</time></trkpt><trkpt lat="39.33361085225842" lon="9.337840471725153"><ele>374.20000000000005</ele><time>2026-03-29T10:23:55Z</time></trkpt><trkpt lat="39.33350363816467" lon="9.337771553411205"><ele>375.79999999999995</ele><time>2026-03-29T10:23:56Z</time></trkpt><trkpt lat="39.33340472019665" lon="9.337705995213659"><ele>377.4</ele><time>2026-03-29T10:23:57Z</time></trkpt><trkpt lat="39.33333143769049" lon="9.337648079088329"><ele>379.0</ele><time>2026-03-29T10:23:58Z</time></trkpt><trkpt lat="39.333259321356685" lon="9.337628162892036"><ele>379.0</ele><time>2026-03-29T10:23:59Z</time></trkpt><trkpt lat="39.33321775202755" lon="9.3375392596477"><ele>379.0</ele><time>2026-03-29T10:24:02Z</time></trkpt><trkpt lat="39.33314170151945" lon="9.337496970745482"><ele>379.0</ele><time>2026-03-29T10:24:04Z</time></trkpt><trkpt lat="39.333053550349085" lon="9.337468024098884"><ele>379.0</ele><time>2026-03-29T10:24:05Z</time></trkpt><trkpt lat="39.33297733027995" lon="9.337429979738252"><ele>379.0</ele><time>2026-03-29T10:24:06Z</time></trkpt><trkpt lat="39.33288634048308" lon="9.3373350285694"><ele>377.2</ele><time>2026-03-29T10:24:07Z</time></trkpt><trkpt lat="39.33279984625396" lon="9.337260094362941"><ele>375.4</ele><time>2026-03-29T10:24:08Z</time></trkpt><trkpt lat="39.33270076944741" lon="9.33718635536332"><ele>373.6</ele><time>2026-03-29T10:24:09Z</time></trkpt><trkpt lat="39.332604715217144" lon="9.33710543278366"><ele>371.8</ele><time>2026-03-29T10:24:10Z</time></trkpt><trkpt lat="39.33252865476202" lon="9.33701673703019"><ele>370.0</ele><time>2026-03-29T10:24:11Z</time></trkpt><trkpt lat="39.33244725477591" lon="9.336945090413979"><ele>370.2</ele><time>2026-03-29T10:24:12Z</time></trkpt><trkpt lat="39.332363582422396" lon="9.33688070309206"><ele>370.4</ele><time>2026-03-29T10:24:13Z</time></trkpt><trkpt lat="39.33228797858281" lon="9.33680524133439"><ele>370.6</ele><time>2026-03-29T10:24:14Z</time></trkpt><trkpt lat="39.33221766417469" lon="9.336719867414537"><ele>370.8</ele><time>2026-03-29T10:24:15Z</time></trkpt><trkpt lat="39.33214111405951" lon="9.33662015162528"><ele>371.0</ele><time>2026-03-29T10:24:16Z</time></trkpt><trkpt lat="39.33208021595329" lon="9.33655830629271"><ele>371.0</ele><time>2026-03-29T10:24:17Z</time></trkpt><trkpt lat="39.33197492750102" lon="9.336495169056967"><ele>371.0</ele><time>2026-03-29T10:24:19Z</time></trkpt><trkpt lat="39.33190299645243" lon="9.336359290946241"><ele>371.0</ele><time>2026-03-29T10:24:21Z</time></trkpt><trkpt lat="39.331873545805806" lon="9.336283138377931"><ele>371.0</ele><time>2026-03-29T10:24:22Z</time></trkpt><trkpt lat="39.33183357498916" lon="9.336183267227552"><ele>371.0</ele><time>2026-03-29T10:24:23Z</time></trkpt><trkpt lat="39.331789423145146" lon="9.336118514262237"><ele>374.6666666666667</ele><time>2026-03-29T10:24:23.999Z</time></trkpt><trkpt lat="39.33170430561922" lon="9.336031251700442"><ele>378.33333333333337</ele><time>2026-03-29T10:24:25.999Z</time></trkpt><trkpt lat="39.331630078283496" lon="9.335931202392691"><ele>382.0</ele><time>2026-03-29T10:24:27.999Z</time></trkpt><trkpt lat="39.3316144295326" lon="9.33584922139141"><ele>385.6666666666667</ele><time>2026-03-29T10:24:28.999Z</time></trkpt><trkpt lat="39.3315909279754" lon="9.335772629771892"><ele>389.3333333333333</ele><time>2026-03-29T10:24:29.999Z</time></trkpt><trkpt lat="39.331537090434864" lon="9.335705807280158"><ele>393.0</ele><time>2026-03-29T10:24:30.999Z</time></trkpt><trkpt lat="39.331468820445764" lon="9.335634551088111"><ele>393.0</ele><time>2026-03-29T10:24:31.999Z</time></trkpt><trkpt lat="39.33140389660204" lon="9.335555214981996"><ele>393.0</ele><time>2026-03-29T10:24:32.999Z</time></trkpt><trkpt lat="39.331351701138786" lon="9.335453397816915"><ele>393.0</ele><time>2026-03-29T10:24:33.999Z</time></trkpt><trkpt lat="39.331296603142405" lon="9.335360932700484"><ele>393.0</ele><time>2026-03-29T10:24:34.999Z</time></trkpt><trkpt lat="39.33123138307721" lon="9.335300535503025"><ele>393.0</ele><time>2026-03-29T10:24:35.999Z</time></trkpt><trkpt lat="39.33114893089169" lon="9.33521602117619"><ele>393.8333333333333</ele><time>2026-03-29T10:24:37.999Z</time></trkpt><trkpt lat="39.33108223554477" lon="9.335193717464204"><ele>394.66666666666663</ele><time>2026-03-29T10:24:38.999Z</time></trkpt><trkpt lat="39.33100465736999" lon="9.335169429079256"><ele>395.5</ele><time>2026-03-29T10:24:39.999Z</time></trkpt><trkpt lat="39.33092748266127" lon="9.335124027820642"><ele>396.3333333333333</ele><time>2026-03-29T10:24:40.999Z</time></trkpt><trkpt lat="39.33084914594064" lon="9.335064804530706"><ele>397.16666666666663</ele><time>2026-03-29T10:24:41.999Z</time></trkpt><trkpt lat="39.33078353541049" lon="9.335035222545304"><ele>398.0</ele><time>2026-03-29T10:24:42.999Z</time></trkpt><trkpt lat="39.33071581369626" lon="9.334991861332588"><ele>397.99999999999994</ele><time>2026-03-29T10:24:43.999Z</time></trkpt><trkpt lat="39.33065414866692" lon="9.334924665352155"><ele>398.0</ele><time>2026-03-29T10:24:44.999Z</time></trkpt><trkpt lat="39.33060181133083" lon="9.334854195960688"><ele>398.0</ele><time>2026-03-29T10:24:45.999Z</time></trkpt><trkpt lat="39.3305457747568" lon="9.334801198905836"><ele>398.0</ele><time>2026-03-29T10:24:46.999Z</time></trkpt><trkpt lat="39.330485567047845" lon="9.334703536648863"><ele>397.99999999999994</ele><time>2026-03-29T10:24:48.999Z</time></trkpt><trkpt lat="39.33042580837229" lon="9.33462286609157"><ele>398.0</ele><time>2026-03-29T10:24:51.999Z</time></trkpt><trkpt lat="39.330329370639916" lon="9.33452818604366"><ele>396.49999999999994</ele><time>2026-03-29T10:24:53.999Z</time></trkpt><trkpt lat="39.33026410858052" lon="9.334468705963001"><ele>395.0</ele><time>2026-03-29T10:24:54.999Z</time></trkpt><trkpt lat="39.330222128499145" lon="9.334406555293368"><ele>393.5</ele><time>2026-03-29T10:24:55.999Z</time></trkpt><trkpt lat="39.33019306543397" lon="9.334258945449145"><ele>392.0</ele><time>2026-03-29T10:24:57.999Z</time></trkpt><trkpt lat="39.33018866391549" lon="9.334142455983512"><ele>390.49999999999994</ele><time>2026-03-29T10:24:58.999Z</time></trkpt><trkpt lat="39.33018567091896" lon="9.334051269260398"><ele>389.0</ele><time>2026-03-29T10:24:59.999Z</time></trkpt><trkpt lat="39.3301743725349" lon="9.333952840612051"><ele>390.99999999999994</ele><time>2026-03-29T10:25:00.999Z</time></trkpt><trkpt lat="39.33015573191031" lon="9.333852616119824"><ele>393.0</ele><time>2026-03-29T10:25:01.998Z</time></trkpt><trkpt lat="39.3301168038482" lon="9.33376665992519"><ele>395.0</ele><time>2026-03-29T10:25:02.998Z</time></trkpt><trkpt lat="39.33006252050838" lon="9.333684389992882"><ele>397.0</ele><time>2026-03-29T10:25:03.998Z</time></trkpt><trkpt lat="39.329990521355434" lon="9.33362845985794"><ele>398.99999999999994</ele><time>2026-03-29T10:25:04.998Z</time></trkpt><trkpt lat="39.32990975035849" lon="9.333605694313595"><ele>401.0</ele><time>2026-03-29T10:25:05.998Z</time></trkpt><trkpt lat="39.32981726030137" lon="9.333503109200606"><ele>400.99999999999994</ele><time>2026-03-29T10:25:07.998Z</time></trkpt><trkpt lat="39.329765413943925" lon="9.333419552257322"><ele>401.0</ele><time>2026-03-29T10:25:08.998Z</time></trkpt><trkpt lat="39.329716440783734" lon="9.333333319950011"><ele>401.0</ele><time>2026-03-29T10:25:09.998Z</time></trkpt><trkpt lat="39.32965817977375" lon="9.333250635811995"><ele>401.0</ele><time>2026-03-29T10:25:10.998Z</time></trkpt><trkpt lat="39.32961795979701" lon="9.33318078638394"><ele>400.99999999999994</ele><time>2026-03-29T10:25:11.998Z</time></trkpt><trkpt lat="39.32962334134155" lon="9.333030804830683"><ele>401.0</ele><time>2026-03-29T10:25:13.998Z</time></trkpt><trkpt lat="39.32963720014994" lon="9.332950422103242"><ele>400.66666666666663</ele><time>2026-03-29T10:25:14.998Z</time></trkpt><trkpt lat="39.329581037899324" lon="9.33284197723216"><ele>400.3333333333333</ele><time>2026-03-29T10:25:16.998Z</time></trkpt><trkpt lat="39.32953338872413" lon="9.332778455610155"><ele>400.0</ele><time>2026-03-29T10:25:17.998Z</time></trkpt><trkpt lat="39.32949793192305" lon="9.332683761368898"><ele>399.66666666666663</ele><time>2026-03-29T10:25:18.998Z</time></trkpt><trkpt lat="39.3294799495365" lon="9.33258491011322"><ele>399.3333333333333</ele><time>2026-03-29T10:25:19.998Z</time></trkpt><trkpt lat="39.329463934188844" lon="9.33249614486399"><ele>399.0</ele><time>2026-03-29T10:25:20.998Z</time></trkpt><trkpt lat="39.32943557571581" lon="9.33241763008979"><ele>399.0</ele><time>2026-03-29T10:25:21.998Z</time></trkpt><trkpt lat="39.329392060874774" lon="9.332348390854373"><ele>399.0</ele><time>2026-03-29T10:25:22.998Z</time></trkpt><trkpt lat="39.32934682843335" lon="9.332242470239748"><ele>399.0</ele><time>2026-03-29T10:25:24.998Z</time></trkpt><trkpt lat="39.32930141842146" lon="9.33212934021203"><ele>399.0</ele><time>2026-03-29T10:25:26.998Z</time></trkpt><trkpt lat="39.329257341364844" lon="9.332008411019451"><ele>399.0</ele><time>2026-03-29T10:25:28.998Z</time></trkpt><trkpt lat="39.32919918512745" lon="9.331919058576124"><ele>397.4</ele><time>2026-03-29T10:25:30.998Z</time></trkpt><trkpt lat="39.32913385613063" lon="9.331788079564923"><ele>395.79999999999995</ele><time>2026-03-29T10:25:32.998Z</time></trkpt><trkpt lat="39.32906959947634" lon="9.33165683461586"><ele>394.20000000000005</ele><time>2026-03-29T10:25:34.998Z</time></trkpt><trkpt lat="39.32901435887431" lon="9.331555995211682"><ele>392.6</ele><time>2026-03-29T10:25:36.998Z</time></trkpt><trkpt lat="39.328938771607184" lon="9.331520208852623"><ele>391.0</ele><time>2026-03-29T10:25:38.998Z</time></trkpt><trkpt lat="39.32887798094232" lon="9.331435609357719"><ele>390.0</ele><time>2026-03-29T10:25:42.997Z</time></trkpt><trkpt lat="39.32882979651247" lon="9.331350885893965"><ele>389.0</ele><time>2026-03-29T10:25:45.997Z</time></trkpt><trkpt lat="39.328764154566116" lon="9.33117610649507"><ele>388.0</ele><time>2026-03-29T10:25:47.997Z</time></trkpt><trkpt lat="39.32867864584733" lon="9.331054399918305"><ele>387.0</ele><time>2026-03-29T10:25:49.997Z</time></trkpt><trkpt lat="39.32862921434936" lon="9.330925517900564"><ele>387.0</ele><time>2026-03-29T10:25:51.997Z</time></trkpt><trkpt lat="39.32858253934167" lon="9.33077382866437"><ele>387.0</ele><time>2026-03-29T10:25:53.997Z</time></trkpt><trkpt lat="39.328512422274414" lon="9.330701429299912"><ele>387.0</ele><time>2026-03-29T10:25:54.997Z</time></trkpt><trkpt lat="39.328477367771384" lon="9.330604604424686"><ele>387.0</ele><time>2026-03-29T10:25:55.997Z</time></trkpt><trkpt lat="39.32843825222486" lon="9.330526742637499"><ele>387.0</ele><time>2026-03-29T10:25:56.997Z</time></trkpt><trkpt lat="39.32841185212317" lon="9.330444530145913"><ele>387.0</ele><time>2026-03-29T10:25:58Z</time></trkpt><trkpt lat="39.328413489442234" lon="9.330305072089217"><ele>386.8333333333333</ele><time>2026-03-29T10:26:00Z</time></trkpt><trkpt lat="39.32844598934296" lon="9.330205498754369"><ele>386.66666666666663</ele><time>2026-03-29T10:26:02Z</time></trkpt><trkpt lat="39.328471413766124" lon="9.330121738603532"><ele>386.5</ele><time>2026-03-29T10:26:04Z</time></trkpt><trkpt lat="39.32842588479472" lon="9.330185606949264"><ele>386.3333333333333</ele><time>2026-03-29T10:26:25Z</time></trkpt><trkpt lat="39.32848724991046" lon="9.330124233525382"><ele>386.16666666666663</ele><time>2026-03-29T10:34:48.999Z</time></trkpt><trkpt lat="39.32860487542291" lon="9.33010656780102"><ele>386.0</ele><time>2026-03-29T10:34:50.999Z</time></trkpt><trkpt lat="39.32868508681723" lon="9.330105618496605"><ele>386.00000000000006</ele><time>2026-03-29T10:34:51.999Z</time></trkpt><trkpt lat="39.32875676134671" lon="9.330121259111351"><ele>386.0</ele><time>2026-03-29T10:34:52.999Z</time></trkpt><trkpt lat="39.328862231487406" lon="9.330121753918185"><ele>386.0</ele><time>2026-03-29T10:34:54.999Z</time></trkpt><trkpt lat="39.32892532794344" lon="9.330101876206346"><ele>386.0</ele><time>2026-03-29T10:34:55.999Z</time></trkpt><trkpt lat="39.32898634173237" lon="9.330067612340617"><ele>386.0</ele><time>2026-03-29T10:34:56.999Z</time></trkpt><trkpt lat="39.32904630153923" lon="9.330040168833985"><ele>386.00000000000006</ele><time>2026-03-29T10:34:57.999Z</time></trkpt><trkpt lat="39.32910933346254" lon="9.330027279690526"><ele>386.0</ele><time>2026-03-29T10:34:58.999Z</time></trkpt><trkpt lat="39.32922536597622" lon="9.33003827184338"><ele>389.0</ele><time>2026-03-29T10:35:00.999Z</time></trkpt><trkpt lat="39.32933601170083" lon="9.330028076199103"><ele>392.0</ele><time>2026-03-29T10:35:02.999Z</time></trkpt><trkpt lat="39.32939277934944" lon="9.329991808024891"><ele>395.0</ele><time>2026-03-29T10:36:24.997Z</time></trkpt><trkpt lat="39.329470273964276" lon="9.32993589658909"><ele>398.0</ele><time>2026-03-29T10:36:27Z</time></trkpt><trkpt lat="39.32954024519399" lon="9.32984736361142"><ele>401.0</ele><time>2026-03-29T10:36:30Z</time></trkpt><trkpt lat="39.32964087457565" lon="9.329787743754832"><ele>403.49999999999994</ele><time>2026-03-29T10:36:32Z</time></trkpt><trkpt lat="39.329735824128996" lon="9.329753412105726"><ele>406.0</ele><time>2026-03-29T10:36:34Z</time></trkpt><trkpt lat="39.3298027342324" lon="9.329708685169422"><ele>408.5</ele><time>2026-03-29T10:36:37Z</time></trkpt><trkpt lat="39.32986638273249" lon="9.329662260448934"><ele>411.0</ele><time>2026-03-29T10:36:40Z</time></trkpt><trkpt lat="39.329957128596995" lon="9.329682794212612"><ele>413.49999999999994</ele><time>2026-03-29T10:36:42Z</time></trkpt><trkpt lat="39.33003578434755" lon="9.329663346233637"><ele>416.0</ele><time>2026-03-29T10:36:45Z</time></trkpt><trkpt lat="39.33008447506783" lon="9.329600121149484"><ele>416.49999999999994</ele><time>2026-03-29T10:36:48Z</time></trkpt><trkpt lat="39.33014005160433" lon="9.32948845946322"><ele>417.0</ele><time>2026-03-29T10:37:08.999Z</time></trkpt><trkpt lat="39.33019156262722" lon="9.3294275429186"><ele>417.5</ele><time>2026-03-29T10:37:10.999Z</time></trkpt><trkpt lat="39.33028460173727" lon="9.329407064444977"><ele>418.0</ele><time>2026-03-29T10:37:12.999Z</time></trkpt><trkpt lat="39.33034172493154" lon="9.329365832881697"><ele>418.49999999999994</ele><time>2026-03-29T10:37:13.999Z</time></trkpt><trkpt lat="39.33040467149624" lon="9.32932789476738"><ele>419.0</ele><time>2026-03-29T10:37:14.999Z</time></trkpt><trkpt lat="39.33048658886069" lon="9.32931505822747"><ele>421.66666666666663</ele><time>2026-03-29T10:37:16.999Z</time></trkpt><trkpt lat="39.330583761169464" lon="9.329322193716395"><ele>424.3333333333333</ele><time>2026-03-29T10:37:18.999Z</time></trkpt><trkpt lat="39.330655082018694" lon="9.329274828521918"><ele>427.0</ele><time>2026-03-29T10:37:19.999Z</time></trkpt><trkpt lat="39.3307192719664" lon="9.32920526645654"><ele>429.66666666666663</ele><time>2026-03-29T10:37:20.999Z</time></trkpt><trkpt lat="39.330790336159446" lon="9.329139249737283"><ele>432.3333333333333</ele><time>2026-03-29T10:37:21.999Z</time></trkpt><trkpt lat="39.330853727361486" lon="9.329068803943457"><ele>435.0</ele><time>2026-03-29T10:37:22.999Z</time></trkpt><trkpt lat="39.330904954170265" lon="9.328973357743214"><ele>435.6</ele><time>2026-03-29T10:37:24.999Z</time></trkpt><trkpt lat="39.330909115090634" lon="9.32883794106615"><ele>436.2</ele><time>2026-03-29T10:37:26.999Z</time></trkpt><trkpt lat="39.33096376827246" lon="9.328751139151397"><ele>436.79999999999995</ele><time>2026-03-29T10:37:28.999Z</time></trkpt><trkpt lat="39.331069713457254" lon="9.328688958686966"><ele>437.4</ele><time>2026-03-29T10:37:30.999Z</time></trkpt><trkpt lat="39.331161072618244" lon="9.328608122872124"><ele>438.0</ele><time>2026-03-29T10:37:32.999Z</time></trkpt><trkpt lat="39.331217526390915" lon="9.328571110483134"><ele>438.0</ele><time>2026-03-29T10:37:34.999Z</time></trkpt><trkpt lat="39.331278669801144" lon="9.328493732522427"><ele>437.99999999999994</ele><time>2026-03-29T10:37:36.998Z</time></trkpt><trkpt lat="39.331336768144446" lon="9.328387043878129"><ele>437.99999999999994</ele><time>2026-03-29T10:37:38.998Z</time></trkpt><trkpt lat="39.33140929190818" lon="9.328303798861613"><ele>438.0</ele><time>2026-03-29T10:37:40.998Z</time></trkpt><trkpt lat="39.33148409881966" lon="9.328228467959285"><ele>438.0</ele><time>2026-03-29T10:37:41.998Z</time></trkpt><trkpt lat="39.33157480458995" lon="9.32814817664004"><ele>442.79999999999995</ele><time>2026-03-29T10:37:43.998Z</time></trkpt><trkpt lat="39.33166670546719" lon="9.328053770447722"><ele>447.59999999999997</ele><time>2026-03-29T10:37:45.998Z</time></trkpt><trkpt lat="39.331760598823855" lon="9.327958223841074"><ele>452.40000000000003</ele><time>2026-03-29T10:37:47.998Z</time></trkpt><trkpt lat="39.33183620167353" lon="9.327852469529917"><ele>457.20000000000005</ele><time>2026-03-29T10:37:49.998Z</time></trkpt><trkpt lat="39.33188241354198" lon="9.327784887277328"><ele>462.0</ele><time>2026-03-29T10:37:50.998Z</time></trkpt><trkpt lat="39.33192680965937" lon="9.327723424803969"><ele>462.0</ele><time>2026-03-29T10:37:51.998Z</time></trkpt><trkpt lat="39.3319743156994" lon="9.327650680243499"><ele>462.0</ele><time>2026-03-29T10:37:52.998Z</time></trkpt><trkpt lat="39.332033772327996" lon="9.327579839001169"><ele>462.0</ele><time>2026-03-29T10:37:53.998Z</time></trkpt><trkpt lat="39.33209701629736" lon="9.32752612785181"><ele>462.0</ele><time>2026-03-29T10:37:54.998Z</time></trkpt><trkpt lat="39.33220648509668" lon="9.32746433187361"><ele>462.0</ele><time>2026-03-29T10:37:56.998Z</time></trkpt><trkpt lat="39.33227736532017" lon="9.327473161491708"><ele>462.0</ele><time>2026-03-29T10:37:57.998Z</time></trkpt><trkpt lat="39.332349586913836" lon="9.327488918897558"><ele>464.5</ele><time>2026-03-29T10:37:58.998Z</time></trkpt><trkpt lat="39.3324226359544" lon="9.327497999133454"><ele>467.0</ele><time>2026-03-29T10:37:59.998Z</time></trkpt><trkpt lat="39.3324889819523" lon="9.327507787879803"><ele>469.5</ele><time>2026-03-29T10:38:00.998Z</time></trkpt><trkpt lat="39.332552465739056" lon="9.327497257008275"><ele>472.0</ele><time>2026-03-29T10:38:01.998Z</time></trkpt><trkpt lat="39.33261894574448" lon="9.327472386832143"><ele>474.5</ele><time>2026-03-29T10:38:02.998Z</time></trkpt><trkpt lat="39.33268792364816" lon="9.327469298147529"><ele>477.0</ele><time>2026-03-29T10:38:03.998Z</time></trkpt><trkpt lat="39.332800900140306" lon="9.327523792971876"><ele>477.0</ele><time>2026-03-29T10:38:05.998Z</time></trkpt><trkpt lat="39.332880677814714" lon="9.327553543870692"><ele>477.00000000000006</ele><time>2026-03-29T10:38:06.998Z</time></trkpt><trkpt lat="39.33295994268979" lon="9.327589425426341"><ele>477.00000000000006</ele><time>2026-03-29T10:38:07.998Z</time></trkpt><trkpt lat="39.33304417474432" lon="9.32760209948601"><ele>477.0</ele><time>2026-03-29T10:38:08.998Z</time></trkpt><trkpt lat="39.33314526675524" lon="9.327607536924173"><ele>477.0</ele><time>2026-03-29T10:38:09.998Z</time></trkpt><trkpt lat="39.33324773443483" lon="9.327610607258443"><ele>479.1666666666667</ele><time>2026-03-29T10:38:10.998Z</time></trkpt><trkpt lat="39.33332753803294" lon="9.327634636957862"><ele>481.33333333333337</ele><time>2026-03-29T10:38:11.998Z</time></trkpt><trkpt lat="39.333388662051895" lon="9.32765811194641"><ele>483.5</ele><time>2026-03-29T10:38:12.998Z</time></trkpt><trkpt lat="39.33345549936686" lon="9.327654673962085"><ele>485.6666666666667</ele><time>2026-03-29T10:38:13.998Z</time></trkpt><trkpt lat="39.33352196894805" lon="9.327670732817158"><ele>487.83333333333337</ele><time>2026-03-29T10:38:14.997Z</time></trkpt><trkpt lat="39.333649522012166" lon="9.32769303937817"><ele>490.0</ele><time>2026-03-29T10:38:16.997Z</time></trkpt><trkpt lat="39.33373989601218" lon="9.327678274172273"><ele>490.0</ele><time>2026-03-29T10:38:17.997Z</time></trkpt><trkpt lat="39.33382802496482" lon="9.327661739310114"><ele>490.0</ele><time>2026-03-29T10:38:18.997Z</time></trkpt><trkpt lat="39.33391038252739" lon="9.32764723412851"><ele>490.0</ele><time>2026-03-29T10:38:19.997Z</time></trkpt><trkpt lat="39.33397564552046" lon="9.327637409939312"><ele>490.0</ele><time>2026-03-29T10:38:20.997Z</time></trkpt><trkpt lat="39.334044932340355" lon="9.327624657946085"><ele>490.0</ele><time>2026-03-29T10:38:22.997Z</time></trkpt><trkpt lat="39.33404190608669" lon="9.327534713473648"><ele>490.0</ele><time>2026-03-29T10:38:25.997Z</time></trkpt><trkpt lat="39.33399268008322" lon="9.327471576800676"><ele>490.0</ele><time>2026-03-29T10:38:26.997Z</time></trkpt><trkpt lat="39.333923814859844" lon="9.327411588652096"><ele>490.0</ele><time>2026-03-29T10:38:27.997Z</time></trkpt><trkpt lat="39.333870545904" lon="9.327332023760833"><ele>490.0</ele><time>2026-03-29T10:38:28.997Z</time></trkpt><trkpt lat="39.33380197238876" lon="9.327259282534769"><ele>490.0</ele><time>2026-03-29T10:38:29.997Z</time></trkpt><trkpt lat="39.33373321376995" lon="9.327145268254279"><ele>490.0</ele><time>2026-03-29T10:38:30.997Z</time></trkpt><trkpt lat="39.333657244180706" lon="9.327033548702094"><ele>490.0</ele><time>2026-03-29T10:38:31.997Z</time></trkpt><trkpt lat="39.33358697962091" lon="9.326942324703056"><ele>491.50000000000006</ele><time>2026-03-29T10:38:33Z</time></trkpt><trkpt lat="39.33354788804726" lon="9.326872829123115"><ele>493.0</ele><time>2026-03-29T10:38:34Z</time></trkpt><trkpt lat="39.33358879846867" lon="9.326764385016855"><ele>494.5</ele><time>2026-03-29T10:38:36Z</time></trkpt><trkpt lat="39.33362550074505" lon="9.326692097604274"><ele>496.0</ele><time>2026-03-29T10:38:37Z</time></trkpt><trkpt lat="39.333643776795086" lon="9.326596641513202"><ele>497.50000000000006</ele><time>2026-03-29T10:38:38Z</time></trkpt><trkpt lat="39.333678402035964" lon="9.326494489953804"><ele>499.0</ele><time>2026-03-29T10:38:39Z</time></trkpt><trkpt lat="39.333702338369235" lon="9.326370564425616"><ele>500.1666666666667</ele><time>2026-03-29T10:38:40Z</time></trkpt><trkpt lat="39.333723419382565" lon="9.326283686519574"><ele>501.33333333333337</ele><time>2026-03-29T10:38:41Z</time></trkpt><trkpt lat="39.333753916759285" lon="9.326208856501543"><ele>502.5</ele><time>2026-03-29T10:38:43Z</time></trkpt><trkpt lat="39.33376853783958" lon="9.326103849688577"><ele>503.66666666666663</ele><time>2026-03-29T10:39:04Z</time></trkpt><trkpt lat="39.33381435616614" lon="9.325976038756963"><ele>504.8333333333333</ele><time>2026-03-29T10:39:05.999Z</time></trkpt><trkpt lat="39.333852548328814" lon="9.32587002325012"><ele>506.0</ele><time>2026-03-29T10:39:06.999Z</time></trkpt><trkpt lat="39.333887087646175" lon="9.325734879625951"><ele>504.6</ele><time>2026-03-29T10:39:07.999Z</time></trkpt><trkpt lat="39.333930794027886" lon="9.325585454765257"><ele>503.20000000000005</ele><time>2026-03-29T10:39:08.999Z</time></trkpt><trkpt lat="39.333973799164845" lon="9.32545639276579"><ele>501.79999999999995</ele><time>2026-03-29T10:39:09.999Z</time></trkpt><trkpt lat="39.33401453481177" lon="9.325341864252183"><ele>500.4</ele><time>2026-03-29T10:39:10.999Z</time></trkpt><trkpt lat="39.3340324658444" lon="9.325231160254676"><ele>499.0</ele><time>2026-03-29T10:39:11.999Z</time></trkpt><trkpt lat="39.33405188426147" lon="9.325127393900738"><ele>496.4</ele><time>2026-03-29T10:39:12.999Z</time></trkpt><trkpt lat="39.33405148966283" lon="9.325019373210578"><ele>493.79999999999995</ele><time>2026-03-29T10:39:13.999Z</time></trkpt><trkpt lat="39.334022273479874" lon="9.324917163356922"><ele>491.20000000000005</ele><time>2026-03-29T10:39:14.999Z</time></trkpt><trkpt lat="39.33398506566199" lon="9.324795450185484"><ele>488.6</ele><time>2026-03-29T10:39:15.999Z</time></trkpt><trkpt lat="39.33395119745194" lon="9.3246608860061"><ele>486.0</ele><time>2026-03-29T10:39:16.999Z</time></trkpt><trkpt lat="39.333928721837474" lon="9.32453443415543"><ele>484.5</ele><time>2026-03-29T10:39:17.999Z</time></trkpt><trkpt lat="39.33392266380164" lon="9.324422729534184"><ele>483.0</ele><time>2026-03-29T10:39:18.999Z</time></trkpt><trkpt lat="39.33394535228803" lon="9.324339196707735"><ele>481.5</ele><time>2026-03-29T10:39:19.999Z</time></trkpt><trkpt lat="39.33397655573302" lon="9.32423358211889"><ele>480.0</ele><time>2026-03-29T10:39:20.999Z</time></trkpt><trkpt lat="39.334049264858" lon="9.32414481988346"><ele>478.5</ele><time>2026-03-29T10:39:21.999Z</time></trkpt><trkpt lat="39.33410210791019" lon="9.32404960338357"><ele>477.0</ele><time>2026-03-29T10:39:22.999Z</time></trkpt><trkpt lat="39.33415930810191" lon="9.323952803185207"><ele>475.5</ele><time>2026-03-29T10:39:23.999Z</time></trkpt><trkpt lat="39.33420270454567" lon="9.32386828128398"><ele>474.0</ele><time>2026-03-29T10:39:24.999Z</time></trkpt><trkpt lat="39.334233126545925" lon="9.323784730970413"><ele>472.5</ele><time>2026-03-29T10:39:25.999Z</time></trkpt><trkpt lat="39.33424494120247" lon="9.323700926005268"><ele>471.0</ele><time>2026-03-29T10:39:26.999Z</time></trkpt><trkpt lat="39.33423794594935" lon="9.323607015651994"><ele>469.5</ele><time>2026-03-29T10:39:27.999Z</time></trkpt><trkpt lat="39.33421913644101" lon="9.323489675417136"><ele>468.0</ele><time>2026-03-29T10:39:28.999Z</time></trkpt><trkpt lat="39.334188098918474" lon="9.323369792844383"><ele>468.0</ele><time>2026-03-29T10:39:29.999Z</time></trkpt><trkpt lat="39.33415673688708" lon="9.323268373648535"><ele>468.0</ele><time>2026-03-29T10:39:30.999Z</time></trkpt><trkpt lat="39.33412110630488" lon="9.323172074930524"><ele>468.0</ele><time>2026-03-29T10:39:31.999Z</time></trkpt><trkpt lat="39.334075675932816" lon="9.323088363910673"><ele>468.0</ele><time>2026-03-29T10:39:32.999Z</time></trkpt><trkpt lat="39.33402101908152" lon="9.32303554151319"><ele>468.0</ele><time>2026-03-29T10:39:33.999Z</time></trkpt><trkpt lat="39.33394545946201" lon="9.323033729904191"><ele>468.0</ele><time>2026-03-29T10:39:34.999Z</time></trkpt><trkpt lat="39.33383085314801" lon="9.32301577841676"><ele>464.1666666666667</ele><time>2026-03-29T10:39:36.999Z</time></trkpt><trkpt lat="39.333759821590775" lon="9.323014258779288"><ele>460.33333333333337</ele><time>2026-03-29T10:39:37.999Z</time></trkpt><trkpt lat="39.33367488205335" lon="9.323013643615353"><ele>456.5</ele><time>2026-03-29T10:39:38.999Z</time></trkpt><trkpt lat="39.33357623932341" lon="9.323009854097615"><ele>452.6666666666667</ele><time>2026-03-29T10:39:39.999Z</time></trkpt><trkpt lat="39.333485494997795" lon="9.323004360648605"><ele>448.83333333333337</ele><time>2026-03-29T10:39:40.999Z</time></trkpt><trkpt lat="39.33342219273029" lon="9.32298537252352"><ele>445.0</ele><time>2026-03-29T10:39:41.999Z</time></trkpt><trkpt lat="39.33335077633657" lon="9.322901573918134"><ele>445.0</ele><time>2026-03-29T10:39:43.998Z</time></trkpt><trkpt lat="39.333303476151656" lon="9.32281926718209"><ele>445.0</ele><time>2026-03-29T10:39:44.998Z</time></trkpt><trkpt lat="39.333218082024096" lon="9.322744858628859"><ele>445.0</ele><time>2026-03-29T10:39:45.998Z</time></trkpt><trkpt lat="39.3331400758817" lon="9.322676005164796"><ele>445.0</ele><time>2026-03-29T10:39:46.998Z</time></trkpt><trkpt lat="39.33306621484087" lon="9.322611940840126"><ele>445.0</ele><time>2026-03-29T10:39:47.998Z</time></trkpt><trkpt lat="39.33297981190633" lon="9.322536998441965"><ele>447.6</ele><time>2026-03-29T10:39:48.998Z</time></trkpt><trkpt lat="39.332892267875565" lon="9.322461066080901"><ele>450.2</ele><time>2026-03-29T10:39:49.998Z</time></trkpt><trkpt lat="39.33279629859972" lon="9.322377825928747"><ele>452.79999999999995</ele><time>2026-03-29T10:39:50.998Z</time></trkpt><trkpt lat="39.33271616062564" lon="9.32230289283784"><ele>455.4</ele><time>2026-03-29T10:39:51.998Z</time></trkpt><trkpt lat="39.33264820837838" lon="9.32223296648729"><ele>458.0</ele><time>2026-03-29T10:39:52.998Z</time></trkpt><trkpt lat="39.33258799157398" lon="9.322175315128174"><ele>455.8333333333333</ele><time>2026-03-29T10:39:53.998Z</time></trkpt><trkpt lat="39.33251911675465" lon="9.32212383360161"><ele>453.66666666666663</ele><time>2026-03-29T10:39:54.998Z</time></trkpt><trkpt lat="39.33244990118816" lon="9.322088867355186"><ele>451.5</ele><time>2026-03-29T10:39:55.998Z</time></trkpt><trkpt lat="39.332382065573995" lon="9.322046294477202"><ele>449.33333333333337</ele><time>2026-03-29T10:39:56.998Z</time></trkpt><trkpt lat="39.33232739605789" lon="9.321984027176732"><ele>447.1666666666667</ele><time>2026-03-29T10:39:57.998Z</time></trkpt><trkpt lat="39.332254684383614" lon="9.321919361124785"><ele>445.0</ele><time>2026-03-29T10:39:58.998Z</time></trkpt><trkpt lat="39.332168789388795" lon="9.321868236334014"><ele>445.0</ele><time>2026-03-29T10:39:59.998Z</time></trkpt><trkpt lat="39.33207507980615" lon="9.321846538548051"><ele>445.0</ele><time>2026-03-29T10:40:00.998Z</time></trkpt><trkpt lat="39.33201409994803" lon="9.321797364202094"><ele>445.0</ele><time>2026-03-29T10:40:01.998Z</time></trkpt><trkpt lat="39.331949620917804" lon="9.32176539054843"><ele>445.0</ele><time>2026-03-29T10:40:02.998Z</time></trkpt><trkpt lat="39.33188882380378" lon="9.32173519230256"><ele>445.0</ele><time>2026-03-29T10:40:03.998Z</time></trkpt><trkpt lat="39.33182533975875" lon="9.321701474968926"><ele>445.0</ele><time>2026-03-29T10:40:04.998Z</time></trkpt><trkpt lat="39.33176371281178" lon="9.32166126940009"><ele>445.0</ele><time>2026-03-29T10:40:05.998Z</time></trkpt><trkpt lat="39.33171084555515" lon="9.321606305263273"><ele>445.00000000000006</ele><time>2026-03-29T10:40:06.998Z</time></trkpt><trkpt lat="39.33166220385187" lon="9.321534040180724"><ele>445.0</ele><time>2026-03-29T10:40:07.998Z</time></trkpt><trkpt lat="39.331624619748915" lon="9.32145918869818"><ele>445.0</ele><time>2026-03-29T10:40:08.998Z</time></trkpt><trkpt lat="39.33161520211919" lon="9.321299314144381"><ele>445.0</ele><time>2026-03-29T10:40:10.998Z</time></trkpt><trkpt lat="39.331628390757814" lon="9.321214636482658"><ele>445.00000000000006</ele><time>2026-03-29T10:40:11.998Z</time></trkpt><trkpt lat="39.331633413504406" lon="9.321099337669626"><ele>445.0</ele><time>2026-03-29T10:40:12.998Z</time></trkpt><trkpt lat="39.33165702320168" lon="9.320984914790154"><ele>442.8</ele><time>2026-03-29T10:40:13.998Z</time></trkpt><trkpt lat="39.33168865188203" lon="9.320878921356908"><ele>440.6</ele><time>2026-03-29T10:40:14.998Z</time></trkpt><trkpt lat="39.33171233249769" lon="9.320764188742288"><ele>438.4</ele><time>2026-03-29T10:40:15.998Z</time></trkpt><trkpt lat="39.331716137027676" lon="9.320643298398851"><ele>436.2</ele><time>2026-03-29T10:40:16.998Z</time></trkpt><trkpt lat="39.331743744332286" lon="9.320540087525538"><ele>434.0</ele><time>2026-03-29T10:40:17.998Z</time></trkpt><trkpt lat="39.33178313657294" lon="9.320409428759312"><ele>433.99999999999994</ele><time>2026-03-29T10:40:19.998Z</time></trkpt><trkpt lat="39.33186301116412" lon="9.320392956797482"><ele>434.0</ele><time>2026-03-29T10:40:20.998Z</time></trkpt><trkpt lat="39.33191617643875" lon="9.32033362022462"><ele>434.0</ele><time>2026-03-29T10:40:21.997Z</time></trkpt><trkpt lat="39.331931673995605" lon="9.32022847429688"><ele>434.0</ele><time>2026-03-29T10:40:22.997Z</time></trkpt><trkpt lat="39.33198036031945" lon="9.320112701032535"><ele>433.99999999999994</ele><time>2026-03-29T10:40:23.997Z</time></trkpt><trkpt lat="39.33203297989465" lon="9.320010552203351"><ele>434.0</ele><time>2026-03-29T10:40:24.997Z</time></trkpt><trkpt lat="39.33208939724187" lon="9.319915402332356"><ele>433.99999999999994</ele><time>2026-03-29T10:40:25.997Z</time></trkpt><trkpt lat="39.332145587451876" lon="9.319828870953256"><ele>434.0</ele><time>2026-03-29T10:40:26.997Z</time></trkpt><trkpt lat="39.33220024425938" lon="9.319743059245301"><ele>434.0</ele><time>2026-03-29T10:40:27.997Z</time></trkpt><trkpt lat="39.33224438960547" lon="9.319658007357647"><ele>434.0</ele><time>2026-03-29T10:40:28.997Z</time></trkpt><trkpt lat="39.33229438841709" lon="9.319582077165194"><ele>433.99999999999994</ele><time>2026-03-29T10:40:30.997Z</time></trkpt><trkpt lat="39.332278247180625" lon="9.319473819859994"><ele>434.0</ele><time>2026-03-29T10:40:31.997Z</time></trkpt><trkpt lat="39.332251687946005" lon="9.319361165723953"><ele>432.14285714285717</ele><time>2026-03-29T10:40:32.997Z</time></trkpt><trkpt lat="39.33221832791001" lon="9.319283633532075"><ele>430.2857142857143</ele><time>2026-03-29T10:40:33.997Z</time></trkpt><trkpt lat="39.33215879052106" lon="9.319243505964014"><ele>428.42857142857144</ele><time>2026-03-29T10:40:34.997Z</time></trkpt><trkpt lat="39.332077511027975" lon="9.319241332810964"><ele>426.57142857142856</ele><time>2026-03-29T10:40:35.997Z</time></trkpt><trkpt lat="39.33200765447911" lon="9.319194415812053"><ele>424.7142857142857</ele><time>2026-03-29T10:40:36.997Z</time></trkpt><trkpt lat="39.331947246025514" lon="9.319142846268521"><ele>422.8571428571429</ele><time>2026-03-29T10:40:37.997Z</time></trkpt><trkpt lat="39.33189839142367" lon="9.319080521836108"><ele>421.0</ele><time>2026-03-29T10:40:39Z</time></trkpt><trkpt lat="39.33184791365262" lon="9.319008498149222"><ele>417.8</ele><time>2026-03-29T10:40:40Z</time></trkpt><trkpt lat="39.33178672660467" lon="9.318898950856466"><ele>414.6</ele><time>2026-03-29T10:40:42Z</time></trkpt><trkpt lat="39.33174148463719" lon="9.318746993757658"><ele>411.4</ele><time>2026-03-29T10:40:44Z</time></trkpt><trkpt lat="39.33172967762688" lon="9.318645253556953"><ele>408.2</ele><time>2026-03-29T10:40:45Z</time></trkpt><trkpt lat="39.33172237667676" lon="9.318535406503202"><ele>405.0</ele><time>2026-03-29T10:40:46Z</time></trkpt><trkpt lat="39.331726612124754" lon="9.318406979888124"><ele>405.0</ele><time>2026-03-29T10:40:47Z</time></trkpt><trkpt lat="39.331734012262764" lon="9.318277437823015"><ele>405.0</ele><time>2026-03-29T10:40:48Z</time></trkpt><trkpt lat="39.331742973458475" lon="9.318159010464706"><ele>405.0</ele><time>2026-03-29T10:40:49Z</time></trkpt><trkpt lat="39.331752399756816" lon="9.318041984639441"><ele>405.0</ele><time>2026-03-29T10:40:50Z</time></trkpt><trkpt lat="39.33175694594376" lon="9.317935480900712"><ele>405.0</ele><time>2026-03-29T10:40:51Z</time></trkpt><trkpt lat="39.33175007187039" lon="9.317839851400281"><ele>405.0</ele><time>2026-03-29T10:40:52Z</time></trkpt><trkpt lat="39.331668588159204" lon="9.317700971663012"><ele>399.8</ele><time>2026-03-29T10:40:54Z</time></trkpt><trkpt lat="39.33157342598653" lon="9.317655851655829"><ele>394.6</ele><time>2026-03-29T10:40:55Z</time></trkpt><trkpt lat="39.33148570757346" lon="9.317612827609178"><ele>389.4</ele><time>2026-03-29T10:40:56Z</time></trkpt><trkpt lat="39.33139595278356" lon="9.317573658022607"><ele>384.2</ele><time>2026-03-29T10:40:57Z</time></trkpt><trkpt lat="39.33130430024184" lon="9.317545077232262"><ele>379.0</ele><time>2026-03-29T10:40:58Z</time></trkpt><trkpt lat="39.33121182785728" lon="9.31753212155546"><ele>378.3333333333333</ele><time>2026-03-29T10:40:59Z</time></trkpt><trkpt lat="39.331128622587265" lon="9.31752805077888"><ele>377.66666666666663</ele><time>2026-03-29T10:41:00Z</time></trkpt><trkpt lat="39.33104569719231" lon="9.317557505160064"><ele>377.0</ele><time>2026-03-29T10:41:01Z</time></trkpt><trkpt lat="39.33096035696333" lon="9.317569418536593"><ele>376.3333333333333</ele><time>2026-03-29T10:41:02Z</time></trkpt><trkpt lat="39.33086655956963" lon="9.317563752154626"><ele>375.6666666666667</ele><time>2026-03-29T10:41:03Z</time></trkpt><trkpt lat="39.3307800994867" lon="9.317576719290244"><ele>375.0</ele><time>2026-03-29T10:41:04Z</time></trkpt><trkpt lat="39.330690481420426" lon="9.317593390881415"><ele>375.0</ele><time>2026-03-29T10:41:05Z</time></trkpt><trkpt lat="39.33059744151002" lon="9.317591684668058"><ele>375.0</ele><time>2026-03-29T10:41:06Z</time></trkpt><trkpt lat="39.3305119238497" lon="9.317567783544337"><ele>375.0</ele><time>2026-03-29T10:41:07Z</time></trkpt><trkpt lat="39.33043348354322" lon="9.317525652549962"><ele>375.0</ele><time>2026-03-29T10:41:08Z</time></trkpt><trkpt lat="39.33035695813203" lon="9.317504557853166"><ele>375.0</ele><time>2026-03-29T10:41:09Z</time></trkpt><trkpt lat="39.330278696048666" lon="9.317494409292138"><ele>375.0</ele><time>2026-03-29T10:41:10Z</time></trkpt><trkpt lat="39.33020429127934" lon="9.31748076407014"><ele>375.8333333333333</ele><time>2026-03-29T10:41:10.999Z</time></trkpt><trkpt lat="39.33014238857775" lon="9.317462321012858"><ele>376.6666666666667</ele><time>2026-03-29T10:41:11.999Z</time></trkpt><trkpt lat="39.33003315005098" lon="9.317393172962156"><ele>377.5</ele><time>2026-03-29T10:41:13.999Z</time></trkpt><trkpt lat="39.32997732794713" lon="9.317353326929497"><ele>378.33333333333337</ele><time>2026-03-29T10:41:14.999Z</time></trkpt><trkpt lat="39.329920387959106" lon="9.317317281883662"><ele>379.1666666666667</ele><time>2026-03-29T10:41:15.999Z</time></trkpt><trkpt lat="39.329864878639775" lon="9.31727797893842"><ele>380.0</ele><time>2026-03-29T10:41:16.999Z</time></trkpt><trkpt lat="39.329754666469604" lon="9.317184056809065"><ele>379.6666666666667</ele><time>2026-03-29T10:41:18.999Z</time></trkpt><trkpt lat="39.329705366579375" lon="9.31711891506438"><ele>379.33333333333337</ele><time>2026-03-29T10:41:19.999Z</time></trkpt><trkpt lat="39.32966171995599" lon="9.316987138824219"><ele>379.0</ele><time>2026-03-29T10:41:21.999Z</time></trkpt><trkpt lat="39.32967441984719" lon="9.31689763109138"><ele>378.6666666666667</ele><time>2026-03-29T10:41:23.999Z</time></trkpt><trkpt lat="39.32968770849892" lon="9.316796612864218"><ele>378.3333333333333</ele><time>2026-03-29T10:41:24.999Z</time></trkpt><trkpt lat="39.32971933716257" lon="9.316691407036854"><ele>378.0</ele><time>2026-03-29T10:41:25.999Z</time></trkpt><trkpt lat="39.3297478277359" lon="9.316591178366302"><ele>375.0</ele><time>2026-03-29T10:41:26.999Z</time></trkpt><trkpt lat="39.3297677270547" lon="9.31649825510609"><ele>372.0</ele><time>2026-03-29T10:41:27.999Z</time></trkpt><trkpt lat="39.32979194290625" lon="9.316395676378821"><ele>369.0</ele><time>2026-03-29T10:41:28.999Z</time></trkpt><trkpt lat="39.32983096016984" lon="9.316298177527178"><ele>366.0</ele><time>2026-03-29T10:41:29.999Z</time></trkpt><trkpt lat="39.32986124794246" lon="9.316196750122112"><ele>363.0</ele><time>2026-03-29T10:41:30.999Z</time></trkpt><trkpt lat="39.329904358235375" lon="9.316091385770505"><ele>360.0</ele><time>2026-03-29T10:41:31.999Z</time></trkpt><trkpt lat="39.32994552168912" lon="9.315964016192632"><ele>359.8333333333333</ele><time>2026-03-29T10:41:32.999Z</time></trkpt><trkpt lat="39.32998211444145" lon="9.315840352829124"><ele>359.6666666666667</ele><time>2026-03-29T10:41:33.999Z</time></trkpt><trkpt lat="39.330009216707566" lon="9.31572887528562"><ele>359.5</ele><time>2026-03-29T10:41:34.999Z</time></trkpt><trkpt lat="39.330024247892304" lon="9.315633374738372"><ele>359.33333333333337</ele><time>2026-03-29T10:41:35.999Z</time></trkpt><trkpt lat="39.330040062078574" lon="9.315528143389448"><ele>359.1666666666667</ele><time>2026-03-29T10:41:36.999Z</time></trkpt><trkpt lat="39.330039506944054" lon="9.315440430412739"><ele>359.0</ele><time>2026-03-29T10:41:37.999Z</time></trkpt><trkpt lat="39.33006729274591" lon="9.315310748681403"><ele>359.0</ele><time>2026-03-29T10:41:39.999Z</time></trkpt><trkpt lat="39.330128612365826" lon="9.315292009429715"><ele>359.0</ele><time>2026-03-29T10:41:41.999Z</time></trkpt><trkpt lat="39.33018498746135" lon="9.315363832096791"><ele>359.0</ele><time>2026-03-29T10:41:43.999Z</time></trkpt><trkpt lat="39.3301758424938" lon="9.315459413609869"><ele>359.0</ele><time>2026-03-29T10:41:44.999Z</time></trkpt><trkpt lat="39.330157309027044" lon="9.315556637926658"><ele>359.0</ele><time>2026-03-29T10:41:45.999Z</time></trkpt><trkpt lat="39.33013063086186" lon="9.315668224275218"><ele>359.0</ele><time>2026-03-29T10:41:46.999Z</time></trkpt><trkpt lat="39.33011046986911" lon="9.31579484958523"><ele>359.0</ele><time>2026-03-29T10:41:47.998Z</time></trkpt><trkpt lat="39.330091319479344" lon="9.315932826932375"><ele>359.0</ele><time>2026-03-29T10:41:48.998Z</time></trkpt><trkpt lat="39.330075012435955" lon="9.31603716707977"><ele>359.0</ele><time>2026-03-29T10:41:49.998Z</time></trkpt><trkpt lat="39.330048519168365" lon="9.316141018170525"><ele>359.0</ele><time>2026-03-29T10:41:50.998Z</time></trkpt><trkpt lat="39.330028749842946" lon="9.316249206920322"><ele>359.0</ele><time>2026-03-29T10:41:51.998Z</time></trkpt><trkpt lat="39.330014091919644" lon="9.316345278412875"><ele>359.0</ele><time>2026-03-29T10:41:52.998Z</time></trkpt><trkpt lat="39.33005442550104" lon="9.316419565576417"><ele>359.2</ele><time>2026-03-29T10:41:53.998Z</time></trkpt><trkpt lat="39.33003240823077" lon="9.316549234940023"><ele>359.4</ele><time>2026-03-29T10:41:55.998Z</time></trkpt><trkpt lat="39.330148131054884" lon="9.316617337289596"><ele>359.6</ele><time>2026-03-29T10:41:57.998Z</time></trkpt><trkpt lat="39.33022668018407" lon="9.316687914770831"><ele>359.8</ele><time>2026-03-29T10:41:58.998Z</time></trkpt><trkpt lat="39.33030379244012" lon="9.316716121651346"><ele>360.0</ele><time>2026-03-29T10:41:59.998Z</time></trkpt><trkpt lat="39.330381440773344" lon="9.31670552226401"><ele>360.0</ele><time>2026-03-29T10:42:00.998Z</time></trkpt><trkpt lat="39.330480748860204" lon="9.316693122762288"><ele>360.0</ele><time>2026-03-29T10:42:01.998Z</time></trkpt><trkpt lat="39.330565290528796" lon="9.316690248168724"><ele>360.0</ele><time>2026-03-29T10:42:02.998Z</time></trkpt><trkpt lat="39.33063817110005" lon="9.316696285970204"><ele>360.0</ele><time>2026-03-29T10:42:03.998Z</time></trkpt><trkpt lat="39.33073404327366" lon="9.316661608512646"><ele>360.0</ele><time>2026-03-29T10:42:05.998Z</time></trkpt><trkpt lat="39.33081329567632" lon="9.31659787232228"><ele>358.1666666666667</ele><time>2026-03-29T10:42:06.998Z</time></trkpt><trkpt lat="39.33090532959153" lon="9.316556914920586"><ele>356.3333333333333</ele><time>2026-03-29T10:42:07.998Z</time></trkpt><trkpt lat="39.33098160894303" lon="9.316520213679247"><ele>354.5</ele><time>2026-03-29T10:42:08.998Z</time></trkpt><trkpt lat="39.33104541765369" lon="9.31647711679262"><ele>352.66666666666663</ele><time>2026-03-29T10:42:09.998Z</time></trkpt><trkpt lat="39.33112182774094" lon="9.316444313909807"><ele>350.8333333333333</ele><time>2026-03-29T10:42:10.998Z</time></trkpt><trkpt lat="39.331198579466395" lon="9.316431026959282"><ele>349.0</ele><time>2026-03-29T10:42:11.998Z</time></trkpt><trkpt lat="39.33129686783493" lon="9.316432193027127"><ele>349.0</ele><time>2026-03-29T10:42:12.998Z</time></trkpt><trkpt lat="39.33138385421975" lon="9.316432973883371"><ele>349.0</ele><time>2026-03-29T10:42:13.998Z</time></trkpt><trkpt lat="39.33147074479759" lon="9.316430400651686"><ele>349.0</ele><time>2026-03-29T10:42:14.998Z</time></trkpt><trkpt lat="39.331558197732576" lon="9.316412083621415"><ele>349.0</ele><time>2026-03-29T10:42:15.998Z</time></trkpt><trkpt lat="39.33164574232282" lon="9.31637674893984"><ele>349.0</ele><time>2026-03-29T10:42:16.998Z</time></trkpt><trkpt lat="39.33172945309087" lon="9.316337035732445"><ele>349.0</ele><time>2026-03-29T10:42:17.998Z</time></trkpt><trkpt lat="39.33181264707802" lon="9.316289347020792"><ele>344.3333333333333</ele><time>2026-03-29T10:42:18.998Z</time></trkpt><trkpt lat="39.331892356091025" lon="9.316256422557807"><ele>339.66666666666663</ele><time>2026-03-29T10:42:19.998Z</time></trkpt><trkpt lat="39.33196435599831" lon="9.31623912412645"><ele>335.0</ele><time>2026-03-29T10:42:20.998Z</time></trkpt><trkpt lat="39.332028535911874" lon="9.316230228962496"><ele>330.3333333333333</ele><time>2026-03-29T10:42:21.998Z</time></trkpt><trkpt lat="39.33214144381374" lon="9.31613717280069"><ele>325.6666666666667</ele><time>2026-03-29T10:42:23.998Z</time></trkpt><trkpt lat="39.332204741163906" lon="9.316073152146174"><ele>321.0</ele><time>2026-03-29T10:42:24.998Z</time></trkpt><trkpt lat="39.3322979242543" lon="9.31604246635195"><ele>321.0</ele><time>2026-03-29T10:42:26.997Z</time></trkpt><trkpt lat="39.33236463091055" lon="9.316036519372034"><ele>321.0</ele><time>2026-03-29T10:42:28.997Z</time></trkpt><trkpt lat="39.33232338224975" lon="9.315967483779536"><ele>321.0</ele><time>2026-03-29T10:42:31.997Z</time></trkpt><trkpt lat="39.332150344276656" lon="9.316025775888768"><ele>321.0</ele><time>2026-03-29T10:42:34.997Z</time></trkpt><trkpt lat="39.33205139624152" lon="9.316046701483598"><ele>321.0</ele><time>2026-03-29T10:42:35.997Z</time></trkpt><trkpt lat="39.331935318889094" lon="9.316083499406437"><ele>321.0</ele><time>2026-03-29T10:42:36.997Z</time></trkpt><trkpt lat="39.33180657149109" lon="9.31609283783572"><ele>321.0</ele><time>2026-03-29T10:42:37.997Z</time></trkpt><trkpt lat="39.33170474559191" lon="9.31609328834238"><ele>321.0</ele><time>2026-03-29T10:42:38.997Z</time></trkpt><trkpt lat="39.33161987828851" lon="9.316087085375"><ele>321.0</ele><time>2026-03-29T10:42:39.997Z</time></trkpt><trkpt lat="39.3315205129651" lon="9.316065799675265"><ele>321.0</ele><time>2026-03-29T10:42:40.997Z</time></trkpt><trkpt lat="39.33143497677356" lon="9.316023369382059"><ele>323.8333333333333</ele><time>2026-03-29T10:42:41.997Z</time></trkpt><trkpt lat="39.33135934921593" lon="9.315967456927808"><ele>326.6666666666667</ele><time>2026-03-29T10:42:42.997Z</time></trkpt><trkpt lat="39.3312974307792" lon="9.31594902437898"><ele>329.5</ele><time>2026-03-29T10:42:43.997Z</time></trkpt><trkpt lat="39.3312160514494" lon="9.315884263010103"><ele>332.33333333333337</ele><time>2026-03-29T10:42:46Z</time></trkpt><trkpt lat="39.33120269027717" lon="9.315776463211979"><ele>335.1666666666667</ele><time>2026-03-29T10:42:50Z</time></trkpt><trkpt lat="39.33127234428153" lon="9.315703436542696"><ele>338.0</ele><time>2026-03-29T10:42:51Z</time></trkpt><trkpt lat="39.331374809006206" lon="9.315592913358895"><ele>333.6666666666667</ele><time>2026-03-29T10:42:53Z</time></trkpt><trkpt lat="39.331445393628776" lon="9.315527451582545"><ele>329.33333333333337</ele><time>2026-03-29T10:42:54Z</time></trkpt><trkpt lat="39.33151353817991" lon="9.315458552612771"><ele>325.0</ele><time>2026-03-29T10:42:55Z</time></trkpt><trkpt lat="39.33157558261435" lon="9.315383954952667"><ele>320.6666666666667</ele><time>2026-03-29T10:42:56Z</time></trkpt><trkpt lat="39.331621684733456" lon="9.315272994563294"><ele>316.3333333333333</ele><time>2026-03-29T10:42:57Z</time></trkpt><trkpt lat="39.33164287765234" lon="9.31518855497177"><ele>312.0</ele><time>2026-03-29T10:42:58Z</time></trkpt><trkpt lat="39.33167293661567" lon="9.315113228447728"><ele>312.0</ele><time>2026-03-29T10:42:59Z</time></trkpt><trkpt lat="39.331777373246794" lon="9.315011820969888"><ele>312.0</ele><time>2026-03-29T10:43:01Z</time></trkpt><trkpt lat="39.33181905366371" lon="9.31495074696801"><ele>312.0</ele><time>2026-03-29T10:43:02Z</time></trkpt><trkpt lat="39.331856766576756" lon="9.314882658237355"><ele>312.0</ele><time>2026-03-29T10:43:03Z</time></trkpt><trkpt lat="39.33186705263106" lon="9.31473292121365"><ele>312.0</ele><time>2026-03-29T10:43:05Z</time></trkpt><trkpt lat="39.331833265580066" lon="9.314656305170097"><ele>312.0</ele><time>2026-03-29T10:43:06Z</time></trkpt><trkpt lat="39.3317924886148" lon="9.314591335241373"><ele>308.0</ele><time>2026-03-29T10:43:07Z</time></trkpt><trkpt lat="39.331722352992585" lon="9.314453271407709"><ele>304.0</ele><time>2026-03-29T10:43:09Z</time></trkpt><trkpt lat="39.33165270633155" lon="9.314316595114676"><ele>300.0</ele><time>2026-03-29T10:43:11Z</time></trkpt><trkpt lat="39.33158572658091" lon="9.314242244840676"><ele>296.0</ele><time>2026-03-29T10:43:12Z</time></trkpt><trkpt lat="39.331518018097185" lon="9.314194127375051"><ele>292.0</ele><time>2026-03-29T10:43:13Z</time></trkpt><trkpt lat="39.33144629628447" lon="9.314149867575976"><ele>294.2857142857143</ele><time>2026-03-29T10:43:14Z</time></trkpt><trkpt lat="39.33138054969035" lon="9.314109593729741"><ele>296.57142857142856</ele><time>2026-03-29T10:43:15Z</time></trkpt><trkpt lat="39.331320503751485" lon="9.314074393027862"><ele>298.8571428571429</ele><time>2026-03-29T10:43:15.999Z</time></trkpt><trkpt lat="39.33125016988903" lon="9.314038655586726"><ele>301.1428571428571</ele><time>2026-03-29T10:43:16.999Z</time></trkpt><trkpt lat="39.33118247736793" lon="9.313999130245941"><ele>303.42857142857144</ele><time>2026-03-29T10:43:17.999Z</time></trkpt><trkpt lat="39.33112608128374" lon="9.313954499834402"><ele>305.7142857142857</ele><time>2026-03-29T10:43:18.999Z</time></trkpt><trkpt lat="39.33105739506643" lon="9.31393299374945"><ele>308.0</ele><time>2026-03-29T10:43:19.999Z</time></trkpt><trkpt lat="39.330989810620714" lon="9.31391851833481"><ele>303.33333333333337</ele><time>2026-03-29T10:43:20.999Z</time></trkpt><trkpt lat="39.33092719131953" lon="9.313860830146194"><ele>298.6666666666667</ele><time>2026-03-29T10:43:21.999Z</time></trkpt><trkpt lat="39.33087969243048" lon="9.313785763715705"><ele>294.0</ele><time>2026-03-29T10:43:22.999Z</time></trkpt><trkpt lat="39.330840114521344" lon="9.31370623099205"><ele>289.3333333333333</ele><time>2026-03-29T10:43:23.999Z</time></trkpt><trkpt lat="39.33079274061514" lon="9.3136229545693"><ele>284.66666666666663</ele><time>2026-03-29T10:43:24.999Z</time></trkpt><trkpt lat="39.33072366061467" lon="9.313546197509712"><ele>280.0</ele><time>2026-03-29T10:43:25.999Z</time></trkpt><trkpt lat="39.33065916292752" lon="9.313464649627404"><ele>280.0</ele><time>2026-03-29T10:43:26.999Z</time></trkpt><trkpt lat="39.33059197161922" lon="9.31339081438762"><ele>280.0</ele><time>2026-03-29T10:43:27.999Z</time></trkpt><trkpt lat="39.33051674332951" lon="9.313319886650865"><ele>280.0</ele><time>2026-03-29T10:43:28.999Z</time></trkpt><trkpt lat="39.33043896437652" lon="9.313247734027572"><ele>280.0</ele><time>2026-03-29T10:43:29.999Z</time></trkpt><trkpt lat="39.33035611694897" lon="9.313174991797196"><ele>280.0</ele><time>2026-03-29T10:43:30.999Z</time></trkpt><trkpt lat="39.330268267488734" lon="9.313113748343387"><ele>277.8333333333333</ele><time>2026-03-29T10:43:31.999Z</time></trkpt><trkpt lat="39.33018259558644" lon="9.313050922286047"><ele>275.66666666666663</ele><time>2026-03-29T10:43:32.999Z</time></trkpt><trkpt lat="39.3301102222302" lon="9.312982601074939"><ele>273.5</ele><time>2026-03-29T10:43:33.999Z</time></trkpt><trkpt lat="39.33004396611747" lon="9.3129226446804"><ele>271.3333333333333</ele><time>2026-03-29T10:43:34.999Z</time></trkpt><trkpt lat="39.329978313688486" lon="9.312859049638899"><ele>269.1666666666667</ele><time>2026-03-29T10:43:35.999Z</time></trkpt><trkpt lat="39.329903328738105" lon="9.312810032359694"><ele>267.0</ele><time>2026-03-29T10:43:36.999Z</time></trkpt><trkpt lat="39.32981822030414" lon="9.31279718266322"><ele>267.0</ele><time>2026-03-29T10:43:37.999Z</time></trkpt><trkpt lat="39.32973241084986" lon="9.312775728171346"><ele>267.0</ele><time>2026-03-29T10:43:38.999Z</time></trkpt><trkpt lat="39.329661786501745" lon="9.312760684838292"><ele>267.0</ele><time>2026-03-29T10:43:39.999Z</time></trkpt><trkpt lat="39.329574477079575" lon="9.312735097958342"><ele>267.0</ele><time>2026-03-29T10:43:40.999Z</time></trkpt><trkpt lat="39.329483303240664" lon="9.312703117172372"><ele>267.0</ele><time>2026-03-29T10:43:41.999Z</time></trkpt><trkpt lat="39.32940768233317" lon="9.312652372767252"><ele>267.0</ele><time>2026-03-29T10:43:42.999Z</time></trkpt><trkpt lat="39.329342176148494" lon="9.312603033437746"><ele>267.2</ele><time>2026-03-29T10:43:43.999Z</time></trkpt><trkpt lat="39.32926804004402" lon="9.312559026175956"><ele>267.4</ele><time>2026-03-29T10:43:44.999Z</time></trkpt><trkpt lat="39.32919586501306" lon="9.312538325214042"><ele>267.6</ele><time>2026-03-29T10:43:45.999Z</time></trkpt><trkpt lat="39.32908071768225" lon="9.312509504071755"><ele>267.8</ele><time>2026-03-29T10:43:47.999Z</time></trkpt><trkpt lat="39.32896461108111" lon="9.312476333428052"><ele>268.0</ele><time>2026-03-29T10:43:49.999Z</time></trkpt><trkpt lat="39.32889024761644" lon="9.312456734286673"><ele>266.66666666666663</ele><time>2026-03-29T10:43:50.999Z</time></trkpt><trkpt lat="39.3288179386728" lon="9.312447463301764"><ele>265.3333333333333</ele><time>2026-03-29T10:43:51.999Z</time></trkpt><trkpt lat="39.3287470264351" lon="9.312439091994197"><ele>264.0</ele><time>2026-03-29T10:43:52.998Z</time></trkpt><trkpt lat="39.328660237329856" lon="9.312424418935658"><ele>262.6666666666667</ele><time>2026-03-29T10:43:53.998Z</time></trkpt><trkpt lat="39.328573515671074" lon="9.312412668235556"><ele>261.33333333333337</ele><time>2026-03-29T10:43:54.998Z</time></trkpt><trkpt lat="39.328501180231704" lon="9.312412376321909"><ele>260.0</ele><time>2026-03-29T10:43:55.998Z</time></trkpt><trkpt lat="39.32842940885572" lon="9.312430416978103"><ele>260.00000000000006</ele><time>2026-03-29T10:43:56.998Z</time></trkpt><trkpt lat="39.328365352992705" lon="9.312463769797928"><ele>260.0</ele><time>2026-03-29T10:43:57.998Z</time></trkpt><trkpt lat="39.32828903656194" lon="9.312501841907029"><ele>260.0</ele><time>2026-03-29T10:43:58.998Z</time></trkpt><trkpt lat="39.328217213006816" lon="9.312523003347923"><ele>260.0</ele><time>2026-03-29T10:43:59.998Z</time></trkpt><trkpt lat="39.32815379527905" lon="9.312539005965725"><ele>260.0</ele><time>2026-03-29T10:44:00.998Z</time></trkpt><trkpt lat="39.3280765932801" lon="9.312552074445568"><ele>260.00000000000006</ele><time>2026-03-29T10:44:01.998Z</time></trkpt><trkpt lat="39.32799706104848" lon="9.312557820722308"><ele>260.0</ele><time>2026-03-29T10:44:02.998Z</time></trkpt><trkpt lat="39.32792802505274" lon="9.312548261658282"><ele>259.0</ele><time>2026-03-29T10:44:03.998Z</time></trkpt><trkpt lat="39.32781495568939" lon="9.31252216633364"><ele>258.0</ele><time>2026-03-29T10:44:05.998Z</time></trkpt><trkpt lat="39.32770436401247" lon="9.312476041420542"><ele>257.0</ele><time>2026-03-29T10:44:07.998Z</time></trkpt><trkpt lat="39.32758451195217" lon="9.31248558982556"><ele>256.0</ele><time>2026-03-29T10:44:09.998Z</time></trkpt><trkpt lat="39.32748367603928" lon="9.312466985653366"><ele>255.99999999999997</ele><time>2026-03-29T10:44:11.998Z</time></trkpt><trkpt lat="39.32741517317778" lon="9.312466482994537"><ele>256.0</ele><time>2026-03-29T10:44:13.998Z</time></trkpt><trkpt lat="39.327368910392856" lon="9.312401280004213"><ele>256.0</ele><time>2026-03-29T10:44:18.998Z</time></trkpt><trkpt lat="39.32741696340337" lon="9.312344173507894"><ele>256.0</ele><time>2026-03-29T10:45:36.999Z</time></trkpt><trkpt lat="39.327353277305065" lon="9.312366747144432"><ele>255.99999999999997</ele><time>2026-03-29T10:47:43.999Z</time></trkpt><trkpt lat="39.32726908715034" lon="9.312352911172848"><ele>256.0</ele><time>2026-03-29T10:47:53.999Z</time></trkpt><trkpt lat="39.3271717368262" lon="9.312385319117865"><ele>255.99999999999997</ele><time>2026-03-29T10:47:55.999Z</time></trkpt><trkpt lat="39.32705724859777" lon="9.312339630943269"><ele>256.0</ele><time>2026-03-29T10:47:57.999Z</time></trkpt><trkpt lat="39.32698679323757" lon="9.312285842726025"><ele>256.0</ele><time>2026-03-29T10:47:58.999Z</time></trkpt><trkpt lat="39.32690957985567" lon="9.31224782061494"><ele>256.0</ele><time>2026-03-29T10:47:59.999Z</time></trkpt><trkpt lat="39.32683152399074" lon="9.31222779601565"><ele>255.99999999999997</ele><time>2026-03-29T10:48:00.999Z</time></trkpt><trkpt lat="39.32677270094885" lon="9.312263433531474"><ele>256.0</ele><time>2026-03-29T10:48:01.999Z</time></trkpt><trkpt lat="39.32667517944876" lon="9.312308817882462"><ele>256.0</ele><time>2026-03-29T10:48:02.999Z</time></trkpt><trkpt lat="39.326569659093565" lon="9.312343201683047"><ele>256.0</ele><time>2026-03-29T10:48:03.999Z</time></trkpt><trkpt lat="39.326466450839284" lon="9.312368284374875"><ele>256.0</ele><time>2026-03-29T10:48:04.998Z</time></trkpt><trkpt lat="39.32638691210416" lon="9.312413254963106"><ele>256.0</ele><time>2026-03-29T10:48:05.998Z</time></trkpt><trkpt lat="39.326294387357805" lon="9.31246260511639"><ele>256.0</ele><time>2026-03-29T10:48:06.998Z</time></trkpt><trkpt lat="39.32619560847186" lon="9.312502413559587"><ele>256.16666666666663</ele><time>2026-03-29T10:48:07.998Z</time></trkpt><trkpt lat="39.32610833674035" lon="9.312541344242462"><ele>256.3333333333333</ele><time>2026-03-29T10:48:08.998Z</time></trkpt><trkpt lat="39.32605314026032" lon="9.312589601808376"><ele>256.5</ele><time>2026-03-29T10:48:09.998Z</time></trkpt><trkpt lat="39.32601693676596" lon="9.312684457861584"><ele>256.6666666666667</ele><time>2026-03-29T10:48:10.998Z</time></trkpt><trkpt lat="39.326001941995386" lon="9.312796732184921"><ele>256.83333333333337</ele><time>2026-03-29T10:48:11.998Z</time></trkpt><trkpt lat="39.325978331824594" lon="9.312915727766304"><ele>257.0</ele><time>2026-03-29T10:48:12.998Z</time></trkpt><trkpt lat="39.32598274127217" lon="9.313024839974657"><ele>258.0</ele><time>2026-03-29T10:48:13.998Z</time></trkpt><trkpt lat="39.32596770722471" lon="9.313156603966478"><ele>259.0</ele><time>2026-03-29T10:48:14.998Z</time></trkpt><trkpt lat="39.32593318810206" lon="9.313296936070213"><ele>260.0</ele><time>2026-03-29T10:48:15.998Z</time></trkpt><trkpt lat="39.32590053258106" lon="9.313442295390827"><ele>261.0</ele><time>2026-03-29T10:48:16.998Z</time></trkpt><trkpt lat="39.325885743729415" lon="9.313593697367384"><ele>261.0</ele><time>2026-03-29T10:48:17.998Z</time></trkpt><trkpt lat="39.32589148822753" lon="9.313728806591469"><ele>261.0</ele><time>2026-03-29T10:48:18.998Z</time></trkpt><trkpt lat="39.32589948620444" lon="9.313825849096578"><ele>261.0</ele><time>2026-03-29T10:48:19.998Z</time></trkpt><trkpt lat="39.32590999520697" lon="9.313933696166666"><ele>261.0</ele><time>2026-03-29T10:48:20.998Z</time></trkpt><trkpt lat="39.325945929057795" lon="9.314055895729412"><ele>261.0</ele><time>2026-03-29T10:48:22.998Z</time></trkpt><trkpt lat="39.32606015570847" lon="9.31408758946525"><ele>261.0</ele><time>2026-03-29T10:48:24.998Z</time></trkpt><trkpt lat="39.326132709799566" lon="9.314099861832648"><ele>261.0</ele><time>2026-03-29T10:48:25.998Z</time></trkpt><trkpt lat="39.32622861613416" lon="9.314136249026634"><ele>261.0</ele><time>2026-03-29T10:48:26.998Z</time></trkpt><trkpt lat="39.32630482865627" lon="9.314174778894996"><ele>261.0</ele><time>2026-03-29T10:48:27.998Z</time></trkpt><trkpt lat="39.32637090703267" lon="9.314192583131389"><ele>261.0</ele><time>2026-03-29T10:48:28.998Z</time></trkpt><trkpt lat="39.326437850641604" lon="9.31422263348195"><ele>261.0</ele><time>2026-03-29T10:48:29.998Z</time></trkpt><trkpt lat="39.32651637701134" lon="9.314277833914671"><ele>261.0</ele><time>2026-03-29T10:48:30.998Z</time></trkpt><trkpt lat="39.32656643937974" lon="9.314355553955084"><ele>261.0</ele><time>2026-03-29T10:48:31.998Z</time></trkpt><trkpt lat="39.32658337200804" lon="9.314434702552708"><ele>261.0</ele><time>2026-03-29T10:48:32.998Z</time></trkpt><trkpt lat="39.32656122753502" lon="9.314512698434049"><ele>261.0</ele><time>2026-03-29T10:48:33.998Z</time></trkpt><trkpt lat="39.326462794400754" lon="9.3145892843312"><ele>261.0</ele><time>2026-03-29T10:48:35.998Z</time></trkpt><trkpt lat="39.32638862423036" lon="9.314670343959982"><ele>261.0</ele><time>2026-03-29T10:48:37.998Z</time></trkpt><trkpt lat="39.326324906174115" lon="9.314726043822828"><ele>261.40000000000003</ele><time>2026-03-29T10:48:38.998Z</time></trkpt><trkpt lat="39.326240479230414" lon="9.31480665659311"><ele>261.8</ele><time>2026-03-29T10:48:39.998Z</time></trkpt><trkpt lat="39.32616715866434" lon="9.31488711752041"><ele>262.20000000000005</ele><time>2026-03-29T10:48:40.998Z</time></trkpt><trkpt lat="39.326094080109876" lon="9.31496575258044"><ele>262.6</ele><time>2026-03-29T10:48:41.998Z</time></trkpt><trkpt lat="39.326025189760855" lon="9.315037223309306"><ele>263.0</ele><time>2026-03-29T10:48:42.997Z</time></trkpt><trkpt lat="39.325936324399756" lon="9.315170352549524"><ele>263.0</ele><time>2026-03-29T10:48:44.997Z</time></trkpt><trkpt lat="39.325847662416436" lon="9.315226310027356"><ele>263.0</ele><time>2026-03-29T10:48:45.997Z</time></trkpt><trkpt lat="39.32574660386829" lon="9.315282572353428"><ele>263.0</ele><time>2026-03-29T10:48:46.997Z</time></trkpt><trkpt lat="39.32565060928722" lon="9.315328958353792"><ele>263.0</ele><time>2026-03-29T10:48:47.997Z</time></trkpt><trkpt lat="39.32556838749668" lon="9.315349140213282"><ele>263.0</ele><time>2026-03-29T10:48:48.997Z</time></trkpt><trkpt lat="39.32549757437283" lon="9.31537012198571"><ele>262.5</ele><time>2026-03-29T10:48:49.997Z</time></trkpt><trkpt lat="39.3254324887265" lon="9.31537083167985"><ele>262.0</ele><time>2026-03-29T10:48:50.997Z</time></trkpt><trkpt lat="39.32530272234972" lon="9.315390463280757"><ele>261.5</ele><time>2026-03-29T10:48:52.997Z</time></trkpt><trkpt lat="39.32523603453067" lon="9.315409729938752"><ele>261.0</ele><time>2026-03-29T10:48:53.997Z</time></trkpt><trkpt lat="39.32516095806645" lon="9.3154625567983"><ele>260.5</ele><time>2026-03-29T10:48:54.997Z</time></trkpt><trkpt lat="39.32507295161353" lon="9.315521263824133"><ele>260.0</ele><time>2026-03-29T10:48:55.997Z</time></trkpt><trkpt lat="39.325009108381295" lon="9.315589700642185"><ele>260.0</ele><time>2026-03-29T10:48:56.997Z</time></trkpt><trkpt lat="39.32494248206009" lon="9.31567130455784"><ele>260.0</ele><time>2026-03-29T10:48:57.997Z</time></trkpt><trkpt lat="39.32490473579537" lon="9.315747780063013"><ele>260.0</ele><time>2026-03-29T10:48:58.997Z</time></trkpt><trkpt lat="39.324872646911786" lon="9.315837065830289"><ele>260.0</ele><time>2026-03-29T10:48:59.997Z</time></trkpt><trkpt lat="39.324856891691645" lon="9.315932585452082"><ele>260.0</ele><time>2026-03-29T10:49:01Z</time></trkpt><trkpt lat="39.324842883407676" lon="9.316030637204443"><ele>260.0</ele><time>2026-03-29T10:49:02Z</time></trkpt><trkpt lat="39.32486080466879" lon="9.31616920564628"><ele>260.0</ele><time>2026-03-29T10:49:04Z</time></trkpt><trkpt lat="39.32480353318616" lon="9.316321459485975"><ele>260.0</ele><time>2026-03-29T10:49:06Z</time></trkpt><trkpt lat="39.32475517343968" lon="9.316392798217063"><ele>260.0</ele><time>2026-03-29T10:49:07Z</time></trkpt><trkpt lat="39.32464157439924" lon="9.316396358923491"><ele>260.0</ele><time>2026-03-29T10:49:09Z</time></trkpt><trkpt lat="39.324567194045336" lon="9.31635944835295"><ele>260.0</ele><time>2026-03-29T10:49:10Z</time></trkpt><trkpt lat="39.32443068130122" lon="9.316414498726022"><ele>261.33333333333337</ele><time>2026-03-29T10:49:12Z</time></trkpt><trkpt lat="39.324350839098976" lon="9.316467747823058"><ele>262.6666666666667</ele><time>2026-03-29T10:49:13Z</time></trkpt><trkpt lat="39.3242701955176" lon="9.316455219940938"><ele>264.0</ele><time>2026-03-29T10:49:14Z</time></trkpt><trkpt lat="39.32422243878859" lon="9.31639677386574"><ele>265.3333333333333</ele><time>2026-03-29T10:49:15Z</time></trkpt><trkpt lat="39.324199084476845" lon="9.31631232765515"><ele>266.66666666666663</ele><time>2026-03-29T10:49:16Z</time></trkpt><trkpt lat="39.32417085327587" lon="9.31620016372481"><ele>268.0</ele><time>2026-03-29T10:49:17Z</time></trkpt><trkpt lat="39.324139986121374" lon="9.316093200573492"><ele>268.0</ele><time>2026-03-29T10:49:18Z</time></trkpt><trkpt lat="39.32412494846591" lon="9.316001532128077"><ele>268.0</ele><time>2026-03-29T10:49:19Z</time></trkpt><trkpt lat="39.32410950840448" lon="9.31587445924042"><ele>268.0</ele><time>2026-03-29T10:49:21Z</time></trkpt><trkpt lat="39.324001936008386" lon="9.3158567400171"><ele>268.0</ele><time>2026-03-29T10:49:23Z</time></trkpt><trkpt lat="39.323894143673954" lon="9.315932739778505"><ele>268.0</ele><time>2026-03-29T10:49:25Z</time></trkpt><trkpt lat="39.32382934967038" lon="9.315947561704363"><ele>273.5</ele><time>2026-03-29T10:49:26Z</time></trkpt><trkpt lat="39.32375764513702" lon="9.315958248302255"><ele>279.0</ele><time>2026-03-29T10:49:27Z</time></trkpt><trkpt lat="39.32369381927582" lon="9.316048567755164"><ele>284.5</ele><time>2026-03-29T10:49:29Z</time></trkpt><trkpt lat="39.32373777267497" lon="9.316110164735072"><ele>290.0</ele><time>2026-03-29T10:49:31Z</time></trkpt><trkpt lat="39.323761292285795" lon="9.316216466157622"><ele>295.5</ele><time>2026-03-29T10:49:33.999Z</time></trkpt><trkpt lat="39.323785019984015" lon="9.316305037689613"><ele>301.0</ele><time>2026-03-29T10:49:35.999Z</time></trkpt><trkpt lat="39.32383767509915" lon="9.316356732183708"><ele>298.5</ele><time>2026-03-29T10:49:37.999Z</time></trkpt><trkpt lat="39.32382209947683" lon="9.3164369609267"><ele>296.0</ele><time>2026-03-29T10:49:39.999Z</time></trkpt><trkpt lat="39.32359917798826" lon="9.317042844241625"><ele>296.0</ele><time>2026-03-29T10:49:41.999Z</time></trkpt><trkpt lat="39.32346862571935" lon="9.316985751875373"><ele>296.0</ele><time>2026-03-29T10:49:43.999Z</time></trkpt><trkpt lat="39.323326229228414" lon="9.317068806943958"><ele>296.0</ele><time>2026-03-29T10:49:45.999Z</time></trkpt><trkpt lat="39.32323696632035" lon="9.317081002386718"><ele>296.0</ele><time>2026-03-29T10:49:46.999Z</time></trkpt><trkpt lat="39.32313859276042" lon="9.317092799486325"><ele>300.33333333333337</ele><time>2026-03-29T10:49:47.999Z</time></trkpt><trkpt lat="39.32306087551379" lon="9.317114935056699"><ele>304.6666666666667</ele><time>2026-03-29T10:49:48.999Z</time></trkpt><trkpt lat="39.322996443064035" lon="9.317148999889762"><ele>309.0</ele><time>2026-03-29T10:49:49.999Z</time></trkpt><trkpt lat="39.32291957325085" lon="9.317167636996945"><ele>313.3333333333333</ele><time>2026-03-29T10:49:50.999Z</time></trkpt><trkpt lat="39.32283560265247" lon="9.317168284679326"><ele>317.66666666666663</ele><time>2026-03-29T10:49:51.999Z</time></trkpt><trkpt lat="39.322759674745114" lon="9.317190430084946"><ele>322.0</ele><time>2026-03-29T10:49:52.999Z</time></trkpt><trkpt lat="39.32269217159972" lon="9.31718211682786"><ele>322.0</ele><time>2026-03-29T10:49:53.999Z</time></trkpt><trkpt lat="39.32260683389712" lon="9.317175310556074"><ele>322.0</ele><time>2026-03-29T10:49:54.999Z</time></trkpt><trkpt lat="39.32250319972642" lon="9.317182213524344"><ele>322.0</ele><time>2026-03-29T10:49:55.999Z</time></trkpt><trkpt lat="39.322420787392254" lon="9.317199440822495"><ele>322.0</ele><time>2026-03-29T10:49:56.999Z</time></trkpt><trkpt lat="39.3223574961536" lon="9.317209267291394"><ele>322.0</ele><time>2026-03-29T10:49:57.999Z</time></trkpt><trkpt lat="39.32226236571403" lon="9.317212857558923"><ele>322.0</ele><time>2026-03-29T10:49:58.999Z</time></trkpt><trkpt lat="39.32217866557196" lon="9.317214372400679"><ele>322.40000000000003</ele><time>2026-03-29T10:49:59.999Z</time></trkpt><trkpt lat="39.32211266386674" lon="9.31722831459922"><ele>322.8</ele><time>2026-03-29T10:50:00.999Z</time></trkpt><trkpt lat="39.32202071191309" lon="9.317277071077806"><ele>323.2</ele><time>2026-03-29T10:50:02.999Z</time></trkpt><trkpt lat="39.322019791385635" lon="9.317400115615946"><ele>323.6</ele><time>2026-03-29T10:50:04.999Z</time></trkpt><trkpt lat="39.3219564420658" lon="9.317556630649968"><ele>324.0</ele><time>2026-03-29T10:50:06.999Z</time></trkpt><trkpt lat="39.3218986661773" lon="9.317663434797689"><ele>324.0</ele><time>2026-03-29T10:50:08.998Z</time></trkpt><trkpt lat="39.32182526022869" lon="9.317750791498863"><ele>324.0</ele><time>2026-03-29T10:50:10.998Z</time></trkpt><trkpt lat="39.32173254831664" lon="9.31777243828633"><ele>324.0</ele><time>2026-03-29T10:50:12.998Z</time></trkpt><trkpt lat="39.321656745117686" lon="9.317789918705962"><ele>324.0</ele><time>2026-03-29T10:50:13.998Z</time></trkpt><trkpt lat="39.3215823580997" lon="9.317801525335367"><ele>324.0</ele><time>2026-03-29T10:50:14.998Z</time></trkpt><trkpt lat="39.32151404771976" lon="9.317832239078648"><ele>324.0</ele><time>2026-03-29T10:50:15.998Z</time></trkpt><trkpt lat="39.3214318978551" lon="9.317874385816596"><ele>326.4</ele><time>2026-03-29T10:50:16.998Z</time></trkpt><trkpt lat="39.32135763613785" lon="9.317898941930062"><ele>328.79999999999995</ele><time>2026-03-29T10:50:17.998Z</time></trkpt><trkpt lat="39.32129393386743" lon="9.317933145884426"><ele>331.20000000000005</ele><time>2026-03-29T10:50:18.998Z</time></trkpt><trkpt lat="39.32119383305025" lon="9.31799662089217"><ele>333.6</ele><time>2026-03-29T10:50:20.998Z</time></trkpt><trkpt lat="39.321108024220685" lon="9.31805140315978"><ele>336.0</ele><time>2026-03-29T10:51:09Z</time></trkpt><trkpt lat="39.32101145856785" lon="9.3180960770372"><ele>336.0</ele><time>2026-03-29T10:51:11Z</time></trkpt><trkpt lat="39.32094020594278" lon="9.318134590047263"><ele>336.0</ele><time>2026-03-29T10:51:13Z</time></trkpt><trkpt lat="39.32086943761846" lon="9.318167010163467"><ele>336.0</ele><time>2026-03-29T10:51:15Z</time></trkpt><trkpt lat="39.320805319196204" lon="9.31819204884966"><ele>336.0</ele><time>2026-03-29T10:51:16Z</time></trkpt><trkpt lat="39.320746944105984" lon="9.31824019325776"><ele>336.0</ele><time>2026-03-29T10:51:17Z</time></trkpt><trkpt lat="39.32068392898722" lon="9.318278686907798"><ele>336.0</ele><time>2026-03-29T10:51:18Z</time></trkpt><trkpt lat="39.320616745915835" lon="9.318326654377442"><ele>336.0</ele><time>2026-03-29T10:51:19Z</time></trkpt><trkpt lat="39.320548436925876" lon="9.318389646472646"><ele>340.6666666666667</ele><time>2026-03-29T10:51:20Z</time></trkpt><trkpt lat="39.320497782925955" lon="9.318461316074767"><ele>345.3333333333333</ele><time>2026-03-29T10:51:21Z</time></trkpt><trkpt lat="39.32046814278787" lon="9.318542961478801"><ele>350.0</ele><time>2026-03-29T10:51:22Z</time></trkpt><trkpt lat="39.32047279701056" lon="9.318629016788563"><ele>354.66666666666663</ele><time>2026-03-29T10:51:23Z</time></trkpt><trkpt lat="39.32041977839602" lon="9.318701184953264"><ele>359.3333333333333</ele><time>2026-03-29T10:51:25Z</time></trkpt><trkpt lat="39.320353151863664" lon="9.318598134176597"><ele>364.0</ele><time>2026-03-29T10:51:28Z</time></trkpt><trkpt lat="39.32034840794807" lon="9.31849980039455"><ele>364.0</ele><time>2026-03-29T10:51:29Z</time></trkpt><trkpt lat="39.320366772716575" lon="9.318409925250357"><ele>364.0</ele><time>2026-03-29T10:51:30Z</time></trkpt><trkpt lat="39.32041499064003" lon="9.318345723965098"><ele>364.0</ele><time>2026-03-29T10:51:31Z</time></trkpt><trkpt lat="39.32050111008667" lon="9.318225104017683"><ele>364.0</ele><time>2026-03-29T10:51:33Z</time></trkpt><trkpt lat="39.320533185848525" lon="9.318126722785957"><ele>364.0</ele><time>2026-03-29T10:51:34Z</time></trkpt><trkpt lat="39.32056720186411" lon="9.318035438578951"><ele>364.0</ele><time>2026-03-29T10:51:35Z</time></trkpt><trkpt lat="39.32062472595547" lon="9.317945190573376"><ele>361.66666666666663</ele><time>2026-03-29T10:51:36Z</time></trkpt><trkpt lat="39.320679954567034" lon="9.317859425822892"><ele>359.3333333333333</ele><time>2026-03-29T10:51:37Z</time></trkpt><trkpt lat="39.32072751635469" lon="9.317802316220872"><ele>357.0</ele><time>2026-03-29T10:51:38Z</time></trkpt><trkpt lat="39.32078025500662" lon="9.317677184368028"><ele>354.6666666666667</ele><time>2026-03-29T10:51:39.999Z</time></trkpt><trkpt lat="39.320804495533096" lon="9.317577745688887"><ele>352.33333333333337</ele><time>2026-03-29T10:51:40.999Z</time></trkpt><trkpt lat="39.320823070898726" lon="9.317480543093497"><ele>350.0</ele><time>2026-03-29T10:51:41.999Z</time></trkpt><trkpt lat="39.32080684334237" lon="9.317369496748775"><ele>350.0</ele><time>2026-03-29T10:51:42.999Z</time></trkpt><trkpt lat="39.32076402187304" lon="9.317261324839233"><ele>350.0</ele><time>2026-03-29T10:51:43.999Z</time></trkpt><trkpt lat="39.32070436691215" lon="9.317157617466474"><ele>350.0</ele><time>2026-03-29T10:51:44.999Z</time></trkpt><trkpt lat="39.320645618694016" lon="9.317043149988823"><ele>350.0</ele><time>2026-03-29T10:51:45.999Z</time></trkpt><trkpt lat="39.320600818006696" lon="9.316932943311194"><ele>350.0</ele><time>2026-03-29T10:51:46.999Z</time></trkpt><trkpt lat="39.32055563103219" lon="9.316849080902374"><ele>350.0</ele><time>2026-03-29T10:51:47.999Z</time></trkpt><trkpt lat="39.320502769444275" lon="9.316798524830384"><ele>350.0</ele><time>2026-03-29T10:51:48.999Z</time></trkpt><trkpt lat="39.320436981363066" lon="9.31678227433603"><ele>350.0</ele><time>2026-03-29T10:51:49.999Z</time></trkpt><trkpt lat="39.32036735411063" lon="9.31679810310821"><ele>350.0</ele><time>2026-03-29T10:51:50.999Z</time></trkpt><trkpt lat="39.32029972044272" lon="9.31684024624845"><ele>350.0</ele><time>2026-03-29T10:51:51.999Z</time></trkpt><trkpt lat="39.32024138512202" lon="9.316907335845201"><ele>350.0</ele><time>2026-03-29T10:51:52.999Z</time></trkpt><trkpt lat="39.320185107213625" lon="9.31698705719913"><ele>350.0</ele><time>2026-03-29T10:51:53.999Z</time></trkpt><trkpt lat="39.32012754220868" lon="9.317075491490352"><ele>350.0</ele><time>2026-03-29T10:51:54.999Z</time></trkpt><trkpt lat="39.320066382516984" lon="9.317170401298451"><ele>350.0</ele><time>2026-03-29T10:51:55.999Z</time></trkpt><trkpt lat="39.32000549362036" lon="9.317277969481344"><ele>350.0</ele><time>2026-03-29T10:51:56.999Z</time></trkpt><trkpt lat="39.319923569768115" lon="9.317383331192175"><ele>350.0</ele><time>2026-03-29T10:51:57.999Z</time></trkpt><trkpt lat="39.319839538907175" lon="9.317462129600365"><ele>350.0</ele><time>2026-03-29T10:51:58.999Z</time></trkpt><trkpt lat="39.31974415016032" lon="9.317515495411314"><ele>350.2</ele><time>2026-03-29T10:51:59.999Z</time></trkpt><trkpt lat="39.31963072844384" lon="9.317553131839688"><ele>350.4</ele><time>2026-03-29T10:52:00.999Z</time></trkpt><trkpt lat="39.31952563482374" lon="9.31757656987927"><ele>350.6</ele><time>2026-03-29T10:52:01.999Z</time></trkpt><trkpt lat="39.3194395856946" lon="9.317571249915044"><ele>350.8</ele><time>2026-03-29T10:52:02.999Z</time></trkpt><trkpt lat="39.31936101683607" lon="9.317534648968369"><ele>351.0</ele><time>2026-03-29T10:52:05.999Z</time></trkpt><trkpt lat="39.31929986834375" lon="9.317507370124826"><ele>351.0</ele><time>2026-03-29T11:01:38Z</time></trkpt><trkpt lat="39.31920486369038" lon="9.317467943574584"><ele>351.0</ele><time>2026-03-29T11:01:40Z</time></trkpt><trkpt lat="39.3191133008652" lon="9.317460489371111"><ele>351.0</ele><time>2026-03-29T11:01:42Z</time></trkpt><trkpt lat="39.319023695017435" lon="9.317373371295385"><ele>351.0</ele><time>2026-03-29T11:01:44Z</time></trkpt><trkpt lat="39.318947784532675" lon="9.317340552096585"><ele>351.0</ele><time>2026-03-29T11:01:45Z</time></trkpt><trkpt lat="39.31886981972683" lon="9.317312083565863"><ele>350.5</ele><time>2026-03-29T11:01:46Z</time></trkpt><trkpt lat="39.31879262137368" lon="9.317272557243603"><ele>350.0</ele><time>2026-03-29T11:01:47Z</time></trkpt><trkpt lat="39.31870856004628" lon="9.31722317539342"><ele>349.5</ele><time>2026-03-29T11:01:48Z</time></trkpt><trkpt lat="39.31862443195303" lon="9.317167839025622"><ele>349.0</ele><time>2026-03-29T11:01:49Z</time></trkpt><trkpt lat="39.31854340968709" lon="9.317130365583356"><ele>348.5</ele><time>2026-03-29T11:01:50Z</time></trkpt><trkpt lat="39.3184613389458" lon="9.317109016301854"><ele>348.0</ele><time>2026-03-29T11:01:51Z</time></trkpt><trkpt lat="39.31837049984092" lon="9.317086114463576"><ele>348.0</ele><time>2026-03-29T11:01:52Z</time></trkpt><trkpt lat="39.318273153194625" lon="9.317061323074931"><ele>348.0</ele><time>2026-03-29T11:01:53Z</time></trkpt><trkpt lat="39.318170704188056" lon="9.31703744638753"><ele>348.0</ele><time>2026-03-29T11:01:54Z</time></trkpt><trkpt lat="39.31807288078133" lon="9.317008962296196"><ele>348.0</ele><time>2026-03-29T11:01:55Z</time></trkpt><trkpt lat="39.31797909338412" lon="9.316986243679224"><ele>348.0</ele><time>2026-03-29T11:01:56Z</time></trkpt><trkpt lat="39.31789391257006" lon="9.316960965316182"><ele>348.5</ele><time>2026-03-29T11:01:57Z</time></trkpt><trkpt lat="39.317812611755215" lon="9.316941981045817"><ele>349.0</ele><time>2026-03-29T11:01:58Z</time></trkpt><trkpt lat="39.31772381957445" lon="9.316921059227775"><ele>349.5</ele><time>2026-03-29T11:01:59Z</time></trkpt><trkpt lat="39.31764421413532" lon="9.316872673507484"><ele>350.0</ele><time>2026-03-29T11:02:00Z</time></trkpt><trkpt lat="39.31755786111397" lon="9.316815668091389"><ele>350.5</ele><time>2026-03-29T11:02:01Z</time></trkpt><trkpt lat="39.31747302569497" lon="9.316776955133102"><ele>351.0</ele><time>2026-03-29T11:02:02Z</time></trkpt><trkpt lat="39.31738490476105" lon="9.316738331882386"><ele>351.0</ele><time>2026-03-29T11:02:03Z</time></trkpt><trkpt lat="39.31730196721931" lon="9.316681898528495"><ele>351.0</ele><time>2026-03-29T11:02:04Z</time></trkpt><trkpt lat="39.31722115787098" lon="9.316617844034546"><ele>351.0</ele><time>2026-03-29T11:02:05Z</time></trkpt><trkpt lat="39.317149590963346" lon="9.31657824309829"><ele>351.0</ele><time>2026-03-29T11:02:06Z</time></trkpt><trkpt lat="39.317014611175566" lon="9.316594231751422"><ele>351.0</ele><time>2026-03-29T11:02:07.999Z</time></trkpt><trkpt lat="39.316955593660886" lon="9.316638575509351"><ele>351.1666666666667</ele><time>2026-03-29T11:02:08.999Z</time></trkpt><trkpt lat="39.31689916179599" lon="9.31668509932188"><ele>351.3333333333333</ele><time>2026-03-29T11:02:09.999Z</time></trkpt><trkpt lat="39.31683071108413" lon="9.31678525445584"><ele>351.5</ele><time>2026-03-29T11:02:10.999Z</time></trkpt><trkpt lat="39.31678300939681" lon="9.316865033791245"><ele>351.66666666666663</ele><time>2026-03-29T11:02:11.999Z</time></trkpt><trkpt lat="39.31672389947547" lon="9.316947665425594"><ele>351.8333333333333</ele><time>2026-03-29T11:02:12.999Z</time></trkpt><trkpt lat="39.31665767829047" lon="9.317021056596708"><ele>352.0</ele><time>2026-03-29T11:02:13.999Z</time></trkpt><trkpt lat="39.31660226925385" lon="9.317097183358756"><ele>352.0</ele><time>2026-03-29T11:02:14.999Z</time></trkpt><trkpt lat="39.3165546355569" lon="9.317197644159108"><ele>352.0</ele><time>2026-03-29T11:02:15.999Z</time></trkpt><trkpt lat="39.316519864275854" lon="9.31728924779117"><ele>352.0</ele><time>2026-03-29T11:02:16.999Z</time></trkpt><trkpt lat="39.31648894690962" lon="9.31739175226033"><ele>352.0</ele><time>2026-03-29T11:02:17.999Z</time></trkpt><trkpt lat="39.31645097076049" lon="9.317510641189173"><ele>352.0</ele><time>2026-03-29T11:02:18.999Z</time></trkpt><trkpt lat="39.316409617952345" lon="9.317622281125683"><ele>347.40000000000003</ele><time>2026-03-29T11:02:19.999Z</time></trkpt><trkpt lat="39.316365546138336" lon="9.317735876662942"><ele>342.8</ele><time>2026-03-29T11:02:20.999Z</time></trkpt><trkpt lat="39.3163165776487" lon="9.317848686706077"><ele>338.2</ele><time>2026-03-29T11:02:21.999Z</time></trkpt><trkpt lat="39.31629572757598" lon="9.317954218903276"><ele>333.6</ele><time>2026-03-29T11:02:22.999Z</time></trkpt><trkpt lat="39.31626260064622" lon="9.318063208989447"><ele>329.0</ele><time>2026-03-29T11:02:23.999Z</time></trkpt><trkpt lat="39.31622319471396" lon="9.318152785570046"><ele>327.6</ele><time>2026-03-29T11:02:24.999Z</time></trkpt><trkpt lat="39.31618448465751" lon="9.318242406838047"><ele>326.2</ele><time>2026-03-29T11:02:25.999Z</time></trkpt><trkpt lat="39.316132375167776" lon="9.318329261078127"><ele>324.8</ele><time>2026-03-29T11:02:26.999Z</time></trkpt><trkpt lat="39.31606357959104" lon="9.318398692599912"><ele>323.40000000000003</ele><time>2026-03-29T11:02:27.999Z</time></trkpt><trkpt lat="39.31598593348749" lon="9.318476600969339"><ele>322.0</ele><time>2026-03-29T11:02:28.999Z</time></trkpt><trkpt lat="39.31588200202948" lon="9.318542295806253"><ele>322.0</ele><time>2026-03-29T11:02:29.999Z</time></trkpt><trkpt lat="39.315773837493516" lon="9.318606673260756"><ele>322.0</ele><time>2026-03-29T11:02:30.999Z</time></trkpt><trkpt lat="39.315678723021655" lon="9.318677694359238"><ele>322.0</ele><time>2026-03-29T11:02:31.999Z</time></trkpt><trkpt lat="39.31559513673335" lon="9.31875694886296"><ele>322.0</ele><time>2026-03-29T11:02:32.999Z</time></trkpt><trkpt lat="39.31549662261922" lon="9.318839268310407"><ele>318.20000000000005</ele><time>2026-03-29T11:02:33.999Z</time></trkpt><trkpt lat="39.3153974032688" lon="9.318922395503176"><ele>314.40000000000003</ele><time>2026-03-29T11:02:34.999Z</time></trkpt><trkpt lat="39.315306667456326" lon="9.319006700310316"><ele>310.6</ele><time>2026-03-29T11:02:35.999Z</time></trkpt><trkpt lat="39.31522086371232" lon="9.31909225551858"><ele>306.8</ele><time>2026-03-29T11:02:36.999Z</time></trkpt><trkpt lat="39.31516109470807" lon="9.319162414560683"><ele>303.0</ele><time>2026-03-29T11:02:37.999Z</time></trkpt><trkpt lat="39.31505789605259" lon="9.319240428070293"><ele>303.0</ele><time>2026-03-29T11:02:38.999Z</time></trkpt><trkpt lat="39.314957344408356" lon="9.319325289424954"><ele>303.0</ele><time>2026-03-29T11:02:39.999Z</time></trkpt><trkpt lat="39.31485635231022" lon="9.319413123599118"><ele>303.0</ele><time>2026-03-29T11:02:40.999Z</time></trkpt><trkpt lat="39.31475284287181" lon="9.319499219862786"><ele>303.0</ele><time>2026-03-29T11:02:41.999Z</time></trkpt><trkpt lat="39.3146568724007" lon="9.319580546490673"><ele>301.6</ele><time>2026-03-29T11:02:42.999Z</time></trkpt><trkpt lat="39.31456986018558" lon="9.319648044502387"><ele>300.20000000000005</ele><time>2026-03-29T11:02:43.999Z</time></trkpt><trkpt lat="39.31447756075171" lon="9.319717636972523"><ele>298.8</ele><time>2026-03-29T11:02:44.998Z</time></trkpt><trkpt lat="39.314394969750765" lon="9.319779282239741"><ele>297.40000000000003</ele><time>2026-03-29T11:02:45.998Z</time></trkpt><trkpt lat="39.31431539827709" lon="9.3198470685614"><ele>296.0</ele><time>2026-03-29T11:02:46.998Z</time></trkpt><trkpt lat="39.31422205622373" lon="9.319904119653838"><ele>296.0</ele><time>2026-03-29T11:02:47.998Z</time></trkpt><trkpt lat="39.31414283118064" lon="9.319970919385238"><ele>296.0</ele><time>2026-03-29T11:02:48.998Z</time></trkpt><trkpt lat="39.314047916196294" lon="9.32004152027911"><ele>296.0</ele><time>2026-03-29T11:02:49.998Z</time></trkpt><trkpt lat="39.31396240334392" lon="9.32010438320081"><ele>296.0</ele><time>2026-03-29T11:02:50.998Z</time></trkpt><trkpt lat="39.31387651488819" lon="9.32017060593085"><ele>296.0</ele><time>2026-03-29T11:02:51.998Z</time></trkpt><trkpt lat="39.31378587873879" lon="9.320227298242056"><ele>293.2</ele><time>2026-03-29T11:02:52.998Z</time></trkpt><trkpt lat="39.31369963904521" lon="9.320290929922686"><ele>290.40000000000003</ele><time>2026-03-29T11:02:53.998Z</time></trkpt><trkpt lat="39.31361417040473" lon="9.320361143944654"><ele>287.6</ele><time>2026-03-29T11:02:54.998Z</time></trkpt><trkpt lat="39.31354065443482" lon="9.320423335554537"><ele>284.8</ele><time>2026-03-29T11:02:55.998Z</time></trkpt><trkpt lat="39.31347080545444" lon="9.320495694235506"><ele>282.0</ele><time>2026-03-29T11:02:56.998Z</time></trkpt><trkpt lat="39.31340547295971" lon="9.320580934700208"><ele>280.8</ele><time>2026-03-29T11:02:57.998Z</time></trkpt><trkpt lat="39.313352054064644" lon="9.320678920261381"><ele>279.6</ele><time>2026-03-29T11:02:58.998Z</time></trkpt><trkpt lat="39.31328895384192" lon="9.32078125182134"><ele>278.40000000000003</ele><time>2026-03-29T11:02:59.998Z</time></trkpt><trkpt lat="39.31320089641488" lon="9.320870926948345"><ele>277.2</ele><time>2026-03-29T11:03:00.998Z</time></trkpt><trkpt lat="39.313085140755916" lon="9.320958713116694"><ele>276.0</ele><time>2026-03-29T11:03:01.998Z</time></trkpt><trkpt lat="39.312976416399096" lon="9.321039162614012"><ele>273.0</ele><time>2026-03-29T11:03:02.998Z</time></trkpt><trkpt lat="39.31286872997187" lon="9.321126397848802"><ele>270.0</ele><time>2026-03-29T11:03:03.998Z</time></trkpt><trkpt lat="39.31275820377967" lon="9.321216952610547"><ele>267.0</ele><time>2026-03-29T11:03:04.998Z</time></trkpt><trkpt lat="39.31264317103749" lon="9.321297822936543"><ele>264.0</ele><time>2026-03-29T11:03:05.998Z</time></trkpt><trkpt lat="39.31252960966051" lon="9.321376217865673"><ele>263.4</ele><time>2026-03-29T11:03:06.998Z</time></trkpt><trkpt lat="39.31241938683591" lon="9.321451193339312"><ele>262.79999999999995</ele><time>2026-03-29T11:03:07.998Z</time></trkpt><trkpt lat="39.312331619487125" lon="9.321531362259734"><ele>262.20000000000005</ele><time>2026-03-29T11:03:08.998Z</time></trkpt><trkpt lat="39.31224483207604" lon="9.32162296627995"><ele>261.6</ele><time>2026-03-29T11:03:09.998Z</time></trkpt><trkpt lat="39.31217121693966" lon="9.32170818530601"><ele>261.0</ele><time>2026-03-29T11:03:10.998Z</time></trkpt><trkpt lat="39.31210803690553" lon="9.321773309706511"><ele>259.3333333333333</ele><time>2026-03-29T11:03:11.998Z</time></trkpt><trkpt lat="39.312033494684705" lon="9.321834144385928"><ele>257.6666666666667</ele><time>2026-03-29T11:03:12.998Z</time></trkpt><trkpt lat="39.31197405588485" lon="9.32189414789366"><ele>256.0</ele><time>2026-03-29T11:03:13.998Z</time></trkpt><trkpt lat="39.31192221736758" lon="9.321958871783417"><ele>254.33333333333334</ele><time>2026-03-29T11:03:14.998Z</time></trkpt><trkpt lat="39.311868378074124" lon="9.322027006202182"><ele>252.66666666666669</ele><time>2026-03-29T11:03:15.998Z</time></trkpt><trkpt lat="39.31180947476199" lon="9.322062235248179"><ele>251.0</ele><time>2026-03-29T11:03:16.998Z</time></trkpt><trkpt lat="39.311696644635965" lon="9.322029191018462"><ele>251.00000000000003</ele><time>2026-03-29T11:03:18.998Z</time></trkpt><trkpt lat="39.31163334305069" lon="9.321985148192715"><ele>251.0</ele><time>2026-03-29T11:03:19.998Z</time></trkpt><trkpt lat="39.3115846896088" lon="9.32192728884141"><ele>251.0</ele><time>2026-03-29T11:03:20.998Z</time></trkpt><trkpt lat="39.3115705203" lon="9.321810805430376"><ele>251.0</ele><time>2026-03-29T11:03:22.997Z</time></trkpt><trkpt lat="39.31158712045848" lon="9.321731219764928"><ele>251.00000000000003</ele><time>2026-03-29T11:03:23.997Z</time></trkpt><trkpt lat="39.311618848345205" lon="9.321640187512871"><ele>251.0</ele><time>2026-03-29T11:03:24.997Z</time></trkpt><trkpt lat="39.31166018368504" lon="9.321535223258492"><ele>251.0</ele><time>2026-03-29T11:03:25.997Z</time></trkpt><trkpt lat="39.31169721424876" lon="9.321419729839585"><ele>251.00000000000003</ele><time>2026-03-29T11:03:26.997Z</time></trkpt><trkpt lat="39.311726966373016" lon="9.321288212423498"><ele>251.00000000000003</ele><time>2026-03-29T11:03:27.997Z</time></trkpt><trkpt lat="39.311745192279425" lon="9.321171710368853"><ele>251.0</ele><time>2026-03-29T11:03:28.997Z</time></trkpt><trkpt lat="39.311764674044774" lon="9.321057142482372"><ele>251.0</ele><time>2026-03-29T11:03:29.997Z</time></trkpt><trkpt lat="39.31177584283882" lon="9.320948249119498"><ele>251.66666666666669</ele><time>2026-03-29T11:03:30.997Z</time></trkpt><trkpt lat="39.31179655324304" lon="9.320801591879809"><ele>252.33333333333334</ele><time>2026-03-29T11:03:32.997Z</time></trkpt><trkpt lat="39.31170700726416" lon="9.32076938560466"><ele>253.0</ele><time>2026-03-29T11:03:34.997Z</time></trkpt><trkpt lat="39.311650630987735" lon="9.320809371535349"><ele>253.66666666666669</ele><time>2026-03-29T11:03:35.997Z</time></trkpt><trkpt lat="39.31159672886807" lon="9.320886888233776"><ele>254.33333333333334</ele><time>2026-03-29T11:03:36.997Z</time></trkpt><trkpt lat="39.31153601136737" lon="9.320967957923049"><ele>255.0</ele><time>2026-03-29T11:03:37.997Z</time></trkpt><trkpt lat="39.31147324954512" lon="9.32106114878136"><ele>255.0</ele><time>2026-03-29T11:03:38.997Z</time></trkpt><trkpt lat="39.31142449408871" lon="9.32117063778592"><ele>255.0</ele><time>2026-03-29T11:03:39.997Z</time></trkpt><trkpt lat="39.311376543130486" lon="9.321268116051735"><ele>255.0</ele><time>2026-03-29T11:03:40.997Z</time></trkpt><trkpt lat="39.311330742523374" lon="9.321355223300612"><ele>255.0</ele><time>2026-03-29T11:03:41.997Z</time></trkpt><trkpt lat="39.31127285988798" lon="9.321435027510525"><ele>255.0</ele><time>2026-03-29T11:03:43Z</time></trkpt><trkpt lat="39.3111963811717" lon="9.321499246449097"><ele>255.0</ele><time>2026-03-29T11:03:44Z</time></trkpt><trkpt lat="39.311112901505375" lon="9.321571387591504"><ele>252.6</ele><time>2026-03-29T11:03:45Z</time></trkpt><trkpt lat="39.311033381861705" lon="9.32164040839756"><ele>250.2</ele><time>2026-03-29T11:03:46Z</time></trkpt><trkpt lat="39.310951228488406" lon="9.321723348107334"><ele>247.8</ele><time>2026-03-29T11:03:47Z</time></trkpt><trkpt lat="39.31089615425348" lon="9.321802764869595"><ele>245.4</ele><time>2026-03-29T11:03:48Z</time></trkpt><trkpt lat="39.31084185634209" lon="9.321910899750284"><ele>243.0</ele><time>2026-03-29T11:03:49Z</time></trkpt><trkpt lat="39.3107758719081" lon="9.322031412660856"><ele>243.0</ele><time>2026-03-29T11:03:50Z</time></trkpt><trkpt lat="39.31070567848939" lon="9.322139506768433"><ele>243.0</ele><time>2026-03-29T11:03:51Z</time></trkpt><trkpt lat="39.31063520833901" lon="9.322212012600009"><ele>243.0</ele><time>2026-03-29T11:03:52Z</time></trkpt><trkpt lat="39.310561551071544" lon="9.322270509491338"><ele>243.0</ele><time>2026-03-29T11:03:53Z</time></trkpt><trkpt lat="39.31049135274209" lon="9.322320220431958"><ele>243.0</ele><time>2026-03-29T11:03:54Z</time></trkpt><trkpt lat="39.31042253287866" lon="9.322382583946482"><ele>240.60000000000002</ele><time>2026-03-29T11:03:55Z</time></trkpt><trkpt lat="39.310360494212844" lon="9.322437219749046"><ele>238.20000000000002</ele><time>2026-03-29T11:03:56Z</time></trkpt><trkpt lat="39.310246463312254" lon="9.322427229080892"><ele>235.8</ele><time>2026-03-29T11:03:58Z</time></trkpt><trkpt lat="39.310166133751416" lon="9.322419963750248"><ele>233.4</ele><time>2026-03-29T11:03:59Z</time></trkpt><trkpt lat="39.310088551589985" lon="9.322393580945727"><ele>231.0</ele><time>2026-03-29T11:04:00Z</time></trkpt><trkpt lat="39.30999473838785" lon="9.322348244249342"><ele>231.0</ele><time>2026-03-29T11:04:01Z</time></trkpt><trkpt lat="39.30990960187041" lon="9.322294403649149"><ele>231.00000000000003</ele><time>2026-03-29T11:04:02Z</time></trkpt><trkpt lat="39.30981983030246" lon="9.322249251651655"><ele>231.00000000000003</ele><time>2026-03-29T11:04:03Z</time></trkpt><trkpt lat="39.30972922001855" lon="9.322208439177226"><ele>231.0</ele><time>2026-03-29T11:04:04Z</time></trkpt><trkpt lat="39.30961969850163" lon="9.322158022571859"><ele>231.0</ele><time>2026-03-29T11:04:05Z</time></trkpt><trkpt lat="39.30950340152044" lon="9.322105663298387"><ele>231.0</ele><time>2026-03-29T11:04:06Z</time></trkpt><trkpt lat="39.30942279563366" lon="9.322081163838119"><ele>231.00000000000003</ele><time>2026-03-29T11:04:07Z</time></trkpt><trkpt lat="39.30934533950643" lon="9.322018098850046"><ele>231.00000000000003</ele><time>2026-03-29T11:04:08Z</time></trkpt><trkpt lat="39.309247986296945" lon="9.321948368258347"><ele>231.0</ele><time>2026-03-29T11:04:10Z</time></trkpt><trkpt lat="39.30916183284432" lon="9.321840690587237"><ele>231.0</ele><time>2026-03-29T11:04:12Z</time></trkpt><trkpt lat="39.30910247398718" lon="9.321761302920422"><ele>231.0</ele><time>2026-03-29T11:04:12.999Z</time></trkpt><trkpt lat="39.30903816661113" lon="9.321717690326453"><ele>231.00000000000003</ele><time>2026-03-29T11:04:13.999Z</time></trkpt><trkpt lat="39.30895396004062" lon="9.32169008416821"><ele>231.00000000000003</ele><time>2026-03-29T11:04:14.999Z</time></trkpt><trkpt lat="39.30885414201566" lon="9.321666441253084"><ele>231.0</ele><time>2026-03-29T11:04:15.999Z</time></trkpt><trkpt lat="39.308759421733534" lon="9.321627595102003"><ele>231.0</ele><time>2026-03-29T11:04:16.999Z</time></trkpt><trkpt lat="39.30864817910171" lon="9.321569918763398"><ele>231.4</ele><time>2026-03-29T11:04:17.999Z</time></trkpt><trkpt lat="39.30855913977392" lon="9.321505772421988"><ele>231.8</ele><time>2026-03-29T11:04:18.999Z</time></trkpt><trkpt lat="39.308479125701105" lon="9.321498795200378"><ele>232.20000000000002</ele><time>2026-03-29T11:04:19.999Z</time></trkpt><trkpt lat="39.308380867013625" lon="9.321519056294125"><ele>232.60000000000002</ele><time>2026-03-29T11:04:20.999Z</time></trkpt><trkpt lat="39.30827325209299" lon="9.321533897184922"><ele>233.0</ele><time>2026-03-29T11:04:21.999Z</time></trkpt><trkpt lat="39.308171622646846" lon="9.321545050669487"><ele>232.0</ele><time>2026-03-29T11:04:22.999Z</time></trkpt><trkpt lat="39.30806274110296" lon="9.32152009814731"><ele>231.0</ele><time>2026-03-29T11:04:23.999Z</time></trkpt><trkpt lat="39.307966516242274" lon="9.32148153867942"><ele>230.0</ele><time>2026-03-29T11:04:24.999Z</time></trkpt><trkpt lat="39.30788533429037" lon="9.321404053327917"><ele>229.0</ele><time>2026-03-29T11:04:25.999Z</time></trkpt><trkpt lat="39.307789423447886" lon="9.32135782081395"><ele>228.0</ele><time>2026-03-29T11:04:26.999Z</time></trkpt><trkpt lat="39.30769861446181" lon="9.321306388259341"><ele>227.2</ele><time>2026-03-29T11:04:27.999Z</time></trkpt><trkpt lat="39.30761021481171" lon="9.32125823339548"><ele>226.4</ele><time>2026-03-29T11:04:28.999Z</time></trkpt><trkpt lat="39.30751593359683" lon="9.321224323202438"><ele>225.59999999999997</ele><time>2026-03-29T11:04:29.999Z</time></trkpt><trkpt lat="39.30742077132433" lon="9.321191012545967"><ele>224.79999999999998</ele><time>2026-03-29T11:04:30.999Z</time></trkpt><trkpt lat="39.30734233480644" lon="9.321158600487474"><ele>224.0</ele><time>2026-03-29T11:04:31.999Z</time></trkpt><trkpt lat="39.30727121146384" lon="9.321106456312966"><ele>223.50000000000003</ele><time>2026-03-29T11:04:32.999Z</time></trkpt><trkpt lat="39.307201253160336" lon="9.321081212118106"><ele>223.0</ele><time>2026-03-29T11:04:33.999Z</time></trkpt><trkpt lat="39.307127856982696" lon="9.321148954364814"><ele>222.5</ele><time>2026-03-29T11:04:35.999Z</time></trkpt><trkpt lat="39.307121928354285" lon="9.3210670630749"><ele>222.0</ele><time>2026-03-29T11:04:40.999Z</time></trkpt><trkpt lat="39.307140922312925" lon="9.320976267304081"><ele>221.50000000000003</ele><time>2026-03-29T11:04:42.999Z</time></trkpt><trkpt lat="39.30706507209499" lon="9.320885142841671"><ele>221.0</ele><time>2026-03-29T11:04:44.999Z</time></trkpt><trkpt lat="39.30695391088631" lon="9.32091961825697"><ele>221.0</ele><time>2026-03-29T11:04:46.999Z</time></trkpt><trkpt lat="39.30689873620139" lon="9.320960347834488"><ele>221.00000000000003</ele><time>2026-03-29T11:04:47.999Z</time></trkpt><trkpt lat="39.30680134907321" lon="9.321002839567276"><ele>221.00000000000003</ele><time>2026-03-29T11:04:48.999Z</time></trkpt><trkpt lat="39.30669214890375" lon="9.321076250470018"><ele>221.0</ele><time>2026-03-29T11:04:49.998Z</time></trkpt><trkpt lat="39.306582899963104" lon="9.32114563757092"><ele>221.0</ele><time>2026-03-29T11:04:50.998Z</time></trkpt><trkpt lat="39.306482929647665" lon="9.32119497045442"><ele>220.16666666666669</ele><time>2026-03-29T11:04:51.998Z</time></trkpt><trkpt lat="39.30639441100589" lon="9.321225011240045"><ele>219.33333333333334</ele><time>2026-03-29T11:04:52.998Z</time></trkpt><trkpt lat="39.30631271471554" lon="9.321223888185049"><ele>218.5</ele><time>2026-03-29T11:04:53.998Z</time></trkpt><trkpt lat="39.30625269874819" lon="9.321182625026662"><ele>217.66666666666669</ele><time>2026-03-29T11:04:54.998Z</time></trkpt><trkpt lat="39.30621910195139" lon="9.321110105049343"><ele>216.83333333333334</ele><time>2026-03-29T11:04:55.998Z</time></trkpt><trkpt lat="39.306204613352975" lon="9.321020927786574"><ele>216.0</ele><time>2026-03-29T11:04:56.998Z</time></trkpt><trkpt lat="39.306192344093326" lon="9.32091872170702"><ele>216.0</ele><time>2026-03-29T11:04:57.998Z</time></trkpt><trkpt lat="39.306162439939115" lon="9.320832633213998"><ele>216.00000000000003</ele><time>2026-03-29T11:04:58.998Z</time></trkpt><trkpt lat="39.30612723588928" lon="9.320716703756524"><ele>216.00000000000003</ele><time>2026-03-29T11:04:59.998Z</time></trkpt><trkpt lat="39.30612053084765" lon="9.320554538531402"><ele>216.0</ele><time>2026-03-29T11:05:00.998Z</time></trkpt><trkpt lat="39.306091836124985" lon="9.320409188030956"><ele>216.0</ele><time>2026-03-29T11:05:01.998Z</time></trkpt><trkpt lat="39.306061185681735" lon="9.320283817548598"><ele>217.20000000000002</ele><time>2026-03-29T11:05:02.998Z</time></trkpt><trkpt lat="39.30602896903592" lon="9.32018245324717"><ele>218.40000000000003</ele><time>2026-03-29T11:05:03.998Z</time></trkpt><trkpt lat="39.30598294553524" lon="9.320090430761821"><ele>219.6</ele><time>2026-03-29T11:05:04.998Z</time></trkpt><trkpt lat="39.30591786653198" lon="9.32000995004208"><ele>220.8</ele><time>2026-03-29T11:05:05.998Z</time></trkpt><trkpt lat="39.30583560483988" lon="9.319950259305806"><ele>222.0</ele><time>2026-03-29T11:05:06.998Z</time></trkpt><trkpt lat="39.3057346497183" lon="9.31990532488411"><ele>222.0</ele><time>2026-03-29T11:05:07.998Z</time></trkpt><trkpt lat="39.305641513906586" lon="9.31985956986033"><ele>222.0</ele><time>2026-03-29T11:05:08.998Z</time></trkpt><trkpt lat="39.30553827771227" lon="9.319792660165174"><ele>222.0</ele><time>2026-03-29T11:05:09.998Z</time></trkpt><trkpt lat="39.30544481261414" lon="9.319712658912099"><ele>222.0</ele><time>2026-03-29T11:05:10.998Z</time></trkpt><trkpt lat="39.30538085345533" lon="9.319614170162831"><ele>222.0</ele><time>2026-03-29T11:05:11.998Z</time></trkpt><trkpt lat="39.30534676301237" lon="9.31951592700892"><ele>221.0</ele><time>2026-03-29T11:05:12.998Z</time></trkpt><trkpt lat="39.3053101750733" lon="9.319380668361752"><ele>220.0</ele><time>2026-03-29T11:05:13.998Z</time></trkpt><trkpt lat="39.30526318455771" lon="9.319237919451256"><ele>219.0</ele><time>2026-03-29T11:05:14.998Z</time></trkpt><trkpt lat="39.30521343668016" lon="9.319110198657679"><ele>218.0</ele><time>2026-03-29T11:05:15.998Z</time></trkpt><trkpt lat="39.30516396956294" lon="9.31898460253216"><ele>219.4</ele><time>2026-03-29T11:05:16.998Z</time></trkpt><trkpt lat="39.30510995645641" lon="9.318870961816739"><ele>220.8</ele><time>2026-03-29T11:05:17.998Z</time></trkpt><trkpt lat="39.305059570658415" lon="9.318711078888711"><ele>222.2</ele><time>2026-03-29T11:05:19.998Z</time></trkpt><trkpt lat="39.305093965982834" lon="9.318588030474407"><ele>223.6</ele><time>2026-03-29T11:05:21.998Z</time></trkpt><trkpt lat="39.30513929106537" lon="9.31852651490099"><ele>225.0</ele><time>2026-03-29T11:05:22.998Z</time></trkpt><trkpt lat="39.305209753939856" lon="9.318475944553771"><ele>225.0</ele><time>2026-03-29T11:05:23.998Z</time></trkpt><trkpt lat="39.30529385193339" lon="9.318421945838338"><ele>225.0</ele><time>2026-03-29T11:05:24.998Z</time></trkpt><trkpt lat="39.305380098882466" lon="9.318349448749377"><ele>225.0</ele><time>2026-03-29T11:05:25.998Z</time></trkpt><trkpt lat="39.30545203853647" lon="9.318273315737782"><ele>225.0</ele><time>2026-03-29T11:05:26.998Z</time></trkpt><trkpt lat="39.305505722506915" lon="9.318190318530965"><ele>225.0</ele><time>2026-03-29T11:05:27.997Z</time></trkpt><trkpt lat="39.30554894370233" lon="9.318091235881322"><ele>227.2</ele><time>2026-03-29T11:05:28.997Z</time></trkpt><trkpt lat="39.3055865561255" lon="9.3179805617145"><ele>229.4</ele><time>2026-03-29T11:05:29.997Z</time></trkpt><trkpt lat="39.305605709217005" lon="9.317857744704913"><ele>231.60000000000002</ele><time>2026-03-29T11:05:30.997Z</time></trkpt><trkpt lat="39.30561012673619" lon="9.317734548401635"><ele>233.8</ele><time>2026-03-29T11:05:31.997Z</time></trkpt><trkpt lat="39.30560643343268" lon="9.31758756308117"><ele>236.0</ele><time>2026-03-29T11:05:32.997Z</time></trkpt><trkpt lat="39.30559011483796" lon="9.317460981219693"><ele>236.0</ele><time>2026-03-29T11:05:33.997Z</time></trkpt><trkpt lat="39.305580794785534" lon="9.317350150613294"><ele>236.00000000000003</ele><time>2026-03-29T11:05:34.997Z</time></trkpt><trkpt lat="39.30558249629725" lon="9.31722885025809"><ele>236.00000000000003</ele><time>2026-03-29T11:05:36.997Z</time></trkpt><trkpt lat="39.30558748595563" lon="9.317125693937445"><ele>236.0</ele><time>2026-03-29T11:05:38.997Z</time></trkpt><trkpt lat="39.30554382366779" lon="9.31701189755161"><ele>236.0</ele><time>2026-03-29T11:05:40.997Z</time></trkpt><trkpt lat="39.30543615827445" lon="9.316901223129994"><ele>236.8</ele><time>2026-03-29T11:05:42.997Z</time></trkpt><trkpt lat="39.3053652309627" lon="9.31684346521228"><ele>237.60000000000002</ele><time>2026-03-29T11:05:43.997Z</time></trkpt><trkpt lat="39.30531779133199" lon="9.316788521964268"><ele>238.4</ele><time>2026-03-29T11:05:44.997Z</time></trkpt><trkpt lat="39.30527750174237" lon="9.316677233722409"><ele>239.2</ele><time>2026-03-29T11:05:45.997Z</time></trkpt><trkpt lat="39.30525471721454" lon="9.316536605572582"><ele>240.0</ele><time>2026-03-29T11:05:46.997Z</time></trkpt><trkpt lat="39.30524251093061" lon="9.316402127576254"><ele>240.66666666666666</ele><time>2026-03-29T11:05:47.997Z</time></trkpt><trkpt lat="39.30523209609458" lon="9.31626042400607"><ele>241.33333333333331</ele><time>2026-03-29T11:05:49Z</time></trkpt><trkpt lat="39.30520994413231" lon="9.316156169715605"><ele>242.0</ele><time>2026-03-29T11:05:50Z</time></trkpt><trkpt lat="39.305157944124495" lon="9.31608292501918"><ele>242.66666666666666</ele><time>2026-03-29T11:05:51Z</time></trkpt><trkpt lat="39.305090397854485" lon="9.316046132267168"><ele>243.33333333333331</ele><time>2026-03-29T11:05:52Z</time></trkpt><trkpt lat="39.30500905895213" lon="9.316025836139923"><ele>244.0</ele><time>2026-03-29T11:05:53Z</time></trkpt><trkpt lat="39.3049125543721" lon="9.315999849291364"><ele>243.99999999999997</ele><time>2026-03-29T11:05:54Z</time></trkpt><trkpt lat="39.304823033845736" lon="9.315981934431884"><ele>244.0</ele><time>2026-03-29T11:05:55Z</time></trkpt><trkpt lat="39.30473120145448" lon="9.315947384058656"><ele>244.0</ele><time>2026-03-29T11:05:56Z</time></trkpt><trkpt lat="39.30464873925374" lon="9.315900094208548"><ele>244.0</ele><time>2026-03-29T11:05:57Z</time></trkpt><trkpt lat="39.304580698375254" lon="9.315837423281478"><ele>243.99999999999997</ele><time>2026-03-29T11:05:58Z</time></trkpt><trkpt lat="39.30453722727286" lon="9.315775734123667"><ele>244.0</ele><time>2026-03-29T11:05:59Z</time></trkpt><trkpt lat="39.304494128239256" lon="9.315654616033997"><ele>245.2</ele><time>2026-03-29T11:06:00Z</time></trkpt><trkpt lat="39.304450387769165" lon="9.31555846994694"><ele>246.39999999999998</ele><time>2026-03-29T11:06:01Z</time></trkpt><trkpt lat="39.30441164244752" lon="9.315453475986233"><ele>247.6</ele><time>2026-03-29T11:06:02Z</time></trkpt><trkpt lat="39.304371045906926" lon="9.31534035753008"><ele>248.8</ele><time>2026-03-29T11:06:03Z</time></trkpt><trkpt lat="39.30432781009511" lon="9.315227119050357"><ele>250.0</ele><time>2026-03-29T11:06:04Z</time></trkpt><trkpt lat="39.30428477187752" lon="9.315113948737533"><ele>249.99999999999997</ele><time>2026-03-29T11:06:05Z</time></trkpt><trkpt lat="39.30424760937724" lon="9.315010421619188"><ele>250.0</ele><time>2026-03-29T11:06:06Z</time></trkpt><trkpt lat="39.30421108086125" lon="9.31491825457261"><ele>250.0</ele><time>2026-03-29T11:06:07Z</time></trkpt><trkpt lat="39.304179877917484" lon="9.314838487201003"><ele>250.0</ele><time>2026-03-29T11:06:08Z</time></trkpt><trkpt lat="39.30415600145512" lon="9.314760596862518"><ele>249.99999999999997</ele><time>2026-03-29T11:06:09Z</time></trkpt><trkpt lat="39.30412942896905" lon="9.314654819343005"><ele>250.0</ele><time>2026-03-29T11:06:12Z</time></trkpt><trkpt lat="39.304078492771204" lon="9.314589801845228"><ele>250.16666666666666</ele><time>2026-03-29T11:06:50.999Z</time></trkpt><trkpt lat="39.30398058649557" lon="9.314556260363826"><ele>250.33333333333331</ele><time>2026-03-29T11:06:54.999Z</time></trkpt><trkpt lat="39.303897011384464" lon="9.31454141484328"><ele>250.5</ele><time>2026-03-29T11:06:56.998Z</time></trkpt><trkpt lat="39.303860650454354" lon="9.314618037888758"><ele>250.66666666666669</ele><time>2026-03-29T11:06:58.998Z</time></trkpt><trkpt lat="39.30384831942951" lon="9.31473573742923"><ele>250.83333333333334</ele><time>2026-03-29T11:07:01.998Z</time></trkpt><trkpt lat="39.30380227768098" lon="9.314849652260014"><ele>251.0</ele><time>2026-03-29T11:07:03.998Z</time></trkpt><trkpt lat="39.30380810405322" lon="9.31495216414973"><ele>253.4</ele><time>2026-03-29T11:07:05.998Z</time></trkpt><trkpt lat="39.30387254084015" lon="9.315068380518634"><ele>255.8</ele><time>2026-03-29T11:07:07.998Z</time></trkpt><trkpt lat="39.303903326291405" lon="9.315188132360957"><ele>258.20000000000005</ele><time>2026-03-29T11:07:09.998Z</time></trkpt><trkpt lat="39.303870848255826" lon="9.315273358460244"><ele>260.6</ele><time>2026-03-29T11:07:10.998Z</time></trkpt><trkpt lat="39.303844331539075" lon="9.315367776243468"><ele>263.0</ele><time>2026-03-29T11:07:11.998Z</time></trkpt><trkpt lat="39.30380891267908" lon="9.31547770886271"><ele>263.2</ele><time>2026-03-29T11:07:12.998Z</time></trkpt><trkpt lat="39.30381308604511" lon="9.315631149131205"><ele>263.4</ele><time>2026-03-29T11:07:14.998Z</time></trkpt><trkpt lat="39.30381364669242" lon="9.315752350273087"><ele>263.59999999999997</ele><time>2026-03-29T11:07:16.998Z</time></trkpt><trkpt lat="39.30380681582915" lon="9.315876486011483"><ele>263.8</ele><time>2026-03-29T11:07:17.998Z</time></trkpt><trkpt lat="39.30378395514045" lon="9.315989373117409"><ele>264.0</ele><time>2026-03-29T11:07:18.998Z</time></trkpt><trkpt lat="39.30376219673913" lon="9.316094470833532"><ele>264.0</ele><time>2026-03-29T11:07:19.998Z</time></trkpt><trkpt lat="39.30373381121354" lon="9.31623806926379"><ele>264.0</ele><time>2026-03-29T11:07:21.998Z</time></trkpt><trkpt lat="39.30374266173701" lon="9.316362282700851"><ele>264.0</ele><time>2026-03-29T11:07:23.998Z</time></trkpt><trkpt lat="39.303808227682104" lon="9.31636731562241"><ele>264.0</ele><time>2026-03-29T11:07:25.998Z</time></trkpt><trkpt lat="39.30384199740139" lon="9.316461841607143"><ele>264.0</ele><time>2026-03-29T11:07:28.998Z</time></trkpt><trkpt lat="39.30407798695854" lon="9.31697894780424"><ele>262.42857142857144</ele><time>2026-03-29T11:07:31.998Z</time></trkpt><trkpt lat="39.304154736753304" lon="9.316962718621287"><ele>260.8571428571429</ele><time>2026-03-29T11:07:32.998Z</time></trkpt><trkpt lat="39.30422897638571" lon="9.31696962410984"><ele>259.28571428571433</ele><time>2026-03-29T11:07:33.998Z</time></trkpt><trkpt lat="39.30429198670213" lon="9.316976702411438"><ele>257.7142857142857</ele><time>2026-03-29T11:07:34.997Z</time></trkpt><trkpt lat="39.304299632033015" lon="9.317081632182934"><ele>256.14285714285717</ele><time>2026-03-29T11:07:38.997Z</time></trkpt><trkpt lat="39.30424418558861" lon="9.317150045803398"><ele>254.5714285714286</ele><time>2026-03-29T11:07:40.997Z</time></trkpt><trkpt lat="39.30417994559015" lon="9.317183500440699"><ele>253.00000000000003</ele><time>2026-03-29T11:07:41.997Z</time></trkpt><trkpt lat="39.30410701224647" lon="9.317214914707678"><ele>252.60000000000002</ele><time>2026-03-29T11:07:42.997Z</time></trkpt><trkpt lat="39.3040163505397" lon="9.317271409472788"><ele>252.20000000000002</ele><time>2026-03-29T11:07:44.997Z</time></trkpt><trkpt lat="39.303969930339086" lon="9.31736168944548"><ele>251.8</ele><time>2026-03-29T11:07:47.997Z</time></trkpt><trkpt lat="39.30391363281212" lon="9.317471193407139"><ele>251.4</ele><time>2026-03-29T11:07:49.997Z</time></trkpt><trkpt lat="39.3038245514084" lon="9.317561494638268"><ele>251.0</ele><time>2026-03-29T11:07:51.997Z</time></trkpt><trkpt lat="39.303749176541395" lon="9.317624636566888"><ele>255.8</ele><time>2026-03-29T11:07:52.997Z</time></trkpt><trkpt lat="39.30367884343045" lon="9.317678674941696"><ele>260.6</ele><time>2026-03-29T11:07:53.997Z</time></trkpt><trkpt lat="39.30361026596065" lon="9.317735824940724"><ele>265.4</ele><time>2026-03-29T11:07:55Z</time></trkpt><trkpt lat="39.30354185946545" lon="9.317808509353258"><ele>270.2</ele><time>2026-03-29T11:07:56Z</time></trkpt><trkpt lat="39.30349264684819" lon="9.317885214462452"><ele>275.0</ele><time>2026-03-29T11:07:57Z</time></trkpt><trkpt lat="39.303576348392134" lon="9.318035229268997"><ele>272.5</ele><time>2026-03-29T11:07:58Z</time></trkpt><trkpt lat="39.30360173021455" lon="9.318123318379481"><ele>270.0</ele><time>2026-03-29T11:07:59Z</time></trkpt><trkpt lat="39.303630294156186" lon="9.318210618578378"><ele>267.5</ele><time>2026-03-29T11:08:00Z</time></trkpt><trkpt lat="39.303592156254176" lon="9.318331662781121"><ele>265.0</ele><time>2026-03-29T11:08:02Z</time></trkpt><trkpt lat="39.30353026631448" lon="9.31837133901789"><ele>262.5</ele><time>2026-03-29T11:08:03Z</time></trkpt><trkpt lat="39.303460182078226" lon="9.318363235618884"><ele>260.0</ele><time>2026-03-29T11:08:04Z</time></trkpt><trkpt lat="39.3033912066032" lon="9.31837504936111"><ele>260.0</ele><time>2026-03-29T11:08:05Z</time></trkpt><trkpt lat="39.30329321652035" lon="9.318413015282637"><ele>260.0</ele><time>2026-03-29T11:08:06Z</time></trkpt><trkpt lat="39.30320922999156" lon="9.31846007630534"><ele>260.0</ele><time>2026-03-29T11:08:07Z</time></trkpt><trkpt lat="39.30312480619245" lon="9.318558600732635"><ele>260.0</ele><time>2026-03-29T11:08:08Z</time></trkpt><trkpt lat="39.30299011005012" lon="9.318636733820155"><ele>261.6</ele><time>2026-03-29T11:08:09Z</time></trkpt><trkpt lat="39.30288803273044" lon="9.318704113485758"><ele>263.2</ele><time>2026-03-29T11:08:10Z</time></trkpt><trkpt lat="39.30281480602255" lon="9.318769914150696"><ele>264.8</ele><time>2026-03-29T11:08:11Z</time></trkpt><trkpt lat="39.30274408038375" lon="9.318812712099017"><ele>266.4</ele><time>2026-03-29T11:08:12Z</time></trkpt><trkpt lat="39.3026593518361" lon="9.318837106630486"><ele>268.0</ele><time>2026-03-29T11:08:13Z</time></trkpt><trkpt lat="39.302582092830384" lon="9.318873942540122"><ele>263.2</ele><time>2026-03-29T11:08:14Z</time></trkpt><trkpt lat="39.30247488318129" lon="9.318985293804637"><ele>258.4</ele><time>2026-03-29T11:08:16Z</time></trkpt><trkpt lat="39.302402923523395" lon="9.319031267342394"><ele>253.59999999999997</ele><time>2026-03-29T11:08:17Z</time></trkpt><trkpt lat="39.30232547558395" lon="9.319061539105014"><ele>248.79999999999998</ele><time>2026-03-29T11:08:18Z</time></trkpt><trkpt lat="39.302242683018946" lon="9.319081163216268"><ele>244.0</ele><time>2026-03-29T11:08:19Z</time></trkpt><trkpt lat="39.3021679753413" lon="9.319087766966804"><ele>243.99999999999997</ele><time>2026-03-29T11:08:20Z</time></trkpt><trkpt lat="39.30209570605629" lon="9.319077745097232"><ele>244.0</ele><time>2026-03-29T11:08:21Z</time></trkpt><trkpt lat="39.3020178387804" lon="9.319042842994323"><ele>244.0</ele><time>2026-03-29T11:08:22Z</time></trkpt><trkpt lat="39.3019388461341" lon="9.31900390460594"><ele>244.0</ele><time>2026-03-29T11:08:23Z</time></trkpt><trkpt lat="39.30186388479239" lon="9.318976391991743"><ele>243.99999999999997</ele><time>2026-03-29T11:08:24Z</time></trkpt><trkpt lat="39.30179826498983" lon="9.318949373269993"><ele>244.0</ele><time>2026-03-29T11:08:25Z</time></trkpt><trkpt lat="39.30168266741805" lon="9.319011627365128"><ele>243.99999999999997</ele><time>2026-03-29T11:08:26.999Z</time></trkpt><trkpt lat="39.30163464627926" lon="9.319085432254909"><ele>244.0</ele><time>2026-03-29T11:08:27.999Z</time></trkpt><trkpt lat="39.3015937712302" lon="9.319185185618272"><ele>244.0</ele><time>2026-03-29T11:08:28.999Z</time></trkpt><trkpt lat="39.301546767944885" lon="9.319284250136588"><ele>244.0</ele><time>2026-03-29T11:08:29.999Z</time></trkpt><trkpt lat="39.30148342041576" lon="9.319372351740977"><ele>243.99999999999997</ele><time>2026-03-29T11:08:30.999Z</time></trkpt><trkpt lat="39.301435803833186" lon="9.319448620687053"><ele>244.0</ele><time>2026-03-29T11:08:31.999Z</time></trkpt><trkpt lat="39.30139072184765" lon="9.31952871108701"><ele>242.57142857142856</ele><time>2026-03-29T11:08:32.999Z</time></trkpt><trkpt lat="39.301343952609194" lon="9.319612457322664"><ele>241.14285714285714</ele><time>2026-03-29T11:08:33.999Z</time></trkpt><trkpt lat="39.30130174008449" lon="9.319685403905382"><ele>239.71428571428572</ele><time>2026-03-29T11:08:34.999Z</time></trkpt><trkpt lat="39.301250541871944" lon="9.319745015347596"><ele>238.28571428571428</ele><time>2026-03-29T11:08:35.999Z</time></trkpt><trkpt lat="39.301200153276" lon="9.319805592284643"><ele>236.8571428571429</ele><time>2026-03-29T11:08:36.999Z</time></trkpt><trkpt lat="39.30115172711157" lon="9.319875065399879"><ele>235.42857142857144</ele><time>2026-03-29T11:08:37.999Z</time></trkpt><trkpt lat="39.301116527175814" lon="9.319947710507734"><ele>234.0</ele><time>2026-03-29T11:08:38.999Z</time></trkpt><trkpt lat="39.3010873813921" lon="9.32003803320646"><ele>233.5</ele><time>2026-03-29T11:08:39.999Z</time></trkpt><trkpt lat="39.3010503512447" lon="9.320145258062947"><ele>233.0</ele><time>2026-03-29T11:08:40.999Z</time></trkpt><trkpt lat="39.301030317755725" lon="9.320238476831792"><ele>232.5</ele><time>2026-03-29T11:08:41.999Z</time></trkpt><trkpt lat="39.30100241954271" lon="9.320327426484914"><ele>232.0</ele><time>2026-03-29T11:08:42.999Z</time></trkpt><trkpt lat="39.300956457115035" lon="9.32041116676809"><ele>231.5</ele><time>2026-03-29T11:08:43.999Z</time></trkpt><trkpt lat="39.30089914218229" lon="9.32050625059413"><ele>231.0</ele><time>2026-03-29T11:08:44.999Z</time></trkpt><trkpt lat="39.30085740914163" lon="9.320595782257737"><ele>229.33333333333334</ele><time>2026-03-29T11:08:45.999Z</time></trkpt><trkpt lat="39.30080919200084" lon="9.320690812155652"><ele>227.66666666666669</ele><time>2026-03-29T11:08:46.999Z</time></trkpt><trkpt lat="39.30075935062282" lon="9.320756164818574"><ele>226.0</ele><time>2026-03-29T11:08:47.999Z</time></trkpt><trkpt lat="39.300687021036374" lon="9.320788326278032"><ele>224.33333333333334</ele><time>2026-03-29T11:08:49.999Z</time></trkpt><trkpt lat="39.30061296442555" lon="9.320707235445768"><ele>222.66666666666669</ele><time>2026-03-29T11:08:53.999Z</time></trkpt><trkpt lat="39.30058801703817" lon="9.320575464389556"><ele>221.0</ele><time>2026-03-29T11:08:55.999Z</time></trkpt><trkpt lat="39.30053496635881" lon="9.32042534021992"><ele>219.33333333333334</ele><time>2026-03-29T11:08:57.999Z</time></trkpt><trkpt lat="39.30046316247744" lon="9.320357065160614"><ele>217.66666666666669</ele><time>2026-03-29T11:08:58.999Z</time></trkpt><trkpt lat="39.30039559923418" lon="9.320308676942867"><ele>216.0</ele><time>2026-03-29T11:08:59.999Z</time></trkpt><trkpt lat="39.30033914940536" lon="9.320243218254712"><ele>214.33333333333331</ele><time>2026-03-29T11:09:00.999Z</time></trkpt><trkpt lat="39.300336528276596" lon="9.320074756418256"><ele>212.66666666666666</ele><time>2026-03-29T11:09:01.999Z</time></trkpt><trkpt lat="39.30030351139393" lon="9.319985287766677"><ele>211.0</ele><time>2026-03-29T11:09:02.999Z</time></trkpt><trkpt lat="39.30026415118628" lon="9.319893805368983"><ele>210.99999999999997</ele><time>2026-03-29T11:09:03.998Z</time></trkpt><trkpt lat="39.30023911309529" lon="9.319813904476343"><ele>211.0</ele><time>2026-03-29T11:09:04.998Z</time></trkpt><trkpt lat="39.30023439015504" lon="9.319725677198571"><ele>211.0</ele><time>2026-03-29T11:09:05.998Z</time></trkpt><trkpt lat="39.30024308687875" lon="9.319615123372003"><ele>211.0</ele><time>2026-03-29T11:09:06.998Z</time></trkpt><trkpt lat="39.3002437268954" lon="9.319501977748141"><ele>210.99999999999997</ele><time>2026-03-29T11:09:07.998Z</time></trkpt><trkpt lat="39.30024661790948" lon="9.319367272213137"><ele>211.0</ele><time>2026-03-29T11:09:08.998Z</time></trkpt><trkpt lat="39.30023923455095" lon="9.319254840585796"><ele>211.60000000000002</ele><time>2026-03-29T11:09:09.998Z</time></trkpt><trkpt lat="39.30027208605027" lon="9.319143839186172"><ele>212.2</ele><time>2026-03-29T11:09:11.998Z</time></trkpt><trkpt lat="39.30031159923186" lon="9.319066799262265"><ele>212.79999999999998</ele><time>2026-03-29T11:09:13.998Z</time></trkpt><trkpt lat="39.300367811825566" lon="9.318909229919102"><ele>213.39999999999998</ele><time>2026-03-29T11:09:15.998Z</time></trkpt><trkpt lat="39.30037970595305" lon="9.318757661897004"><ele>214.0</ele><time>2026-03-29T11:09:17.998Z</time></trkpt><trkpt lat="39.300357394439686" lon="9.318664386648956"><ele>214.39999999999998</ele><time>2026-03-29T11:09:18.998Z</time></trkpt><trkpt lat="39.30038029733081" lon="9.318502285843149"><ele>214.79999999999998</ele><time>2026-03-29T11:09:20.998Z</time></trkpt><trkpt lat="39.3004104986156" lon="9.318409717259977"><ele>215.20000000000002</ele><time>2026-03-29T11:09:21.998Z</time></trkpt><trkpt lat="39.30044445920921" lon="9.318332043691784"><ele>215.60000000000002</ele><time>2026-03-29T11:09:22.998Z</time></trkpt><trkpt lat="39.300540448537944" lon="9.318216919157022"><ele>216.0</ele><time>2026-03-29T11:09:24.998Z</time></trkpt><trkpt lat="39.30061700589021" lon="9.318098291896597"><ele>216.0</ele><time>2026-03-29T11:09:26.998Z</time></trkpt><trkpt lat="39.300566738238714" lon="9.318011768032454"><ele>216.00000000000003</ele><time>2026-03-29T11:09:29.998Z</time></trkpt><trkpt lat="39.30049457104985" lon="9.318058352104098"><ele>216.00000000000003</ele><time>2026-03-29T11:09:31.998Z</time></trkpt><trkpt lat="39.3004120056615" lon="9.318134304088815"><ele>216.0</ele><time>2026-03-29T11:09:33.998Z</time></trkpt><trkpt lat="39.30032137234638" lon="9.31821384864917"><ele>216.0</ele><time>2026-03-29T11:09:34.998Z</time></trkpt><trkpt lat="39.30022463319821" lon="9.318265139455713"><ele>216.0</ele><time>2026-03-29T11:09:35.998Z</time></trkpt><trkpt lat="39.300153147894896" lon="9.318304377695283"><ele>216.00000000000003</ele><time>2026-03-29T11:09:36.998Z</time></trkpt><trkpt lat="39.300017219919376" lon="9.318315720019505"><ele>216.00000000000003</ele><time>2026-03-29T11:09:38.998Z</time></trkpt><trkpt lat="39.29992156403671" lon="9.318293671488139"><ele>216.0</ele><time>2026-03-29T11:09:39.998Z</time></trkpt><trkpt lat="39.299826496835166" lon="9.318293899462867"><ele>216.0</ele><time>2026-03-29T11:09:40.998Z</time></trkpt><trkpt lat="39.29976036406069" lon="9.318332863277734"><ele>216.0</ele><time>2026-03-29T11:09:41.997Z</time></trkpt><trkpt lat="39.29972377390515" lon="9.318439208754414"><ele>216.0</ele><time>2026-03-29T11:09:43.997Z</time></trkpt><trkpt lat="39.299760670173065" lon="9.318529525375784"><ele>216.0</ele><time>2026-03-29T11:09:45.997Z</time></trkpt><trkpt lat="39.29971137226162" lon="9.318636476618355"><ele>216.0</ele><time>2026-03-29T11:09:47.997Z</time></trkpt><trkpt lat="39.299702595100406" lon="9.318718125889"><ele>216.0</ele><time>2026-03-29T11:09:49.997Z</time></trkpt><trkpt lat="39.299733281513326" lon="9.318822822344108"><ele>216.0</ele><time>2026-03-29T11:09:51.997Z</time></trkpt><trkpt lat="39.299715253219105" lon="9.318914318799633"><ele>218.8</ele><time>2026-03-29T11:09:52.997Z</time></trkpt><trkpt lat="39.299599600254204" lon="9.319050082204123"><ele>221.60000000000002</ele><time>2026-03-29T11:09:53.997Z</time></trkpt><trkpt lat="39.29954993533137" lon="9.319152858835212"><ele>224.4</ele><time>2026-03-29T11:09:54.997Z</time></trkpt><trkpt lat="39.299545948183294" lon="9.319235475602792"><ele>227.2</ele><time>2026-03-29T11:09:55.997Z</time></trkpt><trkpt lat="39.299508929288095" lon="9.319362294678145"><ele>230.0</ele><time>2026-03-29T11:09:56.997Z</time></trkpt><trkpt lat="39.29944441061774" lon="9.31947443203085"><ele>230.0</ele><time>2026-03-29T11:09:57.997Z</time></trkpt><trkpt lat="39.29940461479317" lon="9.319596388370046"><ele>230.0</ele><time>2026-03-29T11:09:58.997Z</time></trkpt><trkpt lat="39.29936907908176" lon="9.319728993188365"><ele>230.0</ele><time>2026-03-29T11:09:59.997Z</time></trkpt><trkpt lat="39.299347307061915" lon="9.31986341181231"><ele>230.0</ele><time>2026-03-29T11:10:01Z</time></trkpt><trkpt lat="39.299325577900674" lon="9.319955332415272"><ele>230.0</ele><time>2026-03-29T11:10:02Z</time></trkpt><trkpt lat="39.29930858304504" lon="9.320055246193975"><ele>230.50000000000003</ele><time>2026-03-29T11:10:03Z</time></trkpt><trkpt lat="39.29925698018908" lon="9.320144489056215"><ele>231.0</ele><time>2026-03-29T11:10:04Z</time></trkpt><trkpt lat="39.29919965280729" lon="9.320207035565376"><ele>231.5</ele><time>2026-03-29T11:10:05Z</time></trkpt><trkpt lat="39.29913729618135" lon="9.320245514688327"><ele>232.0</ele><time>2026-03-29T11:10:06Z</time></trkpt><trkpt lat="39.29904993477575" lon="9.32028617498542"><ele>232.50000000000003</ele><time>2026-03-29T11:10:07Z</time></trkpt><trkpt lat="39.298965710245746" lon="9.32035061570229"><ele>233.0</ele><time>2026-03-29T11:10:08Z</time></trkpt><trkpt lat="39.29885228204731" lon="9.320403418157593"><ele>233.00000000000003</ele><time>2026-03-29T11:10:09Z</time></trkpt><trkpt lat="39.29875045073152" lon="9.320434687162532"><ele>233.0</ele><time>2026-03-29T11:10:10Z</time></trkpt><trkpt lat="39.29866183066314" lon="9.320454594920763"><ele>233.0</ele><time>2026-03-29T11:10:11Z</time></trkpt><trkpt lat="39.298590472752934" lon="9.320484411742497"><ele>233.0</ele><time>2026-03-29T11:10:12Z</time></trkpt><trkpt lat="39.29851229298257" lon="9.320482490268565"><ele>233.00000000000003</ele><time>2026-03-29T11:10:13Z</time></trkpt><trkpt lat="39.29843138977391" lon="9.320443397018096"><ele>233.0</ele><time>2026-03-29T11:10:14Z</time></trkpt><trkpt lat="39.298367991413635" lon="9.320381249392952"><ele>233.00000000000003</ele><time>2026-03-29T11:10:15Z</time></trkpt><trkpt lat="39.29830828507676" lon="9.320290969061132"><ele>233.0</ele><time>2026-03-29T11:10:16Z</time></trkpt><trkpt lat="39.298244800778726" lon="9.320206819100854"><ele>233.0</ele><time>2026-03-29T11:10:17Z</time></trkpt><trkpt lat="39.29818591081765" lon="9.320128965072351"><ele>233.0</ele><time>2026-03-29T11:10:18Z</time></trkpt><trkpt lat="39.29812640221711" lon="9.320078453446246"><ele>233.00000000000003</ele><time>2026-03-29T11:10:19Z</time></trkpt><trkpt lat="39.298066243086524" lon="9.32000518979755"><ele>233.0</ele><time>2026-03-29T11:10:20Z</time></trkpt><trkpt lat="39.2980098921455" lon="9.319924069775654"><ele>231.83333333333334</ele><time>2026-03-29T11:10:21Z</time></trkpt><trkpt lat="39.297959688076894" lon="9.319843889943641"><ele>230.66666666666669</ele><time>2026-03-29T11:10:22Z</time></trkpt><trkpt lat="39.29790694644076" lon="9.319785705442264"><ele>229.5</ele><time>2026-03-29T11:10:23Z</time></trkpt><trkpt lat="39.29779628770201" lon="9.319751798936416"><ele>228.33333333333331</ele><time>2026-03-29T11:10:25Z</time></trkpt><trkpt lat="39.29771886447471" lon="9.319818959797724"><ele>227.16666666666666</ele><time>2026-03-29T11:10:27Z</time></trkpt><trkpt lat="39.29766001178141" lon="9.319865226377567"><ele>226.0</ele><time>2026-03-29T11:10:28Z</time></trkpt><trkpt lat="39.2975716891534" lon="9.319952017834185"><ele>226.0</ele><time>2026-03-29T11:10:30Z</time></trkpt><trkpt lat="39.297500041664364" lon="9.319891385796332"><ele>226.0</ele><time>2026-03-29T11:10:33.999Z</time></trkpt><trkpt lat="39.29750542670623" lon="9.319802079388147"><ele>226.0</ele><time>2026-03-29T11:10:36.999Z</time></trkpt><trkpt lat="39.29750651872189" lon="9.319713971335176"><ele>226.0</ele><time>2026-03-29T11:10:38.999Z</time></trkpt><trkpt lat="39.29773966972089" lon="9.319228594013028"><ele>227.49999999999997</ele><time>2026-03-29T11:10:40.999Z</time></trkpt><trkpt lat="39.29779399776389" lon="9.319096908466754"><ele>229.0</ele><time>2026-03-29T11:10:42.999Z</time></trkpt><trkpt lat="39.2978434371927" lon="9.319022077755601"><ele>230.5</ele><time>2026-03-29T11:10:43.999Z</time></trkpt><trkpt lat="39.297906011843196" lon="9.318961206201404"><ele>232.0</ele><time>2026-03-29T11:10:44.999Z</time></trkpt><trkpt lat="39.2979675113025" lon="9.318885860580204"><ele>233.49999999999997</ele><time>2026-03-29T11:10:45.999Z</time></trkpt><trkpt lat="39.29801820119696" lon="9.318798871946058"><ele>235.0</ele><time>2026-03-29T11:10:46.999Z</time></trkpt><trkpt lat="39.29805395600932" lon="9.318709527938289"><ele>237.6</ele><time>2026-03-29T11:10:47.999Z</time></trkpt><trkpt lat="39.29815535999689" lon="9.318560954628959"><ele>240.2</ele><time>2026-03-29T11:10:49.999Z</time></trkpt><trkpt lat="39.298180761146305" lon="9.318466833877363"><ele>242.8</ele><time>2026-03-29T11:10:50.999Z</time></trkpt><trkpt lat="39.29821447011824" lon="9.318374014124323"><ele>245.4</ele><time>2026-03-29T11:10:51.999Z</time></trkpt><trkpt lat="39.298270283142955" lon="9.318301502696082"><ele>248.0</ele><time>2026-03-29T11:10:52.999Z</time></trkpt><trkpt lat="39.29835086911058" lon="9.318195311620377"><ele>248.00000000000003</ele><time>2026-03-29T11:10:54.999Z</time></trkpt><trkpt lat="39.29837587238641" lon="9.318073306508733"><ele>248.0</ele><time>2026-03-29T11:10:56.999Z</time></trkpt><trkpt lat="39.29840024245833" lon="9.31797687661172"><ele>248.0</ele><time>2026-03-29T11:10:57.999Z</time></trkpt><trkpt lat="39.29844576691076" lon="9.317873633139733"><ele>248.0</ele><time>2026-03-29T11:10:58.999Z</time></trkpt><trkpt lat="39.298457034348566" lon="9.317760863829706"><ele>248.00000000000003</ele><time>2026-03-29T11:11:00.999Z</time></trkpt><trkpt lat="39.298485534035585" lon="9.317678446369927"><ele>248.0</ele><time>2026-03-29T11:11:01.999Z</time></trkpt><trkpt lat="39.29850831053654" lon="9.317588326124698"><ele>247.33333333333334</ele><time>2026-03-29T11:11:02.999Z</time></trkpt><trkpt lat="39.29853010708717" lon="9.317491739040921"><ele>246.66666666666669</ele><time>2026-03-29T11:11:03.999Z</time></trkpt><trkpt lat="39.29854867150167" lon="9.317412863368133"><ele>246.0</ele><time>2026-03-29T11:11:04.999Z</time></trkpt><trkpt lat="39.29853439626648" lon="9.317275071842092"><ele>245.33333333333331</ele><time>2026-03-29T11:11:06.999Z</time></trkpt><trkpt lat="39.29848440192894" lon="9.317158484940547"><ele>244.66666666666666</ele><time>2026-03-29T11:11:08.998Z</time></trkpt><trkpt lat="39.29850001708265" lon="9.317049265086549"><ele>244.0</ele><time>2026-03-29T11:11:10.998Z</time></trkpt><trkpt lat="39.2985890725014" lon="9.316995116699795"><ele>243.0</ele><time>2026-03-29T11:11:13.998Z</time></trkpt><trkpt lat="39.29866413405894" lon="9.316954139448914"><ele>241.99999999999997</ele><time>2026-03-29T11:11:15.998Z</time></trkpt><trkpt lat="39.29873489226886" lon="9.316915277481685"><ele>240.99999999999997</ele><time>2026-03-29T11:11:16.998Z</time></trkpt><trkpt lat="39.2988767018719" lon="9.316878204010944"><ele>240.0</ele><time>2026-03-29T11:11:18.998Z</time></trkpt><trkpt lat="39.298978688547535" lon="9.316861204409676"><ele>239.0</ele><time>2026-03-29T11:11:19.998Z</time></trkpt><trkpt lat="39.299056349540656" lon="9.316852905283804"><ele>240.83333333333334</ele><time>2026-03-29T11:11:20.998Z</time></trkpt><trkpt lat="39.299132322939826" lon="9.316862238285264"><ele>242.66666666666669</ele><time>2026-03-29T11:11:21.998Z</time></trkpt><trkpt lat="39.29921351275395" lon="9.316861773801236"><ele>244.5</ele><time>2026-03-29T11:11:22.998Z</time></trkpt><trkpt lat="39.299304910558355" lon="9.316869270404721"><ele>246.33333333333331</ele><time>2026-03-29T11:11:23.998Z</time></trkpt><trkpt lat="39.2993965692492" lon="9.316882584981954"><ele>248.16666666666666</ele><time>2026-03-29T11:11:24.998Z</time></trkpt><trkpt lat="39.299493258172106" lon="9.31690924744597"><ele>250.0</ele><time>2026-03-29T11:11:25.998Z</time></trkpt><trkpt lat="39.29959353666745" lon="9.316934038255528"><ele>249.99999999999997</ele><time>2026-03-29T11:11:26.998Z</time></trkpt><trkpt lat="39.29967040723902" lon="9.31694682408237"><ele>250.0</ele><time>2026-03-29T11:11:27.998Z</time></trkpt><trkpt lat="39.29973673549595" lon="9.316937506382981"><ele>250.0</ele><time>2026-03-29T11:11:28.998Z</time></trkpt><trkpt lat="39.29981350299439" lon="9.316907747506715"><ele>250.0</ele><time>2026-03-29T11:11:29.998Z</time></trkpt><trkpt lat="39.29990224368107" lon="9.316882510614697"><ele>249.99999999999997</ele><time>2026-03-29T11:11:30.998Z</time></trkpt><trkpt lat="39.29999526046389" lon="9.316869068540308"><ele>250.0</ele><time>2026-03-29T11:11:31.998Z</time></trkpt><trkpt lat="39.3000706795019" lon="9.316853145433646"><ele>251.4</ele><time>2026-03-29T11:11:32.998Z</time></trkpt><trkpt lat="39.3001447171669" lon="9.316838412621923"><ele>252.8</ele><time>2026-03-29T11:11:33.998Z</time></trkpt><trkpt lat="39.300263321991245" lon="9.316806790202284"><ele>254.2</ele><time>2026-03-29T11:11:35.998Z</time></trkpt><trkpt lat="39.300371596551784" lon="9.316751937500566"><ele>255.6</ele><time>2026-03-29T11:11:37.998Z</time></trkpt><trkpt lat="39.300430416418045" lon="9.316712931264687"><ele>257.0</ele><time>2026-03-29T11:11:39.998Z</time></trkpt><trkpt lat="39.300499218779144" lon="9.316645047787723"><ele>257.0</ele><time>2026-03-29T11:11:41.998Z</time></trkpt><trkpt lat="39.30055171833531" lon="9.31653523598987"><ele>257.0</ele><time>2026-03-29T11:11:44.998Z</time></trkpt><trkpt lat="39.300643349938916" lon="9.316520264090608"><ele>257.0</ele><time>2026-03-29T11:11:48.997Z</time></trkpt><trkpt lat="39.300772197531955" lon="9.316492626823674"><ele>257.0</ele><time>2026-03-29T11:11:50.997Z</time></trkpt><trkpt lat="39.300855569814246" lon="9.316467107899346"><ele>257.0</ele><time>2026-03-29T11:11:51.997Z</time></trkpt><trkpt lat="39.30094167367664" lon="9.31642317545109"><ele>262.0</ele><time>2026-03-29T11:11:52.997Z</time></trkpt><trkpt lat="39.300983126819816" lon="9.31630096461018"><ele>267.0</ele><time>2026-03-29T11:11:53.997Z</time></trkpt><trkpt lat="39.3010464444749" lon="9.316224168082599"><ele>272.0</ele><time>2026-03-29T11:11:54.997Z</time></trkpt><trkpt lat="39.30117962258301" lon="9.316163385634294"><ele>277.0</ele><time>2026-03-29T11:11:56.997Z</time></trkpt><trkpt lat="39.30128904488147" lon="9.316148756442322"><ele>282.0</ele><time>2026-03-29T11:11:57.997Z</time></trkpt><trkpt lat="39.30137089511173" lon="9.316138863720992"><ele>281.8333333333333</ele><time>2026-03-29T11:11:58.997Z</time></trkpt><trkpt lat="39.30148272264547" lon="9.316206339714846"><ele>281.6666666666667</ele><time>2026-03-29T11:12:00.997Z</time></trkpt><trkpt lat="39.30154135395291" lon="9.316269999391457"><ele>281.5</ele><time>2026-03-29T11:12:01.997Z</time></trkpt><trkpt lat="39.30160638677712" lon="9.316279457033763"><ele>281.33333333333337</ele><time>2026-03-29T11:12:02.997Z</time></trkpt><trkpt lat="39.30168113135789" lon="9.316269636362671"><ele>281.1666666666667</ele><time>2026-03-29T11:12:03.997Z</time></trkpt><trkpt lat="39.30175091554482" lon="9.31624441113594"><ele>281.0</ele><time>2026-03-29T11:12:04.997Z</time></trkpt><trkpt lat="39.301830365578354" lon="9.316208252337525"><ele>281.0</ele><time>2026-03-29T11:12:05.997Z</time></trkpt><trkpt lat="39.30189950892037" lon="9.316203030643955"><ele>281.0</ele><time>2026-03-29T11:12:07Z</time></trkpt><trkpt lat="39.30196310503435" lon="9.316245209011559"><ele>281.0</ele><time>2026-03-29T11:12:08Z</time></trkpt><trkpt lat="39.302049143220884" lon="9.316308450747103"><ele>281.0</ele><time>2026-03-29T11:12:09Z</time></trkpt><trkpt lat="39.30213505123877" lon="9.316356151032295"><ele>281.0</ele><time>2026-03-29T11:12:10Z</time></trkpt><trkpt lat="39.30220590662324" lon="9.316381238893099"><ele>281.0</ele><time>2026-03-29T11:12:11Z</time></trkpt><trkpt lat="39.30226793684421" lon="9.316359769969232"><ele>280.33333333333337</ele><time>2026-03-29T11:12:12Z</time></trkpt><trkpt lat="39.30236255670951" lon="9.31627038107819"><ele>279.6666666666667</ele><time>2026-03-29T11:12:14Z</time></trkpt><trkpt lat="39.30242144401976" lon="9.316228824968702"><ele>279.0</ele><time>2026-03-29T11:12:15Z</time></trkpt><trkpt lat="39.302497531194554" lon="9.316214791207843"><ele>278.3333333333333</ele><time>2026-03-29T11:12:16Z</time></trkpt><trkpt lat="39.30257628823559" lon="9.316208963947181"><ele>277.66666666666663</ele><time>2026-03-29T11:12:17Z</time></trkpt><trkpt lat="39.30266395717103" lon="9.316219729399"><ele>277.0</ele><time>2026-03-29T11:12:18Z</time></trkpt><trkpt lat="39.302740391080654" lon="9.3162108509371"><ele>277.0</ele><time>2026-03-29T11:12:19Z</time></trkpt><trkpt lat="39.302809901367624" lon="9.316205672054076"><ele>277.0</ele><time>2026-03-29T11:12:20Z</time></trkpt><trkpt lat="39.30287735014333" lon="9.316225188933565"><ele>277.0</ele><time>2026-03-29T11:12:22Z</time></trkpt><trkpt lat="39.30293492507122" lon="9.316189273799433"><ele>277.0</ele><time>2026-03-29T11:12:24Z</time></trkpt><trkpt lat="39.302933331094415" lon="9.316061925871892"><ele>277.0</ele><time>2026-03-29T11:12:26Z</time></trkpt><trkpt lat="39.30291626714908" lon="9.31597205064783"><ele>277.0</ele><time>2026-03-29T11:12:27Z</time></trkpt><trkpt lat="39.302920042309516" lon="9.315831681382855"><ele>277.0</ele><time>2026-03-29T11:12:29Z</time></trkpt><trkpt lat="39.302895418801164" lon="9.315603439210102"><ele>277.0</ele><time>2026-03-29T11:12:30Z</time></trkpt><trkpt lat="39.30289186591152" lon="9.315453696549355"><ele>277.0</ele><time>2026-03-29T11:12:31Z</time></trkpt><trkpt lat="39.30289347929982" lon="9.315306639903888"><ele>277.0</ele><time>2026-03-29T11:12:32Z</time></trkpt><trkpt lat="39.30289987832017" lon="9.315175485483952"><ele>277.5</ele><time>2026-03-29T11:12:33Z</time></trkpt><trkpt lat="39.30290381011268" lon="9.315054093430374"><ele>278.0</ele><time>2026-03-29T11:12:34Z</time></trkpt><trkpt lat="39.30291852102492" lon="9.314957966125082"><ele>278.5</ele><time>2026-03-29T11:12:35Z</time></trkpt><trkpt lat="39.30291459114833" lon="9.314843597003703"><ele>279.0</ele><time>2026-03-29T11:12:36Z</time></trkpt><trkpt lat="39.30289087897269" lon="9.314749845218072"><ele>279.5</ele><time>2026-03-29T11:12:37Z</time></trkpt><trkpt lat="39.30285778445568" lon="9.314648823074297"><ele>280.0</ele><time>2026-03-29T11:12:37.999Z</time></trkpt><trkpt lat="39.30281503243928" lon="9.314568639698223"><ele>280.0</ele><time>2026-03-29T11:12:38.999Z</time></trkpt><trkpt lat="39.30275356722326" lon="9.314491374453599"><ele>280.0</ele><time>2026-03-29T11:12:39.999Z</time></trkpt><trkpt lat="39.30268159446443" lon="9.314427183027284"><ele>280.0</ele><time>2026-03-29T11:12:40.999Z</time></trkpt><trkpt lat="39.30260202205367" lon="9.314389486008869"><ele>280.0</ele><time>2026-03-29T11:12:41.999Z</time></trkpt><trkpt lat="39.30252479346524" lon="9.314328619392006"><ele>280.0</ele><time>2026-03-29T11:12:42.999Z</time></trkpt><trkpt lat="39.302452501831695" lon="9.314253661419587"><ele>280.0</ele><time>2026-03-29T11:12:43.999Z</time></trkpt><trkpt lat="39.30238421895913" lon="9.314162944153844"><ele>280.0</ele><time>2026-03-29T11:12:44.999Z</time></trkpt><trkpt lat="39.302314391220584" lon="9.314076403281845"><ele>280.0</ele><time>2026-03-29T11:12:45.999Z</time></trkpt><trkpt lat="39.30227174829727" lon="9.313970244894259"><ele>280.0</ele><time>2026-03-29T11:12:47.999Z</time></trkpt><trkpt lat="39.302222609549055" lon="9.313850484823933"><ele>280.0</ele><time>2026-03-29T11:12:49.999Z</time></trkpt><trkpt lat="39.302279974773924" lon="9.313715536804601"><ele>280.0</ele><time>2026-03-29T11:12:51.999Z</time></trkpt><trkpt lat="39.30233469388902" lon="9.313620912076676"><ele>279.8</ele><time>2026-03-29T11:12:52.999Z</time></trkpt><trkpt lat="39.30239728964127" lon="9.31354247750019"><ele>279.6</ele><time>2026-03-29T11:12:53.999Z</time></trkpt><trkpt lat="39.30246555947745" lon="9.313450663472445"><ele>279.4</ele><time>2026-03-29T11:12:55.999Z</time></trkpt><trkpt lat="39.30249717570742" lon="9.313378416765381"><ele>279.2</ele><time>2026-03-29T11:12:57.999Z</time></trkpt><trkpt lat="39.302543598825224" lon="9.313262482113894"><ele>279.0</ele><time>2026-03-29T11:13:00.999Z</time></trkpt><trkpt lat="39.30255443897676" lon="9.313131713028989"><ele>281.0</ele><time>2026-03-29T11:13:02.999Z</time></trkpt><trkpt lat="39.3025453999836" lon="9.312988498988988"><ele>283.0</ele><time>2026-03-29T11:13:04.999Z</time></trkpt><trkpt lat="39.302522866514124" lon="9.31290579900179"><ele>285.0</ele><time>2026-03-29T11:13:05.999Z</time></trkpt><trkpt lat="39.30248799811545" lon="9.31281820253072"><ele>287.0</ele><time>2026-03-29T11:13:06.999Z</time></trkpt><trkpt lat="39.302459704167006" lon="9.312685691949746"><ele>289.0</ele><time>2026-03-29T11:13:08.999Z</time></trkpt><trkpt lat="39.30250192021287" lon="9.312522828541885"><ele>289.0</ele><time>2026-03-29T11:13:10.999Z</time></trkpt><trkpt lat="39.302533656043515" lon="9.312450298075818"><ele>289.0</ele><time>2026-03-29T11:13:11.999Z</time></trkpt><trkpt lat="39.30258095441181" lon="9.312385499944572"><ele>289.0</ele><time>2026-03-29T11:13:12.999Z</time></trkpt><trkpt lat="39.302657857217575" lon="9.312319477811906"><ele>289.0</ele><time>2026-03-29T11:13:13.999Z</time></trkpt><trkpt lat="39.30272138367746" lon="9.312264405548312"><ele>289.0</ele><time>2026-03-29T11:13:14.999Z</time></trkpt><trkpt lat="39.30278707938856" lon="9.312215792735348"><ele>289.0</ele><time>2026-03-29T11:13:15.998Z</time></trkpt><trkpt lat="39.302855891443436" lon="9.31219273691412"><ele>289.0</ele><time>2026-03-29T11:13:16.998Z</time></trkpt><trkpt lat="39.30292402438895" lon="9.312199944260449"><ele>291.5</ele><time>2026-03-29T11:13:17.998Z</time></trkpt><trkpt lat="39.30299813063542" lon="9.312190619852123"><ele>294.0</ele><time>2026-03-29T11:13:18.998Z</time></trkpt><trkpt lat="39.30308949455667" lon="9.312189737885948"><ele>296.5</ele><time>2026-03-29T11:13:19.998Z</time></trkpt><trkpt lat="39.303161057996476" lon="9.312189413539068"><ele>299.0</ele><time>2026-03-29T11:13:20.998Z</time></trkpt><trkpt lat="39.303232737927594" lon="9.312186109100379"><ele>301.5</ele><time>2026-03-29T11:13:21.998Z</time></trkpt><trkpt lat="39.30330203008602" lon="9.312164862975665"><ele>304.0</ele><time>2026-03-29T11:13:22.998Z</time></trkpt><trkpt lat="39.303382196036246" lon="9.312133214999424"><ele>304.0</ele><time>2026-03-29T11:13:23.998Z</time></trkpt><trkpt lat="39.30345816284709" lon="9.31208829530374"><ele>304.0</ele><time>2026-03-29T11:13:24.998Z</time></trkpt><trkpt lat="39.30352821658678" lon="9.312038994243187"><ele>304.0</ele><time>2026-03-29T11:13:25.998Z</time></trkpt><trkpt lat="39.30360942286728" lon="9.31199494583059"><ele>304.0</ele><time>2026-03-29T11:13:26.998Z</time></trkpt><trkpt lat="39.30370233456467" lon="9.311960685452213"><ele>304.0</ele><time>2026-03-29T11:13:27.998Z</time></trkpt><trkpt lat="39.30381297902686" lon="9.311922066711478"><ele>302.4</ele><time>2026-03-29T11:13:28.998Z</time></trkpt><trkpt lat="39.303926742860796" lon="9.311875903382825"><ele>300.79999999999995</ele><time>2026-03-29T11:13:29.998Z</time></trkpt><trkpt lat="39.30402983084845" lon="9.311853864071349"><ele>299.20000000000005</ele><time>2026-03-29T11:13:30.998Z</time></trkpt><trkpt lat="39.304108781380776" lon="9.31183636288965"><ele>297.6</ele><time>2026-03-29T11:13:31.998Z</time></trkpt><trkpt lat="39.30420761142784" lon="9.311888188667094"><ele>296.0</ele><time>2026-03-29T11:13:33.998Z</time></trkpt><trkpt lat="39.304250857290306" lon="9.311948710070324"><ele>296.0</ele><time>2026-03-29T11:13:34.998Z</time></trkpt><trkpt lat="39.3042922872449" lon="9.312043663205282"><ele>296.0</ele><time>2026-03-29T11:13:35.998Z</time></trkpt><trkpt lat="39.30434353301112" lon="9.312122654559138"><ele>296.0</ele><time>2026-03-29T11:13:36.998Z</time></trkpt><trkpt lat="39.30441972544777" lon="9.31219773071647"><ele>296.0</ele><time>2026-03-29T11:13:37.998Z</time></trkpt><trkpt lat="39.30449078972656" lon="9.312272895640216"><ele>296.0</ele><time>2026-03-29T11:13:38.998Z</time></trkpt><trkpt lat="39.30454979397754" lon="9.312347747436775"><ele>296.0</ele><time>2026-03-29T11:13:39.998Z</time></trkpt><trkpt lat="39.30463467992355" lon="9.312383110153341"><ele>296.8</ele><time>2026-03-29T11:13:41.998Z</time></trkpt><trkpt lat="39.304743086566795" lon="9.312273093689656"><ele>297.6</ele><time>2026-03-29T11:13:43.998Z</time></trkpt><trkpt lat="39.304808876129776" lon="9.31219356324217"><ele>298.4</ele><time>2026-03-29T11:13:44.998Z</time></trkpt><trkpt lat="39.30487837438598" lon="9.312111011698645"><ele>299.2</ele><time>2026-03-29T11:13:45.998Z</time></trkpt><trkpt lat="39.3049597721788" lon="9.312023500713853"><ele>300.0</ele><time>2026-03-29T11:13:46.998Z</time></trkpt><trkpt lat="39.305049028622676" lon="9.311937813506308"><ele>300.0</ele><time>2026-03-29T11:13:47.998Z</time></trkpt><trkpt lat="39.305137476875025" lon="9.311869669687038"><ele>300.0</ele><time>2026-03-29T11:13:48.998Z</time></trkpt><trkpt lat="39.30521622953493" lon="9.311813430433048"><ele>300.0</ele><time>2026-03-29T11:13:49.998Z</time></trkpt><trkpt lat="39.305290648372036" lon="9.31178125641337"><ele>300.0</ele><time>2026-03-29T11:13:50.998Z</time></trkpt><trkpt lat="39.30535217733522" lon="9.31175585634832"><ele>300.0</ele><time>2026-03-29T11:13:51.998Z</time></trkpt><trkpt lat="39.305412823851114" lon="9.311731572000244"><ele>300.0</ele><time>2026-03-29T11:13:52.997Z</time></trkpt><trkpt lat="39.30547739698993" lon="9.311704714235388"><ele>299.1666666666667</ele><time>2026-03-29T11:13:53.997Z</time></trkpt><trkpt lat="39.30560805275006" lon="9.311672295509517"><ele>298.3333333333333</ele><time>2026-03-29T11:13:55.997Z</time></trkpt><trkpt lat="39.30569328595357" lon="9.311647819496192"><ele>297.5</ele><time>2026-03-29T11:13:56.997Z</time></trkpt><trkpt lat="39.30575326199651" lon="9.311620404157216"><ele>296.66666666666663</ele><time>2026-03-29T11:13:57.997Z</time></trkpt><trkpt lat="39.30581161020489" lon="9.311574894592264"><ele>295.8333333333333</ele><time>2026-03-29T11:13:58.997Z</time></trkpt><trkpt lat="39.30587428648684" lon="9.311511075751913"><ele>295.0</ele><time>2026-03-29T11:13:59.997Z</time></trkpt><trkpt lat="39.30595872242548" lon="9.31145789442682"><ele>295.0</ele><time>2026-03-29T11:14:00.997Z</time></trkpt><trkpt lat="39.30605731925094" lon="9.311412174923323"><ele>295.0</ele><time>2026-03-29T11:14:01.997Z</time></trkpt><trkpt lat="39.306147528608136" lon="9.311358623087077"><ele>295.0</ele><time>2026-03-29T11:14:02.997Z</time></trkpt><trkpt lat="39.30622766219469" lon="9.311283604627848"><ele>295.0</ele><time>2026-03-29T11:14:03.997Z</time></trkpt><trkpt lat="39.306291765615356" lon="9.311214234755377"><ele>295.0</ele><time>2026-03-29T11:14:04.997Z</time></trkpt><trkpt lat="39.30635134148479" lon="9.311171546688396"><ele>297.0</ele><time>2026-03-29T11:14:05.997Z</time></trkpt><trkpt lat="39.30646142808197" lon="9.311118830500904"><ele>299.0</ele><time>2026-03-29T11:14:07.997Z</time></trkpt><trkpt lat="39.306524282977485" lon="9.311223465649837"><ele>301.0</ele><time>2026-03-29T11:14:10.997Z</time></trkpt><trkpt lat="39.30645645406103" lon="9.311363895041856"><ele>303.0</ele><time>2026-03-29T11:14:13Z</time></trkpt><trkpt lat="39.30645757167821" lon="9.311503728324672"><ele>303.0</ele><time>2026-03-29T11:14:16Z</time></trkpt><trkpt lat="39.30646594029328" lon="9.311609743400476"><ele>303.0</ele><time>2026-03-29T11:14:17Z</time></trkpt><trkpt lat="39.306461806100785" lon="9.311736686978334"><ele>303.0</ele><time>2026-03-29T11:14:18Z</time></trkpt><trkpt lat="39.306458773868876" lon="9.311875774997302"><ele>303.0</ele><time>2026-03-29T11:14:19Z</time></trkpt><trkpt lat="39.30646041906168" lon="9.312014475404522"><ele>303.0</ele><time>2026-03-29T11:14:20Z</time></trkpt><trkpt lat="39.3064827180253" lon="9.312153683096435"><ele>303.25</ele><time>2026-03-29T11:14:21Z</time></trkpt><trkpt lat="39.30648055041496" lon="9.312306889306821"><ele>303.5</ele><time>2026-03-29T11:14:22Z</time></trkpt><trkpt lat="39.30647192113104" lon="9.312485924548325"><ele>303.75</ele><time>2026-03-29T11:14:23Z</time></trkpt><trkpt lat="39.30646796924103" lon="9.312681089940703"><ele>304.0</ele><time>2026-03-29T11:14:24Z</time></trkpt><trkpt lat="39.30647430716969" lon="9.312846621047964"><ele>304.0</ele><time>2026-03-29T11:14:25Z</time></trkpt><trkpt lat="39.3064707416677" lon="9.313014340962695"><ele>304.0</ele><time>2026-03-29T11:14:26Z</time></trkpt><trkpt lat="39.3064650157671" lon="9.313188910662353"><ele>304.0</ele><time>2026-03-29T11:14:27Z</time></trkpt><trkpt lat="39.30647373373346" lon="9.313337585264101"><ele>304.0</ele><time>2026-03-29T11:14:28Z</time></trkpt><trkpt lat="39.30649870658164" lon="9.313452036643929"><ele>304.3333333333333</ele><time>2026-03-29T11:14:29Z</time></trkpt><trkpt lat="39.306537454488875" lon="9.313529395385071"><ele>304.66666666666663</ele><time>2026-03-29T11:14:30Z</time></trkpt><trkpt lat="39.306626607934014" lon="9.31357865001668"><ele>305.0</ele><time>2026-03-29T11:14:32Z</time></trkpt><trkpt lat="39.30670241685359" lon="9.313471472785043"><ele>305.3333333333333</ele><time>2026-03-29T11:14:34Z</time></trkpt><trkpt lat="39.30673230808385" lon="9.313389649832803"><ele>305.6666666666667</ele><time>2026-03-29T11:14:35Z</time></trkpt><trkpt lat="39.30674676649902" lon="9.313288665561116"><ele>306.0</ele><time>2026-03-29T11:14:36Z</time></trkpt><trkpt lat="39.306777870676136" lon="9.313187476609006"><ele>306.0</ele><time>2026-03-29T11:14:37Z</time></trkpt><trkpt lat="39.30683195122344" lon="9.313090635810491"><ele>306.0</ele><time>2026-03-29T11:14:38Z</time></trkpt><trkpt lat="39.30690019661631" lon="9.312979965496748"><ele>306.0</ele><time>2026-03-29T11:14:39Z</time></trkpt><trkpt lat="39.30698070759348" lon="9.312858455037242"><ele>306.0</ele><time>2026-03-29T11:14:40Z</time></trkpt><trkpt lat="39.30704927343206" lon="9.31274293128431"><ele>306.0</ele><time>2026-03-29T11:14:41Z</time></trkpt><trkpt lat="39.30708657080988" lon="9.312648551485738"><ele>305.6</ele><time>2026-03-29T11:14:42Z</time></trkpt><trkpt lat="39.30711573544398" lon="9.312557754354746"><ele>305.20000000000005</ele><time>2026-03-29T11:14:43.999Z</time></trkpt><trkpt lat="39.30717878787536" lon="9.3126365705609"><ele>304.79999999999995</ele><time>2026-03-29T11:14:46.999Z</time></trkpt><trkpt lat="39.30721713595026" lon="9.312756548300378"><ele>304.4</ele><time>2026-03-29T11:14:48.999Z</time></trkpt><trkpt lat="39.307336070125274" lon="9.312866874741223"><ele>304.0</ele><time>2026-03-29T11:14:50.999Z</time></trkpt><trkpt lat="39.307392682049226" lon="9.312925794193784"><ele>311.0</ele><time>2026-03-29T11:14:51.999Z</time></trkpt><trkpt lat="39.307495900634656" lon="9.312898215243822"><ele>318.0</ele><time>2026-03-29T11:14:53.999Z</time></trkpt><trkpt lat="39.30753658346169" lon="9.31274445175728"><ele>325.0</ele><time>2026-03-29T11:14:55.999Z</time></trkpt><trkpt lat="39.307513840355" lon="9.312618111602365"><ele>332.0</ele><time>2026-03-29T11:14:57.999Z</time></trkpt><trkpt lat="39.30750411737469" lon="9.312464037747294"><ele>332.0</ele><time>2026-03-29T11:14:59.999Z</time></trkpt><trkpt lat="39.307529680381855" lon="9.312355011374823"><ele>332.0</ele><time>2026-03-29T11:15:00.999Z</time></trkpt><trkpt lat="39.30755327668618" lon="9.312241694785984"><ele>332.0</ele><time>2026-03-29T11:15:01.999Z</time></trkpt><trkpt lat="39.30757543074313" lon="9.312125713093085"><ele>332.0</ele><time>2026-03-29T11:15:02.999Z</time></trkpt><trkpt lat="39.30760360499459" lon="9.312013885323985"><ele>332.0</ele><time>2026-03-29T11:15:04.999Z</time></trkpt><trkpt lat="39.3076860839087" lon="9.312034782828702"><ele>332.0</ele><time>2026-03-29T11:15:07.999Z</time></trkpt><trkpt lat="39.30769761933377" lon="9.312166505726955"><ele>332.0</ele><time>2026-03-29T11:15:09.999Z</time></trkpt><trkpt lat="39.30777467331798" lon="9.31233133459162"><ele>332.0</ele><time>2026-03-29T11:15:12.999Z</time></trkpt><trkpt lat="39.30785445509647" lon="9.312524450919417"><ele>332.0</ele><time>2026-03-29T11:15:13.999Z</time></trkpt><trkpt lat="39.30791127312848" lon="9.312625652164115"><ele>332.0</ele><time>2026-03-29T11:15:14.999Z</time></trkpt><trkpt lat="39.307965375275636" lon="9.312711445256936"><ele>332.0</ele><time>2026-03-29T11:15:15.999Z</time></trkpt><trkpt lat="39.308038401436704" lon="9.31271397242114"><ele>332.0</ele><time>2026-03-29T11:15:16.999Z</time></trkpt><trkpt lat="39.30808254947023" lon="9.312615945776184"><ele>332.0</ele><time>2026-03-29T11:15:18.999Z</time></trkpt><trkpt lat="39.30806969913732" lon="9.312508007197074"><ele>332.0</ele><time>2026-03-29T11:15:19.999Z</time></trkpt><trkpt lat="39.3080677445172" lon="9.312417690148614"><ele>332.0</ele><time>2026-03-29T11:15:20.998Z</time></trkpt><trkpt lat="39.308083686350344" lon="9.312300372255846"><ele>332.0</ele><time>2026-03-29T11:15:21.998Z</time></trkpt><trkpt lat="39.30814513966756" lon="9.312199192699488"><ele>336.33333333333337</ele><time>2026-03-29T11:15:22.998Z</time></trkpt><trkpt lat="39.30820344538167" lon="9.312029261720395"><ele>340.6666666666667</ele><time>2026-03-29T11:15:24.998Z</time></trkpt><trkpt lat="39.308248437617145" lon="9.31195988478297"><ele>345.0</ele><time>2026-03-29T11:15:25.998Z</time></trkpt><trkpt lat="39.30829967655737" lon="9.311901785839174"><ele>349.3333333333333</ele><time>2026-03-29T11:15:26.998Z</time></trkpt><trkpt lat="39.308332731896364" lon="9.311808228118869"><ele>353.66666666666663</ele><time>2026-03-29T11:15:27.998Z</time></trkpt><trkpt lat="39.30838971385266" lon="9.311730301498216"><ele>358.0</ele><time>2026-03-29T11:15:28.998Z</time></trkpt><trkpt lat="39.30845272605631" lon="9.311654946036047"><ele>358.0</ele><time>2026-03-29T11:15:29.998Z</time></trkpt><trkpt lat="39.30849360111128" lon="9.311567947030689"><ele>358.0</ele><time>2026-03-29T11:15:30.998Z</time></trkpt><trkpt lat="39.30850152235605" lon="9.311466592457943"><ele>358.0</ele><time>2026-03-29T11:15:31.998Z</time></trkpt><trkpt lat="39.3085646621728" lon="9.311339674086659"><ele>358.0</ele><time>2026-03-29T11:15:33.998Z</time></trkpt><trkpt lat="39.30861813803296" lon="9.311211449569754"><ele>358.0</ele><time>2026-03-29T11:15:34.998Z</time></trkpt><trkpt lat="39.30866787663364" lon="9.311067327072179"><ele>358.2</ele><time>2026-03-29T11:15:35.998Z</time></trkpt><trkpt lat="39.30874566482433" lon="9.310935012729225"><ele>358.4</ele><time>2026-03-29T11:15:36.998Z</time></trkpt><trkpt lat="39.30881943233856" lon="9.31082053813981"><ele>358.59999999999997</ele><time>2026-03-29T11:15:37.998Z</time></trkpt><trkpt lat="39.308884434521964" lon="9.310729905370525"><ele>358.79999999999995</ele><time>2026-03-29T11:15:38.998Z</time></trkpt><trkpt lat="39.30894846362" lon="9.310653128283665"><ele>359.0</ele><time>2026-03-29T11:15:39.998Z</time></trkpt><trkpt lat="39.309011523837384" lon="9.310577105144903"><ele>363.6666666666667</ele><time>2026-03-29T11:15:40.998Z</time></trkpt><trkpt lat="39.309075181849984" lon="9.310514436095497"><ele>368.33333333333337</ele><time>2026-03-29T11:15:41.998Z</time></trkpt><trkpt lat="39.3091390155717" lon="9.310453326442593"><ele>373.0</ele><time>2026-03-29T11:15:42.998Z</time></trkpt><trkpt lat="39.30919899177487" lon="9.310384733997326"><ele>377.6666666666667</ele><time>2026-03-29T11:15:43.998Z</time></trkpt><trkpt lat="39.30925586886227" lon="9.31032549166567"><ele>382.3333333333333</ele><time>2026-03-29T11:15:44.998Z</time></trkpt><trkpt lat="39.309349193198535" lon="9.310219354560415"><ele>387.0</ele><time>2026-03-29T11:15:46.998Z</time></trkpt><trkpt lat="39.30939356810673" lon="9.310149076047686"><ele>387.0</ele><time>2026-03-29T11:15:48.998Z</time></trkpt><trkpt lat="39.30946055873558" lon="9.31014004584769"><ele>387.0</ele><time>2026-03-29T11:15:52.998Z</time></trkpt><trkpt lat="39.30952645972945" lon="9.31020504731745"><ele>387.0</ele><time>2026-03-29T11:15:56.998Z</time></trkpt><trkpt lat="39.309596296890525" lon="9.31028961713527"><ele>387.0</ele><time>2026-03-29T11:16:00.998Z</time></trkpt><trkpt lat="39.30969342413504" lon="9.310376060261397"><ele>387.0</ele><time>2026-03-29T11:16:02.997Z</time></trkpt><trkpt lat="39.30980669193491" lon="9.310423425083396"><ele>387.20000000000005</ele><time>2026-03-29T11:16:04.997Z</time></trkpt><trkpt lat="39.30989198303884" lon="9.310476918435024"><ele>387.4</ele><time>2026-03-29T11:16:06.997Z</time></trkpt><trkpt lat="39.309989928771536" lon="9.310418911226868"><ele>387.6</ele><time>2026-03-29T11:16:08.997Z</time></trkpt><trkpt lat="39.31010341270498" lon="9.310387423354422"><ele>387.79999999999995</ele><time>2026-03-29T11:16:10.997Z</time></trkpt><trkpt lat="39.310173198819896" lon="9.310365047542465"><ele>388.0</ele><time>2026-03-29T11:16:11.997Z</time></trkpt><trkpt lat="39.310280622932375" lon="9.31033886974174"><ele>388.00000000000006</ele><time>2026-03-29T11:16:13.997Z</time></trkpt><trkpt lat="39.31034132058797" lon="9.310441882825875"><ele>388.0</ele><time>2026-03-29T11:16:15.997Z</time></trkpt><trkpt lat="39.310285214976815" lon="9.310573351046312"><ele>388.0</ele><time>2026-03-29T11:16:17.997Z</time></trkpt><trkpt lat="39.310273256019535" lon="9.31065822193997"><ele>388.0</ele><time>2026-03-29T11:16:22Z</time></trkpt><trkpt lat="39.31035097233551" lon="9.310663009193744"><ele>388.00000000000006</ele><time>2026-03-29T11:16:24Z</time></trkpt><trkpt lat="39.31042481706838" lon="9.310685567346683"><ele>388.0</ele><time>2026-03-29T11:16:26Z</time></trkpt><trkpt lat="39.31046558470322" lon="9.310818534051828"><ele>390.0</ele><time>2026-03-29T11:16:30Z</time></trkpt><trkpt lat="39.3103973293697" lon="9.31086929485201"><ele>392.0</ele><time>2026-03-29T11:17:29.998Z</time></trkpt><trkpt lat="39.31048813525846" lon="9.310870388329157"><ele>394.0</ele><time>2026-03-29T11:19:17.999Z</time></trkpt><trkpt lat="39.310593686721795" lon="9.310864453947618"><ele>396.0</ele><time>2026-03-29T11:21:58.998Z</time></trkpt><trkpt lat="39.3106834527472" lon="9.310872333612538"><ele>398.0</ele><time>2026-03-29T11:22:00.998Z</time></trkpt><trkpt lat="39.31080132501758" lon="9.310899563666785"><ele>399.16666666666663</ele><time>2026-03-29T11:22:02.998Z</time></trkpt><trkpt lat="39.31087870647919" lon="9.310912444143474"><ele>400.3333333333333</ele><time>2026-03-29T11:22:03.998Z</time></trkpt><trkpt lat="39.310952448999195" lon="9.310914425155595"><ele>401.5</ele><time>2026-03-29T11:22:04.998Z</time></trkpt><trkpt lat="39.31102304153624" lon="9.310918948536935"><ele>402.66666666666663</ele><time>2026-03-29T11:22:05.998Z</time></trkpt><trkpt lat="39.31110903883225" lon="9.310924295416147"><ele>403.8333333333333</ele><time>2026-03-29T11:22:06.998Z</time></trkpt><trkpt lat="39.311193078287786" lon="9.31093561069447"><ele>405.0</ele><time>2026-03-29T11:22:07.998Z</time></trkpt><trkpt lat="39.31126656810973" lon="9.310936096078064"><ele>405.0</ele><time>2026-03-29T11:22:08.998Z</time></trkpt><trkpt lat="39.31134416861016" lon="9.310933510385478"><ele>405.0</ele><time>2026-03-29T11:22:09.998Z</time></trkpt><trkpt lat="39.311418360265904" lon="9.310927621618804"><ele>405.0</ele><time>2026-03-29T11:22:10.998Z</time></trkpt><trkpt lat="39.311489707385014" lon="9.31092319304653"><ele>405.0</ele><time>2026-03-29T11:22:11.998Z</time></trkpt><trkpt lat="39.311561041159116" lon="9.310916326645923"><ele>405.0</ele><time>2026-03-29T11:22:12.998Z</time></trkpt><trkpt lat="39.31162560941627" lon="9.310913110884815"><ele>405.0</ele><time>2026-03-29T11:22:13.998Z</time></trkpt><trkpt lat="39.311744881296306" lon="9.310878676334763"><ele>404.3333333333333</ele><time>2026-03-29T11:22:15.998Z</time></trkpt><trkpt lat="39.31180892295173" lon="9.310833554037387"><ele>403.66666666666663</ele><time>2026-03-29T11:22:16.997Z</time></trkpt><trkpt lat="39.311872126674444" lon="9.310811234785612"><ele>403.0</ele><time>2026-03-29T11:22:17.997Z</time></trkpt><trkpt lat="39.311941234505376" lon="9.31081256086941"><ele>402.3333333333333</ele><time>2026-03-29T11:22:18.997Z</time></trkpt><trkpt lat="39.312006562708106" lon="9.31083283050805"><ele>401.66666666666663</ele><time>2026-03-29T11:22:19.997Z</time></trkpt><trkpt lat="39.31211173434819" lon="9.310858579042565"><ele>401.0</ele><time>2026-03-29T11:22:21.997Z</time></trkpt><trkpt lat="39.31217968744533" lon="9.310797123761821"><ele>403.3333333333333</ele><time>2026-03-29T11:22:23.997Z</time></trkpt><trkpt lat="39.312277358651066" lon="9.310816645612585"><ele>405.66666666666663</ele><time>2026-03-29T11:22:25.997Z</time></trkpt><trkpt lat="39.31237798617666" lon="9.310793571497479"><ele>408.0</ele><time>2026-03-29T11:22:27.997Z</time></trkpt><trkpt lat="39.3124210295383" lon="9.310715290154624"><ele>410.33333333333337</ele><time>2026-03-29T11:22:28.997Z</time></trkpt><trkpt lat="39.31246981254347" lon="9.310638107545875"><ele>412.6666666666667</ele><time>2026-03-29T11:22:29.997Z</time></trkpt><trkpt lat="39.312527415474705" lon="9.310575565040173"><ele>415.0</ele><time>2026-03-29T11:22:30.997Z</time></trkpt><trkpt lat="39.31258567158734" lon="9.310516097058972"><ele>415.00000000000006</ele><time>2026-03-29T11:22:31.997Z</time></trkpt><trkpt lat="39.312643104955704" lon="9.310456839549472"><ele>415.0</ele><time>2026-03-29T11:22:32.997Z</time></trkpt><trkpt lat="39.31271096547437" lon="9.310359097927272"><ele>415.0</ele><time>2026-03-29T11:22:34.997Z</time></trkpt><trkpt lat="39.31271667345234" lon="9.310231369335806"><ele>415.0</ele><time>2026-03-29T11:22:37Z</time></trkpt><trkpt lat="39.31268875675054" lon="9.31015808182366"><ele>415.00000000000006</ele><time>2026-03-29T11:22:38Z</time></trkpt><trkpt lat="39.31265029467403" lon="9.310091466146519"><ele>415.0</ele><time>2026-03-29T11:22:39Z</time></trkpt><trkpt lat="39.31257480244949" lon="9.309959646907105"><ele>415.0</ele><time>2026-03-29T11:22:41Z</time></trkpt><trkpt lat="39.31251755232518" lon="9.309920409742498"><ele>415.0</ele><time>2026-03-29T11:22:42Z</time></trkpt><trkpt lat="39.3124473190776" lon="9.309897809032632"><ele>415.0</ele><time>2026-03-29T11:22:43Z</time></trkpt><trkpt lat="39.31237590455434" lon="9.309894206072856"><ele>415.0</ele><time>2026-03-29T11:22:44Z</time></trkpt><trkpt lat="39.31229599655632" lon="9.309880040016653"><ele>415.0</ele><time>2026-03-29T11:22:45Z</time></trkpt><trkpt lat="39.31221902157538" lon="9.30989358634639"><ele>415.0</ele><time>2026-03-29T11:22:46Z</time></trkpt><trkpt lat="39.312143368694876" lon="9.309898967617157"><ele>415.0</ele><time>2026-03-29T11:22:47Z</time></trkpt><trkpt lat="39.31206859316264" lon="9.309883514378855"><ele>412.6666666666667</ele><time>2026-03-29T11:22:48Z</time></trkpt><trkpt lat="39.3119910808705" lon="9.30985953478896"><ele>410.33333333333337</ele><time>2026-03-29T11:22:49Z</time></trkpt><trkpt lat="39.31193259918964" lon="9.309826466314151"><ele>408.0</ele><time>2026-03-29T11:22:50Z</time></trkpt><trkpt lat="39.3118769380807" lon="9.30978035312697"><ele>405.66666666666663</ele><time>2026-03-29T11:22:51Z</time></trkpt><trkpt lat="39.31176321860926" lon="9.309716365165135"><ele>403.3333333333333</ele><time>2026-03-29T11:22:53Z</time></trkpt><trkpt lat="39.31169817015148" lon="9.309688909275668"><ele>401.0</ele><time>2026-03-29T11:22:54Z</time></trkpt><trkpt lat="39.311603428945695" lon="9.30963632002693"><ele>400.99999999999994</ele><time>2026-03-29T11:22:56Z</time></trkpt><trkpt lat="39.3115029964553" lon="9.30959163853511"><ele>401.0</ele><time>2026-03-29T11:22:58Z</time></trkpt><trkpt lat="39.31144329610318" lon="9.309564579536012"><ele>401.0</ele><time>2026-03-29T11:22:59Z</time></trkpt><trkpt lat="39.311348691200585" lon="9.30950642332201"><ele>401.0</ele><time>2026-03-29T11:23:01Z</time></trkpt><trkpt lat="39.31126862707743" lon="9.309435170952078"><ele>400.99999999999994</ele><time>2026-03-29T11:23:03Z</time></trkpt><trkpt lat="39.31120825712328" lon="9.309411916209696"><ele>401.0</ele><time>2026-03-29T11:23:05Z</time></trkpt><trkpt lat="39.311121993028195" lon="9.309361610993351"><ele>398.49999999999994</ele><time>2026-03-29T11:23:06Z</time></trkpt><trkpt lat="39.311068560737255" lon="9.30928985559892"><ele>396.0</ele><time>2026-03-29T11:23:07Z</time></trkpt><trkpt lat="39.310979153639025" lon="9.30922816354373"><ele>393.5</ele><time>2026-03-29T11:23:08.999Z</time></trkpt><trkpt lat="39.31091912703994" lon="9.309199839270997"><ele>391.0</ele><time>2026-03-29T11:23:09.999Z</time></trkpt><trkpt lat="39.3108485500048" lon="9.309165674766827"><ele>388.49999999999994</ele><time>2026-03-29T11:23:10.999Z</time></trkpt><trkpt lat="39.3107775346934" lon="9.30914129167267"><ele>386.0</ele><time>2026-03-29T11:23:11.999Z</time></trkpt><trkpt lat="39.31068972969197" lon="9.309123925808583"><ele>385.99999999999994</ele><time>2026-03-29T11:23:12.999Z</time></trkpt><trkpt lat="39.31060436885561" lon="9.30907394209161"><ele>386.0</ele><time>2026-03-29T11:23:13.999Z</time></trkpt><trkpt lat="39.31055188810959" lon="9.309011062107091"><ele>386.0</ele><time>2026-03-29T11:23:14.999Z</time></trkpt><trkpt lat="39.31049915788152" lon="9.308929415322668"><ele>386.0</ele><time>2026-03-29T11:23:15.999Z</time></trkpt><trkpt lat="39.3104523218166" lon="9.308838113630486"><ele>385.99999999999994</ele><time>2026-03-29T11:23:16.999Z</time></trkpt><trkpt lat="39.31042696345768" lon="9.308744678903007"><ele>386.0</ele><time>2026-03-29T11:23:17.999Z</time></trkpt><trkpt lat="39.3103804359514" lon="9.308663054767445"><ele>383.49999999999994</ele><time>2026-03-29T11:23:18.999Z</time></trkpt><trkpt lat="39.31035403551008" lon="9.308588029719559"><ele>381.0</ele><time>2026-03-29T11:23:19.999Z</time></trkpt><trkpt lat="39.31032227917168" lon="9.308501306826562"><ele>378.5</ele><time>2026-03-29T11:23:20.999Z</time></trkpt><trkpt lat="39.31029307110591" lon="9.30841782704936"><ele>376.0</ele><time>2026-03-29T11:23:21.999Z</time></trkpt><trkpt lat="39.310267849146214" lon="9.308283959251021"><ele>373.5</ele><time>2026-03-29T11:23:23.999Z</time></trkpt><trkpt lat="39.31020241141474" lon="9.308158705724836"><ele>371.0</ele><time>2026-03-29T11:23:25.999Z</time></trkpt><trkpt lat="39.310225779916735" lon="9.308014263758556"><ele>370.42857142857144</ele><time>2026-03-29T11:23:27.999Z</time></trkpt><trkpt lat="39.31029766420547" lon="9.307965590644466"><ele>369.8571428571429</ele><time>2026-03-29T11:23:28.999Z</time></trkpt><trkpt lat="39.31035228327199" lon="9.307920386887723"><ele>369.2857142857143</ele><time>2026-03-29T11:23:29.999Z</time></trkpt><trkpt lat="39.310407779774" lon="9.307880662562834"><ele>368.7142857142857</ele><time>2026-03-29T11:23:30.999Z</time></trkpt><trkpt lat="39.31046232256349" lon="9.307839469748659"><ele>368.14285714285717</ele><time>2026-03-29T11:23:31.999Z</time></trkpt><trkpt lat="39.31050516826082" lon="9.30777522383366"><ele>367.57142857142856</ele><time>2026-03-29T11:23:32.999Z</time></trkpt><trkpt lat="39.31054541202895" lon="9.307712186416806"><ele>367.0</ele><time>2026-03-29T11:23:33.999Z</time></trkpt><trkpt lat="39.31065948676912" lon="9.307636132838342"><ele>366.2857142857143</ele><time>2026-03-29T11:23:35.999Z</time></trkpt><trkpt lat="39.3107213406748" lon="9.307602282316997"><ele>365.5714285714286</ele><time>2026-03-29T11:23:36.999Z</time></trkpt><trkpt lat="39.31078241142445" lon="9.307560601251208"><ele>364.8571428571429</ele><time>2026-03-29T11:23:37.999Z</time></trkpt><trkpt lat="39.310842570554804" lon="9.307513607684978"><ele>364.1428571428571</ele><time>2026-03-29T11:23:38.999Z</time></trkpt><trkpt lat="39.310899521182094" lon="9.307463981293877"><ele>363.42857142857144</ele><time>2026-03-29T11:23:39.999Z</time></trkpt><trkpt lat="39.31095510099588" lon="9.307409934253547"><ele>362.7142857142857</ele><time>2026-03-29T11:23:40.999Z</time></trkpt><trkpt lat="39.31101927803964" lon="9.307354310694151"><ele>362.0</ele><time>2026-03-29T11:23:41.999Z</time></trkpt><trkpt lat="39.31108322087765" lon="9.307284761036701"><ele>361.0</ele><time>2026-03-29T11:23:42.999Z</time></trkpt><trkpt lat="39.311137238487945" lon="9.307218842748206"><ele>360.0</ele><time>2026-03-29T11:23:43.999Z</time></trkpt><trkpt lat="39.31119036944179" lon="9.307095903957412"><ele>359.0</ele><time>2026-03-29T11:23:45.998Z</time></trkpt><trkpt lat="39.31120514769994" lon="9.306929759449499"><ele>358.0</ele><time>2026-03-29T11:23:47.998Z</time></trkpt><trkpt lat="39.311220449113705" lon="9.30682933117525"><ele>357.0</ele><time>2026-03-29T11:23:48.998Z</time></trkpt><trkpt lat="39.3112374237531" lon="9.306727730575773"><ele>357.0</ele><time>2026-03-29T11:23:49.998Z</time></trkpt><trkpt lat="39.31124344547792" lon="9.306611890815784"><ele>357.0</ele><time>2026-03-29T11:23:50.998Z</time></trkpt><trkpt lat="39.31124812758036" lon="9.306502065547614"><ele>357.0</ele><time>2026-03-29T11:23:51.998Z</time></trkpt><trkpt lat="39.31126158344155" lon="9.306396140479453"><ele>357.0</ele><time>2026-03-29T11:23:52.998Z</time></trkpt><trkpt lat="39.311283978548055" lon="9.306300441091919"><ele>357.0</ele><time>2026-03-29T11:23:53.998Z</time></trkpt><trkpt lat="39.311296562261596" lon="9.306212290301021"><ele>357.0</ele><time>2026-03-29T11:23:54.998Z</time></trkpt><trkpt lat="39.31131171831466" lon="9.306045140352516"><ele>356.8333333333333</ele><time>2026-03-29T11:23:56.998Z</time></trkpt><trkpt lat="39.31132290936842" lon="9.30596156235623"><ele>356.6666666666667</ele><time>2026-03-29T11:23:57.998Z</time></trkpt><trkpt lat="39.31135627423051" lon="9.305803905802222"><ele>356.5</ele><time>2026-03-29T11:23:59.998Z</time></trkpt><trkpt lat="39.31137086793329" lon="9.305704267466961"><ele>356.33333333333337</ele><time>2026-03-29T11:24:00.998Z</time></trkpt><trkpt lat="39.31138243735978" lon="9.305602599639778"><ele>356.1666666666667</ele><time>2026-03-29T11:24:01.998Z</time></trkpt><trkpt lat="39.31139269566728" lon="9.305503529926293"><ele>356.0</ele><time>2026-03-29T11:24:02.998Z</time></trkpt><trkpt lat="39.31139240579649" lon="9.3053986797353"><ele>355.33333333333337</ele><time>2026-03-29T11:24:03.998Z</time></trkpt><trkpt lat="39.311396684977076" lon="9.305281439164089"><ele>354.6666666666667</ele><time>2026-03-29T11:24:04.998Z</time></trkpt><trkpt lat="39.31141006254582" lon="9.305168961750514"><ele>354.0</ele><time>2026-03-29T11:24:05.998Z</time></trkpt><trkpt lat="39.311425207392546" lon="9.305061073511661"><ele>353.3333333333333</ele><time>2026-03-29T11:24:06.998Z</time></trkpt><trkpt lat="39.311440943612844" lon="9.30495434286869"><ele>352.66666666666663</ele><time>2026-03-29T11:24:07.998Z</time></trkpt><trkpt lat="39.311463131245574" lon="9.304850162846988"><ele>352.0</ele><time>2026-03-29T11:24:08.998Z</time></trkpt><trkpt lat="39.31147973435507" lon="9.304745554209836"><ele>351.0</ele><time>2026-03-29T11:24:09.998Z</time></trkpt><trkpt lat="39.31149582866693" lon="9.304637424790158"><ele>350.0</ele><time>2026-03-29T11:24:10.998Z</time></trkpt><trkpt lat="39.31151909711871" lon="9.304536832928788"><ele>349.0</ele><time>2026-03-29T11:24:11.998Z</time></trkpt><trkpt lat="39.31154533137898" lon="9.304430917743773"><ele>348.0</ele><time>2026-03-29T11:24:12.998Z</time></trkpt><trkpt lat="39.31156062053693" lon="9.304306473441716"><ele>347.0</ele><time>2026-03-29T11:24:13.998Z</time></trkpt><trkpt lat="39.31157422415811" lon="9.304184215721211"><ele>346.0</ele><time>2026-03-29T11:24:14.998Z</time></trkpt><trkpt lat="39.3115916250958" lon="9.304069742394123"><ele>346.0</ele><time>2026-03-29T11:24:15.998Z</time></trkpt><trkpt lat="39.31161984348432" lon="9.303960570948723"><ele>346.0</ele><time>2026-03-29T11:24:16.998Z</time></trkpt><trkpt lat="39.311631106199286" lon="9.303847425543937"><ele>346.0</ele><time>2026-03-29T11:24:17.998Z</time></trkpt><trkpt lat="39.3116164846874" lon="9.303737912784777"><ele>346.0</ele><time>2026-03-29T11:24:18.998Z</time></trkpt><trkpt lat="39.31157870228381" lon="9.303620526591128"><ele>346.0</ele><time>2026-03-29T11:24:19.998Z</time></trkpt><trkpt lat="39.311519726564164" lon="9.303519018710306"><ele>345.8</ele><time>2026-03-29T11:24:20.998Z</time></trkpt><trkpt lat="39.311446277427635" lon="9.30343126037418"><ele>345.6</ele><time>2026-03-29T11:24:21.998Z</time></trkpt><trkpt lat="39.311370158850096" lon="9.303352634583813"><ele>345.4</ele><time>2026-03-29T11:24:22.998Z</time></trkpt><trkpt lat="39.31129427554596" lon="9.303280756780206"><ele>345.2</ele><time>2026-03-29T11:24:23.997Z</time></trkpt><trkpt lat="39.311218466849084" lon="9.30320169213223"><ele>345.0</ele><time>2026-03-29T11:24:24.997Z</time></trkpt><trkpt lat="39.31114823815953" lon="9.30311887405302"><ele>347.6</ele><time>2026-03-29T11:24:25.997Z</time></trkpt><trkpt lat="39.311068185820766" lon="9.303062702050026"><ele>350.2</ele><time>2026-03-29T11:24:26.997Z</time></trkpt><trkpt lat="39.3109823035282" lon="9.303013419856084"><ele>352.79999999999995</ele><time>2026-03-29T11:24:27.997Z</time></trkpt><trkpt lat="39.31089041844065" lon="9.302974480543904"><ele>355.4</ele><time>2026-03-29T11:24:28.997Z</time></trkpt><trkpt lat="39.31079882181088" lon="9.302930382017578"><ele>358.0</ele><time>2026-03-29T11:24:29.997Z</time></trkpt><trkpt lat="39.310716330892646" lon="9.302862664794189"><ele>358.0</ele><time>2026-03-29T11:24:30.997Z</time></trkpt><trkpt lat="39.31065099123727" lon="9.302778837448765"><ele>358.0</ele><time>2026-03-29T11:24:31.997Z</time></trkpt><trkpt lat="39.31059833416671" lon="9.302689210106813"><ele>358.0</ele><time>2026-03-29T11:24:32.997Z</time></trkpt><trkpt lat="39.31054751403509" lon="9.30259779037938"><ele>358.0</ele><time>2026-03-29T11:24:33.997Z</time></trkpt><trkpt lat="39.31048983692971" lon="9.302510636042417"><ele>358.0</ele><time>2026-03-29T11:24:34.997Z</time></trkpt><trkpt lat="39.31042198589456" lon="9.30242100906866"><ele>358.5</ele><time>2026-03-29T11:24:35.997Z</time></trkpt><trkpt lat="39.310352328680814" lon="9.302342453006794"><ele>359.0</ele><time>2026-03-29T11:24:36.997Z</time></trkpt><trkpt lat="39.31031179313314" lon="9.302256212510146"><ele>359.5</ele><time>2026-03-29T11:24:37.997Z</time></trkpt><trkpt lat="39.3102997667646" lon="9.302152288752973"><ele>360.0</ele><time>2026-03-29T11:24:38.997Z</time></trkpt><trkpt lat="39.31029753587188" lon="9.302044229498767"><ele>360.5</ele><time>2026-03-29T11:24:39.997Z</time></trkpt><trkpt lat="39.31030285121014" lon="9.301935542777164"><ele>361.0</ele><time>2026-03-29T11:24:40.997Z</time></trkpt><trkpt lat="39.310319814047" lon="9.301826191299009"><ele>361.0</ele><time>2026-03-29T11:24:41.997Z</time></trkpt><trkpt lat="39.31033847929659" lon="9.301717726308862"><ele>361.0</ele><time>2026-03-29T11:24:43Z</time></trkpt><trkpt lat="39.31035996547342" lon="9.301597714582764"><ele>361.0</ele><time>2026-03-29T11:24:44Z</time></trkpt><trkpt lat="39.310374485121855" lon="9.301467797753876"><ele>361.0</ele><time>2026-03-29T11:24:45Z</time></trkpt><trkpt lat="39.310384070830665" lon="9.301329448132568"><ele>361.0</ele><time>2026-03-29T11:24:46Z</time></trkpt><trkpt lat="39.310380637885594" lon="9.301164729671953"><ele>360.5</ele><time>2026-03-29T11:24:47Z</time></trkpt><trkpt lat="39.310378794997696" lon="9.300976481694182"><ele>360.0</ele><time>2026-03-29T11:24:48Z</time></trkpt><trkpt lat="39.31037936925995" lon="9.300783795667483"><ele>359.5</ele><time>2026-03-29T11:24:49Z</time></trkpt><trkpt lat="39.31038377663454" lon="9.300595930004027"><ele>359.0</ele><time>2026-03-29T11:24:50Z</time></trkpt><trkpt lat="39.31039178073353" lon="9.300426739326278"><ele>358.2</ele><time>2026-03-29T11:24:51Z</time></trkpt><trkpt lat="39.3103997644326" lon="9.300272861010075"><ele>357.4</ele><time>2026-03-29T11:24:52Z</time></trkpt><trkpt lat="39.31040559517499" lon="9.300135093453768"><ele>356.6</ele><time>2026-03-29T11:24:53Z</time></trkpt><trkpt lat="39.310403180395035" lon="9.300003505027828"><ele>355.8</ele><time>2026-03-29T11:24:54Z</time></trkpt><trkpt lat="39.3103987833026" lon="9.299876612647052"><ele>355.0</ele><time>2026-03-29T11:24:55Z</time></trkpt><trkpt lat="39.310385884719786" lon="9.299760279832249"><ele>354.8</ele><time>2026-03-29T11:24:56Z</time></trkpt><trkpt lat="39.31037397775437" lon="9.29964694223025"><ele>354.6</ele><time>2026-03-29T11:24:57Z</time></trkpt><trkpt lat="39.31036957909641" lon="9.299535766328141"><ele>354.4</ele><time>2026-03-29T11:24:58Z</time></trkpt><trkpt lat="39.31036276563372" lon="9.29941957483459"><ele>354.2</ele><time>2026-03-29T11:24:59Z</time></trkpt><trkpt lat="39.310354872919476" lon="9.299292845481665"><ele>354.0</ele><time>2026-03-29T11:25:00Z</time></trkpt><trkpt lat="39.31034088398508" lon="9.299180938511903"><ele>354.0</ele><time>2026-03-29T11:25:01Z</time></trkpt><trkpt lat="39.31031046075096" lon="9.299087293215365"><ele>354.0</ele><time>2026-03-29T11:25:02Z</time></trkpt><trkpt lat="39.310270909677" lon="9.299004949825777"><ele>354.0</ele><time>2026-03-29T11:25:03Z</time></trkpt><trkpt lat="39.31024044818955" lon="9.298918114774729"><ele>354.0</ele><time>2026-03-29T11:25:04Z</time></trkpt><trkpt lat="39.31021084715222" lon="9.29879844009442"><ele>354.0</ele><time>2026-03-29T11:25:05Z</time></trkpt><trkpt lat="39.310173019373714" lon="9.298658636556725"><ele>354.0</ele><time>2026-03-29T11:25:06Z</time></trkpt><trkpt lat="39.31013646182063" lon="9.298529807175264"><ele>353.3333333333333</ele><time>2026-03-29T11:25:07Z</time></trkpt><trkpt lat="39.3101081494223" lon="9.298426562892782"><ele>352.6666666666667</ele><time>2026-03-29T11:25:08Z</time></trkpt><trkpt lat="39.31007593723444" lon="9.29833630868503"><ele>352.0</ele><time>2026-03-29T11:25:09Z</time></trkpt><trkpt lat="39.31004603540239" lon="9.298259087648818"><ele>351.33333333333337</ele><time>2026-03-29T11:25:10Z</time></trkpt><trkpt lat="39.309989218941766" lon="9.298107906299313"><ele>350.6666666666667</ele><time>2026-03-29T11:25:12Z</time></trkpt><trkpt lat="39.309952598925626" lon="9.29803221083889"><ele>350.0</ele><time>2026-03-29T11:25:13Z</time></trkpt><trkpt lat="39.30990710987153" lon="9.297867309646493"><ele>350.0</ele><time>2026-03-29T11:25:15Z</time></trkpt><trkpt lat="39.309900121027866" lon="9.297776705529328"><ele>350.0</ele><time>2026-03-29T11:25:15.999Z</time></trkpt><trkpt lat="39.30992118213651" lon="9.297672754537693"><ele>350.0</ele><time>2026-03-29T11:25:16.999Z</time></trkpt><trkpt lat="39.30992723204286" lon="9.297579181535593"><ele>350.0</ele><time>2026-03-29T11:25:17.999Z</time></trkpt><trkpt lat="39.30993066825859" lon="9.297472454738472"><ele>350.0</ele><time>2026-03-29T11:25:18.999Z</time></trkpt><trkpt lat="39.309930532472855" lon="9.297362792595473"><ele>350.0</ele><time>2026-03-29T11:25:19.999Z</time></trkpt><trkpt lat="39.30993223117602" lon="9.297254884741877"><ele>348.2</ele><time>2026-03-29T11:25:20.999Z</time></trkpt><trkpt lat="39.30994122031487" lon="9.29714396745979"><ele>346.4</ele><time>2026-03-29T11:25:21.999Z</time></trkpt><trkpt lat="39.30994825925044" lon="9.297031504738847"><ele>344.6</ele><time>2026-03-29T11:25:22.999Z</time></trkpt><trkpt lat="39.309953524553066" lon="9.29689868647766"><ele>342.8</ele><time>2026-03-29T11:25:23.999Z</time></trkpt><trkpt lat="39.3099430554748" lon="9.296762597415087"><ele>341.0</ele><time>2026-03-29T11:25:24.999Z</time></trkpt><trkpt lat="39.30994752945556" lon="9.296640576062362"><ele>341.0</ele><time>2026-03-29T11:25:25.999Z</time></trkpt><trkpt lat="39.30995161385319" lon="9.296549762955676"><ele>341.0</ele><time>2026-03-29T11:25:26.999Z</time></trkpt><trkpt lat="39.30995701280838" lon="9.29639193962633"><ele>341.0</ele><time>2026-03-29T11:25:28.999Z</time></trkpt><trkpt lat="39.30995326964263" lon="9.296294068205906"><ele>341.0</ele><time>2026-03-29T11:25:29.999Z</time></trkpt><trkpt lat="39.30995064528919" lon="9.296184438094889"><ele>341.0</ele><time>2026-03-29T11:25:30.999Z</time></trkpt><trkpt lat="39.309957693493274" lon="9.29606133689788"><ele>341.0</ele><time>2026-03-29T11:25:31.999Z</time></trkpt><trkpt lat="39.30996847129544" lon="9.295927444621215"><ele>339.6666666666667</ele><time>2026-03-29T11:25:32.999Z</time></trkpt><trkpt lat="39.30998114042916" lon="9.29579606096338"><ele>338.33333333333337</ele><time>2026-03-29T11:25:33.999Z</time></trkpt><trkpt lat="39.30999432425269" lon="9.29567396770737"><ele>337.0</ele><time>2026-03-29T11:25:34.999Z</time></trkpt><trkpt lat="39.309994382250444" lon="9.295556446860093"><ele>335.6666666666667</ele><time>2026-03-29T11:25:35.999Z</time></trkpt><trkpt lat="39.309967569458365" lon="9.295458503807268"><ele>334.3333333333333</ele><time>2026-03-29T11:25:37.999Z</time></trkpt><trkpt lat="39.30990425624809" lon="9.295443811386802"><ele>333.0</ele><time>2026-03-29T11:25:39.999Z</time></trkpt><trkpt lat="39.30983839923041" lon="9.295568185775632"><ele>333.0</ele><time>2026-03-29T11:25:42.999Z</time></trkpt><trkpt lat="39.309793203744604" lon="9.295670054563585"><ele>333.0</ele><time>2026-03-29T11:25:46.999Z</time></trkpt><trkpt lat="39.30946917115574" lon="9.295949678508407"><ele>330.3333333333333</ele><time>2026-03-29T11:25:49.999Z</time></trkpt><trkpt lat="39.309387440002226" lon="9.295965334011246"><ele>327.6666666666667</ele><time>2026-03-29T11:25:51.999Z</time></trkpt><trkpt lat="39.30929498125553" lon="9.295964560452735"><ele>325.0</ele><time>2026-03-29T11:25:53.999Z</time></trkpt><trkpt lat="39.30922979000119" lon="9.295950550594643"><ele>322.33333333333337</ele><time>2026-03-29T11:25:55.998Z</time></trkpt><trkpt lat="39.30916286134617" lon="9.295948420485395"><ele>319.6666666666667</ele><time>2026-03-29T11:25:59.998Z</time></trkpt><trkpt lat="39.309209407533" lon="9.296062458686531"><ele>317.0</ele><time>2026-03-29T11:26:14.998Z</time></trkpt><trkpt lat="39.309226490193005" lon="9.296141157048647"><ele>317.0</ele><time>2026-03-29T11:26:15.998Z</time></trkpt><trkpt lat="39.30924404944198" lon="9.296224315641828"><ele>317.0</ele><time>2026-03-29T11:26:16.998Z</time></trkpt><trkpt lat="39.3092609341941" lon="9.296317263544715"><ele>317.0</ele><time>2026-03-29T11:26:17.998Z</time></trkpt><trkpt lat="39.30928584450735" lon="9.29643167008635"><ele>317.0</ele><time>2026-03-29T11:26:18.998Z</time></trkpt><trkpt lat="39.30929013748573" lon="9.29651498465297"><ele>317.0</ele><time>2026-03-29T11:26:19.998Z</time></trkpt><trkpt lat="39.30931020576897" lon="9.296668561964108"><ele>317.0</ele><time>2026-03-29T11:26:21.998Z</time></trkpt><trkpt lat="39.309318140978384" lon="9.296797286887092"><ele>318.33333333333337</ele><time>2026-03-29T11:26:23.998Z</time></trkpt><trkpt lat="39.30929530317101" lon="9.296888475229597"><ele>319.6666666666667</ele><time>2026-03-29T11:26:24.998Z</time></trkpt><trkpt lat="39.30924976821049" lon="9.296975430822233"><ele>321.0</ele><time>2026-03-29T11:26:25.998Z</time></trkpt><trkpt lat="39.309206467408565" lon="9.297069318261324"><ele>322.3333333333333</ele><time>2026-03-29T11:26:26.998Z</time></trkpt><trkpt lat="39.30915552160008" lon="9.29713444455847"><ele>323.66666666666663</ele><time>2026-03-29T11:26:27.998Z</time></trkpt><trkpt lat="39.3090880850367" lon="9.297173315221741"><ele>325.0</ele><time>2026-03-29T11:26:28.998Z</time></trkpt><trkpt lat="39.3090189709612" lon="9.297216377930718"><ele>324.8333333333333</ele><time>2026-03-29T11:26:29.998Z</time></trkpt><trkpt lat="39.30893591969723" lon="9.297261042569104"><ele>324.66666666666663</ele><time>2026-03-29T11:26:30.998Z</time></trkpt><trkpt lat="39.30885433693471" lon="9.297316554440643"><ele>324.5</ele><time>2026-03-29T11:26:31.998Z</time></trkpt><trkpt lat="39.308795016106366" lon="9.297394985347987"><ele>324.3333333333333</ele><time>2026-03-29T11:26:32.997Z</time></trkpt><trkpt lat="39.3087505920576" lon="9.297486012954572"><ele>324.1666666666667</ele><time>2026-03-29T11:26:33.997Z</time></trkpt><trkpt lat="39.30871424749169" lon="9.297586986010803"><ele>324.0</ele><time>2026-03-29T11:26:34.997Z</time></trkpt><trkpt lat="39.30868913406185" lon="9.297696080172498"><ele>324.0</ele><time>2026-03-29T11:26:35.997Z</time></trkpt><trkpt lat="39.30865803700374" lon="9.297805271775335"><ele>324.0</ele><time>2026-03-29T11:26:36.997Z</time></trkpt><trkpt lat="39.30862901966433" lon="9.297915955395167"><ele>324.0</ele><time>2026-03-29T11:26:37.997Z</time></trkpt><trkpt lat="39.30860826582105" lon="9.298031950777641"><ele>324.0</ele><time>2026-03-29T11:26:38.997Z</time></trkpt><trkpt lat="39.30857420083421" lon="9.298124341310604"><ele>324.0</ele><time>2026-03-29T11:26:39.997Z</time></trkpt><trkpt lat="39.30854080195864" lon="9.298224829497698"><ele>324.0</ele><time>2026-03-29T11:26:40.997Z</time></trkpt><trkpt lat="39.30851732475191" lon="9.298313173271376"><ele>326.2857142857143</ele><time>2026-03-29T11:26:41.997Z</time></trkpt><trkpt lat="39.30848136748852" lon="9.298388234691197"><ele>328.57142857142856</ele><time>2026-03-29T11:26:42.997Z</time></trkpt><trkpt lat="39.308466660954586" lon="9.298472544008971"><ele>330.8571428571429</ele><time>2026-03-29T11:26:43.997Z</time></trkpt><trkpt lat="39.30848594300981" lon="9.298553807415198"><ele>333.1428571428571</ele><time>2026-03-29T11:26:44.997Z</time></trkpt><trkpt lat="39.308522920218394" lon="9.29862552752296"><ele>335.4285714285714</ele><time>2026-03-29T11:26:45.997Z</time></trkpt><trkpt lat="39.30856869667849" lon="9.298691081641042"><ele>337.7142857142857</ele><time>2026-03-29T11:26:47.997Z</time></trkpt><trkpt lat="39.308509915008976" lon="9.298731635435939"><ele>340.0</ele><time>2026-03-29T11:26:50Z</time></trkpt><trkpt lat="39.30843147486259" lon="9.298722077720864"><ele>340.0</ele><time>2026-03-29T11:26:52Z</time></trkpt><trkpt lat="39.308340244887454" lon="9.298765409790475"><ele>340.0</ele><time>2026-03-29T11:26:54Z</time></trkpt><trkpt lat="39.30827030296801" lon="9.29886024891064"><ele>340.0</ele><time>2026-03-29T11:26:55Z</time></trkpt><trkpt lat="39.30819876521032" lon="9.29895985982081"><ele>340.0</ele><time>2026-03-29T11:26:56Z</time></trkpt><trkpt lat="39.30810434594087" lon="9.299013222301893"><ele>340.0</ele><time>2026-03-29T11:26:57Z</time></trkpt><trkpt lat="39.308026456312064" lon="9.299043198967487"><ele>339.8</ele><time>2026-03-29T11:26:58Z</time></trkpt><trkpt lat="39.30794510718443" lon="9.299063907953046"><ele>339.6</ele><time>2026-03-29T11:26:59Z</time></trkpt><trkpt lat="39.30787373470208" lon="9.299113265771842"><ele>339.4</ele><time>2026-03-29T11:27:01Z</time></trkpt><trkpt lat="39.30777559334204" lon="9.299196410760421"><ele>339.2</ele><time>2026-03-29T11:27:03Z</time></trkpt><trkpt lat="39.30769886720055" lon="9.299231728107303"><ele>339.0</ele><time>2026-03-29T11:27:05Z</time></trkpt><trkpt lat="39.30762386830839" lon="9.299293349010407"><ele>339.0</ele><time>2026-03-29T11:27:07Z</time></trkpt><trkpt lat="39.307512401503985" lon="9.299349090625192"><ele>339.0</ele><time>2026-03-29T11:27:09Z</time></trkpt><trkpt lat="39.30744146992683" lon="9.299369830813514"><ele>339.0</ele><time>2026-03-29T11:27:10Z</time></trkpt><trkpt lat="39.30736651919235" lon="9.299414826379234"><ele>339.0</ele><time>2026-03-29T11:27:11Z</time></trkpt><trkpt lat="39.30729535410348" lon="9.299468191826273"><ele>339.0</ele><time>2026-03-29T11:27:12Z</time></trkpt><trkpt lat="39.30721696324954" lon="9.29950603209013"><ele>339.0</ele><time>2026-03-29T11:27:13Z</time></trkpt><trkpt lat="39.30712785908585" lon="9.299543476154739"><ele>336.1666666666667</ele><time>2026-03-29T11:27:14Z</time></trkpt><trkpt lat="39.30704668883892" lon="9.299540107907704"><ele>333.3333333333333</ele><time>2026-03-29T11:27:15Z</time></trkpt><trkpt lat="39.306979347189284" lon="9.299535039961226"><ele>330.5</ele><time>2026-03-29T11:27:16Z</time></trkpt><trkpt lat="39.306907321526396" lon="9.299528824783831"><ele>327.66666666666663</ele><time>2026-03-29T11:27:17Z</time></trkpt><trkpt lat="39.30684047131647" lon="9.299533361463427"><ele>324.8333333333333</ele><time>2026-03-29T11:27:18Z</time></trkpt><trkpt lat="39.30675875575312" lon="9.299571827898927"><ele>322.0</ele><time>2026-03-29T11:27:19Z</time></trkpt><trkpt lat="39.30667860215604" lon="9.299625837173433"><ele>322.0</ele><time>2026-03-29T11:27:20Z</time></trkpt><trkpt lat="39.306599645426836" lon="9.299675482506983"><ele>322.0</ele><time>2026-03-29T11:27:20.999Z</time></trkpt><trkpt lat="39.3065136152097" lon="9.299707050533547"><ele>322.0</ele><time>2026-03-29T11:27:21.999Z</time></trkpt><trkpt lat="39.30643831188291" lon="9.299738747975939"><ele>322.0</ele><time>2026-03-29T11:27:22.999Z</time></trkpt><trkpt lat="39.30638066765375" lon="9.299781379810318"><ele>322.0</ele><time>2026-03-29T11:27:23.999Z</time></trkpt><trkpt lat="39.306315184035164" lon="9.299828149925418"><ele>322.0</ele><time>2026-03-29T11:27:25.999Z</time></trkpt><trkpt lat="39.306216540027236" lon="9.29982475872095"><ele>320.3333333333333</ele><time>2026-03-29T11:27:27.999Z</time></trkpt><trkpt lat="39.30615159248705" lon="9.299830295124048"><ele>318.66666666666663</ele><time>2026-03-29T11:27:30.999Z</time></trkpt><trkpt lat="39.306091364603596" lon="9.299867923919168"><ele>317.0</ele><time>2026-03-29T11:27:32.999Z</time></trkpt><trkpt lat="39.3060319796901" lon="9.299910547902828"><ele>315.3333333333333</ele><time>2026-03-29T11:27:34.999Z</time></trkpt><trkpt lat="39.30594497609321" lon="9.29994494605932"><ele>313.6666666666667</ele><time>2026-03-29T11:27:37.999Z</time></trkpt><trkpt lat="39.3058855029224" lon="9.299992155383698"><ele>312.0</ele><time>2026-03-29T11:27:39.999Z</time></trkpt><trkpt lat="39.30570523048095" lon="9.30004227348477"><ele>312.0</ele><time>2026-03-29T11:27:40.999Z</time></trkpt><trkpt lat="39.30560194202404" lon="9.300062969195748"><ele>312.0</ele><time>2026-03-29T11:27:42.999Z</time></trkpt><trkpt lat="39.30552838722806" lon="9.300061830464232"><ele>312.0</ele><time>2026-03-29T11:27:45.999Z</time></trkpt><trkpt lat="39.30546961406743" lon="9.300101373339123"><ele>312.0</ele><time>2026-03-29T11:27:47.999Z</time></trkpt><trkpt lat="39.30538992339636" lon="9.300134150359296"><ele>312.0</ele><time>2026-03-29T11:27:50.999Z</time></trkpt><trkpt lat="39.30532673091134" lon="9.30009299208244"><ele>312.0</ele><time>2026-03-29T11:27:53.999Z</time></trkpt><trkpt lat="39.30525343568369" lon="9.300054536486673"><ele>311.0</ele><time>2026-03-29T11:27:54.999Z</time></trkpt><trkpt lat="39.305205464189" lon="9.299996747870546"><ele>310.0</ele><time>2026-03-29T11:27:55.999Z</time></trkpt><trkpt lat="39.305189816661006" lon="9.299885224944292"><ele>309.0</ele><time>2026-03-29T11:27:56.999Z</time></trkpt><trkpt lat="39.30519288483287" lon="9.299750839005151"><ele>308.0</ele><time>2026-03-29T11:27:57.999Z</time></trkpt><trkpt lat="39.30518448317021" lon="9.299622884751196"><ele>307.0</ele><time>2026-03-29T11:27:58.998Z</time></trkpt><trkpt lat="39.30517115538998" lon="9.29951019039251"><ele>306.0</ele><time>2026-03-29T11:27:59.998Z</time></trkpt><trkpt lat="39.30514621391581" lon="9.29941944558114"><ele>305.3333333333333</ele><time>2026-03-29T11:28:00.998Z</time></trkpt><trkpt lat="39.305119765397166" lon="9.29932105924872"><ele>304.6666666666667</ele><time>2026-03-29T11:28:01.998Z</time></trkpt><trkpt lat="39.30509765595177" lon="9.299216185197922"><ele>304.0</ele><time>2026-03-29T11:28:02.998Z</time></trkpt><trkpt lat="39.305090534249004" lon="9.29911735722786"><ele>303.33333333333337</ele><time>2026-03-29T11:28:03.998Z</time></trkpt><trkpt lat="39.305065687709586" lon="9.299024459576634"><ele>302.6666666666667</ele><time>2026-03-29T11:28:04.998Z</time></trkpt><trkpt lat="39.305055151070384" lon="9.298936024364538"><ele>302.0</ele><time>2026-03-29T11:28:05.998Z</time></trkpt><trkpt lat="39.305025703368436" lon="9.298786532366524"><ele>300.42857142857144</ele><time>2026-03-29T11:28:07.998Z</time></trkpt><trkpt lat="39.30497859689618" lon="9.298718091660342"><ele>298.8571428571429</ele><time>2026-03-29T11:28:08.998Z</time></trkpt><trkpt lat="39.30493190110557" lon="9.29865841849149"><ele>297.2857142857143</ele><time>2026-03-29T11:28:09.998Z</time></trkpt><trkpt lat="39.30489374444164" lon="9.298585966529792"><ele>295.7142857142857</ele><time>2026-03-29T11:28:10.998Z</time></trkpt><trkpt lat="39.30483858322742" lon="9.298535932091806"><ele>294.1428571428571</ele><time>2026-03-29T11:28:11.998Z</time></trkpt><trkpt lat="39.304766920694945" lon="9.298497634082231"><ele>292.57142857142856</ele><time>2026-03-29T11:28:12.998Z</time></trkpt><trkpt lat="39.30468824796321" lon="9.298488724056588"><ele>291.0</ele><time>2026-03-29T11:28:13.998Z</time></trkpt><trkpt lat="39.30460824643457" lon="9.29850388858262"><ele>289.8333333333333</ele><time>2026-03-29T11:28:14.998Z</time></trkpt><trkpt lat="39.30453461240397" lon="9.298538776169654"><ele>288.6666666666667</ele><time>2026-03-29T11:28:15.998Z</time></trkpt><trkpt lat="39.304452880502375" lon="9.298555088419207"><ele>287.5</ele><time>2026-03-29T11:28:16.998Z</time></trkpt><trkpt lat="39.304370379883395" lon="9.298570593364444"><ele>286.33333333333337</ele><time>2026-03-29T11:28:17.998Z</time></trkpt><trkpt lat="39.304291056692655" lon="9.298582825930833"><ele>285.1666666666667</ele><time>2026-03-29T11:28:18.998Z</time></trkpt><trkpt lat="39.304220231262" lon="9.298601767988087"><ele>284.0</ele><time>2026-03-29T11:28:19.998Z</time></trkpt><trkpt lat="39.304157245419766" lon="9.29862655570012"><ele>284.0</ele><time>2026-03-29T11:28:20.998Z</time></trkpt><trkpt lat="39.304091079638575" lon="9.298651024709544"><ele>284.0</ele><time>2026-03-29T11:28:21.998Z</time></trkpt><trkpt lat="39.30402766285677" lon="9.298691649495806"><ele>284.0</ele><time>2026-03-29T11:28:22.998Z</time></trkpt><trkpt lat="39.30392851537948" lon="9.298782754951434"><ele>284.0</ele><time>2026-03-29T11:28:24.998Z</time></trkpt><trkpt lat="39.30384200553043" lon="9.298871740103412"><ele>284.0</ele><time>2026-03-29T11:28:26.998Z</time></trkpt><trkpt lat="39.30377584794345" lon="9.298875306522255"><ele>284.0</ele><time>2026-03-29T11:28:28.998Z</time></trkpt><trkpt lat="39.303779613325936" lon="9.298765657035734"><ele>284.0</ele><time>2026-03-29T11:28:30.998Z</time></trkpt><trkpt lat="39.303801718403065" lon="9.298686092992428"><ele>284.0</ele><time>2026-03-29T11:28:31.998Z</time></trkpt><trkpt lat="39.30385931389302" lon="9.298505688860239"><ele>284.0</ele><time>2026-03-29T11:28:34.998Z</time></trkpt><trkpt lat="39.30390084283128" lon="9.298417506295845"><ele>284.0</ele><time>2026-03-29T11:28:35.998Z</time></trkpt><trkpt lat="39.30396230218277" lon="9.298339950669968"><ele>284.0</ele><time>2026-03-29T11:28:36.997Z</time></trkpt><trkpt lat="39.30401327880294" lon="9.298290263487544"><ele>284.0</ele><time>2026-03-29T11:28:37.997Z</time></trkpt><trkpt lat="39.30404331424535" lon="9.298209077302296"><ele>284.0</ele><time>2026-03-29T11:28:40.997Z</time></trkpt><trkpt lat="39.30394721684437" lon="9.298214027153486"><ele>284.0</ele><time>2026-03-29T11:28:44.997Z</time></trkpt><trkpt lat="39.30385283721424" lon="9.298238668889763"><ele>284.0</ele><time>2026-03-29T11:28:46.997Z</time></trkpt><trkpt lat="39.303753637481805" lon="9.29826532152632"><ele>284.0</ele><time>2026-03-29T11:28:47.997Z</time></trkpt><trkpt lat="39.30366542438084" lon="9.298274778157712"><ele>284.0</ele><time>2026-03-29T11:28:48.997Z</time></trkpt><trkpt lat="39.30358079609942" lon="9.298275832487494"><ele>282.0</ele><time>2026-03-29T11:28:49.997Z</time></trkpt><trkpt lat="39.30350485332121" lon="9.298285966848637"><ele>280.0</ele><time>2026-03-29T11:28:50.997Z</time></trkpt><trkpt lat="39.30344018637983" lon="9.298342507385541"><ele>278.0</ele><time>2026-03-29T11:28:51.997Z</time></trkpt><trkpt lat="39.303384272349646" lon="9.29842664727586"><ele>276.0</ele><time>2026-03-29T11:28:52.997Z</time></trkpt><trkpt lat="39.30336608667444" lon="9.29851665662487"><ele>274.0</ele><time>2026-03-29T11:28:53.997Z</time></trkpt><trkpt lat="39.30335076392177" lon="9.298611144280041"><ele>272.0</ele><time>2026-03-29T11:28:55Z</time></trkpt><trkpt lat="39.30335066833005" lon="9.298712465228585"><ele>271.99999999999994</ele><time>2026-03-29T11:28:56Z</time></trkpt><trkpt lat="39.30334289178725" lon="9.298822945813018"><ele>272.0</ele><time>2026-03-29T11:28:57Z</time></trkpt><trkpt lat="39.30332940312262" lon="9.298921853190919"><ele>272.0</ele><time>2026-03-29T11:28:58Z</time></trkpt><trkpt lat="39.30332113725538" lon="9.299014166505927"><ele>272.0</ele><time>2026-03-29T11:28:59Z</time></trkpt><trkpt lat="39.30332060390604" lon="9.299107239892832"><ele>272.0</ele><time>2026-03-29T11:29:00Z</time></trkpt><trkpt lat="39.30332627484378" lon="9.299200107737235"><ele>271.99999999999994</ele><time>2026-03-29T11:29:01Z</time></trkpt><trkpt lat="39.303348323375594" lon="9.299277679800802"><ele>272.0</ele><time>2026-03-29T11:29:02Z</time></trkpt><trkpt lat="39.303391950873525" lon="9.299401281905412"><ele>271.25</ele><time>2026-03-29T11:29:04Z</time></trkpt><trkpt lat="39.30344784068035" lon="9.299539265071171"><ele>270.5</ele><time>2026-03-29T11:29:06Z</time></trkpt><trkpt lat="39.30348004074081" lon="9.299673816059903"><ele>269.75</ele><time>2026-03-29T11:29:08Z</time></trkpt><trkpt lat="39.303425360202574" lon="9.2997285951831"><ele>269.0</ele><time>2026-03-29T11:29:11Z</time></trkpt><trkpt lat="39.30327967368052" lon="9.299787547202202"><ele>269.0</ele><time>2026-03-29T11:29:13Z</time></trkpt><trkpt lat="39.30321191123411" lon="9.299761702974456"><ele>269.0</ele><time>2026-03-29T11:29:14Z</time></trkpt><trkpt lat="39.30314438731897" lon="9.29972807420853"><ele>269.0</ele><time>2026-03-29T11:29:15Z</time></trkpt><trkpt lat="39.30307010610842" lon="9.299688403384602"><ele>269.0</ele><time>2026-03-29T11:29:16Z</time></trkpt><trkpt lat="39.30300366047962" lon="9.299654514742013"><ele>269.0</ele><time>2026-03-29T11:29:17Z</time></trkpt><trkpt lat="39.30293741167238" lon="9.299623885071767"><ele>269.0</ele><time>2026-03-29T11:29:18Z</time></trkpt><trkpt lat="39.302836246435334" lon="9.29961800811632"><ele>266.33333333333337</ele><time>2026-03-29T11:29:19Z</time></trkpt><trkpt lat="39.30276162894205" lon="9.299565391812607"><ele>263.6666666666667</ele><time>2026-03-29T11:29:20Z</time></trkpt><trkpt lat="39.30270166307958" lon="9.299526327739738"><ele>261.0</ele><time>2026-03-29T11:29:21Z</time></trkpt><trkpt lat="39.302577234898976" lon="9.299559601081981"><ele>258.3333333333333</ele><time>2026-03-29T11:29:23Z</time></trkpt><trkpt lat="39.302497182211276" lon="9.299617780493225"><ele>255.66666666666666</ele><time>2026-03-29T11:29:24Z</time></trkpt><trkpt lat="39.30242675555975" lon="9.299642231243622"><ele>253.0</ele><time>2026-03-29T11:29:25Z</time></trkpt><trkpt lat="39.30235394105091" lon="9.299678006650216"><ele>253.0</ele><time>2026-03-29T11:29:25.999Z</time></trkpt><trkpt lat="39.30228654167512" lon="9.29974447059437"><ele>253.0</ele><time>2026-03-29T11:29:26.999Z</time></trkpt><trkpt lat="39.30221199152031" lon="9.299747433702224"><ele>253.0</ele><time>2026-03-29T11:29:27.999Z</time></trkpt><trkpt lat="39.30214682999065" lon="9.299759277592203"><ele>253.0</ele><time>2026-03-29T11:29:28.999Z</time></trkpt><trkpt lat="39.30204310298258" lon="9.29976405640601"><ele>253.0</ele><time>2026-03-29T11:29:30.999Z</time></trkpt><trkpt lat="39.30191988942461" lon="9.299816775527797"><ele>253.28571428571433</ele><time>2026-03-29T11:29:32.999Z</time></trkpt><trkpt lat="39.30185645214832" lon="9.299849310022722"><ele>253.57142857142858</ele><time>2026-03-29T11:29:33.999Z</time></trkpt><trkpt lat="39.301778601360716" lon="9.299879900857968"><ele>253.8571428571429</ele><time>2026-03-29T11:29:34.999Z</time></trkpt><trkpt lat="39.301722039131604" lon="9.299929753741104"><ele>254.14285714285717</ele><time>2026-03-29T11:29:35.999Z</time></trkpt><trkpt lat="39.301669688574705" lon="9.299997506647566"><ele>254.42857142857144</ele><time>2026-03-29T11:29:36.999Z</time></trkpt><trkpt lat="39.301603374933705" lon="9.300063643652457"><ele>254.71428571428572</ele><time>2026-03-29T11:29:37.999Z</time></trkpt><trkpt lat="39.30154232380687" lon="9.30010872125115"><ele>255.0</ele><time>2026-03-29T11:29:38.999Z</time></trkpt><trkpt lat="39.30143651728052" lon="9.300095216804795"><ele>253.66666666666666</ele><time>2026-03-29T11:29:40.999Z</time></trkpt><trkpt lat="39.30132075290759" lon="9.300047230196624"><ele>252.33333333333331</ele><time>2026-03-29T11:29:42.999Z</time></trkpt><trkpt lat="39.301252536591456" lon="9.300018204488845"><ele>251.0</ele><time>2026-03-29T11:29:43.999Z</time></trkpt><trkpt lat="39.301182168094556" lon="9.299992166109467"><ele>249.66666666666666</ele><time>2026-03-29T11:29:44.999Z</time></trkpt><trkpt lat="39.3011136012737" lon="9.299979190520668"><ele>248.33333333333331</ele><time>2026-03-29T11:29:45.999Z</time></trkpt><trkpt lat="39.30103886286018" lon="9.299974455950396"><ele>247.0</ele><time>2026-03-29T11:29:46.999Z</time></trkpt><trkpt lat="39.3009692162155" lon="9.299961843108347"><ele>246.99999999999997</ele><time>2026-03-29T11:29:47.999Z</time></trkpt><trkpt lat="39.300902881684976" lon="9.299954360426856"><ele>247.0</ele><time>2026-03-29T11:29:48.999Z</time></trkpt><trkpt lat="39.300827669312014" lon="9.299953559896826"><ele>247.0</ele><time>2026-03-29T11:29:49.999Z</time></trkpt><trkpt lat="39.30076295471197" lon="9.299958796993595"><ele>247.0</ele><time>2026-03-29T11:29:50.999Z</time></trkpt><trkpt lat="39.300686761420174" lon="9.299965570310722"><ele>246.99999999999997</ele><time>2026-03-29T11:29:51.999Z</time></trkpt><trkpt lat="39.30057292740231" lon="9.299990719583844"><ele>247.0</ele><time>2026-03-29T11:29:53.999Z</time></trkpt><trkpt lat="39.3004661881738" lon="9.300042392664801"><ele>246.16666666666666</ele><time>2026-03-29T11:29:55.999Z</time></trkpt><trkpt lat="39.30035677704127" lon="9.300112780844767"><ele>245.33333333333331</ele><time>2026-03-29T11:29:57.999Z</time></trkpt><trkpt lat="39.300284211301445" lon="9.300131300918704"><ele>244.5</ele><time>2026-03-29T11:29:58.999Z</time></trkpt><trkpt lat="39.300204798954994" lon="9.300143956771231"><ele>243.66666666666669</ele><time>2026-03-29T11:29:59.999Z</time></trkpt><trkpt lat="39.300127862374474" lon="9.300144364159827"><ele>242.83333333333334</ele><time>2026-03-29T11:30:00.999Z</time></trkpt><trkpt lat="39.300032541615415" lon="9.300132234134317"><ele>242.0</ele><time>2026-03-29T11:30:01.999Z</time></trkpt><trkpt lat="39.29994624617928" lon="9.300108681208838"><ele>242.00000000000003</ele><time>2026-03-29T11:30:02.999Z</time></trkpt><trkpt lat="39.299870710642566" lon="9.300063927512873"><ele>242.0</ele><time>2026-03-29T11:30:03.998Z</time></trkpt><trkpt lat="39.29978681239197" lon="9.300027191493152"><ele>242.0</ele><time>2026-03-29T11:30:04.998Z</time></trkpt><trkpt lat="39.299709993905935" lon="9.299981116503446"><ele>242.0</ele><time>2026-03-29T11:30:05.998Z</time></trkpt><trkpt lat="39.29963734479831" lon="9.299913312479624"><ele>242.00000000000003</ele><time>2026-03-29T11:30:06.998Z</time></trkpt><trkpt lat="39.29956170930923" lon="9.29985070683056"><ele>242.0</ele><time>2026-03-29T11:30:07.998Z</time></trkpt><trkpt lat="39.29947594761669" lon="9.299793245488996"><ele>239.00000000000003</ele><time>2026-03-29T11:30:08.998Z</time></trkpt><trkpt lat="39.29938392986206" lon="9.299735952660756"><ele>236.0</ele><time>2026-03-29T11:30:09.998Z</time></trkpt><trkpt lat="39.29930904994316" lon="9.29967983878736"><ele>233.0</ele><time>2026-03-29T11:30:10.998Z</time></trkpt><trkpt lat="39.29923350633149" lon="9.299623608689217"><ele>230.0</ele><time>2026-03-29T11:30:11.998Z</time></trkpt><trkpt lat="39.29916118948523" lon="9.29955948846553"><ele>227.00000000000003</ele><time>2026-03-29T11:30:12.998Z</time></trkpt><trkpt lat="39.29909390508198" lon="9.29949976566251"><ele>224.0</ele><time>2026-03-29T11:30:13.998Z</time></trkpt><trkpt lat="39.29901030808189" lon="9.299468506988628"><ele>224.00000000000003</ele><time>2026-03-29T11:30:14.998Z</time></trkpt><trkpt lat="39.298928707164976" lon="9.29947162305739"><ele>224.0</ele><time>2026-03-29T11:30:15.998Z</time></trkpt><trkpt lat="39.29886399881502" lon="9.299494196274575"><ele>224.0</ele><time>2026-03-29T11:30:16.998Z</time></trkpt><trkpt lat="39.29879042944923" lon="9.299517926539105"><ele>224.0</ele><time>2026-03-29T11:30:17.998Z</time></trkpt><trkpt lat="39.29869373204998" lon="9.299528133864971"><ele>224.00000000000003</ele><time>2026-03-29T11:30:18.998Z</time></trkpt><trkpt lat="39.29858395772547" lon="9.299540459618084"><ele>224.0</ele><time>2026-03-29T11:30:19.998Z</time></trkpt><trkpt lat="39.29847569332587" lon="9.299569262303"><ele>223.39999999999998</ele><time>2026-03-29T11:30:20.998Z</time></trkpt><trkpt lat="39.298374311582776" lon="9.29959254965932"><ele>222.79999999999998</ele><time>2026-03-29T11:30:21.998Z</time></trkpt><trkpt lat="39.298267683005186" lon="9.299597422384375"><ele>222.20000000000002</ele><time>2026-03-29T11:30:22.998Z</time></trkpt><trkpt lat="39.29816330326525" lon="9.299586959161136"><ele>221.60000000000002</ele><time>2026-03-29T11:30:23.998Z</time></trkpt><trkpt lat="39.29807210586759" lon="9.299575582986753"><ele>221.0</ele><time>2026-03-29T11:30:24.998Z</time></trkpt><trkpt lat="39.29798367274118" lon="9.299563445139427"><ele>220.20000000000002</ele><time>2026-03-29T11:30:25.998Z</time></trkpt><trkpt lat="39.297899388713724" lon="9.299559952110824"><ele>219.40000000000003</ele><time>2026-03-29T11:30:26.998Z</time></trkpt><trkpt lat="39.29782190690582" lon="9.299587030391185"><ele>218.6</ele><time>2026-03-29T11:30:27.998Z</time></trkpt><trkpt lat="39.29773589726005" lon="9.299634938487658"><ele>217.8</ele><time>2026-03-29T11:30:28.998Z</time></trkpt><trkpt lat="39.2976339718257" lon="9.299674614806568"><ele>217.0</ele><time>2026-03-29T11:30:29.998Z</time></trkpt><trkpt lat="39.29753093596126" lon="9.29970534440964"><ele>217.0</ele><time>2026-03-29T11:30:30.998Z</time></trkpt><trkpt lat="39.29743246456153" lon="9.299731693714703"><ele>217.0</ele><time>2026-03-29T11:30:31.998Z</time></trkpt><trkpt lat="39.29734267029221" lon="9.29976517489977"><ele>217.0</ele><time>2026-03-29T11:30:32.998Z</time></trkpt><trkpt lat="39.297258839140405" lon="9.29977539702045"><ele>217.0</ele><time>2026-03-29T11:30:33.998Z</time></trkpt><trkpt lat="39.29719604496218" lon="9.299762891877009"><ele>217.0</ele><time>2026-03-29T11:30:34.998Z</time></trkpt><trkpt lat="39.29707712308179" lon="9.299737809401806"><ele>213.2</ele><time>2026-03-29T11:30:36.998Z</time></trkpt><trkpt lat="39.29697984286417" lon="9.299684488157025"><ele>209.39999999999998</ele><time>2026-03-29T11:30:38.998Z</time></trkpt><trkpt lat="39.29696629551167" lon="9.29951621141713"><ele>205.60000000000002</ele><time>2026-03-29T11:30:40.998Z</time></trkpt><trkpt lat="39.296986232807406" lon="9.299410270511407"><ele>201.8</ele><time>2026-03-29T11:30:41.997Z</time></trkpt><trkpt lat="39.297009050416925" lon="9.299314535157112"><ele>198.0</ele><time>2026-03-29T11:30:42.997Z</time></trkpt><trkpt lat="39.29703476068903" lon="9.299218427847139"><ele>198.0</ele><time>2026-03-29T11:30:43.997Z</time></trkpt><trkpt lat="39.29704607219818" lon="9.299130017981238"><ele>198.0</ele><time>2026-03-29T11:30:44.997Z</time></trkpt><trkpt lat="39.29704723497782" lon="9.299046797941282"><ele>198.0</ele><time>2026-03-29T11:30:45.997Z</time></trkpt><trkpt lat="39.297018517239884" lon="9.298966168097243"><ele>198.0</ele><time>2026-03-29T11:30:47.997Z</time></trkpt><trkpt lat="39.2969379378893" lon="9.298988323138147"><ele>198.0</ele><time>2026-03-29T11:30:50.997Z</time></trkpt><trkpt lat="39.296892935742264" lon="9.299145254072126"><ele>198.0</ele><time>2026-03-29T11:30:52.997Z</time></trkpt><trkpt lat="39.2967865127197" lon="9.299331345411964"><ele>198.0</ele><time>2026-03-29T11:30:54.997Z</time></trkpt><trkpt lat="39.296706813500144" lon="9.299415471372049"><ele>198.0</ele><time>2026-03-29T11:30:55.997Z</time></trkpt><trkpt lat="39.29663285517249" lon="9.299500544142617"><ele>198.0</ele><time>2026-03-29T11:30:56.997Z</time></trkpt><trkpt lat="39.296595255964924" lon="9.299590473157554"><ele>198.0</ele><time>2026-03-29T11:30:57.997Z</time></trkpt><trkpt lat="39.29653737642943" lon="9.299686769674194"><ele>198.0</ele><time>2026-03-29T11:30:59.997Z</time></trkpt><trkpt lat="39.29648035379961" lon="9.299581180866413"><ele>198.0</ele><time>2026-03-29T11:31:02Z</time></trkpt><trkpt lat="39.29650238789913" lon="9.299485526270617"><ele>198.0</ele><time>2026-03-29T11:31:03Z</time></trkpt><trkpt lat="39.29653936806453" lon="9.299388619983532"><ele>198.0</ele><time>2026-03-29T11:31:04Z</time></trkpt><trkpt lat="39.29657141526934" lon="9.299292504857037"><ele>198.0</ele><time>2026-03-29T11:31:05Z</time></trkpt><trkpt lat="39.29658320422109" lon="9.299205840958798"><ele>198.0</ele><time>2026-03-29T11:31:06Z</time></trkpt><trkpt lat="39.29657301329093" lon="9.299123119845907"><ele>198.0</ele><time>2026-03-29T11:31:07Z</time></trkpt><trkpt lat="39.29653293368701" lon="9.29902481095261"><ele>198.0</ele><time>2026-03-29T11:31:08Z</time></trkpt><trkpt lat="39.296466051168785" lon="9.298949904403246"><ele>198.0</ele><time>2026-03-29T11:31:09Z</time></trkpt><trkpt lat="39.29638703823261" lon="9.298914257676328"><ele>198.0</ele><time>2026-03-29T11:31:10Z</time></trkpt><trkpt lat="39.296321397486764" lon="9.298866700955003"><ele>198.0</ele><time>2026-03-29T11:31:11Z</time></trkpt><trkpt lat="39.296285265042904" lon="9.298750678537795"><ele>198.0</ele><time>2026-03-29T11:31:13Z</time></trkpt><trkpt lat="39.29631343663466" lon="9.298601331823214"><ele>196.2</ele><time>2026-03-29T11:31:15Z</time></trkpt><trkpt lat="39.29637035420603" lon="9.298480781934918"><ele>194.4</ele><time>2026-03-29T11:31:17Z</time></trkpt><trkpt lat="39.296411979203" lon="9.298416348756861"><ele>192.6</ele><time>2026-03-29T11:31:19Z</time></trkpt><trkpt lat="39.296468454342865" lon="9.298349000027999"><ele>190.79999999999998</ele><time>2026-03-29T11:31:21Z</time></trkpt><trkpt lat="39.29652907093675" lon="9.298259526457832"><ele>189.0</ele><time>2026-03-29T11:31:23Z</time></trkpt><trkpt lat="39.29660666285492" lon="9.298136928933745"><ele>189.79999999999998</ele><time>2026-03-29T11:31:25Z</time></trkpt><trkpt lat="39.29662715835908" lon="9.298034709710494"><ele>190.6</ele><time>2026-03-29T11:31:27Z</time></trkpt><trkpt lat="39.29653011455451" lon="9.298046260069764"><ele>191.4</ele><time>2026-03-29T11:31:51.999Z</time></trkpt><trkpt lat="39.29644429661551" lon="9.298060164576206"><ele>192.2</ele><time>2026-03-29T11:31:52.999Z</time></trkpt><trkpt lat="39.29632539438542" lon="9.298087886480515"><ele>193.0</ele><time>2026-03-29T11:31:53.999Z</time></trkpt><trkpt lat="39.2962377670184" lon="9.29810942519987"><ele>191.66666666666666</ele><time>2026-03-29T11:31:54.999Z</time></trkpt><trkpt lat="39.29613384053081" lon="9.298148722385017"><ele>190.33333333333331</ele><time>2026-03-29T11:31:55.999Z</time></trkpt><trkpt lat="39.296040772440556" lon="9.298170134067194"><ele>189.0</ele><time>2026-03-29T11:31:56.999Z</time></trkpt><trkpt lat="39.29596012689972" lon="9.298157726132336"><ele>187.66666666666666</ele><time>2026-03-29T11:31:57.999Z</time></trkpt><trkpt lat="39.29588828794024" lon="9.298125369188927"><ele>186.33333333333331</ele><time>2026-03-29T11:31:58.999Z</time></trkpt><trkpt lat="39.29583728333481" lon="9.298066475478528"><ele>185.0</ele><time>2026-03-29T11:31:59.999Z</time></trkpt><trkpt lat="39.29577279020895" lon="9.297984489456043"><ele>185.0</ele><time>2026-03-29T11:32:00.999Z</time></trkpt><trkpt lat="39.295708584207894" lon="9.29790489773383"><ele>185.0</ele><time>2026-03-29T11:32:01.999Z</time></trkpt><trkpt lat="39.29566408246952" lon="9.297814791705395"><ele>185.0</ele><time>2026-03-29T11:32:02.999Z</time></trkpt><trkpt lat="39.29565042361646" lon="9.297713522336666"><ele>185.0</ele><time>2026-03-29T11:32:03.999Z</time></trkpt><trkpt lat="39.295663295756526" lon="9.297599600151534"><ele>185.0</ele><time>2026-03-29T11:32:04.999Z</time></trkpt><trkpt lat="39.29566377916418" lon="9.297512885340144"><ele>185.0</ele><time>2026-03-29T11:32:05.999Z</time></trkpt><trkpt lat="39.29558799936788" lon="9.29746694704043"><ele>184.33333333333331</ele><time>2026-03-29T11:32:08.999Z</time></trkpt><trkpt lat="39.295517959893495" lon="9.297437797114958"><ele>183.66666666666666</ele><time>2026-03-29T11:32:10.999Z</time></trkpt><trkpt lat="39.295459126508156" lon="9.297406118122145"><ele>183.0</ele><time>2026-03-29T11:32:11.998Z</time></trkpt><trkpt lat="39.29539715332585" lon="9.297354534326484"><ele>182.33333333333334</ele><time>2026-03-29T11:32:12.998Z</time></trkpt><trkpt lat="39.29533293498251" lon="9.297296878722673"><ele>181.66666666666669</ele><time>2026-03-29T11:32:13.998Z</time></trkpt><trkpt lat="39.2952499994244" lon="9.297219914278415"><ele>181.0</ele><time>2026-03-29T11:32:14.998Z</time></trkpt><trkpt lat="39.2951625554331" lon="9.29711991178645"><ele>181.0</ele><time>2026-03-29T11:32:15.998Z</time></trkpt><trkpt lat="39.29507184753978" lon="9.297018211457821"><ele>181.0</ele><time>2026-03-29T11:32:16.998Z</time></trkpt><trkpt lat="39.294986608848134" lon="9.296897285986708"><ele>181.0</ele><time>2026-03-29T11:32:17.998Z</time></trkpt><trkpt lat="39.294917143761424" lon="9.296793662637443"><ele>181.0</ele><time>2026-03-29T11:32:18.998Z</time></trkpt><trkpt lat="39.294860974298246" lon="9.29671383484767"><ele>181.0</ele><time>2026-03-29T11:32:19.998Z</time></trkpt><trkpt lat="39.29479745476681" lon="9.296651672442005"><ele>181.0</ele><time>2026-03-29T11:32:20.998Z</time></trkpt><trkpt lat="39.29472979220783" lon="9.296602903770657"><ele>181.0</ele><time>2026-03-29T11:32:21.998Z</time></trkpt><trkpt lat="39.29465434297882" lon="9.29657757046879"><ele>181.0</ele><time>2026-03-29T11:32:22.998Z</time></trkpt><trkpt lat="39.29458947861902" lon="9.296558536874835"><ele>181.0</ele><time>2026-03-29T11:32:23.998Z</time></trkpt><trkpt lat="39.29456459416758" lon="9.296451879785613"><ele>181.0</ele><time>2026-03-29T11:32:26.998Z</time></trkpt><trkpt lat="39.29462644951517" lon="9.296398907843644"><ele>181.0</ele><time>2026-03-29T11:32:28.998Z</time></trkpt><trkpt lat="39.29476286559074" lon="9.296383811058423"><ele>181.0</ele><time>2026-03-29T11:32:30.998Z</time></trkpt><trkpt lat="39.29485070464454" lon="9.296372833755747"><ele>181.0</ele><time>2026-03-29T11:32:31.998Z</time></trkpt><trkpt lat="39.29495802878554" lon="9.296379696925147"><ele>181.0</ele><time>2026-03-29T11:32:32.998Z</time></trkpt><trkpt lat="39.29508605310563" lon="9.296395466378215"><ele>181.0</ele><time>2026-03-29T11:32:33.998Z</time></trkpt><trkpt lat="39.29520723878673" lon="9.296419104701986"><ele>181.0</ele><time>2026-03-29T11:32:34.998Z</time></trkpt><trkpt lat="39.29530035791926" lon="9.29643988571385"><ele>181.0</ele><time>2026-03-29T11:32:35.998Z</time></trkpt><trkpt lat="39.295378570091145" lon="9.296457107980629"><ele>181.0</ele><time>2026-03-29T11:32:36.998Z</time></trkpt><trkpt lat="39.295481849266906" lon="9.296511087287985"><ele>181.0</ele><time>2026-03-29T11:32:38.998Z</time></trkpt><trkpt lat="39.29559120807876" lon="9.296462034083936"><ele>181.0</ele><time>2026-03-29T11:32:40.998Z</time></trkpt><trkpt lat="39.29565184237655" lon="9.296435844323957"><ele>181.0</ele><time>2026-03-29T11:32:41.998Z</time></trkpt><trkpt lat="39.29571623540922" lon="9.296433359610349"><ele>181.0</ele><time>2026-03-29T11:32:42.998Z</time></trkpt><trkpt lat="39.295789909089166" lon="9.29643349731921"><ele>183.60000000000002</ele><time>2026-03-29T11:32:43.998Z</time></trkpt><trkpt lat="39.29586733538213" lon="9.296422067428638"><ele>186.2</ele><time>2026-03-29T11:32:44.998Z</time></trkpt><trkpt lat="39.295950886449454" lon="9.29639975597364"><ele>188.8</ele><time>2026-03-29T11:32:45.998Z</time></trkpt><trkpt lat="39.29602404388602" lon="9.296365157348236"><ele>191.39999999999998</ele><time>2026-03-29T11:32:46.998Z</time></trkpt><trkpt lat="39.29610924739335" lon="9.296329457448188"><ele>194.0</ele><time>2026-03-29T11:32:48.998Z</time></trkpt><trkpt lat="39.2962276255258" lon="9.296390620611374"><ele>194.00000000000003</ele><time>2026-03-29T11:32:50.997Z</time></trkpt><trkpt lat="39.29631424295975" lon="9.296410206670393"><ele>194.0</ele><time>2026-03-29T11:32:51.997Z</time></trkpt><trkpt lat="39.296409863623595" lon="9.296444822840408"><ele>194.0</ele><time>2026-03-29T11:32:52.997Z</time></trkpt><trkpt lat="39.29647311425765" lon="9.296456206622539"><ele>194.0</ele><time>2026-03-29T11:32:53.997Z</time></trkpt><trkpt lat="39.296540309044666" lon="9.296441927484553"><ele>194.00000000000003</ele><time>2026-03-29T11:32:54.997Z</time></trkpt><trkpt lat="39.296600684299705" lon="9.296389477216877"><ele>194.0</ele><time>2026-03-29T11:32:55.997Z</time></trkpt><trkpt lat="39.296663590474616" lon="9.296350862209195"><ele>195.66666666666669</ele><time>2026-03-29T11:32:56.997Z</time></trkpt><trkpt lat="39.296744797393295" lon="9.296337125406831"><ele>197.33333333333334</ele><time>2026-03-29T11:32:57.997Z</time></trkpt><trkpt lat="39.29682811542453" lon="9.29632257993905"><ele>199.0</ele><time>2026-03-29T11:32:58.997Z</time></trkpt><trkpt lat="39.29692052760176" lon="9.296313237625707"><ele>200.66666666666669</ele><time>2026-03-29T11:32:59.997Z</time></trkpt><trkpt lat="39.29701042685735" lon="9.296290668639186"><ele>202.33333333333334</ele><time>2026-03-29T11:33:00.997Z</time></trkpt><trkpt lat="39.29709018732057" lon="9.296250857528232"><ele>204.0</ele><time>2026-03-29T11:33:01.997Z</time></trkpt><trkpt lat="39.29715779744924" lon="9.296196205505346"><ele>204.0</ele><time>2026-03-29T11:33:02.997Z</time></trkpt><trkpt lat="39.29724428099494" lon="9.296137657724177"><ele>204.0</ele><time>2026-03-29T11:33:04.997Z</time></trkpt><trkpt lat="39.297289143088086" lon="9.296064162987598"><ele>204.0</ele><time>2026-03-29T11:33:08Z</time></trkpt><trkpt lat="39.2972973112509" lon="9.295887850466823"><ele>204.0</ele><time>2026-03-29T11:33:10Z</time></trkpt><trkpt lat="39.29732337053399" lon="9.295811069780713"><ele>204.0</ele><time>2026-03-29T11:33:11Z</time></trkpt><trkpt lat="39.29737935988729" lon="9.295670220920112"><ele>204.79999999999998</ele><time>2026-03-29T11:33:13Z</time></trkpt><trkpt lat="39.29741961135764" lon="9.29560536271998"><ele>205.6</ele><time>2026-03-29T11:33:14Z</time></trkpt><trkpt lat="39.2974559236995" lon="9.295505764011626"><ele>206.4</ele><time>2026-03-29T11:33:16Z</time></trkpt><trkpt lat="39.29738390588373" lon="9.295458814126915"><ele>207.2</ele><time>2026-03-29T11:33:18Z</time></trkpt><trkpt lat="39.297277837829036" lon="9.295461457115426"><ele>208.0</ele><time>2026-03-29T11:33:20Z</time></trkpt><trkpt lat="39.29716763289508" lon="9.29550329555183"><ele>207.33333333333331</ele><time>2026-03-29T11:33:22Z</time></trkpt><trkpt lat="39.29710808274473" lon="9.29554627992213"><ele>206.66666666666666</ele><time>2026-03-29T11:33:23Z</time></trkpt><trkpt lat="39.297053270433565" lon="9.295614022121288"><ele>206.0</ele><time>2026-03-29T11:33:24Z</time></trkpt><trkpt lat="39.29698838191846" lon="9.29569607109224"><ele>205.33333333333331</ele><time>2026-03-29T11:33:25Z</time></trkpt><trkpt lat="39.296915726598804" lon="9.295770880440198"><ele>204.66666666666666</ele><time>2026-03-29T11:33:26Z</time></trkpt><trkpt lat="39.29685373162771" lon="9.295826993808115"><ele>204.0</ele><time>2026-03-29T11:33:27Z</time></trkpt><trkpt lat="39.29679514505091" lon="9.295889822696664"><ele>204.0</ele><time>2026-03-29T11:33:28Z</time></trkpt><trkpt lat="39.29675193690071" lon="9.295962622100115"><ele>204.0</ele><time>2026-03-29T11:33:29Z</time></trkpt><trkpt lat="39.296686156962735" lon="9.296012639625161"><ele>204.0</ele><time>2026-03-29T11:33:30Z</time></trkpt><trkpt lat="39.29660897427803" lon="9.296032777835853"><ele>204.0</ele><time>2026-03-29T11:33:31Z</time></trkpt><trkpt lat="39.29653529551243" lon="9.296030850045746"><ele>204.0</ele><time>2026-03-29T11:33:32Z</time></trkpt><trkpt lat="39.29646070455957" lon="9.296022739664934"><ele>204.0</ele><time>2026-03-29T11:33:33Z</time></trkpt><trkpt lat="39.296390438863845" lon="9.296028680054494"><ele>204.0</ele><time>2026-03-29T11:33:34Z</time></trkpt><trkpt lat="39.29632055280854" lon="9.296054160019873"><ele>202.33333333333334</ele><time>2026-03-29T11:33:35Z</time></trkpt><trkpt lat="39.296240668155065" lon="9.29606822128847"><ele>200.66666666666669</ele><time>2026-03-29T11:33:36Z</time></trkpt><trkpt lat="39.29616104032338" lon="9.296079611181925"><ele>199.0</ele><time>2026-03-29T11:33:37Z</time></trkpt><trkpt lat="39.29608375319965" lon="9.296091271629908"><ele>197.33333333333334</ele><time>2026-03-29T11:33:38Z</time></trkpt><trkpt lat="39.29600410594161" lon="9.296110936787626"><ele>195.66666666666669</ele><time>2026-03-29T11:33:38.999Z</time></trkpt><trkpt lat="39.29592828639123" lon="9.296117505518978"><ele>194.0</ele><time>2026-03-29T11:33:39.999Z</time></trkpt><trkpt lat="39.29584184554921" lon="9.296099021211965"><ele>194.0</ele><time>2026-03-29T11:33:41.999Z</time></trkpt><trkpt lat="39.29586232145701" lon="9.29600301527707"><ele>194.0</ele><time>2026-03-29T11:33:43.999Z</time></trkpt><trkpt lat="39.29593772561516" lon="9.295918102237431"><ele>194.0</ele><time>2026-03-29T11:33:45.999Z</time></trkpt><trkpt lat="39.29593456200549" lon="9.2957939644959"><ele>194.0</ele><time>2026-03-29T11:33:48.999Z</time></trkpt><trkpt lat="39.29591643637451" lon="9.2956780760124"><ele>194.0</ele><time>2026-03-29T11:33:49.999Z</time></trkpt><trkpt lat="39.29590488662703" lon="9.295529711012959"><ele>192.50000000000003</ele><time>2026-03-29T11:33:50.999Z</time></trkpt><trkpt lat="39.29590370581008" lon="9.295431208016632"><ele>191.0</ele><time>2026-03-29T11:33:51.999Z</time></trkpt><trkpt lat="39.29591596151906" lon="9.295329400613694"><ele>189.5</ele><time>2026-03-29T11:33:52.999Z</time></trkpt><trkpt lat="39.29593909704105" lon="9.295224182107576"><ele>188.0</ele><time>2026-03-29T11:33:53.999Z</time></trkpt><trkpt lat="39.29594665043021" lon="9.295125181638735"><ele>186.5</ele><time>2026-03-29T11:33:54.999Z</time></trkpt><trkpt lat="39.29592852325354" lon="9.295024344612324"><ele>185.0</ele><time>2026-03-29T11:33:55.999Z</time></trkpt><trkpt lat="39.29590811233466" lon="9.29493142086772"><ele>185.0</ele><time>2026-03-29T11:33:56.999Z</time></trkpt><trkpt lat="39.29589658426576" lon="9.294833249512083"><ele>185.0</ele><time>2026-03-29T11:33:57.999Z</time></trkpt><trkpt lat="39.29588021258497" lon="9.29472289702575"><ele>185.0</ele><time>2026-03-29T11:33:58.999Z</time></trkpt><trkpt lat="39.29586360783043" lon="9.294617999592631"><ele>185.0</ele><time>2026-03-29T11:33:59.999Z</time></trkpt><trkpt lat="39.29585328059993" lon="9.29452435428954"><ele>185.0</ele><time>2026-03-29T11:34:00.999Z</time></trkpt><trkpt lat="39.295834754076274" lon="9.294428082681064"><ele>185.0</ele><time>2026-03-29T11:34:01.999Z</time></trkpt><trkpt lat="39.295814106190605" lon="9.294336078931746"><ele>184.33333333333331</ele><time>2026-03-29T11:34:02.999Z</time></trkpt><trkpt lat="39.29581067426822" lon="9.294236510333665"><ele>183.66666666666666</ele><time>2026-03-29T11:34:03.999Z</time></trkpt><trkpt lat="39.29582622115792" lon="9.294129505074547"><ele>183.0</ele><time>2026-03-29T11:34:04.999Z</time></trkpt><trkpt lat="39.295840824832695" lon="9.294020306763063"><ele>182.33333333333334</ele><time>2026-03-29T11:34:05.999Z</time></trkpt><trkpt lat="39.29585892246517" lon="9.293923812646952"><ele>181.66666666666669</ele><time>2026-03-29T11:34:06.999Z</time></trkpt><trkpt lat="39.295886958108575" lon="9.293824300272052"><ele>181.0</ele><time>2026-03-29T11:34:07.999Z</time></trkpt><trkpt lat="39.29590965694073" lon="9.293734374574646"><ele>180.42857142857142</ele><time>2026-03-29T11:34:08.999Z</time></trkpt><trkpt lat="39.29593659826382" lon="9.29365885047294"><ele>179.85714285714283</ele><time>2026-03-29T11:34:09.999Z</time></trkpt><trkpt lat="39.29599633710264" lon="9.293610080125621"><ele>179.28571428571428</ele><time>2026-03-29T11:34:10.999Z</time></trkpt><trkpt lat="39.29608008243953" lon="9.293573703621833"><ele>178.71428571428572</ele><time>2026-03-29T11:34:11.999Z</time></trkpt><trkpt lat="39.2961559019092" lon="9.293558218359607"><ele>178.14285714285714</ele><time>2026-03-29T11:34:12.999Z</time></trkpt><trkpt lat="39.29622469950335" lon="9.293551436704197"><ele>177.57142857142858</ele><time>2026-03-29T11:34:13.999Z</time></trkpt><trkpt lat="39.296299469216244" lon="9.293522248824118"><ele>177.0</ele><time>2026-03-29T11:34:14.999Z</time></trkpt><trkpt lat="39.29637847629445" lon="9.29346564850618"><ele>177.39999999999998</ele><time>2026-03-29T11:34:15.999Z</time></trkpt><trkpt lat="39.29644735639221" lon="9.293390443594276"><ele>177.79999999999998</ele><time>2026-03-29T11:34:16.999Z</time></trkpt><trkpt lat="39.29652421127077" lon="9.293318008310525"><ele>178.2</ele><time>2026-03-29T11:34:17.998Z</time></trkpt><trkpt lat="39.29659330307661" lon="9.293243796915181"><ele>178.6</ele><time>2026-03-29T11:34:18.998Z</time></trkpt><trkpt lat="39.29666129361325" lon="9.293162848820506"><ele>179.0</ele><time>2026-03-29T11:34:19.998Z</time></trkpt><trkpt lat="39.296724704519605" lon="9.29307945018323"><ele>179.0</ele><time>2026-03-29T11:34:20.998Z</time></trkpt><trkpt lat="39.29678617152759" lon="9.292982155082672"><ele>179.0</ele><time>2026-03-29T11:34:21.998Z</time></trkpt><trkpt lat="39.29684804606023" lon="9.292902371617188"><ele>179.0</ele><time>2026-03-29T11:34:22.998Z</time></trkpt><trkpt lat="39.29691525899973" lon="9.292846084605694"><ele>179.0</ele><time>2026-03-29T11:34:23.998Z</time></trkpt><trkpt lat="39.296982713893335" lon="9.292791101266491"><ele>179.0</ele><time>2026-03-29T11:34:24.998Z</time></trkpt><trkpt lat="39.29705210001589" lon="9.29271600892804"><ele>179.0</ele><time>2026-03-29T11:34:25.998Z</time></trkpt><trkpt lat="39.297084859557835" lon="9.292633437446748"><ele>179.0</ele><time>2026-03-29T11:34:26.998Z</time></trkpt><trkpt lat="39.29712200030153" lon="9.292542581822406"><ele>179.0</ele><time>2026-03-29T11:34:27.998Z</time></trkpt><trkpt lat="39.297185386247925" lon="9.292481958758799"><ele>179.0</ele><time>2026-03-29T11:34:28.998Z</time></trkpt><trkpt lat="39.297258329156264" lon="9.292429146510003"><ele>179.0</ele><time>2026-03-29T11:34:29.998Z</time></trkpt><trkpt lat="39.297336344525625" lon="9.292352512370813"><ele>179.0</ele><time>2026-03-29T11:34:30.998Z</time></trkpt><trkpt lat="39.29740353712623" lon="9.29227684740158"><ele>179.0</ele><time>2026-03-29T11:34:31.998Z</time></trkpt><trkpt lat="39.29746178591825" lon="9.292203411932759"><ele>177.6</ele><time>2026-03-29T11:34:32.998Z</time></trkpt><trkpt lat="39.297504761412355" lon="9.292113307081435"><ele>176.2</ele><time>2026-03-29T11:34:33.998Z</time></trkpt><trkpt lat="39.297547691707194" lon="9.292029694001396"><ele>174.79999999999998</ele><time>2026-03-29T11:34:34.998Z</time></trkpt><trkpt lat="39.29764512868047" lon="9.291866453495327"><ele>173.39999999999998</ele><time>2026-03-29T11:34:36.998Z</time></trkpt><trkpt lat="39.297684737110536" lon="9.291782211841443"><ele>172.0</ele><time>2026-03-29T11:34:37.998Z</time></trkpt><trkpt lat="39.29772876139027" lon="9.291701507205431"><ele>172.0</ele><time>2026-03-29T11:34:38.998Z</time></trkpt><trkpt lat="39.29775533100772" lon="9.29160706631115"><ele>172.0</ele><time>2026-03-29T11:34:39.998Z</time></trkpt><trkpt lat="39.29775155949718" lon="9.291499395963093"><ele>172.0</ele><time>2026-03-29T11:34:40.998Z</time></trkpt><trkpt lat="39.29772205644214" lon="9.29140479561901"><ele>172.0</ele><time>2026-03-29T11:34:41.998Z</time></trkpt><trkpt lat="39.29768478807327" lon="9.291327352632255"><ele>172.0</ele><time>2026-03-29T11:34:42.998Z</time></trkpt><trkpt lat="39.29760345980773" lon="9.291289971627235"><ele>172.0</ele><time>2026-03-29T11:34:44.998Z</time></trkpt><trkpt lat="39.29754866392885" lon="9.291195679436294"><ele>169.83333333333334</ele><time>2026-03-29T11:34:46.998Z</time></trkpt><trkpt lat="39.29746811114336" lon="9.291145606983967"><ele>167.66666666666669</ele><time>2026-03-29T11:34:48.998Z</time></trkpt><trkpt lat="39.29734930048483" lon="9.29113764594755"><ele>165.5</ele><time>2026-03-29T11:34:50.998Z</time></trkpt><trkpt lat="39.29728385782478" lon="9.291116983845829"><ele>163.33333333333334</ele><time>2026-03-29T11:34:51.998Z</time></trkpt><trkpt lat="39.297208314514364" lon="9.29110689659227"><ele>161.16666666666666</ele><time>2026-03-29T11:34:52.998Z</time></trkpt><trkpt lat="39.29712632409751" lon="9.29107618615581"><ele>159.0</ele><time>2026-03-29T11:34:53.998Z</time></trkpt><trkpt lat="39.29704080455839" lon="9.291024496182935"><ele>159.0</ele><time>2026-03-29T11:34:54.998Z</time></trkpt><trkpt lat="39.29696064546381" lon="9.290978986136071"><ele>159.0</ele><time>2026-03-29T11:34:55.998Z</time></trkpt><trkpt lat="39.296890137319394" lon="9.290935390749157"><ele>159.0</ele><time>2026-03-29T11:34:56.997Z</time></trkpt><trkpt lat="39.2968305876749" lon="9.290899290650607"><ele>159.0</ele><time>2026-03-29T11:34:57.997Z</time></trkpt><trkpt lat="39.2967744670667" lon="9.290859532851274"><ele>159.0</ele><time>2026-03-29T11:34:58.997Z</time></trkpt><trkpt lat="39.296683614211595" lon="9.290784586006898"><ele>159.0</ele><time>2026-03-29T11:35:00.997Z</time></trkpt><trkpt lat="39.29657000695738" lon="9.29075968042586"><ele>159.0</ele><time>2026-03-29T11:35:02.997Z</time></trkpt><trkpt lat="39.29649403235536" lon="9.290670209187798"><ele>159.0</ele><time>2026-03-29T11:35:04.997Z</time></trkpt><trkpt lat="39.296441710507814" lon="9.290617259251068"><ele>159.0</ele><time>2026-03-29T11:35:06.997Z</time></trkpt><trkpt lat="39.29638651807993" lon="9.290561444090603"><ele>159.0</ele><time>2026-03-29T11:35:08.997Z</time></trkpt><trkpt lat="39.296344226885466" lon="9.290498850903484"><ele>159.0</ele><time>2026-03-29T11:35:09.997Z</time></trkpt><trkpt lat="39.296297662708504" lon="9.290425741406606"><ele>159.0</ele><time>2026-03-29T11:35:10.997Z</time></trkpt><trkpt lat="39.296256604516614" lon="9.290357691215014"><ele>159.0</ele><time>2026-03-29T11:35:11.997Z</time></trkpt><trkpt lat="39.296226149594794" lon="9.290280903250705"><ele>157.57142857142856</ele><time>2026-03-29T11:35:13Z</time></trkpt><trkpt lat="39.296199848954714" lon="9.290206339122745"><ele>156.14285714285717</ele><time>2026-03-29T11:35:14Z</time></trkpt><trkpt lat="39.29617801487217" lon="9.290121250715213"><ele>154.71428571428572</ele><time>2026-03-29T11:35:15Z</time></trkpt><trkpt lat="39.296146883028484" lon="9.290023432080128"><ele>153.28571428571428</ele><time>2026-03-29T11:35:16Z</time></trkpt><trkpt lat="39.29611229327686" lon="9.289940263530603"><ele>151.85714285714283</ele><time>2026-03-29T11:35:17Z</time></trkpt><trkpt lat="39.29608260839521" lon="9.289860570034481"><ele>150.42857142857142</ele><time>2026-03-29T11:35:18Z</time></trkpt><trkpt lat="39.29605087762513" lon="9.289787701330111"><ele>149.0</ele><time>2026-03-29T11:35:19Z</time></trkpt><trkpt lat="39.29602076909877" lon="9.289710888746955"><ele>147.83333333333331</ele><time>2026-03-29T11:35:20Z</time></trkpt><trkpt lat="39.29601135712385" lon="9.289598390983048"><ele>146.66666666666666</ele><time>2026-03-29T11:35:22Z</time></trkpt><trkpt lat="39.29602856789162" lon="9.289518021431872"><ele>145.5</ele><time>2026-03-29T11:35:24Z</time></trkpt><trkpt lat="39.29605681179122" lon="9.289407939204816"><ele>144.33333333333334</ele><time>2026-03-29T11:35:26Z</time></trkpt><trkpt lat="39.29604428535128" lon="9.289317704047226"><ele>143.16666666666669</ele><time>2026-03-29T11:35:29Z</time></trkpt><trkpt lat="39.29608254742377" lon="9.289213775919528"><ele>142.0</ele><time>2026-03-29T11:35:31Z</time></trkpt><trkpt lat="39.29613673876092" lon="9.28907988003699"><ele>142.0</ele><time>2026-03-29T11:35:32Z</time></trkpt><trkpt lat="39.29621922979565" lon="9.28896047332089"><ele>142.0</ele><time>2026-03-29T11:35:34Z</time></trkpt><trkpt lat="39.29625038195155" lon="9.288882342553007"><ele>142.0</ele><time>2026-03-29T11:35:35Z</time></trkpt><trkpt lat="39.296277891277754" lon="9.288785518296963"><ele>142.0</ele><time>2026-03-29T11:35:36Z</time></trkpt><trkpt lat="39.29629626137266" lon="9.288679367283153"><ele>142.0</ele><time>2026-03-29T11:35:37Z</time></trkpt><trkpt lat="39.296300009038106" lon="9.28858710965125"><ele>142.0</ele><time>2026-03-29T11:35:38Z</time></trkpt><trkpt lat="39.296297254398695" lon="9.288481770571408"><ele>141.83333333333334</ele><time>2026-03-29T11:35:40Z</time></trkpt><trkpt lat="39.29627641439888" lon="9.288386863984051"><ele>141.66666666666669</ele><time>2026-03-29T11:35:43Z</time></trkpt><trkpt lat="39.2962786342708" lon="9.288296733985623"><ele>141.5</ele><time>2026-03-29T11:35:44.999Z</time></trkpt><trkpt lat="39.29626575650587" lon="9.288202106069706"><ele>141.33333333333334</ele><time>2026-03-29T11:35:45.999Z</time></trkpt><trkpt lat="39.29625302590164" lon="9.288096724698779"><ele>141.16666666666666</ele><time>2026-03-29T11:35:46.999Z</time></trkpt><trkpt lat="39.296228810737716" lon="9.288009817837068"><ele>141.0</ele><time>2026-03-29T11:35:47.999Z</time></trkpt><trkpt lat="39.2962290980465" lon="9.287906750258642"><ele>141.0</ele><time>2026-03-29T11:35:48.999Z</time></trkpt><trkpt lat="39.296243581144196" lon="9.287797261400248"><ele>141.0</ele><time>2026-03-29T11:35:49.999Z</time></trkpt><trkpt lat="39.2962505231709" lon="9.287685252511421"><ele>141.0</ele><time>2026-03-29T11:35:50.999Z</time></trkpt><trkpt lat="39.2962709913674" lon="9.287570695167627"><ele>141.0</ele><time>2026-03-29T11:35:51.999Z</time></trkpt><trkpt lat="39.29630184395271" lon="9.287447078557925"><ele>141.0</ele><time>2026-03-29T11:35:52.999Z</time></trkpt><trkpt lat="39.29632705666559" lon="9.287359299662125"><ele>141.0</ele><time>2026-03-29T11:35:53.999Z</time></trkpt><trkpt lat="39.29634875637741" lon="9.287172674585413"><ele>143.0</ele><time>2026-03-29T11:35:55.999Z</time></trkpt><trkpt lat="39.296334714195034" lon="9.287062672294997"><ele>145.0</ele><time>2026-03-29T11:35:56.999Z</time></trkpt><trkpt lat="39.296343916600925" lon="9.286969014453163"><ele>147.0</ele><time>2026-03-29T11:35:57.999Z</time></trkpt><trkpt lat="39.29634970385164" lon="9.286853991555585"><ele>149.0</ele><time>2026-03-29T11:35:58.999Z</time></trkpt><trkpt lat="39.29633866443863" lon="9.286727356311529"><ele>151.0</ele><time>2026-03-29T11:35:59.999Z</time></trkpt><trkpt lat="39.29634205457889" lon="9.286588840205265"><ele>151.0</ele><time>2026-03-29T11:36:00.999Z</time></trkpt><trkpt lat="39.29636228026536" lon="9.286491695848284"><ele>151.0</ele><time>2026-03-29T11:36:01.999Z</time></trkpt><trkpt lat="39.296452967554885" lon="9.286434100460227"><ele>151.0</ele><time>2026-03-29T11:36:04.999Z</time></trkpt><trkpt lat="39.29650057207206" lon="9.286379370224925"><ele>151.0</ele><time>2026-03-29T11:36:06.999Z</time></trkpt><trkpt lat="39.296488806699" lon="9.286275491594086"><ele>151.0</ele><time>2026-03-29T11:36:09.999Z</time></trkpt><trkpt lat="39.29647185154721" lon="9.286150540697681"><ele>151.0</ele><time>2026-03-29T11:36:11.999Z</time></trkpt><trkpt lat="39.29643726997923" lon="9.286043792065975"><ele>151.4</ele><time>2026-03-29T11:36:13.999Z</time></trkpt><trkpt lat="39.29639768250639" lon="9.285951951814566"><ele>151.8</ele><time>2026-03-29T11:36:15.999Z</time></trkpt><trkpt lat="39.29636698883198" lon="9.28584572651814"><ele>152.20000000000002</ele><time>2026-03-29T11:36:17.999Z</time></trkpt><trkpt lat="39.29631682318845" lon="9.285730660391861"><ele>152.6</ele><time>2026-03-29T11:36:19.999Z</time></trkpt><trkpt lat="39.29623972337372" lon="9.285621719287493"><ele>153.0</ele><time>2026-03-29T11:36:22.998Z</time></trkpt><trkpt lat="39.29615668794037" lon="9.285546651801939"><ele>150.0</ele><time>2026-03-29T11:36:23.998Z</time></trkpt><trkpt lat="39.29608982401099" lon="9.285433690707091"><ele>147.0</ele><time>2026-03-29T11:36:25.998Z</time></trkpt><trkpt lat="39.29600955278584" lon="9.285271703816694"><ele>144.0</ele><time>2026-03-29T11:36:28.998Z</time></trkpt><trkpt lat="39.29597949639206" lon="9.285145007622747"><ele>141.0</ele><time>2026-03-29T11:36:30.998Z</time></trkpt><trkpt lat="39.295960301606335" lon="9.285010414355089"><ele>141.0</ele><time>2026-03-29T11:36:33.998Z</time></trkpt><trkpt lat="39.29593293217003" lon="9.284875298762627"><ele>141.0</ele><time>2026-03-29T11:36:35.998Z</time></trkpt><trkpt lat="39.29591008367832" lon="9.284799284057586"><ele>141.0</ele><time>2026-03-29T11:36:36.998Z</time></trkpt><trkpt lat="39.29587707109672" lon="9.284721839009071"><ele>141.0</ele><time>2026-03-29T11:36:37.998Z</time></trkpt><trkpt lat="39.29584894243104" lon="9.284641721147944"><ele>141.0</ele><time>2026-03-29T11:36:38.998Z</time></trkpt><trkpt lat="39.29583049037236" lon="9.28455928466761"><ele>141.0</ele><time>2026-03-29T11:36:39.998Z</time></trkpt><trkpt lat="39.29582215384744" lon="9.284474752426336"><ele>141.0</ele><time>2026-03-29T11:36:40.998Z</time></trkpt><trkpt lat="39.29583126951977" lon="9.284380925732195"><ele>140.14285714285714</ele><time>2026-03-29T11:36:41.998Z</time></trkpt><trkpt lat="39.295857574836376" lon="9.284291526691566"><ele>139.28571428571428</ele><time>2026-03-29T11:36:42.998Z</time></trkpt><trkpt lat="39.29586389788374" lon="9.28420375079574"><ele>138.42857142857142</ele><time>2026-03-29T11:36:43.998Z</time></trkpt><trkpt lat="39.29585814769419" lon="9.284114173346127"><ele>137.57142857142856</ele><time>2026-03-29T11:36:44.998Z</time></trkpt><trkpt lat="39.29585492397987" lon="9.284009394808265"><ele>136.7142857142857</ele><time>2026-03-29T11:36:45.998Z</time></trkpt><trkpt lat="39.29583145036557" lon="9.28392310218491"><ele>135.85714285714286</ele><time>2026-03-29T11:36:46.998Z</time></trkpt><trkpt lat="39.29578823817254" lon="9.283835857664075"><ele>135.0</ele><time>2026-03-29T11:36:47.998Z</time></trkpt><trkpt lat="39.29574684614006" lon="9.283755180204356"><ele>133.83333333333334</ele><time>2026-03-29T11:36:48.998Z</time></trkpt><trkpt lat="39.2957083469505" lon="9.283680447011918"><ele>132.66666666666666</ele><time>2026-03-29T11:36:49.998Z</time></trkpt><trkpt lat="39.29567790956664" lon="9.283591595516974"><ele>131.5</ele><time>2026-03-29T11:36:50.998Z</time></trkpt><trkpt lat="39.29566062839911" lon="9.283492546483037"><ele>130.33333333333331</ele><time>2026-03-29T11:36:51.998Z</time></trkpt><trkpt lat="39.295664215955185" lon="9.283384361035179"><ele>129.16666666666666</ele><time>2026-03-29T11:36:52.998Z</time></trkpt><trkpt lat="39.29567545887727" lon="9.283288460866471"><ele>128.0</ele><time>2026-03-29T11:36:53.998Z</time></trkpt><trkpt lat="39.2956790361964" lon="9.283191520658862"><ele>126.33333333333333</ele><time>2026-03-29T11:36:54.998Z</time></trkpt><trkpt lat="39.29567381670315" lon="9.283071868884273"><ele>124.66666666666666</ele><time>2026-03-29T11:36:55.998Z</time></trkpt><trkpt lat="39.295677728212056" lon="9.28295033027035"><ele>123.0</ele><time>2026-03-29T11:36:56.998Z</time></trkpt><trkpt lat="39.29569056826076" lon="9.282840533121293"><ele>121.33333333333334</ele><time>2026-03-29T11:36:57.998Z</time></trkpt><trkpt lat="39.295714689257515" lon="9.28272579914842"><ele>119.66666666666667</ele><time>2026-03-29T11:36:58.998Z</time></trkpt><trkpt lat="39.29573422182024" lon="9.282629032955994"><ele>118.0</ele><time>2026-03-29T11:36:59.998Z</time></trkpt><trkpt lat="39.295746317443026" lon="9.282526828398925"><ele>118.0</ele><time>2026-03-29T11:37:00.998Z</time></trkpt><trkpt lat="39.2957469357913" lon="9.282420024482198"><ele>118.00000000000001</ele><time>2026-03-29T11:37:01.997Z</time></trkpt><trkpt lat="39.29573631829068" lon="9.282292946509369"><ele>118.00000000000001</ele><time>2026-03-29T11:37:02.997Z</time></trkpt><trkpt lat="39.29572650253416" lon="9.282160957686711"><ele>118.0</ele><time>2026-03-29T11:37:03.997Z</time></trkpt><trkpt lat="39.29572723294887" lon="9.282043830356738"><ele>118.0</ele><time>2026-03-29T11:37:04.997Z</time></trkpt><trkpt lat="39.295732321930416" lon="9.281911567805741"><ele>116.66666666666667</ele><time>2026-03-29T11:37:05.997Z</time></trkpt><trkpt lat="39.29572867335844" lon="9.281786694712922"><ele>115.33333333333334</ele><time>2026-03-29T11:37:06.997Z</time></trkpt><trkpt lat="39.29572327145846" lon="9.281668333236539"><ele>114.0</ele><time>2026-03-29T11:37:07.997Z</time></trkpt><trkpt lat="39.295712692550126" lon="9.281551718056333"><ele>112.66666666666666</ele><time>2026-03-29T11:37:08.997Z</time></trkpt><trkpt lat="39.29569778755108" lon="9.281438006585102"><ele>111.33333333333333</ele><time>2026-03-29T11:37:09.997Z</time></trkpt><trkpt lat="39.295675809277384" lon="9.281337934843064"><ele>110.0</ele><time>2026-03-29T11:37:10.997Z</time></trkpt><trkpt lat="39.29566943016172" lon="9.281228018916325"><ele>108.99999999999999</ele><time>2026-03-29T11:37:11.997Z</time></trkpt><trkpt lat="39.29566808677766" lon="9.281123289923803"><ele>108.0</ele><time>2026-03-29T11:37:12.997Z</time></trkpt><trkpt lat="39.29567148474402" lon="9.281030351903054"><ele>107.0</ele><time>2026-03-29T11:37:13.997Z</time></trkpt><trkpt lat="39.29564755594741" lon="9.280949251757084"><ele>106.0</ele><time>2026-03-29T11:37:14.997Z</time></trkpt><trkpt lat="39.295603547356194" lon="9.280885040057509"><ele>104.99999999999999</ele><time>2026-03-29T11:37:15.997Z</time></trkpt><trkpt lat="39.29553756840525" lon="9.280825659049063"><ele>104.0</ele><time>2026-03-29T11:37:16.997Z</time></trkpt><trkpt lat="39.295459152771606" lon="9.280752180448415"><ele>103.83333333333333</ele><time>2026-03-29T11:37:17.997Z</time></trkpt><trkpt lat="39.29540045185956" lon="9.280646303004099"><ele>103.66666666666666</ele><time>2026-03-29T11:37:19Z</time></trkpt><trkpt lat="39.29535508928269" lon="9.280539622501388"><ele>103.5</ele><time>2026-03-29T11:37:20Z</time></trkpt><trkpt lat="39.29531269193385" lon="9.280432592153582"><ele>103.33333333333334</ele><time>2026-03-29T11:37:21Z</time></trkpt><trkpt lat="39.295282432299956" lon="9.28034081390525"><ele>103.16666666666667</ele><time>2026-03-29T11:37:22Z</time></trkpt><trkpt lat="39.29526624307483" lon="9.280251215302492"><ele>103.0</ele><time>2026-03-29T11:37:23Z</time></trkpt><trkpt lat="39.295263758731224" lon="9.280145902217532"><ele>102.83333333333334</ele><time>2026-03-29T11:37:24Z</time></trkpt><trkpt lat="39.29526722420006" lon="9.280029208010573"><ele>102.66666666666667</ele><time>2026-03-29T11:37:25Z</time></trkpt><trkpt lat="39.295252580629516" lon="9.279933876133413"><ele>102.5</ele><time>2026-03-29T11:37:26Z</time></trkpt><trkpt lat="39.2952463093832" lon="9.279829195558719"><ele>102.33333333333334</ele><time>2026-03-29T11:37:27Z</time></trkpt><trkpt lat="39.29525386724575" lon="9.27973310603755"><ele>102.16666666666667</ele><time>2026-03-29T11:37:28Z</time></trkpt><trkpt lat="39.295266020201744" lon="9.279650447403872"><ele>102.0</ele><time>2026-03-29T11:37:29Z</time></trkpt><trkpt lat="39.295295711141534" lon="9.279517010590778"><ele>102.0</ele><time>2026-03-29T11:37:31Z</time></trkpt><trkpt lat="39.29529823104077" lon="9.279363068170262"><ele>102.0</ele><time>2026-03-29T11:37:33Z</time></trkpt><trkpt lat="39.29527009425523" lon="9.279276014063633"><ele>102.0</ele><time>2026-03-29T11:37:34Z</time></trkpt><trkpt lat="39.29524454105433" lon="9.27918769548616"><ele>102.0</ele><time>2026-03-29T11:37:35Z</time></trkpt><trkpt lat="39.295179905925224" lon="9.279058037621269"><ele>102.0</ele><time>2026-03-29T11:37:37Z</time></trkpt><trkpt lat="39.29512868344129" lon="9.27896879827581"><ele>101.8</ele><time>2026-03-29T11:37:39Z</time></trkpt><trkpt lat="39.29507641098704" lon="9.278844704796128"><ele>101.6</ele><time>2026-03-29T11:37:41Z</time></trkpt><trkpt lat="39.29504735705624" lon="9.27876314821178"><ele>101.39999999999999</ele><time>2026-03-29T11:37:42Z</time></trkpt><trkpt lat="39.29500281624169" lon="9.278682915453544"><ele>101.19999999999999</ele><time>2026-03-29T11:37:43Z</time></trkpt><trkpt lat="39.29495369737527" lon="9.278584748534037"><ele>101.0</ele><time>2026-03-29T11:37:44Z</time></trkpt><trkpt lat="39.29490540706977" lon="9.278445417118707"><ele>101.0</ele><time>2026-03-29T11:37:45Z</time></trkpt><trkpt lat="39.29484429297659" lon="9.27829673575379"><ele>101.0</ele><time>2026-03-29T11:37:46Z</time></trkpt><trkpt lat="39.29478893614326" lon="9.27816206039117"><ele>101.0</ele><time>2026-03-29T11:37:47Z</time></trkpt><trkpt lat="39.2947537659345" lon="9.27804273129069"><ele>101.0</ele><time>2026-03-29T11:37:48Z</time></trkpt><trkpt lat="39.2947065601099" lon="9.277912349595207"><ele>101.0</ele><time>2026-03-29T11:37:49Z</time></trkpt><trkpt lat="39.29466776031473" lon="9.27773992134601"><ele>101.0</ele><time>2026-03-29T11:37:50Z</time></trkpt><trkpt lat="39.294660512243894" lon="9.277599302332664"><ele>101.0</ele><time>2026-03-29T11:37:50.999Z</time></trkpt><trkpt lat="39.294645470734054" lon="9.277494614784128"><ele>101.0</ele><time>2026-03-29T11:37:51.999Z</time></trkpt><trkpt lat="39.2946445700745" lon="9.277374892472892"><ele>101.0</ele><time>2026-03-29T11:37:52.999Z</time></trkpt><trkpt lat="39.29464961710001" lon="9.277227557595296"><ele>101.19999999999999</ele><time>2026-03-29T11:37:53.999Z</time></trkpt><trkpt lat="39.29463694929087" lon="9.277083878840244"><ele>101.39999999999999</ele><time>2026-03-29T11:37:54.999Z</time></trkpt><trkpt lat="39.2946027709195" lon="9.276952066835285"><ele>101.6</ele><time>2026-03-29T11:37:55.999Z</time></trkpt><trkpt lat="39.29455415224769" lon="9.276814548872167"><ele>101.8</ele><time>2026-03-29T11:37:56.999Z</time></trkpt><trkpt lat="39.294512432030444" lon="9.276702086941299"><ele>102.0</ele><time>2026-03-29T11:37:57.999Z</time></trkpt><trkpt lat="39.29449158373073" lon="9.276601555673112"><ele>102.0</ele><time>2026-03-29T11:37:58.999Z</time></trkpt><trkpt lat="39.29448038620831" lon="9.276494625354609"><ele>102.0</ele><time>2026-03-29T11:37:59.999Z</time></trkpt><trkpt lat="39.294463360679245" lon="9.276389876270219"><ele>102.0</ele><time>2026-03-29T11:38:00.999Z</time></trkpt><trkpt lat="39.29442097416469" lon="9.276303420720687"><ele>102.0</ele><time>2026-03-29T11:38:01.999Z</time></trkpt><trkpt lat="39.29436795678594" lon="9.276215489384109"><ele>102.0</ele><time>2026-03-29T11:38:02.999Z</time></trkpt><trkpt lat="39.29433932515621" lon="9.276120060948791"><ele>102.0</ele><time>2026-03-29T11:38:03.999Z</time></trkpt><trkpt lat="39.29433458011882" lon="9.276025657587509"><ele>102.0</ele><time>2026-03-29T11:38:04.999Z</time></trkpt><trkpt lat="39.29429865556751" lon="9.27593389029286"><ele>102.0</ele><time>2026-03-29T11:38:05.999Z</time></trkpt><trkpt lat="39.294241244199284" lon="9.275840261528064"><ele>102.0</ele><time>2026-03-29T11:38:06.999Z</time></trkpt><trkpt lat="39.29416163156018" lon="9.275728093228059"><ele>102.0</ele><time>2026-03-29T11:38:07.999Z</time></trkpt><trkpt lat="39.29410353251256" lon="9.275617235392572"><ele>102.0</ele><time>2026-03-29T11:38:08.999Z</time></trkpt><trkpt lat="39.29406100027111" lon="9.275515028258823"><ele>102.0</ele><time>2026-03-29T11:38:09.999Z</time></trkpt><trkpt lat="39.29403010969727" lon="9.275427151588227"><ele>102.0</ele><time>2026-03-29T11:38:10.999Z</time></trkpt><trkpt lat="39.293972908202726" lon="9.27535220374301"><ele>102.0</ele><time>2026-03-29T11:38:12.999Z</time></trkpt><trkpt lat="39.29386884549286" lon="9.275256772895201"><ele>102.0</ele><time>2026-03-29T11:38:14.999Z</time></trkpt><trkpt lat="39.293807459630244" lon="9.275168670080255"><ele>102.0</ele><time>2026-03-29T11:38:15.999Z</time></trkpt><trkpt lat="39.293733165005804" lon="9.275075769536397"><ele>101.8</ele><time>2026-03-29T11:38:16.999Z</time></trkpt><trkpt lat="39.293657408468384" lon="9.274986981144329"><ele>101.6</ele><time>2026-03-29T11:38:17.999Z</time></trkpt><trkpt lat="39.29360023703531" lon="9.274901643342758"><ele>101.39999999999999</ele><time>2026-03-29T11:38:18.999Z</time></trkpt><trkpt lat="39.29355080112206" lon="9.274802089428785"><ele>101.19999999999999</ele><time>2026-03-29T11:38:19.999Z</time></trkpt><trkpt lat="39.29351373647483" lon="9.27469851011116"><ele>101.0</ele><time>2026-03-29T11:38:20.999Z</time></trkpt><trkpt lat="39.293479754627164" lon="9.274595116189161"><ele>100.99999999999999</ele><time>2026-03-29T11:38:21.999Z</time></trkpt><trkpt lat="39.29345477105844" lon="9.274489366255713"><ele>101.0</ele><time>2026-03-29T11:38:22.999Z</time></trkpt><trkpt lat="39.293441260263194" lon="9.27437738279351"><ele>101.0</ele><time>2026-03-29T11:38:23.999Z</time></trkpt><trkpt lat="39.29343468248685" lon="9.274274495165745"><ele>101.0</ele><time>2026-03-29T11:38:24.999Z</time></trkpt><trkpt lat="39.29343455386228" lon="9.274144937588979"><ele>100.99999999999999</ele><time>2026-03-29T11:38:26.999Z</time></trkpt><trkpt lat="39.29344937722336" lon="9.27403721696149"><ele>101.0</ele><time>2026-03-29T11:38:28.999Z</time></trkpt><trkpt lat="39.29342747179445" lon="9.27387265910889"><ele>100.99999999999999</ele><time>2026-03-29T11:38:30.998Z</time></trkpt><trkpt lat="39.29345513523953" lon="9.27372591070169"><ele>101.0</ele><time>2026-03-29T11:38:32.998Z</time></trkpt><trkpt lat="39.29348787644051" lon="9.273640724704725"><ele>101.0</ele><time>2026-03-29T11:38:33.998Z</time></trkpt><trkpt lat="39.29351090678045" lon="9.273546014149499"><ele>101.0</ele><time>2026-03-29T11:38:34.998Z</time></trkpt><trkpt lat="39.293529182477315" lon="9.273449677960235"><ele>100.99999999999999</ele><time>2026-03-29T11:38:35.998Z</time></trkpt><trkpt lat="39.293551587837015" lon="9.273359092959463"><ele>101.0</ele><time>2026-03-29T11:38:36.998Z</time></trkpt><trkpt lat="39.2935700686206" lon="9.273280801945992"><ele>100.99999999999999</ele><time>2026-03-29T11:38:37.998Z</time></trkpt><trkpt lat="39.293584319821996" lon="9.27316438263923"><ele>101.0</ele><time>2026-03-29T11:38:39.998Z</time></trkpt><trkpt lat="39.29358529721793" lon="9.273047763229469"><ele>101.0</ele><time>2026-03-29T11:38:41.998Z</time></trkpt><trkpt lat="39.293578140975995" lon="9.272916131664806"><ele>101.0</ele><time>2026-03-29T11:38:43.998Z</time></trkpt><trkpt lat="39.293544141308935" lon="9.272826420630667"><ele>100.99999999999999</ele><time>2026-03-29T11:38:46.998Z</time></trkpt><trkpt lat="39.293533318157216" lon="9.272729743535182"><ele>101.0</ele><time>2026-03-29T11:38:49.998Z</time></trkpt><trkpt lat="39.29342362079029" lon="9.272371751980033"><ele>101.5</ele><time>2026-03-29T11:38:50.998Z</time></trkpt><trkpt lat="39.29336509638849" lon="9.27220165883873"><ele>102.0</ele><time>2026-03-29T11:38:51.998Z</time></trkpt><trkpt lat="39.293311849916506" lon="9.272052893073969"><ele>102.5</ele><time>2026-03-29T11:38:52.998Z</time></trkpt><trkpt lat="39.29327677687574" lon="9.271914678202625"><ele>103.0</ele><time>2026-03-29T11:38:53.998Z</time></trkpt><trkpt lat="39.29329358454506" lon="9.271786318927104"><ele>103.00000000000001</ele><time>2026-03-29T11:38:55.998Z</time></trkpt><trkpt lat="39.293317219174355" lon="9.271693577162205"><ele>103.0</ele><time>2026-03-29T11:38:56.998Z</time></trkpt><trkpt lat="39.29334408579818" lon="9.271578990103198"><ele>103.0</ele><time>2026-03-29T11:38:57.998Z</time></trkpt><trkpt lat="39.29337891501028" lon="9.271483817111594"><ele>103.0</ele><time>2026-03-29T11:38:58.998Z</time></trkpt><trkpt lat="39.29343088058136" lon="9.271416905071353"><ele>103.00000000000001</ele><time>2026-03-29T11:38:59.998Z</time></trkpt><trkpt lat="39.293513961604184" lon="9.271348698296249"><ele>103.0</ele><time>2026-03-29T11:39:00.998Z</time></trkpt><trkpt lat="39.2936126578969" lon="9.271257515985624"><ele>103.33333333333334</ele><time>2026-03-29T11:39:01.998Z</time></trkpt><trkpt lat="39.293713093211906" lon="9.271169548625265"><ele>103.66666666666667</ele><time>2026-03-29T11:39:02.998Z</time></trkpt><trkpt lat="39.293779555131046" lon="9.271099457921368"><ele>104.0</ele><time>2026-03-29T11:39:03.998Z</time></trkpt><trkpt lat="39.293830946655156" lon="9.2710362783613"><ele>104.33333333333334</ele><time>2026-03-29T11:39:04.998Z</time></trkpt><trkpt lat="39.293871064800925" lon="9.27095575226804"><ele>104.66666666666667</ele><time>2026-03-29T11:39:05.998Z</time></trkpt><trkpt lat="39.293936181570125" lon="9.270877681427239"><ele>105.0</ele><time>2026-03-29T11:39:06.998Z</time></trkpt><trkpt lat="39.2940041591598" lon="9.270803548729546"><ele>105.0</ele><time>2026-03-29T11:39:07.997Z</time></trkpt><trkpt lat="39.29407222740416" lon="9.270740972429902"><ele>105.0</ele><time>2026-03-29T11:39:08.997Z</time></trkpt><trkpt lat="39.29412447062198" lon="9.27067841566399"><ele>105.0</ele><time>2026-03-29T11:39:09.997Z</time></trkpt><trkpt lat="39.294151109597436" lon="9.270576138013501"><ele>105.0</ele><time>2026-03-29T11:39:11.997Z</time></trkpt><trkpt lat="39.29407866552646" lon="9.270504177143739"><ele>105.0</ele><time>2026-03-29T11:39:13.997Z</time></trkpt><trkpt lat="39.293966665271796" lon="9.27042218208261"><ele>105.2</ele><time>2026-03-29T11:39:15.997Z</time></trkpt><trkpt lat="39.29390434395381" lon="9.27033327664901"><ele>105.4</ele><time>2026-03-29T11:39:21.997Z</time></trkpt><trkpt lat="39.293877896054525" lon="9.270249314006083"><ele>105.6</ele><time>2026-03-29T11:39:23.997Z</time></trkpt><trkpt lat="39.29384574752733" lon="9.270125011265181"><ele>105.8</ele><time>2026-03-29T11:39:26Z</time></trkpt><trkpt lat="39.293862174459775" lon="9.269998343903575"><ele>106.0</ele><time>2026-03-29T11:39:28Z</time></trkpt><trkpt lat="39.29394407881203" lon="9.269909567259935"><ele>106.00000000000001</ele><time>2026-03-29T11:39:30Z</time></trkpt><trkpt lat="39.29400537597472" lon="9.269871131066168"><ele>106.0</ele><time>2026-03-29T11:39:31Z</time></trkpt><trkpt lat="39.29410189765657" lon="9.269785824927114"><ele>106.0</ele><time>2026-03-29T11:39:33Z</time></trkpt><trkpt lat="39.294136144543586" lon="9.269716914601357"><ele>106.0</ele><time>2026-03-29T11:39:34Z</time></trkpt><trkpt lat="39.29416823346665" lon="9.269635273820429"><ele>106.00000000000001</ele><time>2026-03-29T11:39:35Z</time></trkpt><trkpt lat="39.29420439549012" lon="9.269542546247006"><ele>106.0</ele><time>2026-03-29T11:39:36Z</time></trkpt><trkpt lat="39.29424886955949" lon="9.26942317155716"><ele>106.75</ele><time>2026-03-29T11:39:37Z</time></trkpt><trkpt lat="39.29428647278196" lon="9.269246087442756"><ele>107.5</ele><time>2026-03-29T11:39:38Z</time></trkpt><trkpt lat="39.29435885650887" lon="9.26906218319513"><ele>108.25</ele><time>2026-03-29T11:39:39Z</time></trkpt><trkpt lat="39.29442064763579" lon="9.268911680094085"><ele>109.0</ele><time>2026-03-29T11:39:41Z</time></trkpt><trkpt lat="39.29448882129537" lon="9.268841759417919"><ele>109.4</ele><time>2026-03-29T11:39:42Z</time></trkpt><trkpt lat="39.29456587297289" lon="9.268773383890048"><ele>109.80000000000001</ele><time>2026-03-29T11:39:43Z</time></trkpt><trkpt lat="39.29464997229761" lon="9.268709095789292"><ele>110.19999999999999</ele><time>2026-03-29T11:39:44Z</time></trkpt><trkpt lat="39.294726408531226" lon="9.268649046195222"><ele>110.6</ele><time>2026-03-29T11:39:45Z</time></trkpt><trkpt lat="39.294823042265655" lon="9.268578376650735"><ele>111.0</ele><time>2026-03-29T11:39:46Z</time></trkpt><trkpt lat="39.294903197930104" lon="9.268541038252527"><ele>111.0</ele><time>2026-03-29T11:39:47Z</time></trkpt><trkpt lat="39.294992952042996" lon="9.268523217884303"><ele>111.0</ele><time>2026-03-29T11:39:48Z</time></trkpt><trkpt lat="39.295071431889575" lon="9.268522176194718"><ele>111.0</ele><time>2026-03-29T11:39:49Z</time></trkpt><trkpt lat="39.29514289545453" lon="9.268546678990134"><ele>111.0</ele><time>2026-03-29T11:39:50Z</time></trkpt><trkpt lat="39.29520769575169" lon="9.26858015656403"><ele>111.0</ele><time>2026-03-29T11:39:51Z</time></trkpt><trkpt lat="39.29527250443913" lon="9.268626803768672"><ele>111.0</ele><time>2026-03-29T11:39:52Z</time></trkpt><trkpt lat="39.295325583009884" lon="9.26869031925429"><ele>111.0</ele><time>2026-03-29T11:39:53Z</time></trkpt><trkpt lat="39.295373965482014" lon="9.26875866998559"><ele>111.0</ele><time>2026-03-29T11:39:54Z</time></trkpt><trkpt lat="39.295440601095535" lon="9.268839807168238"><ele>111.0</ele><time>2026-03-29T11:39:55Z</time></trkpt><trkpt lat="39.29550612262753" lon="9.268915604050713"><ele>111.0</ele><time>2026-03-29T11:39:56Z</time></trkpt><trkpt lat="39.29556110983406" lon="9.268988822939178"><ele>111.0</ele><time>2026-03-29T11:39:57Z</time></trkpt><trkpt lat="39.295606488936876" lon="9.26906505831842"><ele>111.0</ele><time>2026-03-29T11:39:57.999Z</time></trkpt><trkpt lat="39.295660652889424" lon="9.269137810023896"><ele>110.66666666666667</ele><time>2026-03-29T11:39:58.999Z</time></trkpt><trkpt lat="39.2957292238799" lon="9.269182431471295"><ele>110.33333333333334</ele><time>2026-03-29T11:39:59.999Z</time></trkpt><trkpt lat="39.295787627200774" lon="9.269227980419206"><ele>110.0</ele><time>2026-03-29T11:40:00.999Z</time></trkpt><trkpt lat="39.29583248441474" lon="9.269285381433109"><ele>109.66666666666667</ele><time>2026-03-29T11:40:01.999Z</time></trkpt><trkpt lat="39.295872595291534" lon="9.269421969169784"><ele>109.33333333333334</ele><time>2026-03-29T11:40:03.999Z</time></trkpt><trkpt lat="39.295911036947444" lon="9.269518406919879"><ele>109.0</ele><time>2026-03-29T11:40:05.999Z</time></trkpt><trkpt lat="39.29597832627941" lon="9.269515242472"><ele>109.0</ele><time>2026-03-29T11:40:07.999Z</time></trkpt><trkpt lat="39.29608182475314" lon="9.269449783607854"><ele>109.0</ele><time>2026-03-29T11:40:09.999Z</time></trkpt><trkpt lat="39.2961854868397" lon="9.269360004979635"><ele>109.0</ele><time>2026-03-29T11:40:11.999Z</time></trkpt><trkpt lat="39.29624174873526" lon="9.269318544820523"><ele>109.0</ele><time>2026-03-29T11:40:12.999Z</time></trkpt><trkpt lat="39.29633034232674" lon="9.269261956763561"><ele>109.0</ele><time>2026-03-29T11:40:14.999Z</time></trkpt><trkpt lat="39.29640943988586" lon="9.269177443219096"><ele>109.00000000000001</ele><time>2026-03-29T11:40:16.999Z</time></trkpt><trkpt lat="39.29646520926904" lon="9.269087008461671"><ele>109.0</ele><time>2026-03-29T11:40:18.999Z</time></trkpt><trkpt lat="39.296503040856294" lon="9.269013000278557"><ele>109.0</ele><time>2026-03-29T11:40:20.999Z</time></trkpt><trkpt lat="39.29661283138574" lon="9.26899537020721"><ele>109.0</ele><time>2026-03-29T11:42:18.999Z</time></trkpt><trkpt lat="39.296567354864244" lon="9.269055177842207"><ele>109.00000000000001</ele><time>2026-03-29T11:42:35.999Z</time></trkpt><trkpt lat="39.29649971696689" lon="9.26907409266796"><ele>109.0</ele><time>2026-03-29T11:42:38.999Z</time></trkpt><trkpt lat="39.296415074747955" lon="9.269207504067216"><ele>109.00000000000001</ele><time>2026-03-29T11:42:40.999Z</time></trkpt><trkpt lat="39.29635721256355" lon="9.269274052965748"><ele>109.0</ele><time>2026-03-29T11:42:41.999Z</time></trkpt><trkpt lat="39.29630356674426" lon="9.269327807005823"><ele>109.0</ele><time>2026-03-29T11:42:42.999Z</time></trkpt><trkpt lat="39.29621013611344" lon="9.269405513350993"><ele>109.0</ele><time>2026-03-29T11:42:44.998Z</time></trkpt><trkpt lat="39.29615255648731" lon="9.26944932201353"><ele>109.00000000000001</ele><time>2026-03-29T11:42:45.998Z</time></trkpt><trkpt lat="39.296077527004584" lon="9.26952122309202"><ele>109.0</ele><time>2026-03-29T11:42:47.998Z</time></trkpt><trkpt lat="39.296017548457364" lon="9.269549022476214"><ele>109.00000000000001</ele><time>2026-03-29T11:42:49.998Z</time></trkpt><trkpt lat="39.29594133810217" lon="9.269538141671596"><ele>109.0</ele><time>2026-03-29T11:42:52.998Z</time></trkpt><trkpt lat="39.29586284942199" lon="9.269501843449602"><ele>109.0</ele><time>2026-03-29T11:45:33.997Z</time></trkpt><trkpt lat="39.295794860402424" lon="9.269515832623082"><ele>109.0</ele><time>2026-03-29T11:45:35.997Z</time></trkpt><trkpt lat="39.29587196247536" lon="9.269520197684914"><ele>109.00000000000001</ele><time>2026-03-29T11:45:44Z</time></trkpt><trkpt lat="39.29595515599429" lon="9.269500086918326"><ele>109.0</ele><time>2026-03-29T11:46:35.999Z</time></trkpt><trkpt lat="39.29603533697638" lon="9.26950810442807"><ele>109.0</ele><time>2026-03-29T11:46:36.999Z</time></trkpt><trkpt lat="39.296156031717565" lon="9.269404105268224"><ele>109.0</ele><time>2026-03-29T11:46:38.999Z</time></trkpt><trkpt lat="39.29623699802578" lon="9.269325399241312"><ele>109.0</ele><time>2026-03-29T11:46:39.999Z</time></trkpt><trkpt lat="39.296328896790826" lon="9.269247426512408"><ele>109.0</ele><time>2026-03-29T11:46:40.999Z</time></trkpt><trkpt lat="39.296406344257335" lon="9.269164573591027"><ele>109.2</ele><time>2026-03-29T11:46:41.999Z</time></trkpt><trkpt lat="39.29646590375561" lon="9.269094203470233"><ele>109.4</ele><time>2026-03-29T11:46:42.999Z</time></trkpt><trkpt lat="39.29651603231247" lon="9.269041441050511"><ele>109.6</ele><time>2026-03-29T11:46:43.999Z</time></trkpt><trkpt lat="39.29665928853503" lon="9.269096909940252"><ele>109.8</ele><time>2026-03-29T11:46:48.999Z</time></trkpt><trkpt lat="39.29671622190826" lon="9.269147987257806"><ele>110.0</ele><time>2026-03-29T11:46:50.999Z</time></trkpt><trkpt lat="39.29679427195985" lon="9.269063802558701"><ele>110.0</ele><time>2026-03-29T11:46:53.999Z</time></trkpt><trkpt lat="39.29681581581131" lon="9.268983783877012"><ele>110.0</ele><time>2026-03-29T11:46:54.998Z</time></trkpt><trkpt lat="39.29687340310125" lon="9.268898153789566"><ele>110.0</ele><time>2026-03-29T11:46:55.998Z</time></trkpt><trkpt lat="39.29693511576019" lon="9.268785439863127"><ele>110.0</ele><time>2026-03-29T11:46:56.998Z</time></trkpt><trkpt lat="39.29699436889785" lon="9.268659882817209"><ele>110.0</ele><time>2026-03-29T11:46:57.998Z</time></trkpt><trkpt lat="39.29705371718689" lon="9.26855536817961"><ele>110.2</ele><time>2026-03-29T11:46:58.998Z</time></trkpt><trkpt lat="39.297122598803185" lon="9.268461410736755"><ele>110.4</ele><time>2026-03-29T11:46:59.998Z</time></trkpt><trkpt lat="39.297194310330276" lon="9.268351904186463"><ele>110.6</ele><time>2026-03-29T11:47:00.998Z</time></trkpt><trkpt lat="39.297254670815136" lon="9.268240150613837"><ele>110.8</ele><time>2026-03-29T11:47:01.998Z</time></trkpt><trkpt lat="39.29728878037123" lon="9.268128175094855"><ele>111.0</ele><time>2026-03-29T11:47:02.998Z</time></trkpt><trkpt lat="39.297308708907316" lon="9.268012481911558"><ele>111.4</ele><time>2026-03-29T11:47:03.998Z</time></trkpt><trkpt lat="39.29731713355312" lon="9.267888054334946"><ele>111.8</ele><time>2026-03-29T11:47:04.998Z</time></trkpt><trkpt lat="39.29731638427546" lon="9.26773998585433"><ele>112.20000000000002</ele><time>2026-03-29T11:47:05.998Z</time></trkpt><trkpt lat="39.29732961763926" lon="9.267593510969162"><ele>112.60000000000001</ele><time>2026-03-29T11:47:06.998Z</time></trkpt><trkpt lat="39.29735326016549" lon="9.267480932517085"><ele>113.0</ele><time>2026-03-29T11:47:07.998Z</time></trkpt><trkpt lat="39.29739410666737" lon="9.267389957631554"><ele>112.99999999999999</ele><time>2026-03-29T11:47:08.998Z</time></trkpt><trkpt lat="39.297448832202186" lon="9.26730921392542"><ele>113.0</ele><time>2026-03-29T11:47:09.998Z</time></trkpt><trkpt lat="39.29748920076192" lon="9.267246705967883"><ele>113.0</ele><time>2026-03-29T11:47:10.998Z</time></trkpt><trkpt lat="39.29749630954754" lon="9.267120891070746"><ele>113.0</ele><time>2026-03-29T11:47:12.998Z</time></trkpt><trkpt lat="39.29746449406844" lon="9.26701769978094"><ele>112.99999999999999</ele><time>2026-03-29T11:47:13.998Z</time></trkpt><trkpt lat="39.29743062490609" lon="9.266876423674738"><ele>113.0</ele><time>2026-03-29T11:47:14.998Z</time></trkpt><trkpt lat="39.29740244145989" lon="9.266682612685587"><ele>113.66666666666666</ele><time>2026-03-29T11:47:15.998Z</time></trkpt><trkpt lat="39.29736537812522" lon="9.266448040667747"><ele>114.33333333333334</ele><time>2026-03-29T11:47:16.998Z</time></trkpt><trkpt lat="39.297314426617866" lon="9.266180303057798"><ele>115.0</ele><time>2026-03-29T11:47:17.998Z</time></trkpt><trkpt lat="39.29724074980806" lon="9.265910681295363"><ele>115.0</ele><time>2026-03-29T11:47:18.998Z</time></trkpt><trkpt lat="39.29713771446024" lon="9.265629389039427"><ele>115.0</ele><time>2026-03-29T11:47:19.998Z</time></trkpt><trkpt lat="39.29704172289143" lon="9.265344172812739"><ele>115.66666666666667</ele><time>2026-03-29T11:47:20.998Z</time></trkpt><trkpt lat="39.2969586232225" lon="9.265068209947087"><ele>116.33333333333334</ele><time>2026-03-29T11:47:21.998Z</time></trkpt><trkpt lat="39.296886969981486" lon="9.26483858223945"><ele>117.0</ele><time>2026-03-29T11:47:22.998Z</time></trkpt><trkpt lat="39.29684024216474" lon="9.264635123959803"><ele>117.19999999999999</ele><time>2026-03-29T11:47:23.998Z</time></trkpt><trkpt lat="39.29678152056728" lon="9.26449203100491"><ele>117.39999999999999</ele><time>2026-03-29T11:47:24.998Z</time></trkpt><trkpt lat="39.29677425549073" lon="9.264343741930595"><ele>117.60000000000001</ele><time>2026-03-29T11:47:25.998Z</time></trkpt><trkpt lat="39.296767296025315" lon="9.26422992678819"><ele>117.80000000000001</ele><time>2026-03-29T11:47:26.998Z</time></trkpt><trkpt lat="39.29676627776676" lon="9.26410008202898"><ele>118.0</ele><time>2026-03-29T11:47:27.998Z</time></trkpt><trkpt lat="39.29679538909366" lon="9.263985615440193"><ele>118.0</ele><time>2026-03-29T11:47:28.998Z</time></trkpt><trkpt lat="39.2968925111081" lon="9.26388857065066"><ele>118.0</ele><time>2026-03-29T11:47:29.998Z</time></trkpt><trkpt lat="39.29697657602202" lon="9.263707059770109"><ele>118.0</ele><time>2026-03-29T11:47:30.998Z</time></trkpt><trkpt lat="39.29708234156352" lon="9.263499853814764"><ele>118.0</ele><time>2026-03-29T11:47:31.998Z</time></trkpt><trkpt lat="39.29721674618577" lon="9.26326256847186"><ele>118.0</ele><time>2026-03-29T11:47:32.997Z</time></trkpt><trkpt lat="39.297374090766716" lon="9.263040905091145"><ele>119.0</ele><time>2026-03-29T11:47:33.997Z</time></trkpt><trkpt lat="39.29752088581883" lon="9.26281211842286"><ele>120.0</ele><time>2026-03-29T11:47:34.997Z</time></trkpt><trkpt lat="39.297640585781686" lon="9.262598530396348"><ele>121.0</ele><time>2026-03-29T11:47:35.997Z</time></trkpt><trkpt lat="39.297777454354645" lon="9.262399847523461"><ele>121.33333333333334</ele><time>2026-03-29T11:47:36.997Z</time></trkpt><trkpt lat="39.29789892778585" lon="9.262218973323364"><ele>121.66666666666666</ele><time>2026-03-29T11:47:37.997Z</time></trkpt><trkpt lat="39.29801118677058" lon="9.262053605568443"><ele>122.0</ele><time>2026-03-29T11:47:38.997Z</time></trkpt><trkpt lat="39.298117558134834" lon="9.261898036059051"><ele>122.75</ele><time>2026-03-29T11:47:39.997Z</time></trkpt><trkpt lat="39.2982059360492" lon="9.261755326032816"><ele>123.5</ele><time>2026-03-29T11:47:40.997Z</time></trkpt><trkpt lat="39.29828610685378" lon="9.261619126234537"><ele>124.25</ele><time>2026-03-29T11:47:41.997Z</time></trkpt><trkpt lat="39.29835778768701" lon="9.261493753066034"><ele>125.0</ele><time>2026-03-29T11:47:42.997Z</time></trkpt><trkpt lat="39.29842004656052" lon="9.261380505112506"><ele>124.99999999999999</ele><time>2026-03-29T11:47:43.997Z</time></trkpt><trkpt lat="39.298469297902265" lon="9.261285376999881"><ele>125.0</ele><time>2026-03-29T11:47:44.997Z</time></trkpt><trkpt lat="39.298509942178015" lon="9.261196223262099"><ele>125.0</ele><time>2026-03-29T11:47:45.997Z</time></trkpt><trkpt lat="39.29855391264453" lon="9.261121522262966"><ele>125.0</ele><time>2026-03-29T11:47:46.997Z</time></trkpt><trkpt lat="39.29859808775212" lon="9.261042206348947"><ele>124.99999999999999</ele><time>2026-03-29T11:47:49Z</time></trkpt><trkpt lat="39.29865606290443" lon="9.261176616939082"><ele>125.0</ele><time>2026-03-29T11:47:50Z</time></trkpt><trkpt lat="39.29873853287832" lon="9.26127635040714"><ele>125.0</ele><time>2026-03-29T11:47:53Z</time></trkpt><trkpt lat="39.29879325795934" lon="9.261336467740533"><ele>125.0</ele><time>2026-03-29T11:47:54Z</time></trkpt><trkpt lat="39.2989084157642" lon="9.261353044492639"><ele>125.0</ele><time>2026-03-29T11:47:56Z</time></trkpt><trkpt lat="39.29895612364897" lon="9.261257406316561"><ele>125.0</ele><time>2026-03-29T11:47:57Z</time></trkpt><trkpt lat="39.29903629235135" lon="9.261195639974009"><ele>125.0</ele><time>2026-03-29T11:47:58Z</time></trkpt><trkpt lat="39.2991235034901" lon="9.261100984134545"><ele>125.6</ele><time>2026-03-29T11:47:59Z</time></trkpt><trkpt lat="39.29919586184696" lon="9.260999051121873"><ele>126.2</ele><time>2026-03-29T11:48:00Z</time></trkpt><trkpt lat="39.299240511453846" lon="9.260902619441415"><ele>126.80000000000001</ele><time>2026-03-29T11:48:01Z</time></trkpt><trkpt lat="39.29926156072776" lon="9.260788199466322"><ele>127.4</ele><time>2026-03-29T11:48:02Z</time></trkpt><trkpt lat="39.299278459154394" lon="9.26066652374257"><ele>128.0</ele><time>2026-03-29T11:48:03Z</time></trkpt><trkpt lat="39.29929279426274" lon="9.260498010955448"><ele>128.0</ele><time>2026-03-29T11:48:04Z</time></trkpt><trkpt lat="39.29933756133316" lon="9.260347997389122"><ele>128.0</ele><time>2026-03-29T11:48:05Z</time></trkpt><trkpt lat="39.29938742944354" lon="9.260194835497263"><ele>128.0</ele><time>2026-03-29T11:48:06Z</time></trkpt><trkpt lat="39.29941783121585" lon="9.260046992735003"><ele>128.0</ele><time>2026-03-29T11:48:07Z</time></trkpt><trkpt lat="39.299437226890035" lon="9.259951283144005"><ele>128.0</ele><time>2026-03-29T11:48:08Z</time></trkpt><trkpt lat="39.29937077824484" lon="9.259860012208673"><ele>128.0</ele><time>2026-03-29T11:48:10Z</time></trkpt><trkpt lat="39.29930037804404" lon="9.259812669425816"><ele>128.0</ele><time>2026-03-29T11:48:11Z</time></trkpt><trkpt lat="39.299289841478966" lon="9.259665311278532"><ele>128.0</ele><time>2026-03-29T11:48:13Z</time></trkpt><trkpt lat="39.29935804166374" lon="9.259591514235462"><ele>128.0</ele><time>2026-03-29T11:48:14Z</time></trkpt><trkpt lat="39.299413059589426" lon="9.259462916044694"><ele>128.0</ele><time>2026-03-29T11:48:15Z</time></trkpt><trkpt lat="39.29948575481818" lon="9.259311408158325"><ele>128.33333333333331</ele><time>2026-03-29T11:48:16Z</time></trkpt><trkpt lat="39.299562154717684" lon="9.259121380955424"><ele>128.66666666666666</ele><time>2026-03-29T11:48:17Z</time></trkpt><trkpt lat="39.299661516338816" lon="9.258907431577166"><ele>129.0</ele><time>2026-03-29T11:48:18Z</time></trkpt><trkpt lat="39.2997930737007" lon="9.25866520838611"><ele>129.66666666666666</ele><time>2026-03-29T11:48:19Z</time></trkpt><trkpt lat="39.29991683801303" lon="9.258407481378338"><ele>130.33333333333331</ele><time>2026-03-29T11:48:20Z</time></trkpt><trkpt lat="39.30002655025303" lon="9.258194436509386"><ele>131.0</ele><time>2026-03-29T11:48:20.999Z</time></trkpt><trkpt lat="39.30010370313048" lon="9.258030191518708"><ele>131.0</ele><time>2026-03-29T11:48:21.999Z</time></trkpt><trkpt lat="39.30015311796633" lon="9.257856362739076"><ele>131.0</ele><time>2026-03-29T11:48:22.999Z</time></trkpt><trkpt lat="39.30020045223719" lon="9.257684926721128"><ele>131.0</ele><time>2026-03-29T11:48:23.999Z</time></trkpt><trkpt lat="39.30025161056169" lon="9.257481393592041"><ele>131.66666666666666</ele><time>2026-03-29T11:48:24.999Z</time></trkpt><trkpt lat="39.30028818108676" lon="9.257238236002841"><ele>132.33333333333334</ele><time>2026-03-29T11:48:25.999Z</time></trkpt><trkpt lat="39.300335811315385" lon="9.256998266312705"><ele>133.0</ele><time>2026-03-29T11:48:26.999Z</time></trkpt><trkpt lat="39.30038357560298" lon="9.25679373002287"><ele>133.0</ele><time>2026-03-29T11:48:27.999Z</time></trkpt><trkpt lat="39.30041457407923" lon="9.256636269814683"><ele>133.0</ele><time>2026-03-29T11:48:28.999Z</time></trkpt><trkpt lat="39.30043612873414" lon="9.256503628695118"><ele>133.0</ele><time>2026-03-29T11:48:29.999Z</time></trkpt><trkpt lat="39.300453951785215" lon="9.256410674237815"><ele>133.0</ele><time>2026-03-29T11:48:30.999Z</time></trkpt><trkpt lat="39.30048471125882" lon="9.256321202854807"><ele>133.0</ele><time>2026-03-29T11:48:32.999Z</time></trkpt><trkpt lat="39.300303347852136" lon="9.256264872259095"><ele>133.16666666666669</ele><time>2026-03-29T11:48:34.999Z</time></trkpt><trkpt lat="39.30023771361361" lon="9.256249421509619"><ele>133.33333333333334</ele><time>2026-03-29T11:48:35.999Z</time></trkpt><trkpt lat="39.300164703862286" lon="9.256189215614318"><ele>133.5</ele><time>2026-03-29T11:48:36.999Z</time></trkpt><trkpt lat="39.300089893690604" lon="9.256131160251778"><ele>133.66666666666666</ele><time>2026-03-29T11:48:37.999Z</time></trkpt><trkpt lat="39.30003081272173" lon="9.256075193404142"><ele>133.83333333333331</ele><time>2026-03-29T11:48:38.999Z</time></trkpt><trkpt lat="39.2999807600685" lon="9.255996343901238"><ele>134.0</ele><time>2026-03-29T11:48:39.999Z</time></trkpt><trkpt lat="39.29991056553447" lon="9.255911380805637"><ele>134.0</ele><time>2026-03-29T11:48:40.999Z</time></trkpt><trkpt lat="39.29980748288064" lon="9.255796755581827"><ele>134.0</ele><time>2026-03-29T11:48:41.999Z</time></trkpt><trkpt lat="39.29967091041534" lon="9.255659717783194"><ele>134.0</ele><time>2026-03-29T11:48:42.999Z</time></trkpt><trkpt lat="39.29951319167343" lon="9.255535068203889"><ele>135.0</ele><time>2026-03-29T11:48:43.999Z</time></trkpt><trkpt lat="39.29938044164098" lon="9.255428683388432"><ele>136.0</ele><time>2026-03-29T11:48:44.999Z</time></trkpt><trkpt lat="39.29927254503947" lon="9.255305359486805"><ele>137.0</ele><time>2026-03-29T11:48:45.999Z</time></trkpt><trkpt lat="39.29916838033792" lon="9.255159310464279"><ele>137.0</ele><time>2026-03-29T11:48:46.999Z</time></trkpt><trkpt lat="39.299076163008586" lon="9.255005869014118"><ele>137.0</ele><time>2026-03-29T11:48:47.999Z</time></trkpt><trkpt lat="39.29901711186555" lon="9.254872558581873"><ele>137.0</ele><time>2026-03-29T11:48:48.999Z</time></trkpt><trkpt lat="39.298965579882704" lon="9.254694631245606"><ele>137.0</ele><time>2026-03-29T11:48:49.999Z</time></trkpt><trkpt lat="39.298922459922196" lon="9.254510870716034"><ele>137.75</ele><time>2026-03-29T11:48:50.999Z</time></trkpt><trkpt lat="39.29890508478586" lon="9.25436190787686"><ele>138.5</ele><time>2026-03-29T11:48:51.999Z</time></trkpt><trkpt lat="39.29890938309758" lon="9.254168361573688"><ele>139.25</ele><time>2026-03-29T11:48:52.999Z</time></trkpt><trkpt lat="39.298902272107405" lon="9.253981667182092"><ele>140.0</ele><time>2026-03-29T11:48:53.999Z</time></trkpt><trkpt lat="39.298879142542205" lon="9.253825394001172"><ele>140.0</ele><time>2026-03-29T11:48:54.999Z</time></trkpt><trkpt lat="39.29883199309922" lon="9.25369616480484"><ele>140.0</ele><time>2026-03-29T11:48:55.999Z</time></trkpt><trkpt lat="39.29875783177992" lon="9.25355273832053"><ele>140.0</ele><time>2026-03-29T11:48:56.999Z</time></trkpt><trkpt lat="39.29868367556439" lon="9.253374696234452"><ele>140.0</ele><time>2026-03-29T11:48:57.998Z</time></trkpt><trkpt lat="39.29862398841847" lon="9.25320626812723"><ele>140.33333333333331</ele><time>2026-03-29T11:48:58.998Z</time></trkpt><trkpt lat="39.298539555614674" lon="9.2530371873828"><ele>140.66666666666666</ele><time>2026-03-29T11:48:59.998Z</time></trkpt><trkpt lat="39.2984284607202" lon="9.252837306559492"><ele>141.0</ele><time>2026-03-29T11:49:00.998Z</time></trkpt><trkpt lat="39.29830516225227" lon="9.252614592876242"><ele>141.0</ele><time>2026-03-29T11:49:01.998Z</time></trkpt><trkpt lat="39.29819070138144" lon="9.252418508594975"><ele>141.0</ele><time>2026-03-29T11:49:02.998Z</time></trkpt><trkpt lat="39.29809209490061" lon="9.252245758740836"><ele>141.0</ele><time>2026-03-29T11:49:03.998Z</time></trkpt><trkpt lat="39.29799914983589" lon="9.252088580929597"><ele>139.66666666666666</ele><time>2026-03-29T11:49:04.998Z</time></trkpt><trkpt lat="39.297889453768555" lon="9.251925526953046"><ele>138.33333333333331</ele><time>2026-03-29T11:49:05.998Z</time></trkpt><trkpt lat="39.29778295784697" lon="9.251778662085766"><ele>137.0</ele><time>2026-03-29T11:49:06.998Z</time></trkpt><trkpt lat="39.29769063399149" lon="9.25163831793851"><ele>137.0</ele><time>2026-03-29T11:49:07.998Z</time></trkpt><trkpt lat="39.29761221648481" lon="9.251512640172667"><ele>137.0</ele><time>2026-03-29T11:49:08.998Z</time></trkpt><trkpt lat="39.297545550344154" lon="9.251412456316432"><ele>137.0</ele><time>2026-03-29T11:49:09.998Z</time></trkpt><trkpt lat="39.29748824672339" lon="9.251320224625683"><ele>137.0</ele><time>2026-03-29T11:49:10.998Z</time></trkpt><trkpt lat="39.29742071277248" lon="9.251197151512265"><ele>137.0</ele><time>2026-03-29T11:49:11.998Z</time></trkpt><trkpt lat="39.29735168408988" lon="9.251065932869034"><ele>135.25</ele><time>2026-03-29T11:49:12.998Z</time></trkpt><trkpt lat="39.29728256451354" lon="9.250935183216088"><ele>133.5</ele><time>2026-03-29T11:49:13.998Z</time></trkpt><trkpt lat="39.2972099547346" lon="9.250806118369995"><ele>131.75</ele><time>2026-03-29T11:49:14.998Z</time></trkpt><trkpt lat="39.29715082855804" lon="9.250668961422923"><ele>130.0</ele><time>2026-03-29T11:49:15.998Z</time></trkpt><trkpt lat="39.29710841193011" lon="9.250556803614824"><ele>128.83333333333334</ele><time>2026-03-29T11:49:16.998Z</time></trkpt><trkpt lat="39.297072588986126" lon="9.250454853906689"><ele>127.66666666666667</ele><time>2026-03-29T11:49:17.998Z</time></trkpt><trkpt lat="39.29704811758208" lon="9.25037514184997"><ele>126.5</ele><time>2026-03-29T11:49:18.998Z</time></trkpt><trkpt lat="39.297026526883485" lon="9.250293120487566"><ele>125.33333333333334</ele><time>2026-03-29T11:49:20.998Z</time></trkpt><trkpt lat="39.2969678082625" lon="9.250212318345406"><ele>124.16666666666667</ele><time>2026-03-29T11:49:22.998Z</time></trkpt><trkpt lat="39.296876605961465" lon="9.250130023172796"><ele>123.0</ele><time>2026-03-29T11:49:24.998Z</time></trkpt><trkpt lat="39.296819459265954" lon="9.250080541269176"><ele>123.0</ele><time>2026-03-29T11:49:25.998Z</time></trkpt><trkpt lat="39.296758281541074" lon="9.250032413376267"><ele>123.0</ele><time>2026-03-29T11:49:26.998Z</time></trkpt><trkpt lat="39.296699756443914" lon="9.249973506934854"><ele>123.0</ele><time>2026-03-29T11:49:27.998Z</time></trkpt><trkpt lat="39.296643779608516" lon="9.249900151712058"><ele>123.0</ele><time>2026-03-29T11:49:28.998Z</time></trkpt><trkpt lat="39.29657606297639" lon="9.249819049322872"><ele>123.0</ele><time>2026-03-29T11:49:29.998Z</time></trkpt><trkpt lat="39.29651188262236" lon="9.249728457639767"><ele>123.0</ele><time>2026-03-29T11:49:30.998Z</time></trkpt><trkpt lat="39.29645387411998" lon="9.249641555917863"><ele>123.0</ele><time>2026-03-29T11:49:31.998Z</time></trkpt><trkpt lat="39.29639802446753" lon="9.249542682784837"><ele>123.0</ele><time>2026-03-29T11:49:32.998Z</time></trkpt><trkpt lat="39.296353691816336" lon="9.249454015656623"><ele>123.0</ele><time>2026-03-29T11:49:33.998Z</time></trkpt><trkpt lat="39.29630809115653" lon="9.249359649533403"><ele>123.0</ele><time>2026-03-29T11:49:34.998Z</time></trkpt><trkpt lat="39.296265266636915" lon="9.249257753617481"><ele>123.0</ele><time>2026-03-29T11:49:35.997Z</time></trkpt><trkpt lat="39.29621935137461" lon="9.249165443201546"><ele>123.0</ele><time>2026-03-29T11:49:36.997Z</time></trkpt><trkpt lat="39.29616702314841" lon="9.24906244606754"><ele>123.60000000000001</ele><time>2026-03-29T11:49:37.997Z</time></trkpt><trkpt lat="39.29609645539384" lon="9.248921506498938"><ele>124.20000000000002</ele><time>2026-03-29T11:49:38.997Z</time></trkpt><trkpt lat="39.29603216848729" lon="9.248794348422848"><ele>124.8</ele><time>2026-03-29T11:49:39.997Z</time></trkpt><trkpt lat="39.29598043120434" lon="9.248695956864296"><ele>125.4</ele><time>2026-03-29T11:49:40.997Z</time></trkpt><trkpt lat="39.295919667870514" lon="9.248602973564626"><ele>126.0</ele><time>2026-03-29T11:49:41.997Z</time></trkpt><trkpt lat="39.29586202091294" lon="9.24850832223201"><ele>126.0</ele><time>2026-03-29T11:49:42.997Z</time></trkpt><trkpt lat="39.2958076661433" lon="9.248399034670285"><ele>126.0</ele><time>2026-03-29T11:49:43.997Z</time></trkpt><trkpt lat="39.295754186108624" lon="9.248287379984191"><ele>126.0</ele><time>2026-03-29T11:49:44.997Z</time></trkpt><trkpt lat="39.295696571352096" lon="9.248182234400833"><ele>126.0</ele><time>2026-03-29T11:49:45.997Z</time></trkpt><trkpt lat="39.29562649872397" lon="9.248092792965565"><ele>126.0</ele><time>2026-03-29T11:49:46.997Z</time></trkpt><trkpt lat="39.29553513734004" lon="9.248003748220489"><ele>126.0</ele><time>2026-03-29T11:49:47.997Z</time></trkpt><trkpt lat="39.295424614680975" lon="9.24790060020672"><ele>126.0</ele><time>2026-03-29T11:49:48.997Z</time></trkpt><trkpt lat="39.29531282194931" lon="9.247776235062958"><ele>126.0</ele><time>2026-03-29T11:49:49.997Z</time></trkpt><trkpt lat="39.29520608340377" lon="9.247640332478303"><ele>126.0</ele><time>2026-03-29T11:49:50.997Z</time></trkpt><trkpt lat="39.29512444499991" lon="9.24752917906716"><ele>126.0</ele><time>2026-03-29T11:49:51.997Z</time></trkpt><trkpt lat="39.295059638828675" lon="9.247416903342835"><ele>126.0</ele><time>2026-03-29T11:49:52.997Z</time></trkpt><trkpt lat="39.29500859893506" lon="9.247287554060533"><ele>126.0</ele><time>2026-03-29T11:49:53.997Z</time></trkpt><trkpt lat="39.294948615329815" lon="9.2471421183746"><ele>126.0</ele><time>2026-03-29T11:49:55Z</time></trkpt><trkpt lat="39.29487754893128" lon="9.246969997547406"><ele>126.33333333333334</ele><time>2026-03-29T11:49:56Z</time></trkpt><trkpt lat="39.29479431768796" lon="9.246764145846392"><ele>126.66666666666667</ele><time>2026-03-29T11:49:57Z</time></trkpt><trkpt lat="39.294701265320214" lon="9.246512850714856"><ele>127.0</ele><time>2026-03-29T11:49:58Z</time></trkpt><trkpt lat="39.29459669751247" lon="9.246237466956606"><ele>129.0</ele><time>2026-03-29T11:49:59Z</time></trkpt><trkpt lat="39.294502094641416" lon="9.24597889351131"><ele>131.0</ele><time>2026-03-29T11:50:00Z</time></trkpt><trkpt lat="39.2944208407685" lon="9.245772105160068"><ele>133.0</ele><time>2026-03-29T11:50:01Z</time></trkpt><trkpt lat="39.294340717851306" lon="9.245589821352391"><ele>134.0</ele><time>2026-03-29T11:50:02Z</time></trkpt><trkpt lat="39.2942608991536" lon="9.245407878912184"><ele>135.0</ele><time>2026-03-29T11:50:03Z</time></trkpt><trkpt lat="39.294185808020586" lon="9.245241740472707"><ele>136.0</ele><time>2026-03-29T11:50:04Z</time></trkpt><trkpt lat="39.29412954007305" lon="9.245093234749229"><ele>137.0</ele><time>2026-03-29T11:50:05Z</time></trkpt><trkpt lat="39.29408665697715" lon="9.244960448526093"><ele>137.0</ele><time>2026-03-29T11:50:06Z</time></trkpt><trkpt lat="39.29406573779922" lon="9.24483631019099"><ele>137.0</ele><time>2026-03-29T11:50:07Z</time></trkpt><trkpt lat="39.2940595533772" lon="9.24469505977814"><ele>137.0</ele><time>2026-03-29T11:50:08Z</time></trkpt><trkpt lat="39.29405456831706" lon="9.244569465720897"><ele>137.0</ele><time>2026-03-29T11:50:09Z</time></trkpt><trkpt lat="39.29405390793698" lon="9.244471823715774"><ele>137.0</ele><time>2026-03-29T11:50:10Z</time></trkpt><trkpt lat="39.294050348064424" lon="9.244387610455384"><ele>137.0</ele><time>2026-03-29T11:50:11Z</time></trkpt><trkpt lat="39.29405921753254" lon="9.244257766505578"><ele>138.2</ele><time>2026-03-29T11:50:13Z</time></trkpt><trkpt lat="39.294054042325214" lon="9.244141193899559"><ele>139.39999999999998</ele><time>2026-03-29T11:50:15Z</time></trkpt><trkpt lat="39.29405659829145" lon="9.244038853826556"><ele>140.60000000000002</ele><time>2026-03-29T11:50:16Z</time></trkpt><trkpt lat="39.29405733347851" lon="9.243947041647179"><ele>141.8</ele><time>2026-03-29T11:50:17Z</time></trkpt><trkpt lat="39.29405588542847" lon="9.24383097097911"><ele>143.0</ele><time>2026-03-29T11:50:18Z</time></trkpt><trkpt lat="39.294059184184896" lon="9.243660913809787"><ele>143.6</ele><time>2026-03-29T11:50:19Z</time></trkpt><trkpt lat="39.29406439762081" lon="9.24347722587617"><ele>144.20000000000002</ele><time>2026-03-29T11:50:20Z</time></trkpt><trkpt lat="39.294082532412084" lon="9.24334510086374"><ele>144.8</ele><time>2026-03-29T11:50:21Z</time></trkpt><trkpt lat="39.29411796287599" lon="9.24325279338209"><ele>145.4</ele><time>2026-03-29T11:50:22Z</time></trkpt><trkpt lat="39.29415087560479" lon="9.24318043407483"><ele>146.0</ele><time>2026-03-29T11:50:23Z</time></trkpt><trkpt lat="39.29423387061668" lon="9.243091880065206"><ele>146.6</ele><time>2026-03-29T11:50:24.999Z</time></trkpt><trkpt lat="39.29426956351636" lon="9.242964234027077"><ele>147.2</ele><time>2026-03-29T11:50:26.999Z</time></trkpt><trkpt lat="39.29432893778123" lon="9.242829609294876"><ele>147.8</ele><time>2026-03-29T11:50:28.999Z</time></trkpt><trkpt lat="39.294379439448505" lon="9.242735017779447"><ele>148.4</ele><time>2026-03-29T11:50:30.999Z</time></trkpt><trkpt lat="39.29441010364699" lon="9.242652544818666"><ele>149.0</ele><time>2026-03-29T11:50:32.999Z</time></trkpt><trkpt lat="39.29437057355984" lon="9.242580986624777"><ele>149.0</ele><time>2026-03-29T11:50:37.999Z</time></trkpt><trkpt lat="39.2943073374232" lon="9.242633474483375"><ele>149.0</ele><time>2026-03-29T11:50:39.999Z</time></trkpt><trkpt lat="39.29436381630957" lon="9.242699865813355"><ele>149.0</ele><time>2026-03-29T11:50:42.999Z</time></trkpt><trkpt lat="39.294323928728154" lon="9.24286814123665"><ele>149.0</ele><time>2026-03-29T11:50:45.999Z</time></trkpt><trkpt lat="39.29425600725846" lon="9.2429781354879"><ele>149.0</ele><time>2026-03-29T11:50:46.999Z</time></trkpt><trkpt lat="39.29418488786644" lon="9.243107863124056"><ele>148.25</ele><time>2026-03-29T11:50:47.999Z</time></trkpt><trkpt lat="39.29412474475027" lon="9.243241304898635"><ele>147.5</ele><time>2026-03-29T11:50:48.999Z</time></trkpt><trkpt lat="39.29408155661833" lon="9.243364188220795"><ele>146.75</ele><time>2026-03-29T11:50:49.999Z</time></trkpt><trkpt lat="39.29404860731198" lon="9.243505079557085"><ele>146.0</ele><time>2026-03-29T11:50:50.999Z</time></trkpt><trkpt lat="39.294040406235375" lon="9.243671435020607"><ele>146.0</ele><time>2026-03-29T11:50:51.999Z</time></trkpt><trkpt lat="39.29404746142351" lon="9.243876464783634"><ele>146.0</ele><time>2026-03-29T11:50:52.999Z</time></trkpt><trkpt lat="39.29405247136967" lon="9.244104675496795"><ele>146.0</ele><time>2026-03-29T11:50:53.999Z</time></trkpt><trkpt lat="39.29404305685993" lon="9.24430686645603"><ele>145.4</ele><time>2026-03-29T11:50:54.999Z</time></trkpt><trkpt lat="39.29403465419252" lon="9.244449126375272"><ele>144.8</ele><time>2026-03-29T11:50:55.999Z</time></trkpt><trkpt lat="39.29404216770922" lon="9.24456751085119"><ele>144.20000000000002</ele><time>2026-03-29T11:50:56.999Z</time></trkpt><trkpt lat="39.29405480397166" lon="9.244712931506744"><ele>143.6</ele><time>2026-03-29T11:50:57.999Z</time></trkpt><trkpt lat="39.29406571199499" lon="9.244871231673628"><ele>143.0</ele><time>2026-03-29T11:50:58.999Z</time></trkpt><trkpt lat="39.29409013518664" lon="9.245015950969439"><ele>141.5</ele><time>2026-03-29T11:50:59.999Z</time></trkpt><trkpt lat="39.29412853439161" lon="9.24516548760675"><ele>140.0</ele><time>2026-03-29T11:51:00.999Z</time></trkpt><trkpt lat="39.29419337021268" lon="9.245324191612806"><ele>138.5</ele><time>2026-03-29T11:51:01.999Z</time></trkpt><trkpt lat="39.29427470323832" lon="9.245498752077257"><ele>137.0</ele><time>2026-03-29T11:51:02.998Z</time></trkpt><trkpt lat="39.294360244993385" lon="9.245696003743948"><ele>135.66666666666666</ele><time>2026-03-29T11:51:03.998Z</time></trkpt><trkpt lat="39.29444064135385" lon="9.245875934853855"><ele>134.33333333333334</ele><time>2026-03-29T11:51:04.998Z</time></trkpt><trkpt lat="39.29451099366083" lon="9.246046489007586"><ele>133.0</ele><time>2026-03-29T11:51:05.998Z</time></trkpt><trkpt lat="39.29457361751895" lon="9.24622854298391"><ele>133.0</ele><time>2026-03-29T11:51:06.998Z</time></trkpt><trkpt lat="39.29465095711989" lon="9.246444109610946"><ele>133.0</ele><time>2026-03-29T11:51:07.998Z</time></trkpt><trkpt lat="39.294725322002975" lon="9.246641610567282"><ele>133.0</ele><time>2026-03-29T11:51:08.998Z</time></trkpt><trkpt lat="39.294791819375" lon="9.246813634010847"><ele>132.5</ele><time>2026-03-29T11:51:09.998Z</time></trkpt><trkpt lat="39.294860141428614" lon="9.246976232125354"><ele>132.0</ele><time>2026-03-29T11:51:10.998Z</time></trkpt><trkpt lat="39.29492849326205" lon="9.24714064375001"><ele>131.5</ele><time>2026-03-29T11:51:11.998Z</time></trkpt><trkpt lat="39.29499160552558" lon="9.247288670776674"><ele>131.0</ele><time>2026-03-29T11:51:12.998Z</time></trkpt><trkpt lat="39.2950561518708" lon="9.247424397016008"><ele>129.75</ele><time>2026-03-29T11:51:13.998Z</time></trkpt><trkpt lat="39.295117688472054" lon="9.247538989240448"><ele>128.5</ele><time>2026-03-29T11:51:14.998Z</time></trkpt><trkpt lat="39.29519217511325" lon="9.247639995282453"><ele>127.25</ele><time>2026-03-29T11:51:15.998Z</time></trkpt><trkpt lat="39.295291203725355" lon="9.247753936226609"><ele>126.0</ele><time>2026-03-29T11:51:16.998Z</time></trkpt><trkpt lat="39.29538889711584" lon="9.247861785179952"><ele>126.0</ele><time>2026-03-29T11:51:17.998Z</time></trkpt><trkpt lat="39.29548212597261" lon="9.247962548292568"><ele>126.0</ele><time>2026-03-29T11:51:18.998Z</time></trkpt><trkpt lat="39.295564156963756" lon="9.24805356577493"><ele>126.0</ele><time>2026-03-29T11:51:19.998Z</time></trkpt><trkpt lat="39.2956364089465" lon="9.24813255785248"><ele>126.0</ele><time>2026-03-29T11:51:20.998Z</time></trkpt><trkpt lat="39.29570125126842" lon="9.24820055825979"><ele>126.0</ele><time>2026-03-29T11:51:21.998Z</time></trkpt><trkpt lat="39.29576167679754" lon="9.248300162935193"><ele>126.0</ele><time>2026-03-29T11:51:22.998Z</time></trkpt><trkpt lat="39.29581806407983" lon="9.2484257101471"><ele>126.0</ele><time>2026-03-29T11:51:23.998Z</time></trkpt><trkpt lat="39.295879722066154" lon="9.248556266771743"><ele>126.0</ele><time>2026-03-29T11:51:24.998Z</time></trkpt><trkpt lat="39.29595436014682" lon="9.248678291185273"><ele>126.0</ele><time>2026-03-29T11:51:25.998Z</time></trkpt><trkpt lat="39.296033279564064" lon="9.248815567724272"><ele>125.25</ele><time>2026-03-29T11:51:26.998Z</time></trkpt><trkpt lat="39.29611730353403" lon="9.248963366936824"><ele>124.5</ele><time>2026-03-29T11:51:27.998Z</time></trkpt><trkpt lat="39.29619816950519" lon="9.249124061174633"><ele>123.75</ele><time>2026-03-29T11:51:28.998Z</time></trkpt><trkpt lat="39.2962734652632" lon="9.249273801432308"><ele>123.0</ele><time>2026-03-29T11:51:29.998Z</time></trkpt><trkpt lat="39.29633682723975" lon="9.249409265405262"><ele>123.0</ele><time>2026-03-29T11:51:30.998Z</time></trkpt><trkpt lat="39.29639879968127" lon="9.249534053907794"><ele>123.00000000000001</ele><time>2026-03-29T11:51:31.998Z</time></trkpt><trkpt lat="39.29646308983038" lon="9.249647121514451"><ele>123.00000000000001</ele><time>2026-03-29T11:51:32.998Z</time></trkpt><trkpt lat="39.296534157316415" lon="9.249744333137087"><ele>123.0</ele><time>2026-03-29T11:51:33.998Z</time></trkpt><trkpt lat="39.29659761943032" lon="9.249840107624738"><ele>123.0</ele><time>2026-03-29T11:51:34.998Z</time></trkpt><trkpt lat="39.296670624922704" lon="9.249914778415658"><ele>123.0</ele><time>2026-03-29T11:51:35.998Z</time></trkpt><trkpt lat="39.29674252896824" lon="9.249976771108054"><ele>123.0</ele><time>2026-03-29T11:51:36.998Z</time></trkpt><trkpt lat="39.29680900421064" lon="9.250036175878181"><ele>123.0</ele><time>2026-03-29T11:51:37.998Z</time></trkpt><trkpt lat="39.29687454325878" lon="9.250091708134807"><ele>123.0</ele><time>2026-03-29T11:51:38.998Z</time></trkpt><trkpt lat="39.29693712785491" lon="9.250133554447586"><ele>123.0</ele><time>2026-03-29T11:51:39.998Z</time></trkpt><trkpt lat="39.296981736796404" lon="9.250193346935415"><ele>123.0</ele><time>2026-03-29T11:51:40.997Z</time></trkpt><trkpt lat="39.29701337387904" lon="9.250275237027596"><ele>123.0</ele><time>2026-03-29T11:51:42.997Z</time></trkpt><trkpt lat="39.29710786246856" lon="9.250304077216585"><ele>123.00000000000001</ele><time>2026-03-29T11:51:46.997Z</time></trkpt><trkpt lat="39.29722886049606" lon="9.250230039886114"><ele>123.00000000000001</ele><time>2026-03-29T11:51:48.997Z</time></trkpt><trkpt lat="39.29735216203172" lon="9.250188429084064"><ele>123.0</ele><time>2026-03-29T11:51:50.997Z</time></trkpt><trkpt lat="39.29741887323483" lon="9.250168210999902"><ele>123.0</ele><time>2026-03-29T11:51:51.997Z</time></trkpt><trkpt lat="39.29749848812786" lon="9.250137248466674"><ele>123.60000000000001</ele><time>2026-03-29T11:51:52.997Z</time></trkpt><trkpt lat="39.29759167817343" lon="9.25010518483637"><ele>124.20000000000002</ele><time>2026-03-29T11:51:53.997Z</time></trkpt><trkpt lat="39.29769053500548" lon="9.250081306252216"><ele>124.8</ele><time>2026-03-29T11:51:54.997Z</time></trkpt><trkpt lat="39.29780957328141" lon="9.250055420144292"><ele>125.4</ele><time>2026-03-29T11:51:55.997Z</time></trkpt><trkpt lat="39.29792209869967" lon="9.250028377563694"><ele>126.0</ele><time>2026-03-29T11:51:56.997Z</time></trkpt><trkpt lat="39.29804876081244" lon="9.249987818302982"><ele>127.0</ele><time>2026-03-29T11:51:57.997Z</time></trkpt><trkpt lat="39.29817339195474" lon="9.249930802025194"><ele>128.0</ele><time>2026-03-29T11:51:58.997Z</time></trkpt><trkpt lat="39.29829603984102" lon="9.249867393514007"><ele>129.0</ele><time>2026-03-29T11:51:59.997Z</time></trkpt><trkpt lat="39.29842955181262" lon="9.249812280475235"><ele>130.0</ele><time>2026-03-29T11:52:01Z</time></trkpt><trkpt lat="39.29853602325997" lon="9.249771955035685"><ele>130.0</ele><time>2026-03-29T11:52:02Z</time></trkpt><trkpt lat="39.298615536785846" lon="9.249763861641995"><ele>130.0</ele><time>2026-03-29T11:52:03Z</time></trkpt><trkpt lat="39.29868359969185" lon="9.249784769892221"><ele>130.0</ele><time>2026-03-29T11:52:04Z</time></trkpt><trkpt lat="39.29876544874391" lon="9.249794900696969"><ele>130.0</ele><time>2026-03-29T11:52:05Z</time></trkpt><trkpt lat="39.2988665512072" lon="9.249775597604188"><ele>130.0</ele><time>2026-03-29T11:52:06Z</time></trkpt><trkpt lat="39.298983637384616" lon="9.249732436317665"><ele>130.33333333333334</ele><time>2026-03-29T11:52:07Z</time></trkpt><trkpt lat="39.29910666852409" lon="9.249689498327186"><ele>130.66666666666666</ele><time>2026-03-29T11:52:08Z</time></trkpt><trkpt lat="39.29925431033838" lon="9.24964993147627"><ele>131.0</ele><time>2026-03-29T11:52:09Z</time></trkpt><trkpt lat="39.299435242183854" lon="9.249603893167695"><ele>131.0</ele><time>2026-03-29T11:52:10Z</time></trkpt><trkpt lat="39.29962349063572" lon="9.249553114930835"><ele>131.0</ele><time>2026-03-29T11:52:11Z</time></trkpt><trkpt lat="39.299776717307374" lon="9.249516918858342"><ele>131.0</ele><time>2026-03-29T11:52:12Z</time></trkpt><trkpt lat="39.299892021329946" lon="9.249488398556466"><ele>131.2</ele><time>2026-03-29T11:52:13Z</time></trkpt><trkpt lat="39.29997121381212" lon="9.24944848519876"><ele>131.39999999999998</ele><time>2026-03-29T11:52:14Z</time></trkpt><trkpt lat="39.30005393526747" lon="9.249354883961637"><ele>131.6</ele><time>2026-03-29T11:52:16Z</time></trkpt><trkpt lat="39.30014303083815" lon="9.249269672389165"><ele>131.79999999999998</ele><time>2026-03-29T11:52:18Z</time></trkpt><trkpt lat="39.300202256512314" lon="9.249217902354433"><ele>132.0</ele><time>2026-03-29T11:52:19Z</time></trkpt><trkpt lat="39.300277094009644" lon="9.249179593100147"><ele>132.0</ele><time>2026-03-29T11:52:20Z</time></trkpt><trkpt lat="39.30035828907295" lon="9.249164311492606"><ele>132.0</ele><time>2026-03-29T11:52:21Z</time></trkpt><trkpt lat="39.300441385069426" lon="9.249148344524324"><ele>132.0</ele><time>2026-03-29T11:52:22Z</time></trkpt><trkpt lat="39.300516361895994" lon="9.249129228505462"><ele>132.0</ele><time>2026-03-29T11:52:23Z</time></trkpt><trkpt lat="39.300591058289484" lon="9.249101873411568"><ele>132.0</ele><time>2026-03-29T11:52:24Z</time></trkpt><trkpt lat="39.30067348625048" lon="9.249078560099356"><ele>132.0</ele><time>2026-03-29T11:52:25Z</time></trkpt><trkpt lat="39.300763244423116" lon="9.2490344549673"><ele>133.5</ele><time>2026-03-29T11:52:26Z</time></trkpt><trkpt lat="39.300867598522615" lon="9.248967490773051"><ele>135.0</ele><time>2026-03-29T11:52:27Z</time></trkpt><trkpt lat="39.3009745627397" lon="9.248890540642547"><ele>136.5</ele><time>2026-03-29T11:52:27.999Z</time></trkpt><trkpt lat="39.30108308820193" lon="9.248803619341533"><ele>138.0</ele><time>2026-03-29T11:52:28.999Z</time></trkpt><trkpt lat="39.30120182795615" lon="9.248693986275486"><ele>138.75</ele><time>2026-03-29T11:52:29.999Z</time></trkpt><trkpt lat="39.30133778739289" lon="9.248579809586117"><ele>139.5</ele><time>2026-03-29T11:52:30.999Z</time></trkpt><trkpt lat="39.301462848411106" lon="9.248478817982772"><ele>140.25</ele><time>2026-03-29T11:52:31.999Z</time></trkpt><trkpt lat="39.30156963226169" lon="9.24839822370245"><ele>141.0</ele><time>2026-03-29T11:52:32.999Z</time></trkpt><trkpt lat="39.301692387913285" lon="9.248326347963237"><ele>141.0</ele><time>2026-03-29T11:52:34.999Z</time></trkpt><trkpt lat="39.30165940134163" lon="9.248250897768727"><ele>141.0</ele><time>2026-03-29T11:52:37.999Z</time></trkpt><trkpt lat="39.30165608537756" lon="9.248165644972191"><ele>141.0</ele><time>2026-03-29T11:52:39.999Z</time></trkpt><trkpt lat="39.30182439672839" lon="9.24802557344399"><ele>141.0</ele><time>2026-03-29T11:52:43.999Z</time></trkpt><trkpt lat="39.30191149234963" lon="9.24792501446178"><ele>142.25</ele><time>2026-03-29T11:52:44.999Z</time></trkpt><trkpt lat="39.30201243972234" lon="9.247815817505359"><ele>143.5</ele><time>2026-03-29T11:52:45.999Z</time></trkpt><trkpt lat="39.30210474961797" lon="9.247708248670861"><ele>144.75</ele><time>2026-03-29T11:52:46.999Z</time></trkpt><trkpt lat="39.302176198442346" lon="9.247611525059744"><ele>146.0</ele><time>2026-03-29T11:52:47.999Z</time></trkpt><trkpt lat="39.3022284234109" lon="9.247511165974137"><ele>146.2</ele><time>2026-03-29T11:52:48.999Z</time></trkpt><trkpt lat="39.30226991218205" lon="9.247401455074797"><ele>146.39999999999998</ele><time>2026-03-29T11:52:49.999Z</time></trkpt><trkpt lat="39.302299803932605" lon="9.247294433465349"><ele>146.6</ele><time>2026-03-29T11:52:50.999Z</time></trkpt><trkpt lat="39.30233363785905" lon="9.247213907988401"><ele>146.79999999999998</ele><time>2026-03-29T11:52:51.999Z</time></trkpt><trkpt lat="39.30235491483584" lon="9.247043664502266"><ele>147.0</ele><time>2026-03-29T11:52:53.999Z</time></trkpt><trkpt lat="39.30235572020297" lon="9.246939205749733"><ele>147.0</ele><time>2026-03-29T11:52:54.999Z</time></trkpt><trkpt lat="39.30235481883441" lon="9.246835130196319"><ele>147.0</ele><time>2026-03-29T11:52:55.999Z</time></trkpt><trkpt lat="39.30236061134795" lon="9.246741494197861"><ele>147.0</ele><time>2026-03-29T11:52:56.999Z</time></trkpt><trkpt lat="39.30236519726025" lon="9.246648511696476"><ele>147.0</ele><time>2026-03-29T11:52:57.999Z</time></trkpt><trkpt lat="39.302374627987284" lon="9.246566048111877"><ele>147.0</ele><time>2026-03-29T11:52:58.999Z</time></trkpt><trkpt lat="39.30241452421657" lon="9.24648899435456"><ele>147.0</ele><time>2026-03-29T11:53:00.999Z</time></trkpt><trkpt lat="39.302462402129855" lon="9.246336025792521"><ele>147.79999999999998</ele><time>2026-03-29T11:53:02.999Z</time></trkpt><trkpt lat="39.30249740734661" lon="9.246254024150646"><ele>148.6</ele><time>2026-03-29T11:53:03.999Z</time></trkpt><trkpt lat="39.302550967958844" lon="9.246145542694189"><ele>149.39999999999998</ele><time>2026-03-29T11:53:04.999Z</time></trkpt><trkpt lat="39.302603509108906" lon="9.24602539381091"><ele>150.2</ele><time>2026-03-29T11:53:05.999Z</time></trkpt><trkpt lat="39.302639513369535" lon="9.245925194850376"><ele>151.0</ele><time>2026-03-29T11:53:06.998Z</time></trkpt><trkpt lat="39.30268393119611" lon="9.245830037074583"><ele>151.0</ele><time>2026-03-29T11:53:07.998Z</time></trkpt><trkpt lat="39.3027323966677" lon="9.24574160929559"><ele>151.0</ele><time>2026-03-29T11:53:08.998Z</time></trkpt><trkpt lat="39.30279079486594" lon="9.2456434962006"><ele>151.0</ele><time>2026-03-29T11:53:09.998Z</time></trkpt><trkpt lat="39.30283249522753" lon="9.245554630380218"><ele>151.0</ele><time>2026-03-29T11:53:10.998Z</time></trkpt><trkpt lat="39.30287632682134" lon="9.245491736631253"><ele>151.0</ele><time>2026-03-29T11:53:11.998Z</time></trkpt><trkpt lat="39.3028954748416" lon="9.24539571986376"><ele>151.0</ele><time>2026-03-29T11:53:14.998Z</time></trkpt><trkpt lat="39.302836837066174" lon="9.245358052377389"><ele>151.8</ele><time>2026-03-29T11:53:16.998Z</time></trkpt><trkpt lat="39.302760363755894" lon="9.245322873095251"><ele>152.6</ele><time>2026-03-29T11:53:17.998Z</time></trkpt><trkpt lat="39.30270766382903" lon="9.24527548649776"><ele>153.4</ele><time>2026-03-29T11:53:18.998Z</time></trkpt><trkpt lat="39.30268657826758" lon="9.245130234200936"><ele>154.2</ele><time>2026-03-29T11:53:20.998Z</time></trkpt><trkpt lat="39.302643603532196" lon="9.245015254340665"><ele>155.0</ele><time>2026-03-29T11:53:21.998Z</time></trkpt><trkpt lat="39.30259148401345" lon="9.244912918294185"><ele>155.0</ele><time>2026-03-29T11:53:22.998Z</time></trkpt><trkpt lat="39.30255939976882" lon="9.244812201295975"><ele>155.0</ele><time>2026-03-29T11:53:23.998Z</time></trkpt><trkpt lat="39.30250857956677" lon="9.244674037395066"><ele>155.0</ele><time>2026-03-29T11:53:25.998Z</time></trkpt><trkpt lat="39.30249341099957" lon="9.2445838442786"><ele>155.0</ele><time>2026-03-29T11:53:26.998Z</time></trkpt><trkpt lat="39.30245633067083" lon="9.244497008138792"><ele>155.0</ele><time>2026-03-29T11:53:27.998Z</time></trkpt><trkpt lat="39.30239060813958" lon="9.244398601856314"><ele>156.4</ele><time>2026-03-29T11:53:28.998Z</time></trkpt><trkpt lat="39.302311957894624" lon="9.24428101337611"><ele>157.8</ele><time>2026-03-29T11:53:29.998Z</time></trkpt><trkpt lat="39.30223166018596" lon="9.244164481804049"><ele>159.2</ele><time>2026-03-29T11:53:30.998Z</time></trkpt><trkpt lat="39.302167676821874" lon="9.244096312217728"><ele>160.6</ele><time>2026-03-29T11:53:31.998Z</time></trkpt><trkpt lat="39.30210159292417" lon="9.243958488181182"><ele>162.0</ele><time>2026-03-29T11:53:33.998Z</time></trkpt><trkpt lat="39.30205875763094" lon="9.243864373612487"><ele>164.2</ele><time>2026-03-29T11:53:34.998Z</time></trkpt><trkpt lat="39.30200588111849" lon="9.243778953528219"><ele>166.39999999999998</ele><time>2026-03-29T11:53:35.998Z</time></trkpt><trkpt lat="39.30195060134599" lon="9.2436778554184"><ele>168.60000000000002</ele><time>2026-03-29T11:53:36.998Z</time></trkpt><trkpt lat="39.301892704448186" lon="9.243571040102037"><ele>170.8</ele><time>2026-03-29T11:53:37.998Z</time></trkpt><trkpt lat="39.30183342834935" lon="9.243450672258755"><ele>173.0</ele><time>2026-03-29T11:53:38.998Z</time></trkpt><trkpt lat="39.301787897934425" lon="9.243342988679709"><ele>173.0</ele><time>2026-03-29T11:53:39.998Z</time></trkpt><trkpt lat="39.30173993600866" lon="9.243288633700796"><ele>173.0</ele><time>2026-03-29T11:53:40.998Z</time></trkpt><trkpt lat="39.30168298212746" lon="9.243238538029445"><ele>173.0</ele><time>2026-03-29T11:53:41.998Z</time></trkpt><trkpt lat="39.301616359899434" lon="9.243201186463788"><ele>173.0</ele><time>2026-03-29T11:53:42.998Z</time></trkpt><trkpt lat="39.30151591963893" lon="9.243174351176492"><ele>173.0</ele><time>2026-03-29T11:53:44.998Z</time></trkpt><trkpt lat="39.30143622768134" lon="9.243271926470376"><ele>173.0</ele><time>2026-03-29T11:53:46.997Z</time></trkpt><trkpt lat="39.30135379330068" lon="9.243306743781513"><ele>173.33333333333331</ele><time>2026-03-29T11:53:48.997Z</time></trkpt><trkpt lat="39.301301812222476" lon="9.243213717108764"><ele>173.66666666666666</ele><time>2026-03-29T11:53:50.997Z</time></trkpt><trkpt lat="39.30125481509398" lon="9.243128020527283"><ele>174.0</ele><time>2026-03-29T11:53:51.997Z</time></trkpt><trkpt lat="39.3011936486893" lon="9.24305065571971"><ele>174.33333333333334</ele><time>2026-03-29T11:53:52.997Z</time></trkpt><trkpt lat="39.30113669661865" lon="9.242969933546686"><ele>174.66666666666669</ele><time>2026-03-29T11:53:53.997Z</time></trkpt><trkpt lat="39.30108758309656" lon="9.24289659561995"><ele>175.0</ele><time>2026-03-29T11:53:54.997Z</time></trkpt><trkpt lat="39.30099139616408" lon="9.242815510699614"><ele>175.66666666666669</ele><time>2026-03-29T11:53:56.997Z</time></trkpt><trkpt lat="39.30088146657876" lon="9.242853670581761"><ele>176.33333333333334</ele><time>2026-03-29T11:53:58.997Z</time></trkpt><trkpt lat="39.3008315755222" lon="9.242906982454846"><ele>177.0</ele><time>2026-03-29T11:53:59.997Z</time></trkpt><trkpt lat="39.30072857948965" lon="9.24295787915292"><ele>177.66666666666666</ele><time>2026-03-29T11:54:01.997Z</time></trkpt><trkpt lat="39.30066876954915" lon="9.242926636115135"><ele>178.33333333333331</ele><time>2026-03-29T11:54:02.997Z</time></trkpt><trkpt lat="39.300619166132826" lon="9.242871660776725"><ele>179.0</ele><time>2026-03-29T11:54:03.997Z</time></trkpt><trkpt lat="39.3005704189838" lon="9.24277775794299"><ele>179.0</ele><time>2026-03-29T11:54:04.997Z</time></trkpt><trkpt lat="39.300524199453655" lon="9.24266916528015"><ele>179.0</ele><time>2026-03-29T11:54:05.997Z</time></trkpt><trkpt lat="39.3004771670171" lon="9.242516725710788"><ele>179.0</ele><time>2026-03-29T11:54:07Z</time></trkpt><trkpt lat="39.300408144425425" lon="9.242337906529752"><ele>179.0</ele><time>2026-03-29T11:54:08Z</time></trkpt><trkpt lat="39.30034950665589" lon="9.242199556565456"><ele>179.66666666666666</ele><time>2026-03-29T11:54:09Z</time></trkpt><trkpt lat="39.30030718464843" lon="9.242113009094407"><ele>180.33333333333331</ele><time>2026-03-29T11:54:10Z</time></trkpt><trkpt lat="39.3002040279862" lon="9.242071198715806"><ele>181.0</ele><time>2026-03-29T11:54:12Z</time></trkpt><trkpt lat="39.30013503350725" lon="9.242093354128947"><ele>181.66666666666666</ele><time>2026-03-29T11:54:13Z</time></trkpt><trkpt lat="39.30006600218739" lon="9.242127952221576"><ele>182.33333333333334</ele><time>2026-03-29T11:54:14Z</time></trkpt><trkpt lat="39.299997135949035" lon="9.242113134433797"><ele>183.0</ele><time>2026-03-29T11:54:15Z</time></trkpt><trkpt lat="39.299920531508825" lon="9.242039575745883"><ele>183.0</ele><time>2026-03-29T11:54:17Z</time></trkpt><trkpt lat="39.29992350736706" lon="9.24191801797813"><ele>183.0</ele><time>2026-03-29T11:54:19Z</time></trkpt><trkpt lat="39.299946917219266" lon="9.241823539862363"><ele>183.0</ele><time>2026-03-29T11:54:20Z</time></trkpt><trkpt lat="39.29998899082504" lon="9.241709474418602"><ele>183.0</ele><time>2026-03-29T11:54:21Z</time></trkpt><trkpt lat="39.300053118992665" lon="9.241591501654014"><ele>183.0</ele><time>2026-03-29T11:54:22Z</time></trkpt><trkpt lat="39.30012146475468" lon="9.241477079822717"><ele>182.33333333333334</ele><time>2026-03-29T11:54:23Z</time></trkpt><trkpt lat="39.30017280843571" lon="9.241384515779263"><ele>181.66666666666666</ele><time>2026-03-29T11:54:24Z</time></trkpt><trkpt lat="39.300193145581716" lon="9.241292649710626"><ele>181.0</ele><time>2026-03-29T11:54:25Z</time></trkpt><trkpt lat="39.30019269738797" lon="9.241195611528417"><ele>180.33333333333331</ele><time>2026-03-29T11:54:26Z</time></trkpt><trkpt lat="39.300256160011024" lon="9.24106796284731"><ele>179.66666666666666</ele><time>2026-03-29T11:54:28Z</time></trkpt><trkpt lat="39.30031530506627" lon="9.241025528703458"><ele>179.0</ele><time>2026-03-29T11:54:29Z</time></trkpt><trkpt lat="39.30042431033343" lon="9.240989683488195"><ele>179.0</ele><time>2026-03-29T11:54:30Z</time></trkpt><trkpt lat="39.30051094175464" lon="9.240921425253187"><ele>179.0</ele><time>2026-03-29T11:54:31Z</time></trkpt><trkpt lat="39.30062637904444" lon="9.240788107230538"><ele>179.0</ele><time>2026-03-29T11:54:32Z</time></trkpt><trkpt lat="39.30075463315424" lon="9.240672167486801"><ele>179.0</ele><time>2026-03-29T11:54:33Z</time></trkpt><trkpt lat="39.30090279086711" lon="9.240572705286565"><ele>181.33333333333331</ele><time>2026-03-29T11:54:34Z</time></trkpt><trkpt lat="39.301021751453774" lon="9.240470881489314"><ele>183.66666666666666</ele><time>2026-03-29T11:54:35Z</time></trkpt><trkpt lat="39.30113595719745" lon="9.240325778346245"><ele>186.0</ele><time>2026-03-29T11:54:35.999Z</time></trkpt><trkpt lat="39.301257590929055" lon="9.240159306191194"><ele>186.0</ele><time>2026-03-29T11:54:36.999Z</time></trkpt><trkpt lat="39.30135469262867" lon="9.24003009669907"><ele>186.0</ele><time>2026-03-29T11:54:37.999Z</time></trkpt><trkpt lat="39.30143815401585" lon="9.239939312884937"><ele>186.0</ele><time>2026-03-29T11:54:38.999Z</time></trkpt><trkpt lat="39.301513656587545" lon="9.239891489730006"><ele>186.0</ele><time>2026-03-29T11:54:39.999Z</time></trkpt><trkpt lat="39.30161828542615" lon="9.239845960822628"><ele>186.0</ele><time>2026-03-29T11:54:40.999Z</time></trkpt><trkpt lat="39.30174663701064" lon="9.239782666101373"><ele>189.33333333333331</ele><time>2026-03-29T11:54:41.999Z</time></trkpt><trkpt lat="39.30189400152902" lon="9.239698763503918"><ele>192.66666666666666</ele><time>2026-03-29T11:54:42.999Z</time></trkpt><trkpt lat="39.30206951940626" lon="9.239600152962621"><ele>196.0</ele><time>2026-03-29T11:54:43.999Z</time></trkpt><trkpt lat="39.30224127995357" lon="9.239509772475166"><ele>196.8</ele><time>2026-03-29T11:54:44.999Z</time></trkpt><trkpt lat="39.30238131184056" lon="9.239430327208876"><ele>197.60000000000002</ele><time>2026-03-29T11:54:45.999Z</time></trkpt><trkpt lat="39.30250002159924" lon="9.23936518630212"><ele>198.4</ele><time>2026-03-29T11:54:46.999Z</time></trkpt><trkpt lat="39.302587153910956" lon="9.239323415857815"><ele>199.2</ele><time>2026-03-29T11:54:47.999Z</time></trkpt><trkpt lat="39.30264238935741" lon="9.23927922521207"><ele>200.0</ele><time>2026-03-29T11:54:48.999Z</time></trkpt><trkpt lat="39.302665099237394" lon="9.239107484984846"><ele>200.0</ele><time>2026-03-29T11:54:50.999Z</time></trkpt><trkpt lat="39.302639298862395" lon="9.238994528005879"><ele>200.0</ele><time>2026-03-29T11:54:51.999Z</time></trkpt><trkpt lat="39.302604029969785" lon="9.238887043787985"><ele>200.0</ele><time>2026-03-29T11:54:52.999Z</time></trkpt><trkpt lat="39.30259250678448" lon="9.238806741243366"><ele>200.0</ele><time>2026-03-29T11:54:53.999Z</time></trkpt><trkpt lat="39.302662273487456" lon="9.238742475715332"><ele>200.0</ele><time>2026-03-29T11:54:55.999Z</time></trkpt><trkpt lat="39.30280041155977" lon="9.238652657508059"><ele>200.0</ele><time>2026-03-29T11:54:57.999Z</time></trkpt><trkpt lat="39.30290770714557" lon="9.23857509241161"><ele>200.0</ele><time>2026-03-29T11:54:58.999Z</time></trkpt><trkpt lat="39.30304244091216" lon="9.23847582081303"><ele>200.0</ele><time>2026-03-29T11:54:59.999Z</time></trkpt><trkpt lat="39.30319840964368" lon="9.238365796013053"><ele>200.33333333333334</ele><time>2026-03-29T11:55:00.999Z</time></trkpt><trkpt lat="39.30337242849751" lon="9.238235182948404"><ele>200.66666666666669</ele><time>2026-03-29T11:55:01.999Z</time></trkpt><trkpt lat="39.303540320165034" lon="9.238110461788311"><ele>201.0</ele><time>2026-03-29T11:55:02.999Z</time></trkpt><trkpt lat="39.303680964022355" lon="9.23801206256025"><ele>201.25</ele><time>2026-03-29T11:55:03.999Z</time></trkpt><trkpt lat="39.30381515189426" lon="9.23793691115572"><ele>201.5</ele><time>2026-03-29T11:55:04.999Z</time></trkpt><trkpt lat="39.30394714908247" lon="9.237864734715856"><ele>201.75</ele><time>2026-03-29T11:55:05.999Z</time></trkpt><trkpt lat="39.304072374522164" lon="9.237799983088582"><ele>202.0</ele><time>2026-03-29T11:55:06.999Z</time></trkpt><trkpt lat="39.30419472815732" lon="9.237758587451612"><ele>202.0</ele><time>2026-03-29T11:55:07.999Z</time></trkpt><trkpt lat="39.30430765642165" lon="9.237709908514104"><ele>202.0</ele><time>2026-03-29T11:55:08.999Z</time></trkpt><trkpt lat="39.30442012252833" lon="9.237630083664243"><ele>202.0</ele><time>2026-03-29T11:55:09.999Z</time></trkpt><trkpt lat="39.30453953969593" lon="9.237551221131353"><ele>202.0</ele><time>2026-03-29T11:55:10.999Z</time></trkpt><trkpt lat="39.30464367954102" lon="9.237482951737888"><ele>202.0</ele><time>2026-03-29T11:55:11.999Z</time></trkpt><trkpt lat="39.30473284186594" lon="9.237421177346203"><ele>202.0</ele><time>2026-03-29T11:55:12.999Z</time></trkpt><trkpt lat="39.3047945950544" lon="9.237372735798848"><ele>202.0</ele><time>2026-03-29T11:55:13.999Z</time></trkpt><trkpt lat="39.30485878249407" lon="9.237209216131383"><ele>202.0</ele><time>2026-03-29T11:55:15.998Z</time></trkpt><trkpt lat="39.30489545837963" lon="9.23711698062783"><ele>202.0</ele><time>2026-03-29T11:55:16.998Z</time></trkpt><trkpt lat="39.30497922811997" lon="9.237059611505527"><ele>201.8</ele><time>2026-03-29T11:55:17.998Z</time></trkpt><trkpt lat="39.30507155633286" lon="9.237002467264958"><ele>201.6</ele><time>2026-03-29T11:55:18.998Z</time></trkpt><trkpt lat="39.30516310760034" lon="9.23693650262516"><ele>201.4</ele><time>2026-03-29T11:55:19.998Z</time></trkpt><trkpt lat="39.30527306864856" lon="9.236887639131966"><ele>201.20000000000002</ele><time>2026-03-29T11:55:20.998Z</time></trkpt><trkpt lat="39.30536254931897" lon="9.236841791334069"><ele>201.0</ele><time>2026-03-29T11:55:21.998Z</time></trkpt><trkpt lat="39.305457230416934" lon="9.236815854521318"><ele>201.0</ele><time>2026-03-29T11:55:22.998Z</time></trkpt><trkpt lat="39.30554741563179" lon="9.236791285426937"><ele>201.0</ele><time>2026-03-29T11:55:23.998Z</time></trkpt><trkpt lat="39.30562245065881" lon="9.2367306492548"><ele>201.0</ele><time>2026-03-29T11:55:24.998Z</time></trkpt><trkpt lat="39.305672572260285" lon="9.2366431658966"><ele>201.0</ele><time>2026-03-29T11:55:25.998Z</time></trkpt><trkpt lat="39.305713161968086" lon="9.236553325816164"><ele>201.0</ele><time>2026-03-29T11:55:26.998Z</time></trkpt><trkpt lat="39.305766870206895" lon="9.23648809131775"><ele>201.0</ele><time>2026-03-29T11:55:27.998Z</time></trkpt><trkpt lat="39.305843262880316" lon="9.236455684178019"><ele>199.8</ele><time>2026-03-29T11:55:28.998Z</time></trkpt><trkpt lat="39.30594144184037" lon="9.236449978937271"><ele>198.60000000000002</ele><time>2026-03-29T11:55:29.998Z</time></trkpt><trkpt lat="39.306044599498094" lon="9.23643114270165"><ele>197.4</ele><time>2026-03-29T11:55:30.998Z</time></trkpt><trkpt lat="39.30613303585845" lon="9.236380309942579"><ele>196.2</ele><time>2026-03-29T11:55:31.998Z</time></trkpt><trkpt lat="39.30621731796718" lon="9.23632873465798"><ele>195.0</ele><time>2026-03-29T11:55:32.998Z</time></trkpt><trkpt lat="39.30630576916998" lon="9.236295678652713"><ele>195.0</ele><time>2026-03-29T11:55:33.998Z</time></trkpt><trkpt lat="39.30639134537312" lon="9.236268590939561"><ele>195.0</ele><time>2026-03-29T11:55:34.998Z</time></trkpt><trkpt lat="39.30647461517816" lon="9.236239257078386"><ele>195.0</ele><time>2026-03-29T11:55:35.998Z</time></trkpt><trkpt lat="39.30654815273385" lon="9.236185592711768"><ele>195.0</ele><time>2026-03-29T11:55:36.998Z</time></trkpt><trkpt lat="39.30660019590188" lon="9.236091541786054"><ele>195.0</ele><time>2026-03-29T11:55:37.998Z</time></trkpt><trkpt lat="39.30663486572719" lon="9.235993975626611"><ele>195.0</ele><time>2026-03-29T11:55:38.998Z</time></trkpt><trkpt lat="39.30667150657374" lon="9.235925444338699"><ele>194.0</ele><time>2026-03-29T11:55:39.998Z</time></trkpt><trkpt lat="39.30673055932457" lon="9.23589020569939"><ele>193.0</ele><time>2026-03-29T11:55:40.998Z</time></trkpt><trkpt lat="39.306796807990956" lon="9.235854324971509"><ele>192.0</ele><time>2026-03-29T11:55:41.998Z</time></trkpt><trkpt lat="39.30685715338127" lon="9.235784633202126"><ele>191.0</ele><time>2026-03-29T11:55:42.998Z</time></trkpt><trkpt lat="39.306917175309074" lon="9.235706800883289"><ele>190.0</ele><time>2026-03-29T11:55:43.998Z</time></trkpt><trkpt lat="39.306978985616375" lon="9.235648181131685"><ele>189.0</ele><time>2026-03-29T11:55:44.998Z</time></trkpt><trkpt lat="39.30704116128236" lon="9.235581567220038"><ele>187.71428571428572</ele><time>2026-03-29T11:55:45.998Z</time></trkpt><trkpt lat="39.30709247715497" lon="9.235507746573832"><ele>186.42857142857144</ele><time>2026-03-29T11:55:46.998Z</time></trkpt><trkpt lat="39.3071185995452" lon="9.23543210877306"><ele>185.14285714285714</ele><time>2026-03-29T11:55:47.998Z</time></trkpt><trkpt lat="39.307152053306865" lon="9.235353942558133"><ele>183.85714285714286</ele><time>2026-03-29T11:55:48.998Z</time></trkpt><trkpt lat="39.30720267880751" lon="9.235283035736883"><ele>182.57142857142858</ele><time>2026-03-29T11:55:49.998Z</time></trkpt><trkpt lat="39.307243671820764" lon="9.235200247158987"><ele>181.28571428571428</ele><time>2026-03-29T11:55:50.998Z</time></trkpt><trkpt lat="39.30728093771969" lon="9.235120705516236"><ele>180.0</ele><time>2026-03-29T11:55:51.998Z</time></trkpt><trkpt lat="39.30731840585404" lon="9.235049103655895"><ele>179.83333333333334</ele><time>2026-03-29T11:55:52.998Z</time></trkpt><trkpt lat="39.307361118823486" lon="9.234978662853223"><ele>179.66666666666666</ele><time>2026-03-29T11:55:53.998Z</time></trkpt><trkpt lat="39.307415856369715" lon="9.234892104438915"><ele>179.5</ele><time>2026-03-29T11:55:55.997Z</time></trkpt><trkpt lat="39.30737600883594" lon="9.234768182557497"><ele>179.33333333333331</ele><time>2026-03-29T11:55:57.997Z</time></trkpt><trkpt lat="39.30731455527578" lon="9.2346849841691"><ele>179.16666666666666</ele><time>2026-03-29T11:55:58.997Z</time></trkpt><trkpt lat="39.30725590698251" lon="9.23458806513243"><ele>179.0</ele><time>2026-03-29T11:55:59.997Z</time></trkpt><trkpt lat="39.307192307514455" lon="9.234467159725446"><ele>176.25</ele><time>2026-03-29T11:56:00.997Z</time></trkpt><trkpt lat="39.30711319624505" lon="9.234339900753163"><ele>173.5</ele><time>2026-03-29T11:56:01.997Z</time></trkpt><trkpt lat="39.30701888462067" lon="9.234211602644255"><ele>170.75</ele><time>2026-03-29T11:56:02.997Z</time></trkpt><trkpt lat="39.30691309066231" lon="9.234068246289672"><ele>168.0</ele><time>2026-03-29T11:56:03.997Z</time></trkpt><trkpt lat="39.306814846625144" lon="9.233920150371691"><ele>166.0</ele><time>2026-03-29T11:56:04.997Z</time></trkpt><trkpt lat="39.30673603090145" lon="9.23377704683429"><ele>164.0</ele><time>2026-03-29T11:56:05.997Z</time></trkpt><trkpt lat="39.30666095071726" lon="9.2336330066975"><ele>162.0</ele><time>2026-03-29T11:56:06.997Z</time></trkpt><trkpt lat="39.30659883534357" lon="9.233488355461391"><ele>160.0</ele><time>2026-03-29T11:56:07.997Z</time></trkpt><trkpt lat="39.30654557063431" lon="9.233326502722683"><ele>160.0</ele><time>2026-03-29T11:56:08.997Z</time></trkpt><trkpt lat="39.30649508192524" lon="9.233184520925018"><ele>160.0</ele><time>2026-03-29T11:56:09.997Z</time></trkpt><trkpt lat="39.30646424038091" lon="9.23304037610678"><ele>160.0</ele><time>2026-03-29T11:56:10.997Z</time></trkpt><trkpt lat="39.30647870736921" lon="9.232885108324075"><ele>160.0</ele><time>2026-03-29T11:56:11.997Z</time></trkpt><trkpt lat="39.30653168791973" lon="9.232725545197644"><ele>157.33333333333334</ele><time>2026-03-29T11:56:13Z</time></trkpt><trkpt lat="39.30662415748682" lon="9.232543123829602"><ele>154.66666666666666</ele><time>2026-03-29T11:56:14Z</time></trkpt><trkpt lat="39.30673832221947" lon="9.232363988083149"><ele>152.0</ele><time>2026-03-29T11:56:15Z</time></trkpt><trkpt lat="39.306833207863626" lon="9.232200674757788"><ele>151.75</ele><time>2026-03-29T11:56:16Z</time></trkpt><trkpt lat="39.306875551468686" lon="9.23204134180497"><ele>151.5</ele><time>2026-03-29T11:56:17Z</time></trkpt><trkpt lat="39.3068858675504" lon="9.231887762171645"><ele>151.25</ele><time>2026-03-29T11:56:18Z</time></trkpt><trkpt lat="39.30689635796826" lon="9.231715990890809"><ele>151.0</ele><time>2026-03-29T11:56:19Z</time></trkpt><trkpt lat="39.306890894215705" lon="9.231541786699681"><ele>153.0</ele><time>2026-03-29T11:56:20Z</time></trkpt><trkpt lat="39.30689238097307" lon="9.231340192855722"><ele>155.0</ele><time>2026-03-29T11:56:21Z</time></trkpt><trkpt lat="39.306894424383856" lon="9.231090449031273"><ele>157.0</ele><time>2026-03-29T11:56:22Z</time></trkpt><trkpt lat="39.30689737160025" lon="9.230870432849118"><ele>157.0</ele><time>2026-03-29T11:56:23Z</time></trkpt><trkpt lat="39.306902530644614" lon="9.230672484990524"><ele>157.0</ele><time>2026-03-29T11:56:24Z</time></trkpt><trkpt lat="39.30691461163764" lon="9.230491016429047"><ele>157.0</ele><time>2026-03-29T11:56:25Z</time></trkpt><trkpt lat="39.30693183790187" lon="9.230306638590601"><ele>157.0</ele><time>2026-03-29T11:56:26Z</time></trkpt><trkpt lat="39.3069354906689" lon="9.230122188089569"><ele>159.0</ele><time>2026-03-29T11:56:27Z</time></trkpt><trkpt lat="39.306932432038906" lon="9.229925779955725"><ele>161.0</ele><time>2026-03-29T11:56:28Z</time></trkpt><trkpt lat="39.30692586300441" lon="9.229730043269537"><ele>163.0</ele><time>2026-03-29T11:56:29Z</time></trkpt><trkpt lat="39.30691745881575" lon="9.229539263373818"><ele>162.5</ele><time>2026-03-29T11:56:30Z</time></trkpt><trkpt lat="39.30690659508326" lon="9.229336562601057"><ele>162.0</ele><time>2026-03-29T11:56:31Z</time></trkpt><trkpt lat="39.30689562721367" lon="9.229148686094856"><ele>161.5</ele><time>2026-03-29T11:56:32Z</time></trkpt><trkpt lat="39.30687429300362" lon="9.228967229213145"><ele>161.0</ele><time>2026-03-29T11:56:33Z</time></trkpt><trkpt lat="39.30686732976103" lon="9.228793340611613"><ele>161.0</ele><time>2026-03-29T11:56:34Z</time></trkpt><trkpt lat="39.30686699665084" lon="9.228634383950581"><ele>161.0</ele><time>2026-03-29T11:56:35Z</time></trkpt><trkpt lat="39.30686736353871" lon="9.228470486588042"><ele>161.0</ele><time>2026-03-29T11:56:36Z</time></trkpt><trkpt lat="39.30687935925302" lon="9.228293143412321"><ele>161.0</ele><time>2026-03-29T11:56:37Z</time></trkpt><trkpt lat="39.30690010043123" lon="9.228122820722358"><ele>158.75</ele><time>2026-03-29T11:56:38Z</time></trkpt><trkpt lat="39.306919420783636" lon="9.227940342305974"><ele>156.5</ele><time>2026-03-29T11:56:39Z</time></trkpt><trkpt lat="39.30693454657563" lon="9.22778247793511"><ele>154.25</ele><time>2026-03-29T11:56:40Z</time></trkpt><trkpt lat="39.306950503565226" lon="9.227630268140409"><ele>152.0</ele><time>2026-03-29T11:56:41Z</time></trkpt><trkpt lat="39.30697287612112" lon="9.227473233768192"><ele>152.0</ele><time>2026-03-29T11:56:42Z</time></trkpt><trkpt lat="39.30699022779375" lon="9.227320573568617"><ele>152.0</ele><time>2026-03-29T11:56:42.999Z</time></trkpt><trkpt lat="39.30700726066585" lon="9.22717755999025"><ele>152.0</ele><time>2026-03-29T11:56:43.999Z</time></trkpt><trkpt lat="39.307020615431625" lon="9.227035956883721"><ele>152.0</ele><time>2026-03-29T11:56:44.999Z</time></trkpt><trkpt lat="39.30703504338242" lon="9.226903340597705"><ele>152.0</ele><time>2026-03-29T11:56:45.999Z</time></trkpt><trkpt lat="39.307048821141706" lon="9.226782027063086"><ele>150.6</ele><time>2026-03-29T11:56:46.999Z</time></trkpt><trkpt lat="39.30706365381922" lon="9.226643299119146"><ele>149.2</ele><time>2026-03-29T11:56:47.999Z</time></trkpt><trkpt lat="39.307069650905284" lon="9.226518390094546"><ele>147.8</ele><time>2026-03-29T11:56:48.999Z</time></trkpt><trkpt lat="39.30707580800004" lon="9.226392424136558"><ele>146.4</ele><time>2026-03-29T11:56:49.999Z</time></trkpt><trkpt lat="39.30709060170962" lon="9.226245810032424"><ele>145.0</ele><time>2026-03-29T11:56:50.999Z</time></trkpt><trkpt lat="39.30709904826322" lon="9.226107887315104"><ele>144.0</ele><time>2026-03-29T11:56:51.999Z</time></trkpt><trkpt lat="39.30709993118314" lon="9.225958210821396"><ele>143.0</ele><time>2026-03-29T11:56:52.999Z</time></trkpt><trkpt lat="39.30707849252303" lon="9.225821992999526"><ele>142.0</ele><time>2026-03-29T11:56:53.999Z</time></trkpt><trkpt lat="39.307051312110076" lon="9.225686768702678"><ele>141.0</ele><time>2026-03-29T11:56:54.999Z</time></trkpt><trkpt lat="39.30702304138026" lon="9.225541517557517"><ele>140.0</ele><time>2026-03-29T11:56:55.999Z</time></trkpt><trkpt lat="39.306988852874866" lon="9.225390534400601"><ele>139.25</ele><time>2026-03-29T11:56:56.999Z</time></trkpt><trkpt lat="39.306950362228875" lon="9.225230941679127"><ele>138.5</ele><time>2026-03-29T11:56:57.999Z</time></trkpt><trkpt lat="39.306904599960845" lon="9.22508693489517"><ele>137.75</ele><time>2026-03-29T11:56:58.999Z</time></trkpt><trkpt lat="39.30685494875402" lon="9.224947611996228"><ele>137.0</ele><time>2026-03-29T11:56:59.999Z</time></trkpt><trkpt lat="39.30680933432596" lon="9.224814922864857"><ele>136.75</ele><time>2026-03-29T11:57:00.999Z</time></trkpt><trkpt lat="39.306760367027294" lon="9.224687226518562"><ele>136.5</ele><time>2026-03-29T11:57:01.999Z</time></trkpt><trkpt lat="39.306701286117296" lon="9.224567741646796"><ele>136.25</ele><time>2026-03-29T11:57:02.999Z</time></trkpt><trkpt lat="39.30664389187956" lon="9.224435234751821"><ele>136.0</ele><time>2026-03-29T11:57:03.999Z</time></trkpt><trkpt lat="39.30657853083929" lon="9.224306941423018"><ele>136.0</ele><time>2026-03-29T11:57:04.999Z</time></trkpt><trkpt lat="39.30650746051174" lon="9.224160428149121"><ele>136.0</ele><time>2026-03-29T11:57:05.999Z</time></trkpt><trkpt lat="39.306442638486025" lon="9.224008874228439"><ele>136.0</ele><time>2026-03-29T11:57:06.999Z</time></trkpt><trkpt lat="39.306389689317086" lon="9.223876711089833"><ele>136.0</ele><time>2026-03-29T11:57:07.999Z</time></trkpt><trkpt lat="39.30635187266433" lon="9.223757244740924"><ele>135.25</ele><time>2026-03-29T11:57:08.999Z</time></trkpt><trkpt lat="39.30632901477174" lon="9.223622327210354"><ele>134.5</ele><time>2026-03-29T11:57:09.999Z</time></trkpt><trkpt lat="39.30631108862462" lon="9.223464218837734"><ele>133.75</ele><time>2026-03-29T11:57:10.999Z</time></trkpt><trkpt lat="39.30630198789512" lon="9.22329333038991"><ele>133.0</ele><time>2026-03-29T11:57:11.999Z</time></trkpt><trkpt lat="39.30630332619541" lon="9.22311851588583"><ele>133.0</ele><time>2026-03-29T11:57:12.999Z</time></trkpt><trkpt lat="39.306291371443926" lon="9.22293614118985"><ele>133.0</ele><time>2026-03-29T11:57:13.999Z</time></trkpt><trkpt lat="39.30625506890149" lon="9.222762699740848"><ele>133.0</ele><time>2026-03-29T11:57:14.999Z</time></trkpt><trkpt lat="39.306201381409224" lon="9.222588842517467"><ele>133.0</ele><time>2026-03-29T11:57:15.999Z</time></trkpt><trkpt lat="39.306144854208576" lon="9.222438238270232"><ele>133.25</ele><time>2026-03-29T11:57:16.999Z</time></trkpt><trkpt lat="39.30608330560723" lon="9.222287154242576"><ele>133.5</ele><time>2026-03-29T11:57:17.999Z</time></trkpt><trkpt lat="39.306038297910284" lon="9.222117698010079"><ele>133.75</ele><time>2026-03-29T11:57:18.999Z</time></trkpt><trkpt lat="39.30600461249726" lon="9.221957413350752"><ele>134.0</ele><time>2026-03-29T11:57:19.999Z</time></trkpt><trkpt lat="39.305979018988054" lon="9.221791520796371"><ele>134.0</ele><time>2026-03-29T11:57:20.999Z</time></trkpt><trkpt lat="39.30594820446173" lon="9.221619489454143"><ele>134.0</ele><time>2026-03-29T11:57:21.999Z</time></trkpt><trkpt lat="39.30592475799388" lon="9.221450228671708"><ele>134.0</ele><time>2026-03-29T11:57:22.999Z</time></trkpt><trkpt lat="39.30588589945324" lon="9.221290851713354"><ele>134.0</ele><time>2026-03-29T11:57:23.998Z</time></trkpt><trkpt lat="39.30584046424319" lon="9.221132074084736"><ele>134.0</ele><time>2026-03-29T11:57:24.998Z</time></trkpt><trkpt lat="39.305783807054475" lon="9.220983246378184"><ele>134.0</ele><time>2026-03-29T11:57:25.998Z</time></trkpt><trkpt lat="39.30572905817204" lon="9.22084891320099"><ele>134.0</ele><time>2026-03-29T11:57:26.998Z</time></trkpt><trkpt lat="39.30568518939077" lon="9.220720457916862"><ele>134.0</ele><time>2026-03-29T11:57:27.998Z</time></trkpt><trkpt lat="39.305640977709714" lon="9.220595063271878"><ele>134.0</ele><time>2026-03-29T11:57:28.998Z</time></trkpt><trkpt lat="39.305606259673354" lon="9.220448642317203"><ele>134.0</ele><time>2026-03-29T11:57:29.998Z</time></trkpt><trkpt lat="39.305573543182625" lon="9.220299939076227"><ele>134.0</ele><time>2026-03-29T11:57:30.998Z</time></trkpt><trkpt lat="39.30555198612063" lon="9.220146606794135"><ele>134.0</ele><time>2026-03-29T11:57:31.998Z</time></trkpt><trkpt lat="39.30554669943091" lon="9.219967967752826"><ele>133.0</ele><time>2026-03-29T11:57:32.998Z</time></trkpt><trkpt lat="39.30553005091797" lon="9.219784069107254"><ele>132.0</ele><time>2026-03-29T11:57:33.998Z</time></trkpt><trkpt lat="39.30552555273404" lon="9.219604654619067"><ele>131.0</ele><time>2026-03-29T11:57:34.998Z</time></trkpt><trkpt lat="39.305530796437004" lon="9.21942757352192"><ele>130.0</ele><time>2026-03-29T11:57:35.998Z</time></trkpt><trkpt lat="39.305512994209415" lon="9.219245059607948"><ele>130.0</ele><time>2026-03-29T11:57:36.998Z</time></trkpt><trkpt lat="39.305496806006765" lon="9.219060808781434"><ele>130.0</ele><time>2026-03-29T11:57:37.998Z</time></trkpt><trkpt lat="39.30546896358003" lon="9.21890659614159"><ele>130.0</ele><time>2026-03-29T11:57:38.998Z</time></trkpt><trkpt lat="39.30543369778789" lon="9.218747623624738"><ele>130.0</ele><time>2026-03-29T11:57:39.998Z</time></trkpt><trkpt lat="39.30539333840243" lon="9.218585633386317"><ele>130.25</ele><time>2026-03-29T11:57:40.998Z</time></trkpt><trkpt lat="39.305354647005124" lon="9.218425366609242"><ele>130.5</ele><time>2026-03-29T11:57:41.998Z</time></trkpt><trkpt lat="39.30531444186819" lon="9.218288466063639"><ele>130.75</ele><time>2026-03-29T11:57:42.998Z</time></trkpt><trkpt lat="39.30528458699657" lon="9.218159800017984"><ele>131.0</ele><time>2026-03-29T11:57:43.998Z</time></trkpt><trkpt lat="39.30525136015783" lon="9.218027586205313"><ele>130.5</ele><time>2026-03-29T11:57:44.998Z</time></trkpt><trkpt lat="39.30522453161299" lon="9.217873296771957"><ele>130.0</ele><time>2026-03-29T11:57:45.998Z</time></trkpt><trkpt lat="39.305207402228824" lon="9.217712917857824"><ele>129.5</ele><time>2026-03-29T11:57:46.998Z</time></trkpt><trkpt lat="39.30521003656319" lon="9.21755113066799"><ele>129.0</ele><time>2026-03-29T11:57:47.998Z</time></trkpt><trkpt lat="39.30523142303331" lon="9.217384403650279"><ele>128.5</ele><time>2026-03-29T11:57:48.998Z</time></trkpt><trkpt lat="39.30525145101931" lon="9.217210321373491"><ele>128.0</ele><time>2026-03-29T11:57:49.998Z</time></trkpt><trkpt lat="39.305272093378086" lon="9.217029390405889"><ele>127.5</ele><time>2026-03-29T11:57:50.998Z</time></trkpt><trkpt lat="39.30529246567777" lon="9.216858096564296"><ele>127.0</ele><time>2026-03-29T11:57:51.998Z</time></trkpt><trkpt lat="39.305308233767555" lon="9.216721214046814"><ele>127.0</ele><time>2026-03-29T11:57:52.998Z</time></trkpt><trkpt lat="39.3053167426251" lon="9.216626465297747"><ele>126.99999999999999</ele><time>2026-03-29T11:57:54.998Z</time></trkpt><trkpt lat="39.30521036863744" lon="9.21659690592864"><ele>126.99999999999999</ele><time>2026-03-29T11:57:58.998Z</time></trkpt><trkpt lat="39.30511135192243" lon="9.21660450493522"><ele>127.0</ele><time>2026-03-29T11:57:59.998Z</time></trkpt><trkpt lat="39.305006260499134" lon="9.21663513044129"><ele>127.0</ele><time>2026-03-29T11:58:00.998Z</time></trkpt><trkpt lat="39.30489155979594" lon="9.216669208185905"><ele>127.0</ele><time>2026-03-29T11:58:01.998Z</time></trkpt><trkpt lat="39.3047725317638" lon="9.216705145996741"><ele>127.0</ele><time>2026-03-29T11:58:02.998Z</time></trkpt><trkpt lat="39.30464147892409" lon="9.21674518435435"><ele>127.0</ele><time>2026-03-29T11:58:03.997Z</time></trkpt><trkpt lat="39.304501298272704" lon="9.216788217325702"><ele>127.0</ele><time>2026-03-29T11:58:04.997Z</time></trkpt><trkpt lat="39.30436412310902" lon="9.21683115992064"><ele>126.25</ele><time>2026-03-29T11:58:05.997Z</time></trkpt><trkpt lat="39.3042283151293" lon="9.216873674519388"><ele>125.5</ele><time>2026-03-29T11:58:06.997Z</time></trkpt><trkpt lat="39.30409548434462" lon="9.216930567546028"><ele>124.75</ele><time>2026-03-29T11:58:07.997Z</time></trkpt><trkpt lat="39.303966859349764" lon="9.216968917671784"><ele>124.0</ele><time>2026-03-29T11:58:08.997Z</time></trkpt><trkpt lat="39.30384189269778" lon="9.217008372487333"><ele>123.25</ele><time>2026-03-29T11:58:09.997Z</time></trkpt><trkpt lat="39.30371343339264" lon="9.217024794652858"><ele>122.5</ele><time>2026-03-29T11:58:10.997Z</time></trkpt><trkpt lat="39.3035925164415" lon="9.21705949859217"><ele>121.75</ele><time>2026-03-29T11:58:11.997Z</time></trkpt><trkpt lat="39.30347234116706" lon="9.217093989670856"><ele>121.0</ele><time>2026-03-29T11:58:12.997Z</time></trkpt><trkpt lat="39.30335281651843" lon="9.217128294010825"><ele>121.0</ele><time>2026-03-29T11:58:13.997Z</time></trkpt><trkpt lat="39.30324033869254" lon="9.217156203582661"><ele>121.0</ele><time>2026-03-29T11:58:14.997Z</time></trkpt><trkpt lat="39.30313194824834" lon="9.217183045662178"><ele>121.0</ele><time>2026-03-29T11:58:15.997Z</time></trkpt><trkpt lat="39.30302623981826" lon="9.217210642394473"><ele>121.0</ele><time>2026-03-29T11:58:16.997Z</time></trkpt><trkpt lat="39.302926232313006" lon="9.217237151558912"><ele>121.0</ele><time>2026-03-29T11:58:18Z</time></trkpt><trkpt lat="39.302836275850744" lon="9.217281584006844"><ele>120.8</ele><time>2026-03-29T11:58:19Z</time></trkpt><trkpt lat="39.30274017191019" lon="9.217304100337747"><ele>120.6</ele><time>2026-03-29T11:58:20Z</time></trkpt><trkpt lat="39.30264115609789" lon="9.21731107647962"><ele>120.4</ele><time>2026-03-29T11:58:21Z</time></trkpt><trkpt lat="39.30254128136432" lon="9.21733646850621"><ele>120.2</ele><time>2026-03-29T11:58:22Z</time></trkpt><trkpt lat="39.30245452833909" lon="9.217360553453755"><ele>120.0</ele><time>2026-03-29T11:58:23Z</time></trkpt><trkpt lat="39.30235824083079" lon="9.217387286731231"><ele>119.5</ele><time>2026-03-29T11:58:24Z</time></trkpt><trkpt lat="39.30225384084359" lon="9.217416271016075"><ele>119.0</ele><time>2026-03-29T11:58:25Z</time></trkpt><trkpt lat="39.30214187880876" lon="9.217463413936834"><ele>118.5</ele><time>2026-03-29T11:58:26Z</time></trkpt><trkpt lat="39.30201761423476" lon="9.217467751301163"><ele>118.0</ele><time>2026-03-29T11:58:27Z</time></trkpt><trkpt lat="39.3018832255245" lon="9.217482914024352"><ele>117.5</ele><time>2026-03-29T11:58:28Z</time></trkpt><trkpt lat="39.30174716706908" lon="9.217456911290986"><ele>117.0</ele><time>2026-03-29T11:58:29Z</time></trkpt><trkpt lat="39.30161655121152" lon="9.217415542287025"><ele>116.5</ele><time>2026-03-29T11:58:30Z</time></trkpt><trkpt lat="39.30149676710355" lon="9.217360395218394"><ele>116.0</ele><time>2026-03-29T11:58:31Z</time></trkpt><trkpt lat="39.3013811345219" lon="9.217290579303638"><ele>114.75</ele><time>2026-03-29T11:58:32Z</time></trkpt><trkpt lat="39.301262659926934" lon="9.217197513467015"><ele>113.5</ele><time>2026-03-29T11:58:33Z</time></trkpt><trkpt lat="39.301167256812555" lon="9.217091756841109"><ele>112.25</ele><time>2026-03-29T11:58:34Z</time></trkpt><trkpt lat="39.30109244060138" lon="9.21697628697395"><ele>111.0</ele><time>2026-03-29T11:58:35Z</time></trkpt><trkpt lat="39.30103206871875" lon="9.216837055686456"><ele>111.0</ele><time>2026-03-29T11:58:36Z</time></trkpt><trkpt lat="39.30096078205119" lon="9.216676412197009"><ele>111.0</ele><time>2026-03-29T11:58:37Z</time></trkpt><trkpt lat="39.300865883075154" lon="9.216506444001906"><ele>111.0</ele><time>2026-03-29T11:58:38Z</time></trkpt><trkpt lat="39.30076752861834" lon="9.216328476509343"><ele>110.75</ele><time>2026-03-29T11:58:39Z</time></trkpt><trkpt lat="39.30068261018361" lon="9.216149967571575"><ele>110.5</ele><time>2026-03-29T11:58:40Z</time></trkpt><trkpt lat="39.300613604497265" lon="9.215986894540602"><ele>110.25</ele><time>2026-03-29T11:58:41Z</time></trkpt><trkpt lat="39.300548009764384" lon="9.215852303738709"><ele>110.0</ele><time>2026-03-29T11:58:42Z</time></trkpt><trkpt lat="39.300478037140756" lon="9.215700492066473"><ele>110.25</ele><time>2026-03-29T11:58:43Z</time></trkpt><trkpt lat="39.300410931625024" lon="9.21556778746798"><ele>110.5</ele><time>2026-03-29T11:58:44Z</time></trkpt><trkpt lat="39.30035238095025" lon="9.215418411074856"><ele>110.75</ele><time>2026-03-29T11:58:45Z</time></trkpt><trkpt lat="39.30030280451301" lon="9.215256493630427"><ele>111.0</ele><time>2026-03-29T11:58:46Z</time></trkpt><trkpt lat="39.300257869144616" lon="9.215092339096607"><ele>111.0</ele><time>2026-03-29T11:58:47Z</time></trkpt><trkpt lat="39.30021799015418" lon="9.21493721133133"><ele>111.0</ele><time>2026-03-29T11:58:47.999Z</time></trkpt><trkpt lat="39.30016294655685" lon="9.214801125348686"><ele>111.0</ele><time>2026-03-29T11:58:48.999Z</time></trkpt><trkpt lat="39.300122606903486" lon="9.21465266444615"><ele>111.0</ele><time>2026-03-29T11:58:49.999Z</time></trkpt><trkpt lat="39.300092359040875" lon="9.21449307834966"><ele>111.75</ele><time>2026-03-29T11:58:50.999Z</time></trkpt><trkpt lat="39.300014086078406" lon="9.214350589520425"><ele>112.5</ele><time>2026-03-29T11:58:51.999Z</time></trkpt><trkpt lat="39.29992735322619" lon="9.21422880667829"><ele>113.25</ele><time>2026-03-29T11:58:52.999Z</time></trkpt><trkpt lat="39.299832001994695" lon="9.214130320687559"><ele>114.0</ele><time>2026-03-29T11:58:53.999Z</time></trkpt><trkpt lat="39.299747659746345" lon="9.214044446264083"><ele>114.33333333333333</ele><time>2026-03-29T11:58:54.999Z</time></trkpt><trkpt lat="39.299676914510215" lon="9.213977147719111"><ele>114.66666666666666</ele><time>2026-03-29T11:58:55.999Z</time></trkpt><trkpt lat="39.29962516301397" lon="9.213929776409941"><ele>115.0</ele><time>2026-03-29T11:58:56.999Z</time></trkpt><trkpt lat="39.29954649505698" lon="9.213899994517599"><ele>115.33333333333333</ele><time>2026-03-29T11:58:59.999Z</time></trkpt><trkpt lat="39.29946492949031" lon="9.214020075678656"><ele>115.66666666666666</ele><time>2026-03-29T11:59:01.999Z</time></trkpt><trkpt lat="39.29942665557589" lon="9.21412147638334"><ele>116.0</ele><time>2026-03-29T11:59:02.999Z</time></trkpt><trkpt lat="39.29937867178959" lon="9.214258200816673"><ele>116.0</ele><time>2026-03-29T11:59:03.999Z</time></trkpt><trkpt lat="39.299323241465224" lon="9.214409177943319"><ele>116.0</ele><time>2026-03-29T11:59:04.999Z</time></trkpt><trkpt lat="39.29925471834195" lon="9.214566781096787"><ele>116.0</ele><time>2026-03-29T11:59:05.999Z</time></trkpt><trkpt lat="39.299178636793535" lon="9.214730514461056"><ele>116.0</ele><time>2026-03-29T11:59:06.999Z</time></trkpt><trkpt lat="39.29909890222934" lon="9.214868404169312"><ele>115.25</ele><time>2026-03-29T11:59:07.999Z</time></trkpt><trkpt lat="39.29901410109084" lon="9.21498464456192"><ele>114.5</ele><time>2026-03-29T11:59:08.999Z</time></trkpt><trkpt lat="39.29891233468761" lon="9.215098593509547"><ele>113.75</ele><time>2026-03-29T11:59:09.999Z</time></trkpt><trkpt lat="39.29880942975376" lon="9.21519077461038"><ele>113.0</ele><time>2026-03-29T11:59:10.999Z</time></trkpt><trkpt lat="39.29870413942102" lon="9.215261090798805"><ele>112.25</ele><time>2026-03-29T11:59:11.999Z</time></trkpt><trkpt lat="39.29859239063172" lon="9.215332011030872"><ele>111.5</ele><time>2026-03-29T11:59:12.999Z</time></trkpt><trkpt lat="39.29847570565388" lon="9.215397452342698"><ele>110.75</ele><time>2026-03-29T11:59:13.999Z</time></trkpt><trkpt lat="39.29834680980154" lon="9.215467819904736"><ele>110.0</ele><time>2026-03-29T11:59:14.999Z</time></trkpt><trkpt lat="39.298218586878704" lon="9.215535945514253"><ele>109.75</ele><time>2026-03-29T11:59:15.999Z</time></trkpt><trkpt lat="39.298081513402245" lon="9.21560877344384"><ele>109.5</ele><time>2026-03-29T11:59:16.999Z</time></trkpt><trkpt lat="39.297957231104505" lon="9.215674423093375"><ele>109.25</ele><time>2026-03-29T11:59:17.999Z</time></trkpt><trkpt lat="39.29784284969848" lon="9.215734121842583"><ele>109.0</ele><time>2026-03-29T11:59:18.999Z</time></trkpt><trkpt lat="39.29773568555665" lon="9.21579005372614"><ele>108.5</ele><time>2026-03-29T11:59:19.999Z</time></trkpt><trkpt lat="39.297626375998966" lon="9.21584606549221"><ele>108.0</ele><time>2026-03-29T11:59:20.999Z</time></trkpt><trkpt lat="39.29750057087866" lon="9.215909001206493"><ele>107.5</ele><time>2026-03-29T11:59:21.999Z</time></trkpt><trkpt lat="39.297398137632214" lon="9.215956533547173"><ele>107.0</ele><time>2026-03-29T11:59:22.999Z</time></trkpt><trkpt lat="39.297284179731896" lon="9.216005535708657"><ele>107.25</ele><time>2026-03-29T11:59:23.999Z</time></trkpt><trkpt lat="39.29716154936503" lon="9.216047649897503"><ele>107.5</ele><time>2026-03-29T11:59:24.999Z</time></trkpt><trkpt lat="39.29703575234085" lon="9.216081124695013"><ele>107.75</ele><time>2026-03-29T11:59:25.999Z</time></trkpt><trkpt lat="39.29689963566683" lon="9.21610753205624"><ele>108.0</ele><time>2026-03-29T11:59:26.999Z</time></trkpt><trkpt lat="39.296765140492234" lon="9.216133215049712"><ele>108.0</ele><time>2026-03-29T11:59:27.999Z</time></trkpt><trkpt lat="39.296622570298275" lon="9.216149126082641"><ele>108.0</ele><time>2026-03-29T11:59:28.999Z</time></trkpt><trkpt lat="39.29647018285741" lon="9.216175201294801"><ele>108.0</ele><time>2026-03-29T11:59:29.998Z</time></trkpt><trkpt lat="39.29632575335467" lon="9.216175174402224"><ele>108.0</ele><time>2026-03-29T11:59:30.998Z</time></trkpt><trkpt lat="39.29619851453546" lon="9.216170146069151"><ele>107.25</ele><time>2026-03-29T11:59:31.998Z</time></trkpt><trkpt lat="39.296081598700425" lon="9.216161839722169"><ele>106.5</ele><time>2026-03-29T11:59:32.998Z</time></trkpt><trkpt lat="39.29594904178186" lon="9.216152931346981"><ele>105.75</ele><time>2026-03-29T11:59:33.998Z</time></trkpt><trkpt lat="39.295830367093146" lon="9.216145945752132"><ele>105.0</ele><time>2026-03-29T11:59:34.998Z</time></trkpt><trkpt lat="39.2957013966444" lon="9.216132905970735"><ele>104.4</ele><time>2026-03-29T11:59:35.998Z</time></trkpt><trkpt lat="39.29558094443396" lon="9.216121172079383"><ele>103.8</ele><time>2026-03-29T11:59:36.998Z</time></trkpt><trkpt lat="39.29548785044034" lon="9.216109598766302"><ele>103.19999999999999</ele><time>2026-03-29T11:59:37.998Z</time></trkpt><trkpt lat="39.29539347751151" lon="9.216099997178562"><ele>102.6</ele><time>2026-03-29T11:59:38.998Z</time></trkpt><trkpt lat="39.2952913890402" lon="9.216091150652598"><ele>102.0</ele><time>2026-03-29T11:59:39.998Z</time></trkpt><trkpt lat="39.29517430759238" lon="9.216060785809942"><ele>102.0</ele><time>2026-03-29T11:59:40.998Z</time></trkpt><trkpt lat="39.295045820044294" lon="9.216048295836037"><ele>102.0</ele><time>2026-03-29T11:59:41.998Z</time></trkpt><trkpt lat="39.29492131359251" lon="9.216036192864413"><ele>102.0</ele><time>2026-03-29T11:59:42.998Z</time></trkpt><trkpt lat="39.294758767764755" lon="9.216020392173336"><ele>102.0</ele><time>2026-03-29T11:59:43.998Z</time></trkpt><trkpt lat="39.294558068168186" lon="9.216000882645858"><ele>101.25</ele><time>2026-03-29T11:59:44.998Z</time></trkpt><trkpt lat="39.29440420327098" lon="9.216007309093891"><ele>100.5</ele><time>2026-03-29T11:59:45.998Z</time></trkpt><trkpt lat="39.29430148065947" lon="9.215994738959782"><ele>99.75</ele><time>2026-03-29T11:59:46.998Z</time></trkpt><trkpt lat="39.29418692456146" lon="9.215981566432275"><ele>99.0</ele><time>2026-03-29T11:59:47.998Z</time></trkpt><trkpt lat="39.29406822508549" lon="9.215971150364211"><ele>99.0</ele><time>2026-03-29T11:59:48.998Z</time></trkpt><trkpt lat="39.29395718395215" lon="9.21595129572855"><ele>99.0</ele><time>2026-03-29T11:59:49.998Z</time></trkpt><trkpt lat="39.293827831589105" lon="9.21594123225326"><ele>99.0</ele><time>2026-03-29T11:59:50.998Z</time></trkpt><trkpt lat="39.29364656777672" lon="9.215928486292148"><ele>99.0</ele><time>2026-03-29T11:59:51.998Z</time></trkpt><trkpt lat="39.29344228243796" lon="9.21589504087163"><ele>98.80000000000001</ele><time>2026-03-29T11:59:52.998Z</time></trkpt><trkpt lat="39.29331738663666" lon="9.215889467580103"><ele>98.60000000000001</ele><time>2026-03-29T11:59:53.998Z</time></trkpt><trkpt lat="39.29324220974174" lon="9.215884082675489"><ele>98.4</ele><time>2026-03-29T11:59:54.998Z</time></trkpt><trkpt lat="39.293167080470525" lon="9.215878994833156"><ele>98.2</ele><time>2026-03-29T11:59:55.998Z</time></trkpt><trkpt lat="39.293058468110814" lon="9.215870806136323"><ele>98.0</ele><time>2026-03-29T11:59:56.998Z</time></trkpt><trkpt lat="39.29289096308489" lon="9.21583775154882"><ele>98.0</ele><time>2026-03-29T11:59:57.998Z</time></trkpt><trkpt lat="39.292690842785404" lon="9.21580842246671"><ele>98.0</ele><time>2026-03-29T11:59:58.998Z</time></trkpt><trkpt lat="39.29250710347698" lon="9.215787395118577"><ele>98.0</ele><time>2026-03-29T11:59:59.998Z</time></trkpt><trkpt lat="39.292351743726734" lon="9.215747902356537"><ele>98.0</ele><time>2026-03-29T12:00:00.998Z</time></trkpt><trkpt lat="39.29221063553669" lon="9.215709413443323"><ele>98.0</ele><time>2026-03-29T12:00:01.998Z</time></trkpt><trkpt lat="39.292065857245994" lon="9.215673019637384"><ele>98.0</ele><time>2026-03-29T12:00:02.998Z</time></trkpt><trkpt lat="39.29192466711326" lon="9.215636497699007"><ele>98.0</ele><time>2026-03-29T12:00:03.998Z</time></trkpt><trkpt lat="39.291792461376346" lon="9.21560462335137"><ele>98.5</ele><time>2026-03-29T12:00:04.998Z</time></trkpt><trkpt lat="39.29167167487918" lon="9.215567225830808"><ele>99.0</ele><time>2026-03-29T12:00:05.998Z</time></trkpt><trkpt lat="39.291552886625155" lon="9.215515529449274"><ele>99.5</ele><time>2026-03-29T12:00:06.998Z</time></trkpt><trkpt lat="39.291439422885894" lon="9.215465867561738"><ele>100.0</ele><time>2026-03-29T12:00:07.998Z</time></trkpt><trkpt lat="39.29133067021276" lon="9.215397712328862"><ele>98.5</ele><time>2026-03-29T12:00:08.998Z</time></trkpt><trkpt lat="39.29122690676208" lon="9.215308999597008"><ele>97.0</ele><time>2026-03-29T12:00:09.997Z</time></trkpt><trkpt lat="39.291144088783874" lon="9.21521259751613"><ele>95.5</ele><time>2026-03-29T12:00:10.997Z</time></trkpt><trkpt lat="39.29107099944759" lon="9.215109930587001"><ele>94.0</ele><time>2026-03-29T12:00:11.997Z</time></trkpt><trkpt lat="39.29100741240932" lon="9.214992635260918"><ele>94.0</ele><time>2026-03-29T12:00:12.997Z</time></trkpt><trkpt lat="39.29094467768022" lon="9.2148761047786"><ele>94.0</ele><time>2026-03-29T12:00:13.997Z</time></trkpt><trkpt lat="39.29088051264944" lon="9.214758508287183"><ele>94.0</ele><time>2026-03-29T12:00:14.997Z</time></trkpt><trkpt lat="39.29081277787557" lon="9.214618496085745"><ele>94.0</ele><time>2026-03-29T12:00:15.997Z</time></trkpt><trkpt lat="39.29075776635934" lon="9.214509343303336"><ele>94.16666666666666</ele><time>2026-03-29T12:00:16.997Z</time></trkpt><trkpt lat="39.29073245251029" lon="9.214409929059919"><ele>94.33333333333333</ele><time>2026-03-29T12:00:17.997Z</time></trkpt><trkpt lat="39.290727174916405" lon="9.214321862990705"><ele>94.5</ele><time>2026-03-29T12:00:18.997Z</time></trkpt><trkpt lat="39.29072213482699" lon="9.214214252055156"><ele>94.66666666666667</ele><time>2026-03-29T12:00:19.997Z</time></trkpt><trkpt lat="39.29068743255463" lon="9.21412037152832"><ele>94.83333333333334</ele><time>2026-03-29T12:00:20.997Z</time></trkpt><trkpt lat="39.29061474435563" lon="9.214041054542568"><ele>95.0</ele><time>2026-03-29T12:00:21.997Z</time></trkpt><trkpt lat="39.29051046750074" lon="9.213994892884047"><ele>93.5</ele><time>2026-03-29T12:00:22.997Z</time></trkpt><trkpt lat="39.29042766414832" lon="9.213875627933737"><ele>92.0</ele><time>2026-03-29T12:00:24Z</time></trkpt><trkpt lat="39.29037849460724" lon="9.213695618406229"><ele>90.5</ele><time>2026-03-29T12:00:25Z</time></trkpt><trkpt lat="39.29031700482913" lon="9.213531229381674"><ele>89.0</ele><time>2026-03-29T12:00:26Z</time></trkpt><trkpt lat="39.290277251773865" lon="9.213418469481054"><ele>89.0</ele><time>2026-03-29T12:00:27Z</time></trkpt><trkpt lat="39.290225129744975" lon="9.21334185002365"><ele>89.0</ele><time>2026-03-29T12:00:28Z</time></trkpt></trkseg></trk></gpx>